<?xml version='1.0' encoding='UTF-8'?><gpx version="1.1" creator="JPX - https://github.com/jenetics/jpx" xmlns="http://www.topografix.com/GPX/1/1"><trk><trkseg><trkpt lat="43.50504227350128" lon="10.620774760994413"><ele>304.0</ele><time>2026-04-19T06:53:44.001Z</time></trkpt><trkpt lat="43.505109429452006" lon="10.62083883663622"><ele>304.0</ele><time>2026-04-19T06:54:19.001Z</time></trkpt><trkpt lat="43.50504239078145" lon="10.620855627235219"><ele>304.0</ele><time>2026-04-19T06:56:48.001Z</time></trkpt><trkpt lat="43.50498656676131" lon="10.620782935372159"><ele>304.0</ele><time>2026-04-19T06:56:54.001Z</time></trkpt><trkpt lat="43.5049466352215" lon="10.620703232134115"><ele>304.0</ele><time>2026-04-19T06:57:00.001Z</time></trkpt><trkpt lat="43.504901293757705" lon="10.62064133303292"><ele>304.0</ele><time>2026-04-19T06:57:05.001Z</time></trkpt><trkpt lat="43.504843519155116" lon="10.620573303168387"><ele>304.0</ele><time>2026-04-19T06:57:11.001Z</time></trkpt><trkpt lat="43.50480900208702" lon="10.620497330558491"><ele>304.0</ele><time>2026-04-19T06:57:16.001Z</time></trkpt><trkpt lat="43.50476865357415" lon="10.620427331239371"><ele>304.0</ele><time>2026-04-19T06:57:21.001Z</time></trkpt><trkpt lat="43.504721752420274" lon="10.620367386640547"><ele>304.0</ele><time>2026-04-19T07:01:45.001Z</time></trkpt><trkpt lat="43.504780699805295" lon="10.620315111565754"><ele>304.0</ele><time>2026-04-19T07:01:55.001Z</time></trkpt><trkpt lat="43.50485766434946" lon="10.6202731968988"><ele>304.0</ele><time>2026-04-19T07:06:30.001Z</time></trkpt><trkpt lat="43.504829915487626" lon="10.620354538606408"><ele>304.0</ele><time>2026-04-19T07:06:44.001Z</time></trkpt><trkpt lat="43.50478649108406" lon="10.62041937167638"><ele>304.0</ele><time>2026-04-19T07:06:53.001Z</time></trkpt><trkpt lat="43.50480359078239" lon="10.62050457823019"><ele>304.0</ele><time>2026-04-19T07:09:38Z</time></trkpt><trkpt lat="43.504852107568965" lon="10.62057017787065"><ele>304.0</ele><time>2026-04-19T07:09:46Z</time></trkpt><trkpt lat="43.50488114240804" lon="10.62066109422113"><ele>304.0</ele><time>2026-04-19T07:10:45.001Z</time></trkpt><trkpt lat="43.504936144186274" lon="10.620721941744048"><ele>304.0</ele><time>2026-04-19T07:10:51.001Z</time></trkpt><trkpt lat="43.50498526805546" lon="10.620780425681584"><ele>304.0</ele><time>2026-04-19T07:10:57.001Z</time></trkpt><trkpt lat="43.50493389967985" lon="10.620721671253412"><ele>304.0</ele><time>2026-04-19T07:14:13Z</time></trkpt><trkpt lat="43.50488500897609" lon="10.620655652999794"><ele>304.0</ele><time>2026-04-19T07:14:19Z</time></trkpt><trkpt lat="43.504846755553885" lon="10.620584789820564"><ele>304.0</ele><time>2026-04-19T07:14:25Z</time></trkpt><trkpt lat="43.50481168817832" lon="10.620508687483989"><ele>304.0</ele><time>2026-04-19T07:14:33Z</time></trkpt><trkpt lat="43.50485556218578" lon="10.620588756882833"><ele>304.0</ele><time>2026-04-19T07:15:57.998Z</time></trkpt><trkpt lat="43.50489776361548" lon="10.620655458028128"><ele>304.0</ele><time>2026-04-19T07:16:02.998Z</time></trkpt><trkpt lat="43.50493633873065" lon="10.62072417999394"><ele>304.0</ele><time>2026-04-19T07:16:07.999Z</time></trkpt><trkpt lat="43.50498235039504" lon="10.620797704228808"><ele>304.0</ele><time>2026-04-19T07:16:13.999Z</time></trkpt><trkpt lat="43.50503999695357" lon="10.62083582384654"><ele>304.0</ele><time>2026-04-19T07:16:19.999Z</time></trkpt><trkpt lat="43.50504870707994" lon="10.62072978827904"><ele>304.0</ele><time>2026-04-19T07:16:42Z</time></trkpt><trkpt lat="43.504984262195705" lon="10.62071144829836"><ele>304.0</ele><time>2026-04-19T07:16:56Z</time></trkpt><trkpt lat="43.50504797915992" lon="10.62065646214991"><ele>304.0</ele><time>2026-04-19T07:17:25Z</time></trkpt><trkpt lat="43.50503181813097" lon="10.620554029208064"><ele>304.0</ele><time>2026-04-19T07:17:29Z</time></trkpt><trkpt lat="43.50506784462559" lon="10.620481406037293"><ele>304.0</ele><time>2026-04-19T07:18:15.999Z</time></trkpt><trkpt lat="43.50510084753037" lon="10.62040686811282"><ele>304.0</ele><time>2026-04-19T07:18:17.999Z</time></trkpt><trkpt lat="43.505126095911734" lon="10.620300024925271"><ele>304.0</ele><time>2026-04-19T07:18:19.999Z</time></trkpt><trkpt lat="43.50514338462173" lon="10.620212402316339"><ele>304.8333333333333</ele><time>2026-04-19T07:18:21.999Z</time></trkpt><trkpt lat="43.505171607945286" lon="10.620106664395792"><ele>305.66666666666663</ele><time>2026-04-19T07:18:23.999Z</time></trkpt><trkpt lat="43.50514564089414" lon="10.620012648347707"><ele>306.5</ele><time>2026-04-19T07:18:26.999Z</time></trkpt><trkpt lat="43.50509551876083" lon="10.619959298180545"><ele>307.3333333333333</ele><time>2026-04-19T07:18:32Z</time></trkpt><trkpt lat="43.505029551867786" lon="10.619877705290259"><ele>308.1666666666667</ele><time>2026-04-19T07:18:39Z</time></trkpt><trkpt lat="43.50500958055162" lon="10.61978963546699"><ele>309.0</ele><time>2026-04-19T07:18:42Z</time></trkpt><trkpt lat="43.50505232594817" lon="10.619695057433374"><ele>309.0</ele><time>2026-04-19T07:18:59Z</time></trkpt><trkpt lat="43.50508151673857" lon="10.61961669817869"><ele>309.0</ele><time>2026-04-19T07:19:01Z</time></trkpt><trkpt lat="43.505105692952725" lon="10.61952882089179"><ele>309.0</ele><time>2026-04-19T07:19:03Z</time></trkpt><trkpt lat="43.50514584691841" lon="10.619435399903063"><ele>309.0</ele><time>2026-04-19T07:19:05Z</time></trkpt><trkpt lat="43.505209243886476" lon="10.619352853643818"><ele>309.0</ele><time>2026-04-19T07:19:08Z</time></trkpt><trkpt lat="43.50528187241947" lon="10.619335529488863"><ele>309.0</ele><time>2026-04-19T07:19:10Z</time></trkpt><trkpt lat="43.50535730920563" lon="10.619366138453298"><ele>307.5</ele><time>2026-04-19T07:19:12Z</time></trkpt><trkpt lat="43.50543223875529" lon="10.619390855031648"><ele>306.0</ele><time>2026-04-19T07:19:14Z</time></trkpt><trkpt lat="43.50551683002813" lon="10.619417643766472"><ele>304.5</ele><time>2026-04-19T07:19:16Z</time></trkpt><trkpt lat="43.50560118635666" lon="10.619447230173344"><ele>303.0</ele><time>2026-04-19T07:19:18Z</time></trkpt><trkpt lat="43.50568682128447" lon="10.619478628679174"><ele>301.5</ele><time>2026-04-19T07:19:20Z</time></trkpt><trkpt lat="43.505761952366925" lon="10.61947457308584"><ele>300.0</ele><time>2026-04-19T07:19:22Z</time></trkpt><trkpt lat="43.5058257799134" lon="10.619465404443991"><ele>300.0</ele><time>2026-04-19T07:19:24.001Z</time></trkpt><trkpt lat="43.50591226483104" lon="10.619444065963943"><ele>300.0</ele><time>2026-04-19T07:19:27.001Z</time></trkpt><trkpt lat="43.50598874284068" lon="10.619422439511933"><ele>300.0</ele><time>2026-04-19T07:19:29.001Z</time></trkpt><trkpt lat="43.506063596077674" lon="10.619408976332876"><ele>300.0</ele><time>2026-04-19T07:19:31.001Z</time></trkpt><trkpt lat="43.50613196246354" lon="10.619366947628492"><ele>300.0</ele><time>2026-04-19T07:19:33.001Z</time></trkpt><trkpt lat="43.50622245459045" lon="10.619324999210315"><ele>300.0</ele><time>2026-04-19T07:19:35.001Z</time></trkpt><trkpt lat="43.506329258304675" lon="10.619305039528307"><ele>299.99999999999994</ele><time>2026-04-19T07:19:37.001Z</time></trkpt><trkpt lat="43.506417703052676" lon="10.619311700242957"><ele>300.0</ele><time>2026-04-19T07:19:39.001Z</time></trkpt><trkpt lat="43.506352751918854" lon="10.619316907958513"><ele>300.0</ele><time>2026-04-19T07:20:00.001Z</time></trkpt><trkpt lat="43.50628590890194" lon="10.619322358012262"><ele>300.0</ele><time>2026-04-19T07:20:05Z</time></trkpt><trkpt lat="43.5062216909405" lon="10.619333280236672"><ele>300.0</ele><time>2026-04-19T07:20:09Z</time></trkpt><trkpt lat="43.50614997219855" lon="10.619362440334656"><ele>299.99999999999994</ele><time>2026-04-19T07:20:14Z</time></trkpt><trkpt lat="43.50608499813435" lon="10.619394455847162"><ele>300.0</ele><time>2026-04-19T07:20:19Z</time></trkpt><trkpt lat="43.50615263625264" lon="10.619352772805218"><ele>300.0</ele><time>2026-04-19T07:20:28Z</time></trkpt><trkpt lat="43.506217279780344" lon="10.61932315426109"><ele>300.0</ele><time>2026-04-19T07:20:30Z</time></trkpt><trkpt lat="43.50631080857019" lon="10.61929936255926"><ele>300.0</ele><time>2026-04-19T07:20:32Z</time></trkpt><trkpt lat="43.506425145512864" lon="10.61930459753605"><ele>300.0</ele><time>2026-04-19T07:20:34Z</time></trkpt><trkpt lat="43.50648600109271" lon="10.619354355367436"><ele>300.0</ele><time>2026-04-19T07:20:35Z</time></trkpt><trkpt lat="43.50660820851714" lon="10.619351262911774"><ele>298.1666666666667</ele><time>2026-04-19T07:20:37Z</time></trkpt><trkpt lat="43.50671882220055" lon="10.619304260171702"><ele>296.3333333333333</ele><time>2026-04-19T07:20:39Z</time></trkpt><trkpt lat="43.50681069374008" lon="10.619264645562401"><ele>294.5</ele><time>2026-04-19T07:20:41Z</time></trkpt><trkpt lat="43.5069085985555" lon="10.619204800225761"><ele>292.66666666666663</ele><time>2026-04-19T07:20:43Z</time></trkpt><trkpt lat="43.50695762648876" lon="10.619142019687645"><ele>290.8333333333333</ele><time>2026-04-19T07:20:44Z</time></trkpt><trkpt lat="43.5070006875304" lon="10.61907820497292"><ele>289.0</ele><time>2026-04-19T07:20:45Z</time></trkpt><trkpt lat="43.50708286619402" lon="10.618972799176394"><ele>287.0</ele><time>2026-04-19T07:20:47Z</time></trkpt><trkpt lat="43.50717149163624" lon="10.618888841333554"><ele>285.0</ele><time>2026-04-19T07:20:49Z</time></trkpt><trkpt lat="43.50726873699263" lon="10.61882453733231"><ele>283.0</ele><time>2026-04-19T07:20:51Z</time></trkpt><trkpt lat="43.5073811168577" lon="10.618790262861907"><ele>281.0</ele><time>2026-04-19T07:20:53Z</time></trkpt><trkpt lat="43.50747153388181" lon="10.61875989601922"><ele>279.0</ele><time>2026-04-19T07:20:55Z</time></trkpt><trkpt lat="43.50757256696654" lon="10.618660825713922"><ele>279.0</ele><time>2026-04-19T07:20:57Z</time></trkpt><trkpt lat="43.50768186890715" lon="10.618588755272523"><ele>279.0</ele><time>2026-04-19T07:20:59Z</time></trkpt><trkpt lat="43.50776226582854" lon="10.618500164947667"><ele>279.0</ele><time>2026-04-19T07:21:01Z</time></trkpt><trkpt lat="43.50781808341162" lon="10.618424635283649"><ele>279.0</ele><time>2026-04-19T07:21:03.001Z</time></trkpt><trkpt lat="43.50787731201759" lon="10.618328201808453"><ele>279.0</ele><time>2026-04-19T07:21:05.001Z</time></trkpt><trkpt lat="43.50793738446007" lon="10.618213933006604"><ele>279.0</ele><time>2026-04-19T07:21:07.001Z</time></trkpt><trkpt lat="43.507998058260696" lon="10.618079120124667"><ele>279.0</ele><time>2026-04-19T07:21:09.001Z</time></trkpt><trkpt lat="43.50802676183563" lon="10.61799645076225"><ele>279.0</ele><time>2026-04-19T07:21:10.001Z</time></trkpt><trkpt lat="43.50805839008476" lon="10.61790866136874"><ele>279.0</ele><time>2026-04-19T07:21:11.001Z</time></trkpt><trkpt lat="43.50809683841424" lon="10.617808286495455"><ele>279.0</ele><time>2026-04-19T07:21:12.001Z</time></trkpt><trkpt lat="43.50813956126793" lon="10.617696751811604"><ele>279.0</ele><time>2026-04-19T07:21:13.001Z</time></trkpt><trkpt lat="43.50818253069589" lon="10.61757760022804"><ele>280.6666666666667</ele><time>2026-04-19T07:21:14.001Z</time></trkpt><trkpt lat="43.50820865239904" lon="10.617449540777335"><ele>282.3333333333333</ele><time>2026-04-19T07:21:15.001Z</time></trkpt><trkpt lat="43.50824788603394" lon="10.617337724615684"><ele>284.0</ele><time>2026-04-19T07:21:16.001Z</time></trkpt><trkpt lat="43.50830231352704" lon="10.617246511928972"><ele>285.66666666666663</ele><time>2026-04-19T07:21:17.001Z</time></trkpt><trkpt lat="43.508350509093525" lon="10.61715282905955"><ele>287.3333333333333</ele><time>2026-04-19T07:21:18.001Z</time></trkpt><trkpt lat="43.50840360732002" lon="10.617063409603903"><ele>289.0</ele><time>2026-04-19T07:21:19.001Z</time></trkpt><trkpt lat="43.508463513305195" lon="10.616969106078777"><ele>289.59999999999997</ele><time>2026-04-19T07:21:20.001Z</time></trkpt><trkpt lat="43.50852727191702" lon="10.616859509937589"><ele>290.2</ele><time>2026-04-19T07:21:21.001Z</time></trkpt><trkpt lat="43.508604090004525" lon="10.616767516306883"><ele>290.79999999999995</ele><time>2026-04-19T07:21:22.001Z</time></trkpt><trkpt lat="43.50867927288986" lon="10.616678963146486"><ele>291.4</ele><time>2026-04-19T07:21:23.001Z</time></trkpt><trkpt lat="43.50874567903546" lon="10.616600956380754"><ele>292.0</ele><time>2026-04-19T07:21:24.001Z</time></trkpt><trkpt lat="43.50880289121765" lon="10.616531623500027"><ele>292.0</ele><time>2026-04-19T07:21:25.001Z</time></trkpt><trkpt lat="43.50885070689874" lon="10.616472605319986"><ele>292.0</ele><time>2026-04-19T07:21:26.001Z</time></trkpt><trkpt lat="43.50893318289667" lon="10.616413057883744"><ele>292.0</ele><time>2026-04-19T07:21:28.001Z</time></trkpt><trkpt lat="43.508996807293535" lon="10.616379802710753"><ele>292.0</ele><time>2026-04-19T07:21:30.001Z</time></trkpt><trkpt lat="43.509069024018615" lon="10.616339423120808"><ele>292.0</ele><time>2026-04-19T07:21:33.001Z</time></trkpt><trkpt lat="43.50905679587795" lon="10.61615075635006"><ele>292.0</ele><time>2026-04-19T07:21:48.001Z</time></trkpt><trkpt lat="43.509073704956926" lon="10.616054190118248"><ele>292.2857142857143</ele><time>2026-04-19T07:21:52.001Z</time></trkpt><trkpt lat="43.5091006758908" lon="10.615975623144632"><ele>292.57142857142856</ele><time>2026-04-19T07:21:54.001Z</time></trkpt><trkpt lat="43.50915635689584" lon="10.615850350363132"><ele>292.8571428571429</ele><time>2026-04-19T07:21:56.001Z</time></trkpt><trkpt lat="43.50918749309239" lon="10.61577088093776"><ele>293.1428571428571</ele><time>2026-04-19T07:21:57.001Z</time></trkpt><trkpt lat="43.50921281944506" lon="10.615687696990593"><ele>293.42857142857144</ele><time>2026-04-19T07:21:58.001Z</time></trkpt><trkpt lat="43.50923549696732" lon="10.615599169753457"><ele>293.7142857142857</ele><time>2026-04-19T07:21:59.001Z</time></trkpt><trkpt lat="43.50925795958482" lon="10.615505302401656"><ele>294.0</ele><time>2026-04-19T07:22:00.001Z</time></trkpt><trkpt lat="43.509279169839225" lon="10.615416373780338"><ele>294.3333333333333</ele><time>2026-04-19T07:22:01.001Z</time></trkpt><trkpt lat="43.50930999239542" lon="10.615285607014654"><ele>294.6666666666667</ele><time>2026-04-19T07:22:03.001Z</time></trkpt><trkpt lat="43.5093272394741" lon="10.61517013678774"><ele>295.0</ele><time>2026-04-19T07:22:15.001Z</time></trkpt><trkpt lat="43.50936308347547" lon="10.61502011044386"><ele>295.33333333333337</ele><time>2026-04-19T07:22:17Z</time></trkpt><trkpt lat="43.50938180976922" lon="10.614926470602008"><ele>295.6666666666667</ele><time>2026-04-19T07:22:18Z</time></trkpt><trkpt lat="43.5093649217833" lon="10.61502870926251"><ele>296.0</ele><time>2026-04-19T07:22:34Z</time></trkpt><trkpt lat="43.50934139852218" lon="10.615116744708189"><ele>296.0</ele><time>2026-04-19T07:22:35Z</time></trkpt><trkpt lat="43.50929602428976" lon="10.615188541570129"><ele>296.0</ele><time>2026-04-19T07:22:36Z</time></trkpt><trkpt lat="43.50927378381974" lon="10.615283903853294"><ele>296.0</ele><time>2026-04-19T07:22:37Z</time></trkpt><trkpt lat="43.5092494055844" lon="10.615390058626932"><ele>296.0</ele><time>2026-04-19T07:22:38Z</time></trkpt><trkpt lat="43.509226297622384" lon="10.615495066844943"><ele>296.0</ele><time>2026-04-19T07:22:39Z</time></trkpt><trkpt lat="43.50920693071037" lon="10.615591959132779"><ele>296.0</ele><time>2026-04-19T07:22:40Z</time></trkpt><trkpt lat="43.50919092107645" lon="10.615676586607652"><ele>296.0</ele><time>2026-04-19T07:22:41Z</time></trkpt><trkpt lat="43.50914522816789" lon="10.615816701322807"><ele>295.6666666666667</ele><time>2026-04-19T07:22:43Z</time></trkpt><trkpt lat="43.509096185854375" lon="10.615943198659293"><ele>295.33333333333337</ele><time>2026-04-19T07:22:45Z</time></trkpt><trkpt lat="43.50903786239046" lon="10.616024002997518"><ele>295.0</ele><time>2026-04-19T07:22:47Z</time></trkpt><trkpt lat="43.50896360902776" lon="10.615993287376702"><ele>294.6666666666667</ele><time>2026-04-19T07:22:49Z</time></trkpt><trkpt lat="43.50893287224874" lon="10.615900093955938"><ele>294.3333333333333</ele><time>2026-04-19T07:22:51Z</time></trkpt><trkpt lat="43.50891142095344" lon="10.615812250905531"><ele>294.0</ele><time>2026-04-19T07:22:53.001Z</time></trkpt><trkpt lat="43.508907633762156" lon="10.615684048702056"><ele>294.0</ele><time>2026-04-19T07:22:56.001Z</time></trkpt><trkpt lat="43.50888635469424" lon="10.615532238578911"><ele>294.0</ele><time>2026-04-19T07:22:58.001Z</time></trkpt><trkpt lat="43.50886539523798" lon="10.615447113151092"><ele>294.0</ele><time>2026-04-19T07:22:59.001Z</time></trkpt><trkpt lat="43.508837602926505" lon="10.61536211793441"><ele>294.0</ele><time>2026-04-19T07:23:00.001Z</time></trkpt><trkpt lat="43.50880197649611" lon="10.615269156152841"><ele>294.0</ele><time>2026-04-19T07:23:01.001Z</time></trkpt><trkpt lat="43.50876632223564" lon="10.615186669281492"><ele>294.0</ele><time>2026-04-19T07:23:02.001Z</time></trkpt><trkpt lat="43.50872016399706" lon="10.61511064290928"><ele>295.7142857142857</ele><time>2026-04-19T07:23:03.001Z</time></trkpt><trkpt lat="43.50866943398953" lon="10.61505796972971"><ele>297.42857142857144</ele><time>2026-04-19T07:23:04.001Z</time></trkpt><trkpt lat="43.50858528516918" lon="10.61506502342066"><ele>299.1428571428571</ele><time>2026-04-19T07:23:05.001Z</time></trkpt><trkpt lat="43.5085285133782" lon="10.615145979528023"><ele>300.8571428571429</ele><time>2026-04-19T07:23:06.001Z</time></trkpt><trkpt lat="43.5085008821439" lon="10.615230854840002"><ele>302.57142857142856</ele><time>2026-04-19T07:23:07.001Z</time></trkpt><trkpt lat="43.5084687172779" lon="10.615306729540094"><ele>304.2857142857143</ele><time>2026-04-19T07:23:08.001Z</time></trkpt><trkpt lat="43.508425704561915" lon="10.61538309436607"><ele>306.0</ele><time>2026-04-19T07:23:09.001Z</time></trkpt><trkpt lat="43.50837125335766" lon="10.615448341168014"><ele>306.0</ele><time>2026-04-19T07:23:10.001Z</time></trkpt><trkpt lat="43.508306673515996" lon="10.615496091840694"><ele>306.0</ele><time>2026-04-19T07:23:11.001Z</time></trkpt><trkpt lat="43.50823392743993" lon="10.615540679639652"><ele>306.0</ele><time>2026-04-19T07:23:12.001Z</time></trkpt><trkpt lat="43.5081538278387" lon="10.61558068883112"><ele>306.0</ele><time>2026-04-19T07:23:13.001Z</time></trkpt><trkpt lat="43.508064088224565" lon="10.61561164815457"><ele>306.0</ele><time>2026-04-19T07:23:14.001Z</time></trkpt><trkpt lat="43.5079771633459" lon="10.615634411477158"><ele>306.0</ele><time>2026-04-19T07:23:15.001Z</time></trkpt><trkpt lat="43.507888396699926" lon="10.615655367632026"><ele>307.6666666666667</ele><time>2026-04-19T07:23:16.001Z</time></trkpt><trkpt lat="43.50779981712969" lon="10.615691606462493"><ele>309.3333333333333</ele><time>2026-04-19T07:23:17.001Z</time></trkpt><trkpt lat="43.50771921115555" lon="10.615743584433663"><ele>311.0</ele><time>2026-04-19T07:23:18.001Z</time></trkpt><trkpt lat="43.507641248403786" lon="10.615802598971781"><ele>312.66666666666663</ele><time>2026-04-19T07:23:19.001Z</time></trkpt><trkpt lat="43.50756335861913" lon="10.615862053646365"><ele>314.3333333333333</ele><time>2026-04-19T07:23:20.001Z</time></trkpt><trkpt lat="43.5074873725338" lon="10.61590579308026"><ele>316.0</ele><time>2026-04-19T07:23:21.001Z</time></trkpt><trkpt lat="43.507412628659274" lon="10.615942054029976"><ele>316.00000000000006</ele><time>2026-04-19T07:23:22.001Z</time></trkpt><trkpt lat="43.50734044268572" lon="10.615967998703013"><ele>316.0</ele><time>2026-04-19T07:23:23.001Z</time></trkpt><trkpt lat="43.507268566176734" lon="10.615976771790379"><ele>316.0</ele><time>2026-04-19T07:23:24.001Z</time></trkpt><trkpt lat="43.507199117513444" lon="10.615983273902284"><ele>316.0</ele><time>2026-04-19T07:23:25.001Z</time></trkpt><trkpt lat="43.50713180085801" lon="10.615994162794387"><ele>316.0</ele><time>2026-04-19T07:23:26.001Z</time></trkpt><trkpt lat="43.50705845941167" lon="10.61600898277468"><ele>316.00000000000006</ele><time>2026-04-19T07:23:27.001Z</time></trkpt><trkpt lat="43.506979872853464" lon="10.616022689710357"><ele>316.0</ele><time>2026-04-19T07:23:28.001Z</time></trkpt><trkpt lat="43.506908427046966" lon="10.616031050666626"><ele>317.4</ele><time>2026-04-19T07:23:29.001Z</time></trkpt><trkpt lat="43.506838122773495" lon="10.616036999372428"><ele>318.8</ele><time>2026-04-19T07:23:30.001Z</time></trkpt><trkpt lat="43.50676868702582" lon="10.616029856208637"><ele>320.2</ele><time>2026-04-19T07:23:31.001Z</time></trkpt><trkpt lat="43.50667611094653" lon="10.615926940347451"><ele>321.59999999999997</ele><time>2026-04-19T07:23:33.001Z</time></trkpt><trkpt lat="43.506587536374454" lon="10.615812197274906"><ele>323.0</ele><time>2026-04-19T07:23:35.001Z</time></trkpt><trkpt lat="43.506507090081456" lon="10.615692012924926"><ele>323.00000000000006</ele><time>2026-04-19T07:23:37.001Z</time></trkpt><trkpt lat="43.5064642088631" lon="10.615623468786373"><ele>323.0</ele><time>2026-04-19T07:23:38.001Z</time></trkpt><trkpt lat="43.506424880927675" lon="10.615551860367807"><ele>323.0</ele><time>2026-04-19T07:23:39.001Z</time></trkpt><trkpt lat="43.506388227142786" lon="10.615477165286615"><ele>323.0</ele><time>2026-04-19T07:23:40.001Z</time></trkpt><trkpt lat="43.5063521675605" lon="10.615402922515422"><ele>323.0</ele><time>2026-04-19T07:23:41.001Z</time></trkpt><trkpt lat="43.506305781500174" lon="10.61534034269572"><ele>323.00000000000006</ele><time>2026-04-19T07:23:42.001Z</time></trkpt><trkpt lat="43.50627040683372" lon="10.61526645603512"><ele>323.0</ele><time>2026-04-19T07:23:43.001Z</time></trkpt><trkpt lat="43.50623412884679" lon="10.615195067095259"><ele>324.5</ele><time>2026-04-19T07:23:44.001Z</time></trkpt><trkpt lat="43.50621289428577" lon="10.61511196068617"><ele>326.0</ele><time>2026-04-19T07:23:45.001Z</time></trkpt><trkpt lat="43.50614618199703" lon="10.614991268654846"><ele>327.5</ele><time>2026-04-19T07:23:47.001Z</time></trkpt><trkpt lat="43.50609715932881" lon="10.614898191571319"><ele>329.0</ele><time>2026-04-19T07:23:49.001Z</time></trkpt><trkpt lat="43.506035189070424" lon="10.614838731653219"><ele>330.5</ele><time>2026-04-19T07:23:51.001Z</time></trkpt><trkpt lat="43.506009316963045" lon="10.614737004950937"><ele>332.0</ele><time>2026-04-19T07:23:53.001Z</time></trkpt><trkpt lat="43.505997488102146" lon="10.614615142927649"><ele>332.0</ele><time>2026-04-19T07:23:55.001Z</time></trkpt><trkpt lat="43.50597165446891" lon="10.614497482654954"><ele>332.0</ele><time>2026-04-19T07:23:57.001Z</time></trkpt><trkpt lat="43.505947821430325" lon="10.61438120766618"><ele>332.0</ele><time>2026-04-19T07:23:59.001Z</time></trkpt><trkpt lat="43.50592616061459" lon="10.614265110772287"><ele>332.0</ele><time>2026-04-19T07:24:01.001Z</time></trkpt><trkpt lat="43.50590370675027" lon="10.614133131532908"><ele>332.0</ele><time>2026-04-19T07:24:03.001Z</time></trkpt><trkpt lat="43.50588066838764" lon="10.613997716726475"><ele>331.83333333333337</ele><time>2026-04-19T07:24:05.001Z</time></trkpt><trkpt lat="43.5058586777632" lon="10.613870653653086"><ele>331.6666666666667</ele><time>2026-04-19T07:24:07.001Z</time></trkpt><trkpt lat="43.50584220753574" lon="10.613783128086444"><ele>331.5</ele><time>2026-04-19T07:24:09.002Z</time></trkpt><trkpt lat="43.50581104497467" lon="10.613699325812933"><ele>331.3333333333333</ele><time>2026-04-19T07:24:11.002Z</time></trkpt><trkpt lat="43.50579469461363" lon="10.61359124713973"><ele>331.16666666666663</ele><time>2026-04-19T07:24:13.002Z</time></trkpt><trkpt lat="43.50576894624457" lon="10.61347412664827"><ele>331.0</ele><time>2026-04-19T07:24:15.002Z</time></trkpt><trkpt lat="43.505745731584575" lon="10.613328619656302"><ele>330.0</ele><time>2026-04-19T07:24:17.001Z</time></trkpt><trkpt lat="43.505723074543354" lon="10.613246053618518"><ele>329.0</ele><time>2026-04-19T07:24:18.001Z</time></trkpt><trkpt lat="43.50569776435029" lon="10.613164005068095"><ele>328.0</ele><time>2026-04-19T07:24:19.001Z</time></trkpt><trkpt lat="43.50566898311388" lon="10.613078426582387"><ele>327.0</ele><time>2026-04-19T07:24:20.001Z</time></trkpt><trkpt lat="43.5056232097026" lon="10.613015169182926"><ele>326.0</ele><time>2026-04-19T07:24:21.001Z</time></trkpt><trkpt lat="43.50555266688407" lon="10.612881955874544"><ele>325.0</ele><time>2026-04-19T07:24:23.001Z</time></trkpt><trkpt lat="43.505467654186624" lon="10.61278136963711"><ele>324.25</ele><time>2026-04-19T07:24:25.001Z</time></trkpt><trkpt lat="43.50538988533632" lon="10.612672321085073"><ele>323.5</ele><time>2026-04-19T07:24:27Z</time></trkpt><trkpt lat="43.50531134609189" lon="10.612553824797274"><ele>322.75</ele><time>2026-04-19T07:24:29Z</time></trkpt><trkpt lat="43.50524302484226" lon="10.612423965594273"><ele>322.0</ele><time>2026-04-19T07:24:31Z</time></trkpt><trkpt lat="43.505125838938305" lon="10.612342298138708"><ele>322.0</ele><time>2026-04-19T07:24:33Z</time></trkpt><trkpt lat="43.50506022707544" lon="10.612316274344556"><ele>322.0</ele><time>2026-04-19T07:24:34Z</time></trkpt><trkpt lat="43.50498884389906" lon="10.612301604484882"><ele>322.0</ele><time>2026-04-19T07:24:35Z</time></trkpt><trkpt lat="43.50491155881895" lon="10.612290395069412"><ele>322.0</ele><time>2026-04-19T07:24:36Z</time></trkpt><trkpt lat="43.504835767953026" lon="10.612279969968029"><ele>322.0</ele><time>2026-04-19T07:24:37Z</time></trkpt><trkpt lat="43.50476187148588" lon="10.61228223395974"><ele>322.0</ele><time>2026-04-19T07:24:38Z</time></trkpt><trkpt lat="43.504697306765486" lon="10.612295600628798"><ele>322.0</ele><time>2026-04-19T07:24:39Z</time></trkpt><trkpt lat="43.504633774684244" lon="10.61227571336904"><ele>324.0</ele><time>2026-04-19T07:24:40Z</time></trkpt><trkpt lat="43.50457015630901" lon="10.612261209609034"><ele>326.0</ele><time>2026-04-19T07:24:41Z</time></trkpt><trkpt lat="43.504495845191016" lon="10.61225446440734"><ele>328.0</ele><time>2026-04-19T07:24:42Z</time></trkpt><trkpt lat="43.504420670033916" lon="10.612209427479574"><ele>330.0</ele><time>2026-04-19T07:24:43Z</time></trkpt><trkpt lat="43.504346500137345" lon="10.612148299012038"><ele>332.0</ele><time>2026-04-19T07:24:44Z</time></trkpt><trkpt lat="43.50427634023041" lon="10.612074258938613"><ele>334.0</ele><time>2026-04-19T07:24:45Z</time></trkpt><trkpt lat="43.504211171324954" lon="10.612000876675612"><ele>331.5</ele><time>2026-04-19T07:24:46Z</time></trkpt><trkpt lat="43.50414800263772" lon="10.611928814236224"><ele>329.0</ele><time>2026-04-19T07:24:47Z</time></trkpt><trkpt lat="43.5040901976275" lon="10.611854617049088"><ele>326.5</ele><time>2026-04-19T07:24:48Z</time></trkpt><trkpt lat="43.50403055695931" lon="10.611775377605278"><ele>324.0</ele><time>2026-04-19T07:24:49Z</time></trkpt><trkpt lat="43.503969057043214" lon="10.611704164496404"><ele>321.5</ele><time>2026-04-19T07:24:50Z</time></trkpt><trkpt lat="43.503905081641655" lon="10.61163990264435"><ele>319.0</ele><time>2026-04-19T07:24:51Z</time></trkpt><trkpt lat="43.503837173686485" lon="10.611588917866497"><ele>319.0</ele><time>2026-04-19T07:24:52Z</time></trkpt><trkpt lat="43.503767432657654" lon="10.611542308646174"><ele>319.0</ele><time>2026-04-19T07:24:53Z</time></trkpt><trkpt lat="43.50370007773778" lon="10.611503480905291"><ele>319.0</ele><time>2026-04-19T07:24:54Z</time></trkpt><trkpt lat="43.50364059848877" lon="10.611455005092157"><ele>319.0</ele><time>2026-04-19T07:24:55Z</time></trkpt><trkpt lat="43.503579940794914" lon="10.611431053846792"><ele>319.0</ele><time>2026-04-19T07:24:56Z</time></trkpt><trkpt lat="43.50346924727455" lon="10.611406521766648"><ele>319.0</ele><time>2026-04-19T07:24:58Z</time></trkpt><trkpt lat="43.503351372399344" lon="10.61137180917603"><ele>320.6</ele><time>2026-04-19T07:25:00Z</time></trkpt><trkpt lat="43.50324616470595" lon="10.61138038964746"><ele>322.2</ele><time>2026-04-19T07:25:02Z</time></trkpt><trkpt lat="43.50316057802688" lon="10.611419406393342"><ele>323.8</ele><time>2026-04-19T07:25:04Z</time></trkpt><trkpt lat="43.50307437725592" lon="10.611491931580229"><ele>325.40000000000003</ele><time>2026-04-19T07:25:06.001Z</time></trkpt><trkpt lat="43.502998003446535" lon="10.61157370817971"><ele>327.0</ele><time>2026-04-19T07:25:08.001Z</time></trkpt><trkpt lat="43.502910440558125" lon="10.611614076756158"><ele>327.8</ele><time>2026-04-19T07:25:10.001Z</time></trkpt><trkpt lat="43.50282657891311" lon="10.611570364837204"><ele>328.6</ele><time>2026-04-19T07:25:12.001Z</time></trkpt><trkpt lat="43.50281882896519" lon="10.611461818859423"><ele>329.40000000000003</ele><time>2026-04-19T07:25:14.001Z</time></trkpt><trkpt lat="43.50284701044464" lon="10.61135455615135"><ele>330.20000000000005</ele><time>2026-04-19T07:25:16.001Z</time></trkpt><trkpt lat="43.50291171477318" lon="10.611256008415504"><ele>331.0</ele><time>2026-04-19T07:25:18.001Z</time></trkpt><trkpt lat="43.502993324912104" lon="10.611141035160983"><ele>329.4</ele><time>2026-04-19T07:25:20.001Z</time></trkpt><trkpt lat="43.50307591565228" lon="10.611030587713794"><ele>327.8</ele><time>2026-04-19T07:25:22.001Z</time></trkpt><trkpt lat="43.503129128465886" lon="10.610893854070158"><ele>326.2</ele><time>2026-04-19T07:25:24.001Z</time></trkpt><trkpt lat="43.503150210645494" lon="10.61076627965882"><ele>324.59999999999997</ele><time>2026-04-19T07:25:26.001Z</time></trkpt><trkpt lat="43.50311558826661" lon="10.610614159495421"><ele>323.0</ele><time>2026-04-19T07:25:28.001Z</time></trkpt><trkpt lat="43.50307463192549" lon="10.610499321362823"><ele>323.0</ele><time>2026-04-19T07:25:30.001Z</time></trkpt><trkpt lat="43.50303016234379" lon="10.610396286186846"><ele>323.0</ele><time>2026-04-19T07:25:32.001Z</time></trkpt><trkpt lat="43.50297215072403" lon="10.610309421833351"><ele>323.0</ele><time>2026-04-19T07:25:34.001Z</time></trkpt><trkpt lat="43.50296229807736" lon="10.61019281214764"><ele>323.0</ele><time>2026-04-19T07:25:36.001Z</time></trkpt><trkpt lat="43.50297032037317" lon="10.610070441400678"><ele>323.0</ele><time>2026-04-19T07:25:38.001Z</time></trkpt><trkpt lat="43.50298133622957" lon="10.609920486989433"><ele>322.5</ele><time>2026-04-19T07:25:40.001Z</time></trkpt><trkpt lat="43.50298560424554" lon="10.609740356652141"><ele>322.0</ele><time>2026-04-19T07:25:42.001Z</time></trkpt><trkpt lat="43.50294777634397" lon="10.6096376119517"><ele>321.5</ele><time>2026-04-19T07:25:43.001Z</time></trkpt><trkpt lat="43.50288437977231" lon="10.609570377259384"><ele>321.0</ele><time>2026-04-19T07:25:44.001Z</time></trkpt><trkpt lat="43.502833468591874" lon="10.609496902625569"><ele>320.5</ele><time>2026-04-19T07:25:45.001Z</time></trkpt><trkpt lat="43.50277637238617" lon="10.609436136933017"><ele>320.0</ele><time>2026-04-19T07:25:46.001Z</time></trkpt><trkpt lat="43.50271920465041" lon="10.609389189295362"><ele>322.6</ele><time>2026-04-19T07:25:47.001Z</time></trkpt><trkpt lat="43.50265881730364" lon="10.609355020823656"><ele>325.2</ele><time>2026-04-19T07:25:48.001Z</time></trkpt><trkpt lat="43.50253691308083" lon="10.609340402866087"><ele>327.79999999999995</ele><time>2026-04-19T07:25:50.001Z</time></trkpt><trkpt lat="43.50242409519173" lon="10.609368067533428"><ele>330.4</ele><time>2026-04-19T07:25:52.001Z</time></trkpt><trkpt lat="43.5023492224433" lon="10.609395990711759"><ele>333.0</ele><time>2026-04-19T07:25:54.001Z</time></trkpt><trkpt lat="43.50228559932599" lon="10.609442772763435"><ele>335.3333333333333</ele><time>2026-04-19T07:26:01.001Z</time></trkpt><trkpt lat="43.50221560970327" lon="10.609503968878427"><ele>337.6666666666667</ele><time>2026-04-19T07:26:07.001Z</time></trkpt><trkpt lat="43.502144260122456" lon="10.609573994462657"><ele>340.0</ele><time>2026-04-19T07:26:10.001Z</time></trkpt><trkpt lat="43.502082775793724" lon="10.609614412556176"><ele>342.33333333333337</ele><time>2026-04-19T07:26:13.001Z</time></trkpt><trkpt lat="43.50201249730527" lon="10.609647961839025"><ele>344.6666666666667</ele><time>2026-04-19T07:26:15.001Z</time></trkpt><trkpt lat="43.50191916372663" lon="10.609671936700877"><ele>347.0</ele><time>2026-04-19T07:26:17.001Z</time></trkpt><trkpt lat="43.50180982555994" lon="10.609705354312327"><ele>346.8</ele><time>2026-04-19T07:26:19.001Z</time></trkpt><trkpt lat="43.501693464867586" lon="10.60973074221272"><ele>346.6</ele><time>2026-04-19T07:26:21.001Z</time></trkpt><trkpt lat="43.5015768067108" lon="10.609674180462848"><ele>346.40000000000003</ele><time>2026-04-19T07:26:23Z</time></trkpt><trkpt lat="43.501478417731335" lon="10.609573705993565"><ele>346.20000000000005</ele><time>2026-04-19T07:26:25.001Z</time></trkpt><trkpt lat="43.50143040842297" lon="10.609513948973625"><ele>346.0</ele><time>2026-04-19T07:26:26.001Z</time></trkpt><trkpt lat="43.50137635209443" lon="10.609461508839793"><ele>346.0</ele><time>2026-04-19T07:26:27Z</time></trkpt><trkpt lat="43.50131898432177" lon="10.60941359360911"><ele>346.0</ele><time>2026-04-19T07:26:28Z</time></trkpt><trkpt lat="43.50125370680788" lon="10.60943704176533"><ele>346.0</ele><time>2026-04-19T07:26:29.001Z</time></trkpt><trkpt lat="43.5011382554406" lon="10.609483704747968"><ele>346.0</ele><time>2026-04-19T07:26:31Z</time></trkpt><trkpt lat="43.50103219336311" lon="10.609548029066408"><ele>346.0</ele><time>2026-04-19T07:26:33Z</time></trkpt><trkpt lat="43.500971386955825" lon="10.60957373009875"><ele>346.0</ele><time>2026-04-19T07:26:34Z</time></trkpt><trkpt lat="43.50090800001865" lon="10.609583931110969"><ele>347.57142857142856</ele><time>2026-04-19T07:26:35Z</time></trkpt><trkpt lat="43.50084474189675" lon="10.609572121942076"><ele>349.14285714285717</ele><time>2026-04-19T07:26:36Z</time></trkpt><trkpt lat="43.500780758997884" lon="10.609547458718799"><ele>350.7142857142857</ele><time>2026-04-19T07:26:37Z</time></trkpt><trkpt lat="43.500721762019" lon="10.609505331388359"><ele>352.2857142857143</ele><time>2026-04-19T07:26:38Z</time></trkpt><trkpt lat="43.500670204303425" lon="10.609439931643454"><ele>353.8571428571429</ele><time>2026-04-19T07:26:39Z</time></trkpt><trkpt lat="43.500650665173936" lon="10.609349210380582"><ele>355.42857142857144</ele><time>2026-04-19T07:26:40Z</time></trkpt><trkpt lat="43.500631131231856" lon="10.609255296157928"><ele>357.0</ele><time>2026-04-19T07:26:41Z</time></trkpt><trkpt lat="43.50059975696126" lon="10.609174130035527"><ele>357.0</ele><time>2026-04-19T07:26:42Z</time></trkpt><trkpt lat="43.50054504279617" lon="10.609112619322438"><ele>357.0</ele><time>2026-04-19T07:26:43Z</time></trkpt><trkpt lat="43.50049077540486" lon="10.609065564212386"><ele>357.0</ele><time>2026-04-19T07:26:44Z</time></trkpt><trkpt lat="43.500436606991045" lon="10.609018423586635"><ele>357.0</ele><time>2026-04-19T07:26:45Z</time></trkpt><trkpt lat="43.50038016119202" lon="10.6089709907386"><ele>357.0</ele><time>2026-04-19T07:26:46Z</time></trkpt><trkpt lat="43.5002785072566" lon="10.608878610010041"><ele>357.0</ele><time>2026-04-19T07:26:48Z</time></trkpt><trkpt lat="43.50021642405077" lon="10.608735376065686"><ele>359.0</ele><time>2026-04-19T07:26:50Z</time></trkpt><trkpt lat="43.500193286902686" lon="10.608648906646135"><ele>361.0</ele><time>2026-04-19T07:26:51Z</time></trkpt><trkpt lat="43.5001683752227" lon="10.608553845709075"><ele>363.0</ele><time>2026-04-19T07:26:52Z</time></trkpt><trkpt lat="43.500131065099254" lon="10.60846286353756"><ele>365.0</ele><time>2026-04-19T07:26:53Z</time></trkpt><trkpt lat="43.50008681858257" lon="10.608379349509768"><ele>367.0</ele><time>2026-04-19T07:26:54Z</time></trkpt><trkpt lat="43.50004172770904" lon="10.608305415861777"><ele>369.0</ele><time>2026-04-19T07:26:55Z</time></trkpt><trkpt lat="43.50000072201404" lon="10.608237233925115"><ele>371.0</ele><time>2026-04-19T07:26:56Z</time></trkpt><trkpt lat="43.49992563668344" lon="10.60811668413318"><ele>371.0</ele><time>2026-04-19T07:26:58Z</time></trkpt><trkpt lat="43.499846264809264" lon="10.608026277740237"><ele>371.0</ele><time>2026-04-19T07:27:00Z</time></trkpt><trkpt lat="43.49978467794978" lon="10.607898930102351"><ele>371.0</ele><time>2026-04-19T07:27:02Z</time></trkpt><trkpt lat="43.499689893366345" lon="10.607793387420953"><ele>371.0</ele><time>2026-04-19T07:27:04Z</time></trkpt><trkpt lat="43.499591096341966" lon="10.607692537417979"><ele>373.0</ele><time>2026-04-19T07:27:06Z</time></trkpt><trkpt lat="43.49954224041564" lon="10.607635683414834"><ele>375.0</ele><time>2026-04-19T07:27:07Z</time></trkpt><trkpt lat="43.49947942500957" lon="10.607624429173692"><ele>377.0</ele><time>2026-04-19T07:27:08Z</time></trkpt><trkpt lat="43.49936430910453" lon="10.607555762263887"><ele>379.0</ele><time>2026-04-19T07:27:10Z</time></trkpt><trkpt lat="43.4993057799364" lon="10.607521285156702"><ele>381.0</ele><time>2026-04-19T07:27:11Z</time></trkpt><trkpt lat="43.49920641792494" lon="10.60743364947835"><ele>383.0</ele><time>2026-04-19T07:27:13Z</time></trkpt><trkpt lat="43.499144419417206" lon="10.607316887236154"><ele>383.0</ele><time>2026-04-19T07:27:15Z</time></trkpt><trkpt lat="43.49913773905822" lon="10.607153925634142"><ele>383.0</ele><time>2026-04-19T07:27:17Z</time></trkpt><trkpt lat="43.49916178239854" lon="10.607069070100222"><ele>383.0</ele><time>2026-04-19T07:27:18Z</time></trkpt><trkpt lat="43.499207558514144" lon="10.606991947159681"><ele>383.0</ele><time>2026-04-19T07:27:19Z</time></trkpt><trkpt lat="43.499222653793716" lon="10.606899780162188"><ele>383.0</ele><time>2026-04-19T07:27:20Z</time></trkpt><trkpt lat="43.49921755707375" lon="10.606793858716413"><ele>383.0</ele><time>2026-04-19T07:27:21.001Z</time></trkpt><trkpt lat="43.499194002972594" lon="10.606691985679241"><ele>383.6666666666667</ele><time>2026-04-19T07:27:22.001Z</time></trkpt><trkpt lat="43.499160270662415" lon="10.606599629810194"><ele>384.33333333333337</ele><time>2026-04-19T07:27:23.001Z</time></trkpt><trkpt lat="43.49911968094363" lon="10.606526506834138"><ele>385.0</ele><time>2026-04-19T07:27:24.001Z</time></trkpt><trkpt lat="43.499063528916196" lon="10.60647458101261"><ele>385.6666666666667</ele><time>2026-04-19T07:27:25.001Z</time></trkpt><trkpt lat="43.498983541236406" lon="10.606376220861213"><ele>386.3333333333333</ele><time>2026-04-19T07:27:27.001Z</time></trkpt><trkpt lat="43.49892402774444" lon="10.606250586209875"><ele>387.0</ele><time>2026-04-19T07:27:29.001Z</time></trkpt><trkpt lat="43.49889680733051" lon="10.606098812762893"><ele>387.1666666666667</ele><time>2026-04-19T07:27:31.001Z</time></trkpt><trkpt lat="43.49892113705175" lon="10.605930214347223"><ele>387.33333333333337</ele><time>2026-04-19T07:27:33.001Z</time></trkpt><trkpt lat="43.49892778069014" lon="10.605831480482621"><ele>387.5</ele><time>2026-04-19T07:27:34.001Z</time></trkpt><trkpt lat="43.49891553012012" lon="10.605723463686049"><ele>387.6666666666667</ele><time>2026-04-19T07:27:35.001Z</time></trkpt><trkpt lat="43.49887643794684" lon="10.605622044455275"><ele>387.83333333333337</ele><time>2026-04-19T07:27:36.001Z</time></trkpt><trkpt lat="43.49886485054875" lon="10.60550505322435"><ele>388.0</ele><time>2026-04-19T07:27:37.001Z</time></trkpt><trkpt lat="43.498839508240295" lon="10.605395743083474"><ele>387.6666666666667</ele><time>2026-04-19T07:27:38.001Z</time></trkpt><trkpt lat="43.49881201931879" lon="10.605286886970967"><ele>387.33333333333337</ele><time>2026-04-19T07:27:39.001Z</time></trkpt><trkpt lat="43.49878590576047" lon="10.60518347735929"><ele>387.0</ele><time>2026-04-19T07:27:40.001Z</time></trkpt><trkpt lat="43.49877004751289" lon="10.605081201462237"><ele>386.66666666666663</ele><time>2026-04-19T07:27:41.001Z</time></trkpt><trkpt lat="43.49875355981657" lon="10.604980514756774"><ele>386.3333333333333</ele><time>2026-04-19T07:27:42.001Z</time></trkpt><trkpt lat="43.49872657882714" lon="10.60488818366086"><ele>386.0</ele><time>2026-04-19T07:27:43.001Z</time></trkpt><trkpt lat="43.49866567912587" lon="10.6048192633201"><ele>388.7142857142857</ele><time>2026-04-19T07:27:44.001Z</time></trkpt><trkpt lat="43.49861470816889" lon="10.604751279034224"><ele>391.42857142857144</ele><time>2026-04-19T07:27:45.001Z</time></trkpt><trkpt lat="43.49855423223342" lon="10.604692742911912"><ele>394.1428571428571</ele><time>2026-04-19T07:27:46.001Z</time></trkpt><trkpt lat="43.49849463119477" lon="10.60464001303417"><ele>396.8571428571429</ele><time>2026-04-19T07:27:47.001Z</time></trkpt><trkpt lat="43.49843459652572" lon="10.604600876774365"><ele>399.57142857142856</ele><time>2026-04-19T07:27:48.001Z</time></trkpt><trkpt lat="43.49837874297097" lon="10.604545956586561"><ele>402.2857142857143</ele><time>2026-04-19T07:27:49.001Z</time></trkpt><trkpt lat="43.49830456458863" lon="10.604520112780703"><ele>405.0</ele><time>2026-04-19T07:27:50.001Z</time></trkpt><trkpt lat="43.49823123951203" lon="10.604506032658806"><ele>403.99999999999994</ele><time>2026-04-19T07:27:51.001Z</time></trkpt><trkpt lat="43.49816632124551" lon="10.60448728679325"><ele>403.0</ele><time>2026-04-19T07:27:52.001Z</time></trkpt><trkpt lat="43.49810515725249" lon="10.60444791861747"><ele>402.0</ele><time>2026-04-19T07:27:53.001Z</time></trkpt><trkpt lat="43.498041081371355" lon="10.604394497940792"><ele>401.0</ele><time>2026-04-19T07:27:54.001Z</time></trkpt><trkpt lat="43.49797045892702" lon="10.604341771840183"><ele>400.0</ele><time>2026-04-19T07:27:55.001Z</time></trkpt><trkpt lat="43.497897303156954" lon="10.604303436160492"><ele>398.99999999999994</ele><time>2026-04-19T07:27:56.001Z</time></trkpt><trkpt lat="43.497822092621696" lon="10.604285162339671"><ele>398.0</ele><time>2026-04-19T07:27:57.001Z</time></trkpt><trkpt lat="43.49773633779157" lon="10.604296093312877"><ele>400.66666666666663</ele><time>2026-04-19T07:27:58.001Z</time></trkpt><trkpt lat="43.49766246040987" lon="10.604308992491955"><ele>403.3333333333333</ele><time>2026-04-19T07:27:59.001Z</time></trkpt><trkpt lat="43.497568794993896" lon="10.604220212840243"><ele>406.0</ele><time>2026-04-19T07:28:01.001Z</time></trkpt><trkpt lat="43.49751059702731" lon="10.60407569127006"><ele>408.66666666666663</ele><time>2026-04-19T07:28:03.001Z</time></trkpt><trkpt lat="43.49748426945256" lon="10.603991074858238"><ele>411.3333333333333</ele><time>2026-04-19T07:28:04.001Z</time></trkpt><trkpt lat="43.49745977181452" lon="10.603903890741694"><ele>414.0</ele><time>2026-04-19T07:28:05.001Z</time></trkpt><trkpt lat="43.49743643084007" lon="10.60382082303466"><ele>414.0</ele><time>2026-04-19T07:28:06.001Z</time></trkpt><trkpt lat="43.49741158444886" lon="10.603739913238751"><ele>414.0</ele><time>2026-04-19T07:28:07.001Z</time></trkpt><trkpt lat="43.497356833411246" lon="10.60359434889541"><ele>414.0</ele><time>2026-04-19T07:28:09.001Z</time></trkpt><trkpt lat="43.49728524849594" lon="10.603474357422899"><ele>414.0</ele><time>2026-04-19T07:28:11.001Z</time></trkpt><trkpt lat="43.49719962823029" lon="10.603418154178263"><ele>414.0</ele><time>2026-04-19T07:28:13.001Z</time></trkpt><trkpt lat="43.49717017281478" lon="10.603287569311684"><ele>414.6666666666667</ele><time>2026-04-19T07:28:15.001Z</time></trkpt><trkpt lat="43.497190043125045" lon="10.603121731676994"><ele>415.33333333333337</ele><time>2026-04-19T07:28:17.001Z</time></trkpt><trkpt lat="43.49718502388518" lon="10.603019644626297"><ele>416.0</ele><time>2026-04-19T07:28:18.001Z</time></trkpt><trkpt lat="43.497154279819334" lon="10.602922770952814"><ele>416.6666666666667</ele><time>2026-04-19T07:28:19.001Z</time></trkpt><trkpt lat="43.49711528909963" lon="10.602840180413667"><ele>417.33333333333337</ele><time>2026-04-19T07:28:20.001Z</time></trkpt><trkpt lat="43.49707593440007" lon="10.602767942994575"><ele>418.0</ele><time>2026-04-19T07:28:21.001Z</time></trkpt><trkpt lat="43.49700132307906" lon="10.60262993050515"><ele>420.50000000000006</ele><time>2026-04-19T07:28:23.001Z</time></trkpt><trkpt lat="43.496918595702155" lon="10.602490436226146"><ele>423.0</ele><time>2026-04-19T07:28:25.001Z</time></trkpt><trkpt lat="43.49687686986255" lon="10.602407736065341"><ele>425.5</ele><time>2026-04-19T07:28:26.001Z</time></trkpt><trkpt lat="43.496849173364524" lon="10.602313388932986"><ele>428.0</ele><time>2026-04-19T07:28:27.001Z</time></trkpt><trkpt lat="43.49682010807044" lon="10.602227667744334"><ele>430.50000000000006</ele><time>2026-04-19T07:28:28.001Z</time></trkpt><trkpt lat="43.49679344001967" lon="10.602141308040483"><ele>433.0</ele><time>2026-04-19T07:28:29Z</time></trkpt><trkpt lat="43.4967687884105" lon="10.602053684856422"><ele>432.83333333333337</ele><time>2026-04-19T07:28:30Z</time></trkpt><trkpt lat="43.49674720286807" lon="10.601963645909306"><ele>432.6666666666667</ele><time>2026-04-19T07:28:31Z</time></trkpt><trkpt lat="43.496727121512194" lon="10.601876337632525"><ele>432.5</ele><time>2026-04-19T07:28:32Z</time></trkpt><trkpt lat="43.496713037840586" lon="10.60179110248722"><ele>432.33333333333337</ele><time>2026-04-19T07:28:33Z</time></trkpt><trkpt lat="43.49669035746028" lon="10.601630578115525"><ele>432.1666666666667</ele><time>2026-04-19T07:28:35Z</time></trkpt><trkpt lat="43.496702079734156" lon="10.601479201850342"><ele>432.0</ele><time>2026-04-19T07:28:37Z</time></trkpt><trkpt lat="43.496683995271994" lon="10.601382651807802"><ele>432.0</ele><time>2026-04-19T07:28:39Z</time></trkpt><trkpt lat="43.496414727744835" lon="10.601352566779878"><ele>432.0</ele><time>2026-04-19T07:28:41Z</time></trkpt><trkpt lat="43.49634429011953" lon="10.601344182618176"><ele>432.0</ele><time>2026-04-19T07:28:42Z</time></trkpt><trkpt lat="43.49627657266063" lon="10.601333258688204"><ele>432.0</ele><time>2026-04-19T07:28:43Z</time></trkpt><trkpt lat="43.49621387485548" lon="10.601320924434793"><ele>433.2857142857143</ele><time>2026-04-19T07:28:44Z</time></trkpt><trkpt lat="43.49615085610997" lon="10.601304073374907"><ele>434.57142857142856</ele><time>2026-04-19T07:28:45Z</time></trkpt><trkpt lat="43.49608950915269" lon="10.60128267792677"><ele>435.8571428571429</ele><time>2026-04-19T07:28:46Z</time></trkpt><trkpt lat="43.49602581365329" lon="10.601259747526978"><ele>437.1428571428571</ele><time>2026-04-19T07:28:47Z</time></trkpt><trkpt lat="43.49596120719663" lon="10.60123543400402"><ele>438.42857142857144</ele><time>2026-04-19T07:28:48Z</time></trkpt><trkpt lat="43.495893782569304" lon="10.601214278502827"><ele>439.7142857142857</ele><time>2026-04-19T07:28:49Z</time></trkpt><trkpt lat="43.495819340921685" lon="10.601193123134333"><ele>441.0</ele><time>2026-04-19T07:28:50Z</time></trkpt><trkpt lat="43.49574438766337" lon="10.601173392462353"><ele>441.42857142857144</ele><time>2026-04-19T07:28:51Z</time></trkpt><trkpt lat="43.49567214932364" lon="10.601152051779946"><ele>441.8571428571429</ele><time>2026-04-19T07:28:52Z</time></trkpt><trkpt lat="43.495604193273984" lon="10.601123727118383"><ele>442.2857142857143</ele><time>2026-04-19T07:28:53Z</time></trkpt><trkpt lat="43.495538705238594" lon="10.601094641398157"><ele>442.7142857142857</ele><time>2026-04-19T07:28:54Z</time></trkpt><trkpt lat="43.49547272608007" lon="10.601063379863914"><ele>443.14285714285717</ele><time>2026-04-19T07:28:55Z</time></trkpt><trkpt lat="43.495407520589666" lon="10.601030320454331"><ele>443.57142857142856</ele><time>2026-04-19T07:28:56Z</time></trkpt><trkpt lat="43.49534120891532" lon="10.600998159805897"><ele>444.0</ele><time>2026-04-19T07:28:57Z</time></trkpt><trkpt lat="43.495274835270195" lon="10.600966092207218"><ele>444.0</ele><time>2026-04-19T07:28:58Z</time></trkpt><trkpt lat="43.49521027752249" lon="10.600933671961021"><ele>444.0</ele><time>2026-04-19T07:28:59Z</time></trkpt><trkpt lat="43.49514686273652" lon="10.600905821837985"><ele>444.0</ele><time>2026-04-19T07:29:00Z</time></trkpt><trkpt lat="43.49508198477446" lon="10.600881138935096"><ele>444.0</ele><time>2026-04-19T07:29:01Z</time></trkpt><trkpt lat="43.495015572990376" lon="10.600868691835016"><ele>444.0</ele><time>2026-04-19T07:29:02Z</time></trkpt><trkpt lat="43.49494695503234" lon="10.600868477409566"><ele>444.0</ele><time>2026-04-19T07:29:03Z</time></trkpt><trkpt lat="43.494883681125025" lon="10.600874250387761"><ele>444.0</ele><time>2026-04-19T07:29:04Z</time></trkpt><trkpt lat="43.494770534335714" lon="10.600897504435851"><ele>444.0</ele><time>2026-04-19T07:29:06Z</time></trkpt><trkpt lat="43.49466423007265" lon="10.600948740572427"><ele>444.0</ele><time>2026-04-19T07:29:08Z</time></trkpt><trkpt lat="43.49457617739589" lon="10.601058390519952"><ele>444.0</ele><time>2026-04-19T07:29:10Z</time></trkpt><trkpt lat="43.49448573510604" lon="10.601170150839675"><ele>444.0</ele><time>2026-04-19T07:29:12Z</time></trkpt><trkpt lat="43.49437143428257" lon="10.601218330176108"><ele>445.5</ele><time>2026-04-19T07:29:14Z</time></trkpt><trkpt lat="43.49426489490836" lon="10.601160502044902"><ele>447.0</ele><time>2026-04-19T07:29:16Z</time></trkpt><trkpt lat="43.49421204757972" lon="10.6011117025018"><ele>448.5</ele><time>2026-04-19T07:29:17Z</time></trkpt><trkpt lat="43.494160435473695" lon="10.601058761690636"><ele>450.0</ele><time>2026-04-19T07:29:18Z</time></trkpt><trkpt lat="43.49405821029259" lon="10.600957133832305"><ele>451.5</ele><time>2026-04-19T07:29:20Z</time></trkpt><trkpt lat="43.49400438516713" lon="10.600911496399185"><ele>453.0</ele><time>2026-04-19T07:29:21Z</time></trkpt><trkpt lat="43.49389727746409" lon="10.600826036594464"><ele>453.0</ele><time>2026-04-19T07:29:23Z</time></trkpt><trkpt lat="43.493797088055885" lon="10.600752408610145"><ele>452.99999999999994</ele><time>2026-04-19T07:29:25Z</time></trkpt><trkpt lat="43.4936999889189" lon="10.60069187989081"><ele>452.99999999999994</ele><time>2026-04-19T07:29:27Z</time></trkpt><trkpt lat="43.493605844557905" lon="10.60060923921308"><ele>453.0</ele><time>2026-04-19T07:29:29Z</time></trkpt><trkpt lat="43.49351206638186" lon="10.60053030185792"><ele>453.0</ele><time>2026-04-19T07:29:31Z</time></trkpt><trkpt lat="43.49339862659469" lon="10.6004881408221"><ele>454.42857142857133</ele><time>2026-04-19T07:29:33Z</time></trkpt><trkpt lat="43.493330699602296" lon="10.600486965045533"><ele>455.85714285714283</ele><time>2026-04-19T07:29:34Z</time></trkpt><trkpt lat="43.49326042103865" lon="10.600491622566473"><ele>457.2857142857142</ele><time>2026-04-19T07:29:35Z</time></trkpt><trkpt lat="43.49319015008064" lon="10.600499972826881"><ele>458.71428571428567</ele><time>2026-04-19T07:29:36Z</time></trkpt><trkpt lat="43.493117944064274" lon="10.600512445036095"><ele>460.1428571428571</ele><time>2026-04-19T07:29:37Z</time></trkpt><trkpt lat="43.49304620051644" lon="10.600524100140248"><ele>461.57142857142856</ele><time>2026-04-19T07:29:38Z</time></trkpt><trkpt lat="43.49297446799069" lon="10.600539200406438"><ele>463.0</ele><time>2026-04-19T07:29:39Z</time></trkpt><trkpt lat="43.4929060128917" lon="10.600562060222124"><ele>463.00000000000006</ele><time>2026-04-19T07:29:40Z</time></trkpt><trkpt lat="43.492846049923095" lon="10.600592825574454"><ele>463.0</ele><time>2026-04-19T07:29:41Z</time></trkpt><trkpt lat="43.49274341140274" lon="10.600600242846832"><ele>463.0</ele><time>2026-04-19T07:29:43Z</time></trkpt><trkpt lat="43.49264446408833" lon="10.600532959988973"><ele>463.0</ele><time>2026-04-19T07:29:45.001Z</time></trkpt><trkpt lat="43.492575124344526" lon="10.600466916980157"><ele>463.00000000000006</ele><time>2026-04-19T07:29:47.001Z</time></trkpt><trkpt lat="43.492523248105115" lon="10.600408776412094"><ele>463.0</ele><time>2026-04-19T07:29:50.001Z</time></trkpt><trkpt lat="43.49246103742135" lon="10.60032829731729"><ele>463.79999999999995</ele><time>2026-04-19T07:29:53.001Z</time></trkpt><trkpt lat="43.492421443449715" lon="10.600226976502896"><ele>464.59999999999997</ele><time>2026-04-19T07:29:55.001Z</time></trkpt><trkpt lat="43.49237128754247" lon="10.600108635508166"><ele>465.40000000000003</ele><time>2026-04-19T07:29:57.001Z</time></trkpt><trkpt lat="43.4922895907233" lon="10.600027233826411"><ele>466.20000000000005</ele><time>2026-04-19T07:29:59.001Z</time></trkpt><trkpt lat="43.49217864185348" lon="10.599970154749311"><ele>467.0</ele><time>2026-04-19T07:30:01.001Z</time></trkpt><trkpt lat="43.492118304313436" lon="10.599939495514056"><ele>467.1428571428571</ele><time>2026-04-19T07:30:02.001Z</time></trkpt><trkpt lat="43.49206116067604" lon="10.599892561502733"><ele>467.2857142857143</ele><time>2026-04-19T07:30:03.001Z</time></trkpt><trkpt lat="43.492014351262235" lon="10.599823401820771"><ele>467.42857142857144</ele><time>2026-04-19T07:30:04.001Z</time></trkpt><trkpt lat="43.49197829247988" lon="10.599741265785353"><ele>467.57142857142856</ele><time>2026-04-19T07:30:05.001Z</time></trkpt><trkpt lat="43.49196007696404" lon="10.59965072712419"><ele>467.7142857142858</ele><time>2026-04-19T07:30:06.001Z</time></trkpt><trkpt lat="43.49195522562024" lon="10.599558223495524"><ele>467.8571428571429</ele><time>2026-04-19T07:30:07.001Z</time></trkpt><trkpt lat="43.49195600790908" lon="10.599464252179748"><ele>468.0</ele><time>2026-04-19T07:30:08.001Z</time></trkpt><trkpt lat="43.49196276289813" lon="10.599369578723934"><ele>468.0</ele><time>2026-04-19T07:30:09.001Z</time></trkpt><trkpt lat="43.491966096024704" lon="10.599276194283437"><ele>468.00000000000006</ele><time>2026-04-19T07:30:10.001Z</time></trkpt><trkpt lat="43.49196316846828" lon="10.599183715306204"><ele>468.0</ele><time>2026-04-19T07:30:11.001Z</time></trkpt><trkpt lat="43.4919546476566" lon="10.599094205218838"><ele>468.0</ele><time>2026-04-19T07:30:12.001Z</time></trkpt><trkpt lat="43.491950434584815" lon="10.599004908829107"><ele>468.00000000000006</ele><time>2026-04-19T07:30:13.001Z</time></trkpt><trkpt lat="43.49195552727145" lon="10.598917848217102"><ele>468.0</ele><time>2026-04-19T07:30:14.001Z</time></trkpt><trkpt lat="43.49196744541389" lon="10.598831201675912"><ele>468.0</ele><time>2026-04-19T07:30:15.001Z</time></trkpt><trkpt lat="43.49198435277506" lon="10.598743734157495"><ele>469.2</ele><time>2026-04-19T07:30:16.001Z</time></trkpt><trkpt lat="43.49200238948977" lon="10.598655794481516"><ele>470.4</ele><time>2026-04-19T07:30:17.001Z</time></trkpt><trkpt lat="43.492018022189015" lon="10.59856873122204"><ele>471.59999999999997</ele><time>2026-04-19T07:30:18.001Z</time></trkpt><trkpt lat="43.49204075885352" lon="10.598408750512757"><ele>472.79999999999995</ele><time>2026-04-19T07:30:20.001Z</time></trkpt><trkpt lat="43.492060999835374" lon="10.598268432094782"><ele>474.0</ele><time>2026-04-19T07:30:22.001Z</time></trkpt><trkpt lat="43.492057070643824" lon="10.598134221130596"><ele>474.0</ele><time>2026-04-19T07:30:24.001Z</time></trkpt><trkpt lat="43.492025863945194" lon="10.598007835342909"><ele>474.0</ele><time>2026-04-19T07:30:26.001Z</time></trkpt><trkpt lat="43.49199733292662" lon="10.597875630657727"><ele>474.0</ele><time>2026-04-19T07:30:28.001Z</time></trkpt><trkpt lat="43.49198079736675" lon="10.597728947513046"><ele>474.0</ele><time>2026-04-19T07:30:30.001Z</time></trkpt><trkpt lat="43.4919715624501" lon="10.59757923043137"><ele>474.0</ele><time>2026-04-19T07:30:32.001Z</time></trkpt><trkpt lat="43.49195599999209" lon="10.59743357219901"><ele>475.79999999999995</ele><time>2026-04-19T07:30:34.001Z</time></trkpt><trkpt lat="43.49191996068652" lon="10.597296816912493"><ele>477.59999999999997</ele><time>2026-04-19T07:30:36Z</time></trkpt><trkpt lat="43.49188155435285" lon="10.597152355865905"><ele>479.4</ele><time>2026-04-19T07:30:38Z</time></trkpt><trkpt lat="43.491869876485595" lon="10.597002479291783"><ele>481.2</ele><time>2026-04-19T07:30:40Z</time></trkpt><trkpt lat="43.49187120070961" lon="10.596899094579957"><ele>483.0</ele><time>2026-04-19T07:30:43Z</time></trkpt><trkpt lat="43.49193572843227" lon="10.596818569686649"><ele>483.59999999999997</ele><time>2026-04-19T07:30:57Z</time></trkpt><trkpt lat="43.492044657745744" lon="10.59683572630483"><ele>484.19999999999993</ele><time>2026-04-19T07:30:59Z</time></trkpt><trkpt lat="43.49216958234458" lon="10.596835550755396"><ele>484.8</ele><time>2026-04-19T07:31:01Z</time></trkpt><trkpt lat="43.4922324608175" lon="10.596807343345768"><ele>485.4</ele><time>2026-04-19T07:31:02Z</time></trkpt><trkpt lat="43.49229405842133" lon="10.596763850374632"><ele>486.0</ele><time>2026-04-19T07:31:03Z</time></trkpt><trkpt lat="43.49240205600452" lon="10.596678962137524"><ele>486.2857142857143</ele><time>2026-04-19T07:31:05Z</time></trkpt><trkpt lat="43.49245951329962" lon="10.596628169854679"><ele>486.57142857142856</ele><time>2026-04-19T07:31:06Z</time></trkpt><trkpt lat="43.492520595778906" lon="10.59657680445846"><ele>486.85714285714283</ele><time>2026-04-19T07:31:07Z</time></trkpt><trkpt lat="43.49258397439624" lon="10.596527108086962"><ele>487.1428571428571</ele><time>2026-04-19T07:31:08Z</time></trkpt><trkpt lat="43.49265077840553" lon="10.596475757871694"><ele>487.42857142857144</ele><time>2026-04-19T07:31:09Z</time></trkpt><trkpt lat="43.49271543853565" lon="10.59642040893316"><ele>487.71428571428567</ele><time>2026-04-19T07:31:10Z</time></trkpt><trkpt lat="43.49276500215349" lon="10.596341285980353"><ele>487.99999999999994</ele><time>2026-04-19T07:31:11Z</time></trkpt><trkpt lat="43.49280881219034" lon="10.596262255137265"><ele>487.99999999999994</ele><time>2026-04-19T07:31:12Z</time></trkpt><trkpt lat="43.492842546416476" lon="10.5961744871391"><ele>488.0</ele><time>2026-04-19T07:31:13Z</time></trkpt><trkpt lat="43.49286660584668" lon="10.59607676018631"><ele>488.0</ele><time>2026-04-19T07:31:14Z</time></trkpt><trkpt lat="43.492884410871376" lon="10.595967546965648"><ele>488.0</ele><time>2026-04-19T07:31:15Z</time></trkpt><trkpt lat="43.4928964618137" lon="10.595858821732847"><ele>487.99999999999994</ele><time>2026-04-19T07:31:16Z</time></trkpt><trkpt lat="43.492911150489" lon="10.595750590507311"><ele>488.0</ele><time>2026-04-19T07:31:17Z</time></trkpt><trkpt lat="43.49293276875069" lon="10.595650566168507"><ele>487.5714285714285</ele><time>2026-04-19T07:31:18Z</time></trkpt><trkpt lat="43.49296952424348" lon="10.595558545270828"><ele>487.1428571428571</ele><time>2026-04-19T07:31:19Z</time></trkpt><trkpt lat="43.49301475335996" lon="10.595476175508283"><ele>486.7142857142857</ele><time>2026-04-19T07:31:20Z</time></trkpt><trkpt lat="43.493066288215225" lon="10.595409745047217"><ele>486.2857142857143</ele><time>2026-04-19T07:31:21Z</time></trkpt><trkpt lat="43.49312897052272" lon="10.59536357017852"><ele>485.8571428571429</ele><time>2026-04-19T07:31:22Z</time></trkpt><trkpt lat="43.493201320013014" lon="10.595331077116596"><ele>485.4285714285715</ele><time>2026-04-19T07:31:23Z</time></trkpt><trkpt lat="43.49327902295384" lon="10.595311553650523"><ele>485.00000000000006</ele><time>2026-04-19T07:31:24Z</time></trkpt><trkpt lat="43.49336434125759" lon="10.595303778045702"><ele>484.99999999999994</ele><time>2026-04-19T07:31:25Z</time></trkpt><trkpt lat="43.49345094157721" lon="10.5953109200043"><ele>485.0</ele><time>2026-04-19T07:31:26Z</time></trkpt><trkpt lat="43.49353585354689" lon="10.595324064591427"><ele>485.0</ele><time>2026-04-19T07:31:27Z</time></trkpt><trkpt lat="43.49361642159393" lon="10.595347996413143"><ele>485.0</ele><time>2026-04-19T07:31:28Z</time></trkpt><trkpt lat="43.49369886879811" lon="10.595366461049931"><ele>484.99999999999994</ele><time>2026-04-19T07:31:29Z</time></trkpt><trkpt lat="43.49378203936858" lon="10.59538360276262"><ele>485.0</ele><time>2026-04-19T07:31:30Z</time></trkpt><trkpt lat="43.493864556006606" lon="10.595402126029175"><ele>484.49999999999994</ele><time>2026-04-19T07:31:31Z</time></trkpt><trkpt lat="43.49394485570395" lon="10.595424299998866"><ele>484.0</ele><time>2026-04-19T07:31:32Z</time></trkpt><trkpt lat="43.49402610304382" lon="10.595437184122893"><ele>483.5</ele><time>2026-04-19T07:31:33Z</time></trkpt><trkpt lat="43.49410883868922" lon="10.595421590150982"><ele>483.0</ele><time>2026-04-19T07:31:34Z</time></trkpt><trkpt lat="43.494191737740785" lon="10.595394144783583"><ele>482.49999999999994</ele><time>2026-04-19T07:31:35Z</time></trkpt><trkpt lat="43.4942688076123" lon="10.595345183424072"><ele>482.0</ele><time>2026-04-19T07:31:36Z</time></trkpt><trkpt lat="43.494338469485754" lon="10.595278084026837"><ele>481.99999999999994</ele><time>2026-04-19T07:31:37Z</time></trkpt><trkpt lat="43.494401344652296" lon="10.595200757559779"><ele>482.0</ele><time>2026-04-19T07:31:38Z</time></trkpt><trkpt lat="43.49445590426206" lon="10.595110625345926"><ele>482.0</ele><time>2026-04-19T07:31:39Z</time></trkpt><trkpt lat="43.49450433230647" lon="10.5950152883444"><ele>482.0</ele><time>2026-04-19T07:31:40Z</time></trkpt><trkpt lat="43.49454794904435" lon="10.594917375568139"><ele>481.99999999999994</ele><time>2026-04-19T07:31:41Z</time></trkpt><trkpt lat="43.49458619072741" lon="10.594837114034288"><ele>482.0</ele><time>2026-04-19T07:31:42Z</time></trkpt><trkpt lat="43.49462288652731" lon="10.594760562889228"><ele>480.16666666666663</ele><time>2026-04-19T07:31:43Z</time></trkpt><trkpt lat="43.49470502966428" lon="10.594634307762727"><ele>478.3333333333333</ele><time>2026-04-19T07:31:45Z</time></trkpt><trkpt lat="43.49476139978343" lon="10.594583972505298"><ele>476.5</ele><time>2026-04-19T07:31:46Z</time></trkpt><trkpt lat="43.49485401653342" lon="10.594535520912059"><ele>474.66666666666663</ele><time>2026-04-19T07:31:48Z</time></trkpt><trkpt lat="43.494914573505724" lon="10.594511400861625"><ele>472.8333333333333</ele><time>2026-04-19T07:32:10Z</time></trkpt><trkpt lat="43.49499071771065" lon="10.594563130811983"><ele>471.0</ele><time>2026-04-19T07:32:13Z</time></trkpt><trkpt lat="43.49506351038013" lon="10.594635939470745"><ele>471.0</ele><time>2026-04-19T07:32:16.001Z</time></trkpt><trkpt lat="43.495110606587154" lon="10.594698894835199"><ele>471.0</ele><time>2026-04-19T07:32:18.001Z</time></trkpt><trkpt lat="43.49516261430104" lon="10.594756195100182"><ele>471.0</ele><time>2026-04-19T07:32:20.001Z</time></trkpt><trkpt lat="43.49522552631425" lon="10.594818346119508"><ele>471.0</ele><time>2026-04-19T07:32:22.001Z</time></trkpt><trkpt lat="43.49528651371577" lon="10.594882264641381"><ele>471.0</ele><time>2026-04-19T07:32:24.001Z</time></trkpt><trkpt lat="43.49535944987269" lon="10.594957735088526"><ele>471.0</ele><time>2026-04-19T07:32:27.001Z</time></trkpt><trkpt lat="43.49543945082793" lon="10.595028733643408"><ele>469.8</ele><time>2026-04-19T07:32:29.001Z</time></trkpt><trkpt lat="43.49554972893241" lon="10.595083789621405"><ele>468.6</ele><time>2026-04-19T07:32:31.001Z</time></trkpt><trkpt lat="43.495662841348214" lon="10.595107179967949"><ele>467.4</ele><time>2026-04-19T07:32:33.001Z</time></trkpt><trkpt lat="43.49576212920886" lon="10.595161201396522"><ele>466.2</ele><time>2026-04-19T07:32:35.001Z</time></trkpt><trkpt lat="43.49582781579803" lon="10.595211597232678"><ele>465.0</ele><time>2026-04-19T07:32:37.001Z</time></trkpt><trkpt lat="43.495892765554935" lon="10.595238408466457"><ele>465.0</ele><time>2026-04-19T07:32:39.001Z</time></trkpt><trkpt lat="43.49596524132923" lon="10.59523836071826"><ele>465.0</ele><time>2026-04-19T07:32:41Z</time></trkpt><trkpt lat="43.496042771120685" lon="10.595234737309587"><ele>465.0</ele><time>2026-04-19T07:32:44Z</time></trkpt><trkpt lat="43.49610131992475" lon="10.595195579692373"><ele>465.0</ele><time>2026-04-19T07:32:51Z</time></trkpt><trkpt lat="43.49614499430815" lon="10.59511500223749"><ele>465.0</ele><time>2026-04-19T07:32:55Z</time></trkpt><trkpt lat="43.49618932908614" lon="10.595053111418169"><ele>465.0</ele><time>2026-04-19T07:32:59Z</time></trkpt><trkpt lat="43.49626434669814" lon="10.595061579327"><ele>465.0</ele><time>2026-04-19T07:33:04Z</time></trkpt><trkpt lat="43.49633178573352" lon="10.595085270316536"><ele>463.57142857142856</ele><time>2026-04-19T07:33:14Z</time></trkpt><trkpt lat="43.49639664596429" lon="10.595117240660699"><ele>462.14285714285717</ele><time>2026-04-19T07:33:20Z</time></trkpt><trkpt lat="43.49645934503927" lon="10.595147525449"><ele>460.7142857142857</ele><time>2026-04-19T07:33:24Z</time></trkpt><trkpt lat="43.49651758304651" lon="10.595183949778336"><ele>459.2857142857143</ele><time>2026-04-19T07:33:39Z</time></trkpt><trkpt lat="43.49658946613595" lon="10.595205914780214"><ele>457.8571428571429</ele><time>2026-04-19T07:33:44Z</time></trkpt><trkpt lat="43.496664111275614" lon="10.595228536355028"><ele>456.42857142857144</ele><time>2026-04-19T07:33:50Z</time></trkpt><trkpt lat="43.49672464535472" lon="10.595197237592943"><ele>455.0</ele><time>2026-04-19T07:33:55Z</time></trkpt><trkpt lat="43.496775509033675" lon="10.595146082587082"><ele>455.0</ele><time>2026-04-19T07:33:59Z</time></trkpt><trkpt lat="43.49680669076871" lon="10.595052638418615"><ele>455.0</ele><time>2026-04-19T07:34:05Z</time></trkpt><trkpt lat="43.49682480440391" lon="10.594963569350261"><ele>455.0</ele><time>2026-04-19T07:34:10Z</time></trkpt><trkpt lat="43.49684620356546" lon="10.594870269285162"><ele>455.0</ele><time>2026-04-19T07:34:16Z</time></trkpt><trkpt lat="43.49686639778133" lon="10.594772337784976"><ele>455.0</ele><time>2026-04-19T07:34:21Z</time></trkpt><trkpt lat="43.496876866189574" lon="10.594675216009584"><ele>455.0</ele><time>2026-04-19T07:34:26Z</time></trkpt><trkpt lat="43.496882438248704" lon="10.594576860174072"><ele>455.0</ele><time>2026-04-19T07:34:30.001Z</time></trkpt><trkpt lat="43.49685721927686" lon="10.594488178493668"><ele>453.42857142857144</ele><time>2026-04-19T07:34:35.001Z</time></trkpt><trkpt lat="43.4967866954703" lon="10.594466938058254"><ele>451.8571428571429</ele><time>2026-04-19T07:34:39.001Z</time></trkpt><trkpt lat="43.49670364524469" lon="10.594449166325875"><ele>450.2857142857143</ele><time>2026-04-19T07:34:43.001Z</time></trkpt><trkpt lat="43.49662953110635" lon="10.594420820525169"><ele>448.7142857142857</ele><time>2026-04-19T07:34:47Z</time></trkpt><trkpt lat="43.49655805677608" lon="10.594382571439263"><ele>447.14285714285717</ele><time>2026-04-19T07:34:51Z</time></trkpt><trkpt lat="43.49649117668017" lon="10.594336591343025"><ele>445.57142857142856</ele><time>2026-04-19T07:34:54Z</time></trkpt><trkpt lat="43.49644673995384" lon="10.594275036067698"><ele>444.0</ele><time>2026-04-19T07:34:57Z</time></trkpt><trkpt lat="43.49640964844857" lon="10.594177192200918"><ele>444.0</ele><time>2026-04-19T07:35:01Z</time></trkpt><trkpt lat="43.49637461258055" lon="10.594091290062648"><ele>444.0</ele><time>2026-04-19T07:35:04Z</time></trkpt><trkpt lat="43.496336590821585" lon="10.59401004147269"><ele>444.0</ele><time>2026-04-19T07:35:07Z</time></trkpt><trkpt lat="43.49629400364193" lon="10.59390865226822"><ele>444.0</ele><time>2026-04-19T07:35:11Z</time></trkpt><trkpt lat="43.49626443623122" lon="10.593826248618745"><ele>444.0</ele><time>2026-04-19T07:35:15Z</time></trkpt><trkpt lat="43.496235716331995" lon="10.593729402424634"><ele>444.0</ele><time>2026-04-19T07:35:20Z</time></trkpt><trkpt lat="43.49620739735662" lon="10.593641467521975"><ele>444.0</ele><time>2026-04-19T07:35:25Z</time></trkpt><trkpt lat="43.49619632130215" lon="10.593537699507518"><ele>445.0</ele><time>2026-04-19T07:35:30Z</time></trkpt><trkpt lat="43.49620958164417" lon="10.593451195210234"><ele>446.0</ele><time>2026-04-19T07:35:34Z</time></trkpt><trkpt lat="43.49622043862189" lon="10.593355323332672"><ele>447.0</ele><time>2026-04-19T07:35:40Z</time></trkpt><trkpt lat="43.49623021996939" lon="10.593264579656113"><ele>448.0</ele><time>2026-04-19T07:35:49Z</time></trkpt><trkpt lat="43.496222433914106" lon="10.593176017545737"><ele>449.0</ele><time>2026-04-19T07:46:04Z</time></trkpt><trkpt lat="43.4962150929873" lon="10.593084109472455"><ele>450.0</ele><time>2026-04-19T07:46:11Z</time></trkpt><trkpt lat="43.49621801521784" lon="10.592991298705055"><ele>451.0</ele><time>2026-04-19T07:46:22Z</time></trkpt><trkpt lat="43.49621729535606" lon="10.592904353318128"><ele>448.4285714285714</ele><time>2026-04-19T07:47:06Z</time></trkpt><trkpt lat="43.49623823129956" lon="10.59282111611331"><ele>445.8571428571429</ele><time>2026-04-19T07:48:00Z</time></trkpt><trkpt lat="43.496256115697534" lon="10.592732986439385"><ele>443.2857142857143</ele><time>2026-04-19T07:48:36Z</time></trkpt><trkpt lat="43.496253227452215" lon="10.592645323182856"><ele>440.71428571428567</ele><time>2026-04-19T07:49:20Z</time></trkpt><trkpt lat="43.49624482184555" lon="10.592557838117788"><ele>438.1428571428571</ele><time>2026-04-19T07:49:49Z</time></trkpt><trkpt lat="43.49622092671828" lon="10.592474231665065"><ele>435.57142857142856</ele><time>2026-04-19T07:50:15Z</time></trkpt><trkpt lat="43.496210538924096" lon="10.59237854130503"><ele>433.0</ele><time>2026-04-19T07:50:31Z</time></trkpt><trkpt lat="43.49619050265247" lon="10.5922949922035"><ele>432.99999999999994</ele><time>2026-04-19T07:50:40Z</time></trkpt><trkpt lat="43.49616380727374" lon="10.59221497849432"><ele>433.0</ele><time>2026-04-19T07:50:49Z</time></trkpt><trkpt lat="43.49615833650142" lon="10.592114549835374"><ele>433.0</ele><time>2026-04-19T07:50:54Z</time></trkpt><trkpt lat="43.49614924501015" lon="10.59200652944338"><ele>433.0</ele><time>2026-04-19T07:50:59Z</time></trkpt><trkpt lat="43.496140535518904" lon="10.591920318194953"><ele>433.0</ele><time>2026-04-19T07:51:04Z</time></trkpt><trkpt lat="43.49613422222184" lon="10.591832996522056"><ele>432.99999999999994</ele><time>2026-04-19T07:51:14Z</time></trkpt><trkpt lat="43.496103391952076" lon="10.59174922615224"><ele>433.0</ele><time>2026-04-19T07:51:23Z</time></trkpt><trkpt lat="43.49605320987156" lon="10.591679142659432"><ele>431.2857142857143</ele><time>2026-04-19T07:51:29Z</time></trkpt><trkpt lat="43.49600648754564" lon="10.591613183220428"><ele>429.57142857142856</ele><time>2026-04-19T07:51:36Z</time></trkpt><trkpt lat="43.49595729814212" lon="10.591546334531559"><ele>427.8571428571429</ele><time>2026-04-19T07:51:42Z</time></trkpt><trkpt lat="43.49590758985439" lon="10.591473710806246"><ele>426.1428571428571</ele><time>2026-04-19T07:51:48Z</time></trkpt><trkpt lat="43.49587367694302" lon="10.591400121637628"><ele>424.42857142857144</ele><time>2026-04-19T07:51:51Z</time></trkpt><trkpt lat="43.495842991120185" lon="10.591321640910037"><ele>422.7142857142857</ele><time>2026-04-19T07:51:55Z</time></trkpt><trkpt lat="43.49580668009047" lon="10.591240204306793"><ele>421.0</ele><time>2026-04-19T07:51:59Z</time></trkpt><trkpt lat="43.49576417707634" lon="10.591164024302563"><ele>420.5714285714286</ele><time>2026-04-19T07:52:03Z</time></trkpt><trkpt lat="43.49571617055187" lon="10.591106341188576"><ele>420.14285714285717</ele><time>2026-04-19T07:52:08Z</time></trkpt><trkpt lat="43.49566467751799" lon="10.591024448582871"><ele>419.7142857142857</ele><time>2026-04-19T07:52:12Z</time></trkpt><trkpt lat="43.49566318680886" lon="10.590923177736183"><ele>419.28571428571433</ele><time>2026-04-19T07:52:17Z</time></trkpt><trkpt lat="43.495670958392665" lon="10.590834135768882"><ele>418.85714285714283</ele><time>2026-04-19T07:52:21Z</time></trkpt><trkpt lat="43.49565852928458" lon="10.59073968199874"><ele>418.42857142857144</ele><time>2026-04-19T07:52:26Z</time></trkpt><trkpt lat="43.495647549715734" lon="10.590641949704127"><ele>418.0</ele><time>2026-04-19T07:52:31Z</time></trkpt><trkpt lat="43.495699757729426" lon="10.59055075426215"><ele>418.0</ele><time>2026-04-19T07:52:35Z</time></trkpt><trkpt lat="43.49573952829458" lon="10.590481777337997"><ele>418.0</ele><time>2026-04-19T07:52:37Z</time></trkpt><trkpt lat="43.49578953011463" lon="10.590406095227253"><ele>418.0</ele><time>2026-04-19T07:52:41Z</time></trkpt><trkpt lat="43.4958451423599" lon="10.590327540388317"><ele>418.0</ele><time>2026-04-19T07:52:45Z</time></trkpt><trkpt lat="43.49591096497549" lon="10.59030058769859"><ele>418.0</ele><time>2026-04-19T07:52:48Z</time></trkpt><trkpt lat="43.49597860886725" lon="10.590287573822485"><ele>418.0</ele><time>2026-04-19T07:52:52Z</time></trkpt><trkpt lat="43.496039509666865" lon="10.590241503595061"><ele>418.0</ele><time>2026-04-19T07:52:57Z</time></trkpt><trkpt lat="43.49608909067687" lon="10.590181192183145"><ele>418.42857142857144</ele><time>2026-04-19T07:53:02Z</time></trkpt><trkpt lat="43.49613504650552" lon="10.59010298977956"><ele>418.85714285714283</ele><time>2026-04-19T07:53:07Z</time></trkpt><trkpt lat="43.49618324546878" lon="10.59004157850027"><ele>419.28571428571433</ele><time>2026-04-19T07:53:12Z</time></trkpt><trkpt lat="43.49622963660419" lon="10.589980575661558"><ele>419.7142857142857</ele><time>2026-04-19T07:53:17Z</time></trkpt><trkpt lat="43.496297788273765" lon="10.589941209917379"><ele>420.14285714285717</ele><time>2026-04-19T07:53:31Z</time></trkpt><trkpt lat="43.49634185230686" lon="10.589865095441537"><ele>420.5714285714286</ele><time>2026-04-19T07:53:40Z</time></trkpt><trkpt lat="43.496396315174934" lon="10.58975228472474"><ele>421.0</ele><time>2026-04-19T07:54:27Z</time></trkpt><trkpt lat="43.496429740094634" lon="10.589673655996961"><ele>418.8571428571429</ele><time>2026-04-19T07:54:36Z</time></trkpt><trkpt lat="43.49646758511761" lon="10.589601436932053"><ele>416.7142857142857</ele><time>2026-04-19T07:54:42Z</time></trkpt><trkpt lat="43.4965127935432" lon="10.589517374967032"><ele>414.57142857142856</ele><time>2026-04-19T07:54:47Z</time></trkpt><trkpt lat="43.49651550475426" lon="10.589427723230449"><ele>412.42857142857144</ele><time>2026-04-19T07:54:53Z</time></trkpt><trkpt lat="43.4965040157562" lon="10.589338399797288"><ele>410.2857142857143</ele><time>2026-04-19T07:54:58Z</time></trkpt><trkpt lat="43.496505392575735" lon="10.589248868744862"><ele>408.14285714285717</ele><time>2026-04-19T07:55:06Z</time></trkpt><trkpt lat="43.496502894727115" lon="10.589159462056326"><ele>406.0</ele><time>2026-04-19T07:55:38Z</time></trkpt><trkpt lat="43.49647731836211" lon="10.58907143972613"><ele>406.0</ele><time>2026-04-19T07:55:49Z</time></trkpt><trkpt lat="43.496474701492865" lon="10.588981313523599"><ele>406.0</ele><time>2026-04-19T07:56:00Z</time></trkpt><trkpt lat="43.496471332845985" lon="10.58886785127147"><ele>406.0</ele><time>2026-04-19T07:56:20Z</time></trkpt><trkpt lat="43.49647076612617" lon="10.588752486792798"><ele>406.0</ele><time>2026-04-19T07:56:46Z</time></trkpt><trkpt lat="43.496480945694344" lon="10.588652388911173"><ele>406.0</ele><time>2026-04-19T07:56:55Z</time></trkpt><trkpt lat="43.49644302796269" lon="10.588573145051189"><ele>406.0</ele><time>2026-04-19T07:57:01Z</time></trkpt><trkpt lat="43.49640405462094" lon="10.588497508650526"><ele>406.0</ele><time>2026-04-19T07:57:06Z</time></trkpt><trkpt lat="43.496339153437596" lon="10.588441477473717"><ele>406.14285714285717</ele><time>2026-04-19T07:57:10Z</time></trkpt><trkpt lat="43.4962911050141" lon="10.588378743767645"><ele>406.2857142857143</ele><time>2026-04-19T07:57:14Z</time></trkpt><trkpt lat="43.49629610134457" lon="10.588283939029495"><ele>406.42857142857144</ele><time>2026-04-19T07:57:24Z</time></trkpt><trkpt lat="43.496257159569595" lon="10.588201487227987"><ele>406.57142857142856</ele><time>2026-04-19T07:57:30Z</time></trkpt><trkpt lat="43.49622110000875" lon="10.588128790173307"><ele>406.7142857142857</ele><time>2026-04-19T07:57:39Z</time></trkpt><trkpt lat="43.49620792505837" lon="10.588041192657423"><ele>406.8571428571429</ele><time>2026-04-19T07:57:47Z</time></trkpt><trkpt lat="43.496213782448436" lon="10.587948786865132"><ele>407.0</ele><time>2026-04-19T07:57:59Z</time></trkpt><trkpt lat="43.49625066290364" lon="10.587875683457662"><ele>404.8571428571429</ele><time>2026-04-19T07:58:10Z</time></trkpt><trkpt lat="43.49628438438776" lon="10.587795047266294"><ele>402.7142857142857</ele><time>2026-04-19T07:58:19Z</time></trkpt><trkpt lat="43.496258269273866" lon="10.587693884773072"><ele>400.57142857142856</ele><time>2026-04-19T07:58:23Z</time></trkpt><trkpt lat="43.49621002159637" lon="10.587604343800791"><ele>398.42857142857144</ele><time>2026-04-19T07:58:28Z</time></trkpt><trkpt lat="43.49618171191119" lon="10.587507213030198"><ele>396.2857142857143</ele><time>2026-04-19T07:58:32Z</time></trkpt><trkpt lat="43.49617819441458" lon="10.587414681696089"><ele>394.14285714285717</ele><time>2026-04-19T07:58:39Z</time></trkpt><trkpt lat="43.49620654216769" lon="10.58733303564338"><ele>392.0</ele><time>2026-04-19T07:58:50Z</time></trkpt><trkpt lat="43.496234718316884" lon="10.587248051160806"><ele>391.85714285714283</ele><time>2026-04-19T07:59:16Z</time></trkpt><trkpt lat="43.496235985181634" lon="10.587160071871061"><ele>391.7142857142857</ele><time>2026-04-19T07:59:25Z</time></trkpt><trkpt lat="43.496242761074235" lon="10.587070038436408"><ele>391.57142857142856</ele><time>2026-04-19T07:59:41Z</time></trkpt><trkpt lat="43.496282859958534" lon="10.586995438587763"><ele>391.42857142857144</ele><time>2026-04-19T07:59:52Z</time></trkpt><trkpt lat="43.49631513581234" lon="10.586913188213567"><ele>391.2857142857143</ele><time>2026-04-19T08:00:01Z</time></trkpt><trkpt lat="43.49631135770522" lon="10.586824311895317"><ele>391.1428571428571</ele><time>2026-04-19T08:00:09Z</time></trkpt><trkpt lat="43.496308733799935" lon="10.586722288558258"><ele>391.0</ele><time>2026-04-19T08:00:14Z</time></trkpt><trkpt lat="43.496294899215265" lon="10.58661857600463"><ele>389.99999999999994</ele><time>2026-04-19T08:00:19Z</time></trkpt><trkpt lat="43.4963086163554" lon="10.586533215924206"><ele>389.0</ele><time>2026-04-19T08:00:22Z</time></trkpt><trkpt lat="43.49632496075988" lon="10.586446920154541"><ele>388.0</ele><time>2026-04-19T08:00:27Z</time></trkpt><trkpt lat="43.49633299194428" lon="10.58635324235954"><ele>387.0</ele><time>2026-04-19T08:00:31Z</time></trkpt><trkpt lat="43.496340437033254" lon="10.586258023098718"><ele>386.0</ele><time>2026-04-19T08:00:34Z</time></trkpt><trkpt lat="43.49633701882975" lon="10.586169320200378"><ele>384.99999999999994</ele><time>2026-04-19T08:00:37Z</time></trkpt><trkpt lat="43.49632830726444" lon="10.586067666143176"><ele>384.0</ele><time>2026-04-19T08:00:41Z</time></trkpt><trkpt lat="43.49631644808855" lon="10.585946009676153"><ele>383.5</ele><time>2026-04-19T08:00:44Z</time></trkpt><trkpt lat="43.49629342851344" lon="10.58584855041181"><ele>383.0</ele><time>2026-04-19T08:00:47Z</time></trkpt><trkpt lat="43.496263684298235" lon="10.585768800512076"><ele>382.5</ele><time>2026-04-19T08:00:50Z</time></trkpt><trkpt lat="43.496224447899365" lon="10.585699335273372"><ele>382.0</ele><time>2026-04-19T08:00:52Z</time></trkpt><trkpt lat="43.49621219135025" lon="10.585597423055429"><ele>381.5</ele><time>2026-04-19T08:00:54Z</time></trkpt><trkpt lat="43.49619528373133" lon="10.585490862628484"><ele>381.0</ele><time>2026-04-19T08:00:57Z</time></trkpt><trkpt lat="43.49619498106996" lon="10.585362129638721"><ele>377.6666666666667</ele><time>2026-04-19T08:01:00Z</time></trkpt><trkpt lat="43.49620243224725" lon="10.585238006057308"><ele>374.3333333333333</ele><time>2026-04-19T08:01:03Z</time></trkpt><trkpt lat="43.49620020559854" lon="10.585147200738508"><ele>371.0</ele><time>2026-04-19T08:01:05Z</time></trkpt><trkpt lat="43.49619425058143" lon="10.585023337662735"><ele>367.66666666666663</ele><time>2026-04-19T08:01:08Z</time></trkpt><trkpt lat="43.496174466981486" lon="10.584933267307381"><ele>364.3333333333333</ele><time>2026-04-19T08:01:10Z</time></trkpt><trkpt lat="43.49615706938763" lon="10.584809282307072"><ele>361.0</ele><time>2026-04-19T08:01:12Z</time></trkpt><trkpt lat="43.49616954909397" lon="10.584709355637136"><ele>361.0</ele><time>2026-04-19T08:01:14Z</time></trkpt><trkpt lat="43.496197699062925" lon="10.584596429004483"><ele>361.0</ele><time>2026-04-19T08:01:17Z</time></trkpt><trkpt lat="43.49621468571516" lon="10.584493801586122"><ele>361.0</ele><time>2026-04-19T08:01:20Z</time></trkpt><trkpt lat="43.4962164761368" lon="10.584365230297887"><ele>361.0</ele><time>2026-04-19T08:01:23Z</time></trkpt><trkpt lat="43.4962268242361" lon="10.584262833371879"><ele>361.0</ele><time>2026-04-19T08:01:27Z</time></trkpt><trkpt lat="43.49623101591791" lon="10.58415992373831"><ele>361.0</ele><time>2026-04-19T08:01:30Z</time></trkpt><trkpt lat="43.49623513462776" lon="10.5840664895625"><ele>361.0</ele><time>2026-04-19T08:01:33Z</time></trkpt><trkpt lat="43.496242970156246" lon="10.583977438427368"><ele>361.0</ele><time>2026-04-19T08:01:36Z</time></trkpt><trkpt lat="43.496268334741906" lon="10.583881783050538"><ele>361.0</ele><time>2026-04-19T08:01:39Z</time></trkpt><trkpt lat="43.4963124618344" lon="10.583789908251418"><ele>361.0</ele><time>2026-04-19T08:01:43Z</time></trkpt><trkpt lat="43.49635972470194" lon="10.583701102216253"><ele>361.0</ele><time>2026-04-19T08:01:47Z</time></trkpt><trkpt lat="43.49641660636822" lon="10.583610374417107"><ele>361.0</ele><time>2026-04-19T08:01:50Z</time></trkpt><trkpt lat="43.49647540504377" lon="10.583513626311428"><ele>361.0</ele><time>2026-04-19T08:01:53Z</time></trkpt><trkpt lat="43.49652370880041" lon="10.583444536908583"><ele>361.0</ele><time>2026-04-19T08:01:55Z</time></trkpt><trkpt lat="43.49658100682505" lon="10.583365825768482"><ele>361.0</ele><time>2026-04-19T08:01:58Z</time></trkpt><trkpt lat="43.49663729375062" lon="10.583285245647902"><ele>361.0</ele><time>2026-04-19T08:02:02Z</time></trkpt><trkpt lat="43.49669253402762" lon="10.583196873584312"><ele>361.0</ele><time>2026-04-19T08:02:05Z</time></trkpt><trkpt lat="43.49674563831701" lon="10.583113502332761"><ele>361.0</ele><time>2026-04-19T08:02:08Z</time></trkpt><trkpt lat="43.49679313156832" lon="10.583029170152765"><ele>361.0</ele><time>2026-04-19T08:02:11Z</time></trkpt><trkpt lat="43.49683554546615" lon="10.58294361963539"><ele>361.0</ele><time>2026-04-19T08:02:14Z</time></trkpt><trkpt lat="43.49687571509409" lon="10.58282738877099"><ele>361.0</ele><time>2026-04-19T08:02:17Z</time></trkpt><trkpt lat="43.49691045367744" lon="10.582731340716327"><ele>361.0</ele><time>2026-04-19T08:02:20Z</time></trkpt><trkpt lat="43.496946255100525" lon="10.582640363637214"><ele>361.0</ele><time>2026-04-19T08:02:23Z</time></trkpt><trkpt lat="43.496984592475854" lon="10.582544599360386"><ele>361.0</ele><time>2026-04-19T08:02:28Z</time></trkpt><trkpt lat="43.49701552045951" lon="10.582463978390363"><ele>361.14285714285717</ele><time>2026-04-19T08:02:32Z</time></trkpt><trkpt lat="43.49703654687682" lon="10.582377090328785"><ele>361.2857142857143</ele><time>2026-04-19T08:02:36Z</time></trkpt><trkpt lat="43.49706496676622" lon="10.582273117445977"><ele>361.42857142857144</ele><time>2026-04-19T08:02:40Z</time></trkpt><trkpt lat="43.49709824620147" lon="10.582177019260307"><ele>361.57142857142856</ele><time>2026-04-19T08:02:44Z</time></trkpt><trkpt lat="43.497127000397064" lon="10.582095607686563"><ele>361.71428571428567</ele><time>2026-04-19T08:02:47Z</time></trkpt><trkpt lat="43.49716225764421" lon="10.582013129960105"><ele>361.85714285714283</ele><time>2026-04-19T08:02:50Z</time></trkpt><trkpt lat="43.497187605020976" lon="10.581918106873031"><ele>362.0</ele><time>2026-04-19T08:02:54Z</time></trkpt><trkpt lat="43.49722159016128" lon="10.581836008040908"><ele>361.1666666666667</ele><time>2026-04-19T08:02:57Z</time></trkpt><trkpt lat="43.49724757405809" lon="10.581741627300934"><ele>360.33333333333337</ele><time>2026-04-19T08:03:00Z</time></trkpt><trkpt lat="43.49726901542539" lon="10.581657239884619"><ele>359.5</ele><time>2026-04-19T08:03:03Z</time></trkpt><trkpt lat="43.49730213485502" lon="10.581567372668783"><ele>358.6666666666667</ele><time>2026-04-19T08:03:06Z</time></trkpt><trkpt lat="43.49733828392157" lon="10.581465874129195"><ele>357.8333333333333</ele><time>2026-04-19T08:03:09Z</time></trkpt><trkpt lat="43.497371555291416" lon="10.581388610856303"><ele>357.0</ele><time>2026-04-19T08:03:11Z</time></trkpt><trkpt lat="43.49741893259553" lon="10.581267579621176"><ele>357.0</ele><time>2026-04-19T08:03:14Z</time></trkpt><trkpt lat="43.4974574936375" lon="10.581196372516715"><ele>357.0</ele><time>2026-04-19T08:03:16Z</time></trkpt><trkpt lat="43.49749486593062" lon="10.581096696794699"><ele>357.0</ele><time>2026-04-19T08:03:19Z</time></trkpt><trkpt lat="43.49753664045334" lon="10.58100004017153"><ele>357.0</ele><time>2026-04-19T08:03:22Z</time></trkpt><trkpt lat="43.49757035894657" lon="10.580893342426906"><ele>357.0</ele><time>2026-04-19T08:03:25Z</time></trkpt><trkpt lat="43.49758935315308" lon="10.580782228249392"><ele>357.0</ele><time>2026-04-19T08:03:28Z</time></trkpt><trkpt lat="43.497581995325476" lon="10.580663212196834"><ele>356.2857142857143</ele><time>2026-04-19T08:03:31Z</time></trkpt><trkpt lat="43.49756646149228" lon="10.580542266092992"><ele>355.57142857142856</ele><time>2026-04-19T08:03:34Z</time></trkpt><trkpt lat="43.49755769885492" lon="10.580432320966477"><ele>354.8571428571429</ele><time>2026-04-19T08:03:37Z</time></trkpt><trkpt lat="43.49755972603341" lon="10.580336412757276"><ele>354.1428571428571</ele><time>2026-04-19T08:03:40Z</time></trkpt><trkpt lat="43.49756261127344" lon="10.580239582420973"><ele>353.42857142857144</ele><time>2026-04-19T08:03:43Z</time></trkpt><trkpt lat="43.49756930777841" lon="10.580141364861863"><ele>352.7142857142857</ele><time>2026-04-19T08:03:47Z</time></trkpt><trkpt lat="43.49758504684919" lon="10.58005588240296"><ele>352.0</ele><time>2026-04-19T08:03:50Z</time></trkpt><trkpt lat="43.49760943510874" lon="10.579975612027257"><ele>351.0</ele><time>2026-04-19T08:03:53Z</time></trkpt><trkpt lat="43.49763824340334" lon="10.579892693576289"><ele>350.0</ele><time>2026-04-19T08:03:56Z</time></trkpt><trkpt lat="43.49767880773128" lon="10.579789807391291"><ele>349.0</ele><time>2026-04-19T08:03:59Z</time></trkpt><trkpt lat="43.49771767520923" lon="10.579717271984215"><ele>348.0</ele><time>2026-04-19T08:04:02Z</time></trkpt><trkpt lat="43.49775526017929" lon="10.579635411649834"><ele>347.0</ele><time>2026-04-19T08:04:05Z</time></trkpt><trkpt lat="43.497798338781195" lon="10.57955001139637"><ele>346.0</ele><time>2026-04-19T08:04:09Z</time></trkpt><trkpt lat="43.49784239422805" lon="10.579485432187518"><ele>345.0</ele><time>2026-04-19T08:04:12Z</time></trkpt><trkpt lat="43.49789018890354" lon="10.579407121126508"><ele>345.0</ele><time>2026-04-19T08:04:16Z</time></trkpt><trkpt lat="43.497926586360954" lon="10.579333764238607"><ele>345.0</ele><time>2026-04-19T08:04:19Z</time></trkpt><trkpt lat="43.49797767993636" lon="10.579249074820975"><ele>345.0</ele><time>2026-04-19T08:04:22Z</time></trkpt><trkpt lat="43.49802909118598" lon="10.579166711055171"><ele>345.0</ele><time>2026-04-19T08:04:27Z</time></trkpt><trkpt lat="43.49805718780611" lon="10.579086236063935"><ele>345.0</ele><time>2026-04-19T08:04:31Z</time></trkpt><trkpt lat="43.49811788971248" lon="10.579005842109451"><ele>345.0</ele><time>2026-04-19T08:04:34Z</time></trkpt><trkpt lat="43.49819252110905" lon="10.578929865093798"><ele>345.0</ele><time>2026-04-19T08:04:37Z</time></trkpt><trkpt lat="43.498260841813654" lon="10.578859433501098"><ele>345.0</ele><time>2026-04-19T08:04:40Z</time></trkpt><trkpt lat="43.49828411625305" lon="10.57876390727892"><ele>345.0</ele><time>2026-04-19T08:04:44Z</time></trkpt><trkpt lat="43.498317696730396" lon="10.578674977997604"><ele>345.0</ele><time>2026-04-19T08:04:47Z</time></trkpt><trkpt lat="43.49835128558356" lon="10.578598231070309"><ele>345.0</ele><time>2026-04-19T08:04:49Z</time></trkpt><trkpt lat="43.498370762672415" lon="10.578492033911395"><ele>345.0</ele><time>2026-04-19T08:04:52Z</time></trkpt><trkpt lat="43.498378994947466" lon="10.578390037339597"><ele>342.6666666666667</ele><time>2026-04-19T08:04:55Z</time></trkpt><trkpt lat="43.498396484858276" lon="10.578292818797907"><ele>340.3333333333333</ele><time>2026-04-19T08:04:58Z</time></trkpt><trkpt lat="43.49845890929705" lon="10.578214020610272"><ele>338.0</ele><time>2026-04-19T08:05:02Z</time></trkpt><trkpt lat="43.49850175265687" lon="10.578136201979676"><ele>335.66666666666663</ele><time>2026-04-19T08:05:05Z</time></trkpt><trkpt lat="43.49850342478583" lon="10.578012041411025"><ele>333.3333333333333</ele><time>2026-04-19T08:05:08Z</time></trkpt><trkpt lat="43.49851003731645" lon="10.577897018125135"><ele>331.0</ele><time>2026-04-19T08:05:10Z</time></trkpt><trkpt lat="43.498512608023724" lon="10.577792889528622"><ele>328.8333333333333</ele><time>2026-04-19T08:05:12Z</time></trkpt><trkpt lat="43.49850808870878" lon="10.577691550421134"><ele>326.66666666666663</ele><time>2026-04-19T08:05:14Z</time></trkpt><trkpt lat="43.498492540257836" lon="10.577596863454774"><ele>324.5</ele><time>2026-04-19T08:05:17Z</time></trkpt><trkpt lat="43.4984619690361" lon="10.577487106990265"><ele>322.3333333333333</ele><time>2026-04-19T08:05:20Z</time></trkpt><trkpt lat="43.49844073148442" lon="10.5773786370661"><ele>320.1666666666667</ele><time>2026-04-19T08:05:24Z</time></trkpt><trkpt lat="43.49842887274164" lon="10.577266806795446"><ele>318.0</ele><time>2026-04-19T08:05:27Z</time></trkpt><trkpt lat="43.49844736812524" lon="10.577156944887651"><ele>318.0</ele><time>2026-04-19T08:05:30Z</time></trkpt><trkpt lat="43.498422376708476" lon="10.577051096598963"><ele>318.0</ele><time>2026-04-19T08:05:33Z</time></trkpt><trkpt lat="43.49840472803393" lon="10.576948894526659"><ele>318.0</ele><time>2026-04-19T08:05:35Z</time></trkpt><trkpt lat="43.49838658076948" lon="10.576823874747392"><ele>318.0</ele><time>2026-04-19T08:05:37Z</time></trkpt><trkpt lat="43.49836390105805" lon="10.576679929115999"><ele>318.0</ele><time>2026-04-19T08:05:39Z</time></trkpt><trkpt lat="43.49834381582158" lon="10.57654483627978"><ele>316.6666666666667</ele><time>2026-04-19T08:05:41Z</time></trkpt><trkpt lat="43.49832914038212" lon="10.576412560435026"><ele>315.3333333333333</ele><time>2026-04-19T08:05:43Z</time></trkpt><trkpt lat="43.498324013796335" lon="10.57629235321135"><ele>314.0</ele><time>2026-04-19T08:05:45Z</time></trkpt><trkpt lat="43.49831627167446" lon="10.576182082410169"><ele>312.66666666666663</ele><time>2026-04-19T08:05:47Z</time></trkpt><trkpt lat="43.49831329030359" lon="10.576073637769687"><ele>311.3333333333333</ele><time>2026-04-19T08:05:49Z</time></trkpt><trkpt lat="43.498324594134445" lon="10.575981844729247"><ele>310.0</ele><time>2026-04-19T08:05:51Z</time></trkpt><trkpt lat="43.49833843842127" lon="10.575883838986655"><ele>309.66666666666663</ele><time>2026-04-19T08:05:53Z</time></trkpt><trkpt lat="43.49834363081378" lon="10.575781371828645"><ele>309.3333333333333</ele><time>2026-04-19T08:05:55Z</time></trkpt><trkpt lat="43.49833642423688" lon="10.575681322507917"><ele>309.0</ele><time>2026-04-19T08:05:57Z</time></trkpt><trkpt lat="43.498359830597515" lon="10.575571922592832"><ele>308.6666666666667</ele><time>2026-04-19T08:06:00Z</time></trkpt><trkpt lat="43.49840156738408" lon="10.575432977448832"><ele>308.33333333333337</ele><time>2026-04-19T08:06:03Z</time></trkpt><trkpt lat="43.49841704519279" lon="10.575326735375091"><ele>308.0</ele><time>2026-04-19T08:06:05Z</time></trkpt><trkpt lat="43.49844080820424" lon="10.57523423829058"><ele>307.83333333333337</ele><time>2026-04-19T08:06:07Z</time></trkpt><trkpt lat="43.49847009588781" lon="10.575145840846956"><ele>307.6666666666667</ele><time>2026-04-19T08:06:09Z</time></trkpt><trkpt lat="43.49851713208646" lon="10.5750553863517"><ele>307.5</ele><time>2026-04-19T08:06:11Z</time></trkpt><trkpt lat="43.49857084793338" lon="10.574953472973785"><ele>307.3333333333333</ele><time>2026-04-19T08:06:14Z</time></trkpt><trkpt lat="43.49862541732789" lon="10.574844758263142"><ele>307.16666666666663</ele><time>2026-04-19T08:06:17Z</time></trkpt><trkpt lat="43.498675136594095" lon="10.574758321636287"><ele>307.0</ele><time>2026-04-19T08:06:19Z</time></trkpt><trkpt lat="43.498730512797515" lon="10.574682004359946"><ele>306.57142857142856</ele><time>2026-04-19T08:06:21Z</time></trkpt><trkpt lat="43.498778090817524" lon="10.574612516406143"><ele>306.1428571428571</ele><time>2026-04-19T08:06:23Z</time></trkpt><trkpt lat="43.498827408761976" lon="10.574554958054582"><ele>305.71428571428567</ele><time>2026-04-19T08:06:26Z</time></trkpt><trkpt lat="43.49888836100391" lon="10.57448749715987"><ele>305.2857142857143</ele><time>2026-04-19T08:06:30Z</time></trkpt><trkpt lat="43.49892487190823" lon="10.57440327464388"><ele>304.8571428571429</ele><time>2026-04-19T08:06:33Z</time></trkpt><trkpt lat="43.49896543100772" lon="10.574330289142635"><ele>304.4285714285714</ele><time>2026-04-19T08:06:36Z</time></trkpt><trkpt lat="43.49900300825058" lon="10.574234073274793"><ele>304.0</ele><time>2026-04-19T08:06:39Z</time></trkpt><trkpt lat="43.499048398680685" lon="10.574132019326198"><ele>304.0</ele><time>2026-04-19T08:06:42Z</time></trkpt><trkpt lat="43.49908774249534" lon="10.574037278629692"><ele>304.0</ele><time>2026-04-19T08:06:45Z</time></trkpt><trkpt lat="43.49913588313123" lon="10.573950761193814"><ele>304.0</ele><time>2026-04-19T08:06:48Z</time></trkpt><trkpt lat="43.49918659594687" lon="10.573885219789739"><ele>304.0</ele><time>2026-04-19T08:06:50Z</time></trkpt><trkpt lat="43.49923287464754" lon="10.57379994138297"><ele>304.0</ele><time>2026-04-19T08:06:53Z</time></trkpt><trkpt lat="43.49925263618716" lon="10.57370063245125"><ele>304.0</ele><time>2026-04-19T08:06:56Z</time></trkpt><trkpt lat="43.499256830192934" lon="10.57360520045248"><ele>304.0</ele><time>2026-04-19T08:06:59Z</time></trkpt><trkpt lat="43.49926016588844" lon="10.573494231881163"><ele>302.85714285714283</ele><time>2026-04-19T08:07:02Z</time></trkpt><trkpt lat="43.49926568942078" lon="10.573394716898415"><ele>301.7142857142857</ele><time>2026-04-19T08:07:04Z</time></trkpt><trkpt lat="43.499250902780865" lon="10.573303458007747"><ele>300.57142857142856</ele><time>2026-04-19T08:07:06Z</time></trkpt><trkpt lat="43.49921121231846" lon="10.573223081520423"><ele>299.42857142857144</ele><time>2026-04-19T08:07:09Z</time></trkpt><trkpt lat="43.49917512143205" lon="10.573143518321393"><ele>298.2857142857143</ele><time>2026-04-19T08:07:12Z</time></trkpt><trkpt lat="43.49914330417811" lon="10.573050744410827"><ele>297.14285714285717</ele><time>2026-04-19T08:07:15Z</time></trkpt><trkpt lat="43.499125128396926" lon="10.572940886811093"><ele>296.0</ele><time>2026-04-19T08:07:18Z</time></trkpt><trkpt lat="43.49911299282167" lon="10.572847004281437"><ele>293.0</ele><time>2026-04-19T08:07:20Z</time></trkpt><trkpt lat="43.49910085267359" lon="10.5727576241711"><ele>290.0</ele><time>2026-04-19T08:07:22Z</time></trkpt><trkpt lat="43.499072517547134" lon="10.572640883272554"><ele>287.0</ele><time>2026-04-19T08:07:25Z</time></trkpt><trkpt lat="43.499048752789776" lon="10.572558667962689"><ele>284.0</ele><time>2026-04-19T08:07:27Z</time></trkpt><trkpt lat="43.499047467721795" lon="10.572433674922427"><ele>281.0</ele><time>2026-04-19T08:07:30Z</time></trkpt><trkpt lat="43.49904958564962" lon="10.572320794693848"><ele>278.0</ele><time>2026-04-19T08:07:34Z</time></trkpt><trkpt lat="43.49904967802261" lon="10.572200795333018"><ele>278.0</ele><time>2026-04-19T08:07:37Z</time></trkpt><trkpt lat="43.49903298796597" lon="10.57210495337668"><ele>278.0</ele><time>2026-04-19T08:07:39Z</time></trkpt><trkpt lat="43.49900836931653" lon="10.57199678768353"><ele>278.0</ele><time>2026-04-19T08:07:43Z</time></trkpt><trkpt lat="43.49900149200769" lon="10.571880530686798"><ele>278.0</ele><time>2026-04-19T08:07:47Z</time></trkpt><trkpt lat="43.498971455903" lon="10.571770987907398"><ele>278.0</ele><time>2026-04-19T08:07:50Z</time></trkpt><trkpt lat="43.498982797434614" lon="10.571663585137243"><ele>278.0</ele><time>2026-04-19T08:07:54Z</time></trkpt><trkpt lat="43.498995336106326" lon="10.571545427672987"><ele>276.6666666666667</ele><time>2026-04-19T08:10:52Z</time></trkpt><trkpt lat="43.49901532575836" lon="10.57144727927219"><ele>275.33333333333337</ele><time>2026-04-19T08:10:54Z</time></trkpt><trkpt lat="43.49902407906565" lon="10.57135740645173"><ele>274.0</ele><time>2026-04-19T08:10:56Z</time></trkpt><trkpt lat="43.49901814747291" lon="10.571250925799445"><ele>272.6666666666667</ele><time>2026-04-19T08:10:58Z</time></trkpt><trkpt lat="43.49898594840039" lon="10.57113002961593"><ele>271.3333333333333</ele><time>2026-04-19T08:11:00Z</time></trkpt><trkpt lat="43.49897557181408" lon="10.570986934854218"><ele>270.0</ele><time>2026-04-19T08:11:02Z</time></trkpt><trkpt lat="43.498996271238596" lon="10.570824604401551"><ele>270.0</ele><time>2026-04-19T08:11:04Z</time></trkpt><trkpt lat="43.49901341132422" lon="10.570689029625466"><ele>270.0</ele><time>2026-04-19T08:11:06Z</time></trkpt><trkpt lat="43.49902648719681" lon="10.570575597306224"><ele>270.0</ele><time>2026-04-19T08:11:08Z</time></trkpt><trkpt lat="43.499038487488846" lon="10.570468504661822"><ele>270.0</ele><time>2026-04-19T08:11:10Z</time></trkpt><trkpt lat="43.49899479156767" lon="10.57035248073596"><ele>270.0</ele><time>2026-04-19T08:11:12Z</time></trkpt><trkpt lat="43.498931504620245" lon="10.570350591918498"><ele>270.0</ele><time>2026-04-19T08:11:14Z</time></trkpt><trkpt lat="43.49887042668792" lon="10.570443368335434"><ele>270.0</ele><time>2026-04-19T08:11:17Z</time></trkpt><trkpt lat="43.49880756676019" lon="10.57043493346333"><ele>270.0</ele><time>2026-04-19T08:11:22Z</time></trkpt><trkpt lat="43.49880131490416" lon="10.570324883486439"><ele>270.0</ele><time>2026-04-19T08:11:25Z</time></trkpt><trkpt lat="43.49883010289355" lon="10.570216235587736"><ele>270.0</ele><time>2026-04-19T08:11:27Z</time></trkpt><trkpt lat="43.49886202793633" lon="10.570097217307957"><ele>270.0</ele><time>2026-04-19T08:11:29Z</time></trkpt><trkpt lat="43.498886422001696" lon="10.570014545710679"><ele>270.0</ele><time>2026-04-19T08:11:30Z</time></trkpt><trkpt lat="43.498911388879364" lon="10.56992768900074"><ele>268.6</ele><time>2026-04-19T08:11:31Z</time></trkpt><trkpt lat="43.49893784547612" lon="10.569782453144002"><ele>267.2</ele><time>2026-04-19T08:11:33Z</time></trkpt><trkpt lat="43.498965631478086" lon="10.569623432845862"><ele>265.8</ele><time>2026-04-19T08:11:35Z</time></trkpt><trkpt lat="43.499012091378674" lon="10.569496913977398"><ele>264.4</ele><time>2026-04-19T08:11:37Z</time></trkpt><trkpt lat="43.49908149133256" lon="10.569428157596011"><ele>263.0</ele><time>2026-04-19T08:11:39Z</time></trkpt><trkpt lat="43.499149322959056" lon="10.569412876675548"><ele>260.1666666666667</ele><time>2026-04-19T08:11:41Z</time></trkpt><trkpt lat="43.49921477362765" lon="10.569341715524128"><ele>257.33333333333337</ele><time>2026-04-19T08:11:44Z</time></trkpt><trkpt lat="43.49917360278372" lon="10.5692527341621"><ele>254.5</ele><time>2026-04-19T08:11:46Z</time></trkpt><trkpt lat="43.49910103896437" lon="10.569234047703542"><ele>251.66666666666669</ele><time>2026-04-19T08:11:48Z</time></trkpt><trkpt lat="43.49901848720693" lon="10.569217571976017"><ele>248.83333333333334</ele><time>2026-04-19T08:11:50Z</time></trkpt><trkpt lat="43.498941894896404" lon="10.56924319763852"><ele>246.0</ele><time>2026-04-19T08:11:52Z</time></trkpt><trkpt lat="43.49886369202515" lon="10.569299168110296"><ele>246.0</ele><time>2026-04-19T08:11:54Z</time></trkpt><trkpt lat="43.498793873430984" lon="10.569260943178259"><ele>246.0</ele><time>2026-04-19T08:11:56Z</time></trkpt><trkpt lat="43.498809498605816" lon="10.56911975949363"><ele>246.0</ele><time>2026-04-19T08:11:58Z</time></trkpt><trkpt lat="43.498876963434334" lon="10.569063076436692"><ele>246.0</ele><time>2026-04-19T08:12:00Z</time></trkpt><trkpt lat="43.49885079060487" lon="10.56897354336536"><ele>246.0</ele><time>2026-04-19T08:12:03Z</time></trkpt><trkpt lat="43.49876961936659" lon="10.568993327607208"><ele>246.0</ele><time>2026-04-19T08:12:06Z</time></trkpt><trkpt lat="43.498698594408765" lon="10.569102123074058"><ele>242.83333333333334</ele><time>2026-04-19T08:12:08Z</time></trkpt><trkpt lat="43.49863199327207" lon="10.569212709222763"><ele>239.66666666666669</ele><time>2026-04-19T08:12:10Z</time></trkpt><trkpt lat="43.498580692372144" lon="10.569318526233152"><ele>236.5</ele><time>2026-04-19T08:12:12Z</time></trkpt><trkpt lat="43.498546971748716" lon="10.569403176265602"><ele>233.33333333333334</ele><time>2026-04-19T08:12:14Z</time></trkpt><trkpt lat="43.498480393581886" lon="10.569430336459147"><ele>230.16666666666669</ele><time>2026-04-19T08:12:26Z</time></trkpt><trkpt lat="43.498479644934875" lon="10.569322116613513"><ele>227.0</ele><time>2026-04-19T08:12:30Z</time></trkpt><trkpt lat="43.49853009128823" lon="10.56923387716022"><ele>227.00000000000003</ele><time>2026-04-19T08:12:32Z</time></trkpt><trkpt lat="43.4985877456346" lon="10.56910172460244"><ele>227.0</ele><time>2026-04-19T08:12:34Z</time></trkpt><trkpt lat="43.49861785152338" lon="10.569023872441214"><ele>227.0</ele><time>2026-04-19T08:12:35Z</time></trkpt><trkpt lat="43.498653023641786" lon="10.568939198727014"><ele>227.0</ele><time>2026-04-19T08:12:36Z</time></trkpt><trkpt lat="43.498702436079405" lon="10.568849717002184"><ele>227.00000000000003</ele><time>2026-04-19T08:12:37Z</time></trkpt><trkpt lat="43.49876209918131" lon="10.568773705347459"><ele>227.0</ele><time>2026-04-19T08:12:38Z</time></trkpt><trkpt lat="43.49882958731007" lon="10.568712182718723"><ele>226.66666666666669</ele><time>2026-04-19T08:12:39Z</time></trkpt><trkpt lat="43.49889757978475" lon="10.568663681038732"><ele>226.33333333333334</ele><time>2026-04-19T08:12:40Z</time></trkpt><trkpt lat="43.49896672897781" lon="10.56862311733028"><ele>226.0</ele><time>2026-04-19T08:12:41Z</time></trkpt><trkpt lat="43.499031522279026" lon="10.568589975124834"><ele>225.66666666666669</ele><time>2026-04-19T08:12:42Z</time></trkpt><trkpt lat="43.49912921710323" lon="10.568524906213865"><ele>225.33333333333334</ele><time>2026-04-19T08:12:44Z</time></trkpt><trkpt lat="43.499196098981905" lon="10.56843554137939"><ele>225.0</ele><time>2026-04-19T08:12:46Z</time></trkpt><trkpt lat="43.499268325843516" lon="10.5683325725776"><ele>225.0</ele><time>2026-04-19T08:12:48Z</time></trkpt><trkpt lat="43.49933789611819" lon="10.568244567199471"><ele>225.0</ele><time>2026-04-19T08:12:50Z</time></trkpt><trkpt lat="43.49940020386459" lon="10.568165865164652"><ele>225.0</ele><time>2026-04-19T08:12:52Z</time></trkpt><trkpt lat="43.49944956894554" lon="10.568095699762381"><ele>225.0</ele><time>2026-04-19T08:12:54Z</time></trkpt><trkpt lat="43.49948122540072" lon="10.568004787141932"><ele>225.0</ele><time>2026-04-19T08:12:56Z</time></trkpt><trkpt lat="43.499522639083516" lon="10.567898392674383"><ele>225.0</ele><time>2026-04-19T08:12:58Z</time></trkpt><trkpt lat="43.499568219582954" lon="10.567801772620887"><ele>221.0</ele><time>2026-04-19T08:13:00Z</time></trkpt><trkpt lat="43.49960529711572" lon="10.567728925437388"><ele>217.0</ele><time>2026-04-19T08:13:02Z</time></trkpt><trkpt lat="43.499649145773716" lon="10.56763633525632"><ele>213.0</ele><time>2026-04-19T08:13:04Z</time></trkpt><trkpt lat="43.49969637530148" lon="10.567513611997676"><ele>209.0</ele><time>2026-04-19T08:13:06Z</time></trkpt><trkpt lat="43.49975491466118" lon="10.567391478669098"><ele>205.0</ele><time>2026-04-19T08:13:08Z</time></trkpt><trkpt lat="43.4998214186497" lon="10.567279483762281"><ele>205.0</ele><time>2026-04-19T08:13:10Z</time></trkpt><trkpt lat="43.499878755094834" lon="10.567147364007065"><ele>205.0</ele><time>2026-04-19T08:13:12Z</time></trkpt><trkpt lat="43.49994896402366" lon="10.56703736542262"><ele>205.0</ele><time>2026-04-19T08:13:14Z</time></trkpt><trkpt lat="43.500037972650304" lon="10.566971790136288"><ele>205.0</ele><time>2026-04-19T08:13:16Z</time></trkpt><trkpt lat="43.500127298024715" lon="10.566905988733401"><ele>205.0</ele><time>2026-04-19T08:13:18Z</time></trkpt><trkpt lat="43.50021402362738" lon="10.566820385175042"><ele>202.49999999999997</ele><time>2026-04-19T08:13:20Z</time></trkpt><trkpt lat="43.50027887072538" lon="10.566746830072914"><ele>200.0</ele><time>2026-04-19T08:13:22Z</time></trkpt><trkpt lat="43.500344686024135" lon="10.566662848073866"><ele>197.5</ele><time>2026-04-19T08:13:24Z</time></trkpt><trkpt lat="43.500382425047746" lon="10.566563217387406"><ele>195.0</ele><time>2026-04-19T08:13:26Z</time></trkpt><trkpt lat="43.50039582206416" lon="10.566461242321093"><ele>192.5</ele><time>2026-04-19T08:13:28Z</time></trkpt><trkpt lat="43.50045299561706" lon="10.566408229082871"><ele>190.0</ele><time>2026-04-19T08:13:30Z</time></trkpt><trkpt lat="43.50051649964802" lon="10.566461024317784"><ele>190.16666666666669</ele><time>2026-04-19T08:13:33Z</time></trkpt><trkpt lat="43.50054905600889" lon="10.566565481351162"><ele>190.33333333333334</ele><time>2026-04-19T08:13:36Z</time></trkpt><trkpt lat="43.50058687746307" lon="10.566675661760364"><ele>190.5</ele><time>2026-04-19T08:13:38Z</time></trkpt><trkpt lat="43.500592271375616" lon="10.566799495450741"><ele>190.66666666666666</ele><time>2026-04-19T08:13:40Z</time></trkpt><trkpt lat="43.500559323646854" lon="10.566897847389495"><ele>190.83333333333331</ele><time>2026-04-19T08:13:46Z</time></trkpt><trkpt lat="43.50053742587344" lon="10.566995530925531"><ele>191.0</ele><time>2026-04-19T08:13:55Z</time></trkpt><trkpt lat="43.50058244716277" lon="10.567068510171316"><ele>191.0</ele><time>2026-04-19T08:13:58Z</time></trkpt><trkpt lat="43.500648725988924" lon="10.567036348462423"><ele>191.0</ele><time>2026-04-19T08:14:00Z</time></trkpt><trkpt lat="43.50069726265047" lon="10.566958801569267"><ele>191.0</ele><time>2026-04-19T08:14:02Z</time></trkpt><trkpt lat="43.500756540051796" lon="10.566880502882368"><ele>191.0</ele><time>2026-04-19T08:14:04Z</time></trkpt><trkpt lat="43.50082768632134" lon="10.56677043733403"><ele>191.0</ele><time>2026-04-19T08:14:06Z</time></trkpt><trkpt lat="43.50088501148757" lon="10.566653204260387"><ele>191.0</ele><time>2026-04-19T08:14:08Z</time></trkpt><trkpt lat="43.50090908660021" lon="10.56656887299185"><ele>189.42857142857144</ele><time>2026-04-19T08:14:10Z</time></trkpt><trkpt lat="43.500890183508304" lon="10.566473451087015"><ele>187.85714285714283</ele><time>2026-04-19T08:14:13Z</time></trkpt><trkpt lat="43.50086295267267" lon="10.566389841668583"><ele>186.28571428571428</ele><time>2026-04-19T08:14:16Z</time></trkpt><trkpt lat="43.50082947825354" lon="10.566311123136058"><ele>184.71428571428572</ele><time>2026-04-19T08:14:18Z</time></trkpt><trkpt lat="43.50080563359125" lon="10.56622705175543"><ele>183.14285714285717</ele><time>2026-04-19T08:14:21Z</time></trkpt><trkpt lat="43.50079209244768" lon="10.566137381384735"><ele>181.57142857142856</ele><time>2026-04-19T08:14:24Z</time></trkpt><trkpt lat="43.50078786676628" lon="10.566050288865698"><ele>180.0</ele><time>2026-04-19T08:14:28Z</time></trkpt><trkpt lat="43.50077160940036" lon="10.565926294191781"><ele>178.66666666666666</ele><time>2026-04-19T08:14:32Z</time></trkpt><trkpt lat="43.50074095981073" lon="10.565844166821586"><ele>177.33333333333334</ele><time>2026-04-19T08:14:34Z</time></trkpt><trkpt lat="43.500696290844125" lon="10.5657705645529"><ele>176.0</ele><time>2026-04-19T08:14:36Z</time></trkpt><trkpt lat="43.5006491702288" lon="10.565703878865337"><ele>174.66666666666669</ele><time>2026-04-19T08:14:38Z</time></trkpt><trkpt lat="43.500573010224265" lon="10.565620233276546"><ele>173.33333333333334</ele><time>2026-04-19T08:14:41Z</time></trkpt><trkpt lat="43.5004982772841" lon="10.565609233014621"><ele>172.0</ele><time>2026-04-19T08:14:43Z</time></trkpt><trkpt lat="43.50041077487579" lon="10.565611611705778"><ele>172.0</ele><time>2026-04-19T08:14:45Z</time></trkpt><trkpt lat="43.50031193417832" lon="10.56561840604135"><ele>172.0</ele><time>2026-04-19T08:14:47Z</time></trkpt><trkpt lat="43.500239461777625" lon="10.565595057106018"><ele>172.0</ele><time>2026-04-19T08:14:49Z</time></trkpt><trkpt lat="43.50020593243242" lon="10.565520780680936"><ele>172.0</ele><time>2026-04-19T08:14:51Z</time></trkpt><trkpt lat="43.50019764882691" lon="10.565412619176845"><ele>172.0</ele><time>2026-04-19T08:14:53Z</time></trkpt><trkpt lat="43.500200602183185" lon="10.565280896453713"><ele>172.0</ele><time>2026-04-19T08:14:55Z</time></trkpt><trkpt lat="43.50021515763035" lon="10.565183250915606"><ele>172.0</ele><time>2026-04-19T08:14:57Z</time></trkpt><trkpt lat="43.5002787314491" lon="10.565146596860837"><ele>172.0</ele><time>2026-04-19T08:14:59Z</time></trkpt><trkpt lat="43.50034069662844" lon="10.565115457168774"><ele>172.0</ele><time>2026-04-19T08:15:01Z</time></trkpt><trkpt lat="43.50039838766715" lon="10.565020893555962"><ele>172.0</ele><time>2026-04-19T08:15:04Z</time></trkpt><trkpt lat="43.50039695988048" lon="10.564929148174128"><ele>172.0</ele><time>2026-04-19T08:15:06Z</time></trkpt><trkpt lat="43.50033861723251" lon="10.564832679474561"><ele>172.0</ele><time>2026-04-19T08:15:09Z</time></trkpt><trkpt lat="43.500275136651645" lon="10.564800829636152"><ele>172.0</ele><time>2026-04-19T08:15:11Z</time></trkpt><trkpt lat="43.50021105280687" lon="10.56477490676968"><ele>172.0</ele><time>2026-04-19T08:15:13Z</time></trkpt><trkpt lat="43.50014795957754" lon="10.564754160903579"><ele>172.0</ele><time>2026-04-19T08:15:22Z</time></trkpt><trkpt lat="43.50007888861535" lon="10.564724798014021"><ele>172.0</ele><time>2026-04-19T08:15:25Z</time></trkpt><trkpt lat="43.500005665876486" lon="10.564676244933143"><ele>172.0</ele><time>2026-04-19T08:15:40Z</time></trkpt><trkpt lat="43.4999273227679" lon="10.564622671484393"><ele>172.0</ele><time>2026-04-19T08:15:43Z</time></trkpt><trkpt lat="43.49985142977998" lon="10.564563292318839"><ele>172.2857142857143</ele><time>2026-04-19T08:15:46Z</time></trkpt><trkpt lat="43.49979577989496" lon="10.564516183810523"><ele>172.57142857142858</ele><time>2026-04-19T08:15:48Z</time></trkpt><trkpt lat="43.49973560696233" lon="10.564463564352465"><ele>172.85714285714286</ele><time>2026-04-19T08:15:50Z</time></trkpt><trkpt lat="43.49968015837923" lon="10.564386955202126"><ele>173.14285714285717</ele><time>2026-04-19T08:15:52Z</time></trkpt><trkpt lat="43.49966483337393" lon="10.564279459778637"><ele>173.42857142857144</ele><time>2026-04-19T08:15:54Z</time></trkpt><trkpt lat="43.49970368558935" lon="10.564192206224776"><ele>173.71428571428572</ele><time>2026-04-19T08:15:56Z</time></trkpt><trkpt lat="43.49977932274109" lon="10.564182871021185"><ele>174.0</ele><time>2026-04-19T08:15:58Z</time></trkpt><trkpt lat="43.499864798482726" lon="10.564194801241134"><ele>174.0</ele><time>2026-04-19T08:16:00Z</time></trkpt><trkpt lat="43.499928210992394" lon="10.564123708112064"><ele>174.0</ele><time>2026-04-19T08:16:02Z</time></trkpt><trkpt lat="43.499935047458685" lon="10.564001111921902"><ele>174.0</ele><time>2026-04-19T08:16:04Z</time></trkpt><trkpt lat="43.4999239655789" lon="10.563845978933827"><ele>174.0</ele><time>2026-04-19T08:16:06Z</time></trkpt><trkpt lat="43.49994149333395" lon="10.563675078115907"><ele>174.0</ele><time>2026-04-19T08:16:08Z</time></trkpt><trkpt lat="43.49996466866043" lon="10.563585195835246"><ele>174.5</ele><time>2026-04-19T08:16:09Z</time></trkpt><trkpt lat="43.49998858017533" lon="10.563492922978826"><ele>175.0</ele><time>2026-04-19T08:16:10Z</time></trkpt><trkpt lat="43.50001578089859" lon="10.5634024645879"><ele>175.5</ele><time>2026-04-19T08:16:11Z</time></trkpt><trkpt lat="43.5000402705215" lon="10.563308538525344"><ele>176.0</ele><time>2026-04-19T08:16:12Z</time></trkpt><trkpt lat="43.500055128677324" lon="10.563210861265253"><ele>176.5</ele><time>2026-04-19T08:16:13Z</time></trkpt><trkpt lat="43.50005272608943" lon="10.563055321584265"><ele>177.0</ele><time>2026-04-19T08:16:15Z</time></trkpt><trkpt lat="43.50005102598431" lon="10.562918932289628"><ele>177.8</ele><time>2026-04-19T08:16:17Z</time></trkpt><trkpt lat="43.50008495380642" lon="10.56278716729736"><ele>178.6</ele><time>2026-04-19T08:16:19Z</time></trkpt><trkpt lat="43.500167739143464" lon="10.56266676124396"><ele>179.4</ele><time>2026-04-19T08:16:21Z</time></trkpt><trkpt lat="43.500213822074535" lon="10.56260521381221"><ele>180.20000000000002</ele><time>2026-04-19T08:16:22Z</time></trkpt><trkpt lat="43.5002963669353" lon="10.562487356632758"><ele>181.0</ele><time>2026-04-19T08:16:24Z</time></trkpt><trkpt lat="43.50038887977447" lon="10.562376618667356"><ele>178.0</ele><time>2026-04-19T08:16:26Z</time></trkpt><trkpt lat="43.5004472339457" lon="10.562334369614305"><ele>175.0</ele><time>2026-04-19T08:16:27Z</time></trkpt><trkpt lat="43.50050540206966" lon="10.56229065508162"><ele>172.0</ele><time>2026-04-19T08:16:28Z</time></trkpt><trkpt lat="43.50055294229931" lon="10.56222508216087"><ele>169.0</ele><time>2026-04-19T08:16:29Z</time></trkpt><trkpt lat="43.500612808489436" lon="10.562145477850356"><ele>166.0</ele><time>2026-04-19T08:16:30Z</time></trkpt><trkpt lat="43.50060031237449" lon="10.56204067803902"><ele>163.0</ele><time>2026-04-19T08:16:31Z</time></trkpt><trkpt lat="43.500610385606976" lon="10.561949747256941"><ele>160.0</ele><time>2026-04-19T08:16:32Z</time></trkpt><trkpt lat="43.500636642585164" lon="10.561794766003514"><ele>159.71428571428572</ele><time>2026-04-19T08:16:34Z</time></trkpt><trkpt lat="43.50065551643204" lon="10.561703440938105"><ele>159.42857142857144</ele><time>2026-04-19T08:16:35Z</time></trkpt><trkpt lat="43.50067312761468" lon="10.561607102641815"><ele>159.14285714285717</ele><time>2026-04-19T08:16:36Z</time></trkpt><trkpt lat="43.50068361471155" lon="10.561502511792792"><ele>158.85714285714286</ele><time>2026-04-19T08:16:37Z</time></trkpt><trkpt lat="43.500691783060525" lon="10.561398334554942"><ele>158.57142857142858</ele><time>2026-04-19T08:16:38Z</time></trkpt><trkpt lat="43.50069762870149" lon="10.561302855688673"><ele>158.2857142857143</ele><time>2026-04-19T08:16:39Z</time></trkpt><trkpt lat="43.500703491965474" lon="10.561207089021584"><ele>158.0</ele><time>2026-04-19T08:16:40Z</time></trkpt><trkpt lat="43.50071057430655" lon="10.561113369885016"><ele>157.42857142857144</ele><time>2026-04-19T08:16:41Z</time></trkpt><trkpt lat="43.50071950017866" lon="10.561015860126398"><ele>156.85714285714286</ele><time>2026-04-19T08:16:42Z</time></trkpt><trkpt lat="43.50072908165835" lon="10.560920720966124"><ele>156.28571428571428</ele><time>2026-04-19T08:16:43Z</time></trkpt><trkpt lat="43.500739332090106" lon="10.560818939454277"><ele>155.71428571428572</ele><time>2026-04-19T08:16:44Z</time></trkpt><trkpt lat="43.50074967232815" lon="10.560721528142631"><ele>155.14285714285714</ele><time>2026-04-19T08:16:45Z</time></trkpt><trkpt lat="43.50074248542176" lon="10.560624204417865"><ele>154.57142857142858</ele><time>2026-04-19T08:16:46Z</time></trkpt><trkpt lat="43.5007743624251" lon="10.560527536608092"><ele>154.0</ele><time>2026-04-19T08:16:47Z</time></trkpt><trkpt lat="43.500793414796576" lon="10.560417476640472"><ele>153.83333333333334</ele><time>2026-04-19T08:16:48Z</time></trkpt><trkpt lat="43.50081908159981" lon="10.560300476616108"><ele>153.66666666666669</ele><time>2026-04-19T08:16:49Z</time></trkpt><trkpt lat="43.50085188238084" lon="10.560185496798795"><ele>153.5</ele><time>2026-04-19T08:16:50Z</time></trkpt><trkpt lat="43.50087106209741" lon="10.560063298059234"><ele>153.33333333333334</ele><time>2026-04-19T08:16:51Z</time></trkpt><trkpt lat="43.50088519506433" lon="10.559947026026425"><ele>153.16666666666666</ele><time>2026-04-19T08:16:52Z</time></trkpt><trkpt lat="43.500899611858486" lon="10.559832589867973"><ele>153.0</ele><time>2026-04-19T08:16:52.999Z</time></trkpt><trkpt lat="43.50091059977896" lon="10.559733036423557"><ele>153.0</ele><time>2026-04-19T08:16:53.999Z</time></trkpt><trkpt lat="43.500921091823265" lon="10.559601132727291"><ele>153.0</ele><time>2026-04-19T08:16:55.999Z</time></trkpt><trkpt lat="43.50093430684065" lon="10.559453710687704"><ele>153.0</ele><time>2026-04-19T08:16:57.999Z</time></trkpt><trkpt lat="43.500939248608404" lon="10.559363344186472"><ele>153.0</ele><time>2026-04-19T08:16:58.999Z</time></trkpt><trkpt lat="43.500948264857094" lon="10.559271092998904"><ele>153.0</ele><time>2026-04-19T08:16:59.999Z</time></trkpt><trkpt lat="43.500955827671234" lon="10.55917892013056"><ele>153.0</ele><time>2026-04-19T08:17:00.999Z</time></trkpt><trkpt lat="43.50096963623464" lon="10.559024941656622"><ele>151.16666666666666</ele><time>2026-04-19T08:17:02.999Z</time></trkpt><trkpt lat="43.500977297791515" lon="10.558904817348385"><ele>149.33333333333334</ele><time>2026-04-19T08:17:05Z</time></trkpt><trkpt lat="43.500982611554974" lon="10.558801414623025"><ele>147.5</ele><time>2026-04-19T08:17:07Z</time></trkpt><trkpt lat="43.50095011541518" lon="10.558687514912885"><ele>145.66666666666669</ele><time>2026-04-19T08:17:12Z</time></trkpt><trkpt lat="43.50089287424604" lon="10.558607509529763"><ele>143.83333333333334</ele><time>2026-04-19T08:17:17Z</time></trkpt><trkpt lat="43.50083723367549" lon="10.558516299228408"><ele>142.0</ele><time>2026-04-19T08:17:19Z</time></trkpt><trkpt lat="43.50075340233208" lon="10.558510292413512"><ele>141.2</ele><time>2026-04-19T08:17:20Z</time></trkpt><trkpt lat="43.500630347511986" lon="10.558511868021123"><ele>140.39999999999998</ele><time>2026-04-19T08:17:22Z</time></trkpt><trkpt lat="43.500550474816" lon="10.558515304533852"><ele>139.60000000000002</ele><time>2026-04-19T08:17:23Z</time></trkpt><trkpt lat="43.500453830370546" lon="10.558479074128542"><ele>138.8</ele><time>2026-04-19T08:17:24Z</time></trkpt><trkpt lat="43.50034428098369" lon="10.558445813529499"><ele>138.0</ele><time>2026-04-19T08:17:25Z</time></trkpt><trkpt lat="43.5002424340879" lon="10.558412383304312"><ele>138.0</ele><time>2026-04-19T08:17:26Z</time></trkpt><trkpt lat="43.50015195026508" lon="10.558377223260175"><ele>138.0</ele><time>2026-04-19T08:17:27Z</time></trkpt><trkpt lat="43.50006877576388" lon="10.558339277027205"><ele>138.0</ele><time>2026-04-19T08:17:28Z</time></trkpt><trkpt lat="43.49998514764128" lon="10.558296557937505"><ele>138.0</ele><time>2026-04-19T08:17:29Z</time></trkpt><trkpt lat="43.49990026276425" lon="10.558253395351059"><ele>138.0</ele><time>2026-04-19T08:17:30Z</time></trkpt><trkpt lat="43.49981005212458" lon="10.558212093775497"><ele>138.0</ele><time>2026-04-19T08:17:31Z</time></trkpt><trkpt lat="43.499721576325975" lon="10.55818096843182"><ele>138.0</ele><time>2026-04-19T08:17:32Z</time></trkpt><trkpt lat="43.49963228647559" lon="10.558160773142667"><ele>138.0</ele><time>2026-04-19T08:17:33Z</time></trkpt><trkpt lat="43.499542655994624" lon="10.558147091843534"><ele>138.0</ele><time>2026-04-19T08:17:34Z</time></trkpt><trkpt lat="43.49944582395248" lon="10.558141251686273"><ele>138.0</ele><time>2026-04-19T08:17:35Z</time></trkpt><trkpt lat="43.49934603169323" lon="10.558142257825018"><ele>139.4</ele><time>2026-04-19T08:17:36Z</time></trkpt><trkpt lat="43.49924494621306" lon="10.558151650681916"><ele>140.8</ele><time>2026-04-19T08:17:37Z</time></trkpt><trkpt lat="43.49914196721182" lon="10.558161009815288"><ele>142.2</ele><time>2026-04-19T08:17:38Z</time></trkpt><trkpt lat="43.49904520814041" lon="10.558171706506798"><ele>143.6</ele><time>2026-04-19T08:17:39Z</time></trkpt><trkpt lat="43.498954272298846" lon="10.558175438927769"><ele>145.0</ele><time>2026-04-19T08:17:40Z</time></trkpt><trkpt lat="43.49886614575827" lon="10.558162814260157"><ele>145.0</ele><time>2026-04-19T08:17:41Z</time></trkpt><trkpt lat="43.49877453704023" lon="10.55812946193111"><ele>145.0</ele><time>2026-04-19T08:17:42Z</time></trkpt><trkpt lat="43.49868602272388" lon="10.558072842872544"><ele>145.0</ele><time>2026-04-19T08:17:43Z</time></trkpt><trkpt lat="43.4986006004152" lon="10.558007879295419"><ele>145.0</ele><time>2026-04-19T08:17:44Z</time></trkpt><trkpt lat="43.49851628691498" lon="10.557943476226127"><ele>145.0</ele><time>2026-04-19T08:17:45Z</time></trkpt><trkpt lat="43.4984267748212" lon="10.557894228882837"><ele>142.6</ele><time>2026-04-19T08:17:46Z</time></trkpt><trkpt lat="43.498335605962104" lon="10.557836705153134"><ele>140.2</ele><time>2026-04-19T08:17:47Z</time></trkpt><trkpt lat="43.49823558814614" lon="10.557815324475909"><ele>137.8</ele><time>2026-04-19T08:17:48Z</time></trkpt><trkpt lat="43.498132339553784" lon="10.557807425593332"><ele>135.4</ele><time>2026-04-19T08:17:49Z</time></trkpt><trkpt lat="43.498027947926225" lon="10.557810232909112"><ele>133.0</ele><time>2026-04-19T08:17:50Z</time></trkpt><trkpt lat="43.49792509253255" lon="10.557846897888044"><ele>133.25</ele><time>2026-04-19T08:17:51Z</time></trkpt><trkpt lat="43.4978084164815" lon="10.557842324558436"><ele>133.5</ele><time>2026-04-19T08:17:52Z</time></trkpt><trkpt lat="43.497688450793355" lon="10.557860843780622"><ele>133.75</ele><time>2026-04-19T08:17:53Z</time></trkpt><trkpt lat="43.49756865415699" lon="10.557880783516124"><ele>134.0</ele><time>2026-04-19T08:17:54Z</time></trkpt><trkpt lat="43.49745351898582" lon="10.557906302588512"><ele>136.8</ele><time>2026-04-19T08:17:55Z</time></trkpt><trkpt lat="43.49734714524703" lon="10.557944655961109"><ele>139.60000000000002</ele><time>2026-04-19T08:17:56Z</time></trkpt><trkpt lat="43.497247940394494" lon="10.55800942540721"><ele>142.4</ele><time>2026-04-19T08:17:57Z</time></trkpt><trkpt lat="43.497155847277945" lon="10.55807326895344"><ele>145.20000000000002</ele><time>2026-04-19T08:17:58Z</time></trkpt><trkpt lat="43.49706543780396" lon="10.55814569002198"><ele>148.0</ele><time>2026-04-19T08:17:59Z</time></trkpt><trkpt lat="43.49695063823275" lon="10.55817640159021"><ele>148.0</ele><time>2026-04-19T08:18:00Z</time></trkpt><trkpt lat="43.49683504596878" lon="10.558192966190848"><ele>148.0</ele><time>2026-04-19T08:18:01Z</time></trkpt><trkpt lat="43.49671727193095" lon="10.558208898593344"><ele>148.0</ele><time>2026-04-19T08:18:02Z</time></trkpt><trkpt lat="43.49659759148718" lon="10.558241330418523"><ele>148.0</ele><time>2026-04-19T08:18:03Z</time></trkpt><trkpt lat="43.496480790330814" lon="10.55829548648353"><ele>148.0</ele><time>2026-04-19T08:18:04Z</time></trkpt><trkpt lat="43.4963691142434" lon="10.558372979100708"><ele>148.0</ele><time>2026-04-19T08:18:05Z</time></trkpt><trkpt lat="43.49626505938488" lon="10.558474192393772"><ele>148.0</ele><time>2026-04-19T08:18:06Z</time></trkpt><trkpt lat="43.496171407108875" lon="10.558584830781177"><ele>148.0</ele><time>2026-04-19T08:18:07Z</time></trkpt><trkpt lat="43.49608149939784" lon="10.558699409356038"><ele>150.75</ele><time>2026-04-19T08:18:08Z</time></trkpt><trkpt lat="43.49599363705846" lon="10.55881247394782"><ele>153.5</ele><time>2026-04-19T08:18:09Z</time></trkpt><trkpt lat="43.49590038016137" lon="10.558913686050605"><ele>156.25</ele><time>2026-04-19T08:18:10Z</time></trkpt><trkpt lat="43.495799970269786" lon="10.558992317749194"><ele>159.0</ele><time>2026-04-19T08:18:11Z</time></trkpt><trkpt lat="43.49569450039319" lon="10.559046575280984"><ele>159.0</ele><time>2026-04-19T08:18:12Z</time></trkpt><trkpt lat="43.49558700010159" lon="10.55907265015367"><ele>159.0</ele><time>2026-04-19T08:18:13Z</time></trkpt><trkpt lat="43.495480135166474" lon="10.559071147420847"><ele>159.0</ele><time>2026-04-19T08:18:14Z</time></trkpt><trkpt lat="43.49537072323136" lon="10.559043673758865"><ele>159.0</ele><time>2026-04-19T08:18:15Z</time></trkpt><trkpt lat="43.49526153783314" lon="10.559008204801355"><ele>159.0</ele><time>2026-04-19T08:18:16Z</time></trkpt><trkpt lat="43.495153186947206" lon="10.558979948657642"><ele>158.6</ele><time>2026-04-19T08:18:17Z</time></trkpt><trkpt lat="43.49504299506544" lon="10.558973885362057"><ele>158.2</ele><time>2026-04-19T08:18:18Z</time></trkpt><trkpt lat="43.49493235907203" lon="10.558996889464325"><ele>157.79999999999998</ele><time>2026-04-19T08:18:19Z</time></trkpt><trkpt lat="43.4948253833008" lon="10.559039548660861"><ele>157.4</ele><time>2026-04-19T08:18:20Z</time></trkpt><trkpt lat="43.494724913604784" lon="10.55906516110876"><ele>157.0</ele><time>2026-04-19T08:18:21Z</time></trkpt><trkpt lat="43.49463356720796" lon="10.559108638420613"><ele>157.2</ele><time>2026-04-19T08:18:22Z</time></trkpt><trkpt lat="43.49454170422602" lon="10.559167679188327"><ele>157.39999999999998</ele><time>2026-04-19T08:18:23Z</time></trkpt><trkpt lat="43.494438869130285" lon="10.55918839455712"><ele>157.60000000000002</ele><time>2026-04-19T08:18:24Z</time></trkpt><trkpt lat="43.49433110061556" lon="10.559190358675341"><ele>157.8</ele><time>2026-04-19T08:18:25Z</time></trkpt><trkpt lat="43.49422111402053" lon="10.55917327819908"><ele>158.0</ele><time>2026-04-19T08:18:26Z</time></trkpt><trkpt lat="43.49411627505751" lon="10.559138703366036"><ele>158.0</ele><time>2026-04-19T08:18:27Z</time></trkpt><trkpt lat="43.494014164821664" lon="10.559090166140196"><ele>158.0</ele><time>2026-04-19T08:18:28Z</time></trkpt><trkpt lat="43.49391600569393" lon="10.559038643475969"><ele>158.0</ele><time>2026-04-19T08:18:29Z</time></trkpt><trkpt lat="43.493814887814835" lon="10.558986053530901"><ele>158.0</ele><time>2026-04-19T08:18:30Z</time></trkpt><trkpt lat="43.49370884552306" lon="10.558939470960812"><ele>158.0</ele><time>2026-04-19T08:18:31Z</time></trkpt><trkpt lat="43.49359717541372" lon="10.55891540903173"><ele>158.4</ele><time>2026-04-19T08:18:32Z</time></trkpt><trkpt lat="43.49348497496964" lon="10.558920327930194"><ele>158.8</ele><time>2026-04-19T08:18:33Z</time></trkpt><trkpt lat="43.493375509628486" lon="10.558946355251027"><ele>159.2</ele><time>2026-04-19T08:18:34Z</time></trkpt><trkpt lat="43.493266092061326" lon="10.558973628032572"><ele>159.6</ele><time>2026-04-19T08:18:35Z</time></trkpt><trkpt lat="43.49315561591839" lon="10.558981226934655"><ele>160.0</ele><time>2026-04-19T08:18:36Z</time></trkpt><trkpt lat="43.49304260975668" lon="10.558973675405742"><ele>160.0</ele><time>2026-04-19T08:18:37Z</time></trkpt><trkpt lat="43.492929677338765" lon="10.55896359076577"><ele>160.0</ele><time>2026-04-19T08:18:38Z</time></trkpt><trkpt lat="43.49281947909911" lon="10.558963071386327"><ele>160.0</ele><time>2026-04-19T08:18:39Z</time></trkpt><trkpt lat="43.492712205002995" lon="10.558979045919802"><ele>160.0</ele><time>2026-04-19T08:18:40Z</time></trkpt><trkpt lat="43.49260863219362" lon="10.55902292084416"><ele>160.0</ele><time>2026-04-19T08:18:41Z</time></trkpt><trkpt lat="43.492512962932686" lon="10.559093604892883"><ele>159.8</ele><time>2026-04-19T08:18:42Z</time></trkpt><trkpt lat="43.492431549842244" lon="10.559187061487812"><ele>159.6</ele><time>2026-04-19T08:18:43Z</time></trkpt><trkpt lat="43.49235612809332" lon="10.55927580823178"><ele>159.4</ele><time>2026-04-19T08:18:44Z</time></trkpt><trkpt lat="43.49231236400077" lon="10.559391068160291"><ele>159.2</ele><time>2026-04-19T08:18:45Z</time></trkpt><trkpt lat="43.492261776067004" lon="10.55948944410718"><ele>159.0</ele><time>2026-04-19T08:18:46Z</time></trkpt><trkpt lat="43.49220262430696" lon="10.559590272106794"><ele>159.0</ele><time>2026-04-19T08:18:47Z</time></trkpt><trkpt lat="43.49214484272638" lon="10.559704525238061"><ele>159.0</ele><time>2026-04-19T08:18:48Z</time></trkpt><trkpt lat="43.49208454029947" lon="10.55982348375037"><ele>159.0</ele><time>2026-04-19T08:18:49Z</time></trkpt><trkpt lat="43.492019487950536" lon="10.55994581463913"><ele>159.0</ele><time>2026-04-19T08:18:50Z</time></trkpt><trkpt lat="43.49194487685094" lon="10.560061761334536"><ele>159.0</ele><time>2026-04-19T08:18:51Z</time></trkpt><trkpt lat="43.491858429156544" lon="10.560161319585715"><ele>159.0</ele><time>2026-04-19T08:18:52Z</time></trkpt><trkpt lat="43.49176336905772" lon="10.560243111982116"><ele>159.0</ele><time>2026-04-19T08:18:53Z</time></trkpt><trkpt lat="43.49166098612077" lon="10.560306764219687"><ele>159.0</ele><time>2026-04-19T08:18:54Z</time></trkpt><trkpt lat="43.4915560466376" lon="10.560362650042338"><ele>159.0</ele><time>2026-04-19T08:18:55Z</time></trkpt><trkpt lat="43.491448178520045" lon="10.56042361794696"><ele>159.75</ele><time>2026-04-19T08:18:56Z</time></trkpt><trkpt lat="43.4913411951878" lon="10.56049014325076"><ele>160.5</ele><time>2026-04-19T08:18:57Z</time></trkpt><trkpt lat="43.49123760333674" lon="10.560561498321137"><ele>161.25</ele><time>2026-04-19T08:18:58Z</time></trkpt><trkpt lat="43.49114561491297" lon="10.56064889620722"><ele>162.0</ele><time>2026-04-19T08:18:59Z</time></trkpt><trkpt lat="43.491067063425945" lon="10.56075517785813"><ele>162.0</ele><time>2026-04-19T08:19:00Z</time></trkpt><trkpt lat="43.49099879862864" lon="10.560878214593354"><ele>162.0</ele><time>2026-04-19T08:19:01Z</time></trkpt><trkpt lat="43.490936408968594" lon="10.561006437584252"><ele>162.0</ele><time>2026-04-19T08:19:02Z</time></trkpt><trkpt lat="43.49087954607017" lon="10.561134935346951"><ele>162.0</ele><time>2026-04-19T08:19:03Z</time></trkpt><trkpt lat="43.49082144582164" lon="10.561255776754678"><ele>162.0</ele><time>2026-04-19T08:19:04Z</time></trkpt><trkpt lat="43.490756312430776" lon="10.561354920958378"><ele>164.2</ele><time>2026-04-19T08:19:05Z</time></trkpt><trkpt lat="43.490675969549805" lon="10.561425082366865"><ele>166.39999999999998</ele><time>2026-04-19T08:19:06Z</time></trkpt><trkpt lat="43.490583482739616" lon="10.561473820281572"><ele>168.60000000000002</ele><time>2026-04-19T08:19:07Z</time></trkpt><trkpt lat="43.49048156860954" lon="10.561508724969816"><ele>170.8</ele><time>2026-04-19T08:19:08Z</time></trkpt><trkpt lat="43.490372621060324" lon="10.561527008878647"><ele>173.0</ele><time>2026-04-19T08:19:09Z</time></trkpt><trkpt lat="43.49026052882765" lon="10.56153250215868"><ele>173.0</ele><time>2026-04-19T08:19:10Z</time></trkpt><trkpt lat="43.49014835936482" lon="10.561562345952462"><ele>173.0</ele><time>2026-04-19T08:19:11Z</time></trkpt><trkpt lat="43.49004063800329" lon="10.56162149734225"><ele>173.0</ele><time>2026-04-19T08:19:12Z</time></trkpt><trkpt lat="43.48994194561916" lon="10.561709948186014"><ele>173.0</ele><time>2026-04-19T08:19:13Z</time></trkpt><trkpt lat="43.48986011926455" lon="10.561823104619636"><ele>173.0</ele><time>2026-04-19T08:19:14Z</time></trkpt><trkpt lat="43.489795900596604" lon="10.561941875188783"><ele>173.0</ele><time>2026-04-19T08:19:15Z</time></trkpt><trkpt lat="43.48973873426191" lon="10.562053997644828"><ele>173.0</ele><time>2026-04-19T08:19:16Z</time></trkpt><trkpt lat="43.48968213756536" lon="10.562155886967144"><ele>173.0</ele><time>2026-04-19T08:19:17Z</time></trkpt><trkpt lat="43.489619098052984" lon="10.562237890999755"><ele>173.0</ele><time>2026-04-19T08:19:18Z</time></trkpt><trkpt lat="43.48954606353598" lon="10.562283665284394"><ele>173.0</ele><time>2026-04-19T08:19:19Z</time></trkpt><trkpt lat="43.489470037261206" lon="10.562290914319984"><ele>173.0</ele><time>2026-04-19T08:19:20Z</time></trkpt><trkpt lat="43.489388170585485" lon="10.562260363724189"><ele>173.0</ele><time>2026-04-19T08:19:21Z</time></trkpt><trkpt lat="43.48932774707549" lon="10.562179797626724"><ele>173.0</ele><time>2026-04-19T08:19:22Z</time></trkpt><trkpt lat="43.48927610444463" lon="10.562081206409363"><ele>173.0</ele><time>2026-04-19T08:19:23Z</time></trkpt><trkpt lat="43.48922942594482" lon="10.561980434904761"><ele>173.0</ele><time>2026-04-19T08:19:24Z</time></trkpt><trkpt lat="43.489183147860935" lon="10.561876867799215"><ele>173.0</ele><time>2026-04-19T08:19:25Z</time></trkpt><trkpt lat="43.48913897350517" lon="10.56176979071679"><ele>173.0</ele><time>2026-04-19T08:19:26Z</time></trkpt><trkpt lat="43.489091278855845" lon="10.561664651881099"><ele>173.0</ele><time>2026-04-19T08:19:27Z</time></trkpt><trkpt lat="43.48902343560447" lon="10.561578071330718"><ele>173.0</ele><time>2026-04-19T08:19:28Z</time></trkpt><trkpt lat="43.48895128985707" lon="10.561496252284007"><ele>173.0</ele><time>2026-04-19T08:19:29Z</time></trkpt><trkpt lat="43.488854854965574" lon="10.561490616202594"><ele>173.0</ele><time>2026-04-19T08:19:30Z</time></trkpt><trkpt lat="43.48876311535066" lon="10.561497718108237"><ele>173.0</ele><time>2026-04-19T08:19:31Z</time></trkpt><trkpt lat="43.48867286722464" lon="10.561539533303852"><ele>173.0</ele><time>2026-04-19T08:19:32Z</time></trkpt><trkpt lat="43.48858597265219" lon="10.561603708320037"><ele>173.0</ele><time>2026-04-19T08:19:33Z</time></trkpt><trkpt lat="43.488496142278414" lon="10.561676667668847"><ele>173.0</ele><time>2026-04-19T08:19:34Z</time></trkpt><trkpt lat="43.488404385876066" lon="10.561752758858098"><ele>172.75</ele><time>2026-04-19T08:19:35Z</time></trkpt><trkpt lat="43.48831121904386" lon="10.5618394491901"><ele>172.5</ele><time>2026-04-19T08:19:36Z</time></trkpt><trkpt lat="43.4882184639196" lon="10.561939324003086"><ele>172.25</ele><time>2026-04-19T08:19:37Z</time></trkpt><trkpt lat="43.48812247072764" lon="10.562043873569896"><ele>172.0</ele><time>2026-04-19T08:19:38Z</time></trkpt><trkpt lat="43.48802496128004" lon="10.562152481602984"><ele>173.0</ele><time>2026-04-19T08:19:39Z</time></trkpt><trkpt lat="43.48793528653819" lon="10.562269613237058"><ele>174.0</ele><time>2026-04-19T08:19:40Z</time></trkpt><trkpt lat="43.487853833890206" lon="10.56239266646585"><ele>175.0</ele><time>2026-04-19T08:19:41Z</time></trkpt><trkpt lat="43.487774621941284" lon="10.562516870563533"><ele>176.0</ele><time>2026-04-19T08:19:42Z</time></trkpt><trkpt lat="43.4876996886919" lon="10.562646118825993"><ele>175.4</ele><time>2026-04-19T08:19:43Z</time></trkpt><trkpt lat="43.4876124331178" lon="10.562765083676119"><ele>174.8</ele><time>2026-04-19T08:19:44Z</time></trkpt><trkpt lat="43.48755516764063" lon="10.562910125587601"><ele>174.20000000000002</ele><time>2026-04-19T08:19:45Z</time></trkpt><trkpt lat="43.48749430363766" lon="10.563028199971914"><ele>173.60000000000002</ele><time>2026-04-19T08:19:46Z</time></trkpt><trkpt lat="43.487447866187594" lon="10.563124260427863"><ele>173.0</ele><time>2026-04-19T08:19:47Z</time></trkpt><trkpt lat="43.48739998870737" lon="10.563199894922452"><ele>173.0</ele><time>2026-04-19T08:19:48Z</time></trkpt><trkpt lat="43.487338230220196" lon="10.563255548369337"><ele>173.0</ele><time>2026-04-19T08:19:49Z</time></trkpt><trkpt lat="43.48725604189824" lon="10.563281933820742"><ele>173.0</ele><time>2026-04-19T08:19:50Z</time></trkpt><trkpt lat="43.487161931078525" lon="10.563279766167936"><ele>173.0</ele><time>2026-04-19T08:19:51Z</time></trkpt><trkpt lat="43.48705968441608" lon="10.563273698192058"><ele>173.0</ele><time>2026-04-19T08:19:52Z</time></trkpt><trkpt lat="43.486954351310374" lon="10.563273368829039"><ele>174.33333333333331</ele><time>2026-04-19T08:19:53Z</time></trkpt><trkpt lat="43.48685387053292" lon="10.56327739531273"><ele>175.66666666666666</ele><time>2026-04-19T08:19:54Z</time></trkpt><trkpt lat="43.48676540593062" lon="10.563272419906626"><ele>177.0</ele><time>2026-04-19T08:19:55Z</time></trkpt><trkpt lat="43.48669873213555" lon="10.563240760214878"><ele>178.33333333333334</ele><time>2026-04-19T08:19:56Z</time></trkpt><trkpt lat="43.486647425158985" lon="10.563171452131543"><ele>179.66666666666669</ele><time>2026-04-19T08:19:57Z</time></trkpt><trkpt lat="43.486644375132975" lon="10.563049638052153"><ele>181.0</ele><time>2026-04-19T08:19:58Z</time></trkpt><trkpt lat="43.486623550293956" lon="10.562938911772662"><ele>178.8</ele><time>2026-04-19T08:19:59Z</time></trkpt><trkpt lat="43.48661637310825" lon="10.562826875440539"><ele>176.60000000000002</ele><time>2026-04-19T08:20:00Z</time></trkpt><trkpt lat="43.486596695926856" lon="10.562695142449805"><ele>174.4</ele><time>2026-04-19T08:20:01Z</time></trkpt><trkpt lat="43.4865658424246" lon="10.562562419662079"><ele>172.2</ele><time>2026-04-19T08:20:02Z</time></trkpt><trkpt lat="43.48648204254693" lon="10.562458782974005"><ele>170.0</ele><time>2026-04-19T08:20:03Z</time></trkpt><trkpt lat="43.48640164927981" lon="10.562374902892792"><ele>170.0</ele><time>2026-04-19T08:20:04Z</time></trkpt><trkpt lat="43.48631743455457" lon="10.562311997931857"><ele>170.0</ele><time>2026-04-19T08:20:05Z</time></trkpt><trkpt lat="43.48624063799635" lon="10.562253839177963"><ele>170.0</ele><time>2026-04-19T08:20:06Z</time></trkpt><trkpt lat="43.48617070368225" lon="10.562199352744464"><ele>170.0</ele><time>2026-04-19T08:20:07Z</time></trkpt><trkpt lat="43.48610023471663" lon="10.562141080301316"><ele>170.0</ele><time>2026-04-19T08:20:08Z</time></trkpt><trkpt lat="43.48603064399335" lon="10.562078418451776"><ele>170.0</ele><time>2026-04-19T08:20:09Z</time></trkpt><trkpt lat="43.485965407294806" lon="10.562003154850311"><ele>170.0</ele><time>2026-04-19T08:20:10Z</time></trkpt><trkpt lat="43.48589028345872" lon="10.56195483424471"><ele>170.0</ele><time>2026-04-19T08:20:11Z</time></trkpt><trkpt lat="43.48581972130688" lon="10.56190522497177"><ele>170.0</ele><time>2026-04-19T08:20:12Z</time></trkpt><trkpt lat="43.48582632236684" lon="10.561652687190719"><ele>170.0</ele><time>2026-04-19T08:20:13Z</time></trkpt><trkpt lat="43.48578989163817" lon="10.561504084452595"><ele>170.0</ele><time>2026-04-19T08:20:14Z</time></trkpt><trkpt lat="43.485748850138165" lon="10.56134454673098"><ele>170.0</ele><time>2026-04-19T08:20:15Z</time></trkpt><trkpt lat="43.48570083520922" lon="10.561179324952986"><ele>170.0</ele><time>2026-04-19T08:20:16Z</time></trkpt><trkpt lat="43.485647458853" lon="10.561012911763635"><ele>170.0</ele><time>2026-04-19T08:20:17Z</time></trkpt><trkpt lat="43.485592652908615" lon="10.560839000339744"><ele>169.0</ele><time>2026-04-19T08:20:18Z</time></trkpt><trkpt lat="43.48553864671435" lon="10.560667877737966"><ele>168.0</ele><time>2026-04-19T08:20:19Z</time></trkpt><trkpt lat="43.48548977211133" lon="10.560501696254523"><ele>167.0</ele><time>2026-04-19T08:20:20Z</time></trkpt><trkpt lat="43.485440919332795" lon="10.560332680492808"><ele>166.0</ele><time>2026-04-19T08:20:21Z</time></trkpt><trkpt lat="43.48539662834395" lon="10.560150060461348"><ele>165.5</ele><time>2026-04-19T08:20:22Z</time></trkpt><trkpt lat="43.48534767579443" lon="10.559962000564896"><ele>165.0</ele><time>2026-04-19T08:20:23Z</time></trkpt><trkpt lat="43.485295041167426" lon="10.559773609919036"><ele>164.5</ele><time>2026-04-19T08:20:24Z</time></trkpt><trkpt lat="43.48523869225278" lon="10.55958750141741"><ele>164.0</ele><time>2026-04-19T08:20:25Z</time></trkpt><trkpt lat="43.48518360774026" lon="10.559408503183327"><ele>165.25</ele><time>2026-04-19T08:20:26Z</time></trkpt><trkpt lat="43.48513335587569" lon="10.559231549983835"><ele>166.5</ele><time>2026-04-19T08:20:27Z</time></trkpt><trkpt lat="43.48508002671913" lon="10.559047306255072"><ele>167.75</ele><time>2026-04-19T08:20:28Z</time></trkpt><trkpt lat="43.48502204204794" lon="10.558855115304256"><ele>169.0</ele><time>2026-04-19T08:20:29Z</time></trkpt><trkpt lat="43.48496504085446" lon="10.558660212336886"><ele>169.0</ele><time>2026-04-19T08:20:30Z</time></trkpt><trkpt lat="43.48491267728828" lon="10.55847033662836"><ele>169.0</ele><time>2026-04-19T08:20:31Z</time></trkpt><trkpt lat="43.48486030902635" lon="10.558288663689481"><ele>169.0</ele><time>2026-04-19T08:20:32Z</time></trkpt><trkpt lat="43.48480723149388" lon="10.558113252830713"><ele>169.0</ele><time>2026-04-19T08:20:33Z</time></trkpt><trkpt lat="43.48475511309504" lon="10.55794014720247"><ele>169.5</ele><time>2026-04-19T08:20:34Z</time></trkpt><trkpt lat="43.48470074283129" lon="10.557768274894663"><ele>170.0</ele><time>2026-04-19T08:20:35Z</time></trkpt><trkpt lat="43.48464683896254" lon="10.55759093259429"><ele>170.5</ele><time>2026-04-19T08:20:36Z</time></trkpt><trkpt lat="43.484593652616184" lon="10.55740954332818"><ele>171.0</ele><time>2026-04-19T08:20:37Z</time></trkpt><trkpt lat="43.484541265725746" lon="10.557228774948694"><ele>171.0</ele><time>2026-04-19T08:20:38Z</time></trkpt><trkpt lat="43.484489798797476" lon="10.557051821173342"><ele>171.0</ele><time>2026-04-19T08:20:39Z</time></trkpt><trkpt lat="43.48444064269322" lon="10.556878926102568"><ele>171.0</ele><time>2026-04-19T08:20:40Z</time></trkpt><trkpt lat="43.4843903415137" lon="10.556710150587248"><ele>171.0</ele><time>2026-04-19T08:20:41Z</time></trkpt><trkpt lat="43.48434062582529" lon="10.556539502230606"><ele>170.5</ele><time>2026-04-19T08:20:42Z</time></trkpt><trkpt lat="43.484288007471015" lon="10.556366856910739"><ele>170.0</ele><time>2026-04-19T08:20:43Z</time></trkpt><trkpt lat="43.48423692357204" lon="10.55619071916158"><ele>169.5</ele><time>2026-04-19T08:20:44Z</time></trkpt><trkpt lat="43.48418295878331" lon="10.55601454177"><ele>169.0</ele><time>2026-04-19T08:20:45Z</time></trkpt><trkpt lat="43.48413030712542" lon="10.555839116548468"><ele>167.75</ele><time>2026-04-19T08:20:46Z</time></trkpt><trkpt lat="43.484078800960475" lon="10.555666279831271"><ele>166.5</ele><time>2026-04-19T08:20:47Z</time></trkpt><trkpt lat="43.48402806629802" lon="10.555492276016892"><ele>165.25</ele><time>2026-04-19T08:20:48Z</time></trkpt><trkpt lat="43.483978285395935" lon="10.555317512929914"><ele>164.0</ele><time>2026-04-19T08:20:49Z</time></trkpt><trkpt lat="43.483926536519945" lon="10.555141519327508"><ele>164.0</ele><time>2026-04-19T08:20:50Z</time></trkpt><trkpt lat="43.48387279450631" lon="10.55496108966266"><ele>164.0</ele><time>2026-04-19T08:20:51Z</time></trkpt><trkpt lat="43.48381737406921" lon="10.554778561283086"><ele>164.0</ele><time>2026-04-19T08:20:52Z</time></trkpt><trkpt lat="43.48376413813406" lon="10.55459780478168"><ele>164.0</ele><time>2026-04-19T08:20:53Z</time></trkpt><trkpt lat="43.483712196803346" lon="10.554417748719997"><ele>164.0</ele><time>2026-04-19T08:20:54Z</time></trkpt><trkpt lat="43.48365644912088" lon="10.554228961259833"><ele>164.0</ele><time>2026-04-19T08:20:55Z</time></trkpt><trkpt lat="43.48360061679081" lon="10.554032777162591"><ele>164.0</ele><time>2026-04-19T08:20:56Z</time></trkpt><trkpt lat="43.48354521860141" lon="10.553836868360593"><ele>162.25</ele><time>2026-04-19T08:20:57Z</time></trkpt><trkpt lat="43.48348997762383" lon="10.553643802778216"><ele>160.5</ele><time>2026-04-19T08:20:57.999Z</time></trkpt><trkpt lat="43.483433454085" lon="10.55345289716981"><ele>158.75</ele><time>2026-04-19T08:20:58.999Z</time></trkpt><trkpt lat="43.483377944985705" lon="10.553263171765824"><ele>157.0</ele><time>2026-04-19T08:20:59.999Z</time></trkpt><trkpt lat="43.48332097614348" lon="10.553075577799799"><ele>157.0</ele><time>2026-04-19T08:21:00.999Z</time></trkpt><trkpt lat="43.4832617618475" lon="10.552882831145574"><ele>157.0</ele><time>2026-04-19T08:21:01.999Z</time></trkpt><trkpt lat="43.4832048440553" lon="10.552692538966186"><ele>157.0</ele><time>2026-04-19T08:21:02.999Z</time></trkpt><trkpt lat="43.48314902317268" lon="10.552503695172168"><ele>157.0</ele><time>2026-04-19T08:21:03.999Z</time></trkpt><trkpt lat="43.48309407989642" lon="10.552315950952337"><ele>156.5</ele><time>2026-04-19T08:21:04.999Z</time></trkpt><trkpt lat="43.4830402077643" lon="10.552129322668614"><ele>156.0</ele><time>2026-04-19T08:21:06Z</time></trkpt><trkpt lat="43.4829847529416" lon="10.55193986335228"><ele>155.5</ele><time>2026-04-19T08:21:07Z</time></trkpt><trkpt lat="43.48292838813893" lon="10.55174973532613"><ele>155.0</ele><time>2026-04-19T08:21:08Z</time></trkpt><trkpt lat="43.48287150774287" lon="10.551557609700087"><ele>154.25</ele><time>2026-04-19T08:21:09Z</time></trkpt><trkpt lat="43.48281539601852" lon="10.551363774649058"><ele>153.5</ele><time>2026-04-19T08:21:10Z</time></trkpt><trkpt lat="43.482757817217895" lon="10.551173482097758"><ele>152.75</ele><time>2026-04-19T08:21:11Z</time></trkpt><trkpt lat="43.482700540279296" lon="10.550987144265084"><ele>152.0</ele><time>2026-04-19T08:21:12Z</time></trkpt><trkpt lat="43.48263907521234" lon="10.550804264226999"><ele>151.33333333333331</ele><time>2026-04-19T08:21:13Z</time></trkpt><trkpt lat="43.48256332939431" lon="10.550624359997183"><ele>150.66666666666666</ele><time>2026-04-19T08:21:14Z</time></trkpt><trkpt lat="43.48247270919022" lon="10.550454592856205"><ele>150.0</ele><time>2026-04-19T08:21:15Z</time></trkpt><trkpt lat="43.482371859208484" lon="10.550297570174253"><ele>149.75</ele><time>2026-04-19T08:21:16Z</time></trkpt><trkpt lat="43.48226339069631" lon="10.550156773619282"><ele>149.5</ele><time>2026-04-19T08:21:17Z</time></trkpt><trkpt lat="43.482152934629305" lon="10.55002380122907"><ele>149.25</ele><time>2026-04-19T08:21:18Z</time></trkpt><trkpt lat="43.482041083158656" lon="10.549895055107106"><ele>149.0</ele><time>2026-04-19T08:21:19Z</time></trkpt><trkpt lat="43.481926738045075" lon="10.549766753765505"><ele>147.0</ele><time>2026-04-19T08:21:20Z</time></trkpt><trkpt lat="43.48181153754101" lon="10.549636738594566"><ele>145.0</ele><time>2026-04-19T08:21:21Z</time></trkpt><trkpt lat="43.48169679929777" lon="10.549504003372885"><ele>143.0</ele><time>2026-04-19T08:21:22Z</time></trkpt><trkpt lat="43.48158173610877" lon="10.549369288857713"><ele>143.0</ele><time>2026-04-19T08:21:23Z</time></trkpt><trkpt lat="43.48146804855441" lon="10.549236438714594"><ele>143.0</ele><time>2026-04-19T08:21:24Z</time></trkpt><trkpt lat="43.481356168776514" lon="10.549106760928638"><ele>143.0</ele><time>2026-04-19T08:21:25Z</time></trkpt><trkpt lat="43.48124820426295" lon="10.548980837711563"><ele>143.0</ele><time>2026-04-19T08:21:26Z</time></trkpt><trkpt lat="43.481142065211394" lon="10.548861414475832"><ele>143.0</ele><time>2026-04-19T08:21:27Z</time></trkpt><trkpt lat="43.48103597844097" lon="10.548739031869289"><ele>143.0</ele><time>2026-04-19T08:21:28Z</time></trkpt><trkpt lat="43.48092734580339" lon="10.548615803494057"><ele>143.0</ele><time>2026-04-19T08:21:29Z</time></trkpt><trkpt lat="43.48081862316702" lon="10.548490609408509"><ele>143.0</ele><time>2026-04-19T08:21:30Z</time></trkpt><trkpt lat="43.48070833802037" lon="10.54836514425631"><ele>143.0</ele><time>2026-04-19T08:21:31Z</time></trkpt><trkpt lat="43.48059987600297" lon="10.548237065929534"><ele>143.0</ele><time>2026-04-19T08:21:32Z</time></trkpt><trkpt lat="43.48049467591089" lon="10.548112869654753"><ele>143.0</ele><time>2026-04-19T08:21:33Z</time></trkpt><trkpt lat="43.4803880146784" lon="10.547989629411468"><ele>143.0</ele><time>2026-04-19T08:21:34Z</time></trkpt><trkpt lat="43.48027919690579" lon="10.547864999713703"><ele>143.75</ele><time>2026-04-19T08:21:35Z</time></trkpt><trkpt lat="43.4801720336578" lon="10.547743042950701"><ele>144.5</ele><time>2026-04-19T08:21:36Z</time></trkpt><trkpt lat="43.48007144405095" lon="10.547625385399884"><ele>145.25</ele><time>2026-04-19T08:21:37Z</time></trkpt><trkpt lat="43.47997363537701" lon="10.547507134666267"><ele>146.0</ele><time>2026-04-19T08:21:38Z</time></trkpt><trkpt lat="43.479872757445406" lon="10.547378872842021"><ele>146.0</ele><time>2026-04-19T08:21:39Z</time></trkpt><trkpt lat="43.47977889813032" lon="10.547239152330596"><ele>146.0</ele><time>2026-04-19T08:21:40Z</time></trkpt><trkpt lat="43.47969150240047" lon="10.547087247628228"><ele>146.0</ele><time>2026-04-19T08:21:41Z</time></trkpt><trkpt lat="43.47961689836012" lon="10.546919599671126"><ele>146.0</ele><time>2026-04-19T08:21:42Z</time></trkpt><trkpt lat="43.47955753493956" lon="10.546740625534124"><ele>146.0</ele><time>2026-04-19T08:21:43Z</time></trkpt><trkpt lat="43.479512575448815" lon="10.546557017692887"><ele>146.0</ele><time>2026-04-19T08:21:44Z</time></trkpt><trkpt lat="43.47948115193153" lon="10.546370517343883"><ele>146.0</ele><time>2026-04-19T08:21:45Z</time></trkpt><trkpt lat="43.479464692230664" lon="10.54617973521168"><ele>146.0</ele><time>2026-04-19T08:21:46Z</time></trkpt><trkpt lat="43.479466564380644" lon="10.545985765077381"><ele>146.0</ele><time>2026-04-19T08:21:47Z</time></trkpt><trkpt lat="43.479489240952276" lon="10.54579565804161"><ele>146.0</ele><time>2026-04-19T08:21:48Z</time></trkpt><trkpt lat="43.47952808848147" lon="10.54561528677562"><ele>146.0</ele><time>2026-04-19T08:21:49Z</time></trkpt><trkpt lat="43.479582858022795" lon="10.54544667527095"><ele>146.0</ele><time>2026-04-19T08:21:50Z</time></trkpt><trkpt lat="43.479649597824135" lon="10.545288587241341"><ele>145.25</ele><time>2026-04-19T08:21:51Z</time></trkpt><trkpt lat="43.479725454124086" lon="10.545142219542283"><ele>144.5</ele><time>2026-04-19T08:21:52Z</time></trkpt><trkpt lat="43.47980574679337" lon="10.545010467206653"><ele>143.75</ele><time>2026-04-19T08:21:53Z</time></trkpt><trkpt lat="43.47987836072917" lon="10.544884488861365"><ele>143.0</ele><time>2026-04-19T08:21:54Z</time></trkpt><trkpt lat="43.479939604315476" lon="10.544782442853673"><ele>143.0</ele><time>2026-04-19T08:21:55Z</time></trkpt><trkpt lat="43.47999471629177" lon="10.544693445843102"><ele>143.0</ele><time>2026-04-19T08:21:56Z</time></trkpt><trkpt lat="43.48004506424506" lon="10.544613785646728"><ele>143.0</ele><time>2026-04-19T08:21:57Z</time></trkpt><trkpt lat="43.48008851923687" lon="10.544542437048577"><ele>143.0</ele><time>2026-04-19T08:21:58Z</time></trkpt><trkpt lat="43.48012990674492" lon="10.544472762059504"><ele>143.0</ele><time>2026-04-19T08:21:59Z</time></trkpt><trkpt lat="43.48020152636058" lon="10.544348110074813"><ele>143.0</ele><time>2026-04-19T08:22:01Z</time></trkpt><trkpt lat="43.48027139052223" lon="10.544256056751292"><ele>142.8</ele><time>2026-04-19T08:22:03Z</time></trkpt><trkpt lat="43.48018242743087" lon="10.5441360295706"><ele>142.60000000000002</ele><time>2026-04-19T08:22:04Z</time></trkpt><trkpt lat="43.48012957264097" lon="10.54400816882978"><ele>142.39999999999998</ele><time>2026-04-19T08:22:06Z</time></trkpt><trkpt lat="43.48006689109471" lon="10.543875612785582"><ele>142.2</ele><time>2026-04-19T08:22:08Z</time></trkpt><trkpt lat="43.48003713828739" lon="10.543794932265687"><ele>142.0</ele><time>2026-04-19T08:22:09Z</time></trkpt><trkpt lat="43.48000468745294" lon="10.54370519685179"><ele>141.66666666666669</ele><time>2026-04-19T08:22:10Z</time></trkpt><trkpt lat="43.47998522993753" lon="10.543604109881331"><ele>141.33333333333334</ele><time>2026-04-19T08:22:11Z</time></trkpt><trkpt lat="43.47992174370428" lon="10.543526238450257"><ele>141.0</ele><time>2026-04-19T08:22:12Z</time></trkpt><trkpt lat="43.479882058637834" lon="10.5434571982418"><ele>140.66666666666666</ele><time>2026-04-19T08:22:13Z</time></trkpt><trkpt lat="43.47985287792174" lon="10.543371914120085"><ele>140.33333333333331</ele><time>2026-04-19T08:22:15Z</time></trkpt><trkpt lat="43.47989367659946" lon="10.543445604456165"><ele>140.0</ele><time>2026-04-19T08:22:47Z</time></trkpt><trkpt lat="43.479943119031965" lon="10.543276229682602"><ele>140.0</ele><time>2026-04-19T08:22:57Z</time></trkpt><trkpt lat="43.479969843940395" lon="10.543188764847034"><ele>140.0</ele><time>2026-04-19T08:22:59Z</time></trkpt><trkpt lat="43.48000316621259" lon="10.543110666075808"><ele>140.0</ele><time>2026-04-19T08:23:01Z</time></trkpt><trkpt lat="43.48004394290318" lon="10.543042091443946"><ele>140.0</ele><time>2026-04-19T08:23:03Z</time></trkpt><trkpt lat="43.480096715747095" lon="10.542971366742993"><ele>140.0</ele><time>2026-04-19T08:23:05Z</time></trkpt><trkpt lat="43.48015503729417" lon="10.542904174768811"><ele>140.0</ele><time>2026-04-19T08:23:07Z</time></trkpt><trkpt lat="43.48021576197208" lon="10.542836493142728"><ele>140.0</ele><time>2026-04-19T08:23:09Z</time></trkpt><trkpt lat="43.480267051242905" lon="10.54277273842827"><ele>138.83333333333331</ele><time>2026-04-19T08:23:11Z</time></trkpt><trkpt lat="43.48031109999789" lon="10.54270886644761"><ele>137.66666666666666</ele><time>2026-04-19T08:23:13Z</time></trkpt><trkpt lat="43.48038234904673" lon="10.542626619736978"><ele>136.5</ele><time>2026-04-19T08:23:16Z</time></trkpt><trkpt lat="43.48043589347781" lon="10.542532492743105"><ele>135.33333333333334</ele><time>2026-04-19T08:23:19Z</time></trkpt><trkpt lat="43.48045341936043" lon="10.542444126524007"><ele>134.16666666666669</ele><time>2026-04-19T08:23:38Z</time></trkpt><trkpt lat="43.4804893687796" lon="10.542316302246839"><ele>133.0</ele><time>2026-04-19T08:23:40Z</time></trkpt><trkpt lat="43.48053540639038" lon="10.542131930140116"><ele>132.0</ele><time>2026-04-19T08:23:42Z</time></trkpt><trkpt lat="43.48056503627843" lon="10.542002197194309"><ele>131.0</ele><time>2026-04-19T08:23:43Z</time></trkpt><trkpt lat="43.48059895743248" lon="10.541849350625215"><ele>130.0</ele><time>2026-04-19T08:23:44Z</time></trkpt><trkpt lat="43.48063251404059" lon="10.541693205128917"><ele>129.0</ele><time>2026-04-19T08:23:45Z</time></trkpt><trkpt lat="43.4806659930228" lon="10.541530127205322"><ele>129.0</ele><time>2026-04-19T08:23:46Z</time></trkpt><trkpt lat="43.48070050744855" lon="10.541359809497953"><ele>129.0</ele><time>2026-04-19T08:23:47Z</time></trkpt><trkpt lat="43.48073484818831" lon="10.541178812160071"><ele>129.0</ele><time>2026-04-19T08:23:48Z</time></trkpt><trkpt lat="43.48076994474397" lon="10.541000915268413"><ele>129.0</ele><time>2026-04-19T08:23:49Z</time></trkpt><trkpt lat="43.4808078569967" lon="10.540817186666924"><ele>129.0</ele><time>2026-04-19T08:23:50Z</time></trkpt><trkpt lat="43.480845566007474" lon="10.540634443002775"><ele>129.0</ele><time>2026-04-19T08:23:51Z</time></trkpt><trkpt lat="43.48088271023629" lon="10.540454436320356"><ele>129.0</ele><time>2026-04-19T08:23:52Z</time></trkpt><trkpt lat="43.4809202215692" lon="10.540272650760818"><ele>129.0</ele><time>2026-04-19T08:23:53Z</time></trkpt><trkpt lat="43.48095769607112" lon="10.540092129884524"><ele>129.0</ele><time>2026-04-19T08:23:54Z</time></trkpt><trkpt lat="43.480980165579574" lon="10.539907202686491"><ele>129.0</ele><time>2026-04-19T08:23:55Z</time></trkpt><trkpt lat="43.481018058634554" lon="10.539728314686782"><ele>129.0</ele><time>2026-04-19T08:23:56Z</time></trkpt><trkpt lat="43.48105578728337" lon="10.539545192377721"><ele>129.0</ele><time>2026-04-19T08:23:57Z</time></trkpt><trkpt lat="43.48109490015206" lon="10.539359873129486"><ele>129.25</ele><time>2026-04-19T08:23:58Z</time></trkpt><trkpt lat="43.48113366563789" lon="10.53917682223882"><ele>129.5</ele><time>2026-04-19T08:23:59Z</time></trkpt><trkpt lat="43.48117340900142" lon="10.53899527589112"><ele>129.75</ele><time>2026-04-19T08:24:00Z</time></trkpt><trkpt lat="43.48122885943161" lon="10.538820022603248"><ele>130.0</ele><time>2026-04-19T08:24:01Z</time></trkpt><trkpt lat="43.48126923789946" lon="10.538637168812322"><ele>130.0</ele><time>2026-04-19T08:24:02Z</time></trkpt><trkpt lat="43.48130920046904" lon="10.538454642708825"><ele>130.0</ele><time>2026-04-19T08:24:03Z</time></trkpt><trkpt lat="43.48134504714844" lon="10.538273306006218"><ele>130.0</ele><time>2026-04-19T08:24:04Z</time></trkpt><trkpt lat="43.48137771403217" lon="10.538090333483087"><ele>130.0</ele><time>2026-04-19T08:24:05Z</time></trkpt><trkpt lat="43.48140102141445" lon="10.537907848188649"><ele>130.25</ele><time>2026-04-19T08:24:06Z</time></trkpt><trkpt lat="43.48141017165037" lon="10.537727182356662"><ele>130.5</ele><time>2026-04-19T08:24:07Z</time></trkpt><trkpt lat="43.481408802501086" lon="10.537549904540644"><ele>130.75</ele><time>2026-04-19T08:24:08Z</time></trkpt><trkpt lat="43.481391452438594" lon="10.537371944494783"><ele>131.0</ele><time>2026-04-19T08:24:09Z</time></trkpt><trkpt lat="43.4813637806244" lon="10.537193003219535"><ele>131.0</ele><time>2026-04-19T08:24:10Z</time></trkpt><trkpt lat="43.48132433484119" lon="10.53700274752272"><ele>131.0</ele><time>2026-04-19T08:24:11Z</time></trkpt><trkpt lat="43.481283253142585" lon="10.53683438095557"><ele>131.0</ele><time>2026-04-19T08:24:12Z</time></trkpt><trkpt lat="43.48124439497661" lon="10.536672367192248"><ele>131.0</ele><time>2026-04-19T08:24:13Z</time></trkpt><trkpt lat="43.481207880997324" lon="10.536517856498781"><ele>131.0</ele><time>2026-04-19T08:24:14Z</time></trkpt><trkpt lat="43.48117533166555" lon="10.536372065814744"><ele>131.0</ele><time>2026-04-19T08:24:15Z</time></trkpt><trkpt lat="43.481146224116806" lon="10.53623206462428"><ele>131.0</ele><time>2026-04-19T08:24:16Z</time></trkpt><trkpt lat="43.48111757588588" lon="10.536088378527158"><ele>131.0</ele><time>2026-04-19T08:24:17Z</time></trkpt><trkpt lat="43.481088538229486" lon="10.535942739244597"><ele>131.0</ele><time>2026-04-19T08:24:18Z</time></trkpt><trkpt lat="43.48106000203183" lon="10.535796090559597"><ele>132.0</ele><time>2026-04-19T08:24:19Z</time></trkpt><trkpt lat="43.48103173987263" lon="10.535648333262385"><ele>133.0</ele><time>2026-04-19T08:24:20Z</time></trkpt><trkpt lat="43.481003321953736" lon="10.535497805938295"><ele>134.0</ele><time>2026-04-19T08:24:21Z</time></trkpt><trkpt lat="43.480975942194775" lon="10.535344704140693"><ele>135.0</ele><time>2026-04-19T08:24:22Z</time></trkpt><trkpt lat="43.48095094329429" lon="10.535186637504033"><ele>135.0</ele><time>2026-04-19T08:24:23Z</time></trkpt><trkpt lat="43.48092624410349" lon="10.535022734310266"><ele>135.0</ele><time>2026-04-19T08:24:24Z</time></trkpt><trkpt lat="43.48090038952937" lon="10.534854406453322"><ele>135.0</ele><time>2026-04-19T08:24:25Z</time></trkpt><trkpt lat="43.480872229112656" lon="10.534679794997157"><ele>135.0</ele><time>2026-04-19T08:24:26Z</time></trkpt><trkpt lat="43.480841488716656" lon="10.534502556533036"><ele>135.25</ele><time>2026-04-19T08:24:27Z</time></trkpt><trkpt lat="43.48081053194718" lon="10.53433105029083"><ele>135.5</ele><time>2026-04-19T08:24:28Z</time></trkpt><trkpt lat="43.48078266461022" lon="10.53416937268431"><ele>135.75</ele><time>2026-04-19T08:24:29Z</time></trkpt><trkpt lat="43.4807581492636" lon="10.53401338502771"><ele>136.0</ele><time>2026-04-19T08:24:30Z</time></trkpt><trkpt lat="43.48073400327338" lon="10.533860978864249"><ele>135.25</ele><time>2026-04-19T08:24:31Z</time></trkpt><trkpt lat="43.4807048623712" lon="10.533707587456002"><ele>134.5</ele><time>2026-04-19T08:24:32Z</time></trkpt><trkpt lat="43.48067061905621" lon="10.533558410527087"><ele>133.75</ele><time>2026-04-19T08:24:33Z</time></trkpt><trkpt lat="43.48062764300838" lon="10.533413976471907"><ele>133.0</ele><time>2026-04-19T08:24:34Z</time></trkpt><trkpt lat="43.48057022758158" lon="10.533269396550834"><ele>133.0</ele><time>2026-04-19T08:24:35Z</time></trkpt><trkpt lat="43.480496334328734" lon="10.533128341058836"><ele>133.0</ele><time>2026-04-19T08:24:36Z</time></trkpt><trkpt lat="43.48039372896693" lon="10.533011683977236"><ele>133.0</ele><time>2026-04-19T08:24:37Z</time></trkpt><trkpt lat="43.48028538066729" lon="10.532923237831367"><ele>133.0</ele><time>2026-04-19T08:24:38Z</time></trkpt><trkpt lat="43.48017858375236" lon="10.532831050338535"><ele>133.5</ele><time>2026-04-19T08:24:39Z</time></trkpt><trkpt lat="43.480072068281416" lon="10.532745055317541"><ele>134.0</ele><time>2026-04-19T08:24:40Z</time></trkpt><trkpt lat="43.479969853272245" lon="10.532656504784178"><ele>134.5</ele><time>2026-04-19T08:24:41Z</time></trkpt><trkpt lat="43.479870703168125" lon="10.532570954982589"><ele>135.0</ele><time>2026-04-19T08:24:42Z</time></trkpt><trkpt lat="43.479776187653066" lon="10.532486659373252"><ele>135.0</ele><time>2026-04-19T08:24:43Z</time></trkpt><trkpt lat="43.47968560981844" lon="10.532400470139402"><ele>135.0</ele><time>2026-04-19T08:24:44Z</time></trkpt><trkpt lat="43.47959364879658" lon="10.532311163342566"><ele>135.0</ele><time>2026-04-19T08:24:45Z</time></trkpt><trkpt lat="43.47950343777726" lon="10.532208252074627"><ele>135.0</ele><time>2026-04-19T08:24:46Z</time></trkpt><trkpt lat="43.47941529642756" lon="10.53209581444289"><ele>134.25</ele><time>2026-04-19T08:24:47Z</time></trkpt><trkpt lat="43.47932756850827" lon="10.53197178278149"><ele>133.5</ele><time>2026-04-19T08:24:48Z</time></trkpt><trkpt lat="43.4792437099458" lon="10.531837600328199"><ele>132.75</ele><time>2026-04-19T08:24:49Z</time></trkpt><trkpt lat="43.479167033803286" lon="10.531695576288437"><ele>132.0</ele><time>2026-04-19T08:24:50Z</time></trkpt><trkpt lat="43.479097019531565" lon="10.531545201615046"><ele>132.0</ele><time>2026-04-19T08:24:51Z</time></trkpt><trkpt lat="43.47903138236671" lon="10.53139093816641"><ele>132.0</ele><time>2026-04-19T08:24:52Z</time></trkpt><trkpt lat="43.478967145338125" lon="10.531234695427704"><ele>132.0</ele><time>2026-04-19T08:24:53Z</time></trkpt><trkpt lat="43.47890486994752" lon="10.531080063094882"><ele>132.0</ele><time>2026-04-19T08:24:54Z</time></trkpt><trkpt lat="43.47884338140782" lon="10.530923974762832"><ele>131.75</ele><time>2026-04-19T08:24:55Z</time></trkpt><trkpt lat="43.478782025501786" lon="10.530768215255057"><ele>131.5</ele><time>2026-04-19T08:24:56Z</time></trkpt><trkpt lat="43.478720492890474" lon="10.530612231498038"><ele>131.25</ele><time>2026-04-19T08:24:57Z</time></trkpt><trkpt lat="43.47865968351342" lon="10.530455678867513"><ele>131.0</ele><time>2026-04-19T08:24:58Z</time></trkpt><trkpt lat="43.47860040855453" lon="10.530299013233684"><ele>129.66666666666666</ele><time>2026-04-19T08:24:59Z</time></trkpt><trkpt lat="43.47855074873638" lon="10.530163187201342"><ele>128.33333333333331</ele><time>2026-04-19T08:25:00Z</time></trkpt><trkpt lat="43.47851022205662" lon="10.530057589369061"><ele>127.0</ele><time>2026-04-19T08:25:01Z</time></trkpt><trkpt lat="43.47847479814131" lon="10.52996550935383"><ele>125.66666666666666</ele><time>2026-04-19T08:25:02Z</time></trkpt><trkpt lat="43.47844562320276" lon="10.529885475556448"><ele>124.33333333333333</ele><time>2026-04-19T08:25:03Z</time></trkpt><trkpt lat="43.47840399956418" lon="10.52976855809734"><ele>123.0</ele><time>2026-04-19T08:25:05Z</time></trkpt><trkpt lat="43.47837134161651" lon="10.52968201953024"><ele>123.0</ele><time>2026-04-19T08:25:07Z</time></trkpt><trkpt lat="43.478326005811425" lon="10.529565346229393"><ele>123.0</ele><time>2026-04-19T08:25:09Z</time></trkpt><trkpt lat="43.478293737917944" lon="10.5294807359042"><ele>123.0</ele><time>2026-04-19T08:25:10Z</time></trkpt><trkpt lat="43.478254187371704" lon="10.529381836833064"><ele>123.0</ele><time>2026-04-19T08:25:11Z</time></trkpt><trkpt lat="43.478211779493996" lon="10.529274800817019"><ele>123.0</ele><time>2026-04-19T08:25:12Z</time></trkpt><trkpt lat="43.478168250537294" lon="10.529171414187203"><ele>123.0</ele><time>2026-04-19T08:25:13Z</time></trkpt><trkpt lat="43.478126851621504" lon="10.529069471809699"><ele>123.0</ele><time>2026-04-19T08:25:14Z</time></trkpt><trkpt lat="43.478083497157094" lon="10.528960056842214"><ele>123.00000000000001</ele><time>2026-04-19T08:25:15Z</time></trkpt><trkpt lat="43.478050799131196" lon="10.528833367763355"><ele>123.00000000000001</ele><time>2026-04-19T08:25:16Z</time></trkpt><trkpt lat="43.47800233783406" lon="10.528706323356399"><ele>123.0</ele><time>2026-04-19T08:25:17Z</time></trkpt><trkpt lat="43.47795084458254" lon="10.528567567016303"><ele>123.0</ele><time>2026-04-19T08:25:18Z</time></trkpt><trkpt lat="43.47789732296131" lon="10.528420138639952"><ele>121.5</ele><time>2026-04-19T08:25:19Z</time></trkpt><trkpt lat="43.477841910074" lon="10.528265150744835"><ele>120.0</ele><time>2026-04-19T08:25:20Z</time></trkpt><trkpt lat="43.47778256705684" lon="10.528106501199701"><ele>118.5</ele><time>2026-04-19T08:25:21Z</time></trkpt><trkpt lat="43.47771924813093" lon="10.527946346857451"><ele>117.0</ele><time>2026-04-19T08:25:22Z</time></trkpt><trkpt lat="43.47765098586344" lon="10.527786585636228"><ele>117.0</ele><time>2026-04-19T08:25:23Z</time></trkpt><trkpt lat="43.47757405631933" lon="10.527628155656924"><ele>117.0</ele><time>2026-04-19T08:25:24Z</time></trkpt><trkpt lat="43.477491096517795" lon="10.527475030601883"><ele>117.0</ele><time>2026-04-19T08:25:25Z</time></trkpt><trkpt lat="43.47740494087428" lon="10.527327000221849"><ele>117.0</ele><time>2026-04-19T08:25:26Z</time></trkpt><trkpt lat="43.47731366236749" lon="10.527186505725021"><ele>116.25</ele><time>2026-04-19T08:25:27Z</time></trkpt><trkpt lat="43.47721242124517" lon="10.527049488653807"><ele>115.5</ele><time>2026-04-19T08:25:28Z</time></trkpt><trkpt lat="43.47710451553698" lon="10.526919195929521"><ele>114.75</ele><time>2026-04-19T08:25:29Z</time></trkpt><trkpt lat="43.476991985132294" lon="10.526795274066487"><ele>114.0</ele><time>2026-04-19T08:25:30Z</time></trkpt><trkpt lat="43.476874862426435" lon="10.526676917813967"><ele>113.0</ele><time>2026-04-19T08:25:31Z</time></trkpt><trkpt lat="43.47675617072313" lon="10.526564574827907"><ele>112.0</ele><time>2026-04-19T08:25:32Z</time></trkpt><trkpt lat="43.47663926597831" lon="10.526454504946305"><ele>111.0</ele><time>2026-04-19T08:25:33Z</time></trkpt><trkpt lat="43.476524367583856" lon="10.526345673002087"><ele>110.0</ele><time>2026-04-19T08:25:34Z</time></trkpt><trkpt lat="43.47640966729309" lon="10.526239791325802"><ele>109.5</ele><time>2026-04-19T08:25:35Z</time></trkpt><trkpt lat="43.476296993572916" lon="10.526134449110282"><ele>109.0</ele><time>2026-04-19T08:25:36Z</time></trkpt><trkpt lat="43.476186082271106" lon="10.526028638280263"><ele>108.5</ele><time>2026-04-19T08:25:37Z</time></trkpt><trkpt lat="43.47607493587207" lon="10.525922894474485"><ele>108.0</ele><time>2026-04-19T08:25:38Z</time></trkpt><trkpt lat="43.475964090026906" lon="10.525817306733481"><ele>108.0</ele><time>2026-04-19T08:25:39Z</time></trkpt><trkpt lat="43.47585466053402" lon="10.52571115317143"><ele>108.0</ele><time>2026-04-19T08:25:40Z</time></trkpt><trkpt lat="43.47574697870033" lon="10.525601831791446"><ele>108.0</ele><time>2026-04-19T08:25:41Z</time></trkpt><trkpt lat="43.475640482813674" lon="10.525489736010398"><ele>108.0</ele><time>2026-04-19T08:25:42Z</time></trkpt><trkpt lat="43.47553665656682" lon="10.525370478605153"><ele>108.0</ele><time>2026-04-19T08:25:43Z</time></trkpt><trkpt lat="43.47543861779937" lon="10.525238430910711"><ele>108.0</ele><time>2026-04-19T08:25:44Z</time></trkpt><trkpt lat="43.47535118858411" lon="10.525094268820158"><ele>108.0</ele><time>2026-04-19T08:25:45Z</time></trkpt><trkpt lat="43.47527530759062" lon="10.524938673444366"><ele>108.0</ele><time>2026-04-19T08:25:46Z</time></trkpt><trkpt lat="43.47521250042779" lon="10.524774152771782"><ele>107.5</ele><time>2026-04-19T08:25:47Z</time></trkpt><trkpt lat="43.4751593266103" lon="10.5246049963514"><ele>107.0</ele><time>2026-04-19T08:25:48Z</time></trkpt><trkpt lat="43.47511022906274" lon="10.524431308203557"><ele>106.5</ele><time>2026-04-19T08:25:49Z</time></trkpt><trkpt lat="43.47506346871681" lon="10.524252967857624"><ele>106.0</ele><time>2026-04-19T08:25:50Z</time></trkpt><trkpt lat="43.475017947284435" lon="10.52407212009213"><ele>106.0</ele><time>2026-04-19T08:25:51Z</time></trkpt><trkpt lat="43.47497120866976" lon="10.523890776735126"><ele>106.0</ele><time>2026-04-19T08:25:52Z</time></trkpt><trkpt lat="43.474926988982794" lon="10.523710359453101"><ele>106.0</ele><time>2026-04-19T08:25:53Z</time></trkpt><trkpt lat="43.47488282760086" lon="10.523532604382318"><ele>106.0</ele><time>2026-04-19T08:25:54Z</time></trkpt><trkpt lat="43.47483942842958" lon="10.523358685593914"><ele>105.75</ele><time>2026-04-19T08:25:55Z</time></trkpt><trkpt lat="43.47479646971325" lon="10.523189014610029"><ele>105.5</ele><time>2026-04-19T08:25:56Z</time></trkpt><trkpt lat="43.474753114363516" lon="10.523022213423754"><ele>105.25</ele><time>2026-04-19T08:25:57Z</time></trkpt><trkpt lat="43.474711216130125" lon="10.522859275115813"><ele>105.0</ele><time>2026-04-19T08:25:58Z</time></trkpt><trkpt lat="43.47467107173046" lon="10.522693397227064"><ele>104.8</ele><time>2026-04-19T08:25:59Z</time></trkpt><trkpt lat="43.474634290774034" lon="10.522543215701262"><ele>104.6</ele><time>2026-04-19T08:26:00Z</time></trkpt><trkpt lat="43.47460377927602" lon="10.522415496111384"><ele>104.4</ele><time>2026-04-19T08:26:01Z</time></trkpt><trkpt lat="43.47457069302276" lon="10.52229002762941"><ele>104.2</ele><time>2026-04-19T08:26:02Z</time></trkpt><trkpt lat="43.47453525830181" lon="10.522168393819491"><ele>104.0</ele><time>2026-04-19T08:26:03Z</time></trkpt><trkpt lat="43.47449730542594" lon="10.522035470737562"><ele>103.2</ele><time>2026-04-19T08:26:04Z</time></trkpt><trkpt lat="43.47445905095102" lon="10.521894142678871"><ele>102.4</ele><time>2026-04-19T08:26:05Z</time></trkpt><trkpt lat="43.47442170047705" lon="10.521751586169016"><ele>101.6</ele><time>2026-04-19T08:26:06Z</time></trkpt><trkpt lat="43.47438590185569" lon="10.521611647794339"><ele>100.8</ele><time>2026-04-19T08:26:07Z</time></trkpt><trkpt lat="43.474349688211426" lon="10.52147312661103"><ele>100.0</ele><time>2026-04-19T08:26:08Z</time></trkpt><trkpt lat="43.474312174284776" lon="10.521335458184705"><ele>100.0</ele><time>2026-04-19T08:26:09Z</time></trkpt><trkpt lat="43.47427219496683" lon="10.521189897002246"><ele>100.0</ele><time>2026-04-19T08:26:10Z</time></trkpt><trkpt lat="43.47423052484895" lon="10.521041021152332"><ele>100.0</ele><time>2026-04-19T08:26:11Z</time></trkpt><trkpt lat="43.474186509297226" lon="10.520890581285569"><ele>100.0</ele><time>2026-04-19T08:26:12Z</time></trkpt><trkpt lat="43.4741410277608" lon="10.52073998391694"><ele>100.0</ele><time>2026-04-19T08:26:13Z</time></trkpt><trkpt lat="43.474093847720766" lon="10.520587255518233"><ele>100.0</ele><time>2026-04-19T08:26:14Z</time></trkpt><trkpt lat="43.47404512197896" lon="10.520431140576152"><ele>100.0</ele><time>2026-04-19T08:26:15Z</time></trkpt><trkpt lat="43.473995518641225" lon="10.520269715348048"><ele>100.0</ele><time>2026-04-19T08:26:16Z</time></trkpt><trkpt lat="43.473945238946776" lon="10.520103365981333"><ele>99.5</ele><time>2026-04-19T08:26:17Z</time></trkpt><trkpt lat="43.473895671531" lon="10.519936589879897"><ele>99.0</ele><time>2026-04-19T08:26:18Z</time></trkpt><trkpt lat="43.473842100531606" lon="10.51976445166955"><ele>98.5</ele><time>2026-04-19T08:26:19Z</time></trkpt><trkpt lat="43.47378655764571" lon="10.519587330925408"><ele>98.0</ele><time>2026-04-19T08:26:20Z</time></trkpt><trkpt lat="43.473730642500605" lon="10.519409387568006"><ele>96.0</ele><time>2026-04-19T08:26:21Z</time></trkpt><trkpt lat="43.47367381415477" lon="10.519231492980742"><ele>94.0</ele><time>2026-04-19T08:26:22Z</time></trkpt><trkpt lat="43.47361739079566" lon="10.51905179231867"><ele>92.0</ele><time>2026-04-19T08:26:23Z</time></trkpt><trkpt lat="43.473559267985294" lon="10.518870713706223"><ele>90.0</ele><time>2026-04-19T08:26:24Z</time></trkpt><trkpt lat="43.4735004129811" lon="10.518687797225235"><ele>89.25</ele><time>2026-04-19T08:26:25Z</time></trkpt><trkpt lat="43.47344279583242" lon="10.518503277074073"><ele>88.5</ele><time>2026-04-19T08:26:26Z</time></trkpt><trkpt lat="43.47338597699021" lon="10.518318479449764"><ele>87.75</ele><time>2026-04-19T08:26:27Z</time></trkpt><trkpt lat="43.4733287225389" lon="10.5181368891938"><ele>87.0</ele><time>2026-04-19T08:26:28Z</time></trkpt><trkpt lat="43.47327303191189" lon="10.517953490969296"><ele>85.5</ele><time>2026-04-19T08:26:29Z</time></trkpt><trkpt lat="43.473218540782256" lon="10.517770055106832"><ele>84.0</ele><time>2026-04-19T08:26:30Z</time></trkpt><trkpt lat="43.47316937634046" lon="10.517581969217538"><ele>82.5</ele><time>2026-04-19T08:26:31Z</time></trkpt><trkpt lat="43.473127725504504" lon="10.517391155342063"><ele>81.0</ele><time>2026-04-19T08:26:32Z</time></trkpt><trkpt lat="43.47309268724495" lon="10.517196257797004"><ele>79.25</ele><time>2026-04-19T08:26:33Z</time></trkpt><trkpt lat="43.47306707310871" lon="10.516998061884411"><ele>77.5</ele><time>2026-04-19T08:26:34Z</time></trkpt><trkpt lat="43.473048780336406" lon="10.516796809786312"><ele>75.75</ele><time>2026-04-19T08:26:35Z</time></trkpt><trkpt lat="43.47303799040659" lon="10.516596024281446"><ele>74.0</ele><time>2026-04-19T08:26:36Z</time></trkpt><trkpt lat="43.47303207513375" lon="10.516393874156545"><ele>71.33333333333334</ele><time>2026-04-19T08:26:37Z</time></trkpt><trkpt lat="43.47302995849568" lon="10.51618797574853"><ele>68.66666666666667</ele><time>2026-04-19T08:26:38Z</time></trkpt><trkpt lat="43.47303162759863" lon="10.515980391062385"><ele>66.0</ele><time>2026-04-19T08:26:39Z</time></trkpt><trkpt lat="43.473030268464605" lon="10.515771927337411"><ele>66.0</ele><time>2026-04-19T08:26:40Z</time></trkpt><trkpt lat="43.47302469874072" lon="10.515565044588252"><ele>66.0</ele><time>2026-04-19T08:26:41Z</time></trkpt><trkpt lat="43.47300758481285" lon="10.51536803604031"><ele>66.0</ele><time>2026-04-19T08:26:42Z</time></trkpt><trkpt lat="43.472981346271844" lon="10.515177599966425"><ele>66.0</ele><time>2026-04-19T08:26:43Z</time></trkpt><trkpt lat="43.47294104343555" lon="10.514991463214185"><ele>65.25</ele><time>2026-04-19T08:26:44Z</time></trkpt><trkpt lat="43.47288732563309" lon="10.514813049268714"><ele>64.5</ele><time>2026-04-19T08:26:45Z</time></trkpt><trkpt lat="43.47282332717534" lon="10.514641847159778"><ele>63.75</ele><time>2026-04-19T08:26:46Z</time></trkpt><trkpt lat="43.47274826513459" lon="10.514482287868782"><ele>63.0</ele><time>2026-04-19T08:26:47Z</time></trkpt><trkpt lat="43.47268070201226" lon="10.514351857830311"><ele>63.0</ele><time>2026-04-19T08:26:48Z</time></trkpt><trkpt lat="43.47261550388868" lon="10.514222097417607"><ele>63.0</ele><time>2026-04-19T08:26:49Z</time></trkpt><trkpt lat="43.472554359509935" lon="10.514094579794012"><ele>63.0</ele><time>2026-04-19T08:26:50Z</time></trkpt><trkpt lat="43.472491477118375" lon="10.51397568260833"><ele>63.0</ele><time>2026-04-19T08:26:51Z</time></trkpt><trkpt lat="43.47242874289421" lon="10.51385723803736"><ele>63.0</ele><time>2026-04-19T08:26:52Z</time></trkpt><trkpt lat="43.4723655295289" lon="10.513733239077986"><ele>63.2</ele><time>2026-04-19T08:26:53Z</time></trkpt><trkpt lat="43.47230722207056" lon="10.513614991544026"><ele>63.4</ele><time>2026-04-19T08:26:54Z</time></trkpt><trkpt lat="43.47225017097336" lon="10.513505594774252"><ele>63.60000000000001</ele><time>2026-04-19T08:26:55Z</time></trkpt><trkpt lat="43.472189302982095" lon="10.513404072606662"><ele>63.800000000000004</ele><time>2026-04-19T08:26:56Z</time></trkpt><trkpt lat="43.4721258799599" lon="10.513308747361728"><ele>64.0</ele><time>2026-04-19T08:26:57Z</time></trkpt><trkpt lat="43.47206296835021" lon="10.513222287085553"><ele>63.49999999999999</ele><time>2026-04-19T08:26:58Z</time></trkpt><trkpt lat="43.471991628727" lon="10.513141003781836"><ele>63.0</ele><time>2026-04-19T08:26:59Z</time></trkpt><trkpt lat="43.471917926573205" lon="10.51306712316371"><ele>62.5</ele><time>2026-04-19T08:27:00Z</time></trkpt><trkpt lat="43.47185645811956" lon="10.512979077785076"><ele>62.0</ele><time>2026-04-19T08:27:01Z</time></trkpt><trkpt lat="43.47178128733829" lon="10.512933887075935"><ele>61.49999999999999</ele><time>2026-04-19T08:27:02Z</time></trkpt><trkpt lat="43.471722221035634" lon="10.512872229969087"><ele>61.0</ele><time>2026-04-19T08:27:03Z</time></trkpt><trkpt lat="43.47166216956284" lon="10.512816511635787"><ele>61.428571428571416</ele><time>2026-04-19T08:27:04Z</time></trkpt><trkpt lat="43.47159760477293" lon="10.512764406570646"><ele>61.857142857142854</ele><time>2026-04-19T08:27:05Z</time></trkpt><trkpt lat="43.4715337109968" lon="10.512714306118326"><ele>62.28571428571428</ele><time>2026-04-19T08:27:06Z</time></trkpt><trkpt lat="43.47147270533572" lon="10.51266452295276"><ele>62.71428571428571</ele><time>2026-04-19T08:27:07Z</time></trkpt><trkpt lat="43.471414516069416" lon="10.512615959589676"><ele>63.14285714285714</ele><time>2026-04-19T08:27:08Z</time></trkpt><trkpt lat="43.47135834296844" lon="10.512565538312638"><ele>63.57142857142857</ele><time>2026-04-19T08:27:09Z</time></trkpt><trkpt lat="43.471301065323296" lon="10.512512684225278"><ele>64.0</ele><time>2026-04-19T08:27:10Z</time></trkpt><trkpt lat="43.47124576927928" lon="10.512453322816075"><ele>64.0</ele><time>2026-04-19T08:27:11Z</time></trkpt><trkpt lat="43.47119287315056" lon="10.512392676874311"><ele>63.99999999999999</ele><time>2026-04-19T08:27:12Z</time></trkpt><trkpt lat="43.47114001877944" lon="10.512331590240548"><ele>64.0</ele><time>2026-04-19T08:27:13Z</time></trkpt><trkpt lat="43.4710867652095" lon="10.512270274032538"><ele>64.0</ele><time>2026-04-19T08:27:14Z</time></trkpt><trkpt lat="43.47103679539493" lon="10.512208439003071"><ele>63.99999999999999</ele><time>2026-04-19T08:27:15Z</time></trkpt><trkpt lat="43.47098634579515" lon="10.512148146233136"><ele>64.0</ele><time>2026-04-19T08:27:16Z</time></trkpt><trkpt lat="43.470936902822935" lon="10.512091762500365"><ele>64.0</ele><time>2026-04-19T08:27:17Z</time></trkpt><trkpt lat="43.47084432290535" lon="10.511997994049294"><ele>66.0</ele><time>2026-04-19T08:27:19Z</time></trkpt><trkpt lat="43.4707831915745" lon="10.511905833663397"><ele>68.0</ele><time>2026-04-19T08:27:21Z</time></trkpt><trkpt lat="43.47070279219098" lon="10.511812701718023"><ele>70.0</ele><time>2026-04-19T08:27:23Z</time></trkpt><trkpt lat="43.47060842197569" lon="10.511694623956783"><ele>72.0</ele><time>2026-04-19T08:27:25Z</time></trkpt><trkpt lat="43.47054424768379" lon="10.511640168859309"><ele>74.0</ele><time>2026-04-19T08:27:26Z</time></trkpt><trkpt lat="43.470503138696785" lon="10.51155375819502"><ele>74.0</ele><time>2026-04-19T08:27:27Z</time></trkpt><trkpt lat="43.47045233481583" lon="10.51148562602389"><ele>74.0</ele><time>2026-04-19T08:27:28Z</time></trkpt><trkpt lat="43.470403556030554" lon="10.511419732282569"><ele>74.0</ele><time>2026-04-19T08:27:29Z</time></trkpt><trkpt lat="43.47034481449005" lon="10.511369165774662"><ele>74.0</ele><time>2026-04-19T08:27:30Z</time></trkpt><trkpt lat="43.47030148679591" lon="10.511304623709535"><ele>74.0</ele><time>2026-04-19T08:27:31Z</time></trkpt><trkpt lat="43.47022526611664" lon="10.511189095256457"><ele>74.0</ele><time>2026-04-19T08:27:33Z</time></trkpt><trkpt lat="43.47015440102912" lon="10.511099549804232"><ele>74.4</ele><time>2026-04-19T08:27:35Z</time></trkpt><trkpt lat="43.470064192768966" lon="10.511057320173604"><ele>74.80000000000001</ele><time>2026-04-19T08:27:37Z</time></trkpt><trkpt lat="43.46995828683419" lon="10.511033325744044"><ele>75.19999999999999</ele><time>2026-04-19T08:27:39Z</time></trkpt><trkpt lat="43.46986619693313" lon="10.511017018698452"><ele>75.6</ele><time>2026-04-19T08:27:41Z</time></trkpt><trkpt lat="43.46977619943785" lon="10.510998846347471"><ele>76.0</ele><time>2026-04-19T08:27:43Z</time></trkpt><trkpt lat="43.46965640329233" lon="10.51098755617483"><ele>76.33333333333333</ele><time>2026-04-19T08:27:45Z</time></trkpt><trkpt lat="43.46959024743488" lon="10.510989336351063"><ele>76.66666666666666</ele><time>2026-04-19T08:27:46Z</time></trkpt><trkpt lat="43.46952187240409" lon="10.510996242438189"><ele>77.0</ele><time>2026-04-19T08:27:47Z</time></trkpt><trkpt lat="43.46945328417397" lon="10.511008830016259"><ele>77.33333333333333</ele><time>2026-04-19T08:27:48Z</time></trkpt><trkpt lat="43.469385752416" lon="10.51102276247286"><ele>77.66666666666667</ele><time>2026-04-19T08:27:49Z</time></trkpt><trkpt lat="43.46932054572936" lon="10.511043501236443"><ele>78.0</ele><time>2026-04-19T08:27:50Z</time></trkpt><trkpt lat="43.46920625581661" lon="10.51108217844871"><ele>78.0</ele><time>2026-04-19T08:27:52Z</time></trkpt><trkpt lat="43.46912688157744" lon="10.5111098394218"><ele>78.0</ele><time>2026-04-19T08:27:54Z</time></trkpt><trkpt lat="43.4690563994661" lon="10.511139156408909"><ele>78.0</ele><time>2026-04-19T08:27:56Z</time></trkpt><trkpt lat="43.46896191497332" lon="10.511178734682074"><ele>78.0</ele><time>2026-04-19T08:27:58Z</time></trkpt><trkpt lat="43.46884059775104" lon="10.511234287338857"><ele>78.0</ele><time>2026-04-19T08:28:00Z</time></trkpt><trkpt lat="43.46877638027062" lon="10.511262407769049"><ele>78.0</ele><time>2026-04-19T08:28:01Z</time></trkpt><trkpt lat="43.468658792166885" lon="10.51131199835526"><ele>76.4</ele><time>2026-04-19T08:28:03Z</time></trkpt><trkpt lat="43.46854433719891" lon="10.511353044925645"><ele>74.8</ele><time>2026-04-19T08:28:05Z</time></trkpt><trkpt lat="43.468447860940245" lon="10.511379367644038"><ele>73.2</ele><time>2026-04-19T08:28:07Z</time></trkpt><trkpt lat="43.46835521341913" lon="10.511393588191574"><ele>71.6</ele><time>2026-04-19T08:28:09Z</time></trkpt><trkpt lat="43.4682532129321" lon="10.511402792536606"><ele>70.0</ele><time>2026-04-19T08:28:11Z</time></trkpt><trkpt lat="43.46814295762037" lon="10.51140774876124"><ele>70.0</ele><time>2026-04-19T08:28:13Z</time></trkpt><trkpt lat="43.46802727465323" lon="10.511410556342204"><ele>70.0</ele><time>2026-04-19T08:28:15Z</time></trkpt><trkpt lat="43.46792284752463" lon="10.511411970433866"><ele>70.0</ele><time>2026-04-19T08:28:17Z</time></trkpt><trkpt lat="43.46781616260577" lon="10.511416468919876"><ele>70.0</ele><time>2026-04-19T08:28:19Z</time></trkpt><trkpt lat="43.46772412396795" lon="10.511428615816408"><ele>70.0</ele><time>2026-04-19T08:28:21Z</time></trkpt><trkpt lat="43.46761247992532" lon="10.51145023986434"><ele>70.4</ele><time>2026-04-19T08:28:23Z</time></trkpt><trkpt lat="43.46749767534215" lon="10.511444509843892"><ele>70.8</ele><time>2026-04-19T08:28:25Z</time></trkpt><trkpt lat="43.467408139444665" lon="10.51144994240756"><ele>71.2</ele><time>2026-04-19T08:28:27Z</time></trkpt><trkpt lat="43.46731671299668" lon="10.51147914631562"><ele>71.6</ele><time>2026-04-19T08:28:29Z</time></trkpt><trkpt lat="43.467211482684" lon="10.511491210337619"><ele>72.0</ele><time>2026-04-19T08:28:31Z</time></trkpt><trkpt lat="43.46709241817483" lon="10.511513553661121"><ele>72.25</ele><time>2026-04-19T08:28:33Z</time></trkpt><trkpt lat="43.46697946619732" lon="10.511515506957787"><ele>72.5</ele><time>2026-04-19T08:28:35Z</time></trkpt><trkpt lat="43.46687080356804" lon="10.511525227168953"><ele>72.75</ele><time>2026-04-19T08:28:37Z</time></trkpt><trkpt lat="43.46675761336065" lon="10.511533737796128"><ele>73.0</ele><time>2026-04-19T08:28:39Z</time></trkpt><trkpt lat="43.466639639577906" lon="10.511505351339895"><ele>73.0</ele><time>2026-04-19T08:28:41Z</time></trkpt><trkpt lat="43.46652390778151" lon="10.511507632434245"><ele>73.0</ele><time>2026-04-19T08:28:43Z</time></trkpt><trkpt lat="43.46642286216334" lon="10.511488990533493"><ele>73.0</ele><time>2026-04-19T08:28:45Z</time></trkpt><trkpt lat="43.46631575682138" lon="10.5114784138051"><ele>73.0</ele><time>2026-04-19T08:28:47Z</time></trkpt><trkpt lat="43.466254629701005" lon="10.511443936107435"><ele>73.0</ele><time>2026-04-19T08:28:48Z</time></trkpt><trkpt lat="43.46618424084661" lon="10.511447360383775"><ele>72.71428571428571</ele><time>2026-04-19T08:28:49Z</time></trkpt><trkpt lat="43.466114076212165" lon="10.511428006305966"><ele>72.42857142857143</ele><time>2026-04-19T08:28:50Z</time></trkpt><trkpt lat="43.4660356340776" lon="10.511417402684849"><ele>72.14285714285714</ele><time>2026-04-19T08:28:51Z</time></trkpt><trkpt lat="43.465960182341384" lon="10.511400063534147"><ele>71.85714285714286</ele><time>2026-04-19T08:28:52Z</time></trkpt><trkpt lat="43.46588676522421" lon="10.511378005043854"><ele>71.57142857142857</ele><time>2026-04-19T08:28:53Z</time></trkpt><trkpt lat="43.46581635400526" lon="10.511356251392868"><ele>71.28571428571428</ele><time>2026-04-19T08:28:54Z</time></trkpt><trkpt lat="43.46575198248606" lon="10.511337993085974"><ele>71.0</ele><time>2026-04-19T08:28:55Z</time></trkpt><trkpt lat="43.4656333241382" lon="10.511323340372002"><ele>71.0</ele><time>2026-04-19T08:28:57Z</time></trkpt><trkpt lat="43.46557362442178" lon="10.51129158711264"><ele>71.0</ele><time>2026-04-19T08:28:58Z</time></trkpt><trkpt lat="43.46544898249641" lon="10.511267924000343"><ele>71.0</ele><time>2026-04-19T08:29:00Z</time></trkpt><trkpt lat="43.465385437308434" lon="10.511255861846264"><ele>71.0</ele><time>2026-04-19T08:29:01Z</time></trkpt><trkpt lat="43.46531578452983" lon="10.511261162118693"><ele>71.0</ele><time>2026-04-19T08:29:02Z</time></trkpt><trkpt lat="43.465251662102055" lon="10.511246328273538"><ele>71.0</ele><time>2026-04-19T08:29:03Z</time></trkpt><trkpt lat="43.46518488397" lon="10.511234312234242"><ele>71.28571428571428</ele><time>2026-04-19T08:29:04Z</time></trkpt><trkpt lat="43.465117992694715" lon="10.511198783533892"><ele>71.57142857142857</ele><time>2026-04-19T08:29:05Z</time></trkpt><trkpt lat="43.46504671012301" lon="10.511182734416431"><ele>71.85714285714286</ele><time>2026-04-19T08:29:06Z</time></trkpt><trkpt lat="43.464972690295795" lon="10.511187763243296"><ele>72.14285714285714</ele><time>2026-04-19T08:29:07Z</time></trkpt><trkpt lat="43.46490151151469" lon="10.511170164448826"><ele>72.42857142857143</ele><time>2026-04-19T08:29:08Z</time></trkpt><trkpt lat="43.46483529760606" lon="10.511151922199545"><ele>72.71428571428571</ele><time>2026-04-19T08:29:09Z</time></trkpt><trkpt lat="43.46477096702835" lon="10.511137253090325"><ele>73.0</ele><time>2026-04-19T08:29:10Z</time></trkpt><trkpt lat="43.46470673657911" lon="10.511128937175153"><ele>73.0</ele><time>2026-04-19T08:29:11Z</time></trkpt><trkpt lat="43.46458862985428" lon="10.511130577608744"><ele>73.0</ele><time>2026-04-19T08:29:13Z</time></trkpt><trkpt lat="43.46448794819314" lon="10.511145777883366"><ele>73.0</ele><time>2026-04-19T08:29:15Z</time></trkpt><trkpt lat="43.46437667726946" lon="10.511154514721698"><ele>73.0</ele><time>2026-04-19T08:29:17Z</time></trkpt><trkpt lat="43.464251129463044" lon="10.511166702091"><ele>73.0</ele><time>2026-04-19T08:29:19Z</time></trkpt><trkpt lat="43.46418336099469" lon="10.511146494778444"><ele>73.0</ele><time>2026-04-19T08:29:20Z</time></trkpt><trkpt lat="43.464115564039105" lon="10.511148589431118"><ele>73.0</ele><time>2026-04-19T08:29:21Z</time></trkpt><trkpt lat="43.46404547555489" lon="10.511150754875876"><ele>73.0</ele><time>2026-04-19T08:29:22Z</time></trkpt><trkpt lat="43.46397518350253" lon="10.511152926629403"><ele>73.0</ele><time>2026-04-19T08:29:23Z</time></trkpt><trkpt lat="43.463904515874376" lon="10.511155109972295"><ele>73.0</ele><time>2026-04-19T08:29:24Z</time></trkpt><trkpt lat="43.46383338428018" lon="10.511157374558945"><ele>73.0</ele><time>2026-04-19T08:29:25Z</time></trkpt><trkpt lat="43.46376309778651" lon="10.511159947802957"><ele>72.71428571428571</ele><time>2026-04-19T08:29:26Z</time></trkpt><trkpt lat="43.463698205998796" lon="10.511183324236171"><ele>72.42857142857143</ele><time>2026-04-19T08:29:27Z</time></trkpt><trkpt lat="43.46363545986973" lon="10.511164620736588"><ele>72.14285714285714</ele><time>2026-04-19T08:29:28Z</time></trkpt><trkpt lat="43.463571416469705" lon="10.51116696542228"><ele>71.85714285714286</ele><time>2026-04-19T08:29:29Z</time></trkpt><trkpt lat="43.46350748242783" lon="10.511189322268951"><ele>71.57142857142857</ele><time>2026-04-19T08:29:30Z</time></trkpt><trkpt lat="43.46343973018894" lon="10.51119076737053"><ele>71.28571428571428</ele><time>2026-04-19T08:29:31Z</time></trkpt><trkpt lat="43.46337169347899" lon="10.51119239090401"><ele>71.0</ele><time>2026-04-19T08:29:32Z</time></trkpt><trkpt lat="43.463306659520725" lon="10.511194798716948"><ele>71.0</ele><time>2026-04-19T08:29:33Z</time></trkpt><trkpt lat="43.46319172539522" lon="10.511198753274911"><ele>71.0</ele><time>2026-04-19T08:29:35Z</time></trkpt><trkpt lat="43.4631163733148" lon="10.511184446561195"><ele>71.0</ele><time>2026-04-19T08:29:37Z</time></trkpt><trkpt lat="43.46303259592046" lon="10.511190541231887"><ele>71.0</ele><time>2026-04-19T08:29:40Z</time></trkpt><trkpt lat="43.46295168219686" lon="10.511199757326962"><ele>71.0</ele><time>2026-04-19T08:29:52Z</time></trkpt><trkpt lat="43.46288094166681" lon="10.511204220997156"><ele>71.0</ele><time>2026-04-19T08:29:56Z</time></trkpt><trkpt lat="43.462794403887294" lon="10.511206263752177"><ele>70.66666666666667</ele><time>2026-04-19T08:29:58Z</time></trkpt><trkpt lat="43.4626692396077" lon="10.51121485018423"><ele>70.33333333333334</ele><time>2026-04-19T08:30:00Z</time></trkpt><trkpt lat="43.46260180609295" lon="10.511220829283445"><ele>70.0</ele><time>2026-04-19T08:30:01Z</time></trkpt><trkpt lat="43.46252506852646" lon="10.511227144516944"><ele>69.66666666666667</ele><time>2026-04-19T08:30:02Z</time></trkpt><trkpt lat="43.46244424014992" lon="10.511238157117177"><ele>69.33333333333333</ele><time>2026-04-19T08:30:03Z</time></trkpt><trkpt lat="43.462363714252376" lon="10.511251174286794"><ele>69.0</ele><time>2026-04-19T08:30:04Z</time></trkpt><trkpt lat="43.46228249390993" lon="10.511265306078537"><ele>69.0</ele><time>2026-04-19T08:30:05Z</time></trkpt><trkpt lat="43.46219741475999" lon="10.511279345621775"><ele>69.0</ele><time>2026-04-19T08:30:06Z</time></trkpt><trkpt lat="43.462110477220044" lon="10.511294045410416"><ele>69.0</ele><time>2026-04-19T08:30:07Z</time></trkpt><trkpt lat="43.46202520965221" lon="10.511312373781806"><ele>69.0</ele><time>2026-04-19T08:30:08Z</time></trkpt><trkpt lat="43.461942132338656" lon="10.511337936823804"><ele>69.0</ele><time>2026-04-19T08:30:09Z</time></trkpt><trkpt lat="43.46186261791948" lon="10.511374303660094"><ele>69.0</ele><time>2026-04-19T08:30:10Z</time></trkpt><trkpt lat="43.461787252489444" lon="10.51142009599557"><ele>69.33333333333333</ele><time>2026-04-19T08:30:11Z</time></trkpt><trkpt lat="43.46171406581954" lon="10.511471858380844"><ele>69.66666666666667</ele><time>2026-04-19T08:30:12Z</time></trkpt><trkpt lat="43.461635173710604" lon="10.511482661158558"><ele>70.0</ele><time>2026-04-19T08:30:13Z</time></trkpt><trkpt lat="43.46156556685135" lon="10.511504899995497"><ele>70.33333333333334</ele><time>2026-04-19T08:30:14Z</time></trkpt><trkpt lat="43.46149077306921" lon="10.51151339498495"><ele>70.66666666666667</ele><time>2026-04-19T08:30:15Z</time></trkpt><trkpt lat="43.461413745181865" lon="10.51151616482808"><ele>71.0</ele><time>2026-04-19T08:30:16Z</time></trkpt><trkpt lat="43.461334936792106" lon="10.51153025401211"><ele>71.0</ele><time>2026-04-19T08:30:17Z</time></trkpt><trkpt lat="43.46126568840938" lon="10.511550414702358"><ele>71.0</ele><time>2026-04-19T08:30:18Z</time></trkpt><trkpt lat="43.461202286573474" lon="10.511572884994836"><ele>71.0</ele><time>2026-04-19T08:30:19Z</time></trkpt><trkpt lat="43.46114038609614" lon="10.511595693260189"><ele>71.0</ele><time>2026-04-19T08:30:20Z</time></trkpt><trkpt lat="43.46107444295313" lon="10.51161528051644"><ele>71.0</ele><time>2026-04-19T08:30:21Z</time></trkpt><trkpt lat="43.461004159814124" lon="10.51163290502585"><ele>71.0</ele><time>2026-04-19T08:30:22Z</time></trkpt><trkpt lat="43.46093114462241" lon="10.511643360959338"><ele>71.0</ele><time>2026-04-19T08:30:23Z</time></trkpt><trkpt lat="43.46085325851906" lon="10.511648623821747"><ele>71.0</ele><time>2026-04-19T08:30:24Z</time></trkpt><trkpt lat="43.46078458081266" lon="10.51165221347973"><ele>71.0</ele><time>2026-04-19T08:30:25Z</time></trkpt><trkpt lat="43.46066855487704" lon="10.51165904101964"><ele>71.0</ele><time>2026-04-19T08:30:27Z</time></trkpt><trkpt lat="43.46056357991053" lon="10.511665218276912"><ele>71.0</ele><time>2026-04-19T08:30:29Z</time></trkpt><trkpt lat="43.46047639334093" lon="10.511693835746941"><ele>71.0</ele><time>2026-04-19T08:30:31Z</time></trkpt><trkpt lat="43.460383583610344" lon="10.511704903803375"><ele>71.33333333333334</ele><time>2026-04-19T08:30:34Z</time></trkpt><trkpt lat="43.4603133579438" lon="10.51171369875559"><ele>71.66666666666667</ele><time>2026-04-19T08:30:38Z</time></trkpt><trkpt lat="43.46024115993709" lon="10.511729741103881"><ele>72.0</ele><time>2026-04-19T08:30:40Z</time></trkpt><trkpt lat="43.46014650287806" lon="10.511735814724315"><ele>72.33333333333333</ele><time>2026-04-19T08:30:42Z</time></trkpt><trkpt lat="43.460072508749356" lon="10.511755783184157"><ele>72.66666666666666</ele><time>2026-04-19T08:30:44Z</time></trkpt><trkpt lat="43.46001084178999" lon="10.511775820568685"><ele>73.0</ele><time>2026-04-19T08:30:46Z</time></trkpt><trkpt lat="43.45992784915357" lon="10.511817627560983"><ele>73.0</ele><time>2026-04-19T08:30:49Z</time></trkpt><trkpt lat="43.45985944562521" lon="10.511884574827498"><ele>73.0</ele><time>2026-04-19T08:30:52Z</time></trkpt><trkpt lat="43.45980707944385" lon="10.511933737710155"><ele>73.0</ele><time>2026-04-19T08:30:54Z</time></trkpt><trkpt lat="43.459736655270454" lon="10.511965518392278"><ele>73.0</ele><time>2026-04-19T08:30:56Z</time></trkpt><trkpt lat="43.4596690071931" lon="10.512020586343619"><ele>73.0</ele><time>2026-04-19T08:30:58Z</time></trkpt><trkpt lat="43.459586703982545" lon="10.51208555513109"><ele>73.0</ele><time>2026-04-19T08:31:00Z</time></trkpt><trkpt lat="43.45950554164616" lon="10.512173101715437"><ele>73.4</ele><time>2026-04-19T08:31:02Z</time></trkpt><trkpt lat="43.4594083903716" lon="10.512222025776568"><ele>73.8</ele><time>2026-04-19T08:31:04Z</time></trkpt><trkpt lat="43.45932224695754" lon="10.51228238818435"><ele>74.2</ele><time>2026-04-19T08:31:06Z</time></trkpt><trkpt lat="43.45923381244654" lon="10.512338428283702"><ele>74.6</ele><time>2026-04-19T08:31:08Z</time></trkpt><trkpt lat="43.45913865137713" lon="10.512396927610103"><ele>75.0</ele><time>2026-04-19T08:31:10Z</time></trkpt><trkpt lat="43.45904153864767" lon="10.512456626527102"><ele>75.0</ele><time>2026-04-19T08:31:12Z</time></trkpt><trkpt lat="43.458939529581535" lon="10.512514457721757"><ele>75.0</ele><time>2026-04-19T08:31:14Z</time></trkpt><trkpt lat="43.45884459140432" lon="10.512542691703159"><ele>75.0</ele><time>2026-04-19T08:31:16Z</time></trkpt><trkpt lat="43.458771281761784" lon="10.512582297143592"><ele>75.0</ele><time>2026-04-19T08:31:18Z</time></trkpt><trkpt lat="43.45871067221033" lon="10.512653815229573"><ele>75.0</ele><time>2026-04-19T08:31:20Z</time></trkpt><trkpt lat="43.45867993187448" lon="10.51276797804255"><ele>75.6</ele><time>2026-04-19T08:31:22Z</time></trkpt><trkpt lat="43.45865284620877" lon="10.512896309906884"><ele>76.2</ele><time>2026-04-19T08:31:24Z</time></trkpt><trkpt lat="43.45859944606132" lon="10.513032080986576"><ele>76.8</ele><time>2026-04-19T08:31:26Z</time></trkpt><trkpt lat="43.45849595916363" lon="10.513131971592275"><ele>77.4</ele><time>2026-04-19T08:31:28Z</time></trkpt><trkpt lat="43.45843902942972" lon="10.513174061364786"><ele>78.0</ele><time>2026-04-19T08:31:29Z</time></trkpt><trkpt lat="43.45833318203618" lon="10.513252931329855"><ele>78.0</ele><time>2026-04-19T08:31:31Z</time></trkpt><trkpt lat="43.458240446293644" lon="10.513336582990263"><ele>78.0</ele><time>2026-04-19T08:31:33Z</time></trkpt><trkpt lat="43.458157050725546" lon="10.513444613058809"><ele>78.0</ele><time>2026-04-19T08:31:35Z</time></trkpt><trkpt lat="43.45809617277606" lon="10.513535250635233"><ele>78.0</ele><time>2026-04-19T08:31:37Z</time></trkpt><trkpt lat="43.45804109216254" lon="10.513581723234024"><ele>78.0</ele><time>2026-04-19T08:31:39Z</time></trkpt><trkpt lat="43.45797812571042" lon="10.513660686825792"><ele>77.83333333333333</ele><time>2026-04-19T08:31:42Z</time></trkpt><trkpt lat="43.4579127537707" lon="10.513715056559478"><ele>77.66666666666667</ele><time>2026-04-19T08:31:44Z</time></trkpt><trkpt lat="43.45784124360569" lon="10.513784357337105"><ele>77.5</ele><time>2026-04-19T08:31:46Z</time></trkpt><trkpt lat="43.45777665926712" lon="10.513818887379818"><ele>77.33333333333334</ele><time>2026-04-19T08:31:48Z</time></trkpt><trkpt lat="43.457690078275725" lon="10.513851622438025"><ele>77.16666666666667</ele><time>2026-04-19T08:31:51Z</time></trkpt><trkpt lat="43.45762726104723" lon="10.51386836012098"><ele>77.0</ele><time>2026-04-19T08:31:53Z</time></trkpt><trkpt lat="43.45756111642744" lon="10.513886646131322"><ele>77.0</ele><time>2026-04-19T08:31:55Z</time></trkpt><trkpt lat="43.457489073476346" lon="10.513874340940633"><ele>77.0</ele><time>2026-04-19T08:31:59Z</time></trkpt><trkpt lat="43.457426428738536" lon="10.513838728613033"><ele>77.0</ele><time>2026-04-19T08:32:04Z</time></trkpt><trkpt lat="43.45749536258406" lon="10.513729663200682"><ele>77.0</ele><time>2026-04-19T08:32:06Z</time></trkpt><trkpt lat="43.457533736668054" lon="10.513630166646694"><ele>77.0</ele><time>2026-04-19T08:32:08Z</time></trkpt><trkpt lat="43.4575718472874" lon="10.513531353124844"><ele>77.0</ele><time>2026-04-19T08:32:10Z</time></trkpt><trkpt lat="43.45760339231694" lon="10.513400840458486"><ele>77.0</ele><time>2026-04-19T08:32:12Z</time></trkpt><trkpt lat="43.45766542211913" lon="10.51328245031857"><ele>77.0</ele><time>2026-04-19T08:32:14Z</time></trkpt><trkpt lat="43.45771189099716" lon="10.513154013622477"><ele>77.0</ele><time>2026-04-19T08:32:16Z</time></trkpt><trkpt lat="43.457757343654" lon="10.513033428932442"><ele>77.0</ele><time>2026-04-19T08:32:18Z</time></trkpt><trkpt lat="43.45780025189828" lon="10.512919594510134"><ele>77.0</ele><time>2026-04-19T08:32:20Z</time></trkpt><trkpt lat="43.45782560394368" lon="10.512800643950097"><ele>76.5</ele><time>2026-04-19T08:32:22Z</time></trkpt><trkpt lat="43.457859154036115" lon="10.512692526174854"><ele>76.0</ele><time>2026-04-19T08:32:24Z</time></trkpt><trkpt lat="43.457888607964556" lon="10.51260985197599"><ele>75.5</ele><time>2026-04-19T08:32:26Z</time></trkpt><trkpt lat="43.457896754677705" lon="10.512510297564123"><ele>75.0</ele><time>2026-04-19T08:32:28Z</time></trkpt><trkpt lat="43.45791629054091" lon="10.512406266009398"><ele>74.5</ele><time>2026-04-19T08:32:30Z</time></trkpt><trkpt lat="43.45794614595874" lon="10.512289648466297"><ele>74.0</ele><time>2026-04-19T08:32:33Z</time></trkpt><trkpt lat="43.457966230167095" lon="10.512204516134517"><ele>75.0</ele><time>2026-04-19T08:32:35Z</time></trkpt><trkpt lat="43.45800105308628" lon="10.512126102059552"><ele>76.0</ele><time>2026-04-19T08:32:37Z</time></trkpt><trkpt lat="43.45802263326327" lon="10.512040037973147"><ele>77.0</ele><time>2026-04-19T08:32:39Z</time></trkpt><trkpt lat="43.45804531062474" lon="10.511949598287227"><ele>78.0</ele><time>2026-04-19T08:32:41Z</time></trkpt><trkpt lat="43.458069422001124" lon="10.5118536366101"><ele>79.0</ele><time>2026-04-19T08:32:43Z</time></trkpt><trkpt lat="43.45809675312518" lon="10.511751132960367"><ele>80.0</ele><time>2026-04-19T08:32:45Z</time></trkpt><trkpt lat="43.4581258295561" lon="10.511642206081898"><ele>81.0</ele><time>2026-04-19T08:32:47Z</time></trkpt><trkpt lat="43.45815833906709" lon="10.511525080641153"><ele>81.8</ele><time>2026-04-19T08:32:49Z</time></trkpt><trkpt lat="43.458181028833074" lon="10.511391286691527"><ele>82.6</ele><time>2026-04-19T08:32:51Z</time></trkpt><trkpt lat="43.45822133717454" lon="10.511259121830694"><ele>83.4</ele><time>2026-04-19T08:32:53Z</time></trkpt><trkpt lat="43.458261001301516" lon="10.511126141249324"><ele>84.2</ele><time>2026-04-19T08:32:55Z</time></trkpt><trkpt lat="43.458307699798944" lon="10.510975955385327"><ele>85.0</ele><time>2026-04-19T08:32:57Z</time></trkpt><trkpt lat="43.45835201162956" lon="10.510821456957828"><ele>86.0</ele><time>2026-04-19T08:32:59Z</time></trkpt><trkpt lat="43.45836685288824" lon="10.510668731342866"><ele>87.0</ele><time>2026-04-19T08:33:01Z</time></trkpt><trkpt lat="43.45836580086188" lon="10.510517780850316"><ele>88.0</ele><time>2026-04-19T08:33:03Z</time></trkpt><trkpt lat="43.458339416640875" lon="10.510357393256093"><ele>89.0</ele><time>2026-04-19T08:33:05Z</time></trkpt><trkpt lat="43.45833206396218" lon="10.510268367307232"><ele>90.0</ele><time>2026-04-19T08:33:06Z</time></trkpt><trkpt lat="43.45833913550302" lon="10.510176243162046"><ele>90.28571428571428</ele><time>2026-04-19T08:33:07Z</time></trkpt><trkpt lat="43.458330831624636" lon="10.510088480269564"><ele>90.57142857142858</ele><time>2026-04-19T08:33:08Z</time></trkpt><trkpt lat="43.45832260014331" lon="10.510001482570157"><ele>90.85714285714286</ele><time>2026-04-19T08:33:09Z</time></trkpt><trkpt lat="43.45829794040552" lon="10.50991864666351"><ele>91.14285714285714</ele><time>2026-04-19T08:33:10Z</time></trkpt><trkpt lat="43.45828955921177" lon="10.509830827097753"><ele>91.42857142857142</ele><time>2026-04-19T08:33:11Z</time></trkpt><trkpt lat="43.45828096034189" lon="10.509741222755284"><ele>91.71428571428572</ele><time>2026-04-19T08:33:12Z</time></trkpt><trkpt lat="43.458263046321946" lon="10.509651926023587"><ele>92.0</ele><time>2026-04-19T08:33:13Z</time></trkpt><trkpt lat="43.4582328028289" lon="10.50956687120178"><ele>91.33333333333334</ele><time>2026-04-19T08:33:14Z</time></trkpt><trkpt lat="43.458202583830825" lon="10.509486501014855"><ele>90.66666666666667</ele><time>2026-04-19T08:33:15Z</time></trkpt><trkpt lat="43.45814231543304" lon="10.509339943559734"><ele>90.0</ele><time>2026-04-19T08:33:17Z</time></trkpt><trkpt lat="43.45809439901682" lon="10.509182600026005"><ele>89.33333333333333</ele><time>2026-04-19T08:33:19Z</time></trkpt><trkpt lat="43.45806374116461" lon="10.509106270283974"><ele>88.66666666666666</ele><time>2026-04-19T08:33:20Z</time></trkpt><trkpt lat="43.458032005256214" lon="10.509027256564547"><ele>88.0</ele><time>2026-04-19T08:33:21Z</time></trkpt><trkpt lat="43.45799971942593" lon="10.508946873687016"><ele>88.0</ele><time>2026-04-19T08:33:22Z</time></trkpt><trkpt lat="43.457968066715544" lon="10.508868067127171"><ele>88.0</ele><time>2026-04-19T08:33:23Z</time></trkpt><trkpt lat="43.457923621514546" lon="10.508798977437285"><ele>88.0</ele><time>2026-04-19T08:33:24Z</time></trkpt><trkpt lat="43.45789569440858" lon="10.508719748420148"><ele>88.0</ele><time>2026-04-19T08:33:25Z</time></trkpt><trkpt lat="43.4578319330984" lon="10.508583890127216"><ele>88.0</ele><time>2026-04-19T08:33:27Z</time></trkpt><trkpt lat="43.45776549501487" lon="10.508466637109814"><ele>88.0</ele><time>2026-04-19T08:33:29Z</time></trkpt><trkpt lat="43.45769693995684" lon="10.50838089899076"><ele>87.33333333333333</ele><time>2026-04-19T08:33:31Z</time></trkpt><trkpt lat="43.45759738862316" lon="10.50837468782258"><ele>86.66666666666666</ele><time>2026-04-19T08:33:33Z</time></trkpt><trkpt lat="43.457504719799765" lon="10.508371539410335"><ele>86.0</ele><time>2026-04-19T08:33:35Z</time></trkpt><trkpt lat="43.45740375680532" lon="10.50837154861035"><ele>85.33333333333333</ele><time>2026-04-19T08:33:37Z</time></trkpt><trkpt lat="43.45734024856455" lon="10.508396583871518"><ele>84.66666666666667</ele><time>2026-04-19T08:33:38Z</time></trkpt><trkpt lat="43.45728271387071" lon="10.508436144556992"><ele>84.0</ele><time>2026-04-19T08:33:39Z</time></trkpt><trkpt lat="43.45723429775153" lon="10.508501634274204"><ele>84.0</ele><time>2026-04-19T08:33:40Z</time></trkpt><trkpt lat="43.45719013004433" lon="10.508563497515631"><ele>84.0</ele><time>2026-04-19T08:33:41Z</time></trkpt><trkpt lat="43.45710644864051" lon="10.5086863289804"><ele>84.0</ele><time>2026-04-19T08:33:43Z</time></trkpt><trkpt lat="43.45701472910304" lon="10.50879485377755"><ele>84.0</ele><time>2026-04-19T08:33:45Z</time></trkpt><trkpt lat="43.45692523375346" lon="10.508892412494648"><ele>84.0</ele><time>2026-04-19T08:33:47Z</time></trkpt><trkpt lat="43.45683015533889" lon="10.508935549851621"><ele>83.0</ele><time>2026-04-19T08:33:49Z</time></trkpt><trkpt lat="43.456711454738254" lon="10.50893355495663"><ele>82.0</ele><time>2026-04-19T08:33:51Z</time></trkpt><trkpt lat="43.456603071153914" lon="10.508904505238169"><ele>81.0</ele><time>2026-04-19T08:33:53Z</time></trkpt><trkpt lat="43.45650069005543" lon="10.508862898432515"><ele>80.0</ele><time>2026-04-19T08:33:55Z</time></trkpt><trkpt lat="43.45638574039546" lon="10.508824411794322"><ele>79.66666666666667</ele><time>2026-04-19T08:33:57Z</time></trkpt><trkpt lat="43.45627476687094" lon="10.508830099227296"><ele>79.33333333333334</ele><time>2026-04-19T08:33:59Z</time></trkpt><trkpt lat="43.45619571545337" lon="10.508835322398244"><ele>79.0</ele><time>2026-04-19T08:34:01Z</time></trkpt><trkpt lat="43.45612226922298" lon="10.508819662081379"><ele>78.66666666666667</ele><time>2026-04-19T08:34:03Z</time></trkpt><trkpt lat="43.456039892989956" lon="10.508789127921935"><ele>78.33333333333333</ele><time>2026-04-19T08:34:05Z</time></trkpt><trkpt lat="43.45594856186089" lon="10.50877228024202"><ele>78.0</ele><time>2026-04-19T08:34:07Z</time></trkpt><trkpt lat="43.45583965895638" lon="10.508700045156962"><ele>76.85714285714286</ele><time>2026-04-19T08:34:09Z</time></trkpt><trkpt lat="43.455778426405615" lon="10.508670289476537"><ele>75.71428571428571</ele><time>2026-04-19T08:34:10Z</time></trkpt><trkpt lat="43.45571425575019" lon="10.508639105990836"><ele>74.57142857142857</ele><time>2026-04-19T08:34:11Z</time></trkpt><trkpt lat="43.45564328315102" lon="10.508627114517324"><ele>73.42857142857143</ele><time>2026-04-19T08:34:12Z</time></trkpt><trkpt lat="43.45557373391054" lon="10.508596015310488"><ele>72.28571428571428</ele><time>2026-04-19T08:34:13Z</time></trkpt><trkpt lat="43.45550338561961" lon="10.508560933598606"><ele>71.14285714285714</ele><time>2026-04-19T08:34:14Z</time></trkpt><trkpt lat="43.45543177601829" lon="10.508529753044886"><ele>70.0</ele><time>2026-04-19T08:34:15Z</time></trkpt><trkpt lat="43.45535981569617" lon="10.508498657681194"><ele>70.0</ele><time>2026-04-19T08:34:16Z</time></trkpt><trkpt lat="43.45529195273198" lon="10.508456286340685"><ele>70.0</ele><time>2026-04-19T08:34:17Z</time></trkpt><trkpt lat="43.45522789220859" lon="10.508419741924419"><ele>70.0</ele><time>2026-04-19T08:34:18Z</time></trkpt><trkpt lat="43.455174321203046" lon="10.508361527383512"><ele>70.0</ele><time>2026-04-19T08:34:19Z</time></trkpt><trkpt lat="43.455113992148675" lon="10.508321227742208"><ele>70.0</ele><time>2026-04-19T08:34:20Z</time></trkpt><trkpt lat="43.45505394403591" lon="10.508281236521048"><ele>70.0</ele><time>2026-04-19T08:34:21Z</time></trkpt><trkpt lat="43.454986818447246" lon="10.508261073346576"><ele>70.0</ele><time>2026-04-19T08:34:22Z</time></trkpt><trkpt lat="43.45492493254842" lon="10.50822567129898"><ele>70.0</ele><time>2026-04-19T08:34:23Z</time></trkpt><trkpt lat="43.4548628698024" lon="10.508191842332218"><ele>70.0</ele><time>2026-04-19T08:34:24Z</time></trkpt><trkpt lat="43.45480055632534" lon="10.508161174842376"><ele>70.0</ele><time>2026-04-19T08:34:25Z</time></trkpt><trkpt lat="43.454736224851985" lon="10.508129633379445"><ele>70.0</ele><time>2026-04-19T08:34:26Z</time></trkpt><trkpt lat="43.454669559502356" lon="10.508100260966744"><ele>70.0</ele><time>2026-04-19T08:34:27Z</time></trkpt><trkpt lat="43.45460507834211" lon="10.508077646074877"><ele>70.0</ele><time>2026-04-19T08:34:28Z</time></trkpt><trkpt lat="43.45454619765025" lon="10.508037183983415"><ele>70.0</ele><time>2026-04-19T08:34:29Z</time></trkpt><trkpt lat="43.454427072025766" lon="10.508021770662518"><ele>69.8</ele><time>2026-04-19T08:34:31Z</time></trkpt><trkpt lat="43.45431733900808" lon="10.508022447050113"><ele>69.6</ele><time>2026-04-19T08:34:33Z</time></trkpt><trkpt lat="43.45422440670224" lon="10.507990071251754"><ele>69.4</ele><time>2026-04-19T08:34:35Z</time></trkpt><trkpt lat="43.454114613690074" lon="10.507964112004945"><ele>69.2</ele><time>2026-04-19T08:34:37Z</time></trkpt><trkpt lat="43.454045692341204" lon="10.507966806090806"><ele>69.0</ele><time>2026-04-19T08:34:38Z</time></trkpt><trkpt lat="43.45397767825513" lon="10.507943922661063"><ele>68.16666666666667</ele><time>2026-04-19T08:34:39Z</time></trkpt><trkpt lat="43.453919958295735" lon="10.507898323831407"><ele>67.33333333333333</ele><time>2026-04-19T08:34:40Z</time></trkpt><trkpt lat="43.45380110571823" lon="10.50784853425052"><ele>66.5</ele><time>2026-04-19T08:34:42Z</time></trkpt><trkpt lat="43.453740064758605" lon="10.507820133264671"><ele>65.66666666666666</ele><time>2026-04-19T08:34:43Z</time></trkpt><trkpt lat="43.4536804195357" lon="10.507785583272943"><ele>64.83333333333333</ele><time>2026-04-19T08:34:44Z</time></trkpt><trkpt lat="43.4536187069036" lon="10.507747397656836"><ele>64.0</ele><time>2026-04-19T08:34:45Z</time></trkpt><trkpt lat="43.45355521420926" lon="10.507706862658567"><ele>63.99999999999999</ele><time>2026-04-19T08:34:46Z</time></trkpt><trkpt lat="43.453491551009996" lon="10.507666218706103"><ele>64.0</ele><time>2026-04-19T08:34:47Z</time></trkpt><trkpt lat="43.45343105870145" lon="10.507625851739242"><ele>64.0</ele><time>2026-04-19T08:34:48Z</time></trkpt><trkpt lat="43.45337509370656" lon="10.507584877503076"><ele>64.0</ele><time>2026-04-19T08:34:49Z</time></trkpt><trkpt lat="43.45327590845995" lon="10.507493421791718"><ele>63.99999999999999</ele><time>2026-04-19T08:34:51Z</time></trkpt><trkpt lat="43.45318117148518" lon="10.507411328228505"><ele>64.0</ele><time>2026-04-19T08:34:53Z</time></trkpt><trkpt lat="43.453100204400506" lon="10.507314352664267"><ele>64.0</ele><time>2026-04-19T08:34:55Z</time></trkpt><trkpt lat="43.45299670707177" lon="10.50722518107864"><ele>64.0</ele><time>2026-04-19T08:34:57Z</time></trkpt><trkpt lat="43.45292013214412" lon="10.507141230544075"><ele>64.0</ele><time>2026-04-19T08:34:59Z</time></trkpt><trkpt lat="43.452849564568886" lon="10.50708380704575"><ele>64.0</ele><time>2026-04-19T08:35:01Z</time></trkpt><trkpt lat="43.45274943670603" lon="10.507026456345654"><ele>64.0</ele><time>2026-04-19T08:35:03Z</time></trkpt><trkpt lat="43.45263890016502" lon="10.506942297984143"><ele>64.0</ele><time>2026-04-19T08:35:05Z</time></trkpt><trkpt lat="43.45258002963808" lon="10.50689559757444"><ele>63.99999999999999</ele><time>2026-04-19T08:35:06Z</time></trkpt><trkpt lat="43.452518584104155" lon="10.50685306103182"><ele>64.0</ele><time>2026-04-19T08:35:07Z</time></trkpt><trkpt lat="43.45245871187384" lon="10.506815442221587"><ele>64.0</ele><time>2026-04-19T08:35:08Z</time></trkpt><trkpt lat="43.45240735401981" lon="10.506765059807558"><ele>63.99999999999999</ele><time>2026-04-19T08:35:09Z</time></trkpt><trkpt lat="43.45234901193337" lon="10.506729035019005"><ele>64.0</ele><time>2026-04-19T08:35:10Z</time></trkpt><trkpt lat="43.4522861575788" lon="10.506690224002122"><ele>64.0</ele><time>2026-04-19T08:35:11Z</time></trkpt><trkpt lat="43.45222578562615" lon="10.506649896106369"><ele>64.0</ele><time>2026-04-19T08:35:12Z</time></trkpt><trkpt lat="43.45215775622105" lon="10.506627744579859"><ele>63.99999999999999</ele><time>2026-04-19T08:35:13Z</time></trkpt><trkpt lat="43.45210403661614" lon="10.506564457091857"><ele>64.0</ele><time>2026-04-19T08:35:14Z</time></trkpt><trkpt lat="43.45204492053022" lon="10.506515065418487"><ele>64.0</ele><time>2026-04-19T08:35:15Z</time></trkpt><trkpt lat="43.45199239663915" lon="10.506455604490984"><ele>63.99999999999999</ele><time>2026-04-19T08:35:16Z</time></trkpt><trkpt lat="43.45194194080214" lon="10.506392734136881"><ele>64.0</ele><time>2026-04-19T08:35:17Z</time></trkpt><trkpt lat="43.45189272042167" lon="10.506328422720534"><ele>64.0</ele><time>2026-04-19T08:35:18Z</time></trkpt><trkpt lat="43.4518361209775" lon="10.506277293736767"><ele>63.33333333333333</ele><time>2026-04-19T08:35:19Z</time></trkpt><trkpt lat="43.451754809152305" lon="10.506159201696601"><ele>62.666666666666664</ele><time>2026-04-19T08:35:21Z</time></trkpt><trkpt lat="43.4516632499949" lon="10.506047958778208"><ele>62.0</ele><time>2026-04-19T08:35:23Z</time></trkpt><trkpt lat="43.451624181468745" lon="10.505971459659001"><ele>61.33333333333333</ele><time>2026-04-19T08:35:24Z</time></trkpt><trkpt lat="43.451574829023905" lon="10.50590836519924"><ele>60.666666666666664</ele><time>2026-04-19T08:35:25Z</time></trkpt><trkpt lat="43.451516885702944" lon="10.50585998746456"><ele>60.0</ele><time>2026-04-19T08:35:26Z</time></trkpt><trkpt lat="43.45148555540877" lon="10.505780892074766"><ele>60.0</ele><time>2026-04-19T08:35:27Z</time></trkpt><trkpt lat="43.451416300565775" lon="10.505641522130142"><ele>60.0</ele><time>2026-04-19T08:35:29Z</time></trkpt><trkpt lat="43.451337469342924" lon="10.505512921173567"><ele>60.0</ele><time>2026-04-19T08:35:31Z</time></trkpt><trkpt lat="43.451303839830864" lon="10.505433728319343"><ele>60.0</ele><time>2026-04-19T08:35:32Z</time></trkpt><trkpt lat="43.45126349141673" lon="10.505356365965145"><ele>60.0</ele><time>2026-04-19T08:35:33Z</time></trkpt><trkpt lat="43.451238119168664" lon="10.505263995154786"><ele>59.333333333333336</ele><time>2026-04-19T08:35:34Z</time></trkpt><trkpt lat="43.451202409909406" lon="10.50518720031446"><ele>58.66666666666667</ele><time>2026-04-19T08:35:35Z</time></trkpt><trkpt lat="43.45113523298758" lon="10.505042732416369"><ele>58.0</ele><time>2026-04-19T08:35:37Z</time></trkpt><trkpt lat="43.45109999112753" lon="10.504966942778147"><ele>57.333333333333336</ele><time>2026-04-19T08:35:38Z</time></trkpt><trkpt lat="43.451050863714805" lon="10.504902092848265"><ele>56.66666666666667</ele><time>2026-04-19T08:35:39Z</time></trkpt><trkpt lat="43.451015805485284" lon="10.504820147402516"><ele>56.0</ele><time>2026-04-19T08:35:40Z</time></trkpt><trkpt lat="43.45098664245584" lon="10.504729238577166"><ele>56.00000000000001</ele><time>2026-04-19T08:35:41Z</time></trkpt><trkpt lat="43.450948549347764" lon="10.504652893366195"><ele>56.0</ele><time>2026-04-19T08:35:42Z</time></trkpt><trkpt lat="43.4509116765821" lon="10.504578994001456"><ele>56.0</ele><time>2026-04-19T08:35:43Z</time></trkpt><trkpt lat="43.4508633965269" lon="10.5045190416912"><ele>56.0</ele><time>2026-04-19T08:35:44Z</time></trkpt><trkpt lat="43.45079110068761" lon="10.504385266656419"><ele>56.00000000000001</ele><time>2026-04-19T08:35:46Z</time></trkpt><trkpt lat="43.450726646621774" lon="10.504263362116305"><ele>56.0</ele><time>2026-04-19T08:35:48Z</time></trkpt><trkpt lat="43.45066316857298" lon="10.504144219451815"><ele>55.199999999999996</ele><time>2026-04-19T08:35:50Z</time></trkpt><trkpt lat="43.45058410350892" lon="10.504015199036095"><ele>54.39999999999999</ele><time>2026-04-19T08:35:52Z</time></trkpt><trkpt lat="43.45053477721803" lon="10.5039387027101"><ele>53.6</ele><time>2026-04-19T08:35:53Z</time></trkpt><trkpt lat="43.45048422191091" lon="10.503862651810438"><ele>52.8</ele><time>2026-04-19T08:35:54Z</time></trkpt><trkpt lat="43.45041350970307" lon="10.503761763199579"><ele>52.0</ele><time>2026-04-19T08:35:56Z</time></trkpt><trkpt lat="43.450355813670384" lon="10.50368926213164"><ele>50.99999999999999</ele><time>2026-04-19T08:35:58Z</time></trkpt><trkpt lat="43.45029437581705" lon="10.503617653717784"><ele>50.0</ele><time>2026-04-19T08:36:00Z</time></trkpt><trkpt lat="43.450198224843916" lon="10.503510915991766"><ele>49.0</ele><time>2026-04-19T08:36:02Z</time></trkpt><trkpt lat="43.45013504307307" lon="10.503470222049092"><ele>48.0</ele><time>2026-04-19T08:36:03Z</time></trkpt><trkpt lat="43.45007026137911" lon="10.503423018111665"><ele>47.0</ele><time>2026-04-19T08:36:04Z</time></trkpt><trkpt lat="43.45001031167646" lon="10.503375946328697"><ele>46.0</ele><time>2026-04-19T08:36:05Z</time></trkpt><trkpt lat="43.449964506362676" lon="10.503310373503165"><ele>46.0</ele><time>2026-04-19T08:36:06Z</time></trkpt><trkpt lat="43.44987056850042" lon="10.503215717109446"><ele>46.0</ele><time>2026-04-19T08:36:08Z</time></trkpt><trkpt lat="43.4498044053612" lon="10.503142799253911"><ele>46.0</ele><time>2026-04-19T08:36:11Z</time></trkpt><trkpt lat="43.44974803391855" lon="10.503079474326066"><ele>46.0</ele><time>2026-04-19T08:36:13Z</time></trkpt><trkpt lat="43.44966046792482" lon="10.503008681587264"><ele>46.0</ele><time>2026-04-19T08:36:15Z</time></trkpt><trkpt lat="43.449574573525695" lon="10.502916178368599"><ele>44.8</ele><time>2026-04-19T08:36:17Z</time></trkpt><trkpt lat="43.449491982397035" lon="10.50282565153165"><ele>43.599999999999994</ele><time>2026-04-19T08:36:19Z</time></trkpt><trkpt lat="43.449408951379326" lon="10.50275708435516"><ele>42.4</ele><time>2026-04-19T08:36:21Z</time></trkpt><trkpt lat="43.44932315049557" lon="10.502689613534084"><ele>41.2</ele><time>2026-04-19T08:36:23Z</time></trkpt><trkpt lat="43.44923267201251" lon="10.502617367841204"><ele>40.0</ele><time>2026-04-19T08:36:25Z</time></trkpt><trkpt lat="43.44914536624133" lon="10.50256985294131"><ele>40.0</ele><time>2026-04-19T08:36:27Z</time></trkpt><trkpt lat="43.44905749749223" lon="10.502521652739622"><ele>40.0</ele><time>2026-04-19T08:36:29Z</time></trkpt><trkpt lat="43.44894004057994" lon="10.502473222184333"><ele>40.0</ele><time>2026-04-19T08:36:31Z</time></trkpt><trkpt lat="43.44887729453613" lon="10.502453261574304"><ele>40.0</ele><time>2026-04-19T08:36:32Z</time></trkpt><trkpt lat="43.44881257780207" lon="10.502429603151894"><ele>40.0</ele><time>2026-04-19T08:36:33Z</time></trkpt><trkpt lat="43.44874431580168" lon="10.502410794883541"><ele>40.0</ele><time>2026-04-19T08:36:34Z</time></trkpt><trkpt lat="43.448671637426585" lon="10.502390078234416"><ele>39.5</ele><time>2026-04-19T08:36:35Z</time></trkpt><trkpt lat="43.44859925212672" lon="10.502372287888212"><ele>39.0</ele><time>2026-04-19T08:36:36Z</time></trkpt><trkpt lat="43.448528443612524" lon="10.502360619843365"><ele>38.5</ele><time>2026-04-19T08:36:37Z</time></trkpt><trkpt lat="43.44845757529373" lon="10.502355528608456"><ele>38.0</ele><time>2026-04-19T08:36:38Z</time></trkpt><trkpt lat="43.44834335260187" lon="10.502369540226166"><ele>37.5</ele><time>2026-04-19T08:36:40Z</time></trkpt><trkpt lat="43.44823731498126" lon="10.502420232055709"><ele>37.0</ele><time>2026-04-19T08:36:42Z</time></trkpt><trkpt lat="43.44812908098474" lon="10.502494932285938"><ele>37.0</ele><time>2026-04-19T08:36:44Z</time></trkpt><trkpt lat="43.44801593985168" lon="10.502548759430775"><ele>37.0</ele><time>2026-04-19T08:36:46Z</time></trkpt><trkpt lat="43.44791873839689" lon="10.502638330865583"><ele>37.0</ele><time>2026-04-19T08:36:48Z</time></trkpt><trkpt lat="43.447805422029894" lon="10.502686341557057"><ele>37.0</ele><time>2026-04-19T08:36:50Z</time></trkpt><trkpt lat="43.44774647904609" lon="10.502720818416465"><ele>37.0</ele><time>2026-04-19T08:36:51Z</time></trkpt><trkpt lat="43.44763367183927" lon="10.502768093521356"><ele>36.833333333333336</ele><time>2026-04-19T08:36:53Z</time></trkpt><trkpt lat="43.447540018121245" lon="10.50277179421263"><ele>36.66666666666667</ele><time>2026-04-19T08:36:55Z</time></trkpt><trkpt lat="43.44742962791403" lon="10.502729211569697"><ele>36.5</ele><time>2026-04-19T08:36:57Z</time></trkpt><trkpt lat="43.44738450457748" lon="10.502652707862568"><ele>36.333333333333336</ele><time>2026-04-19T08:36:58Z</time></trkpt><trkpt lat="43.44734007757301" lon="10.502573707796257"><ele>36.166666666666664</ele><time>2026-04-19T08:36:59Z</time></trkpt><trkpt lat="43.447286447823295" lon="10.502491024776893"><ele>36.0</ele><time>2026-04-19T08:37:00Z</time></trkpt><trkpt lat="43.44722225557495" lon="10.502419760345555"><ele>36.0</ele><time>2026-04-19T08:37:01Z</time></trkpt><trkpt lat="43.44716938934752" lon="10.50233821815245"><ele>36.0</ele><time>2026-04-19T08:37:02Z</time></trkpt><trkpt lat="43.44712106987368" lon="10.502253941037639"><ele>36.0</ele><time>2026-04-19T08:37:03Z</time></trkpt><trkpt lat="43.4470850205993" lon="10.502166466023219"><ele>36.0</ele><time>2026-04-19T08:37:04Z</time></trkpt><trkpt lat="43.44704255604615" lon="10.502096590546078"><ele>36.0</ele><time>2026-04-19T08:37:05Z</time></trkpt><trkpt lat="43.44695949791703" lon="10.501976657757066"><ele>36.0</ele><time>2026-04-19T08:37:07Z</time></trkpt><trkpt lat="43.44687575334652" lon="10.501891908794773"><ele>36.0</ele><time>2026-04-19T08:37:09Z</time></trkpt><trkpt lat="43.44676480175524" lon="10.501857837581374"><ele>36.0</ele><time>2026-04-19T08:37:11Z</time></trkpt><trkpt lat="43.44665797428343" lon="10.501885943695834"><ele>36.0</ele><time>2026-04-19T08:37:13Z</time></trkpt><trkpt lat="43.44655609563214" lon="10.50195933768151"><ele>36.0</ele><time>2026-04-19T08:37:15Z</time></trkpt><trkpt lat="43.44648204808035" lon="10.502046188467661"><ele>36.0</ele><time>2026-04-19T08:37:17Z</time></trkpt><trkpt lat="43.44641171832257" lon="10.502156335811557"><ele>36.2</ele><time>2026-04-19T08:37:19Z</time></trkpt><trkpt lat="43.44632166425852" lon="10.502255399649673"><ele>36.400000000000006</ele><time>2026-04-19T08:37:21Z</time></trkpt><trkpt lat="43.4462233167299" lon="10.502360701581672"><ele>36.6</ele><time>2026-04-19T08:37:23Z</time></trkpt><trkpt lat="43.44617148570414" lon="10.502420284281905"><ele>36.800000000000004</ele><time>2026-04-19T08:37:24Z</time></trkpt><trkpt lat="43.44610605089713" lon="10.502463985137275"><ele>37.0</ele><time>2026-04-19T08:37:25Z</time></trkpt><trkpt lat="43.44604770676728" lon="10.502525839716078"><ele>37.0</ele><time>2026-04-19T08:37:26Z</time></trkpt><trkpt lat="43.44598850335928" lon="10.502588605308404"><ele>37.0</ele><time>2026-04-19T08:37:27Z</time></trkpt><trkpt lat="43.44593517738951" lon="10.502667160890764"><ele>37.0</ele><time>2026-04-19T08:37:28Z</time></trkpt><trkpt lat="43.44587207447434" lon="10.502733777946554"><ele>37.0</ele><time>2026-04-19T08:37:29Z</time></trkpt><trkpt lat="43.44580687453779" lon="10.502801327699045"><ele>37.0</ele><time>2026-04-19T08:37:30Z</time></trkpt><trkpt lat="43.44573912081395" lon="10.502868786491593"><ele>37.0</ele><time>2026-04-19T08:37:31Z</time></trkpt><trkpt lat="43.44567034532292" lon="10.502937825229269"><ele>36.833333333333336</ele><time>2026-04-19T08:37:32Z</time></trkpt><trkpt lat="43.44560144450181" lon="10.503009515832575"><ele>36.66666666666667</ele><time>2026-04-19T08:37:33Z</time></trkpt><trkpt lat="43.44553279328076" lon="10.503086129915852"><ele>36.5</ele><time>2026-04-19T08:37:34Z</time></trkpt><trkpt lat="43.44545942048655" lon="10.503156828846915"><ele>36.333333333333336</ele><time>2026-04-19T08:37:35Z</time></trkpt><trkpt lat="43.44538457849064" lon="10.503229586272642"><ele>36.166666666666664</ele><time>2026-04-19T08:37:36Z</time></trkpt><trkpt lat="43.4453100189138" lon="10.503306855824768"><ele>36.0</ele><time>2026-04-19T08:37:37Z</time></trkpt><trkpt lat="43.445236835394496" lon="10.503388353604869"><ele>36.0</ele><time>2026-04-19T08:37:38Z</time></trkpt><trkpt lat="43.44515835444527" lon="10.503465407637917"><ele>36.0</ele><time>2026-04-19T08:37:39Z</time></trkpt><trkpt lat="43.44508188770946" lon="10.503543390678221"><ele>36.0</ele><time>2026-04-19T08:37:40Z</time></trkpt><trkpt lat="43.445006232237944" lon="10.503620565322635"><ele>36.0</ele><time>2026-04-19T08:37:41Z</time></trkpt><trkpt lat="43.4449305568486" lon="10.503697027927931"><ele>36.0</ele><time>2026-04-19T08:37:42Z</time></trkpt><trkpt lat="43.44485564136783" lon="10.503774053366165"><ele>36.6</ele><time>2026-04-19T08:37:43Z</time></trkpt><trkpt lat="43.44478134886247" lon="10.503852146164947"><ele>37.2</ele><time>2026-04-19T08:37:44Z</time></trkpt><trkpt lat="43.44470786828603" lon="10.503929763833595"><ele>37.8</ele><time>2026-04-19T08:37:45Z</time></trkpt><trkpt lat="43.4446345745026" lon="10.504008720888672"><ele>38.4</ele><time>2026-04-19T08:37:46Z</time></trkpt><trkpt lat="43.444561997738056" lon="10.5040866690507"><ele>39.0</ele><time>2026-04-19T08:37:47Z</time></trkpt><trkpt lat="43.444478525427385" lon="10.504145684364893"><ele>39.0</ele><time>2026-04-19T08:37:48Z</time></trkpt><trkpt lat="43.44441586261369" lon="10.504211038117438"><ele>39.0</ele><time>2026-04-19T08:37:49Z</time></trkpt><trkpt lat="43.44435003489414" lon="10.504278979685628"><ele>39.0</ele><time>2026-04-19T08:37:50Z</time></trkpt><trkpt lat="43.444278918949664" lon="10.504352379234733"><ele>39.0</ele><time>2026-04-19T08:37:51Z</time></trkpt><trkpt lat="43.444203754887944" lon="10.504453936673384"><ele>39.0</ele><time>2026-04-19T08:37:52Z</time></trkpt><trkpt lat="43.4441283092507" lon="10.50452475952695"><ele>39.0</ele><time>2026-04-19T08:37:53Z</time></trkpt><trkpt lat="43.44405635583804" lon="10.504598461679754"><ele>39.5</ele><time>2026-04-19T08:37:54Z</time></trkpt><trkpt lat="43.443988147467856" lon="10.504673058164059"><ele>40.0</ele><time>2026-04-19T08:37:55Z</time></trkpt><trkpt lat="43.44391879833452" lon="10.504743032577794"><ele>40.5</ele><time>2026-04-19T08:37:56Z</time></trkpt><trkpt lat="43.44385240298499" lon="10.504810767754602"><ele>41.0</ele><time>2026-04-19T08:37:57Z</time></trkpt><trkpt lat="43.443774310419116" lon="10.504860306341737"><ele>41.5</ele><time>2026-04-19T08:37:58Z</time></trkpt><trkpt lat="43.44370361053088" lon="10.504930024969005"><ele>42.0</ele><time>2026-04-19T08:37:59Z</time></trkpt><trkpt lat="43.44363268283803" lon="10.505000256941562"><ele>42.833333333333336</ele><time>2026-04-19T08:38:00Z</time></trkpt><trkpt lat="43.44356391770557" lon="10.505068347551354"><ele>43.666666666666664</ele><time>2026-04-19T08:38:01Z</time></trkpt><trkpt lat="43.44349857034688" lon="10.505134917874347"><ele>44.5</ele><time>2026-04-19T08:38:02Z</time></trkpt><trkpt lat="43.44343517611517" lon="10.50520001770791"><ele>45.33333333333333</ele><time>2026-04-19T08:38:03Z</time></trkpt><trkpt lat="43.443373514418596" lon="10.505285991808181"><ele>46.166666666666664</ele><time>2026-04-19T08:38:04Z</time></trkpt><trkpt lat="43.44331398559606" lon="10.505345884652572"><ele>47.0</ele><time>2026-04-19T08:38:05Z</time></trkpt><trkpt lat="43.4432597477152" lon="10.5054075720754"><ele>48.0</ele><time>2026-04-19T08:38:06Z</time></trkpt><trkpt lat="43.4431935822089" lon="10.505447239630474"><ele>49.0</ele><time>2026-04-19T08:38:07Z</time></trkpt><trkpt lat="43.44313682340517" lon="10.505505091785759"><ele>50.0</ele><time>2026-04-19T08:38:08Z</time></trkpt><trkpt lat="43.44306267938596" lon="10.50559652309463"><ele>51.0</ele><time>2026-04-19T08:38:10Z</time></trkpt><trkpt lat="43.44298451172831" lon="10.505596174521497"><ele>52.00000000000001</ele><time>2026-04-19T08:38:14Z</time></trkpt><trkpt lat="43.442926000847464" lon="10.505517152353198"><ele>53.0</ele><time>2026-04-19T08:38:16Z</time></trkpt><trkpt lat="43.442893940984845" lon="10.505437875931039"><ele>52.8</ele><time>2026-04-19T08:38:17Z</time></trkpt><trkpt lat="43.4428588902852" lon="10.505335133949748"><ele>52.599999999999994</ele><time>2026-04-19T08:38:18Z</time></trkpt><trkpt lat="43.442821715460546" lon="10.50522554996192"><ele>52.400000000000006</ele><time>2026-04-19T08:38:19Z</time></trkpt><trkpt lat="43.44277172823303" lon="10.505092904906784"><ele>52.2</ele><time>2026-04-19T08:38:20Z</time></trkpt><trkpt lat="43.44270955855331" lon="10.504942940244183"><ele>52.0</ele><time>2026-04-19T08:38:21Z</time></trkpt><trkpt lat="43.44264026065356" lon="10.5047824782461"><ele>52.0</ele><time>2026-04-19T08:38:22Z</time></trkpt><trkpt lat="43.44257403569025" lon="10.504623340971674"><ele>52.0</ele><time>2026-04-19T08:38:23Z</time></trkpt><trkpt lat="43.4425088094965" lon="10.504467178098208"><ele>52.0</ele><time>2026-04-19T08:38:24Z</time></trkpt><trkpt lat="43.44244867511079" lon="10.504316428078145"><ele>52.0</ele><time>2026-04-19T08:38:25Z</time></trkpt><trkpt lat="43.44239680398708" lon="10.504175692409508"><ele>51.0</ele><time>2026-04-19T08:38:26Z</time></trkpt><trkpt lat="43.442349966071745" lon="10.504030894860735"><ele>50.0</ele><time>2026-04-19T08:38:27Z</time></trkpt><trkpt lat="43.44230884560141" lon="10.503883247071364"><ele>49.0</ele><time>2026-04-19T08:38:28Z</time></trkpt><trkpt lat="43.442267880059084" lon="10.503732940188156"><ele>48.0</ele><time>2026-04-19T08:38:29Z</time></trkpt><trkpt lat="43.4422287983774" lon="10.503585499419266"><ele>48.0</ele><time>2026-04-19T08:38:30Z</time></trkpt><trkpt lat="43.44219272123253" lon="10.503443118979783"><ele>48.0</ele><time>2026-04-19T08:38:31Z</time></trkpt><trkpt lat="43.442160126326684" lon="10.503305822730352"><ele>48.0</ele><time>2026-04-19T08:38:32Z</time></trkpt><trkpt lat="43.442130602296494" lon="10.50317494565173"><ele>48.0</ele><time>2026-04-19T08:38:33Z</time></trkpt><trkpt lat="43.44210722521194" lon="10.503065147343992"><ele>48.0</ele><time>2026-04-19T08:38:34Z</time></trkpt><trkpt lat="43.44208780817046" lon="10.502972690368763"><ele>48.2</ele><time>2026-04-19T08:38:35Z</time></trkpt><trkpt lat="43.44205791919243" lon="10.502824720863128"><ele>48.4</ele><time>2026-04-19T08:38:37Z</time></trkpt><trkpt lat="43.44203883369136" lon="10.50270466848391"><ele>48.6</ele><time>2026-04-19T08:38:39Z</time></trkpt><trkpt lat="43.44193264091751" lon="10.50266216704914"><ele>48.800000000000004</ele><time>2026-04-19T08:38:40Z</time></trkpt><trkpt lat="43.44182093195429" lon="10.502704105972619"><ele>49.0</ele><time>2026-04-19T08:38:42Z</time></trkpt><trkpt lat="43.44169178155142" lon="10.502730019342382"><ele>48.99999999999999</ele><time>2026-04-19T08:38:44Z</time></trkpt><trkpt lat="43.4416172057502" lon="10.502743886642625"><ele>49.0</ele><time>2026-04-19T08:38:45Z</time></trkpt><trkpt lat="43.44153814237609" lon="10.502757470530346"><ele>49.0</ele><time>2026-04-19T08:38:46Z</time></trkpt><trkpt lat="43.44146055837853" lon="10.502771113850375"><ele>49.0</ele><time>2026-04-19T08:38:47Z</time></trkpt><trkpt lat="43.44138074037938" lon="10.502785066503884"><ele>48.99999999999999</ele><time>2026-04-19T08:38:48Z</time></trkpt><trkpt lat="43.44130060385492" lon="10.50280026478424"><ele>49.0</ele><time>2026-04-19T08:38:49Z</time></trkpt><trkpt lat="43.44121933416454" lon="10.502815197281091"><ele>48.99999999999999</ele><time>2026-04-19T08:38:50Z</time></trkpt><trkpt lat="43.44113982269175" lon="10.502828496360843"><ele>49.0</ele><time>2026-04-19T08:38:51Z</time></trkpt><trkpt lat="43.44106241644751" lon="10.502841568674803"><ele>49.0</ele><time>2026-04-19T08:38:52Z</time></trkpt><trkpt lat="43.440979471044024" lon="10.502857946981244"><ele>49.0</ele><time>2026-04-19T08:38:53Z</time></trkpt><trkpt lat="43.44089503514095" lon="10.502875892436984"><ele>48.99999999999999</ele><time>2026-04-19T08:38:54Z</time></trkpt><trkpt lat="43.440808579764436" lon="10.502891992180182"><ele>49.0</ele><time>2026-04-19T08:38:55Z</time></trkpt><trkpt lat="43.44071799623536" lon="10.502884595115818"><ele>48.99999999999999</ele><time>2026-04-19T08:38:56Z</time></trkpt><trkpt lat="43.44063072631327" lon="10.502924451375657"><ele>49.0</ele><time>2026-04-19T08:38:57Z</time></trkpt><trkpt lat="43.440546050431806" lon="10.502945263593613"><ele>49.0</ele><time>2026-04-19T08:38:58Z</time></trkpt><trkpt lat="43.44046253716082" lon="10.502968333131596"><ele>49.0</ele><time>2026-04-19T08:38:59Z</time></trkpt><trkpt lat="43.44037838537112" lon="10.502990729800477"><ele>48.99999999999999</ele><time>2026-04-19T08:39:00Z</time></trkpt><trkpt lat="43.440290707896196" lon="10.50301090924912"><ele>49.0</ele><time>2026-04-19T08:39:01Z</time></trkpt><trkpt lat="43.440201453694414" lon="10.503026628036208"><ele>47.99999999999999</ele><time>2026-04-19T08:39:02Z</time></trkpt><trkpt lat="43.44011775878618" lon="10.503034728625344"><ele>47.0</ele><time>2026-04-19T08:39:03Z</time></trkpt><trkpt lat="43.44003749473144" lon="10.503036845010513"><ele>46.0</ele><time>2026-04-19T08:39:04Z</time></trkpt><trkpt lat="43.43996081175427" lon="10.503035373121946"><ele>45.0</ele><time>2026-04-19T08:39:05Z</time></trkpt><trkpt lat="43.43988175662067" lon="10.503032394473754"><ele>44.0</ele><time>2026-04-19T08:39:06Z</time></trkpt><trkpt lat="43.43979819773266" lon="10.50302333699583"><ele>43.0</ele><time>2026-04-19T08:39:07Z</time></trkpt><trkpt lat="43.43972409461964" lon="10.502991225639402"><ele>43.00000000000001</ele><time>2026-04-19T08:39:08Z</time></trkpt><trkpt lat="43.4396491690228" lon="10.502978046804547"><ele>43.0</ele><time>2026-04-19T08:39:09Z</time></trkpt><trkpt lat="43.43957504422842" lon="10.502964644500208"><ele>43.0</ele><time>2026-04-19T08:39:10Z</time></trkpt><trkpt lat="43.43949790403297" lon="10.502953958669261"><ele>43.0</ele><time>2026-04-19T08:39:11Z</time></trkpt><trkpt lat="43.439422050212244" lon="10.50294339747726"><ele>43.0</ele><time>2026-04-19T08:39:12Z</time></trkpt><trkpt lat="43.43934986596354" lon="10.502935136822574"><ele>43.00000000000001</ele><time>2026-04-19T08:39:13Z</time></trkpt><trkpt lat="43.43928003430648" lon="10.502928701562361"><ele>43.0</ele><time>2026-04-19T08:39:14Z</time></trkpt><trkpt lat="43.43920998211081" lon="10.502923057546749"><ele>42.66666666666667</ele><time>2026-04-19T08:39:15Z</time></trkpt><trkpt lat="43.43913268183665" lon="10.502916829562048"><ele>42.333333333333336</ele><time>2026-04-19T08:39:16Z</time></trkpt><trkpt lat="43.43905341570247" lon="10.502910443191011"><ele>42.0</ele><time>2026-04-19T08:39:17Z</time></trkpt><trkpt lat="43.43897968826425" lon="10.50290475348105"><ele>41.666666666666664</ele><time>2026-04-19T08:39:18Z</time></trkpt><trkpt lat="43.4389038642305" lon="10.502899287294973"><ele>41.33333333333333</ele><time>2026-04-19T08:39:19Z</time></trkpt><trkpt lat="43.43882479816469" lon="10.502893587387877"><ele>41.0</ele><time>2026-04-19T08:39:20Z</time></trkpt><trkpt lat="43.43874342313173" lon="10.502887721024448"><ele>41.0</ele><time>2026-04-19T08:39:21Z</time></trkpt><trkpt lat="43.438657535322726" lon="10.502881529335436"><ele>41.0</ele><time>2026-04-19T08:39:22Z</time></trkpt><trkpt lat="43.43856735330984" lon="10.50287502807427"><ele>41.0</ele><time>2026-04-19T08:39:23Z</time></trkpt><trkpt lat="43.43847352437739" lon="10.502868263899904"><ele>41.0</ele><time>2026-04-19T08:39:24Z</time></trkpt><trkpt lat="43.4383791635412" lon="10.502862094007348"><ele>41.0</ele><time>2026-04-19T08:39:25Z</time></trkpt><trkpt lat="43.43828207487792" lon="10.502855774507381"><ele>41.0</ele><time>2026-04-19T08:39:26Z</time></trkpt><trkpt lat="43.43818435636192" lon="10.502849414013827"><ele>41.0</ele><time>2026-04-19T08:39:27Z</time></trkpt><trkpt lat="43.43808711747777" lon="10.502843084740187"><ele>41.0</ele><time>2026-04-19T08:39:28Z</time></trkpt><trkpt lat="43.4379908258546" lon="10.502836817121787"><ele>41.0</ele><time>2026-04-19T08:39:29Z</time></trkpt><trkpt lat="43.43789906245153" lon="10.502829117664646"><ele>41.0</ele><time>2026-04-19T08:39:30Z</time></trkpt><trkpt lat="43.43781154143066" lon="10.502820295393455"><ele>40.5</ele><time>2026-04-19T08:39:31Z</time></trkpt><trkpt lat="43.43772994253236" lon="10.502810918507901"><ele>40.0</ele><time>2026-04-19T08:39:32Z</time></trkpt><trkpt lat="43.43764530249009" lon="10.502801193971903"><ele>39.5</ele><time>2026-04-19T08:39:33Z</time></trkpt><trkpt lat="43.43755673914062" lon="10.502792011922013"><ele>39.0</ele><time>2026-04-19T08:39:34Z</time></trkpt><trkpt lat="43.43747122679645" lon="10.502784929844015"><ele>38.5</ele><time>2026-04-19T08:39:35Z</time></trkpt><trkpt lat="43.43738877666733" lon="10.502779401800892"><ele>38.0</ele><time>2026-04-19T08:39:36Z</time></trkpt><trkpt lat="43.43731136298171" lon="10.502776860803724"><ele>38.0</ele><time>2026-04-19T08:39:37Z</time></trkpt><trkpt lat="43.43723121613812" lon="10.502778406091906"><ele>38.0</ele><time>2026-04-19T08:39:38Z</time></trkpt><trkpt lat="43.43714647999936" lon="10.50279602838875"><ele>38.0</ele><time>2026-04-19T08:39:39Z</time></trkpt><trkpt lat="43.4370555478239" lon="10.502839090648894"><ele>38.0</ele><time>2026-04-19T08:39:40Z</time></trkpt><trkpt lat="43.43698529714108" lon="10.502925709241406"><ele>38.0</ele><time>2026-04-19T08:39:41Z</time></trkpt><trkpt lat="43.4369293508401" lon="10.503000909938603"><ele>38.0</ele><time>2026-04-19T08:39:42Z</time></trkpt><trkpt lat="43.436886123111215" lon="10.503075421218945"><ele>37.83333333333333</ele><time>2026-04-19T08:39:43Z</time></trkpt><trkpt lat="43.43685004510262" lon="10.503148397352565"><ele>37.666666666666664</ele><time>2026-04-19T08:39:44Z</time></trkpt><trkpt lat="43.43679126234089" lon="10.503261471386798"><ele>37.5</ele><time>2026-04-19T08:39:46Z</time></trkpt><trkpt lat="43.436709856788546" lon="10.503285220974973"><ele>37.333333333333336</ele><time>2026-04-19T08:39:48Z</time></trkpt><trkpt lat="43.43662867085794" lon="10.503339581356165"><ele>37.16666666666667</ele><time>2026-04-19T08:39:50Z</time></trkpt><trkpt lat="43.43655044902751" lon="10.50343350401034"><ele>37.0</ele><time>2026-04-19T08:39:52Z</time></trkpt><trkpt lat="43.43649062875895" lon="10.503560369349987"><ele>37.0</ele><time>2026-04-19T08:39:54Z</time></trkpt><trkpt lat="43.436470939066126" lon="10.503642867575945"><ele>37.0</ele><time>2026-04-19T08:39:55Z</time></trkpt><trkpt lat="43.43645497515294" lon="10.50373313072836"><ele>37.0</ele><time>2026-04-19T08:39:56Z</time></trkpt><trkpt lat="43.43643880226857" lon="10.503830651076852"><ele>37.0</ele><time>2026-04-19T08:39:57Z</time></trkpt><trkpt lat="43.43642081700372" lon="10.503935376321714"><ele>37.0</ele><time>2026-04-19T08:39:58Z</time></trkpt><trkpt lat="43.43640033996157" lon="10.504037643786688"><ele>37.0</ele><time>2026-04-19T08:39:59Z</time></trkpt><trkpt lat="43.43637798499906" lon="10.504134203536482"><ele>37.0</ele><time>2026-04-19T08:40:00Z</time></trkpt><trkpt lat="43.436350134089636" lon="10.50422607172955"><ele>37.0</ele><time>2026-04-19T08:40:01Z</time></trkpt><trkpt lat="43.43632336284512" lon="10.504313784037953"><ele>37.0</ele><time>2026-04-19T08:40:02Z</time></trkpt><trkpt lat="43.43630352187202" lon="10.504401260967741"><ele>37.0</ele><time>2026-04-19T08:40:03Z</time></trkpt><trkpt lat="43.43630173927997" lon="10.504560573144182"><ele>37.0</ele><time>2026-04-19T08:40:05Z</time></trkpt><trkpt lat="43.43636390570314" lon="10.504704912117063"><ele>37.0</ele><time>2026-04-19T08:40:07Z</time></trkpt><trkpt lat="43.43641155796625" lon="10.50476611353748"><ele>37.0</ele><time>2026-04-19T08:40:08Z</time></trkpt><trkpt lat="43.43644591530323" lon="10.50484322874774"><ele>37.0</ele><time>2026-04-19T08:40:09Z</time></trkpt><trkpt lat="43.436453493281704" lon="10.504936122335938"><ele>37.0</ele><time>2026-04-19T08:40:10Z</time></trkpt><trkpt lat="43.436418300154536" lon="10.505030220595321"><ele>37.0</ele><time>2026-04-19T08:40:11Z</time></trkpt><trkpt lat="43.43639688893641" lon="10.505137154059991"><ele>37.0</ele><time>2026-04-19T08:40:12Z</time></trkpt><trkpt lat="43.43634631000586" lon="10.505227835012693"><ele>37.0</ele><time>2026-04-19T08:40:13Z</time></trkpt><trkpt lat="43.43631449850111" lon="10.505331442434072"><ele>37.0</ele><time>2026-04-19T08:40:14Z</time></trkpt><trkpt lat="43.43628355652155" lon="10.505433799950461"><ele>37.0</ele><time>2026-04-19T08:40:15Z</time></trkpt><trkpt lat="43.43625358603449" lon="10.505535443202703"><ele>37.0</ele><time>2026-04-19T08:40:16Z</time></trkpt><trkpt lat="43.43622316674562" lon="10.5056291393667"><ele>37.0</ele><time>2026-04-19T08:40:17Z</time></trkpt><trkpt lat="43.436194893992486" lon="10.505725414061661"><ele>37.0</ele><time>2026-04-19T08:40:18Z</time></trkpt><trkpt lat="43.43617211835809" lon="10.505828638972526"><ele>37.0</ele><time>2026-04-19T08:40:19Z</time></trkpt><trkpt lat="43.4361609910005" lon="10.50594426529563"><ele>37.0</ele><time>2026-04-19T08:40:20Z</time></trkpt><trkpt lat="43.43616709323492" lon="10.506063873617762"><ele>37.0</ele><time>2026-04-19T08:40:21Z</time></trkpt><trkpt lat="43.43618550495111" lon="10.506181210537317"><ele>37.0</ele><time>2026-04-19T08:40:22Z</time></trkpt><trkpt lat="43.43620990199961" lon="10.506294326967828"><ele>37.0</ele><time>2026-04-19T08:40:23Z</time></trkpt><trkpt lat="43.436232444437536" lon="10.506403311234019"><ele>37.0</ele><time>2026-04-19T08:40:24Z</time></trkpt><trkpt lat="43.43625103623775" lon="10.506513383158804"><ele>37.0</ele><time>2026-04-19T08:40:25Z</time></trkpt><trkpt lat="43.43626234583982" lon="10.50662746157588"><ele>37.0</ele><time>2026-04-19T08:40:26Z</time></trkpt><trkpt lat="43.43626188032956" lon="10.506737958984427"><ele>36.833333333333336</ele><time>2026-04-19T08:40:27Z</time></trkpt><trkpt lat="43.43626115412261" lon="10.506840926262111"><ele>36.66666666666667</ele><time>2026-04-19T08:40:28Z</time></trkpt><trkpt lat="43.43625915675245" lon="10.506936874037892"><ele>36.5</ele><time>2026-04-19T08:40:29Z</time></trkpt><trkpt lat="43.43625955431393" lon="10.507026109942158"><ele>36.333333333333336</ele><time>2026-04-19T08:40:30Z</time></trkpt><trkpt lat="43.43622991773854" lon="10.507173630367014"><ele>36.166666666666664</ele><time>2026-04-19T08:40:32Z</time></trkpt><trkpt lat="43.436194546430904" lon="10.50733413381366"><ele>36.0</ele><time>2026-04-19T08:40:34Z</time></trkpt><trkpt lat="43.436177036659466" lon="10.507418351634447"><ele>36.333333333333336</ele><time>2026-04-19T08:40:35Z</time></trkpt><trkpt lat="43.436158601012494" lon="10.507507022810058"><ele>36.666666666666664</ele><time>2026-04-19T08:40:36Z</time></trkpt><trkpt lat="43.43614246314238" lon="10.50760334140499"><ele>37.0</ele><time>2026-04-19T08:40:37Z</time></trkpt><trkpt lat="43.43613304419279" lon="10.507709785029903"><ele>37.33333333333333</ele><time>2026-04-19T08:40:38Z</time></trkpt><trkpt lat="43.436143654020164" lon="10.507821744144842"><ele>37.666666666666664</ele><time>2026-04-19T08:40:39Z</time></trkpt><trkpt lat="43.43617321767907" lon="10.507928321272383"><ele>38.0</ele><time>2026-04-19T08:40:40Z</time></trkpt><trkpt lat="43.436198247543025" lon="10.508026179292582"><ele>38.0</ele><time>2026-04-19T08:40:41Z</time></trkpt><trkpt lat="43.436227946509725" lon="10.508122775994849"><ele>38.0</ele><time>2026-04-19T08:40:42Z</time></trkpt><trkpt lat="43.43627290149504" lon="10.508209302630204"><ele>38.0</ele><time>2026-04-19T08:40:43Z</time></trkpt><trkpt lat="43.436292660933326" lon="10.508314333587203"><ele>38.0</ele><time>2026-04-19T08:40:44Z</time></trkpt><trkpt lat="43.436302448040095" lon="10.508424772179767"><ele>38.0</ele><time>2026-04-19T08:40:45Z</time></trkpt><trkpt lat="43.43630850380119" lon="10.508536121002992"><ele>38.0</ele><time>2026-04-19T08:40:46Z</time></trkpt><trkpt lat="43.43631277294898" lon="10.50864304253464"><ele>38.33333333333333</ele><time>2026-04-19T08:40:47Z</time></trkpt><trkpt lat="43.43631885399407" lon="10.508749351549545"><ele>38.666666666666664</ele><time>2026-04-19T08:40:48Z</time></trkpt><trkpt lat="43.43632847061977" lon="10.508852167885106"><ele>39.0</ele><time>2026-04-19T08:40:49Z</time></trkpt><trkpt lat="43.43633825740656" lon="10.508954970840968"><ele>39.333333333333336</ele><time>2026-04-19T08:40:50Z</time></trkpt><trkpt lat="43.43634796103338" lon="10.509057031410062"><ele>39.66666666666667</ele><time>2026-04-19T08:40:51Z</time></trkpt><trkpt lat="43.43635668245714" lon="10.509158144827373"><ele>40.0</ele><time>2026-04-19T08:40:52Z</time></trkpt><trkpt lat="43.43636241801614" lon="10.50925838879765"><ele>40.0</ele><time>2026-04-19T08:40:53Z</time></trkpt><trkpt lat="43.436365060935834" lon="10.509359902688061"><ele>40.0</ele><time>2026-04-19T08:40:54Z</time></trkpt><trkpt lat="43.436361055093315" lon="10.509460189155469"><ele>40.0</ele><time>2026-04-19T08:40:55Z</time></trkpt><trkpt lat="43.43634901060072" lon="10.509558348696489"><ele>40.0</ele><time>2026-04-19T08:40:56Z</time></trkpt><trkpt lat="43.436331034706136" lon="10.509652480839925"><ele>40.0</ele><time>2026-04-19T08:40:57Z</time></trkpt><trkpt lat="43.43631767943765" lon="10.5097454917709"><ele>40.0</ele><time>2026-04-19T08:40:58Z</time></trkpt><trkpt lat="43.43630977195429" lon="10.509837844878678"><ele>40.0</ele><time>2026-04-19T08:40:59Z</time></trkpt><trkpt lat="43.43630049683354" lon="10.509925938260197"><ele>42.4</ele><time>2026-04-19T08:41:00Z</time></trkpt><trkpt lat="43.436289237266756" lon="10.510012523239611"><ele>44.8</ele><time>2026-04-19T08:41:01Z</time></trkpt><trkpt lat="43.43627135242759" lon="10.510144968320942"><ele>47.2</ele><time>2026-04-19T08:41:03Z</time></trkpt><trkpt lat="43.43625457605659" lon="10.510270361457518"><ele>49.6</ele><time>2026-04-19T08:41:05Z</time></trkpt><trkpt lat="43.43624184342922" lon="10.510405224043483"><ele>52.0</ele><time>2026-04-19T08:41:07Z</time></trkpt><trkpt lat="43.43623033160633" lon="10.51055373426235"><ele>52.83333333333333</ele><time>2026-04-19T08:41:09Z</time></trkpt><trkpt lat="43.436212095554836" lon="10.510716754185374"><ele>53.666666666666664</ele><time>2026-04-19T08:41:11Z</time></trkpt><trkpt lat="43.43620510997006" lon="10.510807752056976"><ele>54.5</ele><time>2026-04-19T08:41:12Z</time></trkpt><trkpt lat="43.43619763230757" lon="10.51090229724043"><ele>55.33333333333333</ele><time>2026-04-19T08:41:13Z</time></trkpt><trkpt lat="43.436189177626986" lon="10.5109930478813"><ele>56.166666666666664</ele><time>2026-04-19T08:41:14Z</time></trkpt><trkpt lat="43.43617541355018" lon="10.511162269390349"><ele>57.0</ele><time>2026-04-19T08:41:16Z</time></trkpt><trkpt lat="43.43616682836615" lon="10.511253827808229"><ele>57.5</ele><time>2026-04-19T08:41:17Z</time></trkpt><trkpt lat="43.436156052646076" lon="10.511348869103868"><ele>58.0</ele><time>2026-04-19T08:41:18Z</time></trkpt><trkpt lat="43.43614386352823" lon="10.511444134189482"><ele>58.5</ele><time>2026-04-19T08:41:19Z</time></trkpt><trkpt lat="43.436133300251086" lon="10.51153290090458"><ele>59.0</ele><time>2026-04-19T08:41:20Z</time></trkpt><trkpt lat="43.43611991863004" lon="10.511692754026257"><ele>59.5</ele><time>2026-04-19T08:41:22Z</time></trkpt><trkpt lat="43.43611384179144" lon="10.511801336957602"><ele>60.0</ele><time>2026-04-19T08:42:10Z</time></trkpt><trkpt lat="43.4360996657618" lon="10.511895051534312"><ele>60.0</ele><time>2026-04-19T08:42:14Z</time></trkpt><trkpt lat="43.436093330792914" lon="10.511985183494698"><ele>60.0</ele><time>2026-04-19T08:42:18Z</time></trkpt><trkpt lat="43.43609059515062" lon="10.512077149733265"><ele>60.0</ele><time>2026-04-19T08:42:22Z</time></trkpt><trkpt lat="43.43608554503597" lon="10.51216779931438"><ele>60.0</ele><time>2026-04-19T08:42:26Z</time></trkpt><trkpt lat="43.436079359794924" lon="10.512264367610394"><ele>60.0</ele><time>2026-04-19T08:42:30Z</time></trkpt><trkpt lat="43.43607185727498" lon="10.512367841780264"><ele>60.0</ele><time>2026-04-19T08:42:34Z</time></trkpt><trkpt lat="43.436066749169385" lon="10.51246008883311"><ele>60.0</ele><time>2026-04-19T08:42:38Z</time></trkpt><trkpt lat="43.43606013022825" lon="10.512548479446645"><ele>60.0</ele><time>2026-04-19T08:42:42Z</time></trkpt><trkpt lat="43.436048789406854" lon="10.512641928001193"><ele>60.0</ele><time>2026-04-19T08:43:15Z</time></trkpt><trkpt lat="43.43603627276733" lon="10.512727421210446"><ele>60.0</ele><time>2026-04-19T08:43:18Z</time></trkpt><trkpt lat="43.43602256252557" lon="10.512835504558915"><ele>60.0</ele><time>2026-04-19T08:43:22Z</time></trkpt><trkpt lat="43.43601334092866" lon="10.512927686574312"><ele>60.0</ele><time>2026-04-19T08:43:26Z</time></trkpt><trkpt lat="43.43600209924992" lon="10.513032657694962"><ele>60.0</ele><time>2026-04-19T08:43:31Z</time></trkpt><trkpt lat="43.43599126988399" lon="10.51313803361374"><ele>60.0</ele><time>2026-04-19T08:43:36Z</time></trkpt><trkpt lat="43.43598149115813" lon="10.513231883914063"><ele>60.57142857142857</ele><time>2026-04-19T08:43:40Z</time></trkpt><trkpt lat="43.43596946721944" lon="10.51332917648834"><ele>61.14285714285714</ele><time>2026-04-19T08:43:44Z</time></trkpt><trkpt lat="43.4359653889048" lon="10.513424790541471"><ele>61.71428571428571</ele><time>2026-04-19T08:43:58Z</time></trkpt><trkpt lat="43.43595888827989" lon="10.513511332865203"><ele>62.285714285714285</ele><time>2026-04-19T08:44:02Z</time></trkpt><trkpt lat="43.43595355931418" lon="10.513600783104001"><ele>62.85714285714285</ele><time>2026-04-19T08:44:06Z</time></trkpt><trkpt lat="43.43594678628121" lon="10.513695427172404"><ele>63.42857142857142</ele><time>2026-04-19T08:44:09Z</time></trkpt><trkpt lat="43.435937063704955" lon="10.513797826563119"><ele>64.0</ele><time>2026-04-19T08:44:12Z</time></trkpt><trkpt lat="43.435928606156715" lon="10.513895194417843"><ele>64.5</ele><time>2026-04-19T08:44:15Z</time></trkpt><trkpt lat="43.43591997167179" lon="10.51400152634433"><ele>65.0</ele><time>2026-04-19T08:44:18Z</time></trkpt><trkpt lat="43.43591191034072" lon="10.514102272869849"><ele>65.5</ele><time>2026-04-19T08:44:21Z</time></trkpt><trkpt lat="43.435902791232266" lon="10.514216059622006"><ele>66.0</ele><time>2026-04-19T08:44:25Z</time></trkpt><trkpt lat="43.43589459393724" lon="10.514308099413293"><ele>66.5</ele><time>2026-04-19T08:44:28Z</time></trkpt><trkpt lat="43.435886029845115" lon="10.514413615565925"><ele>67.0</ele><time>2026-04-19T08:44:31Z</time></trkpt><trkpt lat="43.43587843120839" lon="10.51452952509415"><ele>67.28571428571429</ele><time>2026-04-19T08:44:35Z</time></trkpt><trkpt lat="43.43587134753028" lon="10.514641158713028"><ele>67.57142857142857</ele><time>2026-04-19T08:44:39Z</time></trkpt><trkpt lat="43.43584532655016" lon="10.514745205445362"><ele>67.85714285714286</ele><time>2026-04-19T08:44:42Z</time></trkpt><trkpt lat="43.4358365843426" lon="10.51483119291046"><ele>68.14285714285714</ele><time>2026-04-19T08:44:45Z</time></trkpt><trkpt lat="43.4358249940877" lon="10.51494519350257"><ele>68.42857142857143</ele><time>2026-04-19T08:44:49Z</time></trkpt><trkpt lat="43.43581605757562" lon="10.515033092121472"><ele>68.71428571428572</ele><time>2026-04-19T08:44:52Z</time></trkpt><trkpt lat="43.43580880432807" lon="10.515120914702585"><ele>69.0</ele><time>2026-04-19T08:44:55Z</time></trkpt><trkpt lat="43.43580165836476" lon="10.515208089583382"><ele>69.0</ele><time>2026-04-19T08:44:58Z</time></trkpt><trkpt lat="43.43579302465493" lon="10.515313413764465"><ele>69.0</ele><time>2026-04-19T08:45:01Z</time></trkpt><trkpt lat="43.43578275978728" lon="10.515438636779423"><ele>69.0</ele><time>2026-04-19T08:45:04Z</time></trkpt><trkpt lat="43.43577535054021" lon="10.515529023474379"><ele>69.0</ele><time>2026-04-19T08:45:07Z</time></trkpt><trkpt lat="43.435766310852465" lon="10.515638502477328"><ele>69.0</ele><time>2026-04-19T08:45:10Z</time></trkpt><trkpt lat="43.43575656651031" lon="10.515747038793423"><ele>69.0</ele><time>2026-04-19T08:45:14Z</time></trkpt><trkpt lat="43.43574849313798" lon="10.515836963178916"><ele>69.42857142857143</ele><time>2026-04-19T08:45:17Z</time></trkpt><trkpt lat="43.43573851059427" lon="10.515944044145986"><ele>69.85714285714286</ele><time>2026-04-19T08:45:21Z</time></trkpt><trkpt lat="43.43572957537505" lon="10.51603687224545"><ele>70.28571428571429</ele><time>2026-04-19T08:45:25Z</time></trkpt><trkpt lat="43.43571929565564" lon="10.516130197733919"><ele>70.71428571428572</ele><time>2026-04-19T08:45:29Z</time></trkpt><trkpt lat="43.4357093502801" lon="10.516220487835584"><ele>71.14285714285714</ele><time>2026-04-19T08:45:33Z</time></trkpt><trkpt lat="43.435698975276" lon="10.51631467840022"><ele>71.57142857142858</ele><time>2026-04-19T08:45:37Z</time></trkpt><trkpt lat="43.43568906917553" lon="10.516404611953707"><ele>72.0</ele><time>2026-04-19T08:45:41Z</time></trkpt><trkpt lat="43.43567894110749" lon="10.516502310491923"><ele>72.33333333333333</ele><time>2026-04-19T08:45:45Z</time></trkpt><trkpt lat="43.43566994511245" lon="10.516593604447001"><ele>72.66666666666667</ele><time>2026-04-19T08:45:49Z</time></trkpt><trkpt lat="43.43565905933922" lon="10.516704076429454"><ele>73.0</ele><time>2026-04-19T08:45:54Z</time></trkpt><trkpt lat="43.435648139972535" lon="10.516799950453239"><ele>73.33333333333334</ele><time>2026-04-19T08:45:56Z</time></trkpt><trkpt lat="43.435631565718374" lon="10.516923923633176"><ele>73.66666666666667</ele><time>2026-04-19T08:45:58Z</time></trkpt><trkpt lat="43.435613575753486" lon="10.51703480656457"><ele>74.0</ele><time>2026-04-19T08:46:00Z</time></trkpt><trkpt lat="43.43558783963504" lon="10.51717206917667"><ele>74.0</ele><time>2026-04-19T08:46:02Z</time></trkpt><trkpt lat="43.4355502068543" lon="10.517323380825779"><ele>74.0</ele><time>2026-04-19T08:46:04Z</time></trkpt><trkpt lat="43.435501894753756" lon="10.517476429968093"><ele>74.0</ele><time>2026-04-19T08:46:06Z</time></trkpt><trkpt lat="43.4354782802247" lon="10.517561537842491"><ele>74.0</ele><time>2026-04-19T08:46:07Z</time></trkpt><trkpt lat="43.43545350302852" lon="10.51764580908425"><ele>74.0</ele><time>2026-04-19T08:46:08Z</time></trkpt><trkpt lat="43.43543039595345" lon="10.517805294519725"><ele>73.8</ele><time>2026-04-19T08:46:10Z</time></trkpt><trkpt lat="43.43542528030886" lon="10.517970899953488"><ele>73.60000000000001</ele><time>2026-04-19T08:46:12Z</time></trkpt><trkpt lat="43.43543288914338" lon="10.5181421333582"><ele>73.4</ele><time>2026-04-19T08:46:14Z</time></trkpt><trkpt lat="43.43543881748341" lon="10.518232708523646"><ele>73.2</ele><time>2026-04-19T08:46:15Z</time></trkpt><trkpt lat="43.43544337798589" lon="10.518326358578195"><ele>73.0</ele><time>2026-04-19T08:46:16Z</time></trkpt><trkpt lat="43.43544582052553" lon="10.518426601891546"><ele>73.0</ele><time>2026-04-19T08:46:17Z</time></trkpt><trkpt lat="43.43544502066015" lon="10.518532693515606"><ele>73.0</ele><time>2026-04-19T08:46:18Z</time></trkpt><trkpt lat="43.435438488367836" lon="10.518640780690056"><ele>73.0</ele><time>2026-04-19T08:46:19Z</time></trkpt><trkpt lat="43.43542736002356" lon="10.518751793308184"><ele>73.0</ele><time>2026-04-19T08:46:20Z</time></trkpt><trkpt lat="43.43541640507292" lon="10.518859723324745"><ele>73.0</ele><time>2026-04-19T08:46:21Z</time></trkpt><trkpt lat="43.43540520750345" lon="10.518963531192567"><ele>73.0</ele><time>2026-04-19T08:46:22Z</time></trkpt><trkpt lat="43.43539103777434" lon="10.519059764755593"><ele>72.85714285714286</ele><time>2026-04-19T08:46:23Z</time></trkpt><trkpt lat="43.43537478054233" lon="10.519149778910343"><ele>72.71428571428572</ele><time>2026-04-19T08:46:24Z</time></trkpt><trkpt lat="43.43535913796607" lon="10.519235653967918"><ele>72.57142857142858</ele><time>2026-04-19T08:46:25Z</time></trkpt><trkpt lat="43.43534411418441" lon="10.519322239600841"><ele>72.42857142857143</ele><time>2026-04-19T08:46:26Z</time></trkpt><trkpt lat="43.43533092366956" lon="10.5194114406682"><ele>72.28571428571429</ele><time>2026-04-19T08:46:27Z</time></trkpt><trkpt lat="43.43531921806114" lon="10.51950453194435"><ele>72.14285714285715</ele><time>2026-04-19T08:46:28Z</time></trkpt><trkpt lat="43.435308667485614" lon="10.519602039113783"><ele>72.0</ele><time>2026-04-19T08:46:29Z</time></trkpt><trkpt lat="43.43529806586466" lon="10.519705880204915"><ele>72.0</ele><time>2026-04-19T08:46:30Z</time></trkpt><trkpt lat="43.43528864484376" lon="10.519815248070048"><ele>72.0</ele><time>2026-04-19T08:46:31Z</time></trkpt><trkpt lat="43.4352804028816" lon="10.519928658061206"><ele>72.0</ele><time>2026-04-19T08:46:32Z</time></trkpt><trkpt lat="43.43527445795413" lon="10.52004442828247"><ele>72.0</ele><time>2026-04-19T08:46:33Z</time></trkpt><trkpt lat="43.43527106879635" lon="10.520160317218378"><ele>72.0</ele><time>2026-04-19T08:46:34Z</time></trkpt><trkpt lat="43.43526850544048" lon="10.520276317635906"><ele>72.0</ele><time>2026-04-19T08:46:35Z</time></trkpt><trkpt lat="43.43526747302089" lon="10.520389930293396"><ele>72.83333333333333</ele><time>2026-04-19T08:46:36Z</time></trkpt><trkpt lat="43.43526654102594" lon="10.52049778306038"><ele>73.66666666666667</ele><time>2026-04-19T08:46:37Z</time></trkpt><trkpt lat="43.435264100725654" lon="10.52060039556759"><ele>74.5</ele><time>2026-04-19T08:46:38Z</time></trkpt><trkpt lat="43.43526275298919" lon="10.52070290817101"><ele>75.33333333333334</ele><time>2026-04-19T08:46:39Z</time></trkpt><trkpt lat="43.43526229718141" lon="10.520805276350833"><ele>76.16666666666667</ele><time>2026-04-19T08:46:40Z</time></trkpt><trkpt lat="43.43526305888198" lon="10.52091266444984"><ele>77.0</ele><time>2026-04-19T08:46:41Z</time></trkpt><trkpt lat="43.43526498052292" lon="10.52102114857937"><ele>77.0</ele><time>2026-04-19T08:46:42Z</time></trkpt><trkpt lat="43.43526795785203" lon="10.521125973254058"><ele>77.0</ele><time>2026-04-19T08:46:43Z</time></trkpt><trkpt lat="43.435272527049264" lon="10.521225588123487"><ele>77.0</ele><time>2026-04-19T08:46:44Z</time></trkpt><trkpt lat="43.43528047154989" lon="10.52132099598163"><ele>77.0</ele><time>2026-04-19T08:46:45Z</time></trkpt><trkpt lat="43.43529186277469" lon="10.521414744452443"><ele>77.0</ele><time>2026-04-19T08:46:46Z</time></trkpt><trkpt lat="43.435308683256196" lon="10.521511168220554"><ele>77.0</ele><time>2026-04-19T08:46:47Z</time></trkpt><trkpt lat="43.435331964209546" lon="10.521605064725618"><ele>77.0</ele><time>2026-04-19T08:46:48Z</time></trkpt><trkpt lat="43.43535933095755" lon="10.521693347733411"><ele>77.33333333333334</ele><time>2026-04-19T08:46:49Z</time></trkpt><trkpt lat="43.43537259982212" lon="10.521790626802897"><ele>77.66666666666667</ele><time>2026-04-19T08:46:50Z</time></trkpt><trkpt lat="43.43540567671452" lon="10.521877061857229"><ele>78.0</ele><time>2026-04-19T08:46:51Z</time></trkpt><trkpt lat="43.43544203631243" lon="10.5219619835406"><ele>78.33333333333333</ele><time>2026-04-19T08:46:52Z</time></trkpt><trkpt lat="43.43548806517776" lon="10.522051074615117"><ele>78.66666666666666</ele><time>2026-04-19T08:46:53Z</time></trkpt><trkpt lat="43.435538303918676" lon="10.522136409784299"><ele>79.0</ele><time>2026-04-19T08:46:54Z</time></trkpt><trkpt lat="43.43560448763436" lon="10.522203081150206"><ele>79.33333333333333</ele><time>2026-04-19T08:46:55Z</time></trkpt><trkpt lat="43.43564858513465" lon="10.522300157205079"><ele>79.66666666666666</ele><time>2026-04-19T08:46:56Z</time></trkpt><trkpt lat="43.43570580592128" lon="10.522383456850159"><ele>80.0</ele><time>2026-04-19T08:46:57Z</time></trkpt><trkpt lat="43.435768117384335" lon="10.52246790769983"><ele>80.33333333333333</ele><time>2026-04-19T08:46:58Z</time></trkpt><trkpt lat="43.43583190233967" lon="10.522553963166066"><ele>80.66666666666667</ele><time>2026-04-19T08:46:59Z</time></trkpt><trkpt lat="43.435895202367945" lon="10.52264150527327"><ele>81.0</ele><time>2026-04-19T08:47:00Z</time></trkpt><trkpt lat="43.43595834795231" lon="10.522731822542191"><ele>81.0</ele><time>2026-04-19T08:47:01Z</time></trkpt><trkpt lat="43.43602311501167" lon="10.522829025910838"><ele>81.0</ele><time>2026-04-19T08:47:02Z</time></trkpt><trkpt lat="43.43608249285742" lon="10.522932897369369"><ele>81.0</ele><time>2026-04-19T08:47:03Z</time></trkpt><trkpt lat="43.43613156240957" lon="10.52304700327596"><ele>81.0</ele><time>2026-04-19T08:47:04Z</time></trkpt><trkpt lat="43.436173189126414" lon="10.523169853683351"><ele>81.0</ele><time>2026-04-19T08:47:05Z</time></trkpt><trkpt lat="43.43621703610062" lon="10.523286987083631"><ele>80.83333333333333</ele><time>2026-04-19T08:47:06Z</time></trkpt><trkpt lat="43.436237429268694" lon="10.523413627900108"><ele>80.66666666666667</ele><time>2026-04-19T08:47:07Z</time></trkpt><trkpt lat="43.43625255836602" lon="10.523536105518849"><ele>80.5</ele><time>2026-04-19T08:47:08Z</time></trkpt><trkpt lat="43.436263749675014" lon="10.523657069984376"><ele>80.33333333333334</ele><time>2026-04-19T08:47:09Z</time></trkpt><trkpt lat="43.43627642282782" lon="10.523773254816945"><ele>80.16666666666667</ele><time>2026-04-19T08:47:10Z</time></trkpt><trkpt lat="43.43628643013516" lon="10.523885912805797"><ele>80.0</ele><time>2026-04-19T08:47:11Z</time></trkpt><trkpt lat="43.43629761117858" lon="10.524004834391196"><ele>80.2</ele><time>2026-04-19T08:47:12Z</time></trkpt><trkpt lat="43.4363047282334" lon="10.524129495992586"><ele>80.4</ele><time>2026-04-19T08:47:13Z</time></trkpt><trkpt lat="43.436296264093556" lon="10.524257954027846"><ele>80.6</ele><time>2026-04-19T08:47:14Z</time></trkpt><trkpt lat="43.43629887877159" lon="10.52438573171193"><ele>80.8</ele><time>2026-04-19T08:47:15Z</time></trkpt><trkpt lat="43.43630183151871" lon="10.52451213633845"><ele>81.0</ele><time>2026-04-19T08:47:16Z</time></trkpt><trkpt lat="43.43630416760657" lon="10.524637039934248"><ele>82.19999999999999</ele><time>2026-04-19T08:47:17Z</time></trkpt><trkpt lat="43.43630770278635" lon="10.524765493288262"><ele>83.39999999999999</ele><time>2026-04-19T08:47:18Z</time></trkpt><trkpt lat="43.43631446710211" lon="10.524896326697643"><ele>84.6</ele><time>2026-04-19T08:47:19Z</time></trkpt><trkpt lat="43.43632598283588" lon="10.525029707063968"><ele>85.8</ele><time>2026-04-19T08:47:20Z</time></trkpt><trkpt lat="43.43634155004363" lon="10.525165406709302"><ele>87.0</ele><time>2026-04-19T08:47:21Z</time></trkpt><trkpt lat="43.43636041435864" lon="10.525304142556985"><ele>87.39999999999999</ele><time>2026-04-19T08:47:22Z</time></trkpt><trkpt lat="43.43637978887113" lon="10.525443861820627"><ele>87.8</ele><time>2026-04-19T08:47:23Z</time></trkpt><trkpt lat="43.43639854196171" lon="10.525579523852523"><ele>88.2</ele><time>2026-04-19T08:47:24Z</time></trkpt><trkpt lat="43.43641569202123" lon="10.525708388381569"><ele>88.6</ele><time>2026-04-19T08:47:25Z</time></trkpt><trkpt lat="43.436432512156664" lon="10.525832180165786"><ele>89.0</ele><time>2026-04-19T08:47:26Z</time></trkpt><trkpt lat="43.436446909053686" lon="10.525945072986941"><ele>89.0</ele><time>2026-04-19T08:47:27Z</time></trkpt><trkpt lat="43.43645949032209" lon="10.526047588267678"><ele>89.0</ele><time>2026-04-19T08:47:28Z</time></trkpt><trkpt lat="43.436470988246846" lon="10.526141610669967"><ele>89.0</ele><time>2026-04-19T08:47:29Z</time></trkpt><trkpt lat="43.43648868216776" lon="10.526302114365434"><ele>89.0</ele><time>2026-04-19T08:47:31Z</time></trkpt><trkpt lat="43.43650459073104" lon="10.526431992160882"><ele>89.0</ele><time>2026-04-19T08:47:33Z</time></trkpt><trkpt lat="43.436523028619426" lon="10.526562385563963"><ele>89.16666666666667</ele><time>2026-04-19T08:47:35Z</time></trkpt><trkpt lat="43.4365383239949" lon="10.526673651222751"><ele>89.33333333333334</ele><time>2026-04-19T08:47:37Z</time></trkpt><trkpt lat="43.43655433801081" lon="10.526790395261072"><ele>89.5</ele><time>2026-04-19T08:47:40Z</time></trkpt><trkpt lat="43.436568958608255" lon="10.526896105334862"><ele>89.66666666666667</ele><time>2026-04-19T08:47:43Z</time></trkpt><trkpt lat="43.436581744880584" lon="10.52698576692275"><ele>89.83333333333333</ele><time>2026-04-19T08:47:45Z</time></trkpt><trkpt lat="43.43659659118155" lon="10.52707760521584"><ele>90.0</ele><time>2026-04-19T08:47:47Z</time></trkpt><trkpt lat="43.43661175564089" lon="10.527169545996165"><ele>90.33333333333333</ele><time>2026-04-19T08:47:49Z</time></trkpt><trkpt lat="43.436626861536396" lon="10.527256044638577"><ele>90.66666666666667</ele><time>2026-04-19T08:47:51Z</time></trkpt><trkpt lat="43.436648786878045" lon="10.527377485131387"><ele>91.0</ele><time>2026-04-19T08:47:54Z</time></trkpt><trkpt lat="43.436670629192804" lon="10.52749957679056"><ele>91.33333333333334</ele><time>2026-04-19T08:47:57Z</time></trkpt><trkpt lat="43.43669374615246" lon="10.527624211343909"><ele>91.66666666666667</ele><time>2026-04-19T08:48:00Z</time></trkpt><trkpt lat="43.43671014589106" lon="10.527708028582326"><ele>92.0</ele><time>2026-04-19T08:48:02Z</time></trkpt><trkpt lat="43.43673874038048" lon="10.527825766414841"><ele>92.42857142857143</ele><time>2026-04-19T08:48:05Z</time></trkpt><trkpt lat="43.43677272968054" lon="10.527944946880726"><ele>92.85714285714285</ele><time>2026-04-19T08:48:08Z</time></trkpt><trkpt lat="43.436802496867585" lon="10.528031352564732"><ele>93.28571428571428</ele><time>2026-04-19T08:48:10Z</time></trkpt><trkpt lat="43.43683522711372" lon="10.528110405250956"><ele>93.71428571428572</ele><time>2026-04-19T08:48:12Z</time></trkpt><trkpt lat="43.436869254121405" lon="10.528198417565127"><ele>94.14285714285714</ele><time>2026-04-19T08:48:14Z</time></trkpt><trkpt lat="43.43690218148177" lon="10.528279723703843"><ele>94.57142857142857</ele><time>2026-04-19T08:48:16Z</time></trkpt><trkpt lat="43.4369410278365" lon="10.528365884973983"><ele>95.0</ele><time>2026-04-19T08:48:18Z</time></trkpt><trkpt lat="43.43699207256552" lon="10.528465320997382"><ele>95.0</ele><time>2026-04-19T08:48:20Z</time></trkpt><trkpt lat="43.437055881358205" lon="10.528569108862012"><ele>95.0</ele><time>2026-04-19T08:48:22Z</time></trkpt><trkpt lat="43.43713125534077" lon="10.52867474502747"><ele>95.0</ele><time>2026-04-19T08:48:24Z</time></trkpt><trkpt lat="43.43720597891297" lon="10.52878432448506"><ele>95.0</ele><time>2026-04-19T08:48:26Z</time></trkpt><trkpt lat="43.43728019292524" lon="10.528892537904714"><ele>95.0</ele><time>2026-04-19T08:48:28Z</time></trkpt><trkpt lat="43.43736509234048" lon="10.529002513321508"><ele>96.0</ele><time>2026-04-19T08:48:30Z</time></trkpt><trkpt lat="43.437453974870685" lon="10.529110047449054"><ele>97.0</ele><time>2026-04-19T08:48:32Z</time></trkpt><trkpt lat="43.437541052957876" lon="10.529219416474408"><ele>98.0</ele><time>2026-04-19T08:48:34Z</time></trkpt><trkpt lat="43.43763004793967" lon="10.529336405286957"><ele>99.0</ele><time>2026-04-19T08:48:36Z</time></trkpt><trkpt lat="43.43767699020551" lon="10.529399806775965"><ele>100.0</ele><time>2026-04-19T08:48:37Z</time></trkpt><trkpt lat="43.43772600113983" lon="10.529465523721079"><ele>100.00000000000001</ele><time>2026-04-19T08:48:38Z</time></trkpt><trkpt lat="43.43777471151891" lon="10.529532878449356"><ele>100.0</ele><time>2026-04-19T08:48:39Z</time></trkpt><trkpt lat="43.43782107072606" lon="10.529600147950134"><ele>100.0</ele><time>2026-04-19T08:48:40Z</time></trkpt><trkpt lat="43.43786620316986" lon="10.52966627418028"><ele>100.0</ele><time>2026-04-19T08:48:41Z</time></trkpt><trkpt lat="43.43789410343735" lon="10.529748537435886"><ele>100.00000000000001</ele><time>2026-04-19T08:48:42Z</time></trkpt><trkpt lat="43.43796896465456" lon="10.529880594115467"><ele>100.0</ele><time>2026-04-19T08:48:44Z</time></trkpt><trkpt lat="43.438042950901306" lon="10.530011346952397"><ele>100.50000000000001</ele><time>2026-04-19T08:48:46Z</time></trkpt><trkpt lat="43.4380827962445" lon="10.530079493033824"><ele>101.0</ele><time>2026-04-19T08:48:47Z</time></trkpt><trkpt lat="43.438125956581345" lon="10.530150042288458"><ele>101.5</ele><time>2026-04-19T08:48:48Z</time></trkpt><trkpt lat="43.43816865537225" lon="10.530217140335457"><ele>102.0</ele><time>2026-04-19T08:48:49Z</time></trkpt><trkpt lat="43.43821187454598" lon="10.530281371920514"><ele>102.50000000000001</ele><time>2026-04-19T08:48:50Z</time></trkpt><trkpt lat="43.438305152081085" lon="10.5303976979196"><ele>103.0</ele><time>2026-04-19T08:48:52Z</time></trkpt><trkpt lat="43.438341918479765" lon="10.530473770507227"><ele>102.99999999999999</ele><time>2026-04-19T08:48:53Z</time></trkpt><trkpt lat="43.43838003990424" lon="10.530556787053541"><ele>103.0</ele><time>2026-04-19T08:48:54Z</time></trkpt><trkpt lat="43.438415828605706" lon="10.530642393095327"><ele>103.0</ele><time>2026-04-19T08:48:55Z</time></trkpt><trkpt lat="43.43844868351789" lon="10.530730666108257"><ele>103.0</ele><time>2026-04-19T08:48:56Z</time></trkpt><trkpt lat="43.43847612243228" lon="10.530820969678752"><ele>103.0</ele><time>2026-04-19T08:48:57Z</time></trkpt><trkpt lat="43.43849935606203" lon="10.530912616301759"><ele>102.99999999999999</ele><time>2026-04-19T08:48:58Z</time></trkpt><trkpt lat="43.43851919289778" lon="10.531003837670426"><ele>103.0</ele><time>2026-04-19T08:48:59Z</time></trkpt><trkpt lat="43.43853612441488" lon="10.531094964766368"><ele>102.99999999999999</ele><time>2026-04-19T08:49:00Z</time></trkpt><trkpt lat="43.43855088099438" lon="10.531186299303567"><ele>103.0</ele><time>2026-04-19T08:49:01Z</time></trkpt><trkpt lat="43.4385632157322" lon="10.53127784174944"><ele>103.0</ele><time>2026-04-19T08:49:02Z</time></trkpt><trkpt lat="43.43857514012244" lon="10.531367723913435"><ele>103.0</ele><time>2026-04-19T08:49:03Z</time></trkpt><trkpt lat="43.43858576563221" lon="10.53145773646954"><ele>103.0</ele><time>2026-04-19T08:49:04Z</time></trkpt><trkpt lat="43.43859925753286" lon="10.531544836599988"><ele>102.99999999999999</ele><time>2026-04-19T08:49:05Z</time></trkpt><trkpt lat="43.438612362307104" lon="10.531630418048204"><ele>103.0</ele><time>2026-04-19T08:49:06Z</time></trkpt><trkpt lat="43.43862736177646" lon="10.531715116419036"><ele>103.42857142857142</ele><time>2026-04-19T08:49:07Z</time></trkpt><trkpt lat="43.43864512360368" lon="10.531801491181584"><ele>103.85714285714286</ele><time>2026-04-19T08:49:08Z</time></trkpt><trkpt lat="43.43866533523522" lon="10.531891676643456"><ele>104.28571428571428</ele><time>2026-04-19T08:49:09Z</time></trkpt><trkpt lat="43.43868727129505" lon="10.531985387209701"><ele>104.71428571428571</ele><time>2026-04-19T08:49:10Z</time></trkpt><trkpt lat="43.43871006634571" lon="10.532081400787469"><ele>105.14285714285714</ele><time>2026-04-19T08:49:11Z</time></trkpt><trkpt lat="43.43873286700099" lon="10.532181297389005"><ele>105.57142857142857</ele><time>2026-04-19T08:49:12Z</time></trkpt><trkpt lat="43.438755562412894" lon="10.532281262461323"><ele>106.0</ele><time>2026-04-19T08:49:13Z</time></trkpt><trkpt lat="43.438777273563296" lon="10.532382351563072"><ele>106.0</ele><time>2026-04-19T08:49:14Z</time></trkpt><trkpt lat="43.43880031202915" lon="10.532483210239604"><ele>106.0</ele><time>2026-04-19T08:49:15Z</time></trkpt><trkpt lat="43.43882365000376" lon="10.532583925814148"><ele>106.0</ele><time>2026-04-19T08:49:16Z</time></trkpt><trkpt lat="43.438846100532366" lon="10.53268011714233"><ele>106.0</ele><time>2026-04-19T08:49:17Z</time></trkpt><trkpt lat="43.438867726205004" lon="10.532774372774767"><ele>106.0</ele><time>2026-04-19T08:49:18Z</time></trkpt><trkpt lat="43.438889082522536" lon="10.532870712320484"><ele>106.0</ele><time>2026-04-19T08:49:19Z</time></trkpt><trkpt lat="43.43890876777604" lon="10.53296814628565"><ele>106.0</ele><time>2026-04-19T08:49:20Z</time></trkpt><trkpt lat="43.43892715679801" lon="10.533068987686043"><ele>106.16666666666667</ele><time>2026-04-19T08:49:21Z</time></trkpt><trkpt lat="43.43894349663679" lon="10.533170887854377"><ele>106.33333333333334</ele><time>2026-04-19T08:49:22Z</time></trkpt><trkpt lat="43.43895795443719" lon="10.533275188109021"><ele>106.5</ele><time>2026-04-19T08:49:23Z</time></trkpt><trkpt lat="43.43896970635775" lon="10.533381892727126"><ele>106.66666666666666</ele><time>2026-04-19T08:49:24Z</time></trkpt><trkpt lat="43.438979543553586" lon="10.533489050394508"><ele>106.83333333333333</ele><time>2026-04-19T08:49:25Z</time></trkpt><trkpt lat="43.438987125921535" lon="10.5335973253452"><ele>107.0</ele><time>2026-04-19T08:49:26Z</time></trkpt><trkpt lat="43.43899247517098" lon="10.533703906324765"><ele>106.71428571428572</ele><time>2026-04-19T08:49:27Z</time></trkpt><trkpt lat="43.43899556754754" lon="10.53380348568476"><ele>106.42857142857143</ele><time>2026-04-19T08:49:28Z</time></trkpt><trkpt lat="43.43899951981432" lon="10.53389900451456"><ele>106.14285714285714</ele><time>2026-04-19T08:49:29Z</time></trkpt><trkpt lat="43.439005451477385" lon="10.533997558096548"><ele>105.85714285714286</ele><time>2026-04-19T08:49:30Z</time></trkpt><trkpt lat="43.439011503496864" lon="10.534100033132427"><ele>105.57142857142857</ele><time>2026-04-19T08:49:31Z</time></trkpt><trkpt lat="43.43901768870001" lon="10.534204563240646"><ele>105.28571428571429</ele><time>2026-04-19T08:49:32Z</time></trkpt><trkpt lat="43.43902158807196" lon="10.534308507584576"><ele>105.0</ele><time>2026-04-19T08:49:33Z</time></trkpt><trkpt lat="43.439026925503654" lon="10.534416562255727"><ele>105.0</ele><time>2026-04-19T08:49:34Z</time></trkpt><trkpt lat="43.439031422163744" lon="10.534524787091165"><ele>105.0</ele><time>2026-04-19T08:49:35Z</time></trkpt><trkpt lat="43.43903748394827" lon="10.53462827643034"><ele>105.0</ele><time>2026-04-19T08:49:36Z</time></trkpt><trkpt lat="43.4390415510591" lon="10.53472200412644"><ele>105.0</ele><time>2026-04-19T08:49:37Z</time></trkpt><trkpt lat="43.43904691008273" lon="10.534886462971361"><ele>105.0</ele><time>2026-04-19T08:49:39Z</time></trkpt><trkpt lat="43.439069669935364" lon="10.535054724888688"><ele>105.28571428571429</ele><time>2026-04-19T08:49:41Z</time></trkpt><trkpt lat="43.439080930145344" lon="10.535143471709562"><ele>105.57142857142857</ele><time>2026-04-19T08:49:42Z</time></trkpt><trkpt lat="43.43908919332157" lon="10.535236711631896"><ele>105.85714285714286</ele><time>2026-04-19T08:49:43Z</time></trkpt><trkpt lat="43.439096162529" lon="10.535330186407773"><ele>106.14285714285714</ele><time>2026-04-19T08:49:44Z</time></trkpt><trkpt lat="43.43910140689747" lon="10.535425255026768"><ele>106.42857142857143</ele><time>2026-04-19T08:49:45Z</time></trkpt><trkpt lat="43.43910722883568" lon="10.535519116335974"><ele>106.71428571428572</ele><time>2026-04-19T08:49:46Z</time></trkpt><trkpt lat="43.43911537153935" lon="10.535611521140146"><ele>107.0</ele><time>2026-04-19T08:49:47Z</time></trkpt><trkpt lat="43.43912520484525" lon="10.535702353441138"><ele>107.16666666666666</ele><time>2026-04-19T08:49:48Z</time></trkpt><trkpt lat="43.43913588837895" lon="10.535792447175126"><ele>107.33333333333333</ele><time>2026-04-19T08:49:49Z</time></trkpt><trkpt lat="43.439146750195206" lon="10.535879158359947"><ele>107.5</ele><time>2026-04-19T08:49:50Z</time></trkpt><trkpt lat="43.43915998907267" lon="10.535965558193201"><ele>107.66666666666666</ele><time>2026-04-19T08:49:51Z</time></trkpt><trkpt lat="43.43917538200057" lon="10.536050336813222"><ele>107.83333333333333</ele><time>2026-04-19T08:49:52Z</time></trkpt><trkpt lat="43.43921364663988" lon="10.536212108728222"><ele>108.0</ele><time>2026-04-19T08:49:54Z</time></trkpt><trkpt lat="43.4392556340344" lon="10.536371794906097"><ele>108.0</ele><time>2026-04-19T08:49:56Z</time></trkpt><trkpt lat="43.43928977426965" lon="10.536534717264738"><ele>108.0</ele><time>2026-04-19T08:49:58Z</time></trkpt><trkpt lat="43.439314086822314" lon="10.536703518994944"><ele>108.0</ele><time>2026-04-19T08:50:00Z</time></trkpt><trkpt lat="43.439331692446956" lon="10.536869055762006"><ele>108.0</ele><time>2026-04-19T08:50:02Z</time></trkpt><trkpt lat="43.43934726957367" lon="10.537033206904484"><ele>108.5</ele><time>2026-04-19T08:50:04Z</time></trkpt><trkpt lat="43.43936057033105" lon="10.537205490169612"><ele>109.0</ele><time>2026-04-19T08:50:06Z</time></trkpt><trkpt lat="43.43935239045884" lon="10.537379294892155"><ele>109.5</ele><time>2026-04-19T08:50:08Z</time></trkpt><trkpt lat="43.43934001016106" lon="10.537550654238855"><ele>110.0</ele><time>2026-04-19T08:50:10Z</time></trkpt><trkpt lat="43.43933163461212" lon="10.537709930557888"><ele>110.0</ele><time>2026-04-19T08:50:12Z</time></trkpt><trkpt lat="43.439332594591896" lon="10.537854822979195"><ele>110.0</ele><time>2026-04-19T08:50:14Z</time></trkpt><trkpt lat="43.43934944221163" lon="10.538003758751463"><ele>110.0</ele><time>2026-04-19T08:50:16Z</time></trkpt><trkpt lat="43.43939434089094" lon="10.538148008210042"><ele>110.0</ele><time>2026-04-19T08:50:18Z</time></trkpt><trkpt lat="43.43944724491274" lon="10.538281483742905"><ele>110.0</ele><time>2026-04-19T08:50:20Z</time></trkpt><trkpt lat="43.43948634414042" lon="10.538417981445448"><ele>110.2</ele><time>2026-04-19T08:50:22Z</time></trkpt><trkpt lat="43.4395219296522" lon="10.538547929217458"><ele>110.4</ele><time>2026-04-19T08:50:24Z</time></trkpt><trkpt lat="43.439563348942336" lon="10.538669794157158"><ele>110.6</ele><time>2026-04-19T08:50:26Z</time></trkpt><trkpt lat="43.4396024766972" lon="10.538785383789898"><ele>110.8</ele><time>2026-04-19T08:50:28Z</time></trkpt><trkpt lat="43.43963330051727" lon="10.538897155454972"><ele>111.0</ele><time>2026-04-19T08:50:30Z</time></trkpt><trkpt lat="43.43966294739705" lon="10.539009617264632"><ele>110.19999999999999</ele><time>2026-04-19T08:50:32Z</time></trkpt><trkpt lat="43.43968841314288" lon="10.539121284759823"><ele>109.39999999999999</ele><time>2026-04-19T08:50:34Z</time></trkpt><trkpt lat="43.439707451779746" lon="10.539246703167883"><ele>108.6</ele><time>2026-04-19T08:50:36Z</time></trkpt><trkpt lat="43.439726395034576" lon="10.539377762868208"><ele>107.8</ele><time>2026-04-19T08:50:38Z</time></trkpt><trkpt lat="43.43974724799767" lon="10.539501788980134"><ele>107.0</ele><time>2026-04-19T08:50:40Z</time></trkpt><trkpt lat="43.439769402540406" lon="10.539628535524274"><ele>107.0</ele><time>2026-04-19T08:50:42Z</time></trkpt><trkpt lat="43.43979121335073" lon="10.539761346472746"><ele>106.99999999999999</ele><time>2026-04-19T08:50:44Z</time></trkpt><trkpt lat="43.43981225761308" lon="10.539893899244309"><ele>106.99999999999999</ele><time>2026-04-19T08:50:46Z</time></trkpt><trkpt lat="43.43983345168829" lon="10.540022584052725"><ele>107.0</ele><time>2026-04-19T08:50:48Z</time></trkpt><trkpt lat="43.43985419233886" lon="10.540141333502808"><ele>107.0</ele><time>2026-04-19T08:50:50Z</time></trkpt><trkpt lat="43.439883208317916" lon="10.540257999444801"><ele>107.0</ele><time>2026-04-19T08:50:52Z</time></trkpt><trkpt lat="43.43990993571822" lon="10.54038127496115"><ele>106.99999999999999</ele><time>2026-04-19T08:50:54Z</time></trkpt><trkpt lat="43.43992793724234" lon="10.540511902188056"><ele>106.99999999999999</ele><time>2026-04-19T08:50:56Z</time></trkpt><trkpt lat="43.43994804307738" lon="10.540638820340677"><ele>107.0</ele><time>2026-04-19T08:50:58Z</time></trkpt><trkpt lat="43.43995953806774" lon="10.540777259856979"><ele>107.0</ele><time>2026-04-19T08:51:00Z</time></trkpt><trkpt lat="43.43996796693663" lon="10.540923186689248"><ele>107.19999999999999</ele><time>2026-04-19T08:51:02Z</time></trkpt><trkpt lat="43.43998120455475" lon="10.541070781707912"><ele>107.39999999999999</ele><time>2026-04-19T08:51:04Z</time></trkpt><trkpt lat="43.440007177416824" lon="10.541212008906786"><ele>107.60000000000001</ele><time>2026-04-19T08:51:06Z</time></trkpt><trkpt lat="43.440030582107944" lon="10.541363292209782"><ele>107.80000000000001</ele><time>2026-04-19T08:51:08Z</time></trkpt><trkpt lat="43.44003105889834" lon="10.541520839655256"><ele>108.0</ele><time>2026-04-19T08:51:10Z</time></trkpt><trkpt lat="43.44000140718712" lon="10.541674662729445"><ele>108.4</ele><time>2026-04-19T08:51:12Z</time></trkpt><trkpt lat="43.43994784422898" lon="10.541809543461838"><ele>108.80000000000001</ele><time>2026-04-19T08:51:14Z</time></trkpt><trkpt lat="43.439880898508854" lon="10.541909360708171"><ele>109.2</ele><time>2026-04-19T08:51:16Z</time></trkpt><trkpt lat="43.43980051967559" lon="10.541993103411881"><ele>109.6</ele><time>2026-04-19T08:51:18Z</time></trkpt><trkpt lat="43.43971478056871" lon="10.542074723056356"><ele>110.0</ele><time>2026-04-19T08:51:20Z</time></trkpt><trkpt lat="43.43963458413628" lon="10.542160326781806"><ele>110.49999999999999</ele><time>2026-04-19T08:51:22Z</time></trkpt><trkpt lat="43.43956922091201" lon="10.542255235122644"><ele>111.0</ele><time>2026-04-19T08:51:24Z</time></trkpt><trkpt lat="43.43952803324973" lon="10.54236219595317"><ele>111.5</ele><time>2026-04-19T08:51:26Z</time></trkpt><trkpt lat="43.4395109353718" lon="10.542486112912695"><ele>112.0</ele><time>2026-04-19T08:51:28Z</time></trkpt><trkpt lat="43.439527121858525" lon="10.542605711247303"><ele>112.49999999999999</ele><time>2026-04-19T08:51:30Z</time></trkpt><trkpt lat="43.4395684024235" lon="10.54271008012911"><ele>113.0</ele><time>2026-04-19T08:51:32Z</time></trkpt><trkpt lat="43.43961997435071" lon="10.542814160139274"><ele>112.60000000000001</ele><time>2026-04-19T08:51:34Z</time></trkpt><trkpt lat="43.43967098145826" lon="10.542910051225979"><ele>112.20000000000002</ele><time>2026-04-19T08:51:36Z</time></trkpt><trkpt lat="43.439722154259556" lon="10.542998446428655"><ele>111.8</ele><time>2026-04-19T08:51:38Z</time></trkpt><trkpt lat="43.439778284027184" lon="10.543097604517545"><ele>111.4</ele><time>2026-04-19T08:51:40Z</time></trkpt><trkpt lat="43.439839285823986" lon="10.543203425343192"><ele>111.0</ele><time>2026-04-19T08:51:42Z</time></trkpt><trkpt lat="43.43990505127423" lon="10.54331319973752"><ele>111.0</ele><time>2026-04-19T08:51:44Z</time></trkpt><trkpt lat="43.439968491952186" lon="10.543416321730778"><ele>111.0</ele><time>2026-04-19T08:51:46Z</time></trkpt><trkpt lat="43.44002690699086" lon="10.543512356293794"><ele>111.0</ele><time>2026-04-19T08:51:48Z</time></trkpt><trkpt lat="43.44007921501504" lon="10.543613735872801"><ele>111.0</ele><time>2026-04-19T08:51:50Z</time></trkpt><trkpt lat="43.44012989079118" lon="10.543721695915238"><ele>111.0</ele><time>2026-04-19T08:51:52Z</time></trkpt><trkpt lat="43.440179536642674" lon="10.543830444606956"><ele>111.8</ele><time>2026-04-19T08:51:54Z</time></trkpt><trkpt lat="43.440220634245414" lon="10.543945615138874"><ele>112.6</ele><time>2026-04-19T08:51:56Z</time></trkpt><trkpt lat="43.440248489099275" lon="10.54407044137251"><ele>113.4</ele><time>2026-04-19T08:51:58Z</time></trkpt><trkpt lat="43.4402561696725" lon="10.544198507393073"><ele>114.2</ele><time>2026-04-19T08:52:00Z</time></trkpt><trkpt lat="43.44024237073342" lon="10.544316457323344"><ele>115.0</ele><time>2026-04-19T08:52:02Z</time></trkpt><trkpt lat="43.440215113367536" lon="10.544428725674722"><ele>115.0</ele><time>2026-04-19T08:52:04Z</time></trkpt><trkpt lat="43.44017424105931" lon="10.544534088301512"><ele>115.0</ele><time>2026-04-19T08:52:06Z</time></trkpt><trkpt lat="43.440119271311836" lon="10.544631934705103"><ele>115.0</ele><time>2026-04-19T08:52:08Z</time></trkpt><trkpt lat="43.4400495070799" lon="10.54471925536575"><ele>115.0</ele><time>2026-04-19T08:52:10Z</time></trkpt><trkpt lat="43.43997072946132" lon="10.544800369109428"><ele>115.0</ele><time>2026-04-19T08:52:12Z</time></trkpt><trkpt lat="43.439883757849586" lon="10.544879332468573"><ele>115.75</ele><time>2026-04-19T08:52:14Z</time></trkpt><trkpt lat="43.43979342277362" lon="10.544958590899913"><ele>116.5</ele><time>2026-04-19T08:52:16Z</time></trkpt><trkpt lat="43.43969822234249" lon="10.54503938553069"><ele>117.25</ele><time>2026-04-19T08:52:18Z</time></trkpt><trkpt lat="43.43960085442436" lon="10.545125223453544"><ele>118.0</ele><time>2026-04-19T08:52:20Z</time></trkpt><trkpt lat="43.43949913247026" lon="10.54521442150242"><ele>118.2</ele><time>2026-04-19T08:52:22Z</time></trkpt><trkpt lat="43.43939421208497" lon="10.545305286344593"><ele>118.4</ele><time>2026-04-19T08:52:24Z</time></trkpt><trkpt lat="43.439340066622385" lon="10.54534957281982"><ele>118.60000000000001</ele><time>2026-04-19T08:52:25Z</time></trkpt><trkpt lat="43.43922842586302" lon="10.545424301688127"><ele>118.80000000000001</ele><time>2026-04-19T08:52:27Z</time></trkpt><trkpt lat="43.43911123061348" lon="10.545481733112952"><ele>119.0</ele><time>2026-04-19T08:52:29Z</time></trkpt><trkpt lat="43.438987794984314" lon="10.545517920885628"><ele>119.14285714285714</ele><time>2026-04-19T08:52:31Z</time></trkpt><trkpt lat="43.43892276837772" lon="10.545531346819624"><ele>119.28571428571428</ele><time>2026-04-19T08:52:32Z</time></trkpt><trkpt lat="43.43885423047376" lon="10.545542033254426"><ele>119.42857142857143</ele><time>2026-04-19T08:52:33Z</time></trkpt><trkpt lat="43.438784308049414" lon="10.54555214632466"><ele>119.57142857142857</ele><time>2026-04-19T08:52:34Z</time></trkpt><trkpt lat="43.438712450485795" lon="10.54556138041276"><ele>119.71428571428571</ele><time>2026-04-19T08:52:35Z</time></trkpt><trkpt lat="43.4386383177524" lon="10.545569259517027"><ele>119.85714285714286</ele><time>2026-04-19T08:52:36Z</time></trkpt><trkpt lat="43.43856693475502" lon="10.545579416288103"><ele>120.0</ele><time>2026-04-19T08:52:37Z</time></trkpt><trkpt lat="43.438498554906495" lon="10.54559403239901"><ele>119.66666666666667</ele><time>2026-04-19T08:52:38Z</time></trkpt><trkpt lat="43.43843014732422" lon="10.54561177279787"><ele>119.33333333333334</ele><time>2026-04-19T08:52:39Z</time></trkpt><trkpt lat="43.43836381051363" lon="10.545632676262418"><ele>119.0</ele><time>2026-04-19T08:52:40Z</time></trkpt><trkpt lat="43.438300073801834" lon="10.545655431244137"><ele>118.66666666666667</ele><time>2026-04-19T08:52:41Z</time></trkpt><trkpt lat="43.438237161031566" lon="10.545680446944859"><ele>118.33333333333334</ele><time>2026-04-19T08:52:42Z</time></trkpt><trkpt lat="43.43817200445869" lon="10.545686947537915"><ele>118.0</ele><time>2026-04-19T08:52:43Z</time></trkpt><trkpt lat="43.43805722241994" lon="10.545733525048384"><ele>117.60000000000001</ele><time>2026-04-19T08:52:45Z</time></trkpt><trkpt lat="43.43794906420999" lon="10.54580335196011"><ele>117.20000000000002</ele><time>2026-04-19T08:52:47Z</time></trkpt><trkpt lat="43.43788336144083" lon="10.545808069280005"><ele>116.8</ele><time>2026-04-19T08:52:48Z</time></trkpt><trkpt lat="43.437822408238354" lon="10.545834203439245"><ele>116.4</ele><time>2026-04-19T08:52:49Z</time></trkpt><trkpt lat="43.43770537487554" lon="10.545880580858354"><ele>116.0</ele><time>2026-04-19T08:52:51Z</time></trkpt><trkpt lat="43.43759250252988" lon="10.545928448385425"><ele>116.0</ele><time>2026-04-19T08:52:53Z</time></trkpt><trkpt lat="43.43748849323384" lon="10.54598663362094"><ele>116.0</ele><time>2026-04-19T08:52:55Z</time></trkpt><trkpt lat="43.43741817087804" lon="10.546094364545173"><ele>116.0</ele><time>2026-04-19T08:52:57Z</time></trkpt><trkpt lat="43.437402193574535" lon="10.54624095016918"><ele>116.0</ele><time>2026-04-19T08:52:59Z</time></trkpt><trkpt lat="43.43744954032434" lon="10.546384556596253"><ele>116.0</ele><time>2026-04-19T08:53:01Z</time></trkpt><trkpt lat="43.437514918785006" lon="10.546525795736443"><ele>116.8</ele><time>2026-04-19T08:53:03Z</time></trkpt><trkpt lat="43.43757506627973" lon="10.546674822567388"><ele>117.6</ele><time>2026-04-19T08:53:05Z</time></trkpt><trkpt lat="43.43760529856308" lon="10.546750950014413"><ele>118.4</ele><time>2026-04-19T08:53:06Z</time></trkpt><trkpt lat="43.43766571458005" lon="10.54689672220592"><ele>119.2</ele><time>2026-04-19T08:53:08Z</time></trkpt><trkpt lat="43.43772490358156" lon="10.547039044196307"><ele>120.0</ele><time>2026-04-19T08:53:10Z</time></trkpt><trkpt lat="43.437783332440674" lon="10.547180402210149"><ele>120.75</ele><time>2026-04-19T08:53:12Z</time></trkpt><trkpt lat="43.43784222811061" lon="10.54732092094782"><ele>121.5</ele><time>2026-04-19T08:53:14Z</time></trkpt><trkpt lat="43.43789981910197" lon="10.547459925021217"><ele>122.25</ele><time>2026-04-19T08:53:16Z</time></trkpt><trkpt lat="43.437955611747235" lon="10.547597313209378"><ele>123.0</ele><time>2026-04-19T08:53:18Z</time></trkpt><trkpt lat="43.43801298773688" lon="10.54773335303961"><ele>123.33333333333333</ele><time>2026-04-19T08:53:20Z</time></trkpt><trkpt lat="43.438075749714805" lon="10.54788454604764"><ele>123.66666666666666</ele><time>2026-04-19T08:53:22Z</time></trkpt><trkpt lat="43.438108708337616" lon="10.54796391925641"><ele>124.0</ele><time>2026-04-19T08:53:23Z</time></trkpt><trkpt lat="43.43814191571577" lon="10.54804277859486"><ele>124.33333333333333</ele><time>2026-04-19T08:53:24Z</time></trkpt><trkpt lat="43.43817386529461" lon="10.548120458815736"><ele>124.66666666666666</ele><time>2026-04-19T08:53:25Z</time></trkpt><trkpt lat="43.43820527476132" lon="10.548198754763627"><ele>125.0</ele><time>2026-04-19T08:53:26Z</time></trkpt><trkpt lat="43.43823624581535" lon="10.548274357374293"><ele>125.0</ele><time>2026-04-19T08:53:27Z</time></trkpt><trkpt lat="43.43828938915656" lon="10.548424406429525"><ele>125.0</ele><time>2026-04-19T08:53:29Z</time></trkpt><trkpt lat="43.43834135331645" lon="10.548563632591604"><ele>125.0</ele><time>2026-04-19T08:53:31Z</time></trkpt><trkpt lat="43.43839287420084" lon="10.548695553315829"><ele>125.0</ele><time>2026-04-19T08:53:33Z</time></trkpt><trkpt lat="43.43844803769838" lon="10.548827598421573"><ele>126.0</ele><time>2026-04-19T08:53:35Z</time></trkpt><trkpt lat="43.43850902853203" lon="10.548959634070675"><ele>127.0</ele><time>2026-04-19T08:53:37Z</time></trkpt><trkpt lat="43.43857010593245" lon="10.54909790481023"><ele>128.0</ele><time>2026-04-19T08:53:39Z</time></trkpt><trkpt lat="43.4386282173746" lon="10.549244616888483"><ele>129.0</ele><time>2026-04-19T08:53:41Z</time></trkpt><trkpt lat="43.43868869508864" lon="10.549392093818671"><ele>129.0</ele><time>2026-04-19T08:53:43Z</time></trkpt><trkpt lat="43.438750481553654" lon="10.54953797856282"><ele>129.0</ele><time>2026-04-19T08:53:45Z</time></trkpt><trkpt lat="43.43880789072311" lon="10.549680715073134"><ele>129.0</ele><time>2026-04-19T08:53:47Z</time></trkpt><trkpt lat="43.43886072749164" lon="10.5498178860415"><ele>129.0</ele><time>2026-04-19T08:53:49Z</time></trkpt><trkpt lat="43.43891194210436" lon="10.54995300175122"><ele>129.8</ele><time>2026-04-19T08:53:51Z</time></trkpt><trkpt lat="43.43896598310085" lon="10.55008656985851"><ele>130.60000000000002</ele><time>2026-04-19T08:53:53Z</time></trkpt><trkpt lat="43.439021010933416" lon="10.55021703085006"><ele>131.4</ele><time>2026-04-19T08:53:55Z</time></trkpt><trkpt lat="43.43907754628141" lon="10.550345177251714"><ele>132.20000000000002</ele><time>2026-04-19T08:53:57Z</time></trkpt><trkpt lat="43.43913180645107" lon="10.550472239922714"><ele>133.0</ele><time>2026-04-19T08:53:59Z</time></trkpt><trkpt lat="43.439182565271" lon="10.550601220630481"><ele>134.0</ele><time>2026-04-19T08:54:01Z</time></trkpt><trkpt lat="43.43923902159951" lon="10.550729437205558"><ele>135.0</ele><time>2026-04-19T08:54:03Z</time></trkpt><trkpt lat="43.43929357649138" lon="10.550864329553393"><ele>136.0</ele><time>2026-04-19T08:54:05Z</time></trkpt><trkpt lat="43.43934054992065" lon="10.551008534239903"><ele>137.0</ele><time>2026-04-19T08:54:07Z</time></trkpt><trkpt lat="43.439381172496496" lon="10.551158008019865"><ele>137.16666666666666</ele><time>2026-04-19T08:54:09Z</time></trkpt><trkpt lat="43.43941386702273" lon="10.551311150907317"><ele>137.33333333333331</ele><time>2026-04-19T08:54:11Z</time></trkpt><trkpt lat="43.43945425206815" lon="10.55147432125862"><ele>137.5</ele><time>2026-04-19T08:54:13Z</time></trkpt><trkpt lat="43.43948633812751" lon="10.551555147484596"><ele>137.66666666666666</ele><time>2026-04-19T08:54:14Z</time></trkpt><trkpt lat="43.439523864853655" lon="10.551632256430638"><ele>137.83333333333334</ele><time>2026-04-19T08:54:15Z</time></trkpt><trkpt lat="43.4395633799362" lon="10.551702347254057"><ele>138.0</ele><time>2026-04-19T08:54:16Z</time></trkpt><trkpt lat="43.439606222554275" lon="10.55178418009472"><ele>138.28571428571428</ele><time>2026-04-19T08:54:17Z</time></trkpt><trkpt lat="43.439651215110445" lon="10.55186200753641"><ele>138.57142857142858</ele><time>2026-04-19T08:54:18Z</time></trkpt><trkpt lat="43.439696130842016" lon="10.551937861935752"><ele>138.85714285714286</ele><time>2026-04-19T08:54:19Z</time></trkpt><trkpt lat="43.43973889484477" lon="10.552018115193759"><ele>139.14285714285714</ele><time>2026-04-19T08:54:20Z</time></trkpt><trkpt lat="43.4397755997306" lon="10.55210387737249"><ele>139.42857142857144</ele><time>2026-04-19T08:54:21Z</time></trkpt><trkpt lat="43.439808816498434" lon="10.552197205324113"><ele>139.71428571428572</ele><time>2026-04-19T08:54:22Z</time></trkpt><trkpt lat="43.43984047064593" lon="10.552290950908192"><ele>140.0</ele><time>2026-04-19T08:54:23Z</time></trkpt><trkpt lat="43.43987115867595" lon="10.552385666782254"><ele>140.57142857142858</ele><time>2026-04-19T08:54:24Z</time></trkpt><trkpt lat="43.439898159539" lon="10.55247816692658"><ele>141.14285714285714</ele><time>2026-04-19T08:54:25Z</time></trkpt><trkpt lat="43.43992226109539" lon="10.552571357452425"><ele>141.71428571428572</ele><time>2026-04-19T08:54:26Z</time></trkpt><trkpt lat="43.439947202984385" lon="10.552663810750962"><ele>142.28571428571428</ele><time>2026-04-19T08:54:27Z</time></trkpt><trkpt lat="43.43997581287576" lon="10.552752668528077"><ele>142.85714285714286</ele><time>2026-04-19T08:54:28Z</time></trkpt><trkpt lat="43.44000281649772" lon="10.552838008832929"><ele>143.42857142857144</ele><time>2026-04-19T08:54:29Z</time></trkpt><trkpt lat="43.44002953614906" lon="10.55292298168277"><ele>144.0</ele><time>2026-04-19T08:54:30Z</time></trkpt><trkpt lat="43.4400547740141" lon="10.553006845544253"><ele>144.4</ele><time>2026-04-19T08:54:31Z</time></trkpt><trkpt lat="43.44007901086713" lon="10.553089635541154"><ele>144.8</ele><time>2026-04-19T08:54:32Z</time></trkpt><trkpt lat="43.440103341482704" lon="10.553170475332896"><ele>145.2</ele><time>2026-04-19T08:54:33Z</time></trkpt><trkpt lat="43.440149487264996" lon="10.553324467078351"><ele>145.6</ele><time>2026-04-19T08:54:35Z</time></trkpt><trkpt lat="43.44019551726589" lon="10.553474958592325"><ele>146.0</ele><time>2026-04-19T08:54:37Z</time></trkpt><trkpt lat="43.440246663240764" lon="10.553635937948641"><ele>146.14285714285714</ele><time>2026-04-19T08:54:39Z</time></trkpt><trkpt lat="43.44027137686771" lon="10.553719969113505"><ele>146.28571428571428</ele><time>2026-04-19T08:54:40Z</time></trkpt><trkpt lat="43.44029703764528" lon="10.553803746828732"><ele>146.42857142857144</ele><time>2026-04-19T08:54:41Z</time></trkpt><trkpt lat="43.44032472766235" lon="10.553886781632617"><ele>146.57142857142856</ele><time>2026-04-19T08:54:42Z</time></trkpt><trkpt lat="43.440356511403344" lon="10.553966131313038"><ele>146.71428571428572</ele><time>2026-04-19T08:54:43Z</time></trkpt><trkpt lat="43.44038818339827" lon="10.554045303769408"><ele>146.85714285714286</ele><time>2026-04-19T08:54:44Z</time></trkpt><trkpt lat="43.44041607677327" lon="10.554126306254743"><ele>147.0</ele><time>2026-04-19T08:54:45Z</time></trkpt><trkpt lat="43.440440679139606" lon="10.554207630345939"><ele>147.0</ele><time>2026-04-19T08:54:46Z</time></trkpt><trkpt lat="43.44046529545395" lon="10.554291001477953"><ele>147.0</ele><time>2026-04-19T08:54:47Z</time></trkpt><trkpt lat="43.44049014551962" lon="10.554375506131262"><ele>147.0</ele><time>2026-04-19T08:54:48Z</time></trkpt><trkpt lat="43.440515784942804" lon="10.554461586242166"><ele>147.0</ele><time>2026-04-19T08:54:49Z</time></trkpt><trkpt lat="43.440562855417134" lon="10.554607592887079"><ele>147.0</ele><time>2026-04-19T08:54:51Z</time></trkpt><trkpt lat="43.4405952369244" lon="10.5547132883796"><ele>147.0</ele><time>2026-04-19T08:54:53Z</time></trkpt><trkpt lat="43.44062420561907" lon="10.554830512546356"><ele>147.83333333333334</ele><time>2026-04-19T08:54:56Z</time></trkpt><trkpt lat="43.44065095950879" lon="10.55491165635255"><ele>148.66666666666666</ele><time>2026-04-19T08:54:58Z</time></trkpt><trkpt lat="43.44069122534501" lon="10.555020718686704"><ele>149.5</ele><time>2026-04-19T08:55:00Z</time></trkpt><trkpt lat="43.440745292461244" lon="10.555162177366824"><ele>150.33333333333331</ele><time>2026-04-19T08:55:02Z</time></trkpt><trkpt lat="43.44077772738852" lon="10.555247315062454"><ele>151.16666666666666</ele><time>2026-04-19T08:55:03Z</time></trkpt><trkpt lat="43.44080943634083" lon="10.555338372152288"><ele>152.0</ele><time>2026-04-19T08:55:04Z</time></trkpt><trkpt lat="43.44083937151335" lon="10.555435625522527"><ele>152.28571428571428</ele><time>2026-04-19T08:55:05Z</time></trkpt><trkpt lat="43.440869038244415" lon="10.555533101919353"><ele>152.57142857142858</ele><time>2026-04-19T08:55:06Z</time></trkpt><trkpt lat="43.44089562179111" lon="10.555623763960616"><ele>152.85714285714286</ele><time>2026-04-19T08:55:07Z</time></trkpt><trkpt lat="43.44092092337799" lon="10.555708842500026"><ele>153.14285714285714</ele><time>2026-04-19T08:55:08Z</time></trkpt><trkpt lat="43.44094511805942" lon="10.55579084352728"><ele>153.42857142857144</ele><time>2026-04-19T08:55:09Z</time></trkpt><trkpt lat="43.440970352886026" lon="10.555870276307402"><ele>153.71428571428572</ele><time>2026-04-19T08:55:10Z</time></trkpt><trkpt lat="43.440996645617545" lon="10.555951133067104"><ele>154.0</ele><time>2026-04-19T08:55:11Z</time></trkpt><trkpt lat="43.44102421308796" lon="10.55603613162063"><ele>154.0</ele><time>2026-04-19T08:55:12Z</time></trkpt><trkpt lat="43.441052650448796" lon="10.556124848157644"><ele>154.0</ele><time>2026-04-19T08:55:13Z</time></trkpt><trkpt lat="43.44107943461444" lon="10.556207956050683"><ele>154.0</ele><time>2026-04-19T08:55:14Z</time></trkpt><trkpt lat="43.44110646344231" lon="10.55629173717523"><ele>154.0</ele><time>2026-04-19T08:55:15Z</time></trkpt><trkpt lat="43.44114681875376" lon="10.556425231846829"><ele>154.0</ele><time>2026-04-19T08:55:17Z</time></trkpt><trkpt lat="43.441181994958285" lon="10.556526640370931"><ele>154.0</ele><time>2026-04-19T08:55:19Z</time></trkpt><trkpt lat="43.4412157977375" lon="10.55664048572895"><ele>154.0</ele><time>2026-04-19T08:55:22Z</time></trkpt><trkpt lat="43.44124431821042" lon="10.55673968854047"><ele>154.0</ele><time>2026-04-19T08:55:24Z</time></trkpt><trkpt lat="43.441279037978454" lon="10.55687237532111"><ele>154.0</ele><time>2026-04-19T08:55:26Z</time></trkpt><trkpt lat="43.44129928512911" lon="10.556956671609012"><ele>154.0</ele><time>2026-04-19T08:55:27Z</time></trkpt><trkpt lat="43.44132092456352" lon="10.557052045671846"><ele>154.0</ele><time>2026-04-19T08:55:28Z</time></trkpt><trkpt lat="43.4413402559602" lon="10.557150718256612"><ele>154.0</ele><time>2026-04-19T08:55:29Z</time></trkpt><trkpt lat="43.44135684569716" lon="10.557252227468808"><ele>154.8</ele><time>2026-04-19T08:55:30Z</time></trkpt><trkpt lat="43.44137126412843" lon="10.557347180272226"><ele>155.60000000000002</ele><time>2026-04-19T08:55:31Z</time></trkpt><trkpt lat="43.44139435548116" lon="10.55750598696369"><ele>156.4</ele><time>2026-04-19T08:55:33Z</time></trkpt><trkpt lat="43.44141483206153" lon="10.557640762194444"><ele>157.20000000000002</ele><time>2026-04-19T08:55:35Z</time></trkpt><trkpt lat="43.441436187355606" lon="10.557787954130573"><ele>158.0</ele><time>2026-04-19T08:55:37Z</time></trkpt><trkpt lat="43.44146074251084" lon="10.557942762673424"><ele>158.5</ele><time>2026-04-19T08:55:39Z</time></trkpt><trkpt lat="43.441489023856256" lon="10.558097865376343"><ele>159.0</ele><time>2026-04-19T08:55:41Z</time></trkpt><trkpt lat="43.441515466898174" lon="10.55824303524281"><ele>159.5</ele><time>2026-04-19T08:55:43Z</time></trkpt><trkpt lat="43.44154239047871" lon="10.55839923603632"><ele>160.0</ele><time>2026-04-19T08:55:45Z</time></trkpt><trkpt lat="43.44156687460968" lon="10.558557548894292"><ele>160.25</ele><time>2026-04-19T08:55:47Z</time></trkpt><trkpt lat="43.4415836510679" lon="10.558716070136677"><ele>160.5</ele><time>2026-04-19T08:55:49Z</time></trkpt><trkpt lat="43.44159370896423" lon="10.558882633354898"><ele>160.75</ele><time>2026-04-19T08:55:51Z</time></trkpt><trkpt lat="43.441610993765345" lon="10.559052974670717"><ele>161.0</ele><time>2026-04-19T08:55:53Z</time></trkpt><trkpt lat="43.44163375141678" lon="10.559223891451627"><ele>161.0</ele><time>2026-04-19T08:55:55Z</time></trkpt><trkpt lat="43.441658307877255" lon="10.55939004067658"><ele>161.0</ele><time>2026-04-19T08:55:57Z</time></trkpt><trkpt lat="43.441688974207416" lon="10.559552260020736"><ele>161.0</ele><time>2026-04-19T08:55:59Z</time></trkpt><trkpt lat="43.44172524436198" lon="10.559718160110364"><ele>161.0</ele><time>2026-04-19T08:56:01Z</time></trkpt><trkpt lat="43.44174546758484" lon="10.559805514709593"><ele>161.0</ele><time>2026-04-19T08:56:02Z</time></trkpt><trkpt lat="43.44176801791478" lon="10.559887179574838"><ele>161.0</ele><time>2026-04-19T08:56:03Z</time></trkpt><trkpt lat="43.44181258230924" lon="10.560031951153046"><ele>161.0</ele><time>2026-04-19T08:56:05Z</time></trkpt><trkpt lat="43.44183669702746" lon="10.560114146113547"><ele>161.0</ele><time>2026-04-19T08:56:06Z</time></trkpt><trkpt lat="43.44186368064437" lon="10.560202744861629"><ele>161.0</ele><time>2026-04-19T08:56:07Z</time></trkpt><trkpt lat="43.44189229119751" lon="10.560299558830897"><ele>161.0</ele><time>2026-04-19T08:56:08Z</time></trkpt><trkpt lat="43.44192412518943" lon="10.56039299869603"><ele>161.0</ele><time>2026-04-19T08:56:09Z</time></trkpt><trkpt lat="43.441959772032185" lon="10.560490094049882"><ele>161.0</ele><time>2026-04-19T08:56:10Z</time></trkpt><trkpt lat="43.44199794778738" lon="10.56058532545866"><ele>161.0</ele><time>2026-04-19T08:56:11Z</time></trkpt><trkpt lat="43.44204007848503" lon="10.56068009961408"><ele>161.0</ele><time>2026-04-19T08:56:12Z</time></trkpt><trkpt lat="43.442083633904595" lon="10.56077269887687"><ele>161.0</ele><time>2026-04-19T08:56:13Z</time></trkpt><trkpt lat="43.44212866618432" lon="10.560866865615445"><ele>161.0</ele><time>2026-04-19T08:56:14Z</time></trkpt><trkpt lat="43.442176269906476" lon="10.560962565328687"><ele>161.0</ele><time>2026-04-19T08:56:15Z</time></trkpt><trkpt lat="43.44222781817847" lon="10.561061867075892"><ele>161.0</ele><time>2026-04-19T08:56:16Z</time></trkpt><trkpt lat="43.44228366219222" lon="10.561162056437436"><ele>161.0</ele><time>2026-04-19T08:56:17Z</time></trkpt><trkpt lat="43.442341954815504" lon="10.561259656846403"><ele>161.0</ele><time>2026-04-19T08:56:18Z</time></trkpt><trkpt lat="43.44240294221084" lon="10.561352115160508"><ele>161.0</ele><time>2026-04-19T08:56:19Z</time></trkpt><trkpt lat="43.442463817710845" lon="10.561441221517006"><ele>161.0</ele><time>2026-04-19T08:56:20Z</time></trkpt><trkpt lat="43.44252561854752" lon="10.561527884331653"><ele>160.66666666666666</ele><time>2026-04-19T08:56:21Z</time></trkpt><trkpt lat="43.442586671863296" lon="10.561611108040369"><ele>160.33333333333331</ele><time>2026-04-19T08:56:22Z</time></trkpt><trkpt lat="43.44264868015376" lon="10.561692894386821"><ele>160.0</ele><time>2026-04-19T08:56:23Z</time></trkpt><trkpt lat="43.44271126785247" lon="10.561774123845321"><ele>159.66666666666666</ele><time>2026-04-19T08:56:24Z</time></trkpt><trkpt lat="43.44277525906085" lon="10.561855034554352"><ele>159.33333333333334</ele><time>2026-04-19T08:56:25Z</time></trkpt><trkpt lat="43.44283641006832" lon="10.561934912290038"><ele>159.0</ele><time>2026-04-19T08:56:26Z</time></trkpt><trkpt lat="43.44289894970061" lon="10.562016413390104"><ele>159.33333333333334</ele><time>2026-04-19T08:56:27Z</time></trkpt><trkpt lat="43.442961358900305" lon="10.562096981457838"><ele>159.66666666666666</ele><time>2026-04-19T08:56:28Z</time></trkpt><trkpt lat="43.44302263058997" lon="10.562176819608952"><ele>160.0</ele><time>2026-04-19T08:56:29Z</time></trkpt><trkpt lat="43.44308255721187" lon="10.562257357108498"><ele>160.33333333333331</ele><time>2026-04-19T08:56:30Z</time></trkpt><trkpt lat="43.44314187504569" lon="10.562338705888958"><ele>160.66666666666666</ele><time>2026-04-19T08:56:31Z</time></trkpt><trkpt lat="43.443202240113216" lon="10.562419510386995"><ele>161.0</ele><time>2026-04-19T08:56:32Z</time></trkpt><trkpt lat="43.44326546552188" lon="10.562500349834572"><ele>161.0</ele><time>2026-04-19T08:56:33Z</time></trkpt><trkpt lat="43.44332884801323" lon="10.562584003083147"><ele>161.0</ele><time>2026-04-19T08:56:34Z</time></trkpt><trkpt lat="43.44338865599642" lon="10.562672976758916"><ele>161.0</ele><time>2026-04-19T08:56:35Z</time></trkpt><trkpt lat="43.44344241261146" lon="10.562763297866175"><ele>161.0</ele><time>2026-04-19T08:56:36Z</time></trkpt><trkpt lat="43.443491760432366" lon="10.562854546815005"><ele>161.0</ele><time>2026-04-19T08:56:37Z</time></trkpt><trkpt lat="43.44353812137863" lon="10.562947088829535"><ele>161.0</ele><time>2026-04-19T08:56:38Z</time></trkpt><trkpt lat="43.443582199566016" lon="10.563039651612614"><ele>161.16666666666666</ele><time>2026-04-19T08:56:39Z</time></trkpt><trkpt lat="43.44362297146303" lon="10.563133880851396"><ele>161.33333333333331</ele><time>2026-04-19T08:56:40Z</time></trkpt><trkpt lat="43.443657886158256" lon="10.563228310869144"><ele>161.5</ele><time>2026-04-19T08:56:41Z</time></trkpt><trkpt lat="43.443687414588155" lon="10.563323220845906"><ele>161.66666666666666</ele><time>2026-04-19T08:56:42Z</time></trkpt><trkpt lat="43.44371276256876" lon="10.563418617816042"><ele>161.83333333333334</ele><time>2026-04-19T08:56:43Z</time></trkpt><trkpt lat="43.44373559221958" lon="10.563514851050755"><ele>162.0</ele><time>2026-04-19T08:56:44Z</time></trkpt><trkpt lat="43.443761585316324" lon="10.563611852393937"><ele>161.85714285714286</ele><time>2026-04-19T08:56:45Z</time></trkpt><trkpt lat="43.44379018494558" lon="10.56370618047979"><ele>161.71428571428572</ele><time>2026-04-19T08:56:46Z</time></trkpt><trkpt lat="43.44382124062608" lon="10.563798864123905"><ele>161.57142857142856</ele><time>2026-04-19T08:56:47Z</time></trkpt><trkpt lat="43.44385475882811" lon="10.563887340995949"><ele>161.42857142857144</ele><time>2026-04-19T08:56:48Z</time></trkpt><trkpt lat="43.4438903463692" lon="10.563969627551792"><ele>161.28571428571428</ele><time>2026-04-19T08:56:49Z</time></trkpt><trkpt lat="43.4439259830731" lon="10.564047182030894"><ele>161.14285714285714</ele><time>2026-04-19T08:56:50Z</time></trkpt><trkpt lat="43.44396084637941" lon="10.564124890985383"><ele>161.0</ele><time>2026-04-19T08:56:51Z</time></trkpt><trkpt lat="43.443992830887346" lon="10.564201442277746"><ele>162.42857142857142</ele><time>2026-04-19T08:56:52Z</time></trkpt><trkpt lat="43.444024291818735" lon="10.564279289057177"><ele>163.85714285714286</ele><time>2026-04-19T08:56:53Z</time></trkpt><trkpt lat="43.4440531828163" lon="10.56435822196963"><ele>165.28571428571428</ele><time>2026-04-19T08:56:54Z</time></trkpt><trkpt lat="43.44407805868616" lon="10.564439315937344"><ele>166.71428571428572</ele><time>2026-04-19T08:56:55Z</time></trkpt><trkpt lat="43.44410045285252" lon="10.56452202531131"><ele>168.14285714285714</ele><time>2026-04-19T08:56:56Z</time></trkpt><trkpt lat="43.44412032397793" lon="10.564607803210453"><ele>169.57142857142856</ele><time>2026-04-19T08:56:57Z</time></trkpt><trkpt lat="43.44414162063167" lon="10.564695403444945"><ele>171.0</ele><time>2026-04-19T08:56:58Z</time></trkpt><trkpt lat="43.44416442358344" lon="10.564784952886777"><ele>171.28571428571428</ele><time>2026-04-19T08:56:59Z</time></trkpt><trkpt lat="43.44418790003681" lon="10.56487493037541"><ele>171.57142857142856</ele><time>2026-04-19T08:57:00Z</time></trkpt><trkpt lat="43.44421200426466" lon="10.564962130276838"><ele>171.85714285714283</ele><time>2026-04-19T08:57:01Z</time></trkpt><trkpt lat="43.444236953022994" lon="10.565053286209025"><ele>172.14285714285714</ele><time>2026-04-19T08:57:02Z</time></trkpt><trkpt lat="43.44426282076384" lon="10.565141975860278"><ele>172.42857142857144</ele><time>2026-04-19T08:57:03Z</time></trkpt><trkpt lat="43.4442879463184" lon="10.565229921198195"><ele>172.7142857142857</ele><time>2026-04-19T08:57:04Z</time></trkpt><trkpt lat="43.44431151024581" lon="10.565318349052681"><ele>173.0</ele><time>2026-04-19T08:57:05Z</time></trkpt><trkpt lat="43.444333163074" lon="10.565404224517607"><ele>173.0</ele><time>2026-04-19T08:57:06Z</time></trkpt><trkpt lat="43.44435485085409" lon="10.56549106929726"><ele>173.0</ele><time>2026-04-19T08:57:07Z</time></trkpt><trkpt lat="43.44437603675672" lon="10.565576405516008"><ele>173.0</ele><time>2026-04-19T08:57:08Z</time></trkpt><trkpt lat="43.444397868005545" lon="10.56566035210987"><ele>173.0</ele><time>2026-04-19T08:57:09Z</time></trkpt><trkpt lat="43.444418843567455" lon="10.565742848377036"><ele>173.0</ele><time>2026-04-19T08:57:10Z</time></trkpt><trkpt lat="43.44444004766525" lon="10.565825024417753"><ele>173.0</ele><time>2026-04-19T08:57:11Z</time></trkpt><trkpt lat="43.44448068624407" lon="10.565983956127234"><ele>173.0</ele><time>2026-04-19T08:57:13Z</time></trkpt><trkpt lat="43.444518199943545" lon="10.56613654894228"><ele>173.60000000000002</ele><time>2026-04-19T08:57:15Z</time></trkpt><trkpt lat="43.44455340525685" lon="10.566288233972521"><ele>174.20000000000002</ele><time>2026-04-19T08:57:17Z</time></trkpt><trkpt lat="43.444593947373235" lon="10.566447578106839"><ele>174.8</ele><time>2026-04-19T08:57:19Z</time></trkpt><trkpt lat="43.44461744814947" lon="10.56652881064226"><ele>175.4</ele><time>2026-04-19T08:57:20Z</time></trkpt><trkpt lat="43.444666047441274" lon="10.566684866182896"><ele>176.0</ele><time>2026-04-19T08:57:22Z</time></trkpt><trkpt lat="43.44472206089602" lon="10.56683591592135"><ele>177.57142857142858</ele><time>2026-04-19T08:57:24Z</time></trkpt><trkpt lat="43.44475391311151" lon="10.566912396351093"><ele>179.14285714285714</ele><time>2026-04-19T08:57:25Z</time></trkpt><trkpt lat="43.44478839268701" lon="10.566987425269629"><ele>180.71428571428572</ele><time>2026-04-19T08:57:26Z</time></trkpt><trkpt lat="43.44482558721075" lon="10.567059423363807"><ele>182.28571428571428</ele><time>2026-04-19T08:57:27Z</time></trkpt><trkpt lat="43.44486556327491" lon="10.567130690842685"><ele>183.85714285714286</ele><time>2026-04-19T08:57:28Z</time></trkpt><trkpt lat="43.44490646245773" lon="10.567204411165035"><ele>185.42857142857142</ele><time>2026-04-19T08:57:29Z</time></trkpt><trkpt lat="43.44494603912858" lon="10.56728014704206"><ele>187.0</ele><time>2026-04-19T08:57:30Z</time></trkpt><trkpt lat="43.44498388508966" lon="10.5673539479829"><ele>187.0</ele><time>2026-04-19T08:57:31Z</time></trkpt><trkpt lat="43.44502053303164" lon="10.567428318444174"><ele>187.0</ele><time>2026-04-19T08:57:32Z</time></trkpt><trkpt lat="43.445079232122694" lon="10.56755853019925"><ele>187.0</ele><time>2026-04-19T08:57:34Z</time></trkpt><trkpt lat="43.44512644212007" lon="10.567671969403593"><ele>187.0</ele><time>2026-04-19T08:57:36Z</time></trkpt><trkpt lat="43.44517524464594" lon="10.567767167427462"><ele>187.0</ele><time>2026-04-19T08:57:38Z</time></trkpt><trkpt lat="43.44521953392568" lon="10.567858199533259"><ele>187.0</ele><time>2026-04-19T08:57:40Z</time></trkpt><trkpt lat="43.44526055189443" lon="10.567937550572683"><ele>186.66666666666669</ele><time>2026-04-19T08:57:54Z</time></trkpt><trkpt lat="43.44531033475739" lon="10.56801799905895"><ele>186.33333333333334</ele><time>2026-04-19T08:58:06Z</time></trkpt><trkpt lat="43.44537741330925" lon="10.567953416198684"><ele>186.0</ele><time>2026-04-19T08:58:07Z</time></trkpt><trkpt lat="43.44544500912712" lon="10.567874884830866"><ele>185.66666666666666</ele><time>2026-04-19T08:58:09Z</time></trkpt><trkpt lat="43.44551821824286" lon="10.567748344724274"><ele>185.33333333333331</ele><time>2026-04-19T08:58:11Z</time></trkpt><trkpt lat="43.44558496652057" lon="10.567683025986828"><ele>185.0</ele><time>2026-04-19T08:58:12Z</time></trkpt><trkpt lat="43.44566172015209" lon="10.567626349864836"><ele>185.8</ele><time>2026-04-19T08:58:13Z</time></trkpt><trkpt lat="43.445746321119564" lon="10.567581698670923"><ele>186.6</ele><time>2026-04-19T08:58:14Z</time></trkpt><trkpt lat="43.445839051624674" lon="10.56755555493393"><ele>187.39999999999998</ele><time>2026-04-19T08:58:15Z</time></trkpt><trkpt lat="43.44593678559375" lon="10.567553236699824"><ele>188.2</ele><time>2026-04-19T08:58:16Z</time></trkpt><trkpt lat="43.4460414107474" lon="10.567576739269262"><ele>189.0</ele><time>2026-04-19T08:58:17Z</time></trkpt><trkpt lat="43.44615540449774" lon="10.56762385309081"><ele>189.0</ele><time>2026-04-19T08:58:18Z</time></trkpt><trkpt lat="43.44627394633416" lon="10.567687330287304"><ele>189.0</ele><time>2026-04-19T08:58:19Z</time></trkpt><trkpt lat="43.446388246895914" lon="10.567784259920142"><ele>189.0</ele><time>2026-04-19T08:58:20Z</time></trkpt><trkpt lat="43.44649258131456" lon="10.567907232046183"><ele>189.0</ele><time>2026-04-19T08:58:21Z</time></trkpt><trkpt lat="43.44658744968949" lon="10.568032688125768"><ele>191.25</ele><time>2026-04-19T08:58:22Z</time></trkpt><trkpt lat="43.446682022371455" lon="10.568144820849545"><ele>193.5</ele><time>2026-04-19T08:58:23Z</time></trkpt><trkpt lat="43.44678146768333" lon="10.568232539233563"><ele>195.75</ele><time>2026-04-19T08:58:24Z</time></trkpt><trkpt lat="43.4468856034206" lon="10.56829093987053"><ele>198.0</ele><time>2026-04-19T08:58:25Z</time></trkpt><trkpt lat="43.44699197484509" lon="10.568313688346752"><ele>198.0</ele><time>2026-04-19T08:58:26Z</time></trkpt><trkpt lat="43.44710391812743" lon="10.568296016898026"><ele>198.0</ele><time>2026-04-19T08:58:27Z</time></trkpt><trkpt lat="43.44718016138936" lon="10.568218849390057"><ele>198.0</ele><time>2026-04-19T08:58:28Z</time></trkpt><trkpt lat="43.44722476122489" lon="10.568113719476132"><ele>198.0</ele><time>2026-04-19T08:58:29Z</time></trkpt><trkpt lat="43.44727273483246" lon="10.568003989612686"><ele>198.0</ele><time>2026-04-19T08:58:30Z</time></trkpt><trkpt lat="43.44728147694621" lon="10.567896110310665"><ele>196.60000000000002</ele><time>2026-04-19T08:58:31Z</time></trkpt><trkpt lat="43.44724841947995" lon="10.567792162339318"><ele>195.20000000000002</ele><time>2026-04-19T08:58:32Z</time></trkpt><trkpt lat="43.44718911462475" lon="10.567690423334517"><ele>193.8</ele><time>2026-04-19T08:58:33Z</time></trkpt><trkpt lat="43.447126821398435" lon="10.56758244123994"><ele>192.4</ele><time>2026-04-19T08:58:34Z</time></trkpt><trkpt lat="43.44707661259573" lon="10.567459707543462"><ele>191.0</ele><time>2026-04-19T08:58:35Z</time></trkpt><trkpt lat="43.44703651601466" lon="10.567316574118909"><ele>191.60000000000002</ele><time>2026-04-19T08:58:36Z</time></trkpt><trkpt lat="43.44701249802303" lon="10.567158171139862"><ele>192.2</ele><time>2026-04-19T08:58:37Z</time></trkpt><trkpt lat="43.44700704415077" lon="10.566998005247603"><ele>192.8</ele><time>2026-04-19T08:58:38Z</time></trkpt><trkpt lat="43.44702175717917" lon="10.566851607051996"><ele>193.39999999999998</ele><time>2026-04-19T08:58:39Z</time></trkpt><trkpt lat="43.44706408580741" lon="10.56672403479031"><ele>194.0</ele><time>2026-04-19T08:58:40Z</time></trkpt><trkpt lat="43.447129909229396" lon="10.56661135743817"><ele>194.0</ele><time>2026-04-19T08:58:41Z</time></trkpt><trkpt lat="43.4472159285676" lon="10.56651506333681"><ele>194.0</ele><time>2026-04-19T08:58:42Z</time></trkpt><trkpt lat="43.44730209845684" lon="10.566414290548144"><ele>194.0</ele><time>2026-04-19T08:58:43Z</time></trkpt><trkpt lat="43.44738977828876" lon="10.566307241264173"><ele>194.0</ele><time>2026-04-19T08:58:44Z</time></trkpt><trkpt lat="43.44747538120059" lon="10.566197949249139"><ele>192.6</ele><time>2026-04-19T08:58:45Z</time></trkpt><trkpt lat="43.44755631273128" lon="10.56608556537085"><ele>191.2</ele><time>2026-04-19T08:58:46Z</time></trkpt><trkpt lat="43.44762196168677" lon="10.565956192659025"><ele>189.79999999999998</ele><time>2026-04-19T08:58:47Z</time></trkpt><trkpt lat="43.44765651975139" lon="10.56581636213537"><ele>188.39999999999998</ele><time>2026-04-19T08:58:48Z</time></trkpt><trkpt lat="43.447671674613076" lon="10.565665297582662"><ele>187.0</ele><time>2026-04-19T08:58:49Z</time></trkpt><trkpt lat="43.44767875637281" lon="10.56550083347769"><ele>185.75</ele><time>2026-04-19T08:58:50Z</time></trkpt><trkpt lat="43.447697092592485" lon="10.565332238009782"><ele>184.5</ele><time>2026-04-19T08:58:51Z</time></trkpt><trkpt lat="43.447742816167356" lon="10.565168007806214"><ele>183.25</ele><time>2026-04-19T08:58:52Z</time></trkpt><trkpt lat="43.44780841571468" lon="10.565022174998624"><ele>182.0</ele><time>2026-04-19T08:58:53Z</time></trkpt><trkpt lat="43.44788250434184" lon="10.564889530820878"><ele>183.6</ele><time>2026-04-19T08:58:54Z</time></trkpt><trkpt lat="43.44797255428556" lon="10.564792042350552"><ele>185.2</ele><time>2026-04-19T08:58:55Z</time></trkpt><trkpt lat="43.448079065709074" lon="10.564748311851131"><ele>186.8</ele><time>2026-04-19T08:58:56Z</time></trkpt><trkpt lat="43.448179737686694" lon="10.56477972833887"><ele>188.4</ele><time>2026-04-19T08:58:57Z</time></trkpt><trkpt lat="43.448238160330625" lon="10.564888826296528"><ele>190.0</ele><time>2026-04-19T08:58:58Z</time></trkpt><trkpt lat="43.44831169553922" lon="10.564990205053158"><ele>190.0</ele><time>2026-04-19T08:58:59Z</time></trkpt><trkpt lat="43.4483691404957" lon="10.565103136136715"><ele>190.0</ele><time>2026-04-19T08:59:00Z</time></trkpt><trkpt lat="43.44842673425506" lon="10.56521081860149"><ele>190.0</ele><time>2026-04-19T08:59:01Z</time></trkpt><trkpt lat="43.448486013394046" lon="10.565317532612877"><ele>190.0</ele><time>2026-04-19T08:59:02Z</time></trkpt><trkpt lat="43.448551990392545" lon="10.565424064718494"><ele>190.0</ele><time>2026-04-19T08:59:03Z</time></trkpt><trkpt lat="43.44862010317941" lon="10.565530545437447"><ele>191.6</ele><time>2026-04-19T08:59:04Z</time></trkpt><trkpt lat="43.44869214456684" lon="10.565617646165666"><ele>193.2</ele><time>2026-04-19T08:59:05Z</time></trkpt><trkpt lat="43.448768533180754" lon="10.565676632927042"><ele>194.8</ele><time>2026-04-19T08:59:06Z</time></trkpt><trkpt lat="43.448853364773456" lon="10.565709354193322"><ele>196.4</ele><time>2026-04-19T08:59:07Z</time></trkpt><trkpt lat="43.44894536594326" lon="10.565714791886908"><ele>198.0</ele><time>2026-04-19T08:59:08Z</time></trkpt><trkpt lat="43.449041687950995" lon="10.565689412940218"><ele>198.4</ele><time>2026-04-19T08:59:09Z</time></trkpt><trkpt lat="43.449133037527744" lon="10.565631977414194"><ele>198.8</ele><time>2026-04-19T08:59:10Z</time></trkpt><trkpt lat="43.44922945328879" lon="10.565573181728162"><ele>199.2</ele><time>2026-04-19T08:59:11Z</time></trkpt><trkpt lat="43.449309912466354" lon="10.565470809929803"><ele>199.6</ele><time>2026-04-19T08:59:12Z</time></trkpt><trkpt lat="43.44940581190138" lon="10.565387078646545"><ele>200.0</ele><time>2026-04-19T08:59:13Z</time></trkpt><trkpt lat="43.449511663449144" lon="10.565314224774333"><ele>197.25</ele><time>2026-04-19T08:59:14Z</time></trkpt><trkpt lat="43.449628948109925" lon="10.565263863333511"><ele>194.5</ele><time>2026-04-19T08:59:15Z</time></trkpt><trkpt lat="43.44974957855197" lon="10.565218975491403"><ele>191.75</ele><time>2026-04-19T08:59:16Z</time></trkpt><trkpt lat="43.44987219635283" lon="10.565176563902957"><ele>189.0</ele><time>2026-04-19T08:59:17Z</time></trkpt><trkpt lat="43.44999090590648" lon="10.565125172033596"><ele>189.0</ele><time>2026-04-19T08:59:18Z</time></trkpt><trkpt lat="43.45010706046263" lon="10.565063690120464"><ele>189.0</ele><time>2026-04-19T08:59:19Z</time></trkpt><trkpt lat="43.4502195136199" lon="10.564992446407258"><ele>189.0</ele><time>2026-04-19T08:59:20Z</time></trkpt><trkpt lat="43.45033185936274" lon="10.564917630750946"><ele>189.0</ele><time>2026-04-19T08:59:21Z</time></trkpt><trkpt lat="43.45044594084729" lon="10.564834336954544"><ele>188.5</ele><time>2026-04-19T08:59:22Z</time></trkpt><trkpt lat="43.450554602105186" lon="10.564733077894441"><ele>188.0</ele><time>2026-04-19T08:59:23Z</time></trkpt><trkpt lat="43.45065742892801" lon="10.564618574008819"><ele>187.5</ele><time>2026-04-19T08:59:24Z</time></trkpt><trkpt lat="43.45075970188694" lon="10.564499439839453"><ele>187.0</ele><time>2026-04-19T08:59:25Z</time></trkpt><trkpt lat="43.450867475640436" lon="10.56438677496393"><ele>187.0</ele><time>2026-04-19T08:59:26Z</time></trkpt><trkpt lat="43.45097594505766" lon="10.564275989077588"><ele>187.0</ele><time>2026-04-19T08:59:27Z</time></trkpt><trkpt lat="43.45108436028581" lon="10.564163915080794"><ele>187.0</ele><time>2026-04-19T08:59:28Z</time></trkpt><trkpt lat="43.45119008687537" lon="10.564054137701842"><ele>187.0</ele><time>2026-04-19T08:59:29Z</time></trkpt><trkpt lat="43.45130266919643" lon="10.563967935031954"><ele>187.8</ele><time>2026-04-19T08:59:30Z</time></trkpt><trkpt lat="43.45139761014296" lon="10.563880086803897"><ele>188.6</ele><time>2026-04-19T08:59:31Z</time></trkpt><trkpt lat="43.45148660666004" lon="10.563807779209352"><ele>189.4</ele><time>2026-04-19T08:59:32Z</time></trkpt><trkpt lat="43.45157759482068" lon="10.563772219877942"><ele>190.20000000000002</ele><time>2026-04-19T08:59:33Z</time></trkpt><trkpt lat="43.451666116175275" lon="10.563759399212108"><ele>191.0</ele><time>2026-04-19T08:59:34Z</time></trkpt><trkpt lat="43.45174478731066" lon="10.563826979667056"><ele>191.0</ele><time>2026-04-19T08:59:35Z</time></trkpt><trkpt lat="43.45179162032172" lon="10.563935193475627"><ele>191.0</ele><time>2026-04-19T08:59:36Z</time></trkpt><trkpt lat="43.45182013440022" lon="10.56405929172298"><ele>191.0</ele><time>2026-04-19T08:59:37Z</time></trkpt><trkpt lat="43.45183230955806" lon="10.564196700371715"><ele>191.0</ele><time>2026-04-19T08:59:38Z</time></trkpt><trkpt lat="43.45183031203675" lon="10.564343477650034"><ele>191.0</ele><time>2026-04-19T08:59:39Z</time></trkpt><trkpt lat="43.45181196957582" lon="10.56449517846632"><ele>192.0</ele><time>2026-04-19T08:59:40Z</time></trkpt><trkpt lat="43.45178182491259" lon="10.56464315991369"><ele>193.0</ele><time>2026-04-19T08:59:41Z</time></trkpt><trkpt lat="43.45174426447105" lon="10.564782989005646"><ele>194.0</ele><time>2026-04-19T08:59:42Z</time></trkpt><trkpt lat="43.45169434335622" lon="10.56491405529348"><ele>195.0</ele><time>2026-04-19T08:59:43Z</time></trkpt><trkpt lat="43.45164306952936" lon="10.56504041585154"><ele>196.0</ele><time>2026-04-19T08:59:44Z</time></trkpt><trkpt lat="43.45159758411294" lon="10.565170732960903"><ele>196.0</ele><time>2026-04-19T08:59:45Z</time></trkpt><trkpt lat="43.45156696878186" lon="10.565305738889338"><ele>196.0</ele><time>2026-04-19T08:59:46Z</time></trkpt><trkpt lat="43.45155749178609" lon="10.565448173975074"><ele>196.0</ele><time>2026-04-19T08:59:47Z</time></trkpt><trkpt lat="43.45157087481213" lon="10.56559393381582"><ele>196.0</ele><time>2026-04-19T08:59:48Z</time></trkpt><trkpt lat="43.45160555921576" lon="10.565733993404054"><ele>196.0</ele><time>2026-04-19T08:59:49Z</time></trkpt><trkpt lat="43.45166820116746" lon="10.565853775107424"><ele>197.20000000000002</ele><time>2026-04-19T08:59:50Z</time></trkpt><trkpt lat="43.4517546743234" lon="10.565927856275353"><ele>198.4</ele><time>2026-04-19T08:59:51Z</time></trkpt><trkpt lat="43.45185408551285" lon="10.565944955909956"><ele>199.6</ele><time>2026-04-19T08:59:52Z</time></trkpt><trkpt lat="43.45195242191324" lon="10.565928837139332"><ele>200.8</ele><time>2026-04-19T08:59:53Z</time></trkpt><trkpt lat="43.45205968490648" lon="10.56592244844107"><ele>202.0</ele><time>2026-04-19T08:59:54Z</time></trkpt><trkpt lat="43.45216133561522" lon="10.565931544372802"><ele>201.8</ele><time>2026-04-19T08:59:55Z</time></trkpt><trkpt lat="43.45225593249656" lon="10.565968672104017"><ele>201.6</ele><time>2026-04-19T08:59:56Z</time></trkpt><trkpt lat="43.45233355384387" lon="10.566047231838459"><ele>201.4</ele><time>2026-04-19T08:59:57Z</time></trkpt><trkpt lat="43.45237974156778" lon="10.566158026400384"><ele>201.20000000000002</ele><time>2026-04-19T08:59:58Z</time></trkpt><trkpt lat="43.45239817186897" lon="10.566289601354692"><ele>201.0</ele><time>2026-04-19T08:59:59Z</time></trkpt><trkpt lat="43.452389844346456" lon="10.566433802466177"><ele>201.0</ele><time>2026-04-19T09:00:00Z</time></trkpt><trkpt lat="43.4523788380113" lon="10.566577353401046"><ele>201.0</ele><time>2026-04-19T09:00:01Z</time></trkpt><trkpt lat="43.45237020588482" lon="10.56671725267837"><ele>201.0</ele><time>2026-04-19T09:00:02Z</time></trkpt><trkpt lat="43.45236579541761" lon="10.56685210262341"><ele>201.0</ele><time>2026-04-19T09:00:03Z</time></trkpt><trkpt lat="43.45236338543338" lon="10.566981260248522"><ele>201.0</ele><time>2026-04-19T09:00:04Z</time></trkpt><trkpt lat="43.45236286118932" lon="10.567096281199046"><ele>202.33333333333334</ele><time>2026-04-19T09:00:05Z</time></trkpt><trkpt lat="43.452381681942704" lon="10.567185914612972"><ele>203.66666666666669</ele><time>2026-04-19T09:00:06Z</time></trkpt><trkpt lat="43.45243717544622" lon="10.567299386055238"><ele>205.0</ele><time>2026-04-19T09:00:08Z</time></trkpt><trkpt lat="43.45248952610055" lon="10.567349867710393"><ele>206.33333333333334</ele><time>2026-04-19T09:00:10Z</time></trkpt><trkpt lat="43.452514753937386" lon="10.567453503079856"><ele>207.66666666666669</ele><time>2026-04-19T09:00:12Z</time></trkpt><trkpt lat="43.4524989596918" lon="10.567546436175205"><ele>209.0</ele><time>2026-04-19T09:34:13Z</time></trkpt><trkpt lat="43.45255360840105" lon="10.567606572585081"><ele>209.0</ele><time>2026-04-19T09:34:15Z</time></trkpt><trkpt lat="43.45258272456113" lon="10.567707835866127"><ele>209.0</ele><time>2026-04-19T09:34:17Z</time></trkpt><trkpt lat="43.452561627432246" lon="10.567811450663001"><ele>209.0</ele><time>2026-04-19T09:34:19Z</time></trkpt><trkpt lat="43.45250841624793" lon="10.567875098248859"><ele>209.0</ele><time>2026-04-19T09:34:21Z</time></trkpt><trkpt lat="43.452440931716" lon="10.567831455372595"><ele>209.0</ele><time>2026-04-19T09:34:23Z</time></trkpt><trkpt lat="43.45242326294063" lon="10.567741570058057"><ele>209.0</ele><time>2026-04-19T09:34:25Z</time></trkpt><trkpt lat="43.452408437191956" lon="10.567640304056475"><ele>209.0</ele><time>2026-04-19T09:34:28Z</time></trkpt><trkpt lat="43.45237254131695" lon="10.567560297746686"><ele>209.0</ele><time>2026-04-19T09:34:30Z</time></trkpt><trkpt lat="43.4523302509546" lon="10.56747920104355"><ele>209.0</ele><time>2026-04-19T09:34:32Z</time></trkpt><trkpt lat="43.45228647228401" lon="10.56739508699861"><ele>209.0</ele><time>2026-04-19T09:34:34Z</time></trkpt><trkpt lat="43.452258211872355" lon="10.56730063058444"><ele>209.0</ele><time>2026-04-19T09:34:36Z</time></trkpt><trkpt lat="43.45223806742415" lon="10.567215320002365"><ele>209.0</ele><time>2026-04-19T09:34:38Z</time></trkpt><trkpt lat="43.452219041680976" lon="10.56713132035974"><ele>209.0</ele><time>2026-04-19T09:34:40Z</time></trkpt><trkpt lat="43.45220770386432" lon="10.567044211781408"><ele>209.0</ele><time>2026-04-19T09:34:42Z</time></trkpt><trkpt lat="43.45219645232468" lon="10.566957295010045"><ele>207.66666666666669</ele><time>2026-04-19T09:34:44Z</time></trkpt><trkpt lat="43.45217211428506" lon="10.56683926394729"><ele>206.33333333333334</ele><time>2026-04-19T09:34:47Z</time></trkpt><trkpt lat="43.452146433282685" lon="10.56673135562703"><ele>205.0</ele><time>2026-04-19T09:34:49Z</time></trkpt><trkpt lat="43.45208755481207" lon="10.566651834106276"><ele>203.66666666666669</ele><time>2026-04-19T09:34:51Z</time></trkpt><trkpt lat="43.45201242238347" lon="10.566635330182908"><ele>202.33333333333334</ele><time>2026-04-19T09:34:53Z</time></trkpt><trkpt lat="43.45192582409514" lon="10.566672557830126"><ele>201.0</ele><time>2026-04-19T09:34:55Z</time></trkpt><trkpt lat="43.45183836725623" lon="10.566716234168661"><ele>204.60000000000002</ele><time>2026-04-19T09:34:57Z</time></trkpt><trkpt lat="43.451747447658455" lon="10.566753914585567"><ele>208.2</ele><time>2026-04-19T09:34:59Z</time></trkpt><trkpt lat="43.451655821347" lon="10.56678624035286"><ele>211.79999999999998</ele><time>2026-04-19T09:35:01Z</time></trkpt><trkpt lat="43.451567651905506" lon="10.566805963484294"><ele>215.39999999999998</ele><time>2026-04-19T09:35:03Z</time></trkpt><trkpt lat="43.45148615278498" lon="10.566829052688973"><ele>219.0</ele><time>2026-04-19T09:35:05Z</time></trkpt><trkpt lat="43.45139043236556" lon="10.566855031807668"><ele>219.0</ele><time>2026-04-19T09:35:07Z</time></trkpt><trkpt lat="43.451297248188126" lon="10.566875580027423"><ele>218.99999999999997</ele><time>2026-04-19T09:35:09Z</time></trkpt><trkpt lat="43.45120145221186" lon="10.566890336864892"><ele>218.99999999999997</ele><time>2026-04-19T09:35:11Z</time></trkpt><trkpt lat="43.451109793476704" lon="10.566899889258098"><ele>219.0</ele><time>2026-04-19T09:35:13Z</time></trkpt><trkpt lat="43.451020706914754" lon="10.56690999271382"><ele>219.0</ele><time>2026-04-19T09:35:15Z</time></trkpt><trkpt lat="43.45093436753261" lon="10.566921840943655"><ele>219.0</ele><time>2026-04-19T09:35:17Z</time></trkpt><trkpt lat="43.45085716040829" lon="10.56694900554017"><ele>219.0</ele><time>2026-04-19T09:35:19Z</time></trkpt><trkpt lat="43.4507949736621" lon="10.567020206679423"><ele>219.0</ele><time>2026-04-19T09:35:21Z</time></trkpt><trkpt lat="43.450748678863334" lon="10.567114514251045"><ele>219.0</ele><time>2026-04-19T09:35:23Z</time></trkpt><trkpt lat="43.450715374242606" lon="10.567225453032036"><ele>219.0</ele><time>2026-04-19T09:35:25Z</time></trkpt><trkpt lat="43.45068076471172" lon="10.567347216607498"><ele>219.0</ele><time>2026-04-19T09:35:27Z</time></trkpt><trkpt lat="43.450644526410265" lon="10.567463241783647"><ele>222.66666666666666</ele><time>2026-04-19T09:35:29Z</time></trkpt><trkpt lat="43.450609951373615" lon="10.567574356377683"><ele>226.33333333333331</ele><time>2026-04-19T09:35:31Z</time></trkpt><trkpt lat="43.45057517797022" lon="10.567670244422866"><ele>230.0</ele><time>2026-04-19T09:35:33Z</time></trkpt><trkpt lat="43.450534689529405" lon="10.56775562981446"><ele>233.66666666666666</ele><time>2026-04-19T09:35:35Z</time></trkpt><trkpt lat="43.450467730931145" lon="10.567831257149715"><ele>237.33333333333331</ele><time>2026-04-19T09:35:37Z</time></trkpt><trkpt lat="43.45039854086944" lon="10.56787241973155"><ele>241.0</ele><time>2026-04-19T09:35:39Z</time></trkpt><trkpt lat="43.450332292852885" lon="10.567921552288418"><ele>241.99999999999997</ele><time>2026-04-19T09:35:41Z</time></trkpt><trkpt lat="43.450262334619474" lon="10.567964465866831"><ele>243.0</ele><time>2026-04-19T09:35:43Z</time></trkpt><trkpt lat="43.45018563311487" lon="10.568023719483895"><ele>244.0</ele><time>2026-04-19T09:35:45Z</time></trkpt><trkpt lat="43.450103919660336" lon="10.568088938764088"><ele>245.0</ele><time>2026-04-19T09:35:47Z</time></trkpt><trkpt lat="43.4500242675764" lon="10.568160954299051"><ele>245.99999999999997</ele><time>2026-04-19T09:35:49Z</time></trkpt><trkpt lat="43.449950428094525" lon="10.56823703987081"><ele>247.0</ele><time>2026-04-19T09:35:51Z</time></trkpt><trkpt lat="43.44988504743096" lon="10.568334084707441"><ele>247.0</ele><time>2026-04-19T09:35:53Z</time></trkpt><trkpt lat="43.44981286570008" lon="10.568435407255507"><ele>247.0</ele><time>2026-04-19T09:35:55Z</time></trkpt><trkpt lat="43.4497750455381" lon="10.568569723486071"><ele>247.0</ele><time>2026-04-19T09:35:57Z</time></trkpt><trkpt lat="43.44975910211692" lon="10.568697695324511"><ele>247.0</ele><time>2026-04-19T09:35:59Z</time></trkpt><trkpt lat="43.44972568220766" lon="10.56880224912524"><ele>247.0</ele><time>2026-04-19T09:36:01Z</time></trkpt><trkpt lat="43.44971058907744" lon="10.56890531599451"><ele>248.83333333333331</ele><time>2026-04-19T09:36:03Z</time></trkpt><trkpt lat="43.44971106817694" lon="10.569015495563184"><ele>250.66666666666666</ele><time>2026-04-19T09:36:05Z</time></trkpt><trkpt lat="43.44970335753433" lon="10.569141103736534"><ele>252.5</ele><time>2026-04-19T09:36:07Z</time></trkpt><trkpt lat="43.44972618955647" lon="10.569255344876069"><ele>254.33333333333331</ele><time>2026-04-19T09:36:09Z</time></trkpt><trkpt lat="43.449785210073195" lon="10.569340180956692"><ele>256.1666666666667</ele><time>2026-04-19T09:36:11Z</time></trkpt><trkpt lat="43.44984901692361" lon="10.569411982584434"><ele>258.0</ele><time>2026-04-19T09:36:13Z</time></trkpt><trkpt lat="43.449906383016426" lon="10.569472344996699"><ele>257.99999999999994</ele><time>2026-04-19T09:36:15Z</time></trkpt><trkpt lat="43.44995676050461" lon="10.569537719127261"><ele>258.0</ele><time>2026-04-19T09:36:17Z</time></trkpt><trkpt lat="43.450002298510256" lon="10.569609073392385"><ele>258.0</ele><time>2026-04-19T09:36:20Z</time></trkpt><trkpt lat="43.45004681004711" lon="10.569692649109616"><ele>258.0</ele><time>2026-04-19T09:36:23Z</time></trkpt><trkpt lat="43.45008092498276" lon="10.569778180652792"><ele>258.0</ele><time>2026-04-19T09:36:27Z</time></trkpt><trkpt lat="43.45009825264298" lon="10.569892990006954"><ele>257.99999999999994</ele><time>2026-04-19T09:36:33Z</time></trkpt><trkpt lat="43.450119133100294" lon="10.569989285762782"><ele>258.0</ele><time>2026-04-19T09:36:35Z</time></trkpt><trkpt lat="43.4501628632234" lon="10.57006737155053"><ele>258.0</ele><time>2026-04-19T09:36:37Z</time></trkpt><trkpt lat="43.45021757181999" lon="10.570131837479586"><ele>258.0</ele><time>2026-04-19T09:36:39Z</time></trkpt><trkpt lat="43.45028115027633" lon="10.570188985658762"><ele>258.0</ele><time>2026-04-19T09:36:41Z</time></trkpt><trkpt lat="43.450351817924144" lon="10.57023760621711"><ele>258.0</ele><time>2026-04-19T09:36:43Z</time></trkpt><trkpt lat="43.45042940836599" lon="10.57029425332521"><ele>258.0</ele><time>2026-04-19T09:36:45Z</time></trkpt><trkpt lat="43.45052335136599" lon="10.570323517342654"><ele>258.0</ele><time>2026-04-19T09:36:47Z</time></trkpt><trkpt lat="43.45061785139794" lon="10.570373009523806"><ele>260.0</ele><time>2026-04-19T09:36:49Z</time></trkpt><trkpt lat="43.450710202332665" lon="10.570422234260667"><ele>262.0</ele><time>2026-04-19T09:36:51Z</time></trkpt><trkpt lat="43.450797851914785" lon="10.57048506947225"><ele>264.0</ele><time>2026-04-19T09:36:53Z</time></trkpt><trkpt lat="43.450876668376345" lon="10.570568547481672"><ele>266.0</ele><time>2026-04-19T09:36:55Z</time></trkpt><trkpt lat="43.450942601220426" lon="10.570670564105928"><ele>268.0</ele><time>2026-04-19T09:36:57Z</time></trkpt><trkpt lat="43.45101008093341" lon="10.570770296127302"><ele>268.0</ele><time>2026-04-19T09:36:59Z</time></trkpt><trkpt lat="43.451089018913414" lon="10.570869536329024"><ele>268.0</ele><time>2026-04-19T09:37:01Z</time></trkpt><trkpt lat="43.45117879378186" lon="10.570961485016438"><ele>268.0</ele><time>2026-04-19T09:37:03Z</time></trkpt><trkpt lat="43.45126442106998" lon="10.571053372367608"><ele>268.0</ele><time>2026-04-19T09:37:05Z</time></trkpt><trkpt lat="43.4513193351741" lon="10.571174475259397"><ele>268.0</ele><time>2026-04-19T09:37:07Z</time></trkpt><trkpt lat="43.45135534807618" lon="10.571303785042403"><ele>268.4</ele><time>2026-04-19T09:37:09Z</time></trkpt><trkpt lat="43.45136535646785" lon="10.571436255508155"><ele>268.8</ele><time>2026-04-19T09:37:11Z</time></trkpt><trkpt lat="43.451352178800796" lon="10.571564123805242"><ele>269.2</ele><time>2026-04-19T09:37:13Z</time></trkpt><trkpt lat="43.45128188431633" lon="10.571637481660385"><ele>269.6</ele><time>2026-04-19T09:37:15Z</time></trkpt><trkpt lat="43.451200181650094" lon="10.571693094020386"><ele>270.0</ele><time>2026-04-19T09:37:17Z</time></trkpt><trkpt lat="43.45110300132022" lon="10.571746611733847"><ele>272.0</ele><time>2026-04-19T09:37:19Z</time></trkpt><trkpt lat="43.450998874471864" lon="10.571807036073082"><ele>274.0</ele><time>2026-04-19T09:37:21Z</time></trkpt><trkpt lat="43.45090150246541" lon="10.571894304619365"><ele>276.0</ele><time>2026-04-19T09:37:23Z</time></trkpt><trkpt lat="43.45080215412108" lon="10.571945530632071"><ele>278.0</ele><time>2026-04-19T09:37:25Z</time></trkpt><trkpt lat="43.45070381200469" lon="10.571961077673091"><ele>280.0</ele><time>2026-04-19T09:37:27Z</time></trkpt><trkpt lat="43.45061068190977" lon="10.571982081920114"><ele>280.0</ele><time>2026-04-19T09:37:29Z</time></trkpt><trkpt lat="43.45050544458486" lon="10.572017991875644"><ele>280.0</ele><time>2026-04-19T09:37:31Z</time></trkpt><trkpt lat="43.45039170178073" lon="10.571990766791306"><ele>280.0</ele><time>2026-04-19T09:37:33Z</time></trkpt><trkpt lat="43.450286793463576" lon="10.572013262291627"><ele>280.0</ele><time>2026-04-19T09:37:35Z</time></trkpt><trkpt lat="43.45018813368863" lon="10.572026031854994"><ele>280.0</ele><time>2026-04-19T09:37:37Z</time></trkpt><trkpt lat="43.45008982926761" lon="10.57205262803521"><ele>282.4</ele><time>2026-04-19T09:37:39Z</time></trkpt><trkpt lat="43.44999163676472" lon="10.572075520892689"><ele>284.8</ele><time>2026-04-19T09:37:41Z</time></trkpt><trkpt lat="43.44990127572888" lon="10.572095308581787"><ele>287.2</ele><time>2026-04-19T09:37:43Z</time></trkpt><trkpt lat="43.44983036118604" lon="10.572114573118357"><ele>289.6</ele><time>2026-04-19T09:37:45Z</time></trkpt><trkpt lat="43.449776139324975" lon="10.572206217237115"><ele>292.0</ele><time>2026-04-19T09:37:47Z</time></trkpt><trkpt lat="43.449804187236374" lon="10.57235053688971"><ele>292.0</ele><time>2026-04-19T09:37:49Z</time></trkpt><trkpt lat="43.44987107729147" lon="10.572470003094649"><ele>292.0</ele><time>2026-04-19T09:37:51Z</time></trkpt><trkpt lat="43.449942701240225" lon="10.572568208948908"><ele>292.0</ele><time>2026-04-19T09:37:53Z</time></trkpt><trkpt lat="43.45002340110203" lon="10.572649978613152"><ele>292.0</ele><time>2026-04-19T09:37:55Z</time></trkpt><trkpt lat="43.45008701259332" lon="10.57274913106986"><ele>292.0</ele><time>2026-04-19T09:37:57Z</time></trkpt><trkpt lat="43.450157597003866" lon="10.572850345864397"><ele>289.25</ele><time>2026-04-19T09:37:59Z</time></trkpt><trkpt lat="43.45023289556878" lon="10.57296161004702"><ele>286.5</ele><time>2026-04-19T09:38:01Z</time></trkpt><trkpt lat="43.45030155898034" lon="10.573099089348178"><ele>283.75</ele><time>2026-04-19T09:38:03Z</time></trkpt><trkpt lat="43.450362190398664" lon="10.573247675595846"><ele>281.0</ele><time>2026-04-19T09:38:05Z</time></trkpt><trkpt lat="43.45041261872692" lon="10.573389699571914"><ele>281.0</ele><time>2026-04-19T09:38:07Z</time></trkpt><trkpt lat="43.45045120856449" lon="10.573527059798828"><ele>281.0</ele><time>2026-04-19T09:38:09Z</time></trkpt><trkpt lat="43.45049316998905" lon="10.573664258461402"><ele>281.0</ele><time>2026-04-19T09:38:11Z</time></trkpt><trkpt lat="43.45058206238902" lon="10.57375057236002"><ele>281.0</ele><time>2026-04-19T09:38:13Z</time></trkpt><trkpt lat="43.45068455635345" lon="10.5737969820317"><ele>281.0</ele><time>2026-04-19T09:38:15Z</time></trkpt><trkpt lat="43.45076123075953" lon="10.573893716001926"><ele>286.40000000000003</ele><time>2026-04-19T09:38:17Z</time></trkpt><trkpt lat="43.45082481926008" lon="10.574007491882897"><ele>291.8</ele><time>2026-04-19T09:38:19Z</time></trkpt><trkpt lat="43.45089758881257" lon="10.57413396489092"><ele>297.20000000000005</ele><time>2026-04-19T09:38:21Z</time></trkpt><trkpt lat="43.450995759994264" lon="10.574241408483598"><ele>302.6</ele><time>2026-04-19T09:38:23Z</time></trkpt><trkpt lat="43.4510478686806" lon="10.574298289009446"><ele>308.0</ele><time>2026-04-19T09:38:24Z</time></trkpt><trkpt lat="43.45109606129418" lon="10.574362821559703"><ele>308.0</ele><time>2026-04-19T09:38:25Z</time></trkpt><trkpt lat="43.4511393531976" lon="10.574436996416404"><ele>308.0</ele><time>2026-04-19T09:38:26Z</time></trkpt><trkpt lat="43.45117753547331" lon="10.574512032605726"><ele>308.0</ele><time>2026-04-19T09:38:27Z</time></trkpt><trkpt lat="43.45121042623547" lon="10.57458753731548"><ele>308.0</ele><time>2026-04-19T09:38:28Z</time></trkpt><trkpt lat="43.451275629902426" lon="10.574722101461006"><ele>308.0</ele><time>2026-04-19T09:38:30Z</time></trkpt><trkpt lat="43.451359676652274" lon="10.57482059505934"><ele>308.0</ele><time>2026-04-19T09:38:32Z</time></trkpt><trkpt lat="43.45145004307877" lon="10.57490534203381"><ele>311.4</ele><time>2026-04-19T09:38:34Z</time></trkpt><trkpt lat="43.45154530569815" lon="10.574951505818753"><ele>314.8</ele><time>2026-04-19T09:38:36Z</time></trkpt><trkpt lat="43.451596912325165" lon="10.575074645920663"><ele>318.2</ele><time>2026-04-19T09:38:38Z</time></trkpt><trkpt lat="43.45165373125928" lon="10.57519782407261"><ele>321.6</ele><time>2026-04-19T09:38:40Z</time></trkpt><trkpt lat="43.45169264467739" lon="10.575314524349137"><ele>325.0</ele><time>2026-04-19T09:38:42Z</time></trkpt><trkpt lat="43.4517175598914" lon="10.575452002904923"><ele>326.0</ele><time>2026-04-19T09:38:44Z</time></trkpt><trkpt lat="43.45169796707074" lon="10.575598856025394"><ele>327.0</ele><time>2026-04-19T09:38:46Z</time></trkpt><trkpt lat="43.45166466666804" lon="10.575740845066802"><ele>328.0</ele><time>2026-04-19T09:38:48Z</time></trkpt><trkpt lat="43.45164302328339" lon="10.575903612014248"><ele>329.0</ele><time>2026-04-19T09:38:50Z</time></trkpt><trkpt lat="43.45164898458407" lon="10.575990672900124"><ele>330.0</ele><time>2026-04-19T09:38:51Z</time></trkpt><trkpt lat="43.451702288672465" lon="10.576127628017318"><ele>330.0</ele><time>2026-04-19T09:38:53Z</time></trkpt><trkpt lat="43.45176580181237" lon="10.576243878947537"><ele>330.0</ele><time>2026-04-19T09:38:55Z</time></trkpt><trkpt lat="43.45179953733381" lon="10.576319082943321"><ele>330.0</ele><time>2026-04-19T09:38:56Z</time></trkpt><trkpt lat="43.4518311007491" lon="10.576396177265849"><ele>330.0</ele><time>2026-04-19T09:38:57Z</time></trkpt><trkpt lat="43.45189675502269" lon="10.576531276286039"><ele>330.0</ele><time>2026-04-19T09:38:59Z</time></trkpt><trkpt lat="43.45198629911296" lon="10.576618154357693"><ele>330.0</ele><time>2026-04-19T09:39:01Z</time></trkpt><trkpt lat="43.45208272459253" lon="10.57667057780585"><ele>330.0</ele><time>2026-04-19T09:39:03Z</time></trkpt><trkpt lat="43.452183532728895" lon="10.57671701704093"><ele>330.0</ele><time>2026-04-19T09:39:05Z</time></trkpt><trkpt lat="43.45229048451805" lon="10.576756307573307"><ele>330.0</ele><time>2026-04-19T09:39:07Z</time></trkpt><trkpt lat="43.4523929432652" lon="10.57672857876613"><ele>330.0</ele><time>2026-04-19T09:39:09Z</time></trkpt><trkpt lat="43.452489774262126" lon="10.576663447528894"><ele>332.6</ele><time>2026-04-19T09:39:11Z</time></trkpt><trkpt lat="43.45258004909478" lon="10.576582721464185"><ele>335.2</ele><time>2026-04-19T09:39:13Z</time></trkpt><trkpt lat="43.45267190715569" lon="10.576533396918975"><ele>337.79999999999995</ele><time>2026-04-19T09:39:15Z</time></trkpt><trkpt lat="43.45275570803404" lon="10.576499941995387"><ele>340.4</ele><time>2026-04-19T09:39:17Z</time></trkpt><trkpt lat="43.45285024523421" lon="10.576497645047542"><ele>343.0</ele><time>2026-04-19T09:39:19Z</time></trkpt><trkpt lat="43.452933232442554" lon="10.576551026804223"><ele>346.2</ele><time>2026-04-19T09:39:21Z</time></trkpt><trkpt lat="43.45299531751678" lon="10.576620597789955"><ele>349.4</ele><time>2026-04-19T09:39:23Z</time></trkpt><trkpt lat="43.453073843653875" lon="10.576699319902403"><ele>352.59999999999997</ele><time>2026-04-19T09:39:25Z</time></trkpt><trkpt lat="43.45316934486287" lon="10.576723262959593"><ele>355.79999999999995</ele><time>2026-04-19T09:39:27Z</time></trkpt><trkpt lat="43.45325864943151" lon="10.576718141678805"><ele>359.0</ele><time>2026-04-19T09:39:29Z</time></trkpt><trkpt lat="43.45334714308034" lon="10.576733923809611"><ele>359.0</ele><time>2026-04-19T09:39:31Z</time></trkpt><trkpt lat="43.45342720129982" lon="10.576788631720383"><ele>359.0</ele><time>2026-04-19T09:39:33Z</time></trkpt><trkpt lat="43.45350452581005" lon="10.576850734163248"><ele>359.0</ele><time>2026-04-19T09:39:35Z</time></trkpt><trkpt lat="43.453578005074256" lon="10.57691754111279"><ele>359.0</ele><time>2026-04-19T09:39:37Z</time></trkpt><trkpt lat="43.45363742933196" lon="10.577014172862619"><ele>359.0</ele><time>2026-04-19T09:39:39Z</time></trkpt><trkpt lat="43.453693359890515" lon="10.577123782701493"><ele>358.6</ele><time>2026-04-19T09:39:41Z</time></trkpt><trkpt lat="43.453751225410606" lon="10.577236728902248"><ele>358.2</ele><time>2026-04-19T09:39:43Z</time></trkpt><trkpt lat="43.4538154930797" lon="10.577350434297538"><ele>357.8</ele><time>2026-04-19T09:39:45Z</time></trkpt><trkpt lat="43.45387683686234" lon="10.577469890760431"><ele>357.40000000000003</ele><time>2026-04-19T09:39:47Z</time></trkpt><trkpt lat="43.45392315678924" lon="10.5775992263745"><ele>357.0</ele><time>2026-04-19T09:39:49Z</time></trkpt><trkpt lat="43.4539653485542" lon="10.577734194975202"><ele>360.40000000000003</ele><time>2026-04-19T09:39:51Z</time></trkpt><trkpt lat="43.45400371399977" lon="10.577884594561473"><ele>363.8</ele><time>2026-04-19T09:39:53Z</time></trkpt><trkpt lat="43.454019295566376" lon="10.578020475865713"><ele>367.2</ele><time>2026-04-19T09:39:55Z</time></trkpt><trkpt lat="43.45404105995007" lon="10.578163092299434"><ele>370.6</ele><time>2026-04-19T09:39:57Z</time></trkpt><trkpt lat="43.454088454669666" lon="10.578321138483464"><ele>374.0</ele><time>2026-04-19T09:39:59Z</time></trkpt><trkpt lat="43.4541195877248" lon="10.57840806596403"><ele>374.0</ele><time>2026-04-19T09:40:00Z</time></trkpt><trkpt lat="43.454151237857815" lon="10.578496235999737"><ele>374.0</ele><time>2026-04-19T09:40:01Z</time></trkpt><trkpt lat="43.45418266333104" lon="10.578586164075627"><ele>374.0</ele><time>2026-04-19T09:40:02Z</time></trkpt><trkpt lat="43.454213743979956" lon="10.578671141208417"><ele>374.0</ele><time>2026-04-19T09:40:03Z</time></trkpt><trkpt lat="43.45424532085433" lon="10.578755154021717"><ele>374.0</ele><time>2026-04-19T09:40:04Z</time></trkpt><trkpt lat="43.45427994197567" lon="10.578835510124273"><ele>374.0</ele><time>2026-04-19T09:40:05Z</time></trkpt><trkpt lat="43.45431814586233" lon="10.578910471609227"><ele>374.0</ele><time>2026-04-19T09:40:06Z</time></trkpt><trkpt lat="43.45435995567361" lon="10.578981081946923"><ele>373.79999999999995</ele><time>2026-04-19T09:40:07Z</time></trkpt><trkpt lat="43.45440556008675" lon="10.579045682137165"><ele>373.59999999999997</ele><time>2026-04-19T09:40:08Z</time></trkpt><trkpt lat="43.4544941162378" lon="10.579144761743727"><ele>373.4</ele><time>2026-04-19T09:40:10Z</time></trkpt><trkpt lat="43.45458482758931" lon="10.579234847625354"><ele>373.2</ele><time>2026-04-19T09:40:12Z</time></trkpt><trkpt lat="43.454677807403584" lon="10.579322772322623"><ele>373.0</ele><time>2026-04-19T09:40:14Z</time></trkpt><trkpt lat="43.45474247364297" lon="10.579380806069771"><ele>373.79999999999995</ele><time>2026-04-19T09:40:16Z</time></trkpt><trkpt lat="43.45479950032402" lon="10.57946343561608"><ele>374.6</ele><time>2026-04-19T09:40:18Z</time></trkpt><trkpt lat="43.45480765084931" lon="10.579586037564088"><ele>375.4</ele><time>2026-04-19T09:40:20Z</time></trkpt><trkpt lat="43.45476510077467" lon="10.579704719027433"><ele>376.20000000000005</ele><time>2026-04-19T09:40:22Z</time></trkpt><trkpt lat="43.454723644634136" lon="10.57982692954744"><ele>377.0</ele><time>2026-04-19T09:40:24Z</time></trkpt><trkpt lat="43.45472335437204" lon="10.579965563180343"><ele>379.40000000000003</ele><time>2026-04-19T09:40:26Z</time></trkpt><trkpt lat="43.454729003876565" lon="10.580091734819696"><ele>381.8</ele><time>2026-04-19T09:40:28Z</time></trkpt><trkpt lat="43.45471668141783" lon="10.580230192473232"><ele>384.2</ele><time>2026-04-19T09:40:30Z</time></trkpt><trkpt lat="43.454691518907744" lon="10.580364218794582"><ele>386.6</ele><time>2026-04-19T09:40:32Z</time></trkpt><trkpt lat="43.45469031527497" lon="10.58048246128106"><ele>389.0</ele><time>2026-04-19T09:40:34Z</time></trkpt><trkpt lat="43.454732305095156" lon="10.58058513804755"><ele>391.2</ele><time>2026-04-19T09:40:36Z</time></trkpt><trkpt lat="43.454794692539956" lon="10.580675872058405"><ele>393.4</ele><time>2026-04-19T09:40:38Z</time></trkpt><trkpt lat="43.454867770671534" lon="10.580740823565588"><ele>395.6</ele><time>2026-04-19T09:40:40Z</time></trkpt><trkpt lat="43.45493606392117" lon="10.580810386914836"><ele>397.8</ele><time>2026-04-19T09:40:42Z</time></trkpt><trkpt lat="43.45499409763423" lon="10.580917527530316"><ele>400.0</ele><time>2026-04-19T09:40:44Z</time></trkpt><trkpt lat="43.45503717818378" lon="10.581042216873076"><ele>400.0</ele><time>2026-04-19T09:40:46Z</time></trkpt><trkpt lat="43.45507576083167" lon="10.581168283940743"><ele>400.0</ele><time>2026-04-19T09:40:48Z</time></trkpt><trkpt lat="43.4551147643844" lon="10.581286461966288"><ele>400.0</ele><time>2026-04-19T09:40:50Z</time></trkpt><trkpt lat="43.455172859748764" lon="10.581408074603809"><ele>400.0</ele><time>2026-04-19T09:40:52Z</time></trkpt><trkpt lat="43.45521847829171" lon="10.581537512495464"><ele>400.0</ele><time>2026-04-19T09:40:54Z</time></trkpt><trkpt lat="43.45524371839119" lon="10.581668998622572"><ele>401.4</ele><time>2026-04-19T09:40:56Z</time></trkpt><trkpt lat="43.45525866813107" lon="10.581786939004644"><ele>402.8</ele><time>2026-04-19T09:40:58Z</time></trkpt><trkpt lat="43.455282989342194" lon="10.581898463145734"><ele>404.20000000000005</ele><time>2026-04-19T09:41:00Z</time></trkpt><trkpt lat="43.455314554295086" lon="10.58202715000701"><ele>405.6</ele><time>2026-04-19T09:41:02Z</time></trkpt><trkpt lat="43.455342280188376" lon="10.582175138170028"><ele>407.0</ele><time>2026-04-19T09:41:04Z</time></trkpt><trkpt lat="43.45536343914858" lon="10.582337708764145"><ele>407.5</ele><time>2026-04-19T09:41:06Z</time></trkpt><trkpt lat="43.45538175773565" lon="10.582493975519899"><ele>408.0</ele><time>2026-04-19T09:41:08Z</time></trkpt><trkpt lat="43.455393388292066" lon="10.582642657061001"><ele>408.5</ele><time>2026-04-19T09:41:10Z</time></trkpt><trkpt lat="43.45540688043263" lon="10.582802356322475"><ele>409.0</ele><time>2026-04-19T09:41:12Z</time></trkpt><trkpt lat="43.455413083951754" lon="10.582966767204045"><ele>410.2</ele><time>2026-04-19T09:41:14Z</time></trkpt><trkpt lat="43.455386674244245" lon="10.583122158050415"><ele>411.4</ele><time>2026-04-19T09:41:16Z</time></trkpt><trkpt lat="43.45534294166169" lon="10.583259321414072"><ele>412.6</ele><time>2026-04-19T09:41:18Z</time></trkpt><trkpt lat="43.45534678643782" lon="10.583413073305216"><ele>413.8</ele><time>2026-04-19T09:41:20Z</time></trkpt><trkpt lat="43.45535499717897" lon="10.583567464975312"><ele>415.0</ele><time>2026-04-19T09:41:22Z</time></trkpt><trkpt lat="43.45539130766385" lon="10.583730177462005"><ele>416.8</ele><time>2026-04-19T09:41:24Z</time></trkpt><trkpt lat="43.45539460494653" lon="10.5838195816224"><ele>418.6</ele><time>2026-04-19T09:41:25Z</time></trkpt><trkpt lat="43.45540033843808" lon="10.58390852194468"><ele>420.4</ele><time>2026-04-19T09:41:26Z</time></trkpt><trkpt lat="43.45540636243093" lon="10.584074572317913"><ele>422.2</ele><time>2026-04-19T09:41:28Z</time></trkpt><trkpt lat="43.455430744567934" lon="10.584221066959072"><ele>424.0</ele><time>2026-04-19T09:41:30Z</time></trkpt><trkpt lat="43.4554813003558" lon="10.584356707194367"><ele>424.0</ele><time>2026-04-19T09:41:32Z</time></trkpt><trkpt lat="43.455532068250335" lon="10.584501202763928"><ele>424.0</ele><time>2026-04-19T09:41:34Z</time></trkpt><trkpt lat="43.45559734234954" lon="10.584652210888487"><ele>424.0</ele><time>2026-04-19T09:41:36Z</time></trkpt><trkpt lat="43.45562623883294" lon="10.584740528153716"><ele>424.0</ele><time>2026-04-19T09:41:37Z</time></trkpt><trkpt lat="43.45564836013309" lon="10.584835431386253"><ele>424.0</ele><time>2026-04-19T09:41:38Z</time></trkpt><trkpt lat="43.45567664420441" lon="10.58492724946401"><ele>425.33333333333337</ele><time>2026-04-19T09:41:39Z</time></trkpt><trkpt lat="43.45571581964742" lon="10.585013243750181"><ele>426.6666666666667</ele><time>2026-04-19T09:41:40Z</time></trkpt><trkpt lat="43.45575503598693" lon="10.585096742617566"><ele>428.0</ele><time>2026-04-19T09:41:41Z</time></trkpt><trkpt lat="43.45579595566695" lon="10.585176524207602"><ele>429.33333333333337</ele><time>2026-04-19T09:41:42Z</time></trkpt><trkpt lat="43.45583351323036" lon="10.58525324432171"><ele>430.6666666666667</ele><time>2026-04-19T09:41:43Z</time></trkpt><trkpt lat="43.455868722813136" lon="10.585326066580949"><ele>432.0</ele><time>2026-04-19T09:41:44Z</time></trkpt><trkpt lat="43.455929200834134" lon="10.585470266527699"><ele>433.0</ele><time>2026-04-19T09:41:46Z</time></trkpt><trkpt lat="43.45597663774745" lon="10.585630249733203"><ele>434.0</ele><time>2026-04-19T09:41:48Z</time></trkpt><trkpt lat="43.45600250843757" lon="10.585714328879687"><ele>435.0</ele><time>2026-04-19T09:41:49Z</time></trkpt><trkpt lat="43.45602802972435" lon="10.58580664690555"><ele>436.0</ele><time>2026-04-19T09:41:50Z</time></trkpt><trkpt lat="43.45605174185841" lon="10.58589845120974"><ele>437.0</ele><time>2026-04-19T09:41:51Z</time></trkpt><trkpt lat="43.456078119154924" lon="10.585989801882228"><ele>438.0</ele><time>2026-04-19T09:41:52Z</time></trkpt><trkpt lat="43.456110341986076" lon="10.58608488548915"><ele>438.5</ele><time>2026-04-19T09:41:53Z</time></trkpt><trkpt lat="43.45614681546522" lon="10.58618383911384"><ele>439.0</ele><time>2026-04-19T09:41:54Z</time></trkpt><trkpt lat="43.456185522373296" lon="10.586281315321719"><ele>439.5</ele><time>2026-04-19T09:41:55Z</time></trkpt><trkpt lat="43.4562198764523" lon="10.586379239089164"><ele>440.0</ele><time>2026-04-19T09:41:56Z</time></trkpt><trkpt lat="43.45626823172441" lon="10.586467756333649"><ele>440.5</ele><time>2026-04-19T09:41:57Z</time></trkpt><trkpt lat="43.45631868374526" lon="10.586551527759964"><ele>441.0</ele><time>2026-04-19T09:41:58Z</time></trkpt><trkpt lat="43.45636875930888" lon="10.58663209025757"><ele>441.14285714285717</ele><time>2026-04-19T09:41:59Z</time></trkpt><trkpt lat="43.45641740449757" lon="10.586708536151123"><ele>441.2857142857143</ele><time>2026-04-19T09:42:00Z</time></trkpt><trkpt lat="43.456459625414084" lon="10.586786891303712"><ele>441.42857142857144</ele><time>2026-04-19T09:42:01Z</time></trkpt><trkpt lat="43.45650079839616" lon="10.586865133216625"><ele>441.57142857142856</ele><time>2026-04-19T09:42:02Z</time></trkpt><trkpt lat="43.45653548436988" lon="10.586943327346297"><ele>441.7142857142857</ele><time>2026-04-19T09:42:03Z</time></trkpt><trkpt lat="43.45656175646533" lon="10.587025663658796"><ele>441.8571428571429</ele><time>2026-04-19T09:42:04Z</time></trkpt><trkpt lat="43.45658247891513" lon="10.587108653456282"><ele>442.0</ele><time>2026-04-19T09:42:05Z</time></trkpt><trkpt lat="43.45661325965103" lon="10.587274036204544"><ele>445.25</ele><time>2026-04-19T09:42:07Z</time></trkpt><trkpt lat="43.45663808484256" lon="10.587436530411349"><ele>448.5</ele><time>2026-04-19T09:42:09Z</time></trkpt><trkpt lat="43.456669259331996" lon="10.58758960992721"><ele>451.75</ele><time>2026-04-19T09:42:11Z</time></trkpt><trkpt lat="43.45670452218121" lon="10.58774125096066"><ele>455.0</ele><time>2026-04-19T09:42:13Z</time></trkpt><trkpt lat="43.456772870395845" lon="10.587877927860776"><ele>456.42857142857144</ele><time>2026-04-19T09:42:15Z</time></trkpt><trkpt lat="43.45682446370371" lon="10.587932162857847"><ele>457.8571428571429</ele><time>2026-04-19T09:42:16Z</time></trkpt><trkpt lat="43.456879881343596" lon="10.587990544059265"><ele>459.2857142857143</ele><time>2026-04-19T09:42:17Z</time></trkpt><trkpt lat="43.4569368203704" lon="10.588042622757952"><ele>460.7142857142857</ele><time>2026-04-19T09:42:18Z</time></trkpt><trkpt lat="43.456990650512765" lon="10.588092516271509"><ele>462.14285714285717</ele><time>2026-04-19T09:42:19Z</time></trkpt><trkpt lat="43.4570433274741" lon="10.588144300029963"><ele>463.57142857142856</ele><time>2026-04-19T09:42:20Z</time></trkpt><trkpt lat="43.4571367993536" lon="10.588230964901562"><ele>465.0</ele><time>2026-04-19T09:42:22Z</time></trkpt><trkpt lat="43.45721074134556" lon="10.588325433432638"><ele>465.0</ele><time>2026-04-19T09:42:24Z</time></trkpt><trkpt lat="43.457264777121914" lon="10.588444024451741"><ele>465.0</ele><time>2026-04-19T09:42:26Z</time></trkpt><trkpt lat="43.457330136907565" lon="10.588582972740431"><ele>465.0</ele><time>2026-04-19T09:42:28Z</time></trkpt><trkpt lat="43.45738864615535" lon="10.588630224241246"><ele>465.0</ele><time>2026-04-19T09:42:29Z</time></trkpt><trkpt lat="43.4574473422696" lon="10.58867788769907"><ele>465.0</ele><time>2026-04-19T09:42:30Z</time></trkpt><trkpt lat="43.457515201796156" lon="10.58869272415224"><ele>465.0</ele><time>2026-04-19T09:42:31Z</time></trkpt><trkpt lat="43.457577358423684" lon="10.5887170372535"><ele>466.1666666666667</ele><time>2026-04-19T09:42:32Z</time></trkpt><trkpt lat="43.45770269360075" lon="10.588751390227177"><ele>467.33333333333337</ele><time>2026-04-19T09:42:34Z</time></trkpt><trkpt lat="43.457759530429584" lon="10.588800989452324"><ele>468.5</ele><time>2026-04-19T09:42:35Z</time></trkpt><trkpt lat="43.45781306365113" lon="10.588858215250333"><ele>469.6666666666667</ele><time>2026-04-19T09:42:36Z</time></trkpt><trkpt lat="43.45786813495419" lon="10.588915734482386"><ele>470.83333333333337</ele><time>2026-04-19T09:42:37Z</time></trkpt><trkpt lat="43.45791995682439" lon="10.588984782890321"><ele>472.0</ele><time>2026-04-19T09:42:38Z</time></trkpt><trkpt lat="43.457968525554875" lon="10.589054448890211"><ele>472.00000000000006</ele><time>2026-04-19T09:42:39Z</time></trkpt><trkpt lat="43.4580124517693" lon="10.589127889597457"><ele>472.0</ele><time>2026-04-19T09:42:40Z</time></trkpt><trkpt lat="43.45805604873356" lon="10.589208130747751"><ele>472.0</ele><time>2026-04-19T09:42:41Z</time></trkpt><trkpt lat="43.45810307203821" lon="10.589288012405678"><ele>472.0</ele><time>2026-04-19T09:42:42Z</time></trkpt><trkpt lat="43.45815230627463" lon="10.589374418560853"><ele>472.00000000000006</ele><time>2026-04-19T09:42:43Z</time></trkpt><trkpt lat="43.45820220398822" lon="10.589460056521236"><ele>472.0</ele><time>2026-04-19T09:42:44Z</time></trkpt><trkpt lat="43.4582482661656" lon="10.589553286193345"><ele>474.6666666666667</ele><time>2026-04-19T09:42:45Z</time></trkpt><trkpt lat="43.45828121183712" lon="10.589653140028638"><ele>477.33333333333337</ele><time>2026-04-19T09:42:46Z</time></trkpt><trkpt lat="43.45831300108915" lon="10.589746249192014"><ele>480.0</ele><time>2026-04-19T09:42:47Z</time></trkpt><trkpt lat="43.45836001042866" lon="10.589807489320286"><ele>482.66666666666663</ele><time>2026-04-19T09:42:48Z</time></trkpt><trkpt lat="43.458473654257276" lon="10.589848362542627"><ele>485.3333333333333</ele><time>2026-04-19T09:42:50Z</time></trkpt><trkpt lat="43.45857043620376" lon="10.589926129048541"><ele>488.0</ele><time>2026-04-19T09:42:52Z</time></trkpt><trkpt lat="43.458617849030695" lon="10.589996496961794"><ele>487.99999999999994</ele><time>2026-04-19T09:42:53Z</time></trkpt><trkpt lat="43.45866542123889" lon="10.590077157614813"><ele>488.0</ele><time>2026-04-19T09:42:54Z</time></trkpt><trkpt lat="43.458692024166304" lon="10.590184738598616"><ele>488.0</ele><time>2026-04-19T09:42:55Z</time></trkpt><trkpt lat="43.45872749427854" lon="10.590279219296697"><ele>488.0</ele><time>2026-04-19T09:42:56Z</time></trkpt><trkpt lat="43.45877366487979" lon="10.590357329736568"><ele>487.99999999999994</ele><time>2026-04-19T09:42:57Z</time></trkpt><trkpt lat="43.45879539255509" lon="10.590458982179213"><ele>488.0</ele><time>2026-04-19T09:42:58Z</time></trkpt><trkpt lat="43.45883597105264" lon="10.590544461880926"><ele>487.99999999999994</ele><time>2026-04-19T09:42:59Z</time></trkpt><trkpt lat="43.45891125226888" lon="10.590588904606163"><ele>488.0</ele><time>2026-04-19T09:43:00Z</time></trkpt><trkpt lat="43.45897078174352" lon="10.590644147571577"><ele>487.99999999999994</ele><time>2026-04-19T09:43:01Z</time></trkpt><trkpt lat="43.45903285250544" lon="10.590680488251955"><ele>487.99999999999994</ele><time>2026-04-19T09:43:02Z</time></trkpt><trkpt lat="43.45910038507008" lon="10.59069373334684"><ele>488.0</ele><time>2026-04-19T09:43:03Z</time></trkpt><trkpt lat="43.459158272870354" lon="10.590736772033026"><ele>487.99999999999994</ele><time>2026-04-19T09:43:04Z</time></trkpt><trkpt lat="43.459219915910076" lon="10.59077140985724"><ele>487.99999999999994</ele><time>2026-04-19T09:43:05Z</time></trkpt><trkpt lat="43.459284769560696" lon="10.590802843246665"><ele>487.99999999999994</ele><time>2026-04-19T09:43:06Z</time></trkpt><trkpt lat="43.459350212448506" lon="10.590829719510422"><ele>488.0</ele><time>2026-04-19T09:43:07Z</time></trkpt><trkpt lat="43.4594134536802" lon="10.590851930785165"><ele>487.99999999999994</ele><time>2026-04-19T09:43:08Z</time></trkpt><trkpt lat="43.459473971286585" lon="10.590879608026134"><ele>487.99999999999994</ele><time>2026-04-19T09:43:09Z</time></trkpt><trkpt lat="43.459529320112274" lon="10.590932508907404"><ele>488.0</ele><time>2026-04-19T09:43:10Z</time></trkpt><trkpt lat="43.459578765649724" lon="10.591002201581128"><ele>487.99999999999994</ele><time>2026-04-19T09:43:11Z</time></trkpt><trkpt lat="43.4596191847037" lon="10.591078592902155"><ele>487.99999999999994</ele><time>2026-04-19T09:43:12Z</time></trkpt><trkpt lat="43.45965920232225" lon="10.591150063572298"><ele>487.66666666666663</ele><time>2026-04-19T09:43:13Z</time></trkpt><trkpt lat="43.459739583410474" lon="10.591284774423741"><ele>487.3333333333333</ele><time>2026-04-19T09:43:15Z</time></trkpt><trkpt lat="43.45980327863791" lon="10.591321585751075"><ele>487.0</ele><time>2026-04-19T09:43:16Z</time></trkpt><trkpt lat="43.459847141967565" lon="10.591399114527281"><ele>486.66666666666663</ele><time>2026-04-19T09:43:17Z</time></trkpt><trkpt lat="43.45988509692561" lon="10.59148575058226"><ele>486.3333333333333</ele><time>2026-04-19T09:43:18Z</time></trkpt><trkpt lat="43.45992031441734" lon="10.591577179341156"><ele>486.0</ele><time>2026-04-19T09:43:19Z</time></trkpt><trkpt lat="43.45995344699135" lon="10.591669895422978"><ele>486.0</ele><time>2026-04-19T09:43:20Z</time></trkpt><trkpt lat="43.459984286736635" lon="10.591761902819952"><ele>486.0</ele><time>2026-04-19T09:43:21Z</time></trkpt><trkpt lat="43.4600153146867" lon="10.591854280454942"><ele>486.0</ele><time>2026-04-19T09:43:22Z</time></trkpt><trkpt lat="43.460043120692916" lon="10.591944348429939"><ele>486.0</ele><time>2026-04-19T09:43:23Z</time></trkpt><trkpt lat="43.460056079045046" lon="10.592034110318034"><ele>486.0</ele><time>2026-04-19T09:43:24Z</time></trkpt><trkpt lat="43.46007772330694" lon="10.592185125814332"><ele>486.0</ele><time>2026-04-19T09:43:26Z</time></trkpt><trkpt lat="43.460139743993984" lon="10.592315267535"><ele>486.3333333333333</ele><time>2026-04-19T09:43:28Z</time></trkpt><trkpt lat="43.460225174522115" lon="10.592384038892105"><ele>486.66666666666663</ele><time>2026-04-19T09:43:30Z</time></trkpt><trkpt lat="43.460316393259205" lon="10.592406662681736"><ele>487.0</ele><time>2026-04-19T09:43:32Z</time></trkpt><trkpt lat="43.46040233225707" lon="10.592412404158226"><ele>487.3333333333333</ele><time>2026-04-19T09:43:34Z</time></trkpt><trkpt lat="43.46048150933092" lon="10.592425218752583"><ele>487.66666666666663</ele><time>2026-04-19T09:43:36Z</time></trkpt><trkpt lat="43.46056397265519" lon="10.592437379834875"><ele>488.0</ele><time>2026-04-19T09:43:38Z</time></trkpt><trkpt lat="43.46066096814021" lon="10.592450385317877"><ele>486.4</ele><time>2026-04-19T09:43:40Z</time></trkpt><trkpt lat="43.4607709338958" lon="10.592474028861028"><ele>484.79999999999995</ele><time>2026-04-19T09:43:42Z</time></trkpt><trkpt lat="43.460866974481505" lon="10.592498561956129"><ele>483.2</ele><time>2026-04-19T09:43:44Z</time></trkpt><trkpt lat="43.460964427743406" lon="10.5925354932683"><ele>481.6</ele><time>2026-04-19T09:43:46Z</time></trkpt><trkpt lat="43.4610713399158" lon="10.592585246813154"><ele>480.0</ele><time>2026-04-19T09:43:48Z</time></trkpt><trkpt lat="43.46116831197184" lon="10.592655606816844"><ele>480.0</ele><time>2026-04-19T09:43:50Z</time></trkpt><trkpt lat="43.46122994992888" lon="10.59274765050788"><ele>480.0</ele><time>2026-04-19T09:43:52Z</time></trkpt><trkpt lat="43.46129008920462" lon="10.592811082019706"><ele>480.0</ele><time>2026-04-19T09:43:54Z</time></trkpt><trkpt lat="43.461376867722684" lon="10.592826393084454"><ele>480.0</ele><time>2026-04-19T09:43:56Z</time></trkpt><trkpt lat="43.46142486011558" lon="10.5927698956279"><ele>480.0</ele><time>2026-04-19T09:43:57Z</time></trkpt><trkpt lat="43.46145884538335" lon="10.592652420140983"><ele>480.0</ele><time>2026-04-19T09:43:59Z</time></trkpt><trkpt lat="43.46148335406901" lon="10.592564404082157"><ele>479.0</ele><time>2026-04-19T09:44:01Z</time></trkpt><trkpt lat="43.46151313676391" lon="10.592483691780176"><ele>478.0</ele><time>2026-04-19T09:44:03Z</time></trkpt><trkpt lat="43.46154332283786" lon="10.592377153270359"><ele>477.0</ele><time>2026-04-19T09:44:33Z</time></trkpt><trkpt lat="43.46159811092164" lon="10.592333639961932"><ele>476.0</ele><time>2026-04-19T09:44:36Z</time></trkpt><trkpt lat="43.46169052168273" lon="10.592421386845535"><ele>475.0</ele><time>2026-04-19T09:44:40Z</time></trkpt><trkpt lat="43.4617438350457" lon="10.592473288776498"><ele>474.0</ele><time>2026-04-19T09:44:43Z</time></trkpt><trkpt lat="43.461788566898264" lon="10.592535450009088"><ele>474.0</ele><time>2026-04-19T09:44:48Z</time></trkpt><trkpt lat="43.46183763441068" lon="10.592609938891087"><ele>474.0</ele><time>2026-04-19T09:44:53Z</time></trkpt><trkpt lat="43.46188122677285" lon="10.592672966769253"><ele>474.0</ele><time>2026-04-19T09:44:57Z</time></trkpt><trkpt lat="43.46193776800462" lon="10.592749669641272"><ele>474.0</ele><time>2026-04-19T09:45:01Z</time></trkpt><trkpt lat="43.46198866771433" lon="10.59281871933101"><ele>474.0</ele><time>2026-04-19T09:45:05Z</time></trkpt><trkpt lat="43.46196896575818" lon="10.593969698914083"><ele>473.2857142857142</ele><time>2026-04-19T09:45:52Z</time></trkpt><trkpt lat="43.46198294798824" lon="10.59406359919914"><ele>472.57142857142856</ele><time>2026-04-19T09:45:56Z</time></trkpt><trkpt lat="43.46201255448467" lon="10.594144586096583"><ele>471.85714285714283</ele><time>2026-04-19T09:45:59Z</time></trkpt><trkpt lat="43.46203991066491" lon="10.594246980228576"><ele>471.1428571428571</ele><time>2026-04-19T09:46:03Z</time></trkpt><trkpt lat="43.46206984758279" lon="10.594328053440309"><ele>470.42857142857144</ele><time>2026-04-19T09:46:07Z</time></trkpt><trkpt lat="43.4620837323791" lon="10.594413009088486"><ele>469.7142857142857</ele><time>2026-04-19T09:46:10Z</time></trkpt><trkpt lat="43.46205332169709" lon="10.59450667087295"><ele>469.0</ele><time>2026-04-19T09:46:14Z</time></trkpt><trkpt lat="43.462034158987784" lon="10.594603222273452"><ele>468.50000000000006</ele><time>2026-04-19T09:46:18Z</time></trkpt><trkpt lat="43.462024080788495" lon="10.594714894223378"><ele>468.0</ele><time>2026-04-19T09:46:21Z</time></trkpt><trkpt lat="43.462015959639665" lon="10.594818023019618"><ele>467.5</ele><time>2026-04-19T09:46:24Z</time></trkpt><trkpt lat="43.46200065173808" lon="10.59492193754672"><ele>467.0</ele><time>2026-04-19T09:46:28Z</time></trkpt><trkpt lat="43.461985967880175" lon="10.595035011035437"><ele>466.50000000000006</ele><time>2026-04-19T09:46:31Z</time></trkpt><trkpt lat="43.462009330349204" lon="10.595160998722738"><ele>466.0</ele><time>2026-04-19T09:46:34Z</time></trkpt><trkpt lat="43.46202572121161" lon="10.595281264371325"><ele>465.28571428571433</ele><time>2026-04-19T09:46:37Z</time></trkpt><trkpt lat="43.46202514863629" lon="10.595378045238508"><ele>464.57142857142856</ele><time>2026-04-19T09:46:40Z</time></trkpt><trkpt lat="43.462024891114226" lon="10.59547701705858"><ele>463.8571428571429</ele><time>2026-04-19T09:46:43Z</time></trkpt><trkpt lat="43.46202462658246" lon="10.59558792121086"><ele>463.14285714285717</ele><time>2026-04-19T09:46:47Z</time></trkpt><trkpt lat="43.462027429887016" lon="10.595686133171649"><ele>462.42857142857144</ele><time>2026-04-19T09:46:50Z</time></trkpt><trkpt lat="43.46201598742938" lon="10.595783706160013"><ele>461.7142857142857</ele><time>2026-04-19T09:46:53Z</time></trkpt><trkpt lat="43.462013196983555" lon="10.595894747623374"><ele>461.0</ele><time>2026-04-19T09:46:56Z</time></trkpt><trkpt lat="43.46201623377158" lon="10.596018423927347"><ele>461.0</ele><time>2026-04-19T09:46:59Z</time></trkpt><trkpt lat="43.46202447939096" lon="10.596126731102064"><ele>461.00000000000006</ele><time>2026-04-19T09:47:02Z</time></trkpt><trkpt lat="43.46205331551712" lon="10.596227733174786"><ele>461.0</ele><time>2026-04-19T09:47:05Z</time></trkpt><trkpt lat="43.462069634369605" lon="10.596322017512307"><ele>461.0</ele><time>2026-04-19T09:47:09Z</time></trkpt><trkpt lat="43.46209271062641" lon="10.596403395979321"><ele>461.00000000000006</ele><time>2026-04-19T09:47:12Z</time></trkpt><trkpt lat="43.46211496788511" lon="10.596505561751412"><ele>461.0</ele><time>2026-04-19T09:47:17Z</time></trkpt><trkpt lat="43.46213917388398" lon="10.596599958061654"><ele>461.0</ele><time>2026-04-19T09:47:22Z</time></trkpt><trkpt lat="43.46216308752133" lon="10.59668086465774"><ele>461.14285714285717</ele><time>2026-04-19T09:47:27Z</time></trkpt><trkpt lat="43.462185292614905" lon="10.596770358945081"><ele>461.28571428571433</ele><time>2026-04-19T09:47:30Z</time></trkpt><trkpt lat="43.46220748919196" lon="10.596855444239436"><ele>461.42857142857144</ele><time>2026-04-19T09:47:33Z</time></trkpt><trkpt lat="43.4622307146391" lon="10.596941480360135"><ele>461.57142857142856</ele><time>2026-04-19T09:47:36Z</time></trkpt><trkpt lat="43.46224657653874" lon="10.597035822262264"><ele>461.7142857142857</ele><time>2026-04-19T09:47:40Z</time></trkpt><trkpt lat="43.462263249267615" lon="10.597137370090485"><ele>461.8571428571429</ele><time>2026-04-19T09:47:43Z</time></trkpt><trkpt lat="43.46228259034351" lon="10.59723151488352"><ele>462.0</ele><time>2026-04-19T09:47:46Z</time></trkpt><trkpt lat="43.462318351318046" lon="10.597317780968103"><ele>460.8571428571429</ele><time>2026-04-19T09:47:49Z</time></trkpt><trkpt lat="43.46236102118231" lon="10.597412785870397"><ele>459.7142857142857</ele><time>2026-04-19T09:47:53Z</time></trkpt><trkpt lat="43.46239292282279" lon="10.597495365496288"><ele>458.57142857142856</ele><time>2026-04-19T09:47:56Z</time></trkpt><trkpt lat="43.46242349385983" lon="10.597571596257314"><ele>457.42857142857144</ele><time>2026-04-19T09:48:00Z</time></trkpt><trkpt lat="43.46247679053319" lon="10.597623331887808"><ele>456.28571428571433</ele><time>2026-04-19T09:48:09Z</time></trkpt><trkpt lat="43.46251634167018" lon="10.59769235602297"><ele>455.14285714285717</ele><time>2026-04-19T09:48:16Z</time></trkpt><trkpt lat="43.46249116847422" lon="10.59777951391776"><ele>454.0</ele><time>2026-04-19T09:48:22Z</time></trkpt><trkpt lat="43.46244280308424" lon="10.59785714545124"><ele>453.6666666666667</ele><time>2026-04-19T09:48:25Z</time></trkpt><trkpt lat="43.46241361221779" lon="10.597935962551027"><ele>453.33333333333337</ele><time>2026-04-19T09:48:27Z</time></trkpt><trkpt lat="43.46237343087706" lon="10.59804850762171"><ele>453.0</ele><time>2026-04-19T09:48:30Z</time></trkpt><trkpt lat="43.46236075862461" lon="10.598136991176633"><ele>452.66666666666663</ele><time>2026-04-19T09:48:34Z</time></trkpt><trkpt lat="43.46239345090086" lon="10.598247844559868"><ele>452.3333333333333</ele><time>2026-04-19T09:48:38Z</time></trkpt><trkpt lat="43.46242019820786" lon="10.598367781080494"><ele>452.0</ele><time>2026-04-19T09:48:41Z</time></trkpt><trkpt lat="43.46244330826451" lon="10.598466342779208"><ele>452.0</ele><time>2026-04-19T09:48:44Z</time></trkpt><trkpt lat="43.46244837576156" lon="10.598553896921448"><ele>452.0</ele><time>2026-04-19T09:48:47Z</time></trkpt><trkpt lat="43.462437511260944" lon="10.598677587176816"><ele>452.0</ele><time>2026-04-19T09:48:50Z</time></trkpt><trkpt lat="43.462417703323545" lon="10.59876216785516"><ele>452.0</ele><time>2026-04-19T09:48:53Z</time></trkpt><trkpt lat="43.462438831959616" lon="10.598855591738875"><ele>452.0</ele><time>2026-04-19T09:48:57Z</time></trkpt><trkpt lat="43.46246982876273" lon="10.59893466293739"><ele>452.0</ele><time>2026-04-19T09:49:00Z</time></trkpt><trkpt lat="43.46250013818635" lon="10.5990502807359"><ele>452.0</ele><time>2026-04-19T09:49:03.001Z</time></trkpt><trkpt lat="43.4625242556598" lon="10.599143506462372"><ele>451.7142857142857</ele><time>2026-04-19T09:49:06Z</time></trkpt><trkpt lat="43.46250500591854" lon="10.599242096013784"><ele>451.42857142857144</ele><time>2026-04-19T09:49:09Z</time></trkpt><trkpt lat="43.4624924091738" lon="10.599359241369962"><ele>451.14285714285717</ele><time>2026-04-19T09:49:14Z</time></trkpt><trkpt lat="43.462486619853166" lon="10.599462364073714"><ele>450.8571428571429</ele><time>2026-04-19T09:49:19Z</time></trkpt><trkpt lat="43.462489455498535" lon="10.59955180671939"><ele>450.57142857142856</ele><time>2026-04-19T09:49:22Z</time></trkpt><trkpt lat="43.46249697265458" lon="10.599655134987014"><ele>450.28571428571433</ele><time>2026-04-19T09:49:27Z</time></trkpt><trkpt lat="43.46249166331558" lon="10.599748935383563"><ele>450.00000000000006</ele><time>2026-04-19T09:49:30Z</time></trkpt><trkpt lat="43.46247824113151" lon="10.599852921481336"><ele>449.28571428571433</ele><time>2026-04-19T09:49:34Z</time></trkpt><trkpt lat="43.46245158411339" lon="10.599960884748091"><ele>448.57142857142856</ele><time>2026-04-19T09:49:37Z</time></trkpt><trkpt lat="43.46241718360069" lon="10.600038374667989"><ele>447.8571428571429</ele><time>2026-04-19T09:49:40Z</time></trkpt><trkpt lat="43.46241281852669" lon="10.600148819009362"><ele>447.14285714285717</ele><time>2026-04-19T09:49:44Z</time></trkpt><trkpt lat="43.462435366285185" lon="10.600248187356234"><ele>446.42857142857144</ele><time>2026-04-19T09:49:48Z</time></trkpt><trkpt lat="43.46246026845469" lon="10.600332477714955"><ele>445.7142857142857</ele><time>2026-04-19T09:49:51Z</time></trkpt><trkpt lat="43.462448919939106" lon="10.600428856858272"><ele>445.0</ele><time>2026-04-19T09:49:54Z</time></trkpt><trkpt lat="43.46243078331029" lon="10.600523768679267"><ele>444.83333333333337</ele><time>2026-04-19T09:49:57Z</time></trkpt><trkpt lat="43.462412763208306" lon="10.600641462745719"><ele>444.6666666666667</ele><time>2026-04-19T09:50:01Z</time></trkpt><trkpt lat="43.462420744118404" lon="10.600745489327386"><ele>444.5</ele><time>2026-04-19T09:50:06Z</time></trkpt><trkpt lat="43.462422115209286" lon="10.600833633094028"><ele>444.33333333333337</ele><time>2026-04-19T09:50:09Z</time></trkpt><trkpt lat="43.4624039702636" lon="10.600953134049998"><ele>444.1666666666667</ele><time>2026-04-19T09:50:13Z</time></trkpt><trkpt lat="43.46237122590012" lon="10.601056763283633"><ele>444.0</ele><time>2026-04-19T09:50:16Z</time></trkpt><trkpt lat="43.46233852408961" lon="10.601154881138024"><ele>442.3333333333333</ele><time>2026-04-19T09:50:19Z</time></trkpt><trkpt lat="43.46229603791607" lon="10.601251522724802"><ele>440.66666666666663</ele><time>2026-04-19T09:50:22Z</time></trkpt><trkpt lat="43.46224559059924" lon="10.60134317237225"><ele>439.0</ele><time>2026-04-19T09:50:25Z</time></trkpt><trkpt lat="43.46221728841753" lon="10.601443218092006"><ele>437.3333333333333</ele><time>2026-04-19T09:50:28Z</time></trkpt><trkpt lat="43.46222816317431" lon="10.601557615039631"><ele>435.66666666666663</ele><time>2026-04-19T09:50:31Z</time></trkpt><trkpt lat="43.46223078463286" lon="10.601682385349783"><ele>434.0</ele><time>2026-04-19T09:50:35Z</time></trkpt><trkpt lat="43.46223825382374" lon="10.601800979412916"><ele>433.99999999999994</ele><time>2026-04-19T09:50:38Z</time></trkpt><trkpt lat="43.462246185198694" lon="10.601910647218308"><ele>434.0</ele><time>2026-04-19T09:50:40Z</time></trkpt><trkpt lat="43.4622471874413" lon="10.602026659077097"><ele>434.0</ele><time>2026-04-19T09:50:42Z</time></trkpt><trkpt lat="43.46225066725993" lon="10.602114556761281"><ele>434.0</ele><time>2026-04-19T09:50:44Z</time></trkpt><trkpt lat="43.46226131876571" lon="10.602204836203041"><ele>433.99999999999994</ele><time>2026-04-19T09:50:47Z</time></trkpt><trkpt lat="43.46227569466249" lon="10.602307377562356"><ele>434.0</ele><time>2026-04-19T09:50:50Z</time></trkpt><trkpt lat="43.462288197135955" lon="10.60241554451651"><ele>432.49999999999994</ele><time>2026-04-19T09:50:54Z</time></trkpt><trkpt lat="43.46228357128964" lon="10.60251949329135"><ele>431.0</ele><time>2026-04-19T09:50:57Z</time></trkpt><trkpt lat="43.46234493333113" lon="10.602587500231843"><ele>429.5</ele><time>2026-04-19T09:51:00Z</time></trkpt><trkpt lat="43.46240174953067" lon="10.602631010407496"><ele>428.0</ele><time>2026-04-19T09:51:02Z</time></trkpt><trkpt lat="43.462474257380464" lon="10.602680494453427"><ele>426.49999999999994</ele><time>2026-04-19T09:51:05Z</time></trkpt><trkpt lat="43.46253907692317" lon="10.602738358676733"><ele>425.0</ele><time>2026-04-19T09:51:08Z</time></trkpt><trkpt lat="43.462587157687885" lon="10.602821988055796"><ele>425.2</ele><time>2026-04-19T09:51:15Z</time></trkpt><trkpt lat="43.46263041083504" lon="10.602934551629163"><ele>425.4</ele><time>2026-04-19T09:51:17Z</time></trkpt><trkpt lat="43.46263492316317" lon="10.603027255976473"><ele>425.6</ele><time>2026-04-19T09:51:18Z</time></trkpt><trkpt lat="43.46260984222303" lon="10.603179879982417"><ele>425.8</ele><time>2026-04-19T09:51:20Z</time></trkpt><trkpt lat="43.462527962154255" lon="10.603311080050192"><ele>426.0</ele><time>2026-04-19T09:51:22Z</time></trkpt><trkpt lat="43.46247309819975" lon="10.603370670876984"><ele>426.0</ele><time>2026-04-19T09:51:23Z</time></trkpt><trkpt lat="43.462406569401736" lon="10.603437996922969"><ele>426.0</ele><time>2026-04-19T09:51:24Z</time></trkpt><trkpt lat="43.46234044538883" lon="10.6035061868738"><ele>426.0</ele><time>2026-04-19T09:51:25Z</time></trkpt><trkpt lat="43.46227946138982" lon="10.603589225849452"><ele>426.0</ele><time>2026-04-19T09:51:26Z</time></trkpt><trkpt lat="43.46223687278796" lon="10.603696841644808"><ele>426.0</ele><time>2026-04-19T09:51:27Z</time></trkpt><trkpt lat="43.46220491538447" lon="10.603824861557433"><ele>426.0</ele><time>2026-04-19T09:51:28Z</time></trkpt><trkpt lat="43.462167960906676" lon="10.603971832503902"><ele>425.8</ele><time>2026-04-19T09:51:29Z</time></trkpt><trkpt lat="43.46211591680689" lon="10.604125660199742"><ele>425.6</ele><time>2026-04-19T09:51:30Z</time></trkpt><trkpt lat="43.4620706707307" lon="10.604256048709706"><ele>425.4</ele><time>2026-04-19T09:51:31Z</time></trkpt><trkpt lat="43.4620407224863" lon="10.604355966534861"><ele>425.2</ele><time>2026-04-19T09:51:32Z</time></trkpt><trkpt lat="43.4620116525222" lon="10.604453598174556"><ele>425.0</ele><time>2026-04-19T09:51:34Z</time></trkpt><trkpt lat="43.46198504739809" lon="10.604543563902034"><ele>424.99999999999994</ele><time>2026-04-19T09:51:39Z</time></trkpt><trkpt lat="43.46193884334644" lon="10.604697679617878"><ele>425.0</ele><time>2026-04-19T09:51:41Z</time></trkpt><trkpt lat="43.46190449774252" lon="10.604773015846709"><ele>425.0</ele><time>2026-04-19T09:51:42Z</time></trkpt><trkpt lat="43.46186653807743" lon="10.604848205236122"><ele>425.0</ele><time>2026-04-19T09:51:43Z</time></trkpt><trkpt lat="43.461823289256806" lon="10.60492822109472"><ele>424.99999999999994</ele><time>2026-04-19T09:51:44Z</time></trkpt><trkpt lat="43.461777941498994" lon="10.605019328389528"><ele>425.0</ele><time>2026-04-19T09:51:45Z</time></trkpt><trkpt lat="43.46173487432672" lon="10.60511393877799"><ele>424.99999999999994</ele><time>2026-04-19T09:51:46Z</time></trkpt><trkpt lat="43.46169966370655" lon="10.605203965602465"><ele>425.0</ele><time>2026-04-19T09:51:47Z</time></trkpt><trkpt lat="43.46167800330532" lon="10.605288293389457"><ele>425.0</ele><time>2026-04-19T09:51:48Z</time></trkpt><trkpt lat="43.46167297557672" lon="10.605443427086813"><ele>425.0</ele><time>2026-04-19T09:51:50Z</time></trkpt><trkpt lat="43.46165752874082" lon="10.605566282448926"><ele>424.99999999999994</ele><time>2026-04-19T09:51:52Z</time></trkpt><trkpt lat="43.461603960484396" lon="10.60567616526545"><ele>425.0</ele><time>2026-04-19T09:51:54Z</time></trkpt><trkpt lat="43.46153194116796" lon="10.605800243097594"><ele>424.75</ele><time>2026-04-19T09:51:56Z</time></trkpt><trkpt lat="43.46145765163563" lon="10.605927593676224"><ele>424.5</ele><time>2026-04-19T09:51:58Z</time></trkpt><trkpt lat="43.46138174022649" lon="10.606060114794312"><ele>424.25</ele><time>2026-04-19T09:52:00Z</time></trkpt><trkpt lat="43.461312268431634" lon="10.606187711994874"><ele>424.0</ele><time>2026-04-19T09:52:02Z</time></trkpt><trkpt lat="43.46124055184334" lon="10.606313381133095"><ele>424.0</ele><time>2026-04-19T09:52:04Z</time></trkpt><trkpt lat="43.46117164829088" lon="10.606444550530917"><ele>424.0</ele><time>2026-04-19T09:52:06Z</time></trkpt><trkpt lat="43.46114633047109" lon="10.606608233261277"><ele>424.0</ele><time>2026-04-19T09:52:08Z</time></trkpt><trkpt lat="43.461150190474974" lon="10.606697906798852"><ele>424.0</ele><time>2026-04-19T09:52:09Z</time></trkpt><trkpt lat="43.46116387547832" lon="10.606870803774713"><ele>424.0</ele><time>2026-04-19T09:52:11Z</time></trkpt><trkpt lat="43.46116438866803" lon="10.606959846934245"><ele>425.7142857142857</ele><time>2026-04-19T09:52:12Z</time></trkpt><trkpt lat="43.46115600748782" lon="10.607054338661234"><ele>427.4285714285714</ele><time>2026-04-19T09:52:13Z</time></trkpt><trkpt lat="43.461145123638076" lon="10.60714584038491"><ele>429.1428571428571</ele><time>2026-04-19T09:52:14Z</time></trkpt><trkpt lat="43.46113209671019" lon="10.607246435858846"><ele>430.8571428571429</ele><time>2026-04-19T09:52:15Z</time></trkpt><trkpt lat="43.46112106207656" lon="10.607342364821594"><ele>432.57142857142856</ele><time>2026-04-19T09:52:16Z</time></trkpt><trkpt lat="43.46111327562076" lon="10.607438968535943"><ele>434.2857142857143</ele><time>2026-04-19T09:52:17Z</time></trkpt><trkpt lat="43.46110277577362" lon="10.607535711399112"><ele>436.0</ele><time>2026-04-19T09:52:18Z</time></trkpt><trkpt lat="43.46109351920316" lon="10.607630952124493"><ele>436.0</ele><time>2026-04-19T09:52:19Z</time></trkpt><trkpt lat="43.461082494791114" lon="10.607718539463162"><ele>436.0</ele><time>2026-04-19T09:52:20Z</time></trkpt><trkpt lat="43.46106447855084" lon="10.607879448818428"><ele>436.0</ele><time>2026-04-19T09:52:22Z</time></trkpt><trkpt lat="43.46104144085283" lon="10.608034643456065"><ele>436.0</ele><time>2026-04-19T09:52:24Z</time></trkpt><trkpt lat="43.461011751005664" lon="10.608174168362591"><ele>436.0</ele><time>2026-04-19T09:52:26Z</time></trkpt><trkpt lat="43.46095005604079" lon="10.608301865162332"><ele>438.25</ele><time>2026-04-19T09:52:28Z</time></trkpt><trkpt lat="43.46084820352683" lon="10.60839648702877"><ele>440.5</ele><time>2026-04-19T09:52:30Z</time></trkpt><trkpt lat="43.4607368371386" lon="10.608426727340968"><ele>442.75</ele><time>2026-04-19T09:52:32Z</time></trkpt><trkpt lat="43.460623112638416" lon="10.60839556620412"><ele>445.0</ele><time>2026-04-19T09:52:34Z</time></trkpt><trkpt lat="43.460533581436785" lon="10.608293890139894"><ele>442.4</ele><time>2026-04-19T09:52:36Z</time></trkpt><trkpt lat="43.46044160571966" lon="10.608197732375466"><ele>439.8</ele><time>2026-04-19T09:52:38Z</time></trkpt><trkpt lat="43.46034556386525" lon="10.608139003062789"><ele>437.20000000000005</ele><time>2026-04-19T09:52:40Z</time></trkpt><trkpt lat="43.460265191701346" lon="10.608126048793153"><ele>434.6</ele><time>2026-04-19T09:52:42Z</time></trkpt><trkpt lat="43.46016751589487" lon="10.608180908578793"><ele>432.0</ele><time>2026-04-19T09:52:44Z</time></trkpt><trkpt lat="43.46010154675808" lon="10.608298945349615"><ele>432.0</ele><time>2026-04-19T09:52:46Z</time></trkpt><trkpt lat="43.46004336660437" lon="10.608426162903152"><ele>432.00000000000006</ele><time>2026-04-19T09:52:48Z</time></trkpt><trkpt lat="43.460006482689124" lon="10.608552810823825"><ele>432.00000000000006</ele><time>2026-04-19T09:52:50Z</time></trkpt><trkpt lat="43.45999289407269" lon="10.608673737824134"><ele>432.0</ele><time>2026-04-19T09:52:52Z</time></trkpt><trkpt lat="43.459984201017974" lon="10.608808082725995"><ele>432.0</ele><time>2026-04-19T09:52:54Z</time></trkpt><trkpt lat="43.45995840884199" lon="10.608947383924805"><ele>435.0</ele><time>2026-04-19T09:52:56Z</time></trkpt><trkpt lat="43.45989690840252" lon="10.60909188761131"><ele>438.0</ele><time>2026-04-19T09:52:58Z</time></trkpt><trkpt lat="43.45982879078915" lon="10.609229790169397"><ele>441.0</ele><time>2026-04-19T09:53:00Z</time></trkpt><trkpt lat="43.459770155300255" lon="10.609358569965849"><ele>444.0</ele><time>2026-04-19T09:53:02Z</time></trkpt><trkpt lat="43.459724065787135" lon="10.60947734586147"><ele>442.2</ele><time>2026-04-19T09:53:04Z</time></trkpt><trkpt lat="43.45968468070139" lon="10.609577941299385"><ele>440.4</ele><time>2026-04-19T09:53:06Z</time></trkpt><trkpt lat="43.4596279218072" lon="10.609686752862432"><ele>438.6</ele><time>2026-04-19T09:53:08Z</time></trkpt><trkpt lat="43.45957247011836" lon="10.609811412503243"><ele>436.8</ele><time>2026-04-19T09:53:10Z</time></trkpt><trkpt lat="43.4595199185783" lon="10.609938078501253"><ele>435.0</ele><time>2026-04-19T09:53:12Z</time></trkpt><trkpt lat="43.459467468093465" lon="10.61004675058146"><ele>435.0</ele><time>2026-04-19T09:53:14Z</time></trkpt><trkpt lat="43.45941509626247" lon="10.610142859385494"><ele>435.0</ele><time>2026-04-19T09:53:16Z</time></trkpt><trkpt lat="43.45935556080899" lon="10.61024689291546"><ele>435.0</ele><time>2026-04-19T09:53:18Z</time></trkpt><trkpt lat="43.459300307967595" lon="10.610360850234471"><ele>435.0</ele><time>2026-04-19T09:53:20Z</time></trkpt><trkpt lat="43.45924712743904" lon="10.610487183653264"><ele>435.0</ele><time>2026-04-19T09:53:22Z</time></trkpt><trkpt lat="43.459193054163656" lon="10.610602835852887"><ele>437.0</ele><time>2026-04-19T09:53:24Z</time></trkpt><trkpt lat="43.459133966035196" lon="10.610706445718762"><ele>439.0</ele><time>2026-04-19T09:53:26Z</time></trkpt><trkpt lat="43.45906090974975" lon="10.610782426146937"><ele>441.0</ele><time>2026-04-19T09:53:28Z</time></trkpt><trkpt lat="43.4589941913365" lon="10.61083493412865"><ele>443.0</ele><time>2026-04-19T09:53:30Z</time></trkpt><trkpt lat="43.45891241480632" lon="10.61091443740713"><ele>445.0</ele><time>2026-04-19T09:53:32Z</time></trkpt><trkpt lat="43.45882917976481" lon="10.611005513065459"><ele>443.4</ele><time>2026-04-19T09:53:34Z</time></trkpt><trkpt lat="43.458748048049756" lon="10.611103612393823"><ele>441.8</ele><time>2026-04-19T09:53:36Z</time></trkpt><trkpt lat="43.4586779133723" lon="10.611188765975363"><ele>440.20000000000005</ele><time>2026-04-19T09:53:38Z</time></trkpt><trkpt lat="43.45860248304995" lon="10.611273928652215"><ele>438.6</ele><time>2026-04-19T09:53:40Z</time></trkpt><trkpt lat="43.45855169985459" lon="10.611396000297082"><ele>437.0</ele><time>2026-04-19T09:53:42Z</time></trkpt><trkpt lat="43.458514278953835" lon="10.61151242471654"><ele>437.0</ele><time>2026-04-19T09:53:44Z</time></trkpt><trkpt lat="43.45844356523277" lon="10.611574698826763"><ele>437.00000000000006</ele><time>2026-04-19T09:53:46Z</time></trkpt><trkpt lat="43.45835127520269" lon="10.611606844155245"><ele>437.00000000000006</ele><time>2026-04-19T09:53:48Z</time></trkpt><trkpt lat="43.45825935707832" lon="10.611665578746274"><ele>437.0</ele><time>2026-04-19T09:53:50Z</time></trkpt><trkpt lat="43.45821056926889" lon="10.611793967032966"><ele>437.0</ele><time>2026-04-19T09:53:52Z</time></trkpt><trkpt lat="43.45819061032938" lon="10.611918690848103"><ele>438.8333333333333</ele><time>2026-04-19T09:53:54Z</time></trkpt><trkpt lat="43.458180613573006" lon="10.612045136735363"><ele>440.66666666666663</ele><time>2026-04-19T09:53:56Z</time></trkpt><trkpt lat="43.45816253746825" lon="10.612175392608858"><ele>442.5</ele><time>2026-04-19T09:53:58Z</time></trkpt><trkpt lat="43.45814501737694" lon="10.61230777228008"><ele>444.33333333333337</ele><time>2026-04-19T09:54:00Z</time></trkpt><trkpt lat="43.45812750032374" lon="10.61241060136172"><ele>446.1666666666667</ele><time>2026-04-19T09:54:02Z</time></trkpt><trkpt lat="43.45810934319434" lon="10.61252010885067"><ele>448.0</ele><time>2026-04-19T09:54:04Z</time></trkpt><trkpt lat="43.458083940916445" lon="10.61263993516811"><ele>448.00000000000006</ele><time>2026-04-19T09:54:06Z</time></trkpt><trkpt lat="43.458056595314744" lon="10.612753682862994"><ele>448.0</ele><time>2026-04-19T09:54:08Z</time></trkpt><trkpt lat="43.458020325694896" lon="10.612847398721774"><ele>448.0</ele><time>2026-04-19T09:54:10Z</time></trkpt><trkpt lat="43.45797099614485" lon="10.612930436138145"><ele>448.0</ele><time>2026-04-19T09:54:12Z</time></trkpt><trkpt lat="43.45789961693792" lon="10.61297486065857"><ele>448.00000000000006</ele><time>2026-04-19T09:54:14Z</time></trkpt><trkpt lat="43.457825157821375" lon="10.613011463639308"><ele>448.0</ele><time>2026-04-19T09:54:16Z</time></trkpt><trkpt lat="43.45773633378514" lon="10.613066180051575"><ele>444.2</ele><time>2026-04-19T09:54:18Z</time></trkpt><trkpt lat="43.457669573053664" lon="10.613161890943248"><ele>440.4</ele><time>2026-04-19T09:54:20Z</time></trkpt><trkpt lat="43.45760293213166" lon="10.613247945558411"><ele>436.59999999999997</ele><time>2026-04-19T09:54:22Z</time></trkpt><trkpt lat="43.457555739308724" lon="10.613358223619247"><ele>432.79999999999995</ele><time>2026-04-19T09:54:24Z</time></trkpt><trkpt lat="43.457518659698046" lon="10.613470962594802"><ele>429.0</ele><time>2026-04-19T09:54:26Z</time></trkpt><trkpt lat="43.4574891186313" lon="10.613576444953281"><ele>430.3333333333333</ele><time>2026-04-19T09:54:28Z</time></trkpt><trkpt lat="43.45746527262787" lon="10.613690031087492"><ele>431.66666666666663</ele><time>2026-04-19T09:54:30Z</time></trkpt><trkpt lat="43.457456100190235" lon="10.613795843065217"><ele>433.0</ele><time>2026-04-19T09:54:32Z</time></trkpt><trkpt lat="43.457439641121475" lon="10.613893743867143"><ele>434.3333333333333</ele><time>2026-04-19T09:54:34Z</time></trkpt><trkpt lat="43.457395292001834" lon="10.614013998224548"><ele>435.66666666666663</ele><time>2026-04-19T09:56:15Z</time></trkpt><trkpt lat="43.45738565261184" lon="10.614148375134823"><ele>437.0</ele><time>2026-04-19T09:56:18Z</time></trkpt><trkpt lat="43.45738289175627" lon="10.6142528612241"><ele>437.0</ele><time>2026-04-19T09:56:20Z</time></trkpt><trkpt lat="43.45738547048483" lon="10.61435856076344"><ele>437.0</ele><time>2026-04-19T09:56:22Z</time></trkpt><trkpt lat="43.45739145633818" lon="10.614454105486974"><ele>437.0</ele><time>2026-04-19T09:56:24Z</time></trkpt><trkpt lat="43.45740109248138" lon="10.614561672720207"><ele>437.0</ele><time>2026-04-19T09:56:26Z</time></trkpt><trkpt lat="43.457418981556735" lon="10.614661308284909"><ele>437.0</ele><time>2026-04-19T09:56:28Z</time></trkpt><trkpt lat="43.457442827634615" lon="10.614753805909906"><ele>437.0</ele><time>2026-04-19T09:56:30Z</time></trkpt><trkpt lat="43.457472795734915" lon="10.614841612105"><ele>437.0</ele><time>2026-04-19T09:56:32Z</time></trkpt><trkpt lat="43.457502496071214" lon="10.614920541246065"><ele>436.8333333333333</ele><time>2026-04-19T09:56:34Z</time></trkpt><trkpt lat="43.457520739820545" lon="10.615017958270537"><ele>436.66666666666663</ele><time>2026-04-19T09:56:36Z</time></trkpt><trkpt lat="43.45751889344172" lon="10.61512106595678"><ele>436.5</ele><time>2026-04-19T09:56:38Z</time></trkpt><trkpt lat="43.45750560579182" lon="10.615209187916136"><ele>436.33333333333337</ele><time>2026-04-19T09:56:40Z</time></trkpt><trkpt lat="43.45750224717024" lon="10.615335715093945"><ele>436.1666666666667</ele><time>2026-04-19T09:56:43Z</time></trkpt><trkpt lat="43.457523464539236" lon="10.615426854271659"><ele>436.0</ele><time>2026-04-19T09:56:45Z</time></trkpt><trkpt lat="43.4575629443729" lon="10.615521736184531"><ele>435.0</ele><time>2026-04-19T09:56:47Z</time></trkpt><trkpt lat="43.45761592313731" lon="10.615618104246742"><ele>434.0</ele><time>2026-04-19T09:56:49Z</time></trkpt><trkpt lat="43.45767083294742" lon="10.615729715849264"><ele>433.0</ele><time>2026-04-19T09:56:51Z</time></trkpt><trkpt lat="43.45772573298117" lon="10.615847133689515"><ele>432.0</ele><time>2026-04-19T09:56:53Z</time></trkpt><trkpt lat="43.45777799076036" lon="10.615974476522073"><ele>431.0</ele><time>2026-04-19T09:56:55Z</time></trkpt><trkpt lat="43.45782683082316" lon="10.616104150793241"><ele>430.0</ele><time>2026-04-19T09:56:57Z</time></trkpt><trkpt lat="43.457875375504386" lon="10.616231722403034"><ele>429.0</ele><time>2026-04-19T09:56:59Z</time></trkpt><trkpt lat="43.457912474505704" lon="10.616355888243145"><ele>428.0</ele><time>2026-04-19T09:57:01Z</time></trkpt><trkpt lat="43.457906477880485" lon="10.61648859148329"><ele>427.0</ele><time>2026-04-19T09:57:03Z</time></trkpt><trkpt lat="43.457873742827715" lon="10.61661530112362"><ele>426.0</ele><time>2026-04-19T09:57:05Z</time></trkpt><trkpt lat="43.45785509711429" lon="10.616735425064247"><ele>426.0</ele><time>2026-04-19T09:57:07Z</time></trkpt><trkpt lat="43.457848526136814" lon="10.616869188930648"><ele>426.0</ele><time>2026-04-19T09:57:09Z</time></trkpt><trkpt lat="43.457853753482205" lon="10.617005371917365"><ele>426.0</ele><time>2026-04-19T09:57:11Z</time></trkpt><trkpt lat="43.45786219826436" lon="10.617147688478262"><ele>426.0</ele><time>2026-04-19T09:57:13Z</time></trkpt><trkpt lat="43.457858752125574" lon="10.617281447232187"><ele>426.0</ele><time>2026-04-19T09:57:15Z</time></trkpt><trkpt lat="43.45785741219099" lon="10.617422166736219"><ele>426.20000000000005</ele><time>2026-04-19T09:57:17Z</time></trkpt><trkpt lat="43.45786034458316" lon="10.617552695028609"><ele>426.40000000000003</ele><time>2026-04-19T09:57:19Z</time></trkpt><trkpt lat="43.457876597231774" lon="10.617659807558475"><ele>426.6</ele><time>2026-04-19T09:57:21Z</time></trkpt><trkpt lat="43.457900567527695" lon="10.617753579139688"><ele>426.8</ele><time>2026-04-19T09:57:23Z</time></trkpt><trkpt lat="43.45793203525737" lon="10.617894280922771"><ele>427.0</ele><time>2026-04-19T09:57:25Z</time></trkpt><trkpt lat="43.457981080933195" lon="10.618050777421253"><ele>430.8</ele><time>2026-04-19T09:57:27Z</time></trkpt><trkpt lat="43.458018471811734" lon="10.618190573014337"><ele>434.6</ele><time>2026-04-19T09:57:29Z</time></trkpt><trkpt lat="43.45805286280418" lon="10.618305486820818"><ele>438.40000000000003</ele><time>2026-04-19T09:57:31Z</time></trkpt><trkpt lat="43.458091863671804" lon="10.618430763748208"><ele>442.20000000000005</ele><time>2026-04-19T09:57:33Z</time></trkpt><trkpt lat="43.458149107926886" lon="10.618556611634428"><ele>446.0</ele><time>2026-04-19T09:57:35Z</time></trkpt><trkpt lat="43.45822690829819" lon="10.618674304520303"><ele>445.99999999999994</ele><time>2026-04-19T09:57:37Z</time></trkpt><trkpt lat="43.45826860147085" lon="10.618787434507345"><ele>446.0</ele><time>2026-04-19T09:57:39Z</time></trkpt><trkpt lat="43.458273584365955" lon="10.618903572607705"><ele>446.0</ele><time>2026-04-19T09:57:41Z</time></trkpt><trkpt lat="43.45827965026788" lon="10.619007642434035"><ele>446.0</ele><time>2026-04-19T09:57:43Z</time></trkpt><trkpt lat="43.45827623818922" lon="10.619103575956224"><ele>445.99999999999994</ele><time>2026-04-19T09:57:45Z</time></trkpt><trkpt lat="43.458268192097414" lon="10.61923617764661"><ele>446.0</ele><time>2026-04-19T09:57:48Z</time></trkpt><trkpt lat="43.45826527710855" lon="10.619348150659158"><ele>445.99999999999994</ele><time>2026-04-19T09:57:50Z</time></trkpt><trkpt lat="43.45826243091251" lon="10.619475570901008"><ele>446.0</ele><time>2026-04-19T09:57:52Z</time></trkpt><trkpt lat="43.45825470918668" lon="10.619586376869815"><ele>446.0</ele><time>2026-04-19T09:57:54Z</time></trkpt><trkpt lat="43.45824181411257" lon="10.61968649767542"><ele>446.0</ele><time>2026-04-19T09:57:56Z</time></trkpt><trkpt lat="43.45822141627366" lon="10.619789677418542"><ele>445.99999999999994</ele><time>2026-04-19T09:57:58Z</time></trkpt><trkpt lat="43.4581942185981" lon="10.619902309345958"><ele>446.0</ele><time>2026-04-19T09:58:00Z</time></trkpt><trkpt lat="43.45817563044995" lon="10.61998976061978"><ele>445.99999999999994</ele><time>2026-04-19T09:58:02Z</time></trkpt><trkpt lat="43.458160606515236" lon="10.620074713769936"><ele>446.0</ele><time>2026-04-19T09:58:04Z</time></trkpt><trkpt lat="43.45814441124123" lon="10.620169500534804"><ele>446.0</ele><time>2026-04-19T09:58:06Z</time></trkpt><trkpt lat="43.458134451147174" lon="10.6202740009124"><ele>446.0</ele><time>2026-04-19T09:58:08Z</time></trkpt><trkpt lat="43.4581285030817" lon="10.620371928627211"><ele>445.99999999999994</ele><time>2026-04-19T09:58:10Z</time></trkpt><trkpt lat="43.45814655764721" lon="10.62049200075268"><ele>446.0</ele><time>2026-04-19T09:58:12Z</time></trkpt><trkpt lat="43.45817500149433" lon="10.620640822514657"><ele>446.0</ele><time>2026-04-19T09:58:14Z</time></trkpt><trkpt lat="43.45818419025947" lon="10.620728683591233"><ele>446.0</ele><time>2026-04-19T09:58:15Z</time></trkpt><trkpt lat="43.458201218302236" lon="10.620885041723767"><ele>446.0</ele><time>2026-04-19T09:58:17Z</time></trkpt><trkpt lat="43.45823095330922" lon="10.621015006331339"><ele>446.0</ele><time>2026-04-19T09:58:19Z</time></trkpt><trkpt lat="43.458265793406696" lon="10.621130375345954"><ele>446.0</ele><time>2026-04-19T09:58:21Z</time></trkpt><trkpt lat="43.458281095839176" lon="10.621261269168738"><ele>443.8333333333333</ele><time>2026-04-19T09:58:23Z</time></trkpt><trkpt lat="43.45832259624463" lon="10.62137750911047"><ele>441.66666666666663</ele><time>2026-04-19T09:58:25Z</time></trkpt><trkpt lat="43.45836619723161" lon="10.621486279255803"><ele>439.5</ele><time>2026-04-19T09:58:27Z</time></trkpt><trkpt lat="43.45840199979783" lon="10.621570077618406"><ele>437.33333333333337</ele><time>2026-04-19T09:58:29Z</time></trkpt><trkpt lat="43.45844077060819" lon="10.62165173418621"><ele>435.1666666666667</ele><time>2026-04-19T09:58:31Z</time></trkpt><trkpt lat="43.458484485499554" lon="10.621732407237014"><ele>433.0</ele><time>2026-04-19T09:58:33Z</time></trkpt><trkpt lat="43.458533025530315" lon="10.62181070737742"><ele>433.00000000000006</ele><time>2026-04-19T09:58:35Z</time></trkpt><trkpt lat="43.45858113419369" lon="10.621878277156107"><ele>433.0</ele><time>2026-04-19T09:58:37Z</time></trkpt><trkpt lat="43.45863254025662" lon="10.621947907563102"><ele>433.0</ele><time>2026-04-19T09:58:39Z</time></trkpt><trkpt lat="43.45868808057093" lon="10.622018674086627"><ele>433.0</ele><time>2026-04-19T09:58:41Z</time></trkpt><trkpt lat="43.458748827757766" lon="10.622091545948685"><ele>433.00000000000006</ele><time>2026-04-19T09:58:44Z</time></trkpt><trkpt lat="43.45880222056339" lon="10.622155762952143"><ele>433.0</ele><time>2026-04-19T09:58:47Z</time></trkpt><trkpt lat="43.45887270676342" lon="10.62222663423503"><ele>434.4285714285714</ele><time>2026-04-19T09:58:50Z</time></trkpt><trkpt lat="43.458922242834284" lon="10.62228694293357"><ele>435.85714285714283</ele><time>2026-04-19T09:58:52Z</time></trkpt><trkpt lat="43.45898565374751" lon="10.622327223016692"><ele>437.2857142857143</ele><time>2026-04-19T09:58:54Z</time></trkpt><trkpt lat="43.45906352720676" lon="10.62233057724486"><ele>438.71428571428567</ele><time>2026-04-19T09:58:56Z</time></trkpt><trkpt lat="43.45913097666704" lon="10.622367982905235"><ele>440.14285714285717</ele><time>2026-04-19T09:58:58Z</time></trkpt><trkpt lat="43.45920248787816" lon="10.622385937862358"><ele>441.57142857142856</ele><time>2026-04-19T09:59:00Z</time></trkpt><trkpt lat="43.45926736225707" lon="10.622398751639919"><ele>443.0</ele><time>2026-04-19T09:59:02Z</time></trkpt><trkpt lat="43.45934108585328" lon="10.622409354707324"><ele>442.99999999999994</ele><time>2026-04-19T09:59:04Z</time></trkpt><trkpt lat="43.45941301742736" lon="10.622387314982973"><ele>443.0</ele><time>2026-04-19T09:59:06Z</time></trkpt><trkpt lat="43.459489907546924" lon="10.622406969379409"><ele>443.0</ele><time>2026-04-19T09:59:08Z</time></trkpt><trkpt lat="43.45956228181583" lon="10.622392310464145"><ele>443.0</ele><time>2026-04-19T09:59:10Z</time></trkpt><trkpt lat="43.459629351476586" lon="10.622350409076041"><ele>442.99999999999994</ele><time>2026-04-19T09:59:12Z</time></trkpt><trkpt lat="43.45969179445545" lon="10.622272185913054"><ele>443.0</ele><time>2026-04-19T09:59:14Z</time></trkpt><trkpt lat="43.45973869867357" lon="10.622182927696347"><ele>441.16666666666663</ele><time>2026-04-19T09:59:16Z</time></trkpt><trkpt lat="43.45977304868034" lon="10.62210635943979"><ele>439.3333333333333</ele><time>2026-04-19T09:59:18Z</time></trkpt><trkpt lat="43.45981100124333" lon="10.62201638715462"><ele>437.5</ele><time>2026-04-19T09:59:20Z</time></trkpt><trkpt lat="43.459845431728354" lon="10.621933799714299"><ele>435.66666666666663</ele><time>2026-04-19T09:59:22Z</time></trkpt><trkpt lat="43.459885582225596" lon="10.621838199385554"><ele>433.8333333333333</ele><time>2026-04-19T09:59:24Z</time></trkpt><trkpt lat="43.4599233811039" lon="10.62174001018618"><ele>432.0</ele><time>2026-04-19T09:59:26Z</time></trkpt><trkpt lat="43.45995993019339" lon="10.6216415330842"><ele>435.57142857142856</ele><time>2026-04-19T09:59:28Z</time></trkpt><trkpt lat="43.45999635686395" lon="10.621542222167994"><ele>439.1428571428571</ele><time>2026-04-19T09:59:30Z</time></trkpt><trkpt lat="43.46002881152649" lon="10.621455066907034"><ele>442.7142857142858</ele><time>2026-04-19T09:59:32Z</time></trkpt><trkpt lat="43.460064897789984" lon="10.621364327671165"><ele>446.28571428571433</ele><time>2026-04-19T09:59:34Z</time></trkpt><trkpt lat="43.46010039670722" lon="10.621275065306724"><ele>449.8571428571429</ele><time>2026-04-19T09:59:36Z</time></trkpt><trkpt lat="43.460135382650414" lon="10.621184717662185"><ele>453.4285714285715</ele><time>2026-04-19T09:59:38Z</time></trkpt><trkpt lat="43.46016549624667" lon="10.62109792417003"><ele>457.00000000000006</ele><time>2026-04-19T09:59:40Z</time></trkpt><trkpt lat="43.460199112408624" lon="10.620990578931249"><ele>459.83333333333337</ele><time>2026-04-19T09:59:42Z</time></trkpt><trkpt lat="43.46022787826044" lon="10.620885205791103"><ele>462.6666666666667</ele><time>2026-04-19T09:59:44Z</time></trkpt><trkpt lat="43.460256192567066" lon="10.620771857321504"><ele>465.5</ele><time>2026-04-19T09:59:46Z</time></trkpt><trkpt lat="43.460280181050265" lon="10.620676079486671"><ele>468.33333333333337</ele><time>2026-04-19T09:59:48Z</time></trkpt><trkpt lat="43.460305483558614" lon="10.620576267610748"><ele>471.1666666666667</ele><time>2026-04-19T09:59:50Z</time></trkpt><trkpt lat="43.46032724167815" lon="10.620453038823138"><ele>474.0</ele><time>2026-04-19T09:59:52Z</time></trkpt><trkpt lat="43.460362172307995" lon="10.620340384235758"><ele>476.5</ele><time>2026-04-19T09:59:54Z</time></trkpt><trkpt lat="43.46039855398578" lon="10.620233432200784"><ele>479.0</ele><time>2026-04-19T09:59:56Z</time></trkpt><trkpt lat="43.46042501701176" lon="10.62012924099238"><ele>481.5</ele><time>2026-04-19T09:59:58Z</time></trkpt><trkpt lat="43.46045515208511" lon="10.620029732390304"><ele>484.0</ele><time>2026-04-19T10:00:00Z</time></trkpt><trkpt lat="43.460476034472805" lon="10.619914573037503"><ele>486.5</ele><time>2026-04-19T10:00:02Z</time></trkpt><trkpt lat="43.46049778799104" lon="10.619794469282873"><ele>489.0</ele><time>2026-04-19T10:00:04Z</time></trkpt><trkpt lat="43.460514511862904" lon="10.61966417144365"><ele>484.4</ele><time>2026-04-19T10:00:06Z</time></trkpt><trkpt lat="43.46053009949287" lon="10.61953432097561"><ele>479.79999999999995</ele><time>2026-04-19T10:00:08Z</time></trkpt><trkpt lat="43.46056130742237" lon="10.619411677363953"><ele>475.20000000000005</ele><time>2026-04-19T10:00:10Z</time></trkpt><trkpt lat="43.460625041419185" lon="10.619304864926434"><ele>470.6</ele><time>2026-04-19T10:00:12Z</time></trkpt><trkpt lat="43.46069554731099" lon="10.619209087812859"><ele>466.0</ele><time>2026-04-19T10:00:14Z</time></trkpt><trkpt lat="43.46077532393292" lon="10.619120636228388"><ele>466.00000000000006</ele><time>2026-04-19T10:00:16Z</time></trkpt><trkpt lat="43.46085281186514" lon="10.619008382432797"><ele>466.0</ele><time>2026-04-19T10:00:18Z</time></trkpt><trkpt lat="43.46093613000611" lon="10.618905605668242"><ele>466.0</ele><time>2026-04-19T10:00:20Z</time></trkpt><trkpt lat="43.460979988290504" lon="10.61883596437948"><ele>466.0</ele><time>2026-04-19T10:00:21Z</time></trkpt><trkpt lat="43.4610212292632" lon="10.6187535873849"><ele>466.00000000000006</ele><time>2026-04-19T10:00:22Z</time></trkpt><trkpt lat="43.46105988276463" lon="10.618659676133928"><ele>466.0</ele><time>2026-04-19T10:00:23Z</time></trkpt><trkpt lat="43.46108517113902" lon="10.618567000796194"><ele>468.6666666666667</ele><time>2026-04-19T10:00:24Z</time></trkpt><trkpt lat="43.46110656427029" lon="10.61847199452268"><ele>471.33333333333337</ele><time>2026-04-19T10:00:25Z</time></trkpt><trkpt lat="43.46112158551957" lon="10.61836916799509"><ele>474.0</ele><time>2026-04-19T10:00:26Z</time></trkpt><trkpt lat="43.46113125867711" lon="10.618265645451894"><ele>476.66666666666663</ele><time>2026-04-19T10:00:27Z</time></trkpt><trkpt lat="43.461136351868475" lon="10.61817651764822"><ele>479.3333333333333</ele><time>2026-04-19T10:00:28Z</time></trkpt><trkpt lat="43.461145527353004" lon="10.618012889397084"><ele>482.0</ele><time>2026-04-19T10:00:30Z</time></trkpt><trkpt lat="43.46113894595796" lon="10.617862384535648"><ele>483.16666666666663</ele><time>2026-04-19T10:00:32Z</time></trkpt><trkpt lat="43.46113335018728" lon="10.617755890447974"><ele>484.3333333333333</ele><time>2026-04-19T10:00:34Z</time></trkpt><trkpt lat="43.46115807611949" lon="10.617662108058152"><ele>485.5</ele><time>2026-04-19T10:00:37Z</time></trkpt><trkpt lat="43.46121239976908" lon="10.617553752287188"><ele>486.66666666666663</ele><time>2026-04-19T10:00:39Z</time></trkpt><trkpt lat="43.461291909769876" lon="10.617411475173325"><ele>487.8333333333333</ele><time>2026-04-19T10:00:41Z</time></trkpt><trkpt lat="43.46134905664323" lon="10.61735828066846"><ele>489.0</ele><time>2026-04-19T10:00:42Z</time></trkpt><trkpt lat="43.46140465018825" lon="10.617305064177781"><ele>485.2</ele><time>2026-04-19T10:00:43Z</time></trkpt><trkpt lat="43.46150589553278" lon="10.61723731761966"><ele>481.4</ele><time>2026-04-19T10:00:45Z</time></trkpt><trkpt lat="43.461581270768065" lon="10.617135038505415"><ele>477.6</ele><time>2026-04-19T10:00:47Z</time></trkpt><trkpt lat="43.46163989011054" lon="10.616987142128837"><ele>473.8</ele><time>2026-04-19T10:00:49Z</time></trkpt><trkpt lat="43.46166262276271" lon="10.616904248527556"><ele>470.0</ele><time>2026-04-19T10:00:50Z</time></trkpt><trkpt lat="43.461709348985416" lon="10.616746939450135"><ele>470.0</ele><time>2026-04-19T10:00:52Z</time></trkpt><trkpt lat="43.46176405451864" lon="10.616618771567826"><ele>470.0</ele><time>2026-04-19T10:00:54Z</time></trkpt><trkpt lat="43.461807064666345" lon="10.616527930419942"><ele>470.0</ele><time>2026-04-19T10:00:56Z</time></trkpt><trkpt lat="43.461854242461904" lon="10.616437592342175"><ele>470.0</ele><time>2026-04-19T10:00:58Z</time></trkpt><trkpt lat="43.46191901806637" lon="10.616327007800052"><ele>470.0</ele><time>2026-04-19T10:01:00Z</time></trkpt><trkpt lat="43.461985725802336" lon="10.616242416415275"><ele>470.0</ele><time>2026-04-19T10:01:02Z</time></trkpt><trkpt lat="43.462066833008045" lon="10.616171359836148"><ele>470.0</ele><time>2026-04-19T10:01:05Z</time></trkpt><trkpt lat="43.462156248675704" lon="10.616116574414487"><ele>470.0</ele><time>2026-04-19T10:01:08Z</time></trkpt><trkpt lat="43.46223366601855" lon="10.616206093816762"><ele>470.0</ele><time>2026-04-19T10:01:10Z</time></trkpt><trkpt lat="43.462306190703835" lon="10.616336199801935"><ele>470.0</ele><time>2026-04-19T10:01:12Z</time></trkpt><trkpt lat="43.46234322033625" lon="10.616409328977355"><ele>468.8333333333333</ele><time>2026-04-19T10:01:13Z</time></trkpt><trkpt lat="43.46238394143465" lon="10.616478713734963"><ele>467.66666666666663</ele><time>2026-04-19T10:01:14Z</time></trkpt><trkpt lat="43.462423711194255" lon="10.616553031607134"><ele>466.5</ele><time>2026-04-19T10:01:15Z</time></trkpt><trkpt lat="43.462463694408484" lon="10.61662640877787"><ele>465.33333333333337</ele><time>2026-04-19T10:01:16Z</time></trkpt><trkpt lat="43.46253852591253" lon="10.616756346870664"><ele>464.1666666666667</ele><time>2026-04-19T10:01:18Z</time></trkpt><trkpt lat="43.46263111450341" lon="10.616838424450535"><ele>463.0</ele><time>2026-04-19T10:01:20Z</time></trkpt><trkpt lat="43.46271667951495" lon="10.616890259380169"><ele>463.0</ele><time>2026-04-19T10:01:22Z</time></trkpt><trkpt lat="43.46280099384201" lon="10.616926860371247"><ele>462.99999999999994</ele><time>2026-04-19T10:01:24Z</time></trkpt><trkpt lat="43.46289255071371" lon="10.616895642155304"><ele>462.99999999999994</ele><time>2026-04-19T10:01:26Z</time></trkpt><trkpt lat="43.462981836341754" lon="10.616840360157253"><ele>463.0</ele><time>2026-04-19T10:01:28Z</time></trkpt><trkpt lat="43.46306673438505" lon="10.616771842661759"><ele>463.0</ele><time>2026-04-19T10:01:30Z</time></trkpt><trkpt lat="43.463129360114934" lon="10.616695619583114"><ele>462.79999999999995</ele><time>2026-04-19T10:01:32Z</time></trkpt><trkpt lat="43.46319167890069" lon="10.616625966010176"><ele>462.59999999999997</ele><time>2026-04-19T10:01:34Z</time></trkpt><trkpt lat="43.46324372521119" lon="10.616511741534424"><ele>462.40000000000003</ele><time>2026-04-19T10:01:36Z</time></trkpt><trkpt lat="43.463277263307134" lon="10.61637522375275"><ele>462.20000000000005</ele><time>2026-04-19T10:01:38Z</time></trkpt><trkpt lat="43.46328760046078" lon="10.616235564854865"><ele>462.0</ele><time>2026-04-19T10:01:40Z</time></trkpt><trkpt lat="43.46328324630899" lon="10.616097281744324"><ele>464.20000000000005</ele><time>2026-04-19T10:01:42Z</time></trkpt><trkpt lat="43.46327443600745" lon="10.615958128455226"><ele>466.40000000000003</ele><time>2026-04-19T10:01:44Z</time></trkpt><trkpt lat="43.463264809732316" lon="10.615806087340161"><ele>468.59999999999997</ele><time>2026-04-19T10:01:46Z</time></trkpt><trkpt lat="43.46325934371868" lon="10.61565977188525"><ele>470.79999999999995</ele><time>2026-04-19T10:01:48Z</time></trkpt><trkpt lat="43.463255971476364" lon="10.6155666173335"><ele>473.0</ele><time>2026-04-19T10:01:49Z</time></trkpt><trkpt lat="43.46325080709019" lon="10.615408545550428"><ele>472.99999999999994</ele><time>2026-04-19T10:01:51Z</time></trkpt><trkpt lat="43.46325194675938" lon="10.615280670095313"><ele>473.0</ele><time>2026-04-19T10:01:53Z</time></trkpt><trkpt lat="43.463286257252506" lon="10.615166891306211"><ele>473.0</ele><time>2026-04-19T10:01:57Z</time></trkpt><trkpt lat="43.463351167095894" lon="10.615210127373235"><ele>473.0</ele><time>2026-04-19T10:01:59Z</time></trkpt><trkpt lat="43.46340508244472" lon="10.615300633515469"><ele>472.99999999999994</ele><time>2026-04-19T10:02:01Z</time></trkpt><trkpt lat="43.46345917816065" lon="10.61541057628744"><ele>473.0</ele><time>2026-04-19T10:02:03Z</time></trkpt><trkpt lat="43.46352816000333" lon="10.615532092895391"><ele>473.0</ele><time>2026-04-19T10:02:05Z</time></trkpt><trkpt lat="43.463604608497164" lon="10.615653397881449"><ele>472.99999999999994</ele><time>2026-04-19T10:02:07Z</time></trkpt><trkpt lat="43.46367030253165" lon="10.615762576448164"><ele>472.99999999999994</ele><time>2026-04-19T10:02:09Z</time></trkpt><trkpt lat="43.463729055696184" lon="10.615865655932094"><ele>473.0</ele><time>2026-04-19T10:02:11Z</time></trkpt><trkpt lat="43.46379410430211" lon="10.615972276054116"><ele>473.0</ele><time>2026-04-19T10:02:13Z</time></trkpt><trkpt lat="43.463826840998145" lon="10.616102262463501"><ele>470.3333333333333</ele><time>2026-04-19T10:02:15Z</time></trkpt><trkpt lat="43.46386608793186" lon="10.616211865458826"><ele>467.66666666666663</ele><time>2026-04-19T10:02:17Z</time></trkpt><trkpt lat="43.46389953078618" lon="10.616304571506863"><ele>465.0</ele><time>2026-04-19T10:02:19Z</time></trkpt><trkpt lat="43.46393089370766" lon="10.616388775029707"><ele>462.33333333333337</ele><time>2026-04-19T10:02:21Z</time></trkpt><trkpt lat="43.46397866673396" lon="10.616469336259224"><ele>459.6666666666667</ele><time>2026-04-19T10:02:24Z</time></trkpt><trkpt lat="43.46399423684627" lon="10.616574316005176"><ele>457.0</ele><time>2026-04-19T10:04:17Z</time></trkpt><trkpt lat="43.464025342408256" lon="10.616652216612621"><ele>457.0</ele><time>2026-04-19T10:04:42Z</time></trkpt><trkpt lat="43.46406235754949" lon="10.616725358251806"><ele>457.00000000000006</ele><time>2026-04-19T10:04:46Z</time></trkpt><trkpt lat="43.464032951414794" lon="10.616636579852688"><ele>457.00000000000006</ele><time>2026-04-19T10:05:05Z</time></trkpt><trkpt lat="43.46399766778028" lon="10.61655646817157"><ele>457.0</ele><time>2026-04-19T10:05:08Z</time></trkpt><trkpt lat="43.463961293564985" lon="10.616466437850892"><ele>457.0</ele><time>2026-04-19T10:05:12Z</time></trkpt><trkpt lat="43.464160089400885" lon="10.61623194537341"><ele>459.4285714285715</ele><time>2026-04-19T10:05:39Z</time></trkpt><trkpt lat="43.46416454558312" lon="10.616127250845318"><ele>461.8571428571429</ele><time>2026-04-19T10:06:18Z</time></trkpt><trkpt lat="43.464154845417134" lon="10.616018905283985"><ele>464.2857142857143</ele><time>2026-04-19T10:06:21Z</time></trkpt><trkpt lat="43.46412382925879" lon="10.61591926064239"><ele>466.7142857142857</ele><time>2026-04-19T10:06:26Z</time></trkpt><trkpt lat="43.46408366341923" lon="10.615839826723912"><ele>469.1428571428571</ele><time>2026-04-19T10:06:29Z</time></trkpt><trkpt lat="43.46405366034113" lon="10.615763041317207"><ele>471.5714285714285</ele><time>2026-04-19T10:06:33Z</time></trkpt><trkpt lat="43.46404530957462" lon="10.615661620879079"><ele>473.99999999999994</ele><time>2026-04-19T10:06:38Z</time></trkpt><trkpt lat="43.46405785452347" lon="10.61557448837426"><ele>473.99999999999994</ele><time>2026-04-19T10:06:42Z</time></trkpt><trkpt lat="43.464062521455425" lon="10.615475047593444"><ele>474.0</ele><time>2026-04-19T10:06:47Z</time></trkpt><trkpt lat="43.46408431265195" lon="10.615392619146924"><ele>473.99999999999994</ele><time>2026-04-19T10:06:51Z</time></trkpt><trkpt lat="43.464106570371555" lon="10.615307504352197"><ele>473.99999999999994</ele><time>2026-04-19T10:06:55Z</time></trkpt><trkpt lat="43.464138241397706" lon="10.615209344983347"><ele>474.0</ele><time>2026-04-19T10:07:01Z</time></trkpt><trkpt lat="43.464163395010715" lon="10.615126437244342"><ele>473.99999999999994</ele><time>2026-04-19T10:07:05Z</time></trkpt><trkpt lat="43.46418396144868" lon="10.61503187197471"><ele>473.99999999999994</ele><time>2026-04-19T10:07:10Z</time></trkpt><trkpt lat="43.464208348753694" lon="10.614951398943548"><ele>476.99999999999994</ele><time>2026-04-19T10:07:19Z</time></trkpt><trkpt lat="43.464221947406976" lon="10.614845090437202"><ele>480.0</ele><time>2026-04-19T10:07:25Z</time></trkpt><trkpt lat="43.464239652024915" lon="10.614757857720292"><ele>482.99999999999994</ele><time>2026-04-19T10:07:29Z</time></trkpt><trkpt lat="43.464263865121076" lon="10.614672817615688"><ele>485.99999999999994</ele><time>2026-04-19T10:07:33Z</time></trkpt><trkpt lat="43.464290733290824" lon="10.614570394991524"><ele>489.0</ele><time>2026-04-19T10:07:37Z</time></trkpt><trkpt lat="43.46431611327554" lon="10.61448250604843"><ele>491.99999999999994</ele><time>2026-04-19T10:07:40Z</time></trkpt><trkpt lat="43.46433994196335" lon="10.614385805360756"><ele>494.99999999999994</ele><time>2026-04-19T10:07:44Z</time></trkpt><trkpt lat="43.464362180095044" lon="10.614285464874847"><ele>497.1428571428571</ele><time>2026-04-19T10:07:48Z</time></trkpt><trkpt lat="43.46437422380139" lon="10.614199088714921"><ele>499.2857142857143</ele><time>2026-04-19T10:07:52Z</time></trkpt><trkpt lat="43.46439092059021" lon="10.614111937816121"><ele>501.42857142857144</ele><time>2026-04-19T10:07:56Z</time></trkpt><trkpt lat="43.46441162409875" lon="10.613997546174037"><ele>503.57142857142856</ele><time>2026-04-19T10:08:00Z</time></trkpt><trkpt lat="43.46443845838201" lon="10.613905507922436"><ele>505.7142857142858</ele><time>2026-04-19T10:08:03Z</time></trkpt><trkpt lat="43.464465029531105" lon="10.613819740035993"><ele>507.8571428571429</ele><time>2026-04-19T10:08:06Z</time></trkpt><trkpt lat="43.464493321698036" lon="10.613715169244532"><ele>510.0</ele><time>2026-04-19T10:08:10Z</time></trkpt><trkpt lat="43.46451215576517" lon="10.613609095212068"><ele>510.5</ele><time>2026-04-19T10:08:14Z</time></trkpt><trkpt lat="43.464541058182654" lon="10.613502854215286"><ele>511.0</ele><time>2026-04-19T10:08:17Z</time></trkpt><trkpt lat="43.46458916996559" lon="10.613412006704568"><ele>511.5</ele><time>2026-04-19T10:08:20Z</time></trkpt><trkpt lat="43.46462240030773" lon="10.613319789296575"><ele>512.0</ele><time>2026-04-19T10:08:23Z</time></trkpt><trkpt lat="43.46462935410418" lon="10.613218582826844"><ele>512.5</ele><time>2026-04-19T10:08:26Z</time></trkpt><trkpt lat="43.46460416619119" lon="10.613122575851095"><ele>513.0</ele><time>2026-04-19T10:08:29Z</time></trkpt><trkpt lat="43.46458795843066" lon="10.613025556276485"><ele>513.8571428571429</ele><time>2026-04-19T10:08:32Z</time></trkpt><trkpt lat="43.46457502283735" lon="10.612928639078524"><ele>514.7142857142858</ele><time>2026-04-19T10:08:35Z</time></trkpt><trkpt lat="43.46456722109067" lon="10.612819719233507"><ele>515.5714285714286</ele><time>2026-04-19T10:08:38Z</time></trkpt><trkpt lat="43.46457054345536" lon="10.61273152126293"><ele>516.4285714285714</ele><time>2026-04-19T10:08:41Z</time></trkpt><trkpt lat="43.46456110701669" lon="10.612639156421384"><ele>517.2857142857142</ele><time>2026-04-19T10:08:44Z</time></trkpt><trkpt lat="43.46456340505336" lon="10.612537217821165"><ele>518.1428571428571</ele><time>2026-04-19T10:08:47Z</time></trkpt><trkpt lat="43.46456452125096" lon="10.612422214170415"><ele>519.0</ele><time>2026-04-19T10:08:50Z</time></trkpt><trkpt lat="43.4645607827555" lon="10.612335115970719"><ele>520.5714285714286</ele><time>2026-04-19T10:08:53Z</time></trkpt><trkpt lat="43.46456336304058" lon="10.612233390957345"><ele>522.1428571428571</ele><time>2026-04-19T10:08:56Z</time></trkpt><trkpt lat="43.46456570083571" lon="10.612140302699983"><ele>523.7142857142857</ele><time>2026-04-19T10:09:00Z</time></trkpt><trkpt lat="43.464562425747175" lon="10.612037538784293"><ele>525.2857142857142</ele><time>2026-04-19T10:09:04Z</time></trkpt><trkpt lat="43.46455075498905" lon="10.611930525900242"><ele>526.8571428571429</ele><time>2026-04-19T10:09:08Z</time></trkpt><trkpt lat="43.46454131032957" lon="10.611843894783869"><ele>528.4285714285713</ele><time>2026-04-19T10:09:11Z</time></trkpt><trkpt lat="43.46454970926453" lon="10.61174152748266"><ele>530.0</ele><time>2026-04-19T10:09:14Z</time></trkpt><trkpt lat="43.46456463175878" lon="10.611635230359266"><ele>532.0</ele><time>2026-04-19T10:09:18Z</time></trkpt><trkpt lat="43.46457873469737" lon="10.611536860654628"><ele>534.0</ele><time>2026-04-19T10:09:22Z</time></trkpt><trkpt lat="43.4645811724557" lon="10.611449356835417"><ele>536.0</ele><time>2026-04-19T10:09:25Z</time></trkpt><trkpt lat="43.46457248110921" lon="10.611335080296545"><ele>538.0</ele><time>2026-04-19T10:09:29Z</time></trkpt><trkpt lat="43.46457704523618" lon="10.61124609933782"><ele>540.0</ele><time>2026-04-19T10:09:31Z</time></trkpt><trkpt lat="43.46461820968927" lon="10.6111292022571"><ele>542.0</ele><time>2026-04-19T10:09:34Z</time></trkpt><trkpt lat="43.46467432947663" lon="10.61105053208075"><ele>545.0</ele><time>2026-04-19T10:09:38Z</time></trkpt><trkpt lat="43.46472730746681" lon="10.610961760353398"><ele>548.0</ele><time>2026-04-19T10:09:41Z</time></trkpt><trkpt lat="43.46476652179459" lon="10.61087125908738"><ele>551.0</ele><time>2026-04-19T10:09:44Z</time></trkpt><trkpt lat="43.4648074360599" lon="10.610780941341337"><ele>554.0</ele><time>2026-04-19T10:09:47Z</time></trkpt><trkpt lat="43.464852512125155" lon="10.610708014449239"><ele>557.0</ele><time>2026-04-19T10:09:49Z</time></trkpt><trkpt lat="43.46489863667773" lon="10.610622178063256"><ele>560.0</ele><time>2026-04-19T10:09:52Z</time></trkpt><trkpt lat="43.46491195503656" lon="10.610516414437733"><ele>560.0</ele><time>2026-04-19T10:09:55Z</time></trkpt><trkpt lat="43.46492581458623" lon="10.61042062497984"><ele>560.0</ele><time>2026-04-19T10:09:58Z</time></trkpt><trkpt lat="43.46498329391856" lon="10.6103403754929"><ele>560.0</ele><time>2026-04-19T10:10:01Z</time></trkpt><trkpt lat="43.465040600020586" lon="10.610251864906127"><ele>560.0</ele><time>2026-04-19T10:10:04Z</time></trkpt><trkpt lat="43.46504069089018" lon="10.61014617166002"><ele>560.0</ele><time>2026-04-19T10:10:07Z</time></trkpt><trkpt lat="43.46504722243646" lon="10.610036984966822"><ele>560.0</ele><time>2026-04-19T10:10:10Z</time></trkpt><trkpt lat="43.46508062506759" lon="10.609932815588985"><ele>560.6666666666666</ele><time>2026-04-19T10:10:13Z</time></trkpt><trkpt lat="43.46512958969831" lon="10.609840759130975"><ele>561.3333333333333</ele><time>2026-04-19T10:10:16Z</time></trkpt><trkpt lat="43.465155811528476" lon="10.609746697402404"><ele>562.0</ele><time>2026-04-19T10:10:19Z</time></trkpt><trkpt lat="43.4651991405838" lon="10.609644874778478"><ele>562.6666666666666</ele><time>2026-04-19T10:10:22Z</time></trkpt><trkpt lat="43.46524708849887" lon="10.609584882722576"><ele>563.3333333333334</ele><time>2026-04-19T10:10:24Z</time></trkpt><trkpt lat="43.46530597220025" lon="10.609480813884648"><ele>564.0</ele><time>2026-04-19T10:11:24Z</time></trkpt><trkpt lat="43.46535297493333" lon="10.609380041091967"><ele>564.1666666666666</ele><time>2026-04-19T10:11:27Z</time></trkpt><trkpt lat="43.46537034553431" lon="10.609293916035114"><ele>564.3333333333334</ele><time>2026-04-19T10:11:29Z</time></trkpt><trkpt lat="43.465426783545375" lon="10.609229844142568"><ele>564.5</ele><time>2026-04-19T10:11:31Z</time></trkpt><trkpt lat="43.46549535693219" lon="10.60916463635246"><ele>564.6666666666667</ele><time>2026-04-19T10:11:33Z</time></trkpt><trkpt lat="43.46555161304991" lon="10.609077101956276"><ele>564.8333333333334</ele><time>2026-04-19T10:11:35Z</time></trkpt><trkpt lat="43.46555400408537" lon="10.60895230507613"><ele>565.0</ele><time>2026-04-19T10:11:37Z</time></trkpt><trkpt lat="43.46553985710702" lon="10.608841726627674"><ele>566.6666666666667</ele><time>2026-04-19T10:11:39Z</time></trkpt><trkpt lat="43.465518384986346" lon="10.608737795548937"><ele>568.3333333333334</ele><time>2026-04-19T10:11:42Z</time></trkpt><trkpt lat="43.465520033494286" lon="10.608650406261322"><ele>570.0</ele><time>2026-04-19T10:11:46Z</time></trkpt><trkpt lat="43.46558526387259" lon="10.608584669157555"><ele>571.6666666666666</ele><time>2026-04-19T10:18:15Z</time></trkpt><trkpt lat="43.46565738018651" lon="10.608557577245215"><ele>573.3333333333333</ele><time>2026-04-19T10:18:18Z</time></trkpt><trkpt lat="43.46572488416975" lon="10.608538529129602"><ele>575.0</ele><time>2026-04-19T10:18:21Z</time></trkpt><trkpt lat="43.46581053080607" lon="10.608549024168083"><ele>575.1428571428571</ele><time>2026-04-19T10:18:24Z</time></trkpt><trkpt lat="43.46587694532565" lon="10.60856473188167"><ele>575.2857142857142</ele><time>2026-04-19T10:18:26Z</time></trkpt><trkpt lat="43.46595423828169" lon="10.608551682701881"><ele>575.4285714285714</ele><time>2026-04-19T10:18:30.998Z</time></trkpt><trkpt lat="43.46602177540096" lon="10.608537476484782"><ele>575.5714285714286</ele><time>2026-04-19T10:18:35.998Z</time></trkpt><trkpt lat="43.46610000007142" lon="10.608542626661036"><ele>575.7142857142858</ele><time>2026-04-19T10:18:39.998Z</time></trkpt><trkpt lat="43.46616788417113" lon="10.608558977214448"><ele>575.8571428571429</ele><time>2026-04-19T10:18:42.999Z</time></trkpt><trkpt lat="43.46623847390039" lon="10.608568511249546"><ele>576.0</ele><time>2026-04-19T10:18:45.999Z</time></trkpt><trkpt lat="43.466319097627775" lon="10.608570249550407"><ele>576.3333333333334</ele><time>2026-04-19T10:18:48.999Z</time></trkpt><trkpt lat="43.46638619642356" lon="10.608573422992224"><ele>576.6666666666666</ele><time>2026-04-19T10:18:50.999Z</time></trkpt><trkpt lat="43.46646578871625" lon="10.608530344342089"><ele>577.0</ele><time>2026-04-19T10:18:53.999Z</time></trkpt><trkpt lat="43.466517291490945" lon="10.608448553656828"><ele>577.3333333333333</ele><time>2026-04-19T10:18:56.999Z</time></trkpt><trkpt lat="43.466555553256256" lon="10.608361736035919"><ele>577.6666666666666</ele><time>2026-04-19T10:18:59.999Z</time></trkpt><trkpt lat="43.46660009142129" lon="10.608273667782802"><ele>578.0</ele><time>2026-04-19T10:19:02.999Z</time></trkpt><trkpt lat="43.46665431285427" lon="10.608199951647007"><ele>578.0</ele><time>2026-04-19T10:19:05.999Z</time></trkpt><trkpt lat="43.466706917114436" lon="10.608147472171872"><ele>578.0</ele><time>2026-04-19T10:19:08.999Z</time></trkpt><trkpt lat="43.466754975893124" lon="10.608071925557319"><ele>578.0</ele><time>2026-04-19T10:19:11.999Z</time></trkpt><trkpt lat="43.46679209771948" lon="10.607998894473312"><ele>578.0</ele><time>2026-04-19T10:19:14.999Z</time></trkpt><trkpt lat="43.46681327865544" lon="10.60791560369248"><ele>578.0</ele><time>2026-04-19T10:19:18Z</time></trkpt><trkpt lat="43.46682838208207" lon="10.60783045061459"><ele>578.0</ele><time>2026-04-19T10:19:22Z</time></trkpt><trkpt lat="43.46687964394784" lon="10.607776468731679"><ele>578.0</ele><time>2026-04-19T10:19:25Z</time></trkpt><trkpt lat="43.46690680647033" lon="10.607697791843798"><ele>577.5</ele><time>2026-04-19T10:19:34Z</time></trkpt><trkpt lat="43.46691764445101" lon="10.607595911373782"><ele>577.0</ele><time>2026-04-19T10:19:51Z</time></trkpt><trkpt lat="43.46697141819948" lon="10.607520818237061"><ele>576.5</ele><time>2026-04-19T10:20:14Z</time></trkpt><trkpt lat="43.46704583581883" lon="10.607518907233635"><ele>576.0</ele><time>2026-04-19T10:20:23Z</time></trkpt><trkpt lat="43.46712199043556" lon="10.607544853961711"><ele>575.5</ele><time>2026-04-19T10:20:27Z</time></trkpt><trkpt lat="43.467185223845995" lon="10.607470740720977"><ele>575.0</ele><time>2026-04-19T10:20:30Z</time></trkpt><trkpt lat="43.46725633975095" lon="10.607398931481097"><ele>574.8333333333333</ele><time>2026-04-19T10:20:32Z</time></trkpt><trkpt lat="43.46732212287775" lon="10.607344173854127"><ele>574.6666666666666</ele><time>2026-04-19T10:20:34Z</time></trkpt><trkpt lat="43.467376021909075" lon="10.607271855461331"><ele>574.5</ele><time>2026-04-19T10:20:35.999Z</time></trkpt><trkpt lat="43.46743073323968" lon="10.607192851964063"><ele>574.3333333333334</ele><time>2026-04-19T10:20:37.999Z</time></trkpt><trkpt lat="43.46749646386205" lon="10.607148094825646"><ele>574.1666666666667</ele><time>2026-04-19T10:20:39.999Z</time></trkpt><trkpt lat="43.467591512062675" lon="10.607089645612641"><ele>574.0</ele><time>2026-04-19T10:20:41.999Z</time></trkpt><trkpt lat="43.467699446259424" lon="10.60703028376123"><ele>574.6666666666667</ele><time>2026-04-19T10:20:43.999Z</time></trkpt><trkpt lat="43.46780412910374" lon="10.606991900392746"><ele>575.3333333333334</ele><time>2026-04-19T10:20:45.999Z</time></trkpt><trkpt lat="43.46787432849646" lon="10.606917691614775"><ele>576.0</ele><time>2026-04-19T10:20:47.999Z</time></trkpt><trkpt lat="43.467920384048355" lon="10.60685144312519"><ele>576.6666666666666</ele><time>2026-04-19T10:20:49.999Z</time></trkpt><trkpt lat="43.46796963399348" lon="10.60678593142287"><ele>577.3333333333333</ele><time>2026-04-19T10:20:51.999Z</time></trkpt><trkpt lat="43.46800778517064" lon="10.606698693360396"><ele>578.0</ele><time>2026-04-19T10:20:55Z</time></trkpt><trkpt lat="43.468025175031954" lon="10.606586072670522"><ele>578.0</ele><time>2026-04-19T10:21:08Z</time></trkpt><trkpt lat="43.4680496779315" lon="10.606470263429445"><ele>578.0</ele><time>2026-04-19T10:21:11Z</time></trkpt><trkpt lat="43.46805806207549" lon="10.606365968278713"><ele>578.0</ele><time>2026-04-19T10:21:15Z</time></trkpt><trkpt lat="43.46806529381464" lon="10.606270814246683"><ele>578.0</ele><time>2026-04-19T10:21:18Z</time></trkpt><trkpt lat="43.46805176585861" lon="10.606179811939567"><ele>578.0</ele><time>2026-04-19T10:21:21Z</time></trkpt><trkpt lat="43.468048006662265" lon="10.60606392845179"><ele>578.0</ele><time>2026-04-19T10:21:24Z</time></trkpt><trkpt lat="43.46806087054039" lon="10.605968557788596"><ele>578.6</ele><time>2026-04-19T10:21:27Z</time></trkpt><trkpt lat="43.46807648361796" lon="10.605877867988728"><ele>579.1999999999999</ele><time>2026-04-19T10:21:30Z</time></trkpt><trkpt lat="43.46809765543571" lon="10.605745695656308"><ele>579.8</ele><time>2026-04-19T10:21:40Z</time></trkpt><trkpt lat="43.468105850198995" lon="10.605644767203536"><ele>580.4</ele><time>2026-04-19T10:21:42Z</time></trkpt><trkpt lat="43.46811456216423" lon="10.605505196546769"><ele>581.0</ele><time>2026-04-19T10:21:44Z</time></trkpt><trkpt lat="43.4681075935812" lon="10.605339487158934"><ele>581.2</ele><time>2026-04-19T10:21:46Z</time></trkpt><trkpt lat="43.468076275573445" lon="10.60516950665278"><ele>581.4000000000001</ele><time>2026-04-19T10:21:48Z</time></trkpt><trkpt lat="43.468056389431425" lon="10.605083974618783"><ele>581.6</ele><time>2026-04-19T10:21:49Z</time></trkpt><trkpt lat="43.468035090663044" lon="10.604931094243625"><ele>581.8000000000001</ele><time>2026-04-19T10:21:51Z</time></trkpt><trkpt lat="43.468037456194686" lon="10.604767761296872"><ele>582.0</ele><time>2026-04-19T10:21:53Z</time></trkpt><trkpt lat="43.4680709438844" lon="10.604622939569738"><ele>581.6</ele><time>2026-04-19T10:21:55Z</time></trkpt><trkpt lat="43.46810432317046" lon="10.604470492210858"><ele>581.2</ele><time>2026-04-19T10:21:57.001Z</time></trkpt><trkpt lat="43.468152193121746" lon="10.604335275415899"><ele>580.8</ele><time>2026-04-19T10:21:59.001Z</time></trkpt><trkpt lat="43.46822425693639" lon="10.604267206941321"><ele>580.4</ele><time>2026-04-19T10:22:01.001Z</time></trkpt><trkpt lat="43.46831450922108" lon="10.604191911786856"><ele>580.0</ele><time>2026-04-19T10:22:03.001Z</time></trkpt><trkpt lat="43.46840620909651" lon="10.6041242896559"><ele>580.0</ele><time>2026-04-19T10:22:05.001Z</time></trkpt><trkpt lat="43.468458299323125" lon="10.60401156899445"><ele>580.0</ele><time>2026-04-19T10:22:07.001Z</time></trkpt><trkpt lat="43.46845395191853" lon="10.603879155776713"><ele>580.0</ele><time>2026-04-19T10:22:09.001Z</time></trkpt><trkpt lat="43.46842557472311" lon="10.60376672280698"><ele>580.0</ele><time>2026-04-19T10:22:11.001Z</time></trkpt><trkpt lat="43.468413579478394" lon="10.603614137902508"><ele>580.0</ele><time>2026-04-19T10:22:13.001Z</time></trkpt><trkpt lat="43.46839380746819" lon="10.603482272819447"><ele>580.0</ele><time>2026-04-19T10:22:15.001Z</time></trkpt><trkpt lat="43.468372206695896" lon="10.603356973433094"><ele>580.0</ele><time>2026-04-19T10:22:17.001Z</time></trkpt><trkpt lat="43.46834259519184" lon="10.603250121377492"><ele>580.0</ele><time>2026-04-19T10:22:19.001Z</time></trkpt><trkpt lat="43.46831516259411" lon="10.603142215726029"><ele>580.0</ele><time>2026-04-19T10:22:22.001Z</time></trkpt><trkpt lat="43.4683141695364" lon="10.603037303898255"><ele>580.0</ele><time>2026-04-19T10:22:42Z</time></trkpt><trkpt lat="43.468296058325606" lon="10.602905471830871"><ele>580.0</ele><time>2026-04-19T10:22:45Z</time></trkpt><trkpt lat="43.46826899397546" lon="10.602811577346781"><ele>580.6666666666667</ele><time>2026-04-19T10:22:47Z</time></trkpt><trkpt lat="43.468223503824944" lon="10.602740250207294"><ele>581.3333333333334</ele><time>2026-04-19T10:22:49Z</time></trkpt><trkpt lat="43.4681678553531" lon="10.602663062901893"><ele>582.0</ele><time>2026-04-19T10:22:52Z</time></trkpt><trkpt lat="43.4681195048288" lon="10.602586905884964"><ele>582.6666666666666</ele><time>2026-04-19T10:22:54Z</time></trkpt><trkpt lat="43.468071066226535" lon="10.602490726709648"><ele>583.3333333333333</ele><time>2026-04-19T10:22:56Z</time></trkpt><trkpt lat="43.46803174868817" lon="10.602391580660997"><ele>584.0</ele><time>2026-04-19T10:22:58Z</time></trkpt><trkpt lat="43.467998911459816" lon="10.602273895258142"><ele>584.0</ele><time>2026-04-19T10:23:00Z</time></trkpt><trkpt lat="43.46796724455069" lon="10.602136970121514"><ele>584.0</ele><time>2026-04-19T10:23:02Z</time></trkpt><trkpt lat="43.46791522324562" lon="10.601970856105908"><ele>584.0</ele><time>2026-04-19T10:23:04Z</time></trkpt><trkpt lat="43.46788548426949" lon="10.60187513696371"><ele>584.0</ele><time>2026-04-19T10:23:05Z</time></trkpt><trkpt lat="43.46784858860855" lon="10.601782395051877"><ele>584.0</ele><time>2026-04-19T10:23:06Z</time></trkpt><trkpt lat="43.46780637037996" lon="10.601687275650816"><ele>583.8333333333333</ele><time>2026-04-19T10:23:07Z</time></trkpt><trkpt lat="43.46776171448007" lon="10.601587734296238"><ele>583.6666666666666</ele><time>2026-04-19T10:23:08Z</time></trkpt><trkpt lat="43.4677171653145" lon="10.601483974340358"><ele>583.5</ele><time>2026-04-19T10:23:09Z</time></trkpt><trkpt lat="43.46767213292796" lon="10.601381411168145"><ele>583.3333333333334</ele><time>2026-04-19T10:23:10Z</time></trkpt><trkpt lat="43.467632011438155" lon="10.601269002066575"><ele>583.1666666666667</ele><time>2026-04-19T10:23:11Z</time></trkpt><trkpt lat="43.46759378130981" lon="10.601157160288905"><ele>583.0</ele><time>2026-04-19T10:23:12Z</time></trkpt><trkpt lat="43.46755932126782" lon="10.60104718147457"><ele>582.1666666666667</ele><time>2026-04-19T10:23:13Z</time></trkpt><trkpt lat="43.46752568663155" lon="10.60093949386705"><ele>581.3333333333334</ele><time>2026-04-19T10:23:14Z</time></trkpt><trkpt lat="43.467495613829655" lon="10.600832940691218"><ele>580.5</ele><time>2026-04-19T10:23:15Z</time></trkpt><trkpt lat="43.46747197638949" lon="10.600728622325152"><ele>579.6666666666666</ele><time>2026-04-19T10:23:16Z</time></trkpt><trkpt lat="43.467447878893815" lon="10.600636721399958"><ele>578.8333333333333</ele><time>2026-04-19T10:23:17Z</time></trkpt><trkpt lat="43.46742371744378" lon="10.600551227673302"><ele>578.0</ele><time>2026-04-19T10:23:18Z</time></trkpt><trkpt lat="43.467401033453044" lon="10.600467637626904"><ele>575.6666666666666</ele><time>2026-04-19T10:23:19Z</time></trkpt><trkpt lat="43.467341780716325" lon="10.600322830935436"><ele>573.3333333333333</ele><time>2026-04-19T10:23:21Z</time></trkpt><trkpt lat="43.46729270698975" lon="10.60025975258064"><ele>571.0</ele><time>2026-04-19T10:23:22Z</time></trkpt><trkpt lat="43.46724309109421" lon="10.600193476025588"><ele>568.6666666666666</ele><time>2026-04-19T10:23:23Z</time></trkpt><trkpt lat="43.46719016386924" lon="10.600123929239958"><ele>566.3333333333334</ele><time>2026-04-19T10:23:24Z</time></trkpt><trkpt lat="43.46713402167845" lon="10.600048685616622"><ele>564.0</ele><time>2026-04-19T10:23:25Z</time></trkpt><trkpt lat="43.46707826722462" lon="10.599968708913625"><ele>563.5</ele><time>2026-04-19T10:23:26Z</time></trkpt><trkpt lat="43.46702240956223" lon="10.599887854258728"><ele>563.0</ele><time>2026-04-19T10:23:27Z</time></trkpt><trkpt lat="43.46696431671336" lon="10.599806612202391"><ele>562.5</ele><time>2026-04-19T10:23:28Z</time></trkpt><trkpt lat="43.46690275456384" lon="10.599736679383366"><ele>562.0</ele><time>2026-04-19T10:23:29.001Z</time></trkpt><trkpt lat="43.46683664657134" lon="10.599668586084888"><ele>561.5</ele><time>2026-04-19T10:23:30.001Z</time></trkpt><trkpt lat="43.4667734529451" lon="10.599593890384556"><ele>561.0</ele><time>2026-04-19T10:23:31.001Z</time></trkpt><trkpt lat="43.466714277824664" lon="10.59951821993962"><ele>560.1666666666666</ele><time>2026-04-19T10:23:32.001Z</time></trkpt><trkpt lat="43.46665100951296" lon="10.599451407482448"><ele>559.3333333333334</ele><time>2026-04-19T10:23:33.001Z</time></trkpt><trkpt lat="43.46658486384674" lon="10.599395924367217"><ele>558.5</ele><time>2026-04-19T10:23:34.001Z</time></trkpt><trkpt lat="43.466511664681335" lon="10.599349319252461"><ele>557.6666666666667</ele><time>2026-04-19T10:23:35.001Z</time></trkpt><trkpt lat="43.466439644271055" lon="10.599305098831346"><ele>556.8333333333334</ele><time>2026-04-19T10:23:36.001Z</time></trkpt><trkpt lat="43.466375206095066" lon="10.599248681058803"><ele>556.0</ele><time>2026-04-19T10:23:37.001Z</time></trkpt><trkpt lat="43.466316471542285" lon="10.599184656684736"><ele>554.6666666666667</ele><time>2026-04-19T10:23:38.001Z</time></trkpt><trkpt lat="43.4662642669769" lon="10.599105696034568"><ele>553.3333333333334</ele><time>2026-04-19T10:23:39.001Z</time></trkpt><trkpt lat="43.466210658252244" lon="10.599019894643023"><ele>552.0</ele><time>2026-04-19T10:23:40.001Z</time></trkpt><trkpt lat="43.46615898005658" lon="10.59893727748615"><ele>550.6666666666666</ele><time>2026-04-19T10:23:41.001Z</time></trkpt><trkpt lat="43.466106532580255" lon="10.59885850395667"><ele>549.3333333333333</ele><time>2026-04-19T10:23:42.001Z</time></trkpt><trkpt lat="43.46605313232761" lon="10.598788251731085"><ele>548.0</ele><time>2026-04-19T10:23:43.001Z</time></trkpt><trkpt lat="43.465997432908196" lon="10.598714116852491"><ele>547.6666666666666</ele><time>2026-04-19T10:23:44.001Z</time></trkpt><trkpt lat="43.46594364511913" lon="10.598644884187012"><ele>547.3333333333333</ele><time>2026-04-19T10:23:45.001Z</time></trkpt><trkpt lat="43.46589088626248" lon="10.59857986966572"><ele>547.0</ele><time>2026-04-19T10:23:46.001Z</time></trkpt><trkpt lat="43.46583790110776" lon="10.598504667454709"><ele>546.6666666666666</ele><time>2026-04-19T10:23:47.001Z</time></trkpt><trkpt lat="43.46578779025249" lon="10.598410949314053"><ele>546.3333333333334</ele><time>2026-04-19T10:23:48.001Z</time></trkpt><trkpt lat="43.46574623682752" lon="10.598306506259592"><ele>546.0</ele><time>2026-04-19T10:23:49.001Z</time></trkpt><trkpt lat="43.465717806253686" lon="10.598199647169189"><ele>546.0</ele><time>2026-04-19T10:23:50.001Z</time></trkpt><trkpt lat="43.46569851733982" lon="10.59810381348373"><ele>546.0</ele><time>2026-04-19T10:23:51.001Z</time></trkpt><trkpt lat="43.46570317157942" lon="10.59794057958155"><ele>546.0</ele><time>2026-04-19T10:23:53.001Z</time></trkpt><trkpt lat="43.46576953253744" lon="10.597803871516634"><ele>546.0</ele><time>2026-04-19T10:23:55.001Z</time></trkpt><trkpt lat="43.46582349973112" lon="10.59775361052604"><ele>546.0</ele><time>2026-04-19T10:23:56.001Z</time></trkpt><trkpt lat="43.465885899917176" lon="10.597711516813552"><ele>546.0</ele><time>2026-04-19T10:23:57.001Z</time></trkpt><trkpt lat="43.46594915018329" lon="10.597673728156584"><ele>544.1666666666666</ele><time>2026-04-19T10:23:58.001Z</time></trkpt><trkpt lat="43.46601272201354" lon="10.597640736199413"><ele>542.3333333333334</ele><time>2026-04-19T10:23:59.001Z</time></trkpt><trkpt lat="43.46608102558486" lon="10.597604714509087"><ele>540.5</ele><time>2026-04-19T10:24:00.001Z</time></trkpt><trkpt lat="43.46614512310838" lon="10.597568559881571"><ele>538.6666666666667</ele><time>2026-04-19T10:24:01.001Z</time></trkpt><trkpt lat="43.46620036442562" lon="10.597520415805953"><ele>536.8333333333334</ele><time>2026-04-19T10:24:02.001Z</time></trkpt><trkpt lat="43.466273177819815" lon="10.597404132761463"><ele>535.0</ele><time>2026-04-19T10:24:04.001Z</time></trkpt><trkpt lat="43.46632509438676" lon="10.597244459110948"><ele>535.0</ele><time>2026-04-19T10:24:06.001Z</time></trkpt><trkpt lat="43.46633136730902" lon="10.597151960858888"><ele>535.0</ele><time>2026-04-19T10:24:07.001Z</time></trkpt><trkpt lat="43.46632761423962" lon="10.597055358401663"><ele>535.0</ele><time>2026-04-19T10:24:08.001Z</time></trkpt><trkpt lat="43.46631973426772" lon="10.59695759036375"><ele>535.0</ele><time>2026-04-19T10:24:09.001Z</time></trkpt><trkpt lat="43.466314501882835" lon="10.596865359343019"><ele>535.0</ele><time>2026-04-19T10:24:10.001Z</time></trkpt><trkpt lat="43.466311489302974" lon="10.59669664081178"><ele>535.0</ele><time>2026-04-19T10:24:12.001Z</time></trkpt><trkpt lat="43.46631027981334" lon="10.596537555599422"><ele>534.3333333333334</ele><time>2026-04-19T10:24:14.001Z</time></trkpt><trkpt lat="43.466298871375" lon="10.596363867873098"><ele>533.6666666666667</ele><time>2026-04-19T10:24:16.001Z</time></trkpt><trkpt lat="43.466283359228406" lon="10.59626772475936"><ele>533.0</ele><time>2026-04-19T10:24:17.001Z</time></trkpt><trkpt lat="43.46626592879115" lon="10.596172575442644"><ele>532.3333333333334</ele><time>2026-04-19T10:24:18.001Z</time></trkpt><trkpt lat="43.46624781772901" lon="10.596075750881948"><ele>531.6666666666666</ele><time>2026-04-19T10:24:19.001Z</time></trkpt><trkpt lat="43.466232170524876" lon="10.595985550562245"><ele>531.0</ele><time>2026-04-19T10:24:20.001Z</time></trkpt><trkpt lat="43.466216160217655" lon="10.595896945827148"><ele>527.5</ele><time>2026-04-19T10:24:21.001Z</time></trkpt><trkpt lat="43.46618477803953" lon="10.595739455084672"><ele>524.0</ele><time>2026-04-19T10:24:23.001Z</time></trkpt><trkpt lat="43.466157293862885" lon="10.595598556630422"><ele>520.5</ele><time>2026-04-19T10:24:25.001Z</time></trkpt><trkpt lat="43.46613545112667" lon="10.59544680804134"><ele>517.0</ele><time>2026-04-19T10:24:27.001Z</time></trkpt><trkpt lat="43.46611407325909" lon="10.595271163929578"><ele>516.8333333333334</ele><time>2026-04-19T10:24:29.001Z</time></trkpt><trkpt lat="43.46610199970436" lon="10.595167848127403"><ele>516.6666666666667</ele><time>2026-04-19T10:24:30.001Z</time></trkpt><trkpt lat="43.46609104538379" lon="10.59505162431859"><ele>516.5</ele><time>2026-04-19T10:24:31.001Z</time></trkpt><trkpt lat="43.4660801375863" lon="10.594942396802526"><ele>516.3333333333334</ele><time>2026-04-19T10:24:32.001Z</time></trkpt><trkpt lat="43.466073989512054" lon="10.59483122676719"><ele>516.1666666666666</ele><time>2026-04-19T10:24:33.001Z</time></trkpt><trkpt lat="43.46606850113525" lon="10.594729428616334"><ele>516.0</ele><time>2026-04-19T10:24:34.001Z</time></trkpt><trkpt lat="43.466070432547966" lon="10.594630624777146"><ele>516.0</ele><time>2026-04-19T10:24:35.001Z</time></trkpt><trkpt lat="43.46607886612733" lon="10.594537794832549"><ele>516.0</ele><time>2026-04-19T10:24:36.001Z</time></trkpt><trkpt lat="43.46604208113642" lon="10.594368217247885"><ele>516.0</ele><time>2026-04-19T10:24:38.001Z</time></trkpt><trkpt lat="43.46599835930703" lon="10.594292447999313"><ele>516.0</ele><time>2026-04-19T10:24:39.001Z</time></trkpt><trkpt lat="43.4659526858714" lon="10.594214703261262"><ele>516.0</ele><time>2026-04-19T10:24:40.001Z</time></trkpt><trkpt lat="43.46590164251322" lon="10.59414157159467"><ele>516.0</ele><time>2026-04-19T10:24:41.001Z</time></trkpt><trkpt lat="43.465850339137724" lon="10.594067971315138"><ele>515.3333333333334</ele><time>2026-04-19T10:24:42.001Z</time></trkpt><trkpt lat="43.46578721156476" lon="10.594010587197676"><ele>514.6666666666666</ele><time>2026-04-19T10:24:43.001Z</time></trkpt><trkpt lat="43.46571507559218" lon="10.593978430995762"><ele>514.0</ele><time>2026-04-19T10:24:44.001Z</time></trkpt><trkpt lat="43.46564257051673" lon="10.59396256130785"><ele>513.3333333333333</ele><time>2026-04-19T10:24:45.001Z</time></trkpt><trkpt lat="43.46557814292617" lon="10.5939571177286"><ele>512.6666666666666</ele><time>2026-04-19T10:24:46.001Z</time></trkpt><trkpt lat="43.46546786512847" lon="10.593946702529806"><ele>512.0</ele><time>2026-04-19T10:24:48.001Z</time></trkpt><trkpt lat="43.46537775838317" lon="10.593938545810147"><ele>510.8333333333333</ele><time>2026-04-19T10:24:50.001Z</time></trkpt><trkpt lat="43.465301463553196" lon="10.593955396163322"><ele>509.66666666666663</ele><time>2026-04-19T10:24:52.001Z</time></trkpt><trkpt lat="43.46524280492987" lon="10.594016806393256"><ele>508.5</ele><time>2026-04-19T10:24:54.001Z</time></trkpt><trkpt lat="43.46523867135862" lon="10.59414848334744"><ele>507.33333333333337</ele><time>2026-04-19T10:24:57.001Z</time></trkpt><trkpt lat="43.46524766007006" lon="10.59423755242967"><ele>506.1666666666667</ele><time>2026-04-19T10:25:00.001Z</time></trkpt><trkpt lat="43.46523417082028" lon="10.594355975981735"><ele>505.0</ele><time>2026-04-19T10:25:03.001Z</time></trkpt><trkpt lat="43.465169266262805" lon="10.594439374794614"><ele>505.0</ele><time>2026-04-19T10:25:05.001Z</time></trkpt><trkpt lat="43.46514328231175" lon="10.594570230968397"><ele>505.0</ele><time>2026-04-19T10:25:07.001Z</time></trkpt><trkpt lat="43.465139570447526" lon="10.594723265885667"><ele>505.0</ele><time>2026-04-19T10:25:09.001Z</time></trkpt><trkpt lat="43.46513193481273" lon="10.594904727257283"><ele>505.0</ele><time>2026-04-19T10:25:11.001Z</time></trkpt><trkpt lat="43.465130402373525" lon="10.595007442730555"><ele>505.0</ele><time>2026-04-19T10:25:12.001Z</time></trkpt><trkpt lat="43.46513445931862" lon="10.595109804747404"><ele>505.00000000000006</ele><time>2026-04-19T10:25:13.001Z</time></trkpt><trkpt lat="43.46515350999123" lon="10.595200137292712"><ele>505.0</ele><time>2026-04-19T10:25:14.001Z</time></trkpt><trkpt lat="43.4652030243949" lon="10.595347703372092"><ele>505.0</ele><time>2026-04-19T10:25:16.001Z</time></trkpt><trkpt lat="43.46523905942063" lon="10.595420735486613"><ele>505.0</ele><time>2026-04-19T10:25:17.001Z</time></trkpt><trkpt lat="43.46527958240691" lon="10.595499866069611"><ele>505.00000000000006</ele><time>2026-04-19T10:25:18.001Z</time></trkpt><trkpt lat="43.46532497729748" lon="10.595576752129393"><ele>505.0</ele><time>2026-04-19T10:25:19.001Z</time></trkpt><trkpt lat="43.46536935209143" lon="10.595663115442356"><ele>504.50000000000006</ele><time>2026-04-19T10:25:20.001Z</time></trkpt><trkpt lat="43.46540675159479" lon="10.595751493122561"><ele>504.0</ele><time>2026-04-19T10:25:21.001Z</time></trkpt><trkpt lat="43.46543700143798" lon="10.595834279794373"><ele>503.5</ele><time>2026-04-19T10:25:22.001Z</time></trkpt><trkpt lat="43.46544228966202" lon="10.595925243737968"><ele>503.0</ele><time>2026-04-19T10:25:23.001Z</time></trkpt><trkpt lat="43.46538276103009" lon="10.596069563002489"><ele>502.50000000000006</ele><time>2026-04-19T10:25:25.001Z</time></trkpt><trkpt lat="43.465312106621106" lon="10.596108743234812"><ele>502.0</ele><time>2026-04-19T10:25:26.001Z</time></trkpt><trkpt lat="43.46522494605565" lon="10.59610546884165"><ele>501.99999999999994</ele><time>2026-04-19T10:25:27.001Z</time></trkpt><trkpt lat="43.465143980104465" lon="10.59608921259709"><ele>502.0</ele><time>2026-04-19T10:25:28.001Z</time></trkpt><trkpt lat="43.46507188761901" lon="10.596083562258649"><ele>501.99999999999994</ele><time>2026-04-19T10:25:29.001Z</time></trkpt><trkpt lat="43.465001870198996" lon="10.59609760640933"><ele>501.99999999999994</ele><time>2026-04-19T10:25:30.001Z</time></trkpt><trkpt lat="43.46493841531436" lon="10.59612628564288"><ele>502.0</ele><time>2026-04-19T10:25:31.001Z</time></trkpt><trkpt lat="43.46488694622385" lon="10.596181224071248"><ele>501.99999999999994</ele><time>2026-04-19T10:25:32.001Z</time></trkpt><trkpt lat="43.464846827935034" lon="10.59625371914749"><ele>501.99999999999994</ele><time>2026-04-19T10:25:33.001Z</time></trkpt><trkpt lat="43.464797284848316" lon="10.596408718484243"><ele>502.42857142857133</ele><time>2026-04-19T10:25:35.001Z</time></trkpt><trkpt lat="43.46477587627612" lon="10.596497905068187"><ele>502.85714285714283</ele><time>2026-04-19T10:25:36.001Z</time></trkpt><trkpt lat="43.46474942966077" lon="10.59659122618368"><ele>503.2857142857142</ele><time>2026-04-19T10:25:37.001Z</time></trkpt><trkpt lat="43.46472281303337" lon="10.596683966465784"><ele>503.71428571428567</ele><time>2026-04-19T10:25:38.001Z</time></trkpt><trkpt lat="43.46469880246234" lon="10.596782670173983"><ele>504.1428571428571</ele><time>2026-04-19T10:25:39.001Z</time></trkpt><trkpt lat="43.464670803178294" lon="10.596882823404332"><ele>504.57142857142856</ele><time>2026-04-19T10:25:40.001Z</time></trkpt><trkpt lat="43.46464206303245" lon="10.596982705580134"><ele>505.0</ele><time>2026-04-19T10:25:41.001Z</time></trkpt><trkpt lat="43.46461675854564" lon="10.597082065170115"><ele>502.83333333333337</ele><time>2026-04-19T10:25:42.001Z</time></trkpt><trkpt lat="43.46459457918596" lon="10.597187074926913"><ele>500.6666666666667</ele><time>2026-04-19T10:25:43.001Z</time></trkpt><trkpt lat="43.46456683054583" lon="10.597297795397925"><ele>498.5</ele><time>2026-04-19T10:25:44.001Z</time></trkpt><trkpt lat="43.46453889105779" lon="10.597409718226269"><ele>496.33333333333337</ele><time>2026-04-19T10:25:45.001Z</time></trkpt><trkpt lat="43.464510266743765" lon="10.597524167100847"><ele>494.1666666666667</ele><time>2026-04-19T10:25:46.001Z</time></trkpt><trkpt lat="43.464481263301344" lon="10.597641451117047"><ele>492.0</ele><time>2026-04-19T10:25:47.001Z</time></trkpt><trkpt lat="43.46445145206303" lon="10.59775085896893"><ele>493.8333333333333</ele><time>2026-04-19T10:25:48.001Z</time></trkpt><trkpt lat="43.46441601062138" lon="10.597852237239183"><ele>495.66666666666663</ele><time>2026-04-19T10:25:49.001Z</time></trkpt><trkpt lat="43.46436516084597" lon="10.597934157613507"><ele>497.5</ele><time>2026-04-19T10:25:50.001Z</time></trkpt><trkpt lat="43.4642994407099" lon="10.597985585966576"><ele>499.3333333333333</ele><time>2026-04-19T10:25:51.001Z</time></trkpt><trkpt lat="43.464223265319" lon="10.598009062870917"><ele>501.16666666666663</ele><time>2026-04-19T10:25:52.001Z</time></trkpt><trkpt lat="43.46414136233534" lon="10.598004467880648"><ele>503.0</ele><time>2026-04-19T10:25:53.001Z</time></trkpt><trkpt lat="43.46404677826295" lon="10.597995415936456"><ele>502.99999999999994</ele><time>2026-04-19T10:25:54.001Z</time></trkpt><trkpt lat="43.46395639005786" lon="10.597998061818142"><ele>503.0</ele><time>2026-04-19T10:25:55.001Z</time></trkpt><trkpt lat="43.463874632866194" lon="10.59801061373601"><ele>503.0</ele><time>2026-04-19T10:25:56.001Z</time></trkpt><trkpt lat="43.46380189372868" lon="10.598051269009254"><ele>503.0</ele><time>2026-04-19T10:25:57.001Z</time></trkpt><trkpt lat="43.46374101222922" lon="10.598100713567376"><ele>502.99999999999994</ele><time>2026-04-19T10:25:58.001Z</time></trkpt><trkpt lat="43.463692059183046" lon="10.598168022041325"><ele>503.0</ele><time>2026-04-19T10:25:59.001Z</time></trkpt><trkpt lat="43.46363647529233" lon="10.598310101432482"><ele>498.8333333333333</ele><time>2026-04-19T10:26:01.001Z</time></trkpt><trkpt lat="43.463608165992774" lon="10.598463360478634"><ele>494.66666666666663</ele><time>2026-04-19T10:26:03.001Z</time></trkpt><trkpt lat="43.46360177096279" lon="10.598558823050356"><ele>490.5</ele><time>2026-04-19T10:26:04.001Z</time></trkpt><trkpt lat="43.46359603542179" lon="10.59865569561029"><ele>486.33333333333337</ele><time>2026-04-19T10:26:05.001Z</time></trkpt><trkpt lat="43.463598162116064" lon="10.5987506832346"><ele>482.1666666666667</ele><time>2026-04-19T10:26:06.001Z</time></trkpt><trkpt lat="43.46359911763021" lon="10.598841896992134"><ele>478.0</ele><time>2026-04-19T10:26:07.001Z</time></trkpt><trkpt lat="43.46360224170209" lon="10.598932090945564"><ele>478.0</ele><time>2026-04-19T10:26:08.001Z</time></trkpt><trkpt lat="43.46359020984733" lon="10.599099979103125"><ele>477.99999999999994</ele><time>2026-04-19T10:26:10.001Z</time></trkpt><trkpt lat="43.46358472637674" lon="10.599262500971035"><ele>477.99999999999994</ele><time>2026-04-19T10:26:12.001Z</time></trkpt><trkpt lat="43.463587151401704" lon="10.599355032678488"><ele>478.0</ele><time>2026-04-19T10:26:13.001Z</time></trkpt><trkpt lat="43.463593157833905" lon="10.59945441092427"><ele>478.0</ele><time>2026-04-19T10:26:14.001Z</time></trkpt><trkpt lat="43.463598320660715" lon="10.599557762862375"><ele>477.50000000000006</ele><time>2026-04-19T10:26:15.001Z</time></trkpt><trkpt lat="43.46360372304285" lon="10.599656105222802"><ele>477.0</ele><time>2026-04-19T10:26:16.001Z</time></trkpt><trkpt lat="43.46360745592883" lon="10.599748773192513"><ele>476.5</ele><time>2026-04-19T10:26:17.001Z</time></trkpt><trkpt lat="43.46361335252422" lon="10.599837912232777"><ele>476.0</ele><time>2026-04-19T10:26:18.001Z</time></trkpt><trkpt lat="43.46361550184549" lon="10.599925658153241"><ele>475.50000000000006</ele><time>2026-04-19T10:26:19.001Z</time></trkpt><trkpt lat="43.4636307339423" lon="10.600090585113307"><ele>475.0</ele><time>2026-04-19T10:26:21.001Z</time></trkpt><trkpt lat="43.46364428391955" lon="10.60024710809699"><ele>474.5</ele><time>2026-04-19T10:26:23.001Z</time></trkpt><trkpt lat="43.46365681436108" lon="10.60041087242888"><ele>474.0</ele><time>2026-04-19T10:26:25.001Z</time></trkpt><trkpt lat="43.46367236725573" lon="10.600574996655174"><ele>473.5</ele><time>2026-04-19T10:26:27.001Z</time></trkpt><trkpt lat="43.46368448340018" lon="10.600733733648632"><ele>473.0</ele><time>2026-04-19T10:26:29.001Z</time></trkpt><trkpt lat="43.46370250633664" lon="10.60089578953164"><ele>472.99999999999994</ele><time>2026-04-19T10:26:31.001Z</time></trkpt><trkpt lat="43.463719183102235" lon="10.600981818866515"><ele>473.0</ele><time>2026-04-19T10:26:32.001Z</time></trkpt><trkpt lat="43.463748377707205" lon="10.60106330939922"><ele>473.0</ele><time>2026-04-19T10:26:33.001Z</time></trkpt><trkpt lat="43.46383047209425" lon="10.601203649050323"><ele>473.0</ele><time>2026-04-19T10:26:35.002Z</time></trkpt><trkpt lat="43.463893761258426" lon="10.601239173767793"><ele>472.99999999999994</ele><time>2026-04-19T10:26:36.002Z</time></trkpt><trkpt lat="43.46396730143116" lon="10.601245574405715"><ele>473.0</ele><time>2026-04-19T10:26:37.002Z</time></trkpt><trkpt lat="43.46403240522951" lon="10.60125210084079"><ele>473.8333333333333</ele><time>2026-04-19T10:26:38.002Z</time></trkpt><trkpt lat="43.46410088892537" lon="10.601246155492959"><ele>474.66666666666663</ele><time>2026-04-19T10:26:39.002Z</time></trkpt><trkpt lat="43.464164123052775" lon="10.601239561434054"><ele>475.5</ele><time>2026-04-19T10:26:40.002Z</time></trkpt><trkpt lat="43.46428473367992" lon="10.601255860585006"><ele>476.33333333333337</ele><time>2026-04-19T10:26:42.002Z</time></trkpt><trkpt lat="43.46432543320497" lon="10.601325588504265"><ele>477.1666666666667</ele><time>2026-04-19T10:26:43.002Z</time></trkpt><trkpt lat="43.4643412927595" lon="10.60141280536705"><ele>478.0</ele><time>2026-04-19T10:26:44.002Z</time></trkpt><trkpt lat="43.464326675922585" lon="10.601520470202034"><ele>478.00000000000006</ele><time>2026-04-19T10:26:45.002Z</time></trkpt><trkpt lat="43.46430494665511" lon="10.601624401914426"><ele>478.0</ele><time>2026-04-19T10:26:46.002Z</time></trkpt><trkpt lat="43.46426397912579" lon="10.601721921686092"><ele>478.0</ele><time>2026-04-19T10:26:47.002Z</time></trkpt><trkpt lat="43.46423609500227" lon="10.601810041252472"><ele>478.0</ele><time>2026-04-19T10:26:48.002Z</time></trkpt><trkpt lat="43.464200392352545" lon="10.601889556996168"><ele>478.00000000000006</ele><time>2026-04-19T10:26:49.002Z</time></trkpt><trkpt lat="43.46409918811204" lon="10.601990103322224"><ele>478.0</ele><time>2026-04-19T10:26:51.002Z</time></trkpt><trkpt lat="43.46403652080623" lon="10.602052821351457"><ele>479.00000000000006</ele><time>2026-04-19T10:26:52.002Z</time></trkpt><trkpt lat="43.46398592264166" lon="10.602146053235398"><ele>480.0</ele><time>2026-04-19T10:26:53.002Z</time></trkpt><trkpt lat="43.46392296097114" lon="10.6022077986953"><ele>481.00000000000006</ele><time>2026-04-19T10:26:54.001Z</time></trkpt><trkpt lat="43.46386779558069" lon="10.602272483260942"><ele>482.00000000000006</ele><time>2026-04-19T10:26:55.001Z</time></trkpt><trkpt lat="43.46382022287765" lon="10.602344100350944"><ele>483.0</ele><time>2026-04-19T10:26:56.001Z</time></trkpt><trkpt lat="43.46377371374302" lon="10.60241634027503"><ele>484.00000000000006</ele><time>2026-04-19T10:26:57.001Z</time></trkpt><trkpt lat="43.46373235190882" lon="10.6024936792832"><ele>485.00000000000006</ele><time>2026-04-19T10:26:58.001Z</time></trkpt><trkpt lat="43.46369423290332" lon="10.602577360128528"><ele>479.16666666666663</ele><time>2026-04-19T10:26:59.001Z</time></trkpt><trkpt lat="43.46366024968309" lon="10.602659602063277"><ele>473.3333333333333</ele><time>2026-04-19T10:27:00.001Z</time></trkpt><trkpt lat="43.46363605675159" lon="10.602745725412873"><ele>467.5</ele><time>2026-04-19T10:27:01.001Z</time></trkpt><trkpt lat="43.4636277619152" lon="10.60283237356632"><ele>461.66666666666663</ele><time>2026-04-19T10:27:02.001Z</time></trkpt><trkpt lat="43.463635347695536" lon="10.602997563190288"><ele>455.8333333333333</ele><time>2026-04-19T10:27:04.001Z</time></trkpt><trkpt lat="43.4636765387194" lon="10.603142616313631"><ele>450.0</ele><time>2026-04-19T10:27:06.001Z</time></trkpt><trkpt lat="43.46373185852238" lon="10.60326993166348"><ele>454.6</ele><time>2026-04-19T10:27:08.001Z</time></trkpt><trkpt lat="43.46379149521709" lon="10.603398055491766"><ele>459.2</ele><time>2026-04-19T10:27:10.001Z</time></trkpt><trkpt lat="43.46382731804118" lon="10.603470397647708"><ele>463.79999999999995</ele><time>2026-04-19T10:27:11.001Z</time></trkpt><trkpt lat="43.4638631856067" lon="10.603542390842081"><ele>468.4</ele><time>2026-04-19T10:27:12.001Z</time></trkpt><trkpt lat="43.463927802312014" lon="10.60367956131606"><ele>473.0</ele><time>2026-04-19T10:27:14.001Z</time></trkpt><trkpt lat="43.46398701069918" lon="10.603798144035661"><ele>473.0</ele><time>2026-04-19T10:27:16.001Z</time></trkpt><trkpt lat="43.46405599186168" lon="10.603928465980678"><ele>472.99999999999994</ele><time>2026-04-19T10:27:18.001Z</time></trkpt><trkpt lat="43.464094592006816" lon="10.604001296461377"><ele>472.99999999999994</ele><time>2026-04-19T10:27:19.001Z</time></trkpt><trkpt lat="43.464131852388775" lon="10.604073014490599"><ele>473.0</ele><time>2026-04-19T10:27:20.001Z</time></trkpt><trkpt lat="43.46419314857857" lon="10.604220663996157"><ele>473.0</ele><time>2026-04-19T10:27:22.001Z</time></trkpt><trkpt lat="43.46417825187494" lon="10.604376662964013"><ele>473.0</ele><time>2026-04-19T10:27:24.001Z</time></trkpt><trkpt lat="43.464120045352715" lon="10.604424231425842"><ele>472.99999999999994</ele><time>2026-04-19T10:27:25.001Z</time></trkpt><trkpt lat="43.46402407752684" lon="10.604433671089144"><ele>472.99999999999994</ele><time>2026-04-19T10:27:27.001Z</time></trkpt><trkpt lat="43.46392162187093" lon="10.604379285650696"><ele>473.0</ele><time>2026-04-19T10:27:29.001Z</time></trkpt><trkpt lat="43.463817378559426" lon="10.604320817184885"><ele>473.0</ele><time>2026-04-19T10:27:31.001Z</time></trkpt><trkpt lat="43.46372076192972" lon="10.604264107202074"><ele>470.4</ele><time>2026-04-19T10:27:33.001Z</time></trkpt><trkpt lat="43.46362542574826" lon="10.604207199184758"><ele>467.79999999999995</ele><time>2026-04-19T10:27:35.001Z</time></trkpt><trkpt lat="43.46353181492742" lon="10.604151150555783"><ele>465.2</ele><time>2026-04-19T10:27:37.001Z</time></trkpt><trkpt lat="43.46344504673037" lon="10.604098773119915"><ele>462.6</ele><time>2026-04-19T10:27:39.001Z</time></trkpt><trkpt lat="43.463363586714635" lon="10.604049078280843"><ele>460.0</ele><time>2026-04-19T10:27:41.001Z</time></trkpt><trkpt lat="43.463289237525004" lon="10.604002869009525"><ele>460.00000000000006</ele><time>2026-04-19T10:27:43.001Z</time></trkpt><trkpt lat="43.46321306566957" lon="10.603955526924196"><ele>460.0</ele><time>2026-04-19T10:27:45.001Z</time></trkpt><trkpt lat="43.46313920233403" lon="10.603909619719051"><ele>460.0</ele><time>2026-04-19T10:27:47.001Z</time></trkpt><trkpt lat="43.46307022379515" lon="10.60386734140039"><ele>460.0</ele><time>2026-04-19T10:27:49.001Z</time></trkpt><trkpt lat="43.463000957927704" lon="10.603842005654057"><ele>460.00000000000006</ele><time>2026-04-19T10:27:51.001Z</time></trkpt><trkpt lat="43.46293134681812" lon="10.60380453506627"><ele>460.0</ele><time>2026-04-19T10:27:53.001Z</time></trkpt><trkpt lat="43.46284653411978" lon="10.603765843948324"><ele>457.2</ele><time>2026-04-19T10:27:55.001Z</time></trkpt><trkpt lat="43.46274495998093" lon="10.603728994878209"><ele>454.4</ele><time>2026-04-19T10:27:57.001Z</time></trkpt><trkpt lat="43.46263241588286" lon="10.603733629403033"><ele>451.6</ele><time>2026-04-19T10:27:59.001Z</time></trkpt><trkpt lat="43.46256749860094" lon="10.603735409329168"><ele>448.8</ele><time>2026-04-19T10:28:00.001Z</time></trkpt><trkpt lat="43.46247011436231" lon="10.60382822206941"><ele>446.0</ele><time>2026-04-19T10:28:02.001Z</time></trkpt><trkpt lat="43.46241094608611" lon="10.603958211443242"><ele>446.0</ele><time>2026-04-19T10:28:04.001Z</time></trkpt><trkpt lat="43.46234211764575" lon="10.60407877801018"><ele>446.0</ele><time>2026-04-19T10:28:06.001Z</time></trkpt><trkpt lat="43.462282172264956" lon="10.6041894767907"><ele>446.0</ele><time>2026-04-19T10:28:08.001Z</time></trkpt><trkpt lat="43.462232842952496" lon="10.604298171240286"><ele>446.0</ele><time>2026-04-19T10:28:10.001Z</time></trkpt><trkpt lat="43.46217726118023" lon="10.604410179047107"><ele>446.0</ele><time>2026-04-19T10:28:12.001Z</time></trkpt><trkpt lat="43.46211943157468" lon="10.604529077192757"><ele>441.8</ele><time>2026-04-19T10:28:14.001Z</time></trkpt><trkpt lat="43.4620603615523" lon="10.604655473260575"><ele>437.6</ele><time>2026-04-19T10:28:16.001Z</time></trkpt><trkpt lat="43.461987091533096" lon="10.604792140902628"><ele>433.4</ele><time>2026-04-19T10:28:18.001Z</time></trkpt><trkpt lat="43.461947038836314" lon="10.60486339496613"><ele>429.2</ele><time>2026-04-19T10:28:19.001Z</time></trkpt><trkpt lat="43.461878197464294" lon="10.6050063577417"><ele>425.0</ele><time>2026-04-19T10:28:21.001Z</time></trkpt><trkpt lat="43.46181016178108" lon="10.605148202172964"><ele>425.0</ele><time>2026-04-19T10:28:23.001Z</time></trkpt><trkpt lat="43.46175388684334" lon="10.605298039454164"><ele>425.0</ele><time>2026-04-19T10:28:25.001Z</time></trkpt><trkpt lat="43.461706457758595" lon="10.605358929207602"><ele>425.0</ele><time>2026-04-19T10:28:26.001Z</time></trkpt><trkpt lat="43.46164560842169" lon="10.605506863053746"><ele>425.0</ele><time>2026-04-19T10:28:28.001Z</time></trkpt><trkpt lat="43.461584776689286" lon="10.605635811858043"><ele>425.0</ele><time>2026-04-19T10:28:30.001Z</time></trkpt><trkpt lat="43.46153014978443" lon="10.605736139548497"><ele>424.8</ele><time>2026-04-19T10:28:32.002Z</time></trkpt><trkpt lat="43.461476243945846" lon="10.60583776903135"><ele>424.6</ele><time>2026-04-19T10:28:34.002Z</time></trkpt><trkpt lat="43.461416161236485" lon="10.605946708857939"><ele>424.4</ele><time>2026-04-19T10:28:36.002Z</time></trkpt><trkpt lat="43.461358235341656" lon="10.606044414839483"><ele>424.2</ele><time>2026-04-19T10:28:38.002Z</time></trkpt><trkpt lat="43.46130910833868" lon="10.606129914769655"><ele>424.0</ele><time>2026-04-19T10:28:40.002Z</time></trkpt><trkpt lat="43.46126417225645" lon="10.606252143122584"><ele>424.0</ele><time>2026-04-19T10:28:42.002Z</time></trkpt><trkpt lat="43.46121485950218" lon="10.606336289878113"><ele>424.0</ele><time>2026-04-19T10:28:44.002Z</time></trkpt><trkpt lat="43.46117350493384" lon="10.606435285015944"><ele>424.0</ele><time>2026-04-19T10:28:46.002Z</time></trkpt><trkpt lat="43.461147060385436" lon="10.606592694092303"><ele>424.0</ele><time>2026-04-19T10:28:48.002Z</time></trkpt><trkpt lat="43.46113798851579" lon="10.606753649839808"><ele>424.0</ele><time>2026-04-19T10:28:50.002Z</time></trkpt><trkpt lat="43.4611470252811" lon="10.60690989077911"><ele>426.4</ele><time>2026-04-19T10:28:52.002Z</time></trkpt><trkpt lat="43.461140927632115" lon="10.607058633061383"><ele>428.79999999999995</ele><time>2026-04-19T10:28:54.002Z</time></trkpt><trkpt lat="43.461134481216625" lon="10.607222481656867"><ele>431.20000000000005</ele><time>2026-04-19T10:28:56.002Z</time></trkpt><trkpt lat="43.46111666304744" lon="10.607352498335993"><ele>433.6</ele><time>2026-04-19T10:28:58.002Z</time></trkpt><trkpt lat="43.46110852804868" lon="10.60745749168892"><ele>436.0</ele><time>2026-04-19T10:29:00.001Z</time></trkpt><trkpt lat="43.46110563501333" lon="10.607579613913343"><ele>436.0</ele><time>2026-04-19T10:29:02.001Z</time></trkpt><trkpt lat="43.461085561690254" lon="10.607722203576943"><ele>436.0</ele><time>2026-04-19T10:29:04.001Z</time></trkpt><trkpt lat="43.4610724975296" lon="10.607808654748531"><ele>436.0</ele><time>2026-04-19T10:29:05.001Z</time></trkpt><trkpt lat="43.461044843686494" lon="10.607972545143896"><ele>436.0</ele><time>2026-04-19T10:29:07.001Z</time></trkpt><trkpt lat="43.461022332507035" lon="10.608093171352053"><ele>436.0</ele><time>2026-04-19T10:29:09.001Z</time></trkpt><trkpt lat="43.46098390020093" lon="10.60820987978692"><ele>437.8</ele><time>2026-04-19T10:29:11.001Z</time></trkpt><trkpt lat="43.46091111311654" lon="10.608319997584196"><ele>439.6</ele><time>2026-04-19T10:29:13.001Z</time></trkpt><trkpt lat="43.46082226791953" lon="10.608422329562364"><ele>441.4</ele><time>2026-04-19T10:29:15.001Z</time></trkpt><trkpt lat="43.46075985485783" lon="10.608446629272821"><ele>443.2</ele><time>2026-04-19T10:29:16.001Z</time></trkpt><trkpt lat="43.460689462909656" lon="10.608417523232434"><ele>445.0</ele><time>2026-04-19T10:29:17.001Z</time></trkpt><trkpt lat="43.460601643598345" lon="10.608327582553366"><ele>445.0</ele><time>2026-04-19T10:29:19.001Z</time></trkpt><trkpt lat="43.46052256598006" lon="10.608238965290333"><ele>445.0</ele><time>2026-04-19T10:29:21.001Z</time></trkpt><trkpt lat="43.460447729142906" lon="10.608170975256938"><ele>445.0</ele><time>2026-04-19T10:29:23.001Z</time></trkpt><trkpt lat="43.46037558551233" lon="10.60812988061896"><ele>445.0</ele><time>2026-04-19T10:29:25.001Z</time></trkpt><trkpt lat="43.46028762716832" lon="10.60811802694561"><ele>445.0</ele><time>2026-04-19T10:29:27.001Z</time></trkpt><trkpt lat="43.4601976168207" lon="10.608144942776699"><ele>444.8</ele><time>2026-04-19T10:29:29.001Z</time></trkpt><trkpt lat="43.460129360143654" lon="10.608232880398074"><ele>444.6</ele><time>2026-04-19T10:29:31.001Z</time></trkpt><trkpt lat="43.46007109319692" lon="10.608348051208106"><ele>444.4</ele><time>2026-04-19T10:29:33.001Z</time></trkpt><trkpt lat="43.46002209087511" lon="10.608474444821404"><ele>444.2</ele><time>2026-04-19T10:29:35.001Z</time></trkpt><trkpt lat="43.45999518733287" lon="10.608620803976512"><ele>444.0</ele><time>2026-04-19T10:29:37.001Z</time></trkpt><trkpt lat="43.45998659164774" lon="10.608764327611963"><ele>444.0</ele><time>2026-04-19T10:29:39.001Z</time></trkpt><trkpt lat="43.4599401046164" lon="10.60890402231489"><ele>444.0</ele><time>2026-04-19T10:29:41.001Z</time></trkpt><trkpt lat="43.45993365307219" lon="10.608993895531679"><ele>444.0</ele><time>2026-04-19T10:29:42.001Z</time></trkpt><trkpt lat="43.459899743595344" lon="10.609074532841154"><ele>444.0</ele><time>2026-04-19T10:29:43.001Z</time></trkpt><trkpt lat="43.45985992208535" lon="10.609159110014659"><ele>444.0</ele><time>2026-04-19T10:29:44.001Z</time></trkpt><trkpt lat="43.45982033755552" lon="10.60924078029792"><ele>444.0</ele><time>2026-04-19T10:29:45.001Z</time></trkpt><trkpt lat="43.459785050066635" lon="10.609315350031991"><ele>444.0</ele><time>2026-04-19T10:29:46.001Z</time></trkpt><trkpt lat="43.459727014174156" lon="10.609463656959432"><ele>444.0</ele><time>2026-04-19T10:29:48.001Z</time></trkpt><trkpt lat="43.45967349709128" lon="10.609590757845327"><ele>444.0</ele><time>2026-04-19T10:29:50.001Z</time></trkpt><trkpt lat="43.45962637414217" lon="10.609697116015969"><ele>444.0</ele><time>2026-04-19T10:29:52.001Z</time></trkpt><trkpt lat="43.4595799955392" lon="10.609814453562114"><ele>444.0</ele><time>2026-04-19T10:29:54.001Z</time></trkpt><trkpt lat="43.45952914721086" lon="10.609939833913222"><ele>444.25</ele><time>2026-04-19T10:29:56.001Z</time></trkpt><trkpt lat="43.45946610988179" lon="10.610063317149018"><ele>444.5</ele><time>2026-04-19T10:29:58.001Z</time></trkpt><trkpt lat="43.45939323417636" lon="10.610189104199607"><ele>444.75</ele><time>2026-04-19T10:30:00.001Z</time></trkpt><trkpt lat="43.45932347103164" lon="10.61031470694811"><ele>445.0</ele><time>2026-04-19T10:30:02.001Z</time></trkpt><trkpt lat="43.45926731660396" lon="10.61045099634968"><ele>445.0</ele><time>2026-04-19T10:30:04.001Z</time></trkpt><trkpt lat="43.45919045182022" lon="10.610577710034084"><ele>445.0</ele><time>2026-04-19T10:30:06.001Z</time></trkpt><trkpt lat="43.459102144745586" lon="10.610690580195108"><ele>445.0</ele><time>2026-04-19T10:30:08.001Z</time></trkpt><trkpt lat="43.45903190835551" lon="10.610803570214436"><ele>445.0</ele><time>2026-04-19T10:30:10.001Z</time></trkpt><trkpt lat="43.45895241164073" lon="10.610864647837854"><ele>445.0</ele><time>2026-04-19T10:30:12.001Z</time></trkpt><trkpt lat="43.458871188033875" lon="10.610947637163607"><ele>443.4</ele><time>2026-04-19T10:30:14.001Z</time></trkpt><trkpt lat="43.458783234828765" lon="10.611053243955375"><ele>441.8</ele><time>2026-04-19T10:30:16.001Z</time></trkpt><trkpt lat="43.458706064870086" lon="10.611149018390574"><ele>440.20000000000005</ele><time>2026-04-19T10:30:18.001Z</time></trkpt><trkpt lat="43.45863040955373" lon="10.611241405980527"><ele>438.6</ele><time>2026-04-19T10:30:20.001Z</time></trkpt><trkpt lat="43.4585754777078" lon="10.611335840738935"><ele>437.0</ele><time>2026-04-19T10:30:22.001Z</time></trkpt><trkpt lat="43.45852741107342" lon="10.611417427587932"><ele>437.0</ele><time>2026-04-19T10:30:24.001Z</time></trkpt><trkpt lat="43.458478121351725" lon="10.61148831218853"><ele>437.00000000000006</ele><time>2026-04-19T10:30:26.001Z</time></trkpt><trkpt lat="43.45840946075625" lon="10.61158348366367"><ele>437.00000000000006</ele><time>2026-04-19T10:30:28.001Z</time></trkpt><trkpt lat="43.458325716446716" lon="10.61169215038228"><ele>437.0</ele><time>2026-04-19T10:30:30.001Z</time></trkpt><trkpt lat="43.45823858850381" lon="10.611736509653666"><ele>437.0</ele><time>2026-04-19T10:30:32.001Z</time></trkpt><trkpt lat="43.458157724292555" lon="10.611828527688328"><ele>436.99999999999994</ele><time>2026-04-19T10:30:34.001Z</time></trkpt><trkpt lat="43.45813837601075" lon="10.611911231006708"><ele>437.0</ele><time>2026-04-19T10:30:35.001Z</time></trkpt><trkpt lat="43.45813060715176" lon="10.611998275452576"><ele>437.0</ele><time>2026-04-19T10:30:36.001Z</time></trkpt><trkpt lat="43.45813582962029" lon="10.612093583542679"><ele>437.0</ele><time>2026-04-19T10:30:37.001Z</time></trkpt><trkpt lat="43.45813840614968" lon="10.612241529807628"><ele>436.99999999999994</ele><time>2026-04-19T10:30:39.001Z</time></trkpt><trkpt lat="43.45813220328724" lon="10.612379973245245"><ele>437.0</ele><time>2026-04-19T10:30:41.001Z</time></trkpt><trkpt lat="43.458106033654786" lon="10.612509653612799"><ele>435.40000000000003</ele><time>2026-04-19T10:30:43.001Z</time></trkpt><trkpt lat="43.45807665393316" lon="10.612638104212616"><ele>433.80000000000007</ele><time>2026-04-19T10:30:45.001Z</time></trkpt><trkpt lat="43.45804615575079" lon="10.612752397223169"><ele>432.2</ele><time>2026-04-19T10:30:47.001Z</time></trkpt><trkpt lat="43.457994555357054" lon="10.612866947782527"><ele>430.6</ele><time>2026-04-19T10:30:49.001Z</time></trkpt><trkpt lat="43.457901440472924" lon="10.61293650687576"><ele>429.0</ele><time>2026-04-19T10:30:51.001Z</time></trkpt><trkpt lat="43.45779837479521" lon="10.612971131527965"><ele>429.0</ele><time>2026-04-19T10:30:53.001Z</time></trkpt><trkpt lat="43.45770124238998" lon="10.613053608038568"><ele>429.0</ele><time>2026-04-19T10:30:55.001Z</time></trkpt><trkpt lat="43.45763344179143" lon="10.613155066468167"><ele>429.0</ele><time>2026-04-19T10:30:57.002Z</time></trkpt><trkpt lat="43.457553391503026" lon="10.613254923401374"><ele>429.0</ele><time>2026-04-19T10:30:59.002Z</time></trkpt><trkpt lat="43.45751919651696" lon="10.613403458363424"><ele>429.0</ele><time>2026-04-19T10:31:01.002Z</time></trkpt><trkpt lat="43.45748174968074" lon="10.61352744996842"><ele>429.0</ele><time>2026-04-19T10:31:03.002Z</time></trkpt><trkpt lat="43.45745626861885" lon="10.613651424136151"><ele>429.0</ele><time>2026-04-19T10:31:05.002Z</time></trkpt><trkpt lat="43.457441623338504" lon="10.613775756901969"><ele>429.0</ele><time>2026-04-19T10:31:07.001Z</time></trkpt><trkpt lat="43.45741869862385" lon="10.613917197270691"><ele>429.0</ele><time>2026-04-19T10:31:09.001Z</time></trkpt><trkpt lat="43.45740968163304" lon="10.614053925330822"><ele>429.0</ele><time>2026-04-19T10:31:11.001Z</time></trkpt><trkpt lat="43.457404848179195" lon="10.614203530357889"><ele>430.4</ele><time>2026-04-19T10:31:13.001Z</time></trkpt><trkpt lat="43.45740693737193" lon="10.614351993538612"><ele>431.79999999999995</ele><time>2026-04-19T10:31:15.001Z</time></trkpt><trkpt lat="43.45739434695043" lon="10.614506017586189"><ele>433.20000000000005</ele><time>2026-04-19T10:31:17.001Z</time></trkpt><trkpt lat="43.45739364974794" lon="10.614650723906102"><ele>434.6</ele><time>2026-04-19T10:31:19.001Z</time></trkpt><trkpt lat="43.457394971428506" lon="10.614775050106424"><ele>436.0</ele><time>2026-04-19T10:31:21.001Z</time></trkpt><trkpt lat="43.457397444121774" lon="10.614910172968331"><ele>436.0</ele><time>2026-04-19T10:31:23.001Z</time></trkpt><trkpt lat="43.45740429046275" lon="10.615050988046484"><ele>436.0</ele><time>2026-04-19T10:31:25.001Z</time></trkpt><trkpt lat="43.45741949773117" lon="10.615211358180776"><ele>436.0</ele><time>2026-04-19T10:31:27.001Z</time></trkpt><trkpt lat="43.45743682973614" lon="10.615302553597218"><ele>436.0</ele><time>2026-04-19T10:31:28.001Z</time></trkpt><trkpt lat="43.45747909933011" lon="10.615465640952099"><ele>436.0</ele><time>2026-04-19T10:31:30.001Z</time></trkpt><trkpt lat="43.45753676890019" lon="10.615616780960464"><ele>434.75</ele><time>2026-04-19T10:31:32.001Z</time></trkpt><trkpt lat="43.45759960313937" lon="10.615760163007016"><ele>433.5</ele><time>2026-04-19T10:31:34.001Z</time></trkpt><trkpt lat="43.45765856646373" lon="10.615895703823314"><ele>432.25</ele><time>2026-04-19T10:31:36.001Z</time></trkpt><trkpt lat="43.45771120765359" lon="10.616036318535416"><ele>431.0</ele><time>2026-04-19T10:31:38.001Z</time></trkpt><trkpt lat="43.45776428507117" lon="10.616184729590431"><ele>430.0</ele><time>2026-04-19T10:31:40.001Z</time></trkpt><trkpt lat="43.457804868543185" lon="10.616314091926908"><ele>429.0</ele><time>2026-04-19T10:31:42.001Z</time></trkpt><trkpt lat="43.45782641122707" lon="10.616440991430569"><ele>428.0</ele><time>2026-04-19T10:31:44.001Z</time></trkpt><trkpt lat="43.45782373070862" lon="10.616570762688177"><ele>427.0</ele><time>2026-04-19T10:31:46.001Z</time></trkpt><trkpt lat="43.457801175765596" lon="10.616713661467488"><ele>426.0</ele><time>2026-04-19T10:31:48.001Z</time></trkpt><trkpt lat="43.45778543104581" lon="10.61679813011591"><ele>426.0</ele><time>2026-04-19T10:31:49.001Z</time></trkpt><trkpt lat="43.4577713478805" lon="10.616882857151017"><ele>426.0</ele><time>2026-04-19T10:31:50.001Z</time></trkpt><trkpt lat="43.45775857015949" lon="10.61699524566715"><ele>426.0</ele><time>2026-04-19T10:31:51.001Z</time></trkpt><trkpt lat="43.45775585129589" lon="10.617104134214147"><ele>426.0</ele><time>2026-04-19T10:31:52.001Z</time></trkpt><trkpt lat="43.45775785256005" lon="10.617275096052381"><ele>426.0</ele><time>2026-04-19T10:31:54.001Z</time></trkpt><trkpt lat="43.45777045035394" lon="10.617456397628548"><ele>426.25</ele><time>2026-04-19T10:31:56.001Z</time></trkpt><trkpt lat="43.457794140567245" lon="10.617615108204447"><ele>426.5</ele><time>2026-04-19T10:31:58.001Z</time></trkpt><trkpt lat="43.45783032312102" lon="10.617758669403912"><ele>426.75</ele><time>2026-04-19T10:32:00.001Z</time></trkpt><trkpt lat="43.45788019029848" lon="10.617912238506296"><ele>427.0</ele><time>2026-04-19T10:32:02.001Z</time></trkpt><trkpt lat="43.45793573694291" lon="10.618063966651263"><ele>430.8</ele><time>2026-04-19T10:32:04.001Z</time></trkpt><trkpt lat="43.45799983466861" lon="10.618184824613783"><ele>434.6</ele><time>2026-04-19T10:32:06.001Z</time></trkpt><trkpt lat="43.45803925379951" lon="10.618306059635422"><ele>438.40000000000003</ele><time>2026-04-19T10:32:08.001Z</time></trkpt><trkpt lat="43.45808259388756" lon="10.61842657960221"><ele>442.20000000000005</ele><time>2026-04-19T10:32:10.001Z</time></trkpt><trkpt lat="43.45814179846246" lon="10.618567933681964"><ele>446.0</ele><time>2026-04-19T10:32:12.001Z</time></trkpt><trkpt lat="43.45820143900578" lon="10.61870354452356"><ele>446.0</ele><time>2026-04-19T10:32:14.001Z</time></trkpt><trkpt lat="43.45823946337338" lon="10.618829485218304"><ele>446.0</ele><time>2026-04-19T10:32:16.001Z</time></trkpt><trkpt lat="43.45827145553533" lon="10.618942509048326"><ele>446.0</ele><time>2026-04-19T10:32:18.001Z</time></trkpt><trkpt lat="43.45826364569907" lon="10.619087841480388"><ele>446.0</ele><time>2026-04-19T10:32:20.001Z</time></trkpt><trkpt lat="43.458257378345394" lon="10.619192606576823"><ele>446.0</ele><time>2026-04-19T10:32:22.001Z</time></trkpt><trkpt lat="43.45824734336169" lon="10.619312310246455"><ele>446.0</ele><time>2026-04-19T10:32:24.001Z</time></trkpt><trkpt lat="43.45824250645661" lon="10.61946972808761"><ele>446.0</ele><time>2026-04-19T10:32:26.001Z</time></trkpt><trkpt lat="43.45823704305871" lon="10.619616600891897"><ele>446.0</ele><time>2026-04-19T10:32:28.001Z</time></trkpt><trkpt lat="43.45821254044801" lon="10.619763798950276"><ele>446.0</ele><time>2026-04-19T10:32:30.001Z</time></trkpt><trkpt lat="43.45817822552726" lon="10.619912701264584"><ele>446.0</ele><time>2026-04-19T10:32:32.001Z</time></trkpt><trkpt lat="43.45814929865838" lon="10.620056847519423"><ele>445.99999999999994</ele><time>2026-04-19T10:32:34.001Z</time></trkpt><trkpt lat="43.458128737559484" lon="10.620142532437743"><ele>446.0</ele><time>2026-04-19T10:32:35.001Z</time></trkpt><trkpt lat="43.4581053651096" lon="10.620300998446135"><ele>446.0</ele><time>2026-04-19T10:32:37.001Z</time></trkpt><trkpt lat="43.45811136815751" lon="10.620454394912533"><ele>446.0</ele><time>2026-04-19T10:32:39.001Z</time></trkpt><trkpt lat="43.45810681506585" lon="10.620551768639286"><ele>445.99999999999994</ele><time>2026-04-19T10:32:40.001Z</time></trkpt><trkpt lat="43.458118520335745" lon="10.620646563316635"><ele>446.0</ele><time>2026-04-19T10:32:41.001Z</time></trkpt><trkpt lat="43.4581346810256" lon="10.620735237047619"><ele>446.0</ele><time>2026-04-19T10:32:42.001Z</time></trkpt><trkpt lat="43.458153264273875" lon="10.620823122556029"><ele>446.0</ele><time>2026-04-19T10:32:43.001Z</time></trkpt><trkpt lat="43.45818641382341" lon="10.620909170433071"><ele>446.0</ele><time>2026-04-19T10:32:44.001Z</time></trkpt><trkpt lat="43.45819758400814" lon="10.620999610348445"><ele>446.0</ele><time>2026-04-19T10:32:45.001Z</time></trkpt><trkpt lat="43.45821951587625" lon="10.621082514588421"><ele>446.0</ele><time>2026-04-19T10:32:46.001Z</time></trkpt><trkpt lat="43.45824796643479" lon="10.621163567600275"><ele>446.0</ele><time>2026-04-19T10:32:47.001Z</time></trkpt><trkpt lat="43.458293815460486" lon="10.621297440260035"><ele>446.0</ele><time>2026-04-19T10:32:49.001Z</time></trkpt><trkpt lat="43.45832954998829" lon="10.62139553256374"><ele>443.8333333333333</ele><time>2026-04-19T10:32:51.001Z</time></trkpt><trkpt lat="43.45836846838079" lon="10.621491638371326"><ele>441.66666666666663</ele><time>2026-04-19T10:32:55.001Z</time></trkpt><trkpt lat="43.458409274520434" lon="10.621585642612125"><ele>439.5</ele><time>2026-04-19T10:32:58.001Z</time></trkpt><trkpt lat="43.458456339237074" lon="10.621681876739572"><ele>437.33333333333337</ele><time>2026-04-19T10:33:01.001Z</time></trkpt><trkpt lat="43.458511265876226" lon="10.62177544492965"><ele>435.1666666666667</ele><time>2026-04-19T10:33:04.001Z</time></trkpt><trkpt lat="43.45857293267851" lon="10.621866757937607"><ele>433.0</ele><time>2026-04-19T10:33:07.001Z</time></trkpt><trkpt lat="43.45863570971118" lon="10.621952186701462"><ele>434.6666666666667</ele><time>2026-04-19T10:33:10.001Z</time></trkpt><trkpt lat="43.45869941350611" lon="10.622032114010768"><ele>436.33333333333337</ele><time>2026-04-19T10:33:13.001Z</time></trkpt><trkpt lat="43.4587531827549" lon="10.622096783797456"><ele>438.0</ele><time>2026-04-19T10:33:16.001Z</time></trkpt><trkpt lat="43.45880352359409" lon="10.622157330179816"><ele>439.66666666666663</ele><time>2026-04-19T10:33:19.001Z</time></trkpt><trkpt lat="43.45885448305113" lon="10.622218895856589"><ele>441.3333333333333</ele><time>2026-04-19T10:33:22.001Z</time></trkpt><trkpt lat="43.45890946769359" lon="10.622292450980689"><ele>443.0</ele><time>2026-04-19T10:33:25.001Z</time></trkpt><trkpt lat="43.45899569070825" lon="10.622332073199644"><ele>442.99999999999994</ele><time>2026-04-19T10:33:28.001Z</time></trkpt><trkpt lat="43.45908057117416" lon="10.6223440668459"><ele>443.0</ele><time>2026-04-19T10:33:31.001Z</time></trkpt><trkpt lat="43.459164855642676" lon="10.62237701910625"><ele>443.0</ele><time>2026-04-19T10:33:34.001Z</time></trkpt><trkpt lat="43.4592461093576" lon="10.622394553817015"><ele>443.0</ele><time>2026-04-19T10:33:37.001Z</time></trkpt><trkpt lat="43.459338199882204" lon="10.622393399675424"><ele>442.99999999999994</ele><time>2026-04-19T10:33:40.001Z</time></trkpt><trkpt lat="43.45943393329099" lon="10.622411087030082"><ele>443.0</ele><time>2026-04-19T10:33:43.001Z</time></trkpt><trkpt lat="43.45952640810544" lon="10.62238244013411"><ele>442.99999999999994</ele><time>2026-04-19T10:33:46.001Z</time></trkpt><trkpt lat="43.459599943737565" lon="10.622374016169484"><ele>443.0</ele><time>2026-04-19T10:33:48.001Z</time></trkpt><trkpt lat="43.45966261479807" lon="10.622314620366208"><ele>443.0</ele><time>2026-04-19T10:33:50.001Z</time></trkpt><trkpt lat="43.45971188777243" lon="10.622237908831082"><ele>443.0</ele><time>2026-04-19T10:33:52.001Z</time></trkpt><trkpt lat="43.459760233081774" lon="10.622136112297813"><ele>442.99999999999994</ele><time>2026-04-19T10:33:55.001Z</time></trkpt><trkpt lat="43.459801000012796" lon="10.622040401067576"><ele>443.0</ele><time>2026-04-19T10:33:58.001Z</time></trkpt><trkpt lat="43.459840385818985" lon="10.621945831187897"><ele>445.3333333333333</ele><time>2026-04-19T10:34:01.001Z</time></trkpt><trkpt lat="43.4598791254407" lon="10.621853573160312"><ele>447.66666666666663</ele><time>2026-04-19T10:34:04.001Z</time></trkpt><trkpt lat="43.45990929861289" lon="10.62177710245713"><ele>450.0</ele><time>2026-04-19T10:34:06.001Z</time></trkpt><trkpt lat="43.459949984497804" lon="10.621668648250974"><ele>452.33333333333337</ele><time>2026-04-19T10:34:09.001Z</time></trkpt><trkpt lat="43.45999177220372" lon="10.6215547212085"><ele>454.6666666666667</ele><time>2026-04-19T10:34:12.001Z</time></trkpt><trkpt lat="43.46003722987691" lon="10.621433898861588"><ele>457.0</ele><time>2026-04-19T10:34:15.001Z</time></trkpt><trkpt lat="43.46007101012709" lon="10.621348958035862"><ele>457.00000000000006</ele><time>2026-04-19T10:34:17.001Z</time></trkpt><trkpt lat="43.4601119209635" lon="10.621246103782743"><ele>457.0</ele><time>2026-04-19T10:34:20.001Z</time></trkpt><trkpt lat="43.46014896300968" lon="10.62114670292631"><ele>457.0</ele><time>2026-04-19T10:34:23.001Z</time></trkpt><trkpt lat="43.46017851393685" lon="10.621057202128394"><ele>457.0</ele><time>2026-04-19T10:34:26.001Z</time></trkpt><trkpt lat="43.46019134978888" lon="10.620961788672963"><ele>457.00000000000006</ele><time>2026-04-19T10:34:28.001Z</time></trkpt><trkpt lat="43.46021839231956" lon="10.620881343952604"><ele>457.0</ele><time>2026-04-19T10:34:30.001Z</time></trkpt><trkpt lat="43.46024977482025" lon="10.620773151530551"><ele>459.83333333333337</ele><time>2026-04-19T10:34:33.001Z</time></trkpt><trkpt lat="43.46027058230968" lon="10.62066758165664"><ele>462.6666666666667</ele><time>2026-04-19T10:34:36.001Z</time></trkpt><trkpt lat="43.46029627528933" lon="10.620566468516303"><ele>465.5</ele><time>2026-04-19T10:34:39.001Z</time></trkpt><trkpt lat="43.46033594843078" lon="10.620449873675351"><ele>468.33333333333337</ele><time>2026-04-19T10:34:41.001Z</time></trkpt><trkpt lat="43.46036735446911" lon="10.620358602970166"><ele>471.1666666666667</ele><time>2026-04-19T10:34:43.001Z</time></trkpt><trkpt lat="43.46039727228549" lon="10.620278692022644"><ele>474.0</ele><time>2026-04-19T10:34:45.001Z</time></trkpt><trkpt lat="43.46042962467356" lon="10.62016026371917"><ele>472.8571428571428</ele><time>2026-04-19T10:34:48.001Z</time></trkpt><trkpt lat="43.46046220056567" lon="10.620054295873818"><ele>471.71428571428567</ele><time>2026-04-19T10:34:51.001Z</time></trkpt><trkpt lat="43.46048245527871" lon="10.619929370870619"><ele>470.57142857142856</ele><time>2026-04-19T10:34:54.001Z</time></trkpt><trkpt lat="43.46049364269175" lon="10.619840495301405"><ele>469.4285714285714</ele><time>2026-04-19T10:34:56.001Z</time></trkpt><trkpt lat="43.460508143325725" lon="10.619748237151608"><ele>468.2857142857142</ele><time>2026-04-19T10:34:58.001Z</time></trkpt><trkpt lat="43.460517705784746" lon="10.619656516273649"><ele>467.14285714285717</ele><time>2026-04-19T10:35:00.001Z</time></trkpt><trkpt lat="43.460532803597694" lon="10.619563030815494"><ele>466.0</ele><time>2026-04-19T10:35:02.001Z</time></trkpt><trkpt lat="43.46054516453817" lon="10.61946998316086"><ele>466.00000000000006</ele><time>2026-04-19T10:35:04.001Z</time></trkpt><trkpt lat="43.46058598710909" lon="10.61938340440193"><ele>466.0</ele><time>2026-04-19T10:35:06.001Z</time></trkpt><trkpt lat="43.46063252392138" lon="10.619306784967314"><ele>466.0</ele><time>2026-04-19T10:35:08.001Z</time></trkpt><trkpt lat="43.46068080212656" lon="10.61924150019676"><ele>466.0</ele><time>2026-04-19T10:35:10.001Z</time></trkpt><trkpt lat="43.460730598242705" lon="10.619176793684389"><ele>466.00000000000006</ele><time>2026-04-19T10:35:12.001Z</time></trkpt><trkpt lat="43.46079730175629" lon="10.61909183833906"><ele>466.0</ele><time>2026-04-19T10:35:15.001Z</time></trkpt><trkpt lat="43.460849541507834" lon="10.619015166030977"><ele>466.00000000000006</ele><time>2026-04-19T10:35:17.001Z</time></trkpt><trkpt lat="43.46089165883488" lon="10.618942311118499"><ele>466.0</ele><time>2026-04-19T10:35:19.001Z</time></trkpt><trkpt lat="43.46094696081495" lon="10.618888418188797"><ele>466.0</ele><time>2026-04-19T10:35:21.001Z</time></trkpt><trkpt lat="43.46099897380507" lon="10.618799985693574"><ele>466.0</ele><time>2026-04-19T10:35:23.001Z</time></trkpt><trkpt lat="43.46104437952759" lon="10.618698069434751"><ele>466.00000000000006</ele><time>2026-04-19T10:35:25.001Z</time></trkpt><trkpt lat="43.461084074044464" lon="10.61857107843953"><ele>466.0</ele><time>2026-04-19T10:35:27.001Z</time></trkpt><trkpt lat="43.46111563497536" lon="10.61841082046854"><ele>468.6666666666667</ele><time>2026-04-19T10:35:29.001Z</time></trkpt><trkpt lat="43.461126223322935" lon="10.618317620574675"><ele>471.33333333333337</ele><time>2026-04-19T10:35:30.001Z</time></trkpt><trkpt lat="43.46113286444477" lon="10.618230730959674"><ele>474.0</ele><time>2026-04-19T10:35:31.001Z</time></trkpt><trkpt lat="43.461140673598976" lon="10.61808881549355"><ele>476.66666666666663</ele><time>2026-04-19T10:35:33.001Z</time></trkpt><trkpt lat="43.461146032930976" lon="10.617943256680613"><ele>479.3333333333333</ele><time>2026-04-19T10:35:35.001Z</time></trkpt><trkpt lat="43.46113335018029" lon="10.617822119204245"><ele>482.0</ele><time>2026-04-19T10:35:37.001Z</time></trkpt><trkpt lat="43.46114114321865" lon="10.617702201019338"><ele>483.16666666666663</ele><time>2026-04-19T10:35:40.001Z</time></trkpt><trkpt lat="43.4611825636217" lon="10.617607394548564"><ele>484.3333333333333</ele><time>2026-04-19T10:35:42.001Z</time></trkpt><trkpt lat="43.461250603259934" lon="10.617478454392792"><ele>485.5</ele><time>2026-04-19T10:35:44.001Z</time></trkpt><trkpt lat="43.4613010634238" lon="10.617422452022693"><ele>486.66666666666663</ele><time>2026-04-19T10:35:45.001Z</time></trkpt><trkpt lat="43.46136403505854" lon="10.617357422713711"><ele>487.8333333333333</ele><time>2026-04-19T10:35:46.001Z</time></trkpt><trkpt lat="43.461452296193684" lon="10.617269159297804"><ele>489.0</ele><time>2026-04-19T10:35:48.001Z</time></trkpt><trkpt lat="43.461528415994024" lon="10.617211787163267"><ele>485.2</ele><time>2026-04-19T10:35:50.001Z</time></trkpt><trkpt lat="43.46159687115993" lon="10.61710452749486"><ele>481.4</ele><time>2026-04-19T10:35:52.001Z</time></trkpt><trkpt lat="43.46162891457791" lon="10.617023378870284"><ele>477.6</ele><time>2026-04-19T10:35:53.001Z</time></trkpt><trkpt lat="43.46165260901586" lon="10.616940687709343"><ele>473.8</ele><time>2026-04-19T10:35:54.001Z</time></trkpt><trkpt lat="43.461691963893706" lon="10.616799430519482"><ele>470.0</ele><time>2026-04-19T10:35:56.001Z</time></trkpt><trkpt lat="43.46174027484993" lon="10.616671012250649"><ele>469.99999999999994</ele><time>2026-04-19T10:35:58.001Z</time></trkpt><trkpt lat="43.46178553723258" lon="10.616571687687195"><ele>470.0</ele><time>2026-04-19T10:36:00.001Z</time></trkpt><trkpt lat="43.461837441744215" lon="10.616468268778586"><ele>470.0</ele><time>2026-04-19T10:36:02.001Z</time></trkpt><trkpt lat="43.46188654781155" lon="10.61638069737997"><ele>470.0</ele><time>2026-04-19T10:36:04.001Z</time></trkpt><trkpt lat="43.46194835593298" lon="10.616286299595455"><ele>469.99999999999994</ele><time>2026-04-19T10:36:06.001Z</time></trkpt><trkpt lat="43.46200446695444" lon="10.616224465469244"><ele>470.0</ele><time>2026-04-19T10:36:08.001Z</time></trkpt><trkpt lat="43.46207757917568" lon="10.61616516435871"><ele>468.6</ele><time>2026-04-19T10:36:10.001Z</time></trkpt><trkpt lat="43.462146576972934" lon="10.61613106920445"><ele>467.2</ele><time>2026-04-19T10:36:12.001Z</time></trkpt><trkpt lat="43.462228151831674" lon="10.61620341087631"><ele>465.79999999999995</ele><time>2026-04-19T10:36:14.001Z</time></trkpt><trkpt lat="43.46229267229292" lon="10.616292560547452"><ele>464.4</ele><time>2026-04-19T10:36:16.001Z</time></trkpt><trkpt lat="43.462359290117774" lon="10.616408885212108"><ele>463.0</ele><time>2026-04-19T10:36:18.001Z</time></trkpt><trkpt lat="43.462435375865" lon="10.616544690728546"><ele>463.00000000000006</ele><time>2026-04-19T10:36:20.001Z</time></trkpt><trkpt lat="43.462479028249675" lon="10.61662807078791"><ele>463.0</ele><time>2026-04-19T10:36:21.001Z</time></trkpt><trkpt lat="43.4625244690647" lon="10.616713989095864"><ele>463.0</ele><time>2026-04-19T10:36:22.001Z</time></trkpt><trkpt lat="43.46256521138076" lon="10.616787835503128"><ele>463.0</ele><time>2026-04-19T10:36:23.001Z</time></trkpt><trkpt lat="43.46266246503217" lon="10.616859706234846"><ele>463.00000000000006</ele><time>2026-04-19T10:36:25.001Z</time></trkpt><trkpt lat="43.46275862398539" lon="10.61692240912161"><ele>463.0</ele><time>2026-04-19T10:36:27.001Z</time></trkpt><trkpt lat="43.462874672858156" lon="10.616903043225818"><ele>462.79999999999995</ele><time>2026-04-19T10:36:29.001Z</time></trkpt><trkpt lat="43.46297035845525" lon="10.616852607921974"><ele>462.59999999999997</ele><time>2026-04-19T10:36:31.001Z</time></trkpt><trkpt lat="43.463058432442885" lon="10.61678008475757"><ele>462.40000000000003</ele><time>2026-04-19T10:36:33.001Z</time></trkpt><trkpt lat="43.46312707424238" lon="10.616697361872419"><ele>462.20000000000005</ele><time>2026-04-19T10:36:35.001Z</time></trkpt><trkpt lat="43.46319674140953" lon="10.616616571597252"><ele>462.0</ele><time>2026-04-19T10:36:37.001Z</time></trkpt><trkpt lat="43.463249431517006" lon="10.61649521906682"><ele>462.0</ele><time>2026-04-19T10:36:39.001Z</time></trkpt><trkpt lat="43.46327182050916" lon="10.616406652323352"><ele>462.0</ele><time>2026-04-19T10:36:40.001Z</time></trkpt><trkpt lat="43.46328692287874" lon="10.616294255335733"><ele>462.0</ele><time>2026-04-19T10:36:41.001Z</time></trkpt><trkpt lat="43.46328637170796" lon="10.616167854341361"><ele>462.0</ele><time>2026-04-19T10:36:42.001Z</time></trkpt><trkpt lat="43.463278844724215" lon="10.616027761569878"><ele>462.0</ele><time>2026-04-19T10:36:43.001Z</time></trkpt><trkpt lat="43.4632710190274" lon="10.61590415947665"><ele>462.0</ele><time>2026-04-19T10:36:44.001Z</time></trkpt><trkpt lat="43.46326418605506" lon="10.615793536258183"><ele>463.8333333333333</ele><time>2026-04-19T10:36:45.001Z</time></trkpt><trkpt lat="43.463260025201016" lon="10.61567859696756"><ele>465.66666666666663</ele><time>2026-04-19T10:36:46.001Z</time></trkpt><trkpt lat="43.46325584039345" lon="10.615562996160962"><ele>467.5</ele><time>2026-04-19T10:36:47.001Z</time></trkpt><trkpt lat="43.46325210913874" lon="10.615454925206075"><ele>469.3333333333333</ele><time>2026-04-19T10:36:48.001Z</time></trkpt><trkpt lat="43.463249363718404" lon="10.615357130784803"><ele>471.16666666666663</ele><time>2026-04-19T10:36:49.001Z</time></trkpt><trkpt lat="43.4632611195111" lon="10.615228014072992"><ele>473.0</ele><time>2026-04-19T10:36:51.001Z</time></trkpt><trkpt lat="43.4633397216533" lon="10.615184458091525"><ele>473.0</ele><time>2026-04-19T10:36:54.001Z</time></trkpt><trkpt lat="43.46342573166978" lon="10.61531109524435"><ele>472.99999999999994</ele><time>2026-04-19T10:36:56.001Z</time></trkpt><trkpt lat="43.463467510340934" lon="10.615382306064486"><ele>472.99999999999994</ele><time>2026-04-19T10:36:57.001Z</time></trkpt><trkpt lat="43.46354168809403" lon="10.615500688455814"><ele>473.0</ele><time>2026-04-19T10:36:59.001Z</time></trkpt><trkpt lat="43.463598534261784" lon="10.615613588663248"><ele>473.0</ele><time>2026-04-19T10:37:01.001Z</time></trkpt><trkpt lat="43.46365239337746" lon="10.615710278503679"><ele>473.0</ele><time>2026-04-19T10:37:03.001Z</time></trkpt><trkpt lat="43.46371225615163" lon="10.61579926583717"><ele>472.99999999999994</ele><time>2026-04-19T10:37:05.001Z</time></trkpt><trkpt lat="43.46376033209753" lon="10.615925240368368"><ele>472.99999999999994</ele><time>2026-04-19T10:37:07.001Z</time></trkpt><trkpt lat="43.46381485173932" lon="10.616070672854027"><ele>473.0</ele><time>2026-04-19T10:37:09.001Z</time></trkpt><trkpt lat="43.46386306769305" lon="10.61620349334406"><ele>473.0</ele><time>2026-04-19T10:37:11.001Z</time></trkpt><trkpt lat="43.463910543233176" lon="10.616335098620684"><ele>470.3333333333333</ele><time>2026-04-19T10:37:13.001Z</time></trkpt><trkpt lat="43.46395813528525" lon="10.616458620522204"><ele>467.66666666666663</ele><time>2026-04-19T10:37:15.001Z</time></trkpt><trkpt lat="43.46399826590526" lon="10.616573673749686"><ele>465.0</ele><time>2026-04-19T10:37:17.001Z</time></trkpt><trkpt lat="43.464027558765785" lon="10.616668132987867"><ele>462.33333333333337</ele><time>2026-04-19T10:37:19.001Z</time></trkpt><trkpt lat="43.46405628182262" lon="10.616757744111387"><ele>459.6666666666667</ele><time>2026-04-19T10:37:21.001Z</time></trkpt><trkpt lat="43.464121214595295" lon="10.616797431900423"><ele>457.0</ele><time>2026-04-19T10:37:24Z</time></trkpt><trkpt lat="43.46418895028016" lon="10.616733711978494"><ele>457.00000000000006</ele><time>2026-04-19T10:40:20Z</time></trkpt><trkpt lat="43.46423855133134" lon="10.616672610497277"><ele>457.0</ele><time>2026-04-19T10:40:22Z</time></trkpt><trkpt lat="43.46427533943153" lon="10.616599070436607"><ele>457.0</ele><time>2026-04-19T10:40:24Z</time></trkpt><trkpt lat="43.46430114148415" lon="10.616489178278554"><ele>457.0</ele><time>2026-04-19T10:40:27Z</time></trkpt><trkpt lat="43.46433289710803" lon="10.616376421375636"><ele>457.00000000000006</ele><time>2026-04-19T10:40:30Z</time></trkpt><trkpt lat="43.46438081423889" lon="10.616280600406736"><ele>457.0</ele><time>2026-04-19T10:40:33Z</time></trkpt><trkpt lat="43.46441241728514" lon="10.616191079043464"><ele>455.1666666666667</ele><time>2026-04-19T10:40:36Z</time></trkpt><trkpt lat="43.464443982979255" lon="10.616097010655265"><ele>453.33333333333337</ele><time>2026-04-19T10:40:51Z</time></trkpt><trkpt lat="43.46450126055335" lon="10.616024720803168"><ele>451.5</ele><time>2026-04-19T10:40:55Z</time></trkpt><trkpt lat="43.46453545208363" lon="10.615934981035227"><ele>449.66666666666663</ele><time>2026-04-19T10:40:58Z</time></trkpt><trkpt lat="43.46459626606849" lon="10.615836721517725"><ele>447.8333333333333</ele><time>2026-04-19T10:41:01Z</time></trkpt><trkpt lat="43.46462210814177" lon="10.615740531250154"><ele>446.0</ele><time>2026-04-19T10:41:03Z</time></trkpt><trkpt lat="43.46466139745957" lon="10.615653707323936"><ele>445.99999999999994</ele><time>2026-04-19T10:41:05Z</time></trkpt><trkpt lat="43.46470627125266" lon="10.615558963341973"><ele>446.0</ele><time>2026-04-19T10:41:07Z</time></trkpt><trkpt lat="43.46474766115661" lon="10.615472734555297"><ele>446.0</ele><time>2026-04-19T10:41:09Z</time></trkpt><trkpt lat="43.46480170644564" lon="10.615368080411356"><ele>446.0</ele><time>2026-04-19T10:41:12Z</time></trkpt><trkpt lat="43.464850994400365" lon="10.615295483559557"><ele>445.99999999999994</ele><time>2026-04-19T10:41:14Z</time></trkpt><trkpt lat="43.46488478734427" lon="10.61521330865613"><ele>446.0</ele><time>2026-04-19T10:41:16Z</time></trkpt><trkpt lat="43.46492814071512" lon="10.615114240577029"><ele>449.49999999999994</ele><time>2026-04-19T10:41:19Z</time></trkpt><trkpt lat="43.464988438960056" lon="10.615029077757503"><ele>453.0</ele><time>2026-04-19T10:41:22Z</time></trkpt><trkpt lat="43.46504443035606" lon="10.614965344605414"><ele>456.5</ele><time>2026-04-19T10:41:24Z</time></trkpt><trkpt lat="43.46511019846475" lon="10.614871580181031"><ele>460.0</ele><time>2026-04-19T10:41:27Z</time></trkpt><trkpt lat="43.46516120496328" lon="10.614799592293988"><ele>463.49999999999994</ele><time>2026-04-19T10:41:29Z</time></trkpt><trkpt lat="43.465206002452405" lon="10.614723486898153"><ele>467.0</ele><time>2026-04-19T10:41:31Z</time></trkpt><trkpt lat="43.46525019242128" lon="10.614649584384228"><ele>466.99999999999994</ele><time>2026-04-19T10:41:33Z</time></trkpt><trkpt lat="43.465290433611074" lon="10.614572197588275"><ele>467.0</ele><time>2026-04-19T10:41:35Z</time></trkpt><trkpt lat="43.46532704497292" lon="10.614493704799191"><ele>467.0</ele><time>2026-04-19T10:41:37Z</time></trkpt><trkpt lat="43.46536798695429" lon="10.614415138914074"><ele>467.0</ele><time>2026-04-19T10:41:39Z</time></trkpt><trkpt lat="43.4654315752491" lon="10.61432266553889"><ele>466.99999999999994</ele><time>2026-04-19T10:41:42Z</time></trkpt><trkpt lat="43.46549573242841" lon="10.614254007938676"><ele>467.0</ele><time>2026-04-19T10:41:45Z</time></trkpt><trkpt lat="43.46555296642074" lon="10.614173140404247"><ele>464.3333333333333</ele><time>2026-04-19T10:41:48Z</time></trkpt><trkpt lat="43.46559623481163" lon="10.614108615691801"><ele>461.66666666666663</ele><time>2026-04-19T10:41:50Z</time></trkpt><trkpt lat="43.46564586361796" lon="10.614025586169081"><ele>459.0</ele><time>2026-04-19T10:41:52Z</time></trkpt><trkpt lat="43.465691599403236" lon="10.613951056897864"><ele>456.33333333333337</ele><time>2026-04-19T10:41:54Z</time></trkpt><trkpt lat="43.46574913085675" lon="10.613869776968162"><ele>453.6666666666667</ele><time>2026-04-19T10:41:56Z</time></trkpt><trkpt lat="43.46579752983711" lon="10.61379390669364"><ele>451.0</ele><time>2026-04-19T10:41:58Z</time></trkpt><trkpt lat="43.465868149249296" lon="10.613723312093038"><ele>454.1666666666667</ele><time>2026-04-19T10:42:01Z</time></trkpt><trkpt lat="43.46591794768026" lon="10.613654182370933"><ele>457.33333333333337</ele><time>2026-04-19T10:42:03Z</time></trkpt><trkpt lat="43.465965241358404" lon="10.613596522782268"><ele>460.5</ele><time>2026-04-19T10:42:05Z</time></trkpt><trkpt lat="43.466030129893326" lon="10.613524202208298"><ele>463.66666666666663</ele><time>2026-04-19T10:42:08Z</time></trkpt><trkpt lat="43.466130090879844" lon="10.613488960151447"><ele>466.8333333333333</ele><time>2026-04-19T10:42:10Z</time></trkpt><trkpt lat="43.46618658793919" lon="10.613530214690096"><ele>470.0</ele><time>2026-04-19T10:42:11Z</time></trkpt><trkpt lat="43.466209723609815" lon="10.613633098107458"><ele>466.2</ele><time>2026-04-19T10:42:12Z</time></trkpt><trkpt lat="43.466228495157196" lon="10.61371908885796"><ele>462.4</ele><time>2026-04-19T10:42:13Z</time></trkpt><trkpt lat="43.46620069834007" lon="10.613892449855225"><ele>458.6</ele><time>2026-04-19T10:42:15Z</time></trkpt><trkpt lat="43.466172043471424" lon="10.613969963880665"><ele>454.8</ele><time>2026-04-19T10:42:16Z</time></trkpt><trkpt lat="43.46610445316017" lon="10.614069223936218"><ele>451.0</ele><time>2026-04-19T10:42:18Z</time></trkpt><trkpt lat="43.466055367920276" lon="10.61418837339486"><ele>451.0</ele><time>2026-04-19T10:42:20Z</time></trkpt><trkpt lat="43.46599560567636" lon="10.614301602992889"><ele>451.0</ele><time>2026-04-19T10:42:22Z</time></trkpt><trkpt lat="43.465935808648055" lon="10.614421217661102"><ele>451.0</ele><time>2026-04-19T10:42:24Z</time></trkpt><trkpt lat="43.46587528787974" lon="10.614544221994489"><ele>451.0</ele><time>2026-04-19T10:42:26Z</time></trkpt><trkpt lat="43.465815436563986" lon="10.614669770175617"><ele>451.0</ele><time>2026-04-19T10:42:28Z</time></trkpt><trkpt lat="43.4657804396626" lon="10.614799243741944"><ele>449.20000000000005</ele><time>2026-04-19T10:42:30Z</time></trkpt><trkpt lat="43.465773479288906" lon="10.614940671957807"><ele>447.40000000000003</ele><time>2026-04-19T10:42:32Z</time></trkpt><trkpt lat="43.46578385940687" lon="10.615079267554124"><ele>445.6</ele><time>2026-04-19T10:42:34Z</time></trkpt><trkpt lat="43.46577226597613" lon="10.615216753601937"><ele>443.8</ele><time>2026-04-19T10:42:36Z</time></trkpt><trkpt lat="43.46573671698369" lon="10.615332202156369"><ele>442.0</ele><time>2026-04-19T10:42:38Z</time></trkpt><trkpt lat="43.46569185366705" lon="10.6154191384897"><ele>441.83333333333337</ele><time>2026-04-19T10:42:40Z</time></trkpt><trkpt lat="43.465627928473616" lon="10.615504142030801"><ele>441.6666666666667</ele><time>2026-04-19T10:42:42Z</time></trkpt><trkpt lat="43.465551234380236" lon="10.615633440454175"><ele>441.5</ele><time>2026-04-19T10:42:44Z</time></trkpt><trkpt lat="43.465535320407994" lon="10.615725014171895"><ele>441.33333333333337</ele><time>2026-04-19T10:42:45Z</time></trkpt><trkpt lat="43.465532548912996" lon="10.615814008096319"><ele>441.1666666666667</ele><time>2026-04-19T10:42:46Z</time></trkpt><trkpt lat="43.4655465082371" lon="10.615905471536838"><ele>441.0</ele><time>2026-04-19T10:42:47Z</time></trkpt><trkpt lat="43.46557858503237" lon="10.616002069434739"><ele>441.0</ele><time>2026-04-19T10:42:48Z</time></trkpt><trkpt lat="43.46561106609137" lon="10.616111789390105"><ele>441.0</ele><time>2026-04-19T10:42:49Z</time></trkpt><trkpt lat="43.46565153458512" lon="10.616230801699752"><ele>441.0</ele><time>2026-04-19T10:42:50Z</time></trkpt><trkpt lat="43.46568618104864" lon="10.616350363909683"><ele>441.0</ele><time>2026-04-19T10:42:51Z</time></trkpt><trkpt lat="43.465714885436796" lon="10.616475015393291"><ele>441.0</ele><time>2026-04-19T10:42:52Z</time></trkpt><trkpt lat="43.465741002906306" lon="10.616603024020458"><ele>439.20000000000005</ele><time>2026-04-19T10:42:53Z</time></trkpt><trkpt lat="43.4657715326253" lon="10.616730986216567"><ele>437.40000000000003</ele><time>2026-04-19T10:42:54Z</time></trkpt><trkpt lat="43.46580526142072" lon="10.616858699818732"><ele>435.6</ele><time>2026-04-19T10:42:55Z</time></trkpt><trkpt lat="43.46584661784346" lon="10.616985754126839"><ele>433.8</ele><time>2026-04-19T10:42:56Z</time></trkpt><trkpt lat="43.465887849963686" lon="10.617107233747147"><ele>432.0</ele><time>2026-04-19T10:42:57Z</time></trkpt><trkpt lat="43.46593407857256" lon="10.617225511171737"><ele>429.0</ele><time>2026-04-19T10:42:58Z</time></trkpt><trkpt lat="43.46598063050356" lon="10.617334347882757"><ele>426.0</ele><time>2026-04-19T10:42:59Z</time></trkpt><trkpt lat="43.466028183201566" lon="10.617437816731508"><ele>423.0</ele><time>2026-04-19T10:43:00Z</time></trkpt><trkpt lat="43.46606929678651" lon="10.617542633976566"><ele>420.0</ele><time>2026-04-19T10:43:01Z</time></trkpt><trkpt lat="43.46610295283741" lon="10.61765082388888"><ele>417.0</ele><time>2026-04-19T10:43:02Z</time></trkpt><trkpt lat="43.46613112941173" lon="10.617760638825612"><ele>414.0</ele><time>2026-04-19T10:43:03Z</time></trkpt><trkpt lat="43.46616734664269" lon="10.617864995957094"><ele>415.8333333333333</ele><time>2026-04-19T10:43:04Z</time></trkpt><trkpt lat="43.466217819360565" lon="10.617959292615295"><ele>417.66666666666663</ele><time>2026-04-19T10:43:05Z</time></trkpt><trkpt lat="43.46627089798385" lon="10.618038783770684"><ele>419.5</ele><time>2026-04-19T10:43:06Z</time></trkpt><trkpt lat="43.46631472490978" lon="10.618104305574917"><ele>421.3333333333333</ele><time>2026-04-19T10:43:07Z</time></trkpt><trkpt lat="43.46636305658515" lon="10.618216705614085"><ele>423.16666666666663</ele><time>2026-04-19T10:43:09Z</time></trkpt><trkpt lat="43.46640511604866" lon="10.618324798119788"><ele>425.0</ele><time>2026-04-19T10:43:11Z</time></trkpt><trkpt lat="43.46646426351664" lon="10.618419604608398"><ele>425.0</ele><time>2026-04-19T10:43:13Z</time></trkpt><trkpt lat="43.46652344526464" lon="10.618493106403356"><ele>425.0</ele><time>2026-04-19T10:43:15Z</time></trkpt><trkpt lat="43.46659228249131" lon="10.618578275077628"><ele>425.0</ele><time>2026-04-19T10:43:17Z</time></trkpt><trkpt lat="43.46661673388731" lon="10.618707237311467"><ele>425.0</ele><time>2026-04-19T10:43:19Z</time></trkpt><trkpt lat="43.466637971260106" lon="10.618846845413357"><ele>425.0</ele><time>2026-04-19T10:43:21Z</time></trkpt><trkpt lat="43.466632720753886" lon="10.619022676644729"><ele>423.1428571428571</ele><time>2026-04-19T10:43:23Z</time></trkpt><trkpt lat="43.46663563502043" lon="10.619114948821462"><ele>421.2857142857143</ele><time>2026-04-19T10:43:24Z</time></trkpt><trkpt lat="43.466641791648044" lon="10.619206075336875"><ele>419.42857142857144</ele><time>2026-04-19T10:43:25Z</time></trkpt><trkpt lat="43.46665315322941" lon="10.619298478452885"><ele>417.57142857142856</ele><time>2026-04-19T10:43:26Z</time></trkpt><trkpt lat="43.46666881195123" lon="10.619390329175788"><ele>415.7142857142857</ele><time>2026-04-19T10:43:27Z</time></trkpt><trkpt lat="43.46668051754956" lon="10.61948651706779"><ele>413.85714285714283</ele><time>2026-04-19T10:43:28Z</time></trkpt><trkpt lat="43.46668286893525" lon="10.619587068096832"><ele>412.0</ele><time>2026-04-19T10:43:29Z</time></trkpt><trkpt lat="43.46667796156428" lon="10.619691515514603"><ele>411.00000000000006</ele><time>2026-04-19T10:43:30Z</time></trkpt><trkpt lat="43.46666777723573" lon="10.619795696635935"><ele>410.0</ele><time>2026-04-19T10:43:31Z</time></trkpt><trkpt lat="43.4666545600662" lon="10.61990251819463"><ele>409.0</ele><time>2026-04-19T10:43:32Z</time></trkpt><trkpt lat="43.466639861179864" lon="10.62000852784931"><ele>408.0</ele><time>2026-04-19T10:43:33Z</time></trkpt><trkpt lat="43.46662568619187" lon="10.620112072135063"><ele>407.00000000000006</ele><time>2026-04-19T10:43:34Z</time></trkpt><trkpt lat="43.466615805980545" lon="10.620210167216545"><ele>406.0</ele><time>2026-04-19T10:43:35Z</time></trkpt><trkpt lat="43.46660496042945" lon="10.62030356486864"><ele>404.20000000000005</ele><time>2026-04-19T10:43:36Z</time></trkpt><trkpt lat="43.46662095860763" lon="10.6203936389421"><ele>402.40000000000003</ele><time>2026-04-19T10:43:37Z</time></trkpt><trkpt lat="43.46665223178267" lon="10.620468985461866"><ele>400.6</ele><time>2026-04-19T10:43:38Z</time></trkpt><trkpt lat="43.466734896300714" lon="10.62059020977212"><ele>398.8</ele><time>2026-04-19T10:43:40Z</time></trkpt><trkpt lat="43.46680806372358" lon="10.620725896991674"><ele>397.0</ele><time>2026-04-19T10:43:42Z</time></trkpt><trkpt lat="43.46686322038941" lon="10.62085800171846"><ele>397.0</ele><time>2026-04-19T10:43:44Z</time></trkpt><trkpt lat="43.46687128926221" lon="10.62098659104873"><ele>397.0</ele><time>2026-04-19T10:43:46Z</time></trkpt><trkpt lat="43.46683173512428" lon="10.621131429714287"><ele>397.0</ele><time>2026-04-19T10:43:48Z</time></trkpt><trkpt lat="43.466757432385684" lon="10.621196613182653"><ele>397.0</ele><time>2026-04-19T10:43:50Z</time></trkpt><trkpt lat="43.46668314894029" lon="10.621293576381905"><ele>397.0</ele><time>2026-04-19T10:43:52Z</time></trkpt><trkpt lat="43.46660738305023" lon="10.62140403204752"><ele>398.00000000000006</ele><time>2026-04-19T10:43:54Z</time></trkpt><trkpt lat="43.466536135864956" lon="10.621542500551076"><ele>399.0</ele><time>2026-04-19T10:43:56Z</time></trkpt><trkpt lat="43.46649942361541" lon="10.621619146702475"><ele>400.0</ele><time>2026-04-19T10:43:57Z</time></trkpt><trkpt lat="43.466480024904484" lon="10.621702201436038"><ele>401.0</ele><time>2026-04-19T10:43:58Z</time></trkpt><trkpt lat="43.46646542335182" lon="10.62178991626315"><ele>402.00000000000006</ele><time>2026-04-19T10:43:59Z</time></trkpt><trkpt lat="43.46643996298376" lon="10.621957318170875"><ele>403.0</ele><time>2026-04-19T10:44:01Z</time></trkpt><trkpt lat="43.46642397338248" lon="10.62211754252972"><ele>405.0</ele><time>2026-04-19T10:44:03Z</time></trkpt><trkpt lat="43.46643348434044" lon="10.622277992203756"><ele>407.0</ele><time>2026-04-19T10:44:05Z</time></trkpt><trkpt lat="43.4664239740432" lon="10.622432682331967"><ele>409.0</ele><time>2026-04-19T10:44:07Z</time></trkpt><trkpt lat="43.46639971666773" lon="10.622577707936282"><ele>411.0</ele><time>2026-04-19T10:44:09Z</time></trkpt><trkpt lat="43.46635409983842" lon="10.622641692679236"><ele>413.0</ele><time>2026-04-19T10:44:10Z</time></trkpt><trkpt lat="43.46630165004431" lon="10.622707752227813"><ele>411.14285714285717</ele><time>2026-04-19T10:44:11Z</time></trkpt><trkpt lat="43.466247738331525" lon="10.622767985860296"><ele>409.2857142857143</ele><time>2026-04-19T10:44:12Z</time></trkpt><trkpt lat="43.466192874837006" lon="10.622824220762968"><ele>407.42857142857144</ele><time>2026-04-19T10:44:13Z</time></trkpt><trkpt lat="43.46613208044445" lon="10.622868198515857"><ele>405.57142857142856</ele><time>2026-04-19T10:44:14Z</time></trkpt><trkpt lat="43.46606775913914" lon="10.62287648078831"><ele>403.7142857142857</ele><time>2026-04-19T10:44:15Z</time></trkpt><trkpt lat="43.466001855771886" lon="10.622903094132726"><ele>401.8571428571429</ele><time>2026-04-19T10:44:16Z</time></trkpt><trkpt lat="43.465934467885894" lon="10.622914119381356"><ele>400.0</ele><time>2026-04-19T10:44:17Z</time></trkpt><trkpt lat="43.46586692733928" lon="10.622923872343003"><ele>400.00000000000006</ele><time>2026-04-19T10:44:18Z</time></trkpt><trkpt lat="43.46579963536508" lon="10.622935812695422"><ele>400.0</ele><time>2026-04-19T10:44:19Z</time></trkpt><trkpt lat="43.465730279493854" lon="10.622967017014783"><ele>400.0</ele><time>2026-04-19T10:44:20Z</time></trkpt><trkpt lat="43.46567174876101" lon="10.623012190668893"><ele>400.0</ele><time>2026-04-19T10:44:21Z</time></trkpt><trkpt lat="43.46562400439531" lon="10.623097904917849"><ele>400.0</ele><time>2026-04-19T10:44:22Z</time></trkpt><trkpt lat="43.46559284900145" lon="10.623180845674252"><ele>400.00000000000006</ele><time>2026-04-19T10:44:23Z</time></trkpt><trkpt lat="43.46556012312126" lon="10.623261587676156"><ele>400.0</ele><time>2026-04-19T10:44:24Z</time></trkpt><trkpt lat="43.46552931196467" lon="10.623343963592937"><ele>400.00000000000006</ele><time>2026-04-19T10:44:25Z</time></trkpt><trkpt lat="43.46549637692254" lon="10.62342300494932"><ele>400.0</ele><time>2026-04-19T10:44:26Z</time></trkpt><trkpt lat="43.465447823472275" lon="10.623486713629434"><ele>400.0</ele><time>2026-04-19T10:44:27Z</time></trkpt><trkpt lat="43.46541264052351" lon="10.623564835935795"><ele>400.0</ele><time>2026-04-19T10:44:28Z</time></trkpt><trkpt lat="43.465378790902065" lon="10.623641058024175"><ele>400.00000000000006</ele><time>2026-04-19T10:44:29Z</time></trkpt><trkpt lat="43.46531580732367" lon="10.623784952535612"><ele>400.0</ele><time>2026-04-19T10:44:31Z</time></trkpt><trkpt lat="43.46523938674421" lon="10.623916439249303"><ele>399.50000000000006</ele><time>2026-04-19T10:44:33Z</time></trkpt><trkpt lat="43.465213496298276" lon="10.623997484621533"><ele>399.0</ele><time>2026-04-19T10:44:34Z</time></trkpt><trkpt lat="43.465192465602144" lon="10.62408707418067"><ele>398.5</ele><time>2026-04-19T10:44:35Z</time></trkpt><trkpt lat="43.465143031728445" lon="10.624150740462051"><ele>398.0</ele><time>2026-04-19T10:44:36Z</time></trkpt><trkpt lat="43.46507238244178" lon="10.624292656893767"><ele>397.50000000000006</ele><time>2026-04-19T10:44:38Z</time></trkpt><trkpt lat="43.46500288903083" lon="10.624425944670238"><ele>397.0</ele><time>2026-04-19T10:44:40Z</time></trkpt><trkpt lat="43.46494454183029" lon="10.624571160981517"><ele>397.0</ele><time>2026-04-19T10:44:42Z</time></trkpt><trkpt lat="43.4648618035646" lon="10.62468188930416"><ele>397.0</ele><time>2026-04-19T10:44:44Z</time></trkpt><trkpt lat="43.46478289415106" lon="10.624795280210705"><ele>397.0</ele><time>2026-04-19T10:44:46Z</time></trkpt><trkpt lat="43.464716185899896" lon="10.624932136604238"><ele>397.0</ele><time>2026-04-19T10:44:48Z</time></trkpt><trkpt lat="43.46470930239356" lon="10.625090627386333"><ele>397.00000000000006</ele><time>2026-04-19T10:44:50Z</time></trkpt><trkpt lat="43.46474087128491" lon="10.625249400764385"><ele>397.0</ele><time>2026-04-19T10:44:52Z</time></trkpt><trkpt lat="43.46472733433102" lon="10.62541323308278"><ele>397.0</ele><time>2026-04-19T10:44:54Z</time></trkpt><trkpt lat="43.46469831858503" lon="10.625495240130444"><ele>397.0</ele><time>2026-04-19T10:44:55Z</time></trkpt><trkpt lat="43.46465199156827" lon="10.625566290250086"><ele>397.00000000000006</ele><time>2026-04-19T10:44:56Z</time></trkpt><trkpt lat="43.464605866744336" lon="10.625632592952194"><ele>397.0</ele><time>2026-04-19T10:44:57Z</time></trkpt><trkpt lat="43.464558677558436" lon="10.62569443650421"><ele>390.8</ele><time>2026-04-19T10:44:58Z</time></trkpt><trkpt lat="43.464478041159005" lon="10.625826582068195"><ele>384.6</ele><time>2026-04-19T10:45:00Z</time></trkpt><trkpt lat="43.46441619762904" lon="10.625975072365312"><ele>378.40000000000003</ele><time>2026-04-19T10:45:02Z</time></trkpt><trkpt lat="43.464392321796716" lon="10.626146281625275"><ele>372.20000000000005</ele><time>2026-04-19T10:45:04Z</time></trkpt><trkpt lat="43.464389990614634" lon="10.626235102524703"><ele>366.0</ele><time>2026-04-19T10:45:05Z</time></trkpt><trkpt lat="43.464395213390226" lon="10.626404046104723"><ele>365.0</ele><time>2026-04-19T10:45:07Z</time></trkpt><trkpt lat="43.464420388362186" lon="10.62656354340294"><ele>364.0</ele><time>2026-04-19T10:45:09Z</time></trkpt><trkpt lat="43.46447801729002" lon="10.626706431876652"><ele>363.0</ele><time>2026-04-19T10:45:11Z</time></trkpt><trkpt lat="43.46455530048804" lon="10.626817059365981"><ele>362.0</ele><time>2026-04-19T10:45:13Z</time></trkpt><trkpt lat="43.46462964947737" lon="10.6269239887389"><ele>363.8</ele><time>2026-04-19T10:45:15Z</time></trkpt><trkpt lat="43.46472865938308" lon="10.626972129120185"><ele>365.6</ele><time>2026-04-19T10:45:17Z</time></trkpt><trkpt lat="43.46482666731009" lon="10.627014967605158"><ele>367.40000000000003</ele><time>2026-04-19T10:45:19Z</time></trkpt><trkpt lat="43.464926316523425" lon="10.627031740183213"><ele>369.20000000000005</ele><time>2026-04-19T10:45:21Z</time></trkpt><trkpt lat="43.46502714626642" lon="10.627049222779345"><ele>371.0</ele><time>2026-04-19T10:45:23Z</time></trkpt><trkpt lat="43.46513916489251" lon="10.62708186360409"><ele>371.0</ele><time>2026-04-19T10:45:25Z</time></trkpt><trkpt lat="43.46525348716721" lon="10.627112204081186"><ele>371.0</ele><time>2026-04-19T10:45:27Z</time></trkpt><trkpt lat="43.465363509756855" lon="10.627134638873489"><ele>371.0</ele><time>2026-04-19T10:45:29Z</time></trkpt><trkpt lat="43.46546016813405" lon="10.627187867487368"><ele>371.0</ele><time>2026-04-19T10:45:31Z</time></trkpt><trkpt lat="43.46550494090449" lon="10.627312238501796"><ele>371.0</ele><time>2026-04-19T10:45:33Z</time></trkpt><trkpt lat="43.4654630558809" lon="10.627461436542639"><ele>371.0</ele><time>2026-04-19T10:45:35Z</time></trkpt><trkpt lat="43.46537102388292" lon="10.62757300621866"><ele>371.0</ele><time>2026-04-19T10:45:37Z</time></trkpt><trkpt lat="43.46532151646368" lon="10.627641335246613"><ele>371.0</ele><time>2026-04-19T10:45:38Z</time></trkpt><trkpt lat="43.465266842948786" lon="10.627720952911481"><ele>371.0</ele><time>2026-04-19T10:45:39Z</time></trkpt><trkpt lat="43.46521820486099" lon="10.627801022194037"><ele>371.0</ele><time>2026-04-19T10:45:40Z</time></trkpt><trkpt lat="43.46517459463311" lon="10.627889819524974"><ele>371.0</ele><time>2026-04-19T10:45:41Z</time></trkpt><trkpt lat="43.46513548579186" lon="10.627981713342397"><ele>370.33333333333337</ele><time>2026-04-19T10:45:42Z</time></trkpt><trkpt lat="43.46508240394444" lon="10.628057616443867"><ele>369.6666666666667</ele><time>2026-04-19T10:45:43Z</time></trkpt><trkpt lat="43.46505305310381" lon="10.628152389882768"><ele>369.0</ele><time>2026-04-19T10:45:44Z</time></trkpt><trkpt lat="43.465008122159595" lon="10.628233510307277"><ele>368.3333333333333</ele><time>2026-04-19T10:45:45Z</time></trkpt><trkpt lat="43.464997536429024" lon="10.628339154677303"><ele>367.66666666666663</ele><time>2026-04-19T10:45:46Z</time></trkpt><trkpt lat="43.46503823861283" lon="10.628438753566225"><ele>367.0</ele><time>2026-04-19T10:45:47Z</time></trkpt><trkpt lat="43.46507222872832" lon="10.628524500507309"><ele>367.0</ele><time>2026-04-19T10:45:48Z</time></trkpt><trkpt lat="43.46511445398382" lon="10.628610261282187"><ele>367.0</ele><time>2026-04-19T10:45:49Z</time></trkpt><trkpt lat="43.465164027730644" lon="10.628693461381184"><ele>367.0</ele><time>2026-04-19T10:45:50Z</time></trkpt><trkpt lat="43.46521103108124" lon="10.628771522875947"><ele>367.0</ele><time>2026-04-19T10:45:51Z</time></trkpt><trkpt lat="43.46525587207936" lon="10.628846315915668"><ele>367.0</ele><time>2026-04-19T10:45:52Z</time></trkpt><trkpt lat="43.46529997671336" lon="10.628920245827445"><ele>367.0</ele><time>2026-04-19T10:45:53Z</time></trkpt><trkpt lat="43.46534636255728" lon="10.6289901027325"><ele>367.0</ele><time>2026-04-19T10:45:54Z</time></trkpt><trkpt lat="43.46539941395962" lon="10.629050223034195"><ele>366.7142857142857</ele><time>2026-04-19T10:45:55Z</time></trkpt><trkpt lat="43.465459344051126" lon="10.629102797773207"><ele>366.42857142857144</ele><time>2026-04-19T10:45:56Z</time></trkpt><trkpt lat="43.46552434788637" lon="10.629152537288784"><ele>366.14285714285717</ele><time>2026-04-19T10:45:57Z</time></trkpt><trkpt lat="43.46558889448607" lon="10.629206160932815"><ele>365.8571428571429</ele><time>2026-04-19T10:45:58Z</time></trkpt><trkpt lat="43.465647187565246" lon="10.629271655741217"><ele>365.57142857142856</ele><time>2026-04-19T10:45:59Z</time></trkpt><trkpt lat="43.465699890805396" lon="10.629346788604304"><ele>365.28571428571433</ele><time>2026-04-19T10:46:00Z</time></trkpt><trkpt lat="43.46574594727924" lon="10.629419320706349"><ele>365.0</ele><time>2026-04-19T10:46:01Z</time></trkpt><trkpt lat="43.46578901853935" lon="10.629489543471129"><ele>365.00000000000006</ele><time>2026-04-19T10:46:02Z</time></trkpt><trkpt lat="43.465835409423214" lon="10.62956135413231"><ele>365.0</ele><time>2026-04-19T10:46:03Z</time></trkpt><trkpt lat="43.46588280027167" lon="10.629635283609177"><ele>365.0</ele><time>2026-04-19T10:46:04Z</time></trkpt><trkpt lat="43.4659285167037" lon="10.62971114186031"><ele>365.0</ele><time>2026-04-19T10:46:05Z</time></trkpt><trkpt lat="43.46597199653844" lon="10.629786698706017"><ele>365.0</ele><time>2026-04-19T10:46:06Z</time></trkpt><trkpt lat="43.46600728285772" lon="10.629869440971941"><ele>365.00000000000006</ele><time>2026-04-19T10:46:07Z</time></trkpt><trkpt lat="43.46603223359109" lon="10.629956572203302"><ele>365.0</ele><time>2026-04-19T10:46:08Z</time></trkpt><trkpt lat="43.46604128717731" lon="10.630049304734175"><ele>365.0</ele><time>2026-04-19T10:46:09Z</time></trkpt><trkpt lat="43.46603262134318" lon="10.630217938748688"><ele>365.0</ele><time>2026-04-19T10:46:11Z</time></trkpt><trkpt lat="43.46601369902928" lon="10.630373168317085"><ele>365.0</ele><time>2026-04-19T10:46:13Z</time></trkpt><trkpt lat="43.466015064595304" lon="10.630523203240475"><ele>365.0</ele><time>2026-04-19T10:46:15Z</time></trkpt><trkpt lat="43.46603362798787" lon="10.630612810841072"><ele>365.0</ele><time>2026-04-19T10:46:17Z</time></trkpt><trkpt lat="43.466055295849806" lon="10.630696320730635"><ele>364.83333333333337</ele><time>2026-04-19T10:46:19Z</time></trkpt><trkpt lat="43.46609218677183" lon="10.630774701917293"><ele>364.6666666666667</ele><time>2026-04-19T10:46:21Z</time></trkpt><trkpt lat="43.46616439958696" lon="10.630887015862935"><ele>364.5</ele><time>2026-04-19T10:46:23Z</time></trkpt><trkpt lat="43.46622733664045" lon="10.63093174652272"><ele>364.3333333333333</ele><time>2026-04-19T10:46:24Z</time></trkpt><trkpt lat="43.466294066571464" lon="10.630963797737829"><ele>364.16666666666663</ele><time>2026-04-19T10:46:25Z</time></trkpt><trkpt lat="43.466369628109675" lon="10.630980659344734"><ele>364.0</ele><time>2026-04-19T10:46:26Z</time></trkpt><trkpt lat="43.46645163941185" lon="10.630977167431395"><ele>364.0</ele><time>2026-04-19T10:46:27Z</time></trkpt><trkpt lat="43.46653676992086" lon="10.630954861376226"><ele>364.0</ele><time>2026-04-19T10:46:28Z</time></trkpt><trkpt lat="43.466624617907804" lon="10.630921074884306"><ele>364.0</ele><time>2026-04-19T10:46:29Z</time></trkpt><trkpt lat="43.46671544799984" lon="10.63088296039017"><ele>364.0</ele><time>2026-04-19T10:46:30Z</time></trkpt><trkpt lat="43.466804816342496" lon="10.630845905374706"><ele>364.0</ele><time>2026-04-19T10:46:31Z</time></trkpt><trkpt lat="43.46690003488156" lon="10.630811450573336"><ele>364.0</ele><time>2026-04-19T10:46:32Z</time></trkpt><trkpt lat="43.466997632554566" lon="10.630791477048904"><ele>364.0</ele><time>2026-04-19T10:46:33Z</time></trkpt><trkpt lat="43.467098863863775" lon="10.63079039218381"><ele>364.0</ele><time>2026-04-19T10:46:34Z</time></trkpt><trkpt lat="43.46720215026606" lon="10.630820032198836"><ele>364.0</ele><time>2026-04-19T10:46:35Z</time></trkpt><trkpt lat="43.46730496951035" lon="10.630869832245155"><ele>364.0</ele><time>2026-04-19T10:46:36Z</time></trkpt><trkpt lat="43.46740702166328" lon="10.63092437597786"><ele>364.2</ele><time>2026-04-19T10:46:37Z</time></trkpt><trkpt lat="43.46751176890774" lon="10.630977309919148"><ele>364.4</ele><time>2026-04-19T10:46:38Z</time></trkpt><trkpt lat="43.4676157250592" lon="10.63102442385917"><ele>364.6</ele><time>2026-04-19T10:46:39Z</time></trkpt><trkpt lat="43.46771980263107" lon="10.631073620163937"><ele>364.8</ele><time>2026-04-19T10:46:40Z</time></trkpt><trkpt lat="43.467823433598646" lon="10.631128829809379"><ele>365.0</ele><time>2026-04-19T10:46:41Z</time></trkpt><trkpt lat="43.46792542193677" lon="10.631189084931668"><ele>364.8</ele><time>2026-04-19T10:46:42Z</time></trkpt><trkpt lat="43.46802757337506" lon="10.631242198370877"><ele>364.6</ele><time>2026-04-19T10:46:43Z</time></trkpt><trkpt lat="43.46812440567683" lon="10.631272801165712"><ele>364.4</ele><time>2026-04-19T10:46:44Z</time></trkpt><trkpt lat="43.46821630698931" lon="10.631268532676954"><ele>364.2</ele><time>2026-04-19T10:46:45Z</time></trkpt><trkpt lat="43.46830653134813" lon="10.631229068527384"><ele>364.0</ele><time>2026-04-19T10:46:46Z</time></trkpt><trkpt lat="43.46837932907605" lon="10.63113962582014"><ele>364.0</ele><time>2026-04-19T10:46:47Z</time></trkpt><trkpt lat="43.468432457498764" lon="10.631020247459253"><ele>364.0</ele><time>2026-04-19T10:46:48Z</time></trkpt><trkpt lat="43.46846462197272" lon="10.630877172448889"><ele>364.0</ele><time>2026-04-19T10:46:49Z</time></trkpt><trkpt lat="43.468491679627874" lon="10.630732068766141"><ele>364.0</ele><time>2026-04-19T10:46:50Z</time></trkpt><trkpt lat="43.46853371380734" lon="10.630593997344027"><ele>364.0</ele><time>2026-04-19T10:46:51Z</time></trkpt><trkpt lat="43.468563565679496" lon="10.630457907214103"><ele>364.0</ele><time>2026-04-19T10:46:52Z</time></trkpt><trkpt lat="43.46859649835185" lon="10.630331991034986"><ele>364.0</ele><time>2026-04-19T10:46:53Z</time></trkpt><trkpt lat="43.46863534919505" lon="10.630212961039279"><ele>364.0</ele><time>2026-04-19T10:46:54Z</time></trkpt><trkpt lat="43.46869151269541" lon="10.630106269644628"><ele>364.0</ele><time>2026-04-19T10:46:55Z</time></trkpt><trkpt lat="43.46876089751105" lon="10.630008467035275"><ele>364.0</ele><time>2026-04-19T10:46:56Z</time></trkpt><trkpt lat="43.468837923577716" lon="10.629906346935755"><ele>363.0</ele><time>2026-04-19T10:46:57Z</time></trkpt><trkpt lat="43.46894103439243" lon="10.629854558119128"><ele>362.0</ele><time>2026-04-19T10:46:58Z</time></trkpt><trkpt lat="43.469032870999726" lon="10.629785362223918"><ele>361.0</ele><time>2026-04-19T10:46:59Z</time></trkpt><trkpt lat="43.469120628603775" lon="10.629699798753698"><ele>360.0</ele><time>2026-04-19T10:47:00Z</time></trkpt><trkpt lat="43.46918712083059" lon="10.62961268383187"><ele>359.0</ele><time>2026-04-19T10:47:01Z</time></trkpt><trkpt lat="43.469256368259195" lon="10.629564878101752"><ele>359.0</ele><time>2026-04-19T10:47:02Z</time></trkpt><trkpt lat="43.46933453810445" lon="10.629558312735812"><ele>359.0</ele><time>2026-04-19T10:47:03Z</time></trkpt><trkpt lat="43.469400902263985" lon="10.629583840440823"><ele>359.0</ele><time>2026-04-19T10:47:04Z</time></trkpt><trkpt lat="43.469477646798666" lon="10.629715859831233"><ele>359.0</ele><time>2026-04-19T10:47:06Z</time></trkpt><trkpt lat="43.46947585404955" lon="10.629810271141316"><ele>359.0</ele><time>2026-04-19T10:47:07Z</time></trkpt><trkpt lat="43.4694609798361" lon="10.629901742449785"><ele>359.0</ele><time>2026-04-19T10:47:08Z</time></trkpt><trkpt lat="43.469439274922635" lon="10.629995363276521"><ele>359.0</ele><time>2026-04-19T10:47:09Z</time></trkpt><trkpt lat="43.469405755365614" lon="10.630087753075072"><ele>359.0</ele><time>2026-04-19T10:47:10Z</time></trkpt><trkpt lat="43.46936014240601" lon="10.630177083525707"><ele>359.0</ele><time>2026-04-19T10:47:11Z</time></trkpt><trkpt lat="43.46930153277838" lon="10.630256979842605"><ele>359.0</ele><time>2026-04-19T10:47:12Z</time></trkpt><trkpt lat="43.4692438941412" lon="10.630326473611344"><ele>359.0</ele><time>2026-04-19T10:47:13Z</time></trkpt><trkpt lat="43.46919619838091" lon="10.630401879197285"><ele>359.0</ele><time>2026-04-19T10:47:14Z</time></trkpt><trkpt lat="43.46916967066354" lon="10.630497679346346"><ele>357.33333333333337</ele><time>2026-04-19T10:47:15Z</time></trkpt><trkpt lat="43.469161832412134" lon="10.630599668716323"><ele>355.6666666666667</ele><time>2026-04-19T10:47:16Z</time></trkpt><trkpt lat="43.46916923003688" lon="10.630694937651809"><ele>354.0</ele><time>2026-04-19T10:47:17Z</time></trkpt><trkpt lat="43.469195197229205" lon="10.630791891735466"><ele>352.3333333333333</ele><time>2026-04-19T10:47:18Z</time></trkpt><trkpt lat="43.46923160307061" lon="10.630891063989852"><ele>350.66666666666663</ele><time>2026-04-19T10:47:19Z</time></trkpt><trkpt lat="43.46927218713222" lon="10.630995218854997"><ele>349.0</ele><time>2026-04-19T10:47:20Z</time></trkpt><trkpt lat="43.469310277632765" lon="10.631109643382874"><ele>347.3333333333333</ele><time>2026-04-19T10:47:21Z</time></trkpt><trkpt lat="43.46934187357365" lon="10.631220149287392"><ele>345.66666666666663</ele><time>2026-04-19T10:47:22Z</time></trkpt><trkpt lat="43.469356899107495" lon="10.63132567177984"><ele>344.0</ele><time>2026-04-19T10:47:23Z</time></trkpt><trkpt lat="43.46935876746097" lon="10.631426380366072"><ele>342.3333333333333</ele><time>2026-04-19T10:47:24Z</time></trkpt><trkpt lat="43.469352472057466" lon="10.631531234521661"><ele>340.6666666666667</ele><time>2026-04-19T10:47:25Z</time></trkpt><trkpt lat="43.46935134317005" lon="10.631641948202866"><ele>339.0</ele><time>2026-04-19T10:47:26Z</time></trkpt><trkpt lat="43.46936728792794" lon="10.631742780887656"><ele>339.0</ele><time>2026-04-19T10:47:27Z</time></trkpt><trkpt lat="43.469407760180005" lon="10.631828409618342"><ele>339.0</ele><time>2026-04-19T10:47:28Z</time></trkpt><trkpt lat="43.4694702251789" lon="10.631892554430422"><ele>339.0</ele><time>2026-04-19T10:47:29Z</time></trkpt><trkpt lat="43.469547676995475" lon="10.631924330643638"><ele>339.0</ele><time>2026-04-19T10:47:30Z</time></trkpt><trkpt lat="43.469631755922826" lon="10.631942607940502"><ele>339.0</ele><time>2026-04-19T10:47:31Z</time></trkpt><trkpt lat="43.46971701965896" lon="10.631964302835502"><ele>339.0</ele><time>2026-04-19T10:47:32Z</time></trkpt><trkpt lat="43.46980528420952" lon="10.632001795694741"><ele>341.4</ele><time>2026-04-19T10:47:33Z</time></trkpt><trkpt lat="43.46989155052884" lon="10.632062774551311"><ele>343.79999999999995</ele><time>2026-04-19T10:47:34Z</time></trkpt><trkpt lat="43.46997342415055" lon="10.632145497139247"><ele>346.20000000000005</ele><time>2026-04-19T10:47:35Z</time></trkpt><trkpt lat="43.4700495788701" lon="10.632240556958706"><ele>348.6</ele><time>2026-04-19T10:47:36Z</time></trkpt><trkpt lat="43.47012348089243" lon="10.632347391257243"><ele>351.0</ele><time>2026-04-19T10:47:37Z</time></trkpt><trkpt lat="43.4701983469334" lon="10.632457491950733"><ele>351.0</ele><time>2026-04-19T10:47:38Z</time></trkpt><trkpt lat="43.47028150483596" lon="10.632567809785899"><ele>351.0</ele><time>2026-04-19T10:47:39Z</time></trkpt><trkpt lat="43.470367212946584" lon="10.632678706303803"><ele>351.0</ele><time>2026-04-19T10:47:40Z</time></trkpt><trkpt lat="43.47045744172301" lon="10.632790082584078"><ele>351.0</ele><time>2026-04-19T10:47:41Z</time></trkpt><trkpt lat="43.47054860478465" lon="10.63290178117623"><ele>353.0</ele><time>2026-04-19T10:47:42Z</time></trkpt><trkpt lat="43.47063443799039" lon="10.633018893603882"><ele>355.0</ele><time>2026-04-19T10:47:43Z</time></trkpt><trkpt lat="43.470705448607866" lon="10.633152185315101"><ele>357.0</ele><time>2026-04-19T10:47:44Z</time></trkpt><trkpt lat="43.47076901825544" lon="10.633297053588535"><ele>359.0</ele><time>2026-04-19T10:47:45Z</time></trkpt><trkpt lat="43.47082819774349" lon="10.633450381483309"><ele>359.0</ele><time>2026-04-19T10:47:46Z</time></trkpt><trkpt lat="43.47088798340045" lon="10.633607324985741"><ele>359.0</ele><time>2026-04-19T10:47:47Z</time></trkpt><trkpt lat="43.47095071328782" lon="10.633768036587528"><ele>359.0</ele><time>2026-04-19T10:47:48Z</time></trkpt><trkpt lat="43.471013038292725" lon="10.63393141589041"><ele>359.0</ele><time>2026-04-19T10:47:49Z</time></trkpt><trkpt lat="43.47107344883755" lon="10.63409682408714"><ele>360.0</ele><time>2026-04-19T10:47:50Z</time></trkpt><trkpt lat="43.47113390658679" lon="10.634260092771566"><ele>361.0</ele><time>2026-04-19T10:47:51Z</time></trkpt><trkpt lat="43.47119439435569" lon="10.634418875368995"><ele>362.0</ele><time>2026-04-19T10:47:52Z</time></trkpt><trkpt lat="43.4712548126687" lon="10.634575815023135"><ele>363.0</ele><time>2026-04-19T10:47:53Z</time></trkpt><trkpt lat="43.47131077031212" lon="10.634726684447369"><ele>363.0</ele><time>2026-04-19T10:47:54Z</time></trkpt><trkpt lat="43.471366803369335" lon="10.634869400340492"><ele>363.0</ele><time>2026-04-19T10:47:55Z</time></trkpt><trkpt lat="43.4714181786749" lon="10.635006895728216"><ele>363.0</ele><time>2026-04-19T10:47:56Z</time></trkpt><trkpt lat="43.4714695904193" lon="10.635135373628392"><ele>363.0</ele><time>2026-04-19T10:47:57Z</time></trkpt><trkpt lat="43.471517863169595" lon="10.635260152473414"><ele>363.0</ele><time>2026-04-19T10:47:58Z</time></trkpt><trkpt lat="43.471564817839656" lon="10.635381031499984"><ele>362.5</ele><time>2026-04-19T10:47:59Z</time></trkpt><trkpt lat="43.471611750108416" lon="10.635493016104427"><ele>362.0</ele><time>2026-04-19T10:48:00Z</time></trkpt><trkpt lat="43.4716543054072" lon="10.635599743964118"><ele>361.5</ele><time>2026-04-19T10:48:01Z</time></trkpt><trkpt lat="43.47169331783747" lon="10.635699646630814"><ele>361.0</ele><time>2026-04-19T10:48:02Z</time></trkpt><trkpt lat="43.47173075791322" lon="10.635788409975895"><ele>360.5</ele><time>2026-04-19T10:48:03Z</time></trkpt><trkpt lat="43.47176684170922" lon="10.635866257557602"><ele>360.0</ele><time>2026-04-19T10:48:04Z</time></trkpt><trkpt lat="43.471848488903376" lon="10.635992228629076"><ele>360.0</ele><time>2026-04-19T10:48:06Z</time></trkpt><trkpt lat="43.471899117871274" lon="10.636046142021804"><ele>360.0</ele><time>2026-04-19T10:48:07Z</time></trkpt><trkpt lat="43.47196131526651" lon="10.636097705752537"><ele>360.0</ele><time>2026-04-19T10:48:08Z</time></trkpt><trkpt lat="43.47203015688412" lon="10.636139881583619"><ele>360.0</ele><time>2026-04-19T10:48:09Z</time></trkpt><trkpt lat="43.472107914599135" lon="10.636168536727725"><ele>360.0</ele><time>2026-04-19T10:48:10Z</time></trkpt><trkpt lat="43.47219050032716" lon="10.636180009455597"><ele>360.0</ele><time>2026-04-19T10:48:11Z</time></trkpt><trkpt lat="43.472274390149686" lon="10.636174009813692"><ele>360.3333333333333</ele><time>2026-04-19T10:48:12Z</time></trkpt><trkpt lat="43.472344720301315" lon="10.636158319440241"><ele>360.6666666666667</ele><time>2026-04-19T10:48:13Z</time></trkpt><trkpt lat="43.472423790242395" lon="10.636128886312356"><ele>361.0</ele><time>2026-04-19T10:48:15Z</time></trkpt><trkpt lat="43.472496697348404" lon="10.636093790605294"><ele>361.33333333333337</ele><time>2026-04-19T10:48:22Z</time></trkpt><trkpt lat="43.472438158804586" lon="10.636164896846811"><ele>361.6666666666667</ele><time>2026-04-19T10:48:40Z</time></trkpt><trkpt lat="43.47237403068126" lon="10.636295175602896"><ele>362.0</ele><time>2026-04-19T10:48:42Z</time></trkpt><trkpt lat="43.47229344743441" lon="10.63636166199426"><ele>360.8</ele><time>2026-04-19T10:48:44Z</time></trkpt><trkpt lat="43.472215712891554" lon="10.63645532766448"><ele>359.6</ele><time>2026-04-19T10:48:46Z</time></trkpt><trkpt lat="43.47212477384988" lon="10.636533315325652"><ele>358.40000000000003</ele><time>2026-04-19T10:48:48Z</time></trkpt><trkpt lat="43.472036439290775" lon="10.636610805869456"><ele>357.20000000000005</ele><time>2026-04-19T10:48:50Z</time></trkpt><trkpt lat="43.471928092711686" lon="10.636669234044142"><ele>356.0</ele><time>2026-04-19T10:48:52Z</time></trkpt><trkpt lat="43.47181622426617" lon="10.63675233415704"><ele>355.99999999999994</ele><time>2026-04-19T10:48:54Z</time></trkpt><trkpt lat="43.47175461246284" lon="10.63679990308707"><ele>356.0</ele><time>2026-04-19T10:48:55Z</time></trkpt><trkpt lat="43.47169093471996" lon="10.63684958415085"><ele>356.0</ele><time>2026-04-19T10:48:56Z</time></trkpt><trkpt lat="43.47162781882412" lon="10.636898827006423"><ele>356.0</ele><time>2026-04-19T10:48:57Z</time></trkpt><trkpt lat="43.47156936481742" lon="10.63697013786564"><ele>356.0</ele><time>2026-04-19T10:48:58Z</time></trkpt><trkpt lat="43.47149495997365" lon="10.637002483167283"><ele>355.99999999999994</ele><time>2026-04-19T10:48:59Z</time></trkpt><trkpt lat="43.471429431460784" lon="10.637055695707504"><ele>356.0</ele><time>2026-04-19T10:49:00Z</time></trkpt><trkpt lat="43.4713745311799" lon="10.637133203427286"><ele>355.0</ele><time>2026-04-19T10:49:01Z</time></trkpt><trkpt lat="43.47131471443577" lon="10.637189358760905"><ele>354.0</ele><time>2026-04-19T10:49:02Z</time></trkpt><trkpt lat="43.47125748343104" lon="10.637250088536257"><ele>353.0</ele><time>2026-04-19T10:49:03Z</time></trkpt><trkpt lat="43.47120270633823" lon="10.637296600451961"><ele>352.0</ele><time>2026-04-19T10:49:04Z</time></trkpt><trkpt lat="43.471111362628704" lon="10.637376247066781"><ele>351.0</ele><time>2026-04-19T10:49:06Z</time></trkpt><trkpt lat="43.47101568572075" lon="10.637454808260127"><ele>350.0</ele><time>2026-04-19T10:49:08Z</time></trkpt><trkpt lat="43.470917273770176" lon="10.637566654654224"><ele>350.0</ele><time>2026-04-19T10:49:10Z</time></trkpt><trkpt lat="43.470863887123066" lon="10.637625902493328"><ele>350.0</ele><time>2026-04-19T10:49:11Z</time></trkpt><trkpt lat="43.4708039786104" lon="10.637662820361824"><ele>350.0</ele><time>2026-04-19T10:49:12Z</time></trkpt><trkpt lat="43.4707368136417" lon="10.63768537275"><ele>350.0</ele><time>2026-04-19T10:49:13Z</time></trkpt><trkpt lat="43.47066825145086" lon="10.637704056000866"><ele>350.0</ele><time>2026-04-19T10:49:14Z</time></trkpt><trkpt lat="43.47059795986498" lon="10.637738702050894"><ele>350.0</ele><time>2026-04-19T10:49:15Z</time></trkpt><trkpt lat="43.470527000835524" lon="10.637786567974581"><ele>350.0</ele><time>2026-04-19T10:49:16Z</time></trkpt><trkpt lat="43.47045392109614" lon="10.637829350695208"><ele>349.1666666666667</ele><time>2026-04-19T10:49:17Z</time></trkpt><trkpt lat="43.47037656649113" lon="10.637838156198463"><ele>348.33333333333337</ele><time>2026-04-19T10:49:18Z</time></trkpt><trkpt lat="43.47030114459471" lon="10.637867525034926"><ele>347.5</ele><time>2026-04-19T10:49:19Z</time></trkpt><trkpt lat="43.47022701709689" lon="10.637902477453265"><ele>346.6666666666667</ele><time>2026-04-19T10:49:20Z</time></trkpt><trkpt lat="43.4701593883998" lon="10.637955506388469"><ele>345.8333333333333</ele><time>2026-04-19T10:49:21Z</time></trkpt><trkpt lat="43.47009082544651" lon="10.637995920407729"><ele>345.0</ele><time>2026-04-19T10:49:22Z</time></trkpt><trkpt lat="43.47002497615529" lon="10.638040040957092"><ele>345.0</ele><time>2026-04-19T10:49:23Z</time></trkpt><trkpt lat="43.469959497875514" lon="10.638083877779831"><ele>345.0</ele><time>2026-04-19T10:49:24Z</time></trkpt><trkpt lat="43.46989580315956" lon="10.638130213090088"><ele>345.0</ele><time>2026-04-19T10:49:25Z</time></trkpt><trkpt lat="43.469827877696154" lon="10.63815873956885"><ele>345.0</ele><time>2026-04-19T10:49:26Z</time></trkpt><trkpt lat="43.46976431909641" lon="10.63821712479363"><ele>345.0</ele><time>2026-04-19T10:49:27Z</time></trkpt><trkpt lat="43.4697006567952" lon="10.638284196751371"><ele>345.0</ele><time>2026-04-19T10:49:28Z</time></trkpt><trkpt lat="43.46965472759811" lon="10.638371410927727"><ele>343.0</ele><time>2026-04-19T10:49:29Z</time></trkpt><trkpt lat="43.469604789679686" lon="10.638453155792378"><ele>341.0</ele><time>2026-04-19T10:49:30Z</time></trkpt><trkpt lat="43.4695634061519" lon="10.638545065504236"><ele>339.0</ele><time>2026-04-19T10:49:31Z</time></trkpt><trkpt lat="43.469532483557806" lon="10.638652127553545"><ele>337.0</ele><time>2026-04-19T10:49:32Z</time></trkpt><trkpt lat="43.469508320698736" lon="10.638763639251852"><ele>335.0</ele><time>2026-04-19T10:49:33Z</time></trkpt><trkpt lat="43.46948772905683" lon="10.638871209625554"><ele>333.0</ele><time>2026-04-19T10:49:34Z</time></trkpt><trkpt lat="43.46946335921864" lon="10.63897094268288"><ele>333.0</ele><time>2026-04-19T10:49:35Z</time></trkpt><trkpt lat="43.46942504849545" lon="10.639071024417689"><ele>333.0</ele><time>2026-04-19T10:49:36Z</time></trkpt><trkpt lat="43.469371685367825" lon="10.639163128109576"><ele>333.0</ele><time>2026-04-19T10:49:37Z</time></trkpt><trkpt lat="43.46930914781803" lon="10.639246655386751"><ele>333.0</ele><time>2026-04-19T10:49:38Z</time></trkpt><trkpt lat="43.46923979508077" lon="10.63932006677706"><ele>333.0</ele><time>2026-04-19T10:49:39Z</time></trkpt><trkpt lat="43.46916987708386" lon="10.6393880531998"><ele>333.0</ele><time>2026-04-19T10:49:40Z</time></trkpt><trkpt lat="43.46910002031374" lon="10.639452915650445"><ele>332.8333333333333</ele><time>2026-04-19T10:49:41Z</time></trkpt><trkpt lat="43.46903179847441" lon="10.63951310877356"><ele>332.6666666666667</ele><time>2026-04-19T10:49:42Z</time></trkpt><trkpt lat="43.46896761919958" lon="10.639567348210003"><ele>332.5</ele><time>2026-04-19T10:49:43Z</time></trkpt><trkpt lat="43.46890621681162" lon="10.639614991399853"><ele>332.33333333333337</ele><time>2026-04-19T10:49:44Z</time></trkpt><trkpt lat="43.468846634031024" lon="10.639656215112144"><ele>332.1666666666667</ele><time>2026-04-19T10:49:45Z</time></trkpt><trkpt lat="43.46873984045373" lon="10.639723155039032"><ele>332.0</ele><time>2026-04-19T10:49:47Z</time></trkpt><trkpt lat="43.46862729684713" lon="10.639779523102606"><ele>332.0</ele><time>2026-04-19T10:49:49Z</time></trkpt><trkpt lat="43.46852155439763" lon="10.639830024257229"><ele>332.0</ele><time>2026-04-19T10:49:51Z</time></trkpt><trkpt lat="43.46842788720312" lon="10.639875495575629"><ele>332.0</ele><time>2026-04-19T10:49:53Z</time></trkpt><trkpt lat="43.46833867569434" lon="10.63992927252524"><ele>332.0</ele><time>2026-04-19T10:49:55Z</time></trkpt><trkpt lat="43.46824305256284" lon="10.640000704299194"><ele>332.0</ele><time>2026-04-19T10:49:57Z</time></trkpt><trkpt lat="43.46814793624558" lon="10.640100770262741"><ele>332.0</ele><time>2026-04-19T10:49:59Z</time></trkpt><trkpt lat="43.46806025230677" lon="10.64023451869585"><ele>332.0</ele><time>2026-04-19T10:50:01Z</time></trkpt><trkpt lat="43.468022713855895" lon="10.640319936247412"><ele>332.0</ele><time>2026-04-19T10:50:02Z</time></trkpt><trkpt lat="43.4679873594315" lon="10.640417495983197"><ele>332.0</ele><time>2026-04-19T10:50:03Z</time></trkpt><trkpt lat="43.46795216614053" lon="10.640517059381047"><ele>332.0</ele><time>2026-04-19T10:50:04Z</time></trkpt><trkpt lat="43.46791594344942" lon="10.640621519339255"><ele>332.0</ele><time>2026-04-19T10:50:05Z</time></trkpt><trkpt lat="43.4678778421242" lon="10.640725933329481"><ele>330.6666666666667</ele><time>2026-04-19T10:50:06Z</time></trkpt><trkpt lat="43.46784285440029" lon="10.640824472432959"><ele>329.33333333333337</ele><time>2026-04-19T10:50:07Z</time></trkpt><trkpt lat="43.467808755584834" lon="10.64092172447483"><ele>328.0</ele><time>2026-04-19T10:50:08Z</time></trkpt><trkpt lat="43.467776391973175" lon="10.64101671921485"><ele>326.6666666666667</ele><time>2026-04-19T10:50:09Z</time></trkpt><trkpt lat="43.46774357380113" lon="10.641111769530418"><ele>325.3333333333333</ele><time>2026-04-19T10:50:10Z</time></trkpt><trkpt lat="43.4677094485078" lon="10.641209436074085"><ele>324.0</ele><time>2026-04-19T10:50:11Z</time></trkpt><trkpt lat="43.46767395013979" lon="10.641307637253382"><ele>323.0</ele><time>2026-04-19T10:50:12Z</time></trkpt><trkpt lat="43.46764183595794" lon="10.641391860484788"><ele>322.0</ele><time>2026-04-19T10:50:13Z</time></trkpt><trkpt lat="43.46759084468826" lon="10.641540504342535"><ele>321.0</ele><time>2026-04-19T10:50:15Z</time></trkpt><trkpt lat="43.46752958459037" lon="10.641666007818067"><ele>320.0</ele><time>2026-04-19T10:50:17Z</time></trkpt><trkpt lat="43.46747099419212" lon="10.641809407456229"><ele>319.0</ele><time>2026-04-19T10:50:19Z</time></trkpt><trkpt lat="43.46741216052523" lon="10.641970131188325"><ele>318.0</ele><time>2026-04-19T10:50:21Z</time></trkpt><trkpt lat="43.467369459521066" lon="10.642045250085118"><ele>317.0</ele><time>2026-04-19T10:50:22Z</time></trkpt><trkpt lat="43.467323085990394" lon="10.64212206002913"><ele>316.0</ele><time>2026-04-19T10:50:23Z</time></trkpt><trkpt lat="43.467273574290886" lon="10.642200589893575"><ele>315.0</ele><time>2026-04-19T10:50:24Z</time></trkpt><trkpt lat="43.46722280845622" lon="10.642278266534554"><ele>314.0</ele><time>2026-04-19T10:50:25Z</time></trkpt><trkpt lat="43.46716878572813" lon="10.642350839543303"><ele>313.0</ele><time>2026-04-19T10:50:26Z</time></trkpt><trkpt lat="43.467111749132" lon="10.642415002905603"><ele>312.0</ele><time>2026-04-19T10:50:27Z</time></trkpt><trkpt lat="43.46705594857098" lon="10.64247430910061"><ele>311.2</ele><time>2026-04-19T10:50:28Z</time></trkpt><trkpt lat="43.467004597834254" lon="10.642525701200652"><ele>310.4</ele><time>2026-04-19T10:50:29Z</time></trkpt><trkpt lat="43.46692164541353" lon="10.642623363489419"><ele>309.6</ele><time>2026-04-19T10:50:31Z</time></trkpt><trkpt lat="43.46688109619725" lon="10.642753059453023"><ele>308.8</ele><time>2026-04-19T10:50:33Z</time></trkpt><trkpt lat="43.46690697012646" lon="10.642881472905199"><ele>308.0</ele><time>2026-04-19T10:50:35Z</time></trkpt><trkpt lat="43.46692084061617" lon="10.643020823407097"><ele>306.8</ele><time>2026-04-19T10:50:37Z</time></trkpt><trkpt lat="43.466878656023226" lon="10.643169943017528"><ele>305.6</ele><time>2026-04-19T10:50:39Z</time></trkpt><trkpt lat="43.46684888627535" lon="10.643247786973243"><ele>304.4</ele><time>2026-04-19T10:50:40Z</time></trkpt><trkpt lat="43.46681914543094" lon="10.64332852751197"><ele>303.2</ele><time>2026-04-19T10:50:41Z</time></trkpt><trkpt lat="43.466763198750996" lon="10.643481655905328"><ele>302.0</ele><time>2026-04-19T10:50:43Z</time></trkpt><trkpt lat="43.46670973549148" lon="10.643633181902977"><ele>301.28571428571433</ele><time>2026-04-19T10:50:45Z</time></trkpt><trkpt lat="43.4666804092161" lon="10.643714471724467"><ele>300.57142857142856</ele><time>2026-04-19T10:50:46Z</time></trkpt><trkpt lat="43.46664879556366" lon="10.643798235464741"><ele>299.8571428571429</ele><time>2026-04-19T10:50:47Z</time></trkpt><trkpt lat="43.466616248668814" lon="10.6438877733837"><ele>299.14285714285717</ele><time>2026-04-19T10:50:48Z</time></trkpt><trkpt lat="43.46658109140228" lon="10.643981564046157"><ele>298.42857142857144</ele><time>2026-04-19T10:50:49Z</time></trkpt><trkpt lat="43.4665471309875" lon="10.644081140594126"><ele>297.7142857142857</ele><time>2026-04-19T10:50:50Z</time></trkpt><trkpt lat="43.46651137626742" lon="10.644181185195073"><ele>297.0</ele><time>2026-04-19T10:50:51Z</time></trkpt><trkpt lat="43.46647721679864" lon="10.644279392628986"><ele>297.0</ele><time>2026-04-19T10:50:52Z</time></trkpt><trkpt lat="43.46644282599176" lon="10.644376253329607"><ele>297.0</ele><time>2026-04-19T10:50:53Z</time></trkpt><trkpt lat="43.46640792458101" lon="10.644470494547896"><ele>297.0</ele><time>2026-04-19T10:50:54Z</time></trkpt><trkpt lat="43.46637417307055" lon="10.644562820769023"><ele>297.0</ele><time>2026-04-19T10:50:55Z</time></trkpt><trkpt lat="43.46634277670423" lon="10.644653300891138"><ele>297.0</ele><time>2026-04-19T10:50:56Z</time></trkpt><trkpt lat="43.466314850940876" lon="10.644744953186208"><ele>297.0</ele><time>2026-04-19T10:50:57Z</time></trkpt><trkpt lat="43.46628938879271" lon="10.644836196081465"><ele>297.0</ele><time>2026-04-19T10:50:58Z</time></trkpt><trkpt lat="43.46627076621663" lon="10.64493201044159"><ele>295.4</ele><time>2026-04-19T10:50:59Z</time></trkpt><trkpt lat="43.46624657502036" lon="10.645027506499854"><ele>293.79999999999995</ele><time>2026-04-19T10:51:00Z</time></trkpt><trkpt lat="43.46620829485878" lon="10.645189249624671"><ele>292.2</ele><time>2026-04-19T10:51:02Z</time></trkpt><trkpt lat="43.46617404097999" lon="10.645350144904066"><ele>290.59999999999997</ele><time>2026-04-19T10:51:04Z</time></trkpt><trkpt lat="43.46614468268999" lon="10.645501547111868"><ele>289.0</ele><time>2026-04-19T10:51:06Z</time></trkpt><trkpt lat="43.466112221198564" lon="10.645641456231058"><ele>288.8</ele><time>2026-04-19T10:51:08Z</time></trkpt><trkpt lat="43.46607869678128" lon="10.645770789482581"><ele>288.59999999999997</ele><time>2026-04-19T10:51:10Z</time></trkpt><trkpt lat="43.46604786205538" lon="10.64589875885262"><ele>288.4</ele><time>2026-04-19T10:51:12Z</time></trkpt><trkpt lat="43.466023793652" lon="10.646028650097515"><ele>288.2</ele><time>2026-04-19T10:51:14Z</time></trkpt><trkpt lat="43.46599783966351" lon="10.646175587459696"><ele>288.0</ele><time>2026-04-19T10:51:16Z</time></trkpt><trkpt lat="43.46596826544191" lon="10.646334574566584"><ele>288.0</ele><time>2026-04-19T10:51:18Z</time></trkpt><trkpt lat="43.465950231203635" lon="10.646509034247584"><ele>288.0</ele><time>2026-04-19T10:51:20Z</time></trkpt><trkpt lat="43.465940411881036" lon="10.646596979994012"><ele>288.0</ele><time>2026-04-19T10:51:21Z</time></trkpt><trkpt lat="43.46593342614844" lon="10.64668453960958"><ele>288.0</ele><time>2026-04-19T10:51:22Z</time></trkpt><trkpt lat="43.465925988376156" lon="10.64677263013121"><ele>288.0</ele><time>2026-04-19T10:51:23Z</time></trkpt><trkpt lat="43.46591672555764" lon="10.646858667476728"><ele>288.0</ele><time>2026-04-19T10:51:24Z</time></trkpt><trkpt lat="43.46590126168533" lon="10.647024975325179"><ele>288.0</ele><time>2026-04-19T10:51:26Z</time></trkpt><trkpt lat="43.46589347554687" lon="10.647170120128965"><ele>288.0</ele><time>2026-04-19T10:51:28Z</time></trkpt><trkpt lat="43.465878311799095" lon="10.64731855359613"><ele>288.0</ele><time>2026-04-19T10:51:30Z</time></trkpt><trkpt lat="43.465858687253835" lon="10.64747318481742"><ele>288.0</ele><time>2026-04-19T10:51:32Z</time></trkpt><trkpt lat="43.46583676881828" lon="10.647629245722827"><ele>288.0</ele><time>2026-04-19T10:51:34Z</time></trkpt><trkpt lat="43.4658175749501" lon="10.647789524827152"><ele>289.1666666666667</ele><time>2026-04-19T10:51:36Z</time></trkpt><trkpt lat="43.46580636591965" lon="10.647876081162824"><ele>290.3333333333333</ele><time>2026-04-19T10:51:37Z</time></trkpt><trkpt lat="43.465794803432374" lon="10.647963217458132"><ele>291.5</ele><time>2026-04-19T10:51:38Z</time></trkpt><trkpt lat="43.46578295171004" lon="10.648051101952323"><ele>292.66666666666663</ele><time>2026-04-19T10:51:39Z</time></trkpt><trkpt lat="43.46577263235316" lon="10.648138974177765"><ele>293.8333333333333</ele><time>2026-04-19T10:51:40Z</time></trkpt><trkpt lat="43.465752312356365" lon="10.648293797882925"><ele>295.0</ele><time>2026-04-19T10:51:42Z</time></trkpt><trkpt lat="43.465734959212995" lon="10.64844015985337"><ele>295.0</ele><time>2026-04-19T10:51:44Z</time></trkpt><trkpt lat="43.46571873832912" lon="10.648570985863099"><ele>295.0</ele><time>2026-04-19T10:51:46Z</time></trkpt><trkpt lat="43.46569753283678" lon="10.648702560004535"><ele>295.0</ele><time>2026-04-19T10:51:48Z</time></trkpt><trkpt lat="43.46567106513299" lon="10.648826944770713"><ele>295.0</ele><time>2026-04-19T10:51:50Z</time></trkpt><trkpt lat="43.46563585563652" lon="10.648948012644954"><ele>295.0</ele><time>2026-04-19T10:51:52Z</time></trkpt><trkpt lat="43.46560709617154" lon="10.649081459376019"><ele>297.4</ele><time>2026-04-19T10:51:54Z</time></trkpt><trkpt lat="43.465579716987456" lon="10.649221764500288"><ele>299.8</ele><time>2026-04-19T10:51:56Z</time></trkpt><trkpt lat="43.46554726084357" lon="10.649367629608214"><ele>302.2</ele><time>2026-04-19T10:51:58Z</time></trkpt><trkpt lat="43.465517372627765" lon="10.649519675233734"><ele>304.6</ele><time>2026-04-19T10:52:00Z</time></trkpt><trkpt lat="43.46548802779861" lon="10.649667811029884"><ele>307.0</ele><time>2026-04-19T10:52:02Z</time></trkpt><trkpt lat="43.46546169107474" lon="10.649786866426645"><ele>307.0</ele><time>2026-04-19T10:52:04Z</time></trkpt><trkpt lat="43.46544188177864" lon="10.6499039532378"><ele>307.0</ele><time>2026-04-19T10:52:06Z</time></trkpt><trkpt lat="43.465417565741596" lon="10.650027636900706"><ele>307.0</ele><time>2026-04-19T10:52:08Z</time></trkpt><trkpt lat="43.46538849751879" lon="10.65014421022611"><ele>307.0</ele><time>2026-04-19T10:52:10Z</time></trkpt><trkpt lat="43.46537209636125" lon="10.650251261521746"><ele>307.0</ele><time>2026-04-19T10:52:12Z</time></trkpt><trkpt lat="43.46536148261829" lon="10.650344041398316"><ele>307.0</ele><time>2026-04-19T10:52:14Z</time></trkpt><trkpt lat="43.465353782752445" lon="10.650432283817008"><ele>307.16666666666663</ele><time>2026-04-19T10:52:28Z</time></trkpt><trkpt lat="43.46535448265934" lon="10.650524963718203"><ele>307.3333333333333</ele><time>2026-04-19T10:52:31Z</time></trkpt><trkpt lat="43.465345167511764" lon="10.650614170119452"><ele>307.5</ele><time>2026-04-19T10:52:34Z</time></trkpt><trkpt lat="43.465335504501375" lon="10.650743418348025"><ele>307.6666666666667</ele><time>2026-04-19T10:52:37Z</time></trkpt><trkpt lat="43.46531969097986" lon="10.650848254484972"><ele>307.83333333333337</ele><time>2026-04-19T10:52:39Z</time></trkpt><trkpt lat="43.465296574719716" lon="10.650982194763623"><ele>308.0</ele><time>2026-04-19T10:52:41Z</time></trkpt><trkpt lat="43.465271165841855" lon="10.651142775060059"><ele>307.6</ele><time>2026-04-19T10:52:43Z</time></trkpt><trkpt lat="43.465254094377" lon="10.651275498201343"><ele>307.20000000000005</ele><time>2026-04-19T10:52:45Z</time></trkpt><trkpt lat="43.46523820123612" lon="10.651416385585106"><ele>306.8</ele><time>2026-04-19T10:52:47Z</time></trkpt><trkpt lat="43.465219529885076" lon="10.651552835611652"><ele>306.40000000000003</ele><time>2026-04-19T10:52:49Z</time></trkpt><trkpt lat="43.4652028788185" lon="10.651680749771517"><ele>306.0</ele><time>2026-04-19T10:52:51Z</time></trkpt><trkpt lat="43.46518726224186" lon="10.65181045105689"><ele>306.0</ele><time>2026-04-19T10:52:53Z</time></trkpt><trkpt lat="43.46517575182901" lon="10.651937055853793"><ele>306.0</ele><time>2026-04-19T10:52:55Z</time></trkpt><trkpt lat="43.4651574296813" lon="10.652040783244285"><ele>306.0</ele><time>2026-04-19T10:52:57Z</time></trkpt><trkpt lat="43.465130306297944" lon="10.65216078726037"><ele>306.0</ele><time>2026-04-19T10:52:59Z</time></trkpt><trkpt lat="43.465094913897445" lon="10.65234297494534"><ele>306.0</ele><time>2026-04-19T10:53:01Z</time></trkpt><trkpt lat="43.46508477690128" lon="10.65244621348185"><ele>305.7142857142857</ele><time>2026-04-19T10:53:02Z</time></trkpt><trkpt lat="43.4650839379098" lon="10.652541904890452"><ele>305.42857142857144</ele><time>2026-04-19T10:53:03Z</time></trkpt><trkpt lat="43.4650917431668" lon="10.652637516527586"><ele>305.1428571428571</ele><time>2026-04-19T10:53:04Z</time></trkpt><trkpt lat="43.465111699603824" lon="10.65273572985113"><ele>304.8571428571429</ele><time>2026-04-19T10:53:05Z</time></trkpt><trkpt lat="43.4651354321556" lon="10.652831375458273"><ele>304.5714285714286</ele><time>2026-04-19T10:53:06Z</time></trkpt><trkpt lat="43.46515577398734" lon="10.652922478147552"><ele>304.2857142857143</ele><time>2026-04-19T10:53:07Z</time></trkpt><trkpt lat="43.46518456706431" lon="10.653009835124108"><ele>304.0</ele><time>2026-04-19T10:53:08Z</time></trkpt><trkpt lat="43.46521863289788" lon="10.653092621456699"><ele>303.57142857142856</ele><time>2026-04-19T10:53:09Z</time></trkpt><trkpt lat="43.465239984446086" lon="10.65318309302834"><ele>303.14285714285717</ele><time>2026-04-19T10:53:10Z</time></trkpt><trkpt lat="43.46525672747617" lon="10.653274640856608"><ele>302.7142857142857</ele><time>2026-04-19T10:53:11Z</time></trkpt><trkpt lat="43.46527611358027" lon="10.653366193732051"><ele>302.2857142857143</ele><time>2026-04-19T10:53:12Z</time></trkpt><trkpt lat="43.46529787849021" lon="10.653457623069125"><ele>301.8571428571429</ele><time>2026-04-19T10:53:13Z</time></trkpt><trkpt lat="43.46532103176949" lon="10.653549389523114"><ele>301.42857142857144</ele><time>2026-04-19T10:53:14Z</time></trkpt><trkpt lat="43.465344586941455" lon="10.65364106121888"><ele>301.0</ele><time>2026-04-19T10:53:15Z</time></trkpt><trkpt lat="43.46536856340177" lon="10.653731119635145"><ele>300.57142857142856</ele><time>2026-04-19T10:53:16Z</time></trkpt><trkpt lat="43.46538875345209" lon="10.653824715800482"><ele>300.1428571428571</ele><time>2026-04-19T10:53:17Z</time></trkpt><trkpt lat="43.46540593670511" lon="10.653917063026888"><ele>299.7142857142857</ele><time>2026-04-19T10:53:18Z</time></trkpt><trkpt lat="43.4654268457627" lon="10.65400713300672"><ele>299.2857142857143</ele><time>2026-04-19T10:53:19Z</time></trkpt><trkpt lat="43.465448399686274" lon="10.654098770683145"><ele>298.85714285714283</ele><time>2026-04-19T10:53:20Z</time></trkpt><trkpt lat="43.46546956709663" lon="10.654191597550575"><ele>298.42857142857144</ele><time>2026-04-19T10:53:21Z</time></trkpt><trkpt lat="43.46549034820983" lon="10.654284178866535"><ele>298.0</ele><time>2026-04-19T10:53:22Z</time></trkpt><trkpt lat="43.465511787832035" lon="10.65437743697629"><ele>296.8333333333333</ele><time>2026-04-19T10:53:23Z</time></trkpt><trkpt lat="43.465534719223314" lon="10.654474374290755"><ele>295.66666666666663</ele><time>2026-04-19T10:53:24Z</time></trkpt><trkpt lat="43.46555703709096" lon="10.654571730617011"><ele>294.5</ele><time>2026-04-19T10:53:25Z</time></trkpt><trkpt lat="43.465581003260276" lon="10.654671711434478"><ele>293.3333333333333</ele><time>2026-04-19T10:53:26Z</time></trkpt><trkpt lat="43.465605572007284" lon="10.654772868184855"><ele>292.1666666666667</ele><time>2026-04-19T10:53:27Z</time></trkpt><trkpt lat="43.46563136842124" lon="10.65487566246836"><ele>291.0</ele><time>2026-04-19T10:53:28Z</time></trkpt><trkpt lat="43.465658552606484" lon="10.654980199165928"><ele>291.0</ele><time>2026-04-19T10:53:29Z</time></trkpt><trkpt lat="43.465686522764074" lon="10.655085840680393"><ele>291.0</ele><time>2026-04-19T10:53:30Z</time></trkpt><trkpt lat="43.46571294510773" lon="10.655195087136683"><ele>291.0</ele><time>2026-04-19T10:53:31Z</time></trkpt><trkpt lat="43.46573707982853" lon="10.655305608821305"><ele>291.0</ele><time>2026-04-19T10:53:32Z</time></trkpt><trkpt lat="43.465761022626594" lon="10.655420866278863"><ele>291.0</ele><time>2026-04-19T10:53:33Z</time></trkpt><trkpt lat="43.465784770179674" lon="10.655537099170207"><ele>291.0</ele><time>2026-04-19T10:53:34Z</time></trkpt><trkpt lat="43.46581289166443" lon="10.655654002416366"><ele>290.2</ele><time>2026-04-19T10:53:35Z</time></trkpt><trkpt lat="43.46583877000169" lon="10.655765285230842"><ele>289.40000000000003</ele><time>2026-04-19T10:53:36Z</time></trkpt><trkpt lat="43.46586949678355" lon="10.65588864594788"><ele>288.6</ele><time>2026-04-19T10:53:37Z</time></trkpt><trkpt lat="43.465899171947015" lon="10.656016131504911"><ele>287.8</ele><time>2026-04-19T10:53:38Z</time></trkpt><trkpt lat="43.46593072005137" lon="10.65614791632995"><ele>287.0</ele><time>2026-04-19T10:53:39Z</time></trkpt><trkpt lat="43.465960606026094" lon="10.656276904860366"><ele>286.0</ele><time>2026-04-19T10:53:40Z</time></trkpt><trkpt lat="43.465989036466446" lon="10.656399608818278"><ele>285.0</ele><time>2026-04-19T10:53:41Z</time></trkpt><trkpt lat="43.46601372895268" lon="10.65652297541876"><ele>284.0</ele><time>2026-04-19T10:53:42Z</time></trkpt><trkpt lat="43.46604254698521" lon="10.656640241109264"><ele>283.0</ele><time>2026-04-19T10:53:43Z</time></trkpt><trkpt lat="43.46606896645588" lon="10.656752129902449"><ele>282.0</ele><time>2026-04-19T10:53:44Z</time></trkpt><trkpt lat="43.466091694488384" lon="10.656843243416336"><ele>281.0</ele><time>2026-04-19T10:53:45Z</time></trkpt><trkpt lat="43.46612469674732" lon="10.656990055768613"><ele>280.1666666666667</ele><time>2026-04-19T10:53:47Z</time></trkpt><trkpt lat="43.466148073821515" lon="10.657152094029268"><ele>279.33333333333337</ele><time>2026-04-19T10:53:49Z</time></trkpt><trkpt lat="43.46616747530706" lon="10.657235138473082"><ele>278.5</ele><time>2026-04-19T10:53:50Z</time></trkpt><trkpt lat="43.46618850379103" lon="10.657318659018813"><ele>277.6666666666667</ele><time>2026-04-19T10:53:51Z</time></trkpt><trkpt lat="43.4662086822115" lon="10.657407674580183"><ele>276.8333333333333</ele><time>2026-04-19T10:53:52.001Z</time></trkpt><trkpt lat="43.46623072366486" lon="10.657504938149163"><ele>276.0</ele><time>2026-04-19T10:53:53.001Z</time></trkpt><trkpt lat="43.46626570814961" lon="10.657604468178087"><ele>275.6666666666667</ele><time>2026-04-19T10:53:54.001Z</time></trkpt><trkpt lat="43.46631712410866" lon="10.657693616785659"><ele>275.3333333333333</ele><time>2026-04-19T10:53:55.001Z</time></trkpt><trkpt lat="43.466380319083186" lon="10.657767487948716"><ele>275.0</ele><time>2026-04-19T10:53:56.001Z</time></trkpt><trkpt lat="43.46645063512318" lon="10.65783580921124"><ele>274.66666666666663</ele><time>2026-04-19T10:53:57.001Z</time></trkpt><trkpt lat="43.466518978137486" lon="10.657903485859478"><ele>274.3333333333333</ele><time>2026-04-19T10:53:58.001Z</time></trkpt><trkpt lat="43.46658527683314" lon="10.657977277210815"><ele>274.0</ele><time>2026-04-19T10:53:59.001Z</time></trkpt><trkpt lat="43.46665452515876" lon="10.65805183338868"><ele>273.2</ele><time>2026-04-19T10:54:00.001Z</time></trkpt><trkpt lat="43.46672741765509" lon="10.658124099348896"><ele>272.4</ele><time>2026-04-19T10:54:01.001Z</time></trkpt><trkpt lat="43.4668024679362" lon="10.658203762032986"><ele>271.6</ele><time>2026-04-19T10:54:02.001Z</time></trkpt><trkpt lat="43.46688117327088" lon="10.658290864175058"><ele>270.8</ele><time>2026-04-19T10:54:03.001Z</time></trkpt><trkpt lat="43.46696196605444" lon="10.658377204756997"><ele>270.0</ele><time>2026-04-19T10:54:04.001Z</time></trkpt><trkpt lat="43.46704652710091" lon="10.6584631279247"><ele>268.8</ele><time>2026-04-19T10:54:05.001Z</time></trkpt><trkpt lat="43.46713149261342" lon="10.658551518630436"><ele>267.6</ele><time>2026-04-19T10:54:06.001Z</time></trkpt><trkpt lat="43.46721706880741" lon="10.658640465141989"><ele>266.4</ele><time>2026-04-19T10:54:07.001Z</time></trkpt><trkpt lat="43.46729823487042" lon="10.658725402524757"><ele>265.2</ele><time>2026-04-19T10:54:08.001Z</time></trkpt><trkpt lat="43.46737843594814" lon="10.658808562581306"><ele>264.0</ele><time>2026-04-19T10:54:09.001Z</time></trkpt><trkpt lat="43.46745095288826" lon="10.658890328403672"><ele>262.8333333333333</ele><time>2026-04-19T10:54:10.001Z</time></trkpt><trkpt lat="43.467519985224484" lon="10.658970522557379"><ele>261.6666666666667</ele><time>2026-04-19T10:54:11Z</time></trkpt><trkpt lat="43.46758583376259" lon="10.65905138801742"><ele>260.5</ele><time>2026-04-19T10:54:12Z</time></trkpt><trkpt lat="43.4676506640582" lon="10.659139321138694"><ele>259.33333333333337</ele><time>2026-04-19T10:54:13Z</time></trkpt><trkpt lat="43.46771701662869" lon="10.659227445352755"><ele>258.1666666666667</ele><time>2026-04-19T10:54:14Z</time></trkpt><trkpt lat="43.467765543524585" lon="10.659304075407785"><ele>257.0</ele><time>2026-04-19T10:54:15Z</time></trkpt><trkpt lat="43.46781983795813" lon="10.65937683495348"><ele>254.6</ele><time>2026-04-19T10:54:16Z</time></trkpt><trkpt lat="43.46788200385774" lon="10.659459386161613"><ele>252.2</ele><time>2026-04-19T10:54:17Z</time></trkpt><trkpt lat="43.46794716517867" lon="10.65954753435713"><ele>249.8</ele><time>2026-04-19T10:54:18Z</time></trkpt><trkpt lat="43.46801234235254" lon="10.65964054547742"><ele>247.4</ele><time>2026-04-19T10:54:19Z</time></trkpt><trkpt lat="43.46807486953285" lon="10.659738943211716"><ele>245.0</ele><time>2026-04-19T10:54:20Z</time></trkpt><trkpt lat="43.46814534559919" lon="10.659838615935364"><ele>244.8</ele><time>2026-04-19T10:54:21Z</time></trkpt><trkpt lat="43.468216108147196" lon="10.659937615028012"><ele>244.6</ele><time>2026-04-19T10:54:22Z</time></trkpt><trkpt lat="43.46828679805257" lon="10.660037445553522"><ele>244.39999999999998</ele><time>2026-04-19T10:54:23Z</time></trkpt><trkpt lat="43.46835609500587" lon="10.660132043398079"><ele>244.2</ele><time>2026-04-19T10:54:24Z</time></trkpt><trkpt lat="43.468404728170604" lon="10.660231124448137"><ele>244.0</ele><time>2026-04-19T10:54:25Z</time></trkpt><trkpt lat="43.46846661249231" lon="10.660321150035653"><ele>242.66666666666666</ele><time>2026-04-19T10:54:26Z</time></trkpt><trkpt lat="43.468539311274235" lon="10.660396650874649"><ele>241.33333333333331</ele><time>2026-04-19T10:54:27Z</time></trkpt><trkpt lat="43.468598261337405" lon="10.660490766225962"><ele>240.0</ele><time>2026-04-19T10:54:28Z</time></trkpt><trkpt lat="43.46865762640007" lon="10.66058462179235"><ele>238.66666666666669</ele><time>2026-04-19T10:54:29Z</time></trkpt><trkpt lat="43.468716482412596" lon="10.66067771511812"><ele>237.33333333333334</ele><time>2026-04-19T10:54:30Z</time></trkpt><trkpt lat="43.46877287138065" lon="10.660770692860964"><ele>236.0</ele><time>2026-04-19T10:54:31Z</time></trkpt><trkpt lat="43.468824245488065" lon="10.66086478938298"><ele>235.66666666666669</ele><time>2026-04-19T10:54:32Z</time></trkpt><trkpt lat="43.468871498455904" lon="10.660961839922447"><ele>235.33333333333334</ele><time>2026-04-19T10:54:33Z</time></trkpt><trkpt lat="43.46891758696467" lon="10.66106188843036"><ele>235.0</ele><time>2026-04-19T10:54:34Z</time></trkpt><trkpt lat="43.46896341872819" lon="10.661162725539985"><ele>234.66666666666669</ele><time>2026-04-19T10:54:35Z</time></trkpt><trkpt lat="43.4690083602223" lon="10.661267901412197"><ele>234.33333333333334</ele><time>2026-04-19T10:54:36Z</time></trkpt><trkpt lat="43.469054769223256" lon="10.661376926045454"><ele>234.0</ele><time>2026-04-19T10:54:37Z</time></trkpt><trkpt lat="43.4691014947356" lon="10.66148542175232"><ele>234.0</ele><time>2026-04-19T10:54:38Z</time></trkpt><trkpt lat="43.46914587603108" lon="10.661586589804992"><ele>234.0</ele><time>2026-04-19T10:54:39Z</time></trkpt><trkpt lat="43.46918831187126" lon="10.661681757210273"><ele>234.0</ele><time>2026-04-19T10:54:40Z</time></trkpt><trkpt lat="43.46922933076641" lon="10.661770547869708"><ele>234.0</ele><time>2026-04-19T10:54:41Z</time></trkpt><trkpt lat="43.469269955791454" lon="10.661853778593573"><ele>234.0</ele><time>2026-04-19T10:54:42Z</time></trkpt><trkpt lat="43.469312290238165" lon="10.661933000245526"><ele>234.0</ele><time>2026-04-19T10:54:43Z</time></trkpt><trkpt lat="43.469357713714075" lon="10.662004956496576"><ele>234.0</ele><time>2026-04-19T10:54:44Z</time></trkpt><trkpt lat="43.46940831996354" lon="10.662074089919408"><ele>234.0</ele><time>2026-04-19T10:54:45Z</time></trkpt><trkpt lat="43.46946220629754" lon="10.662146917588696"><ele>234.0</ele><time>2026-04-19T10:54:46Z</time></trkpt><trkpt lat="43.46952052557907" lon="10.662224741996058"><ele>234.0</ele><time>2026-04-19T10:54:47Z</time></trkpt><trkpt lat="43.46958253343277" lon="10.662308014808122"><ele>234.0</ele><time>2026-04-19T10:54:48Z</time></trkpt><trkpt lat="43.46965002137243" lon="10.662390480835771"><ele>234.0</ele><time>2026-04-19T10:54:49Z</time></trkpt><trkpt lat="43.46972277940195" lon="10.6624746839762"><ele>233.0</ele><time>2026-04-19T10:54:50Z</time></trkpt><trkpt lat="43.46979749716679" lon="10.662563275237588"><ele>232.0</ele><time>2026-04-19T10:54:51Z</time></trkpt><trkpt lat="43.469864987539125" lon="10.66264974480383"><ele>231.0</ele><time>2026-04-19T10:54:52Z</time></trkpt><trkpt lat="43.46992934862197" lon="10.662733222060119"><ele>230.0</ele><time>2026-04-19T10:54:53Z</time></trkpt><trkpt lat="43.46998687853933" lon="10.662810717587293"><ele>229.0</ele><time>2026-04-19T10:54:54Z</time></trkpt><trkpt lat="43.47003994097054" lon="10.662883080049209"><ele>228.0</ele><time>2026-04-19T10:54:55Z</time></trkpt><trkpt lat="43.47008974933098" lon="10.662951193904677"><ele>227.33333333333334</ele><time>2026-04-19T10:54:56Z</time></trkpt><trkpt lat="43.470146840840975" lon="10.66302195259696"><ele>226.66666666666669</ele><time>2026-04-19T10:54:57Z</time></trkpt><trkpt lat="43.470202042911865" lon="10.663100403086471"><ele>226.0</ele><time>2026-04-19T10:54:58Z</time></trkpt><trkpt lat="43.470240532124194" lon="10.663205053430081"><ele>225.33333333333334</ele><time>2026-04-19T10:54:59Z</time></trkpt><trkpt lat="43.47026341426636" lon="10.663321893238441"><ele>224.66666666666669</ele><time>2026-04-19T10:55:00Z</time></trkpt><trkpt lat="43.470268646365184" lon="10.663447734928143"><ele>224.0</ele><time>2026-04-19T10:55:01Z</time></trkpt><trkpt lat="43.47026634825806" lon="10.663578083497747"><ele>223.0</ele><time>2026-04-19T10:55:02Z</time></trkpt><trkpt lat="43.4702596878992" lon="10.663713767277066"><ele>221.99999999999997</ele><time>2026-04-19T10:55:03Z</time></trkpt><trkpt lat="43.470252998929986" lon="10.663843027929344"><ele>220.99999999999997</ele><time>2026-04-19T10:55:04Z</time></trkpt><trkpt lat="43.47024742456902" lon="10.663975853964962"><ele>220.0</ele><time>2026-04-19T10:55:05Z</time></trkpt><trkpt lat="43.47023972328651" lon="10.664112781647288"><ele>219.0</ele><time>2026-04-19T10:55:06Z</time></trkpt><trkpt lat="43.47023593003374" lon="10.664247185874125"><ele>219.0</ele><time>2026-04-19T10:55:07Z</time></trkpt><trkpt lat="43.47025531563207" lon="10.664366489355187"><ele>218.99999999999997</ele><time>2026-04-19T10:55:08Z</time></trkpt><trkpt lat="43.47029159865033" lon="10.6644767224897"><ele>218.99999999999997</ele><time>2026-04-19T10:55:09Z</time></trkpt><trkpt lat="43.47034020381967" lon="10.664589532163863"><ele>219.0</ele><time>2026-04-19T10:55:10Z</time></trkpt><trkpt lat="43.47039409295536" lon="10.664697738138017"><ele>219.0</ele><time>2026-04-19T10:55:11Z</time></trkpt><trkpt lat="43.47044509505172" lon="10.66479792185233"><ele>216.0</ele><time>2026-04-19T10:55:12Z</time></trkpt><trkpt lat="43.470490442835484" lon="10.66489880255631"><ele>213.0</ele><time>2026-04-19T10:55:13Z</time></trkpt><trkpt lat="43.47053827279984" lon="10.665010006278381"><ele>210.0</ele><time>2026-04-19T10:55:14Z</time></trkpt><trkpt lat="43.470582927033384" lon="10.665107780311388"><ele>207.0</ele><time>2026-04-19T10:55:15Z</time></trkpt><trkpt lat="43.47062543169383" lon="10.665184863559164"><ele>204.0</ele><time>2026-04-19T10:55:16Z</time></trkpt><trkpt lat="43.4706945563462" lon="10.665274640514749"><ele>201.0</ele><time>2026-04-19T10:55:18Z</time></trkpt><trkpt lat="43.47075924518685" lon="10.665345041421215"><ele>199.83333333333334</ele><time>2026-04-19T10:55:21Z</time></trkpt><trkpt lat="43.47084699130355" lon="10.6654134135264"><ele>198.66666666666669</ele><time>2026-04-19T10:55:24Z</time></trkpt><trkpt lat="43.470910276996015" lon="10.66544125239565"><ele>197.5</ele><time>2026-04-19T10:55:25Z</time></trkpt><trkpt lat="43.47098010307223" lon="10.665500865598778"><ele>196.33333333333334</ele><time>2026-04-19T10:55:26Z</time></trkpt><trkpt lat="43.47105981727486" lon="10.665560731628863"><ele>195.16666666666669</ele><time>2026-04-19T10:55:27Z</time></trkpt><trkpt lat="43.47114396607839" lon="10.665623087075218"><ele>194.0</ele><time>2026-04-19T10:55:28Z</time></trkpt><trkpt lat="43.471233609029404" lon="10.66569243335129"><ele>193.6</ele><time>2026-04-19T10:55:29Z</time></trkpt><trkpt lat="43.471328018849356" lon="10.66576489994286"><ele>193.2</ele><time>2026-04-19T10:55:30.001Z</time></trkpt><trkpt lat="43.47142582092744" lon="10.66583906501177"><ele>192.79999999999998</ele><time>2026-04-19T10:55:31.001Z</time></trkpt><trkpt lat="43.471523158366686" lon="10.665913043696884"><ele>192.39999999999998</ele><time>2026-04-19T10:55:32.001Z</time></trkpt><trkpt lat="43.47161836731388" lon="10.665990505645464"><ele>192.0</ele><time>2026-04-19T10:55:33.001Z</time></trkpt><trkpt lat="43.47171116739507" lon="10.666073119710118"><ele>191.0</ele><time>2026-04-19T10:55:34.001Z</time></trkpt><trkpt lat="43.47180595730326" lon="10.666146019002271"><ele>190.0</ele><time>2026-04-19T10:55:35.001Z</time></trkpt><trkpt lat="43.47190513629859" lon="10.66621390297251"><ele>189.0</ele><time>2026-04-19T10:55:36.001Z</time></trkpt><trkpt lat="43.47200141481963" lon="10.66628770604924"><ele>188.0</ele><time>2026-04-19T10:55:37.001Z</time></trkpt><trkpt lat="43.47209798972621" lon="10.666363565795404"><ele>187.0</ele><time>2026-04-19T10:55:38.001Z</time></trkpt><trkpt lat="43.47219489643373" lon="10.666438649827912"><ele>187.0</ele><time>2026-04-19T10:55:39.001Z</time></trkpt><trkpt lat="43.47229439608135" lon="10.666514987739548"><ele>187.0</ele><time>2026-04-19T10:55:40.001Z</time></trkpt><trkpt lat="43.47239778252268" lon="10.66659238986428"><ele>187.0</ele><time>2026-04-19T10:55:41.001Z</time></trkpt><trkpt lat="43.47250105736943" lon="10.666671264244796"><ele>187.0</ele><time>2026-04-19T10:55:42.001Z</time></trkpt><trkpt lat="43.47260670657072" lon="10.666750173960892"><ele>187.0</ele><time>2026-04-19T10:55:43.001Z</time></trkpt><trkpt lat="43.47270831436072" lon="10.666834955630671"><ele>187.0</ele><time>2026-04-19T10:55:44.001Z</time></trkpt><trkpt lat="43.472803241073315" lon="10.666925362864097"><ele>187.0</ele><time>2026-04-19T10:55:45.001Z</time></trkpt><trkpt lat="43.47287729024604" lon="10.667021391005113"><ele>187.0</ele><time>2026-04-19T10:55:46.001Z</time></trkpt><trkpt lat="43.472938419366656" lon="10.66711376683622"><ele>187.0</ele><time>2026-04-19T10:55:47.001Z</time></trkpt><trkpt lat="43.472990126801605" lon="10.667218109650566"><ele>185.6</ele><time>2026-04-19T10:55:48.001Z</time></trkpt><trkpt lat="43.47303554932283" lon="10.667331752044596"><ele>184.2</ele><time>2026-04-19T10:55:49.001Z</time></trkpt><trkpt lat="43.47308019284809" lon="10.667448086287546"><ele>182.8</ele><time>2026-04-19T10:55:50.001Z</time></trkpt><trkpt lat="43.47313360582332" lon="10.667559042423314"><ele>181.4</ele><time>2026-04-19T10:55:51.001Z</time></trkpt><trkpt lat="43.47320056297077" lon="10.667656183487614"><ele>180.0</ele><time>2026-04-19T10:55:52.001Z</time></trkpt><trkpt lat="43.47328270899872" lon="10.667732029418266"><ele>179.0</ele><time>2026-04-19T10:55:53.001Z</time></trkpt><trkpt lat="43.473373766757156" lon="10.66779005358638"><ele>178.0</ele><time>2026-04-19T10:55:54.001Z</time></trkpt><trkpt lat="43.47346828692048" lon="10.667840114922337"><ele>177.0</ele><time>2026-04-19T10:55:55.001Z</time></trkpt><trkpt lat="43.47355177646385" lon="10.66788231732332"><ele>176.0</ele><time>2026-04-19T10:55:56.001Z</time></trkpt><trkpt lat="43.473628326180766" lon="10.667920788893872"><ele>175.0</ele><time>2026-04-19T10:55:57.001Z</time></trkpt><trkpt lat="43.47369920202217" lon="10.667977013907294"><ele>175.0</ele><time>2026-04-19T10:55:58.001Z</time></trkpt><trkpt lat="43.47376476761462" lon="10.668008897021243"><ele>175.0</ele><time>2026-04-19T10:55:59.001Z</time></trkpt><trkpt lat="43.473830181337604" lon="10.668040706215027"><ele>175.0</ele><time>2026-04-19T10:56:00.001Z</time></trkpt><trkpt lat="43.47389788233168" lon="10.668073246917919"><ele>175.0</ele><time>2026-04-19T10:56:01.001Z</time></trkpt><trkpt lat="43.47396872405949" lon="10.668105769405116"><ele>175.0</ele><time>2026-04-19T10:56:02.001Z</time></trkpt><trkpt lat="43.474041701973526" lon="10.668139272604536"><ele>175.0</ele><time>2026-04-19T10:56:03.001Z</time></trkpt><trkpt lat="43.47411618202021" lon="10.668172920238762"><ele>175.0</ele><time>2026-04-19T10:56:04.001Z</time></trkpt><trkpt lat="43.4741937581076" lon="10.668206597141095"><ele>174.2</ele><time>2026-04-19T10:56:05.001Z</time></trkpt><trkpt lat="43.47427856096822" lon="10.668220777807912"><ele>173.4</ele><time>2026-04-19T10:56:06.001Z</time></trkpt><trkpt lat="43.474361285078096" lon="10.66826200502014"><ele>172.60000000000002</ele><time>2026-04-19T10:56:07.001Z</time></trkpt><trkpt lat="43.474446952494844" lon="10.668302045830924"><ele>171.8</ele><time>2026-04-19T10:56:08.001Z</time></trkpt><trkpt lat="43.47453674329502" lon="10.668340778084973"><ele>171.0</ele><time>2026-04-19T10:56:09.001Z</time></trkpt><trkpt lat="43.47462934303317" lon="10.668382570264903"><ele>170.20000000000002</ele><time>2026-04-19T10:56:10.001Z</time></trkpt><trkpt lat="43.47472562956915" lon="10.668424847633382"><ele>169.4</ele><time>2026-04-19T10:56:11.001Z</time></trkpt><trkpt lat="43.474820274863085" lon="10.668479386585817"><ele>168.6</ele><time>2026-04-19T10:56:12.001Z</time></trkpt><trkpt lat="43.474901257208195" lon="10.668550414730802"><ele>167.8</ele><time>2026-04-19T10:56:13.001Z</time></trkpt><trkpt lat="43.474984163836986" lon="10.668632571404208"><ele>167.0</ele><time>2026-04-19T10:56:14.001Z</time></trkpt><trkpt lat="43.475060601877104" lon="10.668718359620069"><ele>167.0</ele><time>2026-04-19T10:56:15.001Z</time></trkpt><trkpt lat="43.47511393342399" lon="10.668788918625227"><ele>167.0</ele><time>2026-04-19T10:56:16.001Z</time></trkpt><trkpt lat="43.47520760300004" lon="10.668894695504177"><ele>167.0</ele><time>2026-04-19T10:56:18Z</time></trkpt><trkpt lat="43.4752716596345" lon="10.6689459324711"><ele>167.0</ele><time>2026-04-19T10:56:19Z</time></trkpt><trkpt lat="43.47535069473371" lon="10.668984211172113"><ele>167.0</ele><time>2026-04-19T10:56:20Z</time></trkpt><trkpt lat="43.47544136455544" lon="10.669016992847855"><ele>167.0</ele><time>2026-04-19T10:56:21Z</time></trkpt><trkpt lat="43.47553912518803" lon="10.669008401675951"><ele>164.79999999999998</ele><time>2026-04-19T10:56:22Z</time></trkpt><trkpt lat="43.47564019402033" lon="10.66897933114322"><ele>162.6</ele><time>2026-04-19T10:56:23Z</time></trkpt><trkpt lat="43.47573678858244" lon="10.66892483415868"><ele>160.39999999999998</ele><time>2026-04-19T10:56:24Z</time></trkpt><trkpt lat="43.47584130725404" lon="10.668894325335467"><ele>158.2</ele><time>2026-04-19T10:56:25Z</time></trkpt><trkpt lat="43.4759520620615" lon="10.668881579605799"><ele>156.0</ele><time>2026-04-19T10:56:26Z</time></trkpt><trkpt lat="43.47606259704349" lon="10.66884825701643"><ele>156.0</ele><time>2026-04-19T10:56:27Z</time></trkpt><trkpt lat="43.47617420299788" lon="10.668792148939003"><ele>156.0</ele><time>2026-04-19T10:56:28Z</time></trkpt><trkpt lat="43.47629378059556" lon="10.66876012004177"><ele>156.0</ele><time>2026-04-19T10:56:29Z</time></trkpt><trkpt lat="43.476417342333306" lon="10.668724128614365"><ele>156.0</ele><time>2026-04-19T10:56:30Z</time></trkpt><trkpt lat="43.47654556351485" lon="10.668705315810929"><ele>156.0</ele><time>2026-04-19T10:56:31Z</time></trkpt><trkpt lat="43.47666671415607" lon="10.66864698303637"><ele>156.0</ele><time>2026-04-19T10:56:32Z</time></trkpt><trkpt lat="43.47679567940512" lon="10.66863274511862"><ele>156.0</ele><time>2026-04-19T10:56:33Z</time></trkpt><trkpt lat="43.476921265970546" lon="10.668595536310422"><ele>156.0</ele><time>2026-04-19T10:56:34Z</time></trkpt><trkpt lat="43.47704623253868" lon="10.668561229793454"><ele>156.75</ele><time>2026-04-19T10:56:35Z</time></trkpt><trkpt lat="43.477169409767484" lon="10.668531683889677"><ele>157.5</ele><time>2026-04-19T10:56:36Z</time></trkpt><trkpt lat="43.47728340126186" lon="10.668504341333374"><ele>158.25</ele><time>2026-04-19T10:56:37Z</time></trkpt><trkpt lat="43.477389487829484" lon="10.668478894867832"><ele>159.0</ele><time>2026-04-19T10:56:38Z</time></trkpt><trkpt lat="43.4774907261511" lon="10.668454611358827"><ele>159.0</ele><time>2026-04-19T10:56:39Z</time></trkpt><trkpt lat="43.477582834082945" lon="10.66843399721416"><ele>159.0</ele><time>2026-04-19T10:56:40Z</time></trkpt><trkpt lat="43.4776564942039" lon="10.668418480552592"><ele>159.0</ele><time>2026-04-19T10:56:41Z</time></trkpt><trkpt lat="43.47771881524761" lon="10.668405352496078"><ele>159.0</ele><time>2026-04-19T10:56:42Z</time></trkpt><trkpt lat="43.477840650535946" lon="10.668380307578932"><ele>159.0</ele><time>2026-04-19T10:56:44Z</time></trkpt><trkpt lat="43.47796469621747" lon="10.668372638249732"><ele>158.5</ele><time>2026-04-19T10:56:46Z</time></trkpt><trkpt lat="43.47803255402233" lon="10.668380778011814"><ele>158.0</ele><time>2026-04-19T10:56:47Z</time></trkpt><trkpt lat="43.47810372418387" lon="10.668395874004148"><ele>157.5</ele><time>2026-04-19T10:56:48Z</time></trkpt><trkpt lat="43.47817807202221" lon="10.668415778051642"><ele>157.0</ele><time>2026-04-19T10:56:49Z</time></trkpt><trkpt lat="43.47825610655649" lon="10.668440787828905"><ele>156.5</ele><time>2026-04-19T10:56:50Z</time></trkpt><trkpt lat="43.47833859496615" lon="10.66846617371712"><ele>156.0</ele><time>2026-04-19T10:56:51Z</time></trkpt><trkpt lat="43.47842123585365" lon="10.668491119628701"><ele>156.0</ele><time>2026-04-19T10:56:52Z</time></trkpt><trkpt lat="43.47850211067281" lon="10.668515336680015"><ele>156.0</ele><time>2026-04-19T10:56:53Z</time></trkpt><trkpt lat="43.478582979616114" lon="10.668538575400873"><ele>156.0</ele><time>2026-04-19T10:56:54Z</time></trkpt><trkpt lat="43.478664653733" lon="10.668562045485174"><ele>156.0</ele><time>2026-04-19T10:56:55Z</time></trkpt><trkpt lat="43.47874826463188" lon="10.668581499190717"><ele>156.0</ele><time>2026-04-19T10:56:56Z</time></trkpt><trkpt lat="43.478829013898164" lon="10.668599374972125"><ele>156.0</ele><time>2026-04-19T10:56:57Z</time></trkpt><trkpt lat="43.478909225161516" lon="10.66861255976738"><ele>156.0</ele><time>2026-04-19T10:56:58Z</time></trkpt><trkpt lat="43.478985942623716" lon="10.668614011168392"><ele>156.0</ele><time>2026-04-19T10:56:59Z</time></trkpt><trkpt lat="43.47906383695071" lon="10.668609183672507"><ele>156.0</ele><time>2026-04-19T10:57:00Z</time></trkpt><trkpt lat="43.47913677937215" lon="10.66859707392354"><ele>156.0</ele><time>2026-04-19T10:57:01Z</time></trkpt><trkpt lat="43.47920406863087" lon="10.668574957817425"><ele>156.0</ele><time>2026-04-19T10:57:02Z</time></trkpt><trkpt lat="43.47926564471989" lon="10.668536766011522"><ele>156.0</ele><time>2026-04-19T10:57:03Z</time></trkpt><trkpt lat="43.47931835867101" lon="10.66848662638637"><ele>156.0</ele><time>2026-04-19T10:57:04Z</time></trkpt><trkpt lat="43.479376389369726" lon="10.668443723631107"><ele>156.0</ele><time>2026-04-19T10:57:05Z</time></trkpt><trkpt lat="43.4794370445981" lon="10.668393641115289"><ele>156.0</ele><time>2026-04-19T10:57:06Z</time></trkpt><trkpt lat="43.47950203375425" lon="10.66835555602109"><ele>156.0</ele><time>2026-04-19T10:57:07Z</time></trkpt><trkpt lat="43.479573485844526" lon="10.668324363062379"><ele>156.0</ele><time>2026-04-19T10:57:08Z</time></trkpt><trkpt lat="43.47965250692916" lon="10.668307166793998"><ele>156.0</ele><time>2026-04-19T10:57:09Z</time></trkpt><trkpt lat="43.47973540762671" lon="10.668344364152542"><ele>156.0</ele><time>2026-04-19T10:57:10Z</time></trkpt><trkpt lat="43.47980558231847" lon="10.668414725380313"><ele>155.83333333333334</ele><time>2026-04-19T10:57:11Z</time></trkpt><trkpt lat="43.47986414048885" lon="10.66850111462309"><ele>155.66666666666666</ele><time>2026-04-19T10:57:12Z</time></trkpt><trkpt lat="43.479913405375264" lon="10.6685951403022"><ele>155.5</ele><time>2026-04-19T10:57:13Z</time></trkpt><trkpt lat="43.47995998171527" lon="10.668696114572656"><ele>155.33333333333331</ele><time>2026-04-19T10:57:14Z</time></trkpt><trkpt lat="43.48000716074481" lon="10.66880480273673"><ele>155.16666666666666</ele><time>2026-04-19T10:57:15Z</time></trkpt><trkpt lat="43.480058490104696" lon="10.66891252499375"><ele>155.0</ele><time>2026-04-19T10:57:16Z</time></trkpt><trkpt lat="43.480115174930816" lon="10.669019477832062"><ele>155.0</ele><time>2026-04-19T10:57:17Z</time></trkpt><trkpt lat="43.480174218495755" lon="10.669125425909584"><ele>155.0</ele><time>2026-04-19T10:57:18Z</time></trkpt><trkpt lat="43.48023438247076" lon="10.669231024316703"><ele>155.0</ele><time>2026-04-19T10:57:19Z</time></trkpt><trkpt lat="43.48029849873302" lon="10.669335704884748"><ele>155.0</ele><time>2026-04-19T10:57:20Z</time></trkpt><trkpt lat="43.48036275049107" lon="10.669441368684145"><ele>155.0</ele><time>2026-04-19T10:57:21Z</time></trkpt><trkpt lat="43.48042759017567" lon="10.66954467171489"><ele>155.5</ele><time>2026-04-19T10:57:22Z</time></trkpt><trkpt lat="43.48049029412659" lon="10.669644315891947"><ele>156.0</ele><time>2026-04-19T10:57:23Z</time></trkpt><trkpt lat="43.48055094433244" lon="10.669741331288936"><ele>156.5</ele><time>2026-04-19T10:57:24Z</time></trkpt><trkpt lat="43.480609490352215" lon="10.669832834324158"><ele>157.0</ele><time>2026-04-19T10:57:25Z</time></trkpt><trkpt lat="43.48066615764525" lon="10.669920983433892"><ele>157.5</ele><time>2026-04-19T10:57:26Z</time></trkpt><trkpt lat="43.480721832517126" lon="10.670006501455086"><ele>158.0</ele><time>2026-04-19T10:57:27Z</time></trkpt><trkpt lat="43.48077642166889" lon="10.670089696541096"><ele>158.0</ele><time>2026-04-19T10:57:28Z</time></trkpt><trkpt lat="43.48082769223213" lon="10.67017311969483"><ele>158.0</ele><time>2026-04-19T10:57:29Z</time></trkpt><trkpt lat="43.48087116423706" lon="10.670264447565701"><ele>158.0</ele><time>2026-04-19T10:57:30Z</time></trkpt><trkpt lat="43.48090385433975" lon="10.670365549047538"><ele>158.0</ele><time>2026-04-19T10:57:31Z</time></trkpt><trkpt lat="43.48092017281813" lon="10.670476555900134"><ele>158.0</ele><time>2026-04-19T10:57:32Z</time></trkpt><trkpt lat="43.48092132118873" lon="10.67058874331226"><ele>158.0</ele><time>2026-04-19T10:57:33Z</time></trkpt><trkpt lat="43.480902123323666" lon="10.670700086932179"><ele>158.33333333333331</ele><time>2026-04-19T10:57:34Z</time></trkpt><trkpt lat="43.48087592699067" lon="10.670808587677396"><ele>158.66666666666666</ele><time>2026-04-19T10:57:35Z</time></trkpt><trkpt lat="43.48085130096602" lon="10.670917659770954"><ele>159.0</ele><time>2026-04-19T10:57:36Z</time></trkpt><trkpt lat="43.48083369535225" lon="10.671030577462775"><ele>159.33333333333334</ele><time>2026-04-19T10:57:37Z</time></trkpt><trkpt lat="43.480831437367456" lon="10.671153224576647"><ele>159.66666666666669</ele><time>2026-04-19T10:57:38Z</time></trkpt><trkpt lat="43.48084545456353" lon="10.671280240632152"><ele>160.0</ele><time>2026-04-19T10:57:39Z</time></trkpt><trkpt lat="43.48087321921659" lon="10.671413053254959"><ele>158.0</ele><time>2026-04-19T10:57:40Z</time></trkpt><trkpt lat="43.48090687065392" lon="10.671552536947098"><ele>156.0</ele><time>2026-04-19T10:57:41Z</time></trkpt><trkpt lat="43.480942225050406" lon="10.671703187029017"><ele>154.0</ele><time>2026-04-19T10:57:42Z</time></trkpt><trkpt lat="43.480980397532164" lon="10.671862760234085"><ele>152.0</ele><time>2026-04-19T10:57:43Z</time></trkpt><trkpt lat="43.481019512132406" lon="10.672028511012885"><ele>150.0</ele><time>2026-04-19T10:57:44Z</time></trkpt><trkpt lat="43.48105840941969" lon="10.672193675887165"><ele>148.0</ele><time>2026-04-19T10:57:45Z</time></trkpt><trkpt lat="43.48109550555488" lon="10.672355990555861"><ele>146.0</ele><time>2026-04-19T10:57:46Z</time></trkpt><trkpt lat="43.481135301557345" lon="10.672508764069898"><ele>144.0</ele><time>2026-04-19T10:57:47Z</time></trkpt><trkpt lat="43.481176361764824" lon="10.672651211313099"><ele>143.4</ele><time>2026-04-19T10:57:48Z</time></trkpt><trkpt lat="43.48121859396942" lon="10.672795918715332"><ele>142.8</ele><time>2026-04-19T10:57:49Z</time></trkpt><trkpt lat="43.48126561566315" lon="10.6729300393931"><ele>142.2</ele><time>2026-04-19T10:57:50Z</time></trkpt><trkpt lat="43.481312010432035" lon="10.673052452971303"><ele>141.6</ele><time>2026-04-19T10:57:51Z</time></trkpt><trkpt lat="43.48135565501605" lon="10.673181179053053"><ele>141.0</ele><time>2026-04-19T10:57:52Z</time></trkpt><trkpt lat="43.48139696630056" lon="10.673299029257818"><ele>140.33333333333334</ele><time>2026-04-19T10:57:53Z</time></trkpt><trkpt lat="43.48143936178133" lon="10.673403686524804"><ele>139.66666666666666</ele><time>2026-04-19T10:57:54Z</time></trkpt><trkpt lat="43.48149135362034" lon="10.673505389156253"><ele>139.0</ele><time>2026-04-19T10:57:55Z</time></trkpt><trkpt lat="43.48154995708327" lon="10.673590396619973"><ele>138.33333333333331</ele><time>2026-04-19T10:57:56Z</time></trkpt><trkpt lat="43.481606097214716" lon="10.673682988314468"><ele>137.66666666666666</ele><time>2026-04-19T10:57:57Z</time></trkpt><trkpt lat="43.481695322546976" lon="10.673716824823213"><ele>137.0</ele><time>2026-04-19T10:57:58Z</time></trkpt><trkpt lat="43.48177577400004" lon="10.673746138016428"><ele>137.0</ele><time>2026-04-19T10:57:59Z</time></trkpt><trkpt lat="43.48184670337125" lon="10.673780656396254"><ele>137.0</ele><time>2026-04-19T10:58:00Z</time></trkpt><trkpt lat="43.481969535222376" lon="10.673800111382578"><ele>137.0</ele><time>2026-04-19T10:58:02.001Z</time></trkpt><trkpt lat="43.482035879785144" lon="10.673804666584518"><ele>137.0</ele><time>2026-04-19T10:58:03.001Z</time></trkpt><trkpt lat="43.482145161713774" lon="10.673821557283647"><ele>137.0</ele><time>2026-04-19T10:58:05.001Z</time></trkpt><trkpt lat="43.48218776459448" lon="10.673885531291477"><ele>137.0</ele><time>2026-04-19T10:58:06.001Z</time></trkpt><trkpt lat="43.482219811996266" lon="10.673975634052162"><ele>137.0</ele><time>2026-04-19T10:58:07.001Z</time></trkpt><trkpt lat="43.482251007887555" lon="10.674079667272755"><ele>137.0</ele><time>2026-04-19T10:58:08.001Z</time></trkpt><trkpt lat="43.482283862986684" lon="10.674195599216102"><ele>137.0</ele><time>2026-04-19T10:58:09.001Z</time></trkpt><trkpt lat="43.48231477671372" lon="10.674321027450466"><ele>137.0</ele><time>2026-04-19T10:58:10.001Z</time></trkpt><trkpt lat="43.48233881107421" lon="10.674455834426542"><ele>137.0</ele><time>2026-04-19T10:58:11.001Z</time></trkpt><trkpt lat="43.48235017504593" lon="10.674594411020092"><ele>137.4</ele><time>2026-04-19T10:58:12.001Z</time></trkpt><trkpt lat="43.48234530149422" lon="10.674737662686546"><ele>137.79999999999998</ele><time>2026-04-19T10:58:13.001Z</time></trkpt><trkpt lat="43.48233263686537" lon="10.67488455584529"><ele>138.2</ele><time>2026-04-19T10:58:14.001Z</time></trkpt><trkpt lat="43.48230637087866" lon="10.675033591854808"><ele>138.6</ele><time>2026-04-19T10:58:15.001Z</time></trkpt><trkpt lat="43.48227131593343" lon="10.675188958319897"><ele>139.0</ele><time>2026-04-19T10:58:16.001Z</time></trkpt><trkpt lat="43.482231837874835" lon="10.675350106001169"><ele>137.75</ele><time>2026-04-19T10:58:17.001Z</time></trkpt><trkpt lat="43.48218807513116" lon="10.675509485757967"><ele>136.5</ele><time>2026-04-19T10:58:18.001Z</time></trkpt><trkpt lat="43.482141343642795" lon="10.675667593950225"><ele>135.25</ele><time>2026-04-19T10:58:19.001Z</time></trkpt><trkpt lat="43.48209347115738" lon="10.675823571934922"><ele>134.0</ele><time>2026-04-19T10:58:20.001Z</time></trkpt><trkpt lat="43.48204699716803" lon="10.67598126893043"><ele>133.0</ele><time>2026-04-19T10:58:21.001Z</time></trkpt><trkpt lat="43.481998937380105" lon="10.676141851141837"><ele>132.0</ele><time>2026-04-19T10:58:22.001Z</time></trkpt><trkpt lat="43.48193826479917" lon="10.676297351036736"><ele>131.0</ele><time>2026-04-19T10:58:23Z</time></trkpt><trkpt lat="43.481887828698255" lon="10.67646144342782"><ele>130.0</ele><time>2026-04-19T10:58:24Z</time></trkpt><trkpt lat="43.48183812247447" lon="10.676624422281012"><ele>130.0</ele><time>2026-04-19T10:58:25Z</time></trkpt><trkpt lat="43.481788690663514" lon="10.676785566715607"><ele>130.0</ele><time>2026-04-19T10:58:26Z</time></trkpt><trkpt lat="43.48174071715124" lon="10.676945182865408"><ele>130.0</ele><time>2026-04-19T10:58:27Z</time></trkpt><trkpt lat="43.48169305053566" lon="10.677103859390773"><ele>130.0</ele><time>2026-04-19T10:58:28Z</time></trkpt><trkpt lat="43.48164344343448" lon="10.677263430183435"><ele>129.25</ele><time>2026-04-19T10:58:29Z</time></trkpt><trkpt lat="43.481590665223365" lon="10.677423031528173"><ele>128.5</ele><time>2026-04-19T10:58:30Z</time></trkpt><trkpt lat="43.48153992294182" lon="10.677583532511141"><ele>127.75</ele><time>2026-04-19T10:58:31Z</time></trkpt><trkpt lat="43.481489317662" lon="10.67774457536691"><ele>127.0</ele><time>2026-04-19T10:58:32Z</time></trkpt><trkpt lat="43.481447586959334" lon="10.677912498739403"><ele>126.5</ele><time>2026-04-19T10:58:33Z</time></trkpt><trkpt lat="43.48141471046164" lon="10.67808722758387"><ele>126.0</ele><time>2026-04-19T10:58:34Z</time></trkpt><trkpt lat="43.48138886662223" lon="10.678267731380094"><ele>125.5</ele><time>2026-04-19T10:58:35Z</time></trkpt><trkpt lat="43.48137028794771" lon="10.678453026664524"><ele>125.0</ele><time>2026-04-19T10:58:36Z</time></trkpt><trkpt lat="43.481357635639284" lon="10.67864144306888"><ele>124.5</ele><time>2026-04-19T10:58:37Z</time></trkpt><trkpt lat="43.48134564798642" lon="10.678834974090028"><ele>124.0</ele><time>2026-04-19T10:58:38Z</time></trkpt><trkpt lat="43.4813345291154" lon="10.679029934408293"><ele>123.5</ele><time>2026-04-19T10:58:39Z</time></trkpt><trkpt lat="43.48132540308945" lon="10.679226818158341"><ele>123.0</ele><time>2026-04-19T10:58:40Z</time></trkpt><trkpt lat="43.481316195591546" lon="10.679426661219553"><ele>122.5</ele><time>2026-04-19T10:58:41Z</time></trkpt><trkpt lat="43.481307654045516" lon="10.679627336508903"><ele>122.0</ele><time>2026-04-19T10:58:42Z</time></trkpt><trkpt lat="43.48129754113058" lon="10.679828784855724"><ele>121.5</ele><time>2026-04-19T10:58:43Z</time></trkpt><trkpt lat="43.4812865404519" lon="10.680033940102035"><ele>121.0</ele><time>2026-04-19T10:58:44Z</time></trkpt><trkpt lat="43.48127523842831" lon="10.680239219672167"><ele>120.66666666666667</ele><time>2026-04-19T10:58:45Z</time></trkpt><trkpt lat="43.48126494787114" lon="10.680448560583443"><ele>120.33333333333334</ele><time>2026-04-19T10:58:46Z</time></trkpt><trkpt lat="43.48125444437969" lon="10.68066132110217"><ele>120.0</ele><time>2026-04-19T10:58:47Z</time></trkpt><trkpt lat="43.481243040684944" lon="10.68087486452095"><ele>120.0</ele><time>2026-04-19T10:58:48Z</time></trkpt><trkpt lat="43.48122975980751" lon="10.681092761307381"><ele>120.0</ele><time>2026-04-19T10:58:49Z</time></trkpt><trkpt lat="43.48121666294385" lon="10.681307898356366"><ele>120.0</ele><time>2026-04-19T10:58:50Z</time></trkpt><trkpt lat="43.48120050228956" lon="10.681517085662724"><ele>119.75</ele><time>2026-04-19T10:58:51Z</time></trkpt><trkpt lat="43.48118200350752" lon="10.68172096598696"><ele>119.5</ele><time>2026-04-19T10:58:52Z</time></trkpt><trkpt lat="43.481162687171064" lon="10.681915045769681"><ele>119.25</ele><time>2026-04-19T10:58:53Z</time></trkpt><trkpt lat="43.48114590989402" lon="10.682101387372972"><ele>119.0</ele><time>2026-04-19T10:58:54Z</time></trkpt><trkpt lat="43.48113566219002" lon="10.682283102469697"><ele>118.75</ele><time>2026-04-19T10:58:55Z</time></trkpt><trkpt lat="43.481126512896765" lon="10.682464999535824"><ele>118.5</ele><time>2026-04-19T10:58:56Z</time></trkpt><trkpt lat="43.481114344169185" lon="10.682642469278708"><ele>118.25</ele><time>2026-04-19T10:58:57Z</time></trkpt><trkpt lat="43.4811041598366" lon="10.682818710428231"><ele>118.0</ele><time>2026-04-19T10:58:58Z</time></trkpt><trkpt lat="43.48110046702643" lon="10.682990925784377"><ele>117.5</ele><time>2026-04-19T10:58:59Z</time></trkpt><trkpt lat="43.481111663952284" lon="10.683165872704741"><ele>117.0</ele><time>2026-04-19T10:59:00Z</time></trkpt><trkpt lat="43.4811441949464" lon="10.68334169359886"><ele>116.5</ele><time>2026-04-19T10:59:01Z</time></trkpt><trkpt lat="43.48119588546427" lon="10.683511168416379"><ele>116.0</ele><time>2026-04-19T10:59:02Z</time></trkpt><trkpt lat="43.481260624640775" lon="10.683680146992131"><ele>116.0</ele><time>2026-04-19T10:59:03Z</time></trkpt><trkpt lat="43.481329499081426" lon="10.683851527366308"><ele>116.0</ele><time>2026-04-19T10:59:04Z</time></trkpt><trkpt lat="43.48139381142959" lon="10.684026509539972"><ele>116.0</ele><time>2026-04-19T10:59:05Z</time></trkpt><trkpt lat="43.48145326732921" lon="10.684206890977581"><ele>116.0</ele><time>2026-04-19T10:59:06Z</time></trkpt><trkpt lat="43.48150233092291" lon="10.684391146250599"><ele>115.75</ele><time>2026-04-19T10:59:07Z</time></trkpt><trkpt lat="43.481538675422044" lon="10.684579196751377"><ele>115.5</ele><time>2026-04-19T10:59:08Z</time></trkpt><trkpt lat="43.48156803941484" lon="10.684769226280265"><ele>115.25</ele><time>2026-04-19T10:59:09Z</time></trkpt><trkpt lat="43.48159895542499" lon="10.684958198063343"><ele>115.0</ele><time>2026-04-19T10:59:10Z</time></trkpt><trkpt lat="43.48162743116245" lon="10.685147051696564"><ele>114.5</ele><time>2026-04-19T10:59:11Z</time></trkpt><trkpt lat="43.48165475348396" lon="10.685336691871795"><ele>114.0</ele><time>2026-04-19T10:59:12Z</time></trkpt><trkpt lat="43.48168091696854" lon="10.68552447091954"><ele>113.5</ele><time>2026-04-19T10:59:13Z</time></trkpt><trkpt lat="43.48169110665132" lon="10.685711092719997"><ele>113.0</ele><time>2026-04-19T10:59:14Z</time></trkpt><trkpt lat="43.48168341381893" lon="10.68590170767382"><ele>113.0</ele><time>2026-04-19T10:59:15Z</time></trkpt><trkpt lat="43.4816402499566" lon="10.686069919442152"><ele>113.0</ele><time>2026-04-19T10:59:16Z</time></trkpt><trkpt lat="43.48159222492388" lon="10.686232174089177"><ele>113.0</ele><time>2026-04-19T10:59:17Z</time></trkpt><trkpt lat="43.48155023447669" lon="10.686403948422278"><ele>113.0</ele><time>2026-04-19T10:59:18Z</time></trkpt><trkpt lat="43.481514773975356" lon="10.686579138454082"><ele>113.25</ele><time>2026-04-19T10:59:19Z</time></trkpt><trkpt lat="43.481483075678916" lon="10.686759895289136"><ele>113.5</ele><time>2026-04-19T10:59:20Z</time></trkpt><trkpt lat="43.48145463435465" lon="10.686939911781893"><ele>113.75</ele><time>2026-04-19T10:59:21Z</time></trkpt><trkpt lat="43.481423552926266" lon="10.68711838519895"><ele>114.0</ele><time>2026-04-19T10:59:22Z</time></trkpt><trkpt lat="43.4813891406141" lon="10.687295740180584"><ele>114.75</ele><time>2026-04-19T10:59:23Z</time></trkpt><trkpt lat="43.48135372650467" lon="10.687471629906922"><ele>115.5</ele><time>2026-04-19T10:59:24Z</time></trkpt><trkpt lat="43.48132409500107" lon="10.687644521053716"><ele>116.25</ele><time>2026-04-19T10:59:25Z</time></trkpt><trkpt lat="43.481304923093894" lon="10.687813229580474"><ele>117.0</ele><time>2026-04-19T10:59:26Z</time></trkpt><trkpt lat="43.48129401974236" lon="10.687988049003089"><ele>117.25</ele><time>2026-04-19T10:59:27Z</time></trkpt><trkpt lat="43.4812874447427" lon="10.68816610032863"><ele>117.5</ele><time>2026-04-19T10:59:28Z</time></trkpt><trkpt lat="43.48129284332113" lon="10.688348660682124"><ele>117.75</ele><time>2026-04-19T10:59:29Z</time></trkpt><trkpt lat="43.481305897116435" lon="10.688535787190533"><ele>118.0</ele><time>2026-04-19T10:59:30Z</time></trkpt><trkpt lat="43.481321702072805" lon="10.688725917393255"><ele>117.0</ele><time>2026-04-19T10:59:31Z</time></trkpt><trkpt lat="43.48133693368055" lon="10.688919199143102"><ele>116.0</ele><time>2026-04-19T10:59:32Z</time></trkpt><trkpt lat="43.48134947133118" lon="10.689109099781229"><ele>115.0</ele><time>2026-04-19T10:59:33Z</time></trkpt><trkpt lat="43.48136336642226" lon="10.68929255226929"><ele>114.0</ele><time>2026-04-19T10:59:34Z</time></trkpt><trkpt lat="43.48137970504478" lon="10.6894750272281"><ele>113.25</ele><time>2026-04-19T10:59:35Z</time></trkpt><trkpt lat="43.48139410937888" lon="10.689653004684304"><ele>112.5</ele><time>2026-04-19T10:59:36Z</time></trkpt><trkpt lat="43.481398986631696" lon="10.689833391927673"><ele>111.75</ele><time>2026-04-19T10:59:37Z</time></trkpt><trkpt lat="43.481392947536385" lon="10.690017818328164"><ele>111.0</ele><time>2026-04-19T10:59:38Z</time></trkpt><trkpt lat="43.48137571597187" lon="10.69020422312222"><ele>111.0</ele><time>2026-04-19T10:59:39Z</time></trkpt><trkpt lat="43.48135044519891" lon="10.690392390926789"><ele>111.0</ele><time>2026-04-19T10:59:40Z</time></trkpt><trkpt lat="43.481317967397025" lon="10.690580681563302"><ele>111.0</ele><time>2026-04-19T10:59:41Z</time></trkpt><trkpt lat="43.48128427281178" lon="10.690770273339487"><ele>111.0</ele><time>2026-04-19T10:59:42Z</time></trkpt><trkpt lat="43.48124966589615" lon="10.69096348692165"><ele>110.5</ele><time>2026-04-19T10:59:43Z</time></trkpt><trkpt lat="43.481213099994854" lon="10.691156683356773"><ele>110.0</ele><time>2026-04-19T10:59:44Z</time></trkpt><trkpt lat="43.481175933892715" lon="10.69135191526691"><ele>109.5</ele><time>2026-04-19T10:59:45Z</time></trkpt><trkpt lat="43.48113709854092" lon="10.69154798042229"><ele>109.0</ele><time>2026-04-19T10:59:46Z</time></trkpt><trkpt lat="43.481101335784" lon="10.69174388521237"><ele>108.33333333333334</ele><time>2026-04-19T10:59:47Z</time></trkpt><trkpt lat="43.481068479763145" lon="10.691944727102689"><ele>107.66666666666666</ele><time>2026-04-19T10:59:48Z</time></trkpt><trkpt lat="43.48103969359654" lon="10.692148088069954"><ele>107.0</ele><time>2026-04-19T10:59:49Z</time></trkpt><trkpt lat="43.48101204325208" lon="10.692351276091097"><ele>107.0</ele><time>2026-04-19T10:59:50Z</time></trkpt><trkpt lat="43.48098369595377" lon="10.692555915494244"><ele>107.0</ele><time>2026-04-19T10:59:51Z</time></trkpt><trkpt lat="43.48094430337347" lon="10.692756744025049"><ele>107.0</ele><time>2026-04-19T10:59:52Z</time></trkpt><trkpt lat="43.480886950152616" lon="10.6929475607909"><ele>106.75</ele><time>2026-04-19T10:59:53Z</time></trkpt><trkpt lat="43.48081900483941" lon="10.693131990593617"><ele>106.5</ele><time>2026-04-19T10:59:54Z</time></trkpt><trkpt lat="43.48074683005818" lon="10.693313884521576"><ele>106.25</ele><time>2026-04-19T10:59:55Z</time></trkpt><trkpt lat="43.48066724688422" lon="10.693485707161186"><ele>106.0</ele><time>2026-04-19T10:59:56Z</time></trkpt><trkpt lat="43.480576071158524" lon="10.69364200725461"><ele>106.25</ele><time>2026-04-19T10:59:57Z</time></trkpt><trkpt lat="43.48046432336788" lon="10.693764939227894"><ele>106.5</ele><time>2026-04-19T10:59:58Z</time></trkpt><trkpt lat="43.48032465751068" lon="10.693796581883161"><ele>106.75</ele><time>2026-04-19T10:59:59Z</time></trkpt><trkpt lat="43.480193003120185" lon="10.693859786472963"><ele>107.0</ele><time>2026-04-19T11:00:00Z</time></trkpt><trkpt lat="43.480076846623525" lon="10.693969758869434"><ele>107.0</ele><time>2026-04-19T11:00:01Z</time></trkpt><trkpt lat="43.47995948473842" lon="10.694076661813249"><ele>107.0</ele><time>2026-04-19T11:00:02Z</time></trkpt><trkpt lat="43.4798524430487" lon="10.694210140145866"><ele>107.0</ele><time>2026-04-19T11:00:03Z</time></trkpt><trkpt lat="43.47974549679639" lon="10.694348249616409"><ele>107.0</ele><time>2026-04-19T11:00:04Z</time></trkpt><trkpt lat="43.47964252437916" lon="10.694495226221692"><ele>105.66666666666666</ele><time>2026-04-19T11:00:05Z</time></trkpt><trkpt lat="43.47954392149829" lon="10.694653888059383"><ele>104.33333333333334</ele><time>2026-04-19T11:00:06Z</time></trkpt><trkpt lat="43.47944907439155" lon="10.694820641287478"><ele>103.0</ele><time>2026-04-19T11:00:07Z</time></trkpt><trkpt lat="43.479359464609125" lon="10.69499871654516"><ele>103.0</ele><time>2026-04-19T11:00:08Z</time></trkpt><trkpt lat="43.479278596005834" lon="10.69518370974721"><ele>103.0</ele><time>2026-04-19T11:00:09Z</time></trkpt><trkpt lat="43.47920453260873" lon="10.695376644525833"><ele>103.0</ele><time>2026-04-19T11:00:10Z</time></trkpt><trkpt lat="43.479136925386946" lon="10.695573477420895"><ele>103.33333333333334</ele><time>2026-04-19T11:00:11Z</time></trkpt><trkpt lat="43.479081211802885" lon="10.695779151115978"><ele>103.66666666666666</ele><time>2026-04-19T11:00:12Z</time></trkpt><trkpt lat="43.479027852749994" lon="10.695985962999432"><ele>104.0</ele><time>2026-04-19T11:00:13Z</time></trkpt><trkpt lat="43.4789847453271" lon="10.696194516811918"><ele>104.0</ele><time>2026-04-19T11:00:14Z</time></trkpt><trkpt lat="43.478948832891135" lon="10.696400638281917"><ele>104.0</ele><time>2026-04-19T11:00:15Z</time></trkpt><trkpt lat="43.47891242655681" lon="10.696602445240906"><ele>104.0</ele><time>2026-04-19T11:00:16Z</time></trkpt><trkpt lat="43.4788773006246" lon="10.696803019032648"><ele>104.0</ele><time>2026-04-19T11:00:17Z</time></trkpt><trkpt lat="43.47883936920649" lon="10.696999138667145"><ele>104.0</ele><time>2026-04-19T11:00:18Z</time></trkpt><trkpt lat="43.478788871532075" lon="10.697186678025128"><ele>104.0</ele><time>2026-04-19T11:00:19Z</time></trkpt><trkpt lat="43.4787110404525" lon="10.697352744998557"><ele>104.0</ele><time>2026-04-19T11:00:20Z</time></trkpt><trkpt lat="43.47860827314181" lon="10.69748692963722"><ele>102.5</ele><time>2026-04-19T11:00:21Z</time></trkpt><trkpt lat="43.478491498719556" lon="10.697590273494324"><ele>101.0</ele><time>2026-04-19T11:00:22Z</time></trkpt><trkpt lat="43.478383184108445" lon="10.697677526807247"><ele>99.5</ele><time>2026-04-19T11:00:23Z</time></trkpt><trkpt lat="43.47829205652254" lon="10.697748980511255"><ele>98.0</ele><time>2026-04-19T11:00:24Z</time></trkpt><trkpt lat="43.47820442633692" lon="10.697814391410885"><ele>97.60000000000001</ele><time>2026-04-19T11:00:25Z</time></trkpt><trkpt lat="43.47811405528751" lon="10.697876376501714"><ele>97.2</ele><time>2026-04-19T11:00:26.001Z</time></trkpt><trkpt lat="43.478025685893684" lon="10.697938910993733"><ele>96.8</ele><time>2026-04-19T11:00:27Z</time></trkpt><trkpt lat="43.47794138849355" lon="10.698004110591043"><ele>96.4</ele><time>2026-04-19T11:00:28Z</time></trkpt><trkpt lat="43.47786341838036" lon="10.698071347494048"><ele>96.0</ele><time>2026-04-19T11:00:28.999Z</time></trkpt><trkpt lat="43.4777933424169" lon="10.698137463572412"><ele>96.0</ele><time>2026-04-19T11:00:29.999Z</time></trkpt><trkpt lat="43.47773067828149" lon="10.698203494752407"><ele>96.0</ele><time>2026-04-19T11:00:30.999Z</time></trkpt><trkpt lat="43.47767652394346" lon="10.698270351691239"><ele>96.0</ele><time>2026-04-19T11:00:31.999Z</time></trkpt><trkpt lat="43.47763258538307" lon="10.698334989481877"><ele>96.0</ele><time>2026-04-19T11:00:32.999Z</time></trkpt><trkpt lat="43.47757425874994" lon="10.698436387992215"><ele>96.0</ele><time>2026-04-19T11:00:34.999Z</time></trkpt><trkpt lat="43.47752095866541" lon="10.698509188133444"><ele>96.0</ele><time>2026-04-19T11:00:36.999Z</time></trkpt><trkpt lat="43.47745979051348" lon="10.698452879745151"><ele>96.0</ele><time>2026-04-19T11:00:38.999Z</time></trkpt><trkpt lat="43.477391727029904" lon="10.698368010672661"><ele>96.0</ele><time>2026-04-19T11:00:40.999Z</time></trkpt><trkpt lat="43.47733866584551" lon="10.698301869721913"><ele>96.0</ele><time>2026-04-19T11:00:43.999Z</time></trkpt><trkpt lat="43.4772072030859" lon="10.698414254824085"><ele>96.0</ele><time>2026-04-19T11:00:46.999Z</time></trkpt><trkpt lat="43.47714357958837" lon="10.698444041868301"><ele>96.0</ele><time>2026-04-19T11:00:48.999Z</time></trkpt><trkpt lat="43.47707172315548" lon="10.698521577082479"><ele>95.83333333333333</ele><time>2026-04-19T11:00:52Z</time></trkpt><trkpt lat="43.47702337277774" lon="10.69859087427685"><ele>95.66666666666667</ele><time>2026-04-19T11:00:54Z</time></trkpt><trkpt lat="43.476978316608054" lon="10.698685457505023"><ele>95.5</ele><time>2026-04-19T11:01:00Z</time></trkpt><trkpt lat="43.476939147224414" lon="10.698770939274684"><ele>95.33333333333334</ele><time>2026-04-19T11:01:04Z</time></trkpt><trkpt lat="43.47692501862141" lon="10.698882709877898"><ele>95.16666666666667</ele><time>2026-04-19T11:01:08Z</time></trkpt><trkpt lat="43.47691964522195" lon="10.698990021901734"><ele>95.0</ele><time>2026-04-19T11:01:12Z</time></trkpt><trkpt lat="43.4769082997782" lon="10.699084738415394"><ele>95.0</ele><time>2026-04-19T11:01:15Z</time></trkpt><trkpt lat="43.476872656945524" lon="10.699203553237092"><ele>95.0</ele><time>2026-04-19T11:01:18Z</time></trkpt><trkpt lat="43.476870881801794" lon="10.699311600766391"><ele>95.0</ele><time>2026-04-19T11:01:20Z</time></trkpt><trkpt lat="43.47689980043458" lon="10.699412647312908"><ele>95.0</ele><time>2026-04-19T11:01:22Z</time></trkpt><trkpt lat="43.47692325253236" lon="10.699499635762189"><ele>95.0</ele><time>2026-04-19T11:01:24Z</time></trkpt><trkpt lat="43.476917330579745" lon="10.69961615482822"><ele>95.0</ele><time>2026-04-19T11:01:26Z</time></trkpt><trkpt lat="43.47688595049467" lon="10.69972114817418"><ele>95.0</ele><time>2026-04-19T11:01:28Z</time></trkpt><trkpt lat="43.47685133554714" lon="10.699834402500565"><ele>95.0</ele><time>2026-04-19T11:01:30Z</time></trkpt><trkpt lat="43.47683704412829" lon="10.699962042197138"><ele>95.0</ele><time>2026-04-19T11:01:32Z</time></trkpt><trkpt lat="43.47683301866316" lon="10.700128383771325"><ele>95.0</ele><time>2026-04-19T11:01:34Z</time></trkpt><trkpt lat="43.476806691887944" lon="10.700283241422664"><ele>95.0</ele><time>2026-04-19T11:01:36Z</time></trkpt><trkpt lat="43.47677576848706" lon="10.70043427723412"><ele>95.16666666666667</ele><time>2026-04-19T11:01:38Z</time></trkpt><trkpt lat="43.47673501755549" lon="10.700605263959595"><ele>95.33333333333334</ele><time>2026-04-19T11:01:40Z</time></trkpt><trkpt lat="43.476707909542355" lon="10.700694950357125"><ele>95.5</ele><time>2026-04-19T11:01:41Z</time></trkpt><trkpt lat="43.476678548411314" lon="10.70078417368401"><ele>95.66666666666667</ele><time>2026-04-19T11:01:42Z</time></trkpt><trkpt lat="43.476649227515416" lon="10.700871730421163"><ele>95.83333333333333</ele><time>2026-04-19T11:01:43Z</time></trkpt><trkpt lat="43.47662073121846" lon="10.700962317836344"><ele>96.0</ele><time>2026-04-19T11:01:44Z</time></trkpt><trkpt lat="43.4765932204497" lon="10.70105521943662"><ele>95.71428571428571</ele><time>2026-04-19T11:01:45Z</time></trkpt><trkpt lat="43.47656558066058" lon="10.701150839958826"><ele>95.42857142857143</ele><time>2026-04-19T11:01:46Z</time></trkpt><trkpt lat="43.476537606877656" lon="10.701245157963275"><ele>95.14285714285714</ele><time>2026-04-19T11:01:47Z</time></trkpt><trkpt lat="43.47650934468644" lon="10.701340010821525"><ele>94.85714285714286</ele><time>2026-04-19T11:01:48Z</time></trkpt><trkpt lat="43.47648157470615" lon="10.7014350847567"><ele>94.57142857142857</ele><time>2026-04-19T11:01:49Z</time></trkpt><trkpt lat="43.47645428286925" lon="10.701530352224411"><ele>94.28571428571428</ele><time>2026-04-19T11:01:50Z</time></trkpt><trkpt lat="43.47642627737875" lon="10.70162536795139"><ele>94.0</ele><time>2026-04-19T11:01:51Z</time></trkpt><trkpt lat="43.47639784651971" lon="10.70172096924363"><ele>94.0</ele><time>2026-04-19T11:01:52Z</time></trkpt><trkpt lat="43.47636894902474" lon="10.701816621649904"><ele>94.0</ele><time>2026-04-19T11:01:53Z</time></trkpt><trkpt lat="43.47633933784261" lon="10.70191417702576"><ele>94.0</ele><time>2026-04-19T11:01:54Z</time></trkpt><trkpt lat="43.476309114715825" lon="10.702012868496473"><ele>94.0</ele><time>2026-04-19T11:01:55Z</time></trkpt><trkpt lat="43.47628204050148" lon="10.70211003663729"><ele>94.0</ele><time>2026-04-19T11:01:56Z</time></trkpt><trkpt lat="43.47625280907868" lon="10.702209814831479"><ele>94.0</ele><time>2026-04-19T11:01:57Z</time></trkpt><trkpt lat="43.47622331871433" lon="10.702312414210027"><ele>94.16666666666666</ele><time>2026-04-19T11:01:58Z</time></trkpt><trkpt lat="43.476191253212484" lon="10.702414432410608"><ele>94.33333333333333</ele><time>2026-04-19T11:01:59Z</time></trkpt><trkpt lat="43.47615852326582" lon="10.702519108663832"><ele>94.5</ele><time>2026-04-19T11:02:00Z</time></trkpt><trkpt lat="43.4761250704143" lon="10.702625320406728"><ele>94.66666666666667</ele><time>2026-04-19T11:02:01Z</time></trkpt><trkpt lat="43.47609161154955" lon="10.702732969889347"><ele>94.83333333333334</ele><time>2026-04-19T11:02:02Z</time></trkpt><trkpt lat="43.476059950125936" lon="10.70283703284125"><ele>95.0</ele><time>2026-04-19T11:02:03Z</time></trkpt><trkpt lat="43.47602872763855" lon="10.702942900396941"><ele>95.0</ele><time>2026-04-19T11:02:04Z</time></trkpt><trkpt lat="43.47599749948275" lon="10.703049354734175"><ele>95.0</ele><time>2026-04-19T11:02:05Z</time></trkpt><trkpt lat="43.47596558900777" lon="10.703157855973599"><ele>95.0</ele><time>2026-04-19T11:02:06Z</time></trkpt><trkpt lat="43.47593372239148" lon="10.703269147976345"><ele>95.0</ele><time>2026-04-19T11:02:07Z</time></trkpt><trkpt lat="43.475904917182895" lon="10.703385727252863"><ele>95.0</ele><time>2026-04-19T11:02:08Z</time></trkpt><trkpt lat="43.47587317715867" lon="10.703505708051155"><ele>95.0</ele><time>2026-04-19T11:02:09Z</time></trkpt><trkpt lat="43.475837055578275" lon="10.703624241987612"><ele>94.83333333333334</ele><time>2026-04-19T11:02:10Z</time></trkpt><trkpt lat="43.47579936808729" lon="10.703743328447167"><ele>94.66666666666667</ele><time>2026-04-19T11:02:11Z</time></trkpt><trkpt lat="43.47576535575904" lon="10.703858116725918"><ele>94.5</ele><time>2026-04-19T11:02:12Z</time></trkpt><trkpt lat="43.47573570067231" lon="10.703966078236343"><ele>94.33333333333333</ele><time>2026-04-19T11:02:13Z</time></trkpt><trkpt lat="43.47570572008418" lon="10.704071638620968"><ele>94.16666666666666</ele><time>2026-04-19T11:02:14Z</time></trkpt><trkpt lat="43.47567426097463" lon="10.704175247076762"><ele>94.0</ele><time>2026-04-19T11:02:15Z</time></trkpt><trkpt lat="43.475641872125784" lon="10.704277263809576"><ele>94.0</ele><time>2026-04-19T11:02:16Z</time></trkpt><trkpt lat="43.47561060080155" lon="10.704377855630245"><ele>94.0</ele><time>2026-04-19T11:02:17Z</time></trkpt><trkpt lat="43.47558039610337" lon="10.704479702561525"><ele>94.0</ele><time>2026-04-19T11:02:18Z</time></trkpt><trkpt lat="43.47555125524422" lon="10.704581830964514"><ele>94.0</ele><time>2026-04-19T11:02:19Z</time></trkpt><trkpt lat="43.47552149014737" lon="10.70468330176373"><ele>94.0</ele><time>2026-04-19T11:02:20Z</time></trkpt><trkpt lat="43.475494042134244" lon="10.704778142822494"><ele>94.0</ele><time>2026-04-19T11:02:21Z</time></trkpt><trkpt lat="43.47546523107618" lon="10.70486823160716"><ele>94.33333333333333</ele><time>2026-04-19T11:02:22Z</time></trkpt><trkpt lat="43.475430510295226" lon="10.704956872443502"><ele>94.66666666666666</ele><time>2026-04-19T11:02:23Z</time></trkpt><trkpt lat="43.47538741269969" lon="10.705041267226655"><ele>95.0</ele><time>2026-04-19T11:02:24Z</time></trkpt><trkpt lat="43.475339702149576" lon="10.705123518270122"><ele>95.33333333333333</ele><time>2026-04-19T11:02:25Z</time></trkpt><trkpt lat="43.47528651573957" lon="10.705200709440176"><ele>95.66666666666667</ele><time>2026-04-19T11:02:26Z</time></trkpt><trkpt lat="43.47522506199033" lon="10.705270882480221"><ele>96.0</ele><time>2026-04-19T11:02:27Z</time></trkpt><trkpt lat="43.47515839459929" lon="10.705332738008797"><ele>96.0</ele><time>2026-04-19T11:02:28Z</time></trkpt><trkpt lat="43.475088114823556" lon="10.70538824911902"><ele>96.0</ele><time>2026-04-19T11:02:29Z</time></trkpt><trkpt lat="43.47501683011368" lon="10.705444856906748"><ele>96.0</ele><time>2026-04-19T11:02:30Z</time></trkpt><trkpt lat="43.47494457862864" lon="10.705503096441019"><ele>96.0</ele><time>2026-04-19T11:02:31Z</time></trkpt><trkpt lat="43.47486316525796" lon="10.705540259959372"><ele>96.0</ele><time>2026-04-19T11:02:32Z</time></trkpt><trkpt lat="43.47479620537474" lon="10.705616690624463"><ele>96.0</ele><time>2026-04-19T11:02:33Z</time></trkpt><trkpt lat="43.47471940598924" lon="10.705669668774275"><ele>96.0</ele><time>2026-04-19T11:02:34Z</time></trkpt><trkpt lat="43.474642070897204" lon="10.705723424080311"><ele>96.0</ele><time>2026-04-19T11:02:34.999Z</time></trkpt><trkpt lat="43.47456561878136" lon="10.70578140732402"><ele>96.0</ele><time>2026-04-19T11:02:35.999Z</time></trkpt><trkpt lat="43.47449308046613" lon="10.705851364772819"><ele>96.0</ele><time>2026-04-19T11:02:36.999Z</time></trkpt><trkpt lat="43.47442768044032" lon="10.705934246859044"><ele>96.0</ele><time>2026-04-19T11:02:37.999Z</time></trkpt><trkpt lat="43.47436958940676" lon="10.706029380646633"><ele>96.0</ele><time>2026-04-19T11:02:38.999Z</time></trkpt><trkpt lat="43.47432366872411" lon="10.706135297055864"><ele>96.4</ele><time>2026-04-19T11:02:39.999Z</time></trkpt><trkpt lat="43.47429362295829" lon="10.70625447570778"><ele>96.8</ele><time>2026-04-19T11:02:40.999Z</time></trkpt><trkpt lat="43.47427297855647" lon="10.706378515322797"><ele>97.2</ele><time>2026-04-19T11:02:41.999Z</time></trkpt><trkpt lat="43.47426250485975" lon="10.706505206105886"><ele>97.60000000000001</ele><time>2026-04-19T11:02:42.999Z</time></trkpt><trkpt lat="43.474256281660935" lon="10.706630127884315"><ele>98.0</ele><time>2026-04-19T11:02:43.999Z</time></trkpt><trkpt lat="43.47425061273567" lon="10.706751897612634"><ele>97.99999999999999</ele><time>2026-04-19T11:02:44.999Z</time></trkpt><trkpt lat="43.47424440113194" lon="10.706860302088073"><ele>98.0</ele><time>2026-04-19T11:02:45.999Z</time></trkpt><trkpt lat="43.474237378911106" lon="10.706957689315466"><ele>98.0</ele><time>2026-04-19T11:02:46.999Z</time></trkpt><trkpt lat="43.474230639423595" lon="10.70704476495922"><ele>98.0</ele><time>2026-04-19T11:02:47.999Z</time></trkpt><trkpt lat="43.4742163836142" lon="10.707214901279363"><ele>97.99999999999999</ele><time>2026-04-19T11:02:49.999Z</time></trkpt><trkpt lat="43.47420840821456" lon="10.707306872644383"><ele>98.0</ele><time>2026-04-19T11:02:50.999Z</time></trkpt><trkpt lat="43.47420116575554" lon="10.707408097192495"><ele>98.33333333333333</ele><time>2026-04-19T11:02:51.999Z</time></trkpt><trkpt lat="43.474196193491125" lon="10.707516853432644"><ele>98.66666666666666</ele><time>2026-04-19T11:02:52.999Z</time></trkpt><trkpt lat="43.4741990288665" lon="10.707626318371132"><ele>99.0</ele><time>2026-04-19T11:02:53.999Z</time></trkpt><trkpt lat="43.47422370416641" lon="10.707732221301978"><ele>99.33333333333334</ele><time>2026-04-19T11:02:54.999Z</time></trkpt><trkpt lat="43.47426272401193" lon="10.707828413028514"><ele>99.66666666666667</ele><time>2026-04-19T11:02:55.999Z</time></trkpt><trkpt lat="43.474314812319925" lon="10.707908213695852"><ele>100.0</ele><time>2026-04-19T11:02:56.999Z</time></trkpt><trkpt lat="43.47437393941685" lon="10.707970261470798"><ele>101.16666666666667</ele><time>2026-04-19T11:02:57.999Z</time></trkpt><trkpt lat="43.474442372132835" lon="10.708019390275338"><ele>102.33333333333334</ele><time>2026-04-19T11:02:58.999Z</time></trkpt><trkpt lat="43.47451021615321" lon="10.708063187129122"><ele>103.5</ele><time>2026-04-19T11:02:59.999Z</time></trkpt><trkpt lat="43.474594281308676" lon="10.70806528684743"><ele>104.66666666666666</ele><time>2026-04-19T11:03:00.999Z</time></trkpt><trkpt lat="43.47467763084105" lon="10.708020955953536"><ele>105.83333333333333</ele><time>2026-04-19T11:03:01.999Z</time></trkpt><trkpt lat="43.47475046022917" lon="10.70795388234358"><ele>107.0</ele><time>2026-04-19T11:03:03Z</time></trkpt><trkpt lat="43.474817168820124" lon="10.70788269712422"><ele>107.83333333333333</ele><time>2026-04-19T11:03:04Z</time></trkpt><trkpt lat="43.47488184258328" lon="10.707815431328108"><ele>108.66666666666666</ele><time>2026-04-19T11:03:05Z</time></trkpt><trkpt lat="43.47494684510414" lon="10.707765801091968"><ele>109.5</ele><time>2026-04-19T11:03:06Z</time></trkpt><trkpt lat="43.47501762838427" lon="10.707715765016966"><ele>110.33333333333334</ele><time>2026-04-19T11:03:07Z</time></trkpt><trkpt lat="43.47510138161221" lon="10.707739296808018"><ele>111.16666666666667</ele><time>2026-04-19T11:03:08Z</time></trkpt><trkpt lat="43.47518951971095" lon="10.707735826511398"><ele>112.0</ele><time>2026-04-19T11:03:09Z</time></trkpt><trkpt lat="43.47527591571333" lon="10.707729313692834"><ele>112.16666666666667</ele><time>2026-04-19T11:03:10Z</time></trkpt><trkpt lat="43.475360326826504" lon="10.707707710059456"><ele>112.33333333333334</ele><time>2026-04-19T11:03:11Z</time></trkpt><trkpt lat="43.4754442612455" lon="10.707723892342315"><ele>112.5</ele><time>2026-04-19T11:03:12Z</time></trkpt><trkpt lat="43.475526504475255" lon="10.707746527190947"><ele>112.66666666666666</ele><time>2026-04-19T11:03:13Z</time></trkpt><trkpt lat="43.47560513001237" lon="10.707775448247132"><ele>112.83333333333333</ele><time>2026-04-19T11:03:14Z</time></trkpt><trkpt lat="43.47567987210788" lon="10.70781640339395"><ele>113.0</ele><time>2026-04-19T11:03:15Z</time></trkpt><trkpt lat="43.47574909368242" lon="10.707864014968514"><ele>112.99999999999999</ele><time>2026-04-19T11:03:16Z</time></trkpt><trkpt lat="43.47581269904375" lon="10.707921025951912"><ele>113.0</ele><time>2026-04-19T11:03:17Z</time></trkpt><trkpt lat="43.475868264937105" lon="10.707988712322084"><ele>113.0</ele><time>2026-04-19T11:03:18Z</time></trkpt><trkpt lat="43.475919838553345" lon="10.708064137471057"><ele>113.0</ele><time>2026-04-19T11:03:19Z</time></trkpt><trkpt lat="43.47597205062659" lon="10.708149644921976"><ele>112.99999999999999</ele><time>2026-04-19T11:03:20Z</time></trkpt><trkpt lat="43.47602066855514" lon="10.708242448155776"><ele>113.0</ele><time>2026-04-19T11:03:21Z</time></trkpt><trkpt lat="43.476068165377285" lon="10.70834008095279"><ele>112.99999999999999</ele><time>2026-04-19T11:03:22Z</time></trkpt><trkpt lat="43.47611184934667" lon="10.708440808462685"><ele>113.0</ele><time>2026-04-19T11:03:23Z</time></trkpt><trkpt lat="43.47614850462737" lon="10.708547077898242"><ele>113.0</ele><time>2026-04-19T11:03:24Z</time></trkpt><trkpt lat="43.47616457962843" lon="10.708662904095082"><ele>113.0</ele><time>2026-04-19T11:03:25Z</time></trkpt><trkpt lat="43.47616604881798" lon="10.708776939595905"><ele>112.99999999999999</ele><time>2026-04-19T11:03:26Z</time></trkpt><trkpt lat="43.476156906482274" lon="10.708887257566392"><ele>113.0</ele><time>2026-04-19T11:03:27Z</time></trkpt><trkpt lat="43.47613610487211" lon="10.708999576275065"><ele>114.16666666666666</ele><time>2026-04-19T11:03:28Z</time></trkpt><trkpt lat="43.4761023593692" lon="10.709111047111646"><ele>115.33333333333333</ele><time>2026-04-19T11:03:29Z</time></trkpt><trkpt lat="43.47606701116006" lon="10.709225059570677"><ele>116.5</ele><time>2026-04-19T11:03:30Z</time></trkpt><trkpt lat="43.47603111573744" lon="10.709340562240529"><ele>117.66666666666666</ele><time>2026-04-19T11:03:31Z</time></trkpt><trkpt lat="43.475997998300215" lon="10.709456215693923"><ele>118.83333333333333</ele><time>2026-04-19T11:03:32Z</time></trkpt><trkpt lat="43.47596518168865" lon="10.709569488513093"><ele>120.0</ele><time>2026-04-19T11:03:33Z</time></trkpt><trkpt lat="43.475923265362624" lon="10.709676511033825"><ele>120.0</ele><time>2026-04-19T11:03:34Z</time></trkpt><trkpt lat="43.47587317146655" lon="10.709775505503345"><ele>120.0</ele><time>2026-04-19T11:03:35Z</time></trkpt><trkpt lat="43.47581959312046" lon="10.70987018996781"><ele>120.0</ele><time>2026-04-19T11:03:36Z</time></trkpt><trkpt lat="43.47576126313818" lon="10.709956929432597"><ele>120.0</ele><time>2026-04-19T11:03:37Z</time></trkpt><trkpt lat="43.4756960353641" lon="10.71003549948227"><ele>120.0</ele><time>2026-04-19T11:03:38Z</time></trkpt><trkpt lat="43.475630037018234" lon="10.710105051818905"><ele>120.0</ele><time>2026-04-19T11:03:39Z</time></trkpt><trkpt lat="43.4755656293212" lon="10.71017397619461"><ele>120.0</ele><time>2026-04-19T11:03:40Z</time></trkpt><trkpt lat="43.47550165478721" lon="10.710240406682155"><ele>120.0</ele><time>2026-04-19T11:03:41Z</time></trkpt><trkpt lat="43.47543904715136" lon="10.710305972547696"><ele>120.0</ele><time>2026-04-19T11:03:42Z</time></trkpt><trkpt lat="43.47537926481554" lon="10.710372554720012"><ele>120.0</ele><time>2026-04-19T11:03:43Z</time></trkpt><trkpt lat="43.47532868615371" lon="10.71045095367436"><ele>120.0</ele><time>2026-04-19T11:03:44Z</time></trkpt><trkpt lat="43.475289552991114" lon="10.71054248972789"><ele>120.0</ele><time>2026-04-19T11:03:45Z</time></trkpt><trkpt lat="43.47524839345114" lon="10.710631099396553"><ele>121.83333333333333</ele><time>2026-04-19T11:03:46Z</time></trkpt><trkpt lat="43.47521794312864" lon="10.710727531262698"><ele>123.66666666666666</ele><time>2026-04-19T11:03:47Z</time></trkpt><trkpt lat="43.47518856655726" lon="10.710824907003582"><ele>125.5</ele><time>2026-04-19T11:03:48Z</time></trkpt><trkpt lat="43.47515849677494" lon="10.710923402245077"><ele>127.33333333333333</ele><time>2026-04-19T11:03:49Z</time></trkpt><trkpt lat="43.47512897423905" lon="10.711022603410498"><ele>129.16666666666666</ele><time>2026-04-19T11:03:50Z</time></trkpt><trkpt lat="43.47509763682977" lon="10.711119695592796"><ele>131.0</ele><time>2026-04-19T11:03:51Z</time></trkpt><trkpt lat="43.475066012207606" lon="10.711218058461426"><ele>131.0</ele><time>2026-04-19T11:03:52Z</time></trkpt><trkpt lat="43.475035429649814" lon="10.711316148310646"><ele>131.0</ele><time>2026-04-19T11:03:53Z</time></trkpt><trkpt lat="43.4750065186648" lon="10.711415983880938"><ele>131.0</ele><time>2026-04-19T11:03:54Z</time></trkpt><trkpt lat="43.47497872979579" lon="10.711516785237535"><ele>131.0</ele><time>2026-04-19T11:03:55Z</time></trkpt><trkpt lat="43.474949528320266" lon="10.711614157059978"><ele>131.0</ele><time>2026-04-19T11:03:56Z</time></trkpt><trkpt lat="43.47491600945179" lon="10.711709570601654"><ele>131.0</ele><time>2026-04-19T11:03:57Z</time></trkpt><trkpt lat="43.47487872040197" lon="10.711802691087026"><ele>131.0</ele><time>2026-04-19T11:03:58Z</time></trkpt><trkpt lat="43.47483735242218" lon="10.711887622003205"><ele>131.0</ele><time>2026-04-19T11:03:59Z</time></trkpt><trkpt lat="43.47478669417522" lon="10.711950941048357"><ele>131.0</ele><time>2026-04-19T11:04:00Z</time></trkpt><trkpt lat="43.474732139471094" lon="10.711995363214223"><ele>131.0</ele><time>2026-04-19T11:04:01Z</time></trkpt><trkpt lat="43.474622253944524" lon="10.712019785514322"><ele>131.0</ele><time>2026-04-19T11:04:03Z</time></trkpt><trkpt lat="43.47450981045444" lon="10.71202263518641"><ele>131.0</ele><time>2026-04-19T11:04:05Z</time></trkpt><trkpt lat="43.474394780998495" lon="10.712044065637532"><ele>132.16666666666666</ele><time>2026-04-19T11:04:07Z</time></trkpt><trkpt lat="43.47426699113828" lon="10.712022635190484"><ele>133.33333333333331</ele><time>2026-04-19T11:04:09Z</time></trkpt><trkpt lat="43.47419466870746" lon="10.712024505015757"><ele>134.5</ele><time>2026-04-19T11:04:10Z</time></trkpt><trkpt lat="43.4741228162657" lon="10.712046902363351"><ele>135.66666666666666</ele><time>2026-04-19T11:04:11Z</time></trkpt><trkpt lat="43.47405189801933" lon="10.712045456303606"><ele>136.83333333333334</ele><time>2026-04-19T11:04:12Z</time></trkpt><trkpt lat="43.47398511187191" lon="10.712074816186083"><ele>138.0</ele><time>2026-04-19T11:04:13Z</time></trkpt><trkpt lat="43.473924189890084" lon="10.712122581826668"><ele>138.0</ele><time>2026-04-19T11:04:14Z</time></trkpt><trkpt lat="43.47387218622549" lon="10.712184750213225"><ele>138.0</ele><time>2026-04-19T11:04:15Z</time></trkpt><trkpt lat="43.47383065418056" lon="10.712260898159725"><ele>138.0</ele><time>2026-04-19T11:04:16Z</time></trkpt><trkpt lat="43.47380222790263" lon="10.71234715472049"><ele>138.0</ele><time>2026-04-19T11:04:17Z</time></trkpt><trkpt lat="43.47378567004418" lon="10.712443903483177"><ele>138.0</ele><time>2026-04-19T11:04:18Z</time></trkpt><trkpt lat="43.473776622433256" lon="10.712551196141497"><ele>138.0</ele><time>2026-04-19T11:04:19Z</time></trkpt><trkpt lat="43.47377213770313" lon="10.71266577010003"><ele>138.0</ele><time>2026-04-19T11:04:20Z</time></trkpt><trkpt lat="43.473767234098915" lon="10.712785052146625"><ele>136.33333333333334</ele><time>2026-04-19T11:04:21Z</time></trkpt><trkpt lat="43.4737629173218" lon="10.712901935463274"><ele>134.66666666666666</ele><time>2026-04-19T11:04:22Z</time></trkpt><trkpt lat="43.473759754169265" lon="10.713017337278705"><ele>133.0</ele><time>2026-04-19T11:04:23Z</time></trkpt><trkpt lat="43.473755984038505" lon="10.713136473792483"><ele>131.33333333333331</ele><time>2026-04-19T11:04:24Z</time></trkpt><trkpt lat="43.47375132285121" lon="10.713261814554706"><ele>129.66666666666666</ele><time>2026-04-19T11:04:25Z</time></trkpt><trkpt lat="43.47374636909909" lon="10.713391273596692"><ele>128.0</ele><time>2026-04-19T11:04:26Z</time></trkpt><trkpt lat="43.473741004581285" lon="10.713524505098196"><ele>127.80000000000001</ele><time>2026-04-19T11:04:27Z</time></trkpt><trkpt lat="43.47373302899995" lon="10.713658048594121"><ele>127.60000000000001</ele><time>2026-04-19T11:04:28Z</time></trkpt><trkpt lat="43.473724762132086" lon="10.713790962275311"><ele>127.39999999999999</ele><time>2026-04-19T11:04:29Z</time></trkpt><trkpt lat="43.47371521652807" lon="10.713924028259392"><ele>127.19999999999999</ele><time>2026-04-19T11:04:30Z</time></trkpt><trkpt lat="43.473710966379734" lon="10.714057411927731"><ele>127.0</ele><time>2026-04-19T11:04:31Z</time></trkpt><trkpt lat="43.47371473074818" lon="10.714192252853854"><ele>127.0</ele><time>2026-04-19T11:04:32Z</time></trkpt><trkpt lat="43.473728465001074" lon="10.714325976937808"><ele>126.99999999999999</ele><time>2026-04-19T11:04:33Z</time></trkpt><trkpt lat="43.473756771177804" lon="10.71445618813319"><ele>126.99999999999999</ele><time>2026-04-19T11:04:34Z</time></trkpt><trkpt lat="43.473792786177825" lon="10.714581293326738"><ele>127.0</ele><time>2026-04-19T11:04:35Z</time></trkpt><trkpt lat="43.473836275760696" lon="10.714700141130425"><ele>127.0</ele><time>2026-04-19T11:04:36Z</time></trkpt><trkpt lat="43.473882893473046" lon="10.714816522972216"><ele>129.2</ele><time>2026-04-19T11:04:37Z</time></trkpt><trkpt lat="43.47392872053616" lon="10.714931773053594"><ele>131.39999999999998</ele><time>2026-04-19T11:04:38.001Z</time></trkpt><trkpt lat="43.47396897709543" lon="10.71505220265467"><ele>133.60000000000002</ele><time>2026-04-19T11:04:39.001Z</time></trkpt><trkpt lat="43.47400491620268" lon="10.715178496584034"><ele>135.8</ele><time>2026-04-19T11:04:40.001Z</time></trkpt><trkpt lat="43.47403444086924" lon="10.715308347015327"><ele>138.0</ele><time>2026-04-19T11:04:40.999Z</time></trkpt><trkpt lat="43.474054208677885" lon="10.715442833433702"><ele>138.0</ele><time>2026-04-19T11:04:41.999Z</time></trkpt><trkpt lat="43.474063695735374" lon="10.71558022834092"><ele>138.0</ele><time>2026-04-19T11:04:42.999Z</time></trkpt><trkpt lat="43.47406039890095" lon="10.71571840407176"><ele>138.0</ele><time>2026-04-19T11:04:43.999Z</time></trkpt><trkpt lat="43.474048595206895" lon="10.715853953287178"><ele>138.0</ele><time>2026-04-19T11:04:44.999Z</time></trkpt><trkpt lat="43.47403072806565" lon="10.715986591392141"><ele>138.0</ele><time>2026-04-19T11:04:45.999Z</time></trkpt><trkpt lat="43.47400769141795" lon="10.716118342096909"><ele>137.6</ele><time>2026-04-19T11:04:46.999Z</time></trkpt><trkpt lat="43.47397543026654" lon="10.716244784789923"><ele>137.20000000000002</ele><time>2026-04-19T11:04:47.999Z</time></trkpt><trkpt lat="43.47393709869309" lon="10.71636613899926"><ele>136.8</ele><time>2026-04-19T11:04:48.999Z</time></trkpt><trkpt lat="43.47387586708679" lon="10.716467684164726"><ele>136.4</ele><time>2026-04-19T11:04:49.999Z</time></trkpt><trkpt lat="43.473833785752845" lon="10.71658417253337"><ele>136.0</ele><time>2026-04-19T11:04:50.999Z</time></trkpt><trkpt lat="43.47377351473458" lon="10.71668232995282"><ele>136.66666666666669</ele><time>2026-04-19T11:04:51.999Z</time></trkpt><trkpt lat="43.47371264487814" lon="10.716776912616693"><ele>137.33333333333334</ele><time>2026-04-19T11:04:52.999Z</time></trkpt><trkpt lat="43.47365151089839" lon="10.716868631899944"><ele>138.0</ele><time>2026-04-19T11:04:53.999Z</time></trkpt><trkpt lat="43.473591292584025" lon="10.716958042883686"><ele>138.66666666666666</ele><time>2026-04-19T11:04:54.999Z</time></trkpt><trkpt lat="43.47353017006475" lon="10.717043383909722"><ele>139.33333333333331</ele><time>2026-04-19T11:04:55.999Z</time></trkpt><trkpt lat="43.473471377592226" lon="10.717131435045776"><ele>140.0</ele><time>2026-04-19T11:04:56.999Z</time></trkpt><trkpt lat="43.47341420273095" lon="10.71721612533884"><ele>140.0</ele><time>2026-04-19T11:04:57.999Z</time></trkpt><trkpt lat="43.47335262135369" lon="10.717299061136474"><ele>140.0</ele><time>2026-04-19T11:04:59Z</time></trkpt><trkpt lat="43.473289646858" lon="10.717385672355757"><ele>140.0</ele><time>2026-04-19T11:05:00Z</time></trkpt><trkpt lat="43.47322647702917" lon="10.717473865526506"><ele>140.0</ele><time>2026-04-19T11:05:01Z</time></trkpt><trkpt lat="43.473161090561135" lon="10.717564300322959"><ele>140.0</ele><time>2026-04-19T11:05:02Z</time></trkpt><trkpt lat="43.4730931710313" lon="10.717653920234094"><ele>140.4</ele><time>2026-04-19T11:05:03Z</time></trkpt><trkpt lat="43.47302445355311" lon="10.717746054539754"><ele>140.8</ele><time>2026-04-19T11:05:04Z</time></trkpt><trkpt lat="43.47295692926572" lon="10.717841013563563"><ele>141.2</ele><time>2026-04-19T11:05:05Z</time></trkpt><trkpt lat="43.47288822922755" lon="10.717932456970667"><ele>141.6</ele><time>2026-04-19T11:05:06Z</time></trkpt><trkpt lat="43.47282013333138" lon="10.718024981073436"><ele>142.0</ele><time>2026-04-19T11:05:07Z</time></trkpt><trkpt lat="43.47275163250937" lon="10.718117673414794"><ele>142.0</ele><time>2026-04-19T11:05:08Z</time></trkpt><trkpt lat="43.47268434767691" lon="10.71821176422847"><ele>142.0</ele><time>2026-04-19T11:05:09Z</time></trkpt><trkpt lat="43.47261710164057" lon="10.71830950118266"><ele>142.0</ele><time>2026-04-19T11:05:10Z</time></trkpt><trkpt lat="43.47254858065112" lon="10.71840602107017"><ele>142.0</ele><time>2026-04-19T11:05:11Z</time></trkpt><trkpt lat="43.472480455168565" lon="10.71850115045391"><ele>142.0</ele><time>2026-04-19T11:05:12Z</time></trkpt><trkpt lat="43.472413302764195" lon="10.718598877455113"><ele>141.4</ele><time>2026-04-19T11:05:13Z</time></trkpt><trkpt lat="43.47234390789862" lon="10.71869588410542"><ele>140.79999999999998</ele><time>2026-04-19T11:05:14Z</time></trkpt><trkpt lat="43.47227293417283" lon="10.718790898178888"><ele>140.2</ele><time>2026-04-19T11:05:15Z</time></trkpt><trkpt lat="43.47220120550006" lon="10.718888686109146"><ele>139.6</ele><time>2026-04-19T11:05:16Z</time></trkpt><trkpt lat="43.472127516469705" lon="10.718989098219907"><ele>139.0</ele><time>2026-04-19T11:05:17Z</time></trkpt><trkpt lat="43.47205361399305" lon="10.719092491398232"><ele>140.2</ele><time>2026-04-19T11:05:18Z</time></trkpt><trkpt lat="43.47197916483049" lon="10.719196516490468"><ele>141.4</ele><time>2026-04-19T11:05:19Z</time></trkpt><trkpt lat="43.471904746867885" lon="10.71929798312881"><ele>142.6</ele><time>2026-04-19T11:05:20Z</time></trkpt><trkpt lat="43.4718175945906" lon="10.719381248627542"><ele>143.8</ele><time>2026-04-19T11:05:21Z</time></trkpt><trkpt lat="43.4717516538248" lon="10.719492450271664"><ele>145.0</ele><time>2026-04-19T11:05:22Z</time></trkpt><trkpt lat="43.471671248790216" lon="10.719583292782733"><ele>145.4</ele><time>2026-04-19T11:05:23Z</time></trkpt><trkpt lat="43.47159614402064" lon="10.719681740236402"><ele>145.8</ele><time>2026-04-19T11:05:24Z</time></trkpt><trkpt lat="43.47152418672363" lon="10.719787505476166"><ele>146.2</ele><time>2026-04-19T11:05:25Z</time></trkpt><trkpt lat="43.47145278823535" lon="10.719892466806309"><ele>146.6</ele><time>2026-04-19T11:05:26Z</time></trkpt><trkpt lat="43.471377200429764" lon="10.719995477984288"><ele>147.0</ele><time>2026-04-19T11:05:27Z</time></trkpt><trkpt lat="43.47129809952392" lon="10.720098606453236"><ele>146.6</ele><time>2026-04-19T11:05:28Z</time></trkpt><trkpt lat="43.47121853593101" lon="10.72020306389669"><ele>146.2</ele><time>2026-04-19T11:05:29Z</time></trkpt><trkpt lat="43.47114035075653" lon="10.720311314522219"><ele>145.8</ele><time>2026-04-19T11:05:30Z</time></trkpt><trkpt lat="43.47106552344947" lon="10.720422226955687"><ele>145.4</ele><time>2026-04-19T11:05:31Z</time></trkpt><trkpt lat="43.470989423917395" lon="10.720531592533149"><ele>145.0</ele><time>2026-04-19T11:05:32Z</time></trkpt><trkpt lat="43.47091351830903" lon="10.72064156123082"><ele>145.8</ele><time>2026-04-19T11:05:33Z</time></trkpt><trkpt lat="43.470836612376836" lon="10.720749297598298"><ele>146.6</ele><time>2026-04-19T11:05:34Z</time></trkpt><trkpt lat="43.47075886878511" lon="10.72085751771667"><ele>147.4</ele><time>2026-04-19T11:05:35Z</time></trkpt><trkpt lat="43.47068254790062" lon="10.720968544061238"><ele>148.2</ele><time>2026-04-19T11:05:36Z</time></trkpt><trkpt lat="43.47060391592312" lon="10.721079729021689"><ele>149.0</ele><time>2026-04-19T11:05:37Z</time></trkpt><trkpt lat="43.470525241777615" lon="10.72118844249927"><ele>149.2</ele><time>2026-04-19T11:05:38Z</time></trkpt><trkpt lat="43.47044738453304" lon="10.721298539023048"><ele>149.4</ele><time>2026-04-19T11:05:39Z</time></trkpt><trkpt lat="43.47036814367122" lon="10.721402864489065"><ele>149.6</ele><time>2026-04-19T11:05:40Z</time></trkpt><trkpt lat="43.470293588361336" lon="10.721503848274438"><ele>149.8</ele><time>2026-04-19T11:05:41Z</time></trkpt><trkpt lat="43.47023628268775" lon="10.72160857501589"><ele>150.0</ele><time>2026-04-19T11:05:42Z</time></trkpt><trkpt lat="43.47020037717296" lon="10.721714820133688"><ele>151.33333333333334</ele><time>2026-04-19T11:05:43Z</time></trkpt><trkpt lat="43.47018390679367" lon="10.721829442072037"><ele>152.66666666666666</ele><time>2026-04-19T11:05:44Z</time></trkpt><trkpt lat="43.470195624522944" lon="10.721949416647142"><ele>154.0</ele><time>2026-04-19T11:05:45Z</time></trkpt><trkpt lat="43.470229155856565" lon="10.722042270968885"><ele>155.33333333333331</ele><time>2026-04-19T11:05:46Z</time></trkpt><trkpt lat="43.47027353636135" lon="10.722132031346403"><ele>156.66666666666666</ele><time>2026-04-19T11:05:47Z</time></trkpt><trkpt lat="43.47031975599952" lon="10.722219432287051"><ele>158.0</ele><time>2026-04-19T11:05:48Z</time></trkpt><trkpt lat="43.470362249717354" lon="10.722310734569179"><ele>159.33333333333331</ele><time>2026-04-19T11:05:49Z</time></trkpt><trkpt lat="43.47039683675852" lon="10.722410250359445"><ele>160.66666666666666</ele><time>2026-04-19T11:05:50Z</time></trkpt><trkpt lat="43.470414688894486" lon="10.722515944829023"><ele>162.0</ele><time>2026-04-19T11:05:51Z</time></trkpt><trkpt lat="43.47041213882523" lon="10.722617642785142"><ele>163.33333333333334</ele><time>2026-04-19T11:05:52Z</time></trkpt><trkpt lat="43.470396632329916" lon="10.72271985170084"><ele>164.66666666666669</ele><time>2026-04-19T11:05:53Z</time></trkpt><trkpt lat="43.47036893747742" lon="10.722823392972582"><ele>166.0</ele><time>2026-04-19T11:05:54Z</time></trkpt><trkpt lat="43.470336699292424" lon="10.722930159921853"><ele>167.20000000000002</ele><time>2026-04-19T11:05:55Z</time></trkpt><trkpt lat="43.470286129467624" lon="10.723030829162337"><ele>168.4</ele><time>2026-04-19T11:05:56Z</time></trkpt><trkpt lat="43.47022993289719" lon="10.723133771383488"><ele>169.6</ele><time>2026-04-19T11:05:57Z</time></trkpt><trkpt lat="43.4701763826701" lon="10.723247182973257"><ele>170.8</ele><time>2026-04-19T11:05:58Z</time></trkpt><trkpt lat="43.470125017638054" lon="10.723364082296403"><ele>172.0</ele><time>2026-04-19T11:05:59Z</time></trkpt><trkpt lat="43.47008002095521" lon="10.723481942681824"><ele>171.66666666666669</ele><time>2026-04-19T11:06:00Z</time></trkpt><trkpt lat="43.47003733388112" lon="10.723595856477536"><ele>171.33333333333334</ele><time>2026-04-19T11:06:01Z</time></trkpt><trkpt lat="43.46999223627213" lon="10.723702989225472"><ele>171.0</ele><time>2026-04-19T11:06:02Z</time></trkpt><trkpt lat="43.46994857339217" lon="10.72380424653206"><ele>170.66666666666666</ele><time>2026-04-19T11:06:03Z</time></trkpt><trkpt lat="43.46990894209557" lon="10.723899803594191"><ele>170.33333333333331</ele><time>2026-04-19T11:06:04Z</time></trkpt><trkpt lat="43.46987645007842" lon="10.723985900219443"><ele>170.0</ele><time>2026-04-19T11:06:05Z</time></trkpt><trkpt lat="43.46981762146979" lon="10.724109550385597"><ele>170.0</ele><time>2026-04-19T11:06:07Z</time></trkpt><trkpt lat="43.46973736755679" lon="10.723988654665042"><ele>170.0</ele><time>2026-04-19T11:06:14.001Z</time></trkpt><trkpt lat="43.46972982557727" lon="10.723837005141078"><ele>170.0</ele><time>2026-04-19T11:06:16.001Z</time></trkpt><trkpt lat="43.46972413469065" lon="10.72366255051224"><ele>170.0</ele><time>2026-04-19T11:06:18.001Z</time></trkpt><trkpt lat="43.46972092991152" lon="10.723559395682946"><ele>170.0</ele><time>2026-04-19T11:06:19.001Z</time></trkpt><trkpt lat="43.46971733580987" lon="10.723443708908151"><ele>170.4</ele><time>2026-04-19T11:06:20.001Z</time></trkpt><trkpt lat="43.46971350639429" lon="10.72332044877498"><ele>170.8</ele><time>2026-04-19T11:06:21.001Z</time></trkpt><trkpt lat="43.469696272386415" lon="10.72320255318772"><ele>171.2</ele><time>2026-04-19T11:06:22.001Z</time></trkpt><trkpt lat="43.46969995177908" lon="10.723079335892134"><ele>171.6</ele><time>2026-04-19T11:06:23.001Z</time></trkpt><trkpt lat="43.469698948380305" lon="10.722949138259779"><ele>172.0</ele><time>2026-04-19T11:06:24.001Z</time></trkpt><trkpt lat="43.469688966032635" lon="10.722811739717688"><ele>172.39999999999998</ele><time>2026-04-19T11:06:25.001Z</time></trkpt><trkpt lat="43.469666403428995" lon="10.722675125675963"><ele>172.79999999999998</ele><time>2026-04-19T11:06:26.001Z</time></trkpt><trkpt lat="43.46964350948231" lon="10.722536455253152"><ele>173.2</ele><time>2026-04-19T11:06:27.001Z</time></trkpt><trkpt lat="43.46956302098138" lon="10.722436860876986"><ele>173.6</ele><time>2026-04-19T11:06:28.001Z</time></trkpt><trkpt lat="43.46949939563378" lon="10.722334419842387"><ele>174.0</ele><time>2026-04-19T11:06:29.001Z</time></trkpt><trkpt lat="43.46942236287473" lon="10.722267666572566"><ele>174.0</ele><time>2026-04-19T11:06:30.001Z</time></trkpt><trkpt lat="43.469341537098785" lon="10.722218420986033"><ele>174.0</ele><time>2026-04-19T11:06:31.001Z</time></trkpt><trkpt lat="43.46925681388558" lon="10.722190798676156"><ele>174.0</ele><time>2026-04-19T11:06:32.001Z</time></trkpt><trkpt lat="43.469165282348264" lon="10.722205126691462"><ele>174.0</ele><time>2026-04-19T11:06:33.001Z</time></trkpt><trkpt lat="43.469073032225076" lon="10.72220475679858"><ele>174.0</ele><time>2026-04-19T11:06:34.001Z</time></trkpt><trkpt lat="43.46897761338516" lon="10.72220449454411"><ele>174.0</ele><time>2026-04-19T11:06:35.001Z</time></trkpt><trkpt lat="43.46887778827663" lon="10.722186911551443"><ele>174.0</ele><time>2026-04-19T11:06:36.001Z</time></trkpt><trkpt lat="43.46877495474354" lon="10.722154683221929"><ele>174.0</ele><time>2026-04-19T11:06:37.001Z</time></trkpt><trkpt lat="43.468670447409814" lon="10.722108742609748"><ele>174.0</ele><time>2026-04-19T11:06:38.001Z</time></trkpt><trkpt lat="43.46856714620043" lon="10.722052444266396"><ele>174.0</ele><time>2026-04-19T11:06:39.001Z</time></trkpt><trkpt lat="43.46846489986942" lon="10.721993537369002"><ele>172.39999999999998</ele><time>2026-04-19T11:06:40.001Z</time></trkpt><trkpt lat="43.46836276431824" lon="10.721931091545477"><ele>170.8</ele><time>2026-04-19T11:06:41.001Z</time></trkpt><trkpt lat="43.46826097358202" lon="10.721868339573414"><ele>169.2</ele><time>2026-04-19T11:06:42.001Z</time></trkpt><trkpt lat="43.468161308999385" lon="10.721805622649878"><ele>167.60000000000002</ele><time>2026-04-19T11:06:43.001Z</time></trkpt><trkpt lat="43.468064086847264" lon="10.721743028743566"><ele>166.0</ele><time>2026-04-19T11:06:44.001Z</time></trkpt><trkpt lat="43.467973240461994" lon="10.72167817504395"><ele>166.0</ele><time>2026-04-19T11:06:45.001Z</time></trkpt><trkpt lat="43.46788552499356" lon="10.721613864069052"><ele>166.0</ele><time>2026-04-19T11:06:46.001Z</time></trkpt><trkpt lat="43.46780202230152" lon="10.72155197145146"><ele>166.0</ele><time>2026-04-19T11:06:46.999Z</time></trkpt><trkpt lat="43.467717364450124" lon="10.721490742459462"><ele>166.0</ele><time>2026-04-19T11:06:47.999Z</time></trkpt><trkpt lat="43.467629017112124" lon="10.72142929400326"><ele>166.0</ele><time>2026-04-19T11:06:48.999Z</time></trkpt><trkpt lat="43.46753886762799" lon="10.721371079826126"><ele>166.0</ele><time>2026-04-19T11:06:49.999Z</time></trkpt><trkpt lat="43.46745083607525" lon="10.721309023533719"><ele>166.0</ele><time>2026-04-19T11:06:50.999Z</time></trkpt><trkpt lat="43.46736388555068" lon="10.721244149946825"><ele>166.0</ele><time>2026-04-19T11:06:51.999Z</time></trkpt><trkpt lat="43.46727965277979" lon="10.721177485614882"><ele>166.0</ele><time>2026-04-19T11:06:52.999Z</time></trkpt><trkpt lat="43.46720106362847" lon="10.721106928222422"><ele>166.0</ele><time>2026-04-19T11:06:53.999Z</time></trkpt><trkpt lat="43.46712892431362" lon="10.721028169389083"><ele>167.8</ele><time>2026-04-19T11:06:54.999Z</time></trkpt><trkpt lat="43.46707890957778" lon="10.720919393648511"><ele>169.60000000000002</ele><time>2026-04-19T11:06:55.999Z</time></trkpt><trkpt lat="43.46703689280947" lon="10.720809929664549"><ele>171.4</ele><time>2026-04-19T11:06:56.999Z</time></trkpt><trkpt lat="43.46701910825708" lon="10.72069218688246"><ele>173.2</ele><time>2026-04-19T11:06:57.999Z</time></trkpt><trkpt lat="43.46700022556614" lon="10.720568197517132"><ele>175.0</ele><time>2026-04-19T11:06:58.999Z</time></trkpt><trkpt lat="43.46697131100368" lon="10.720445748294724"><ele>175.0</ele><time>2026-04-19T11:06:59.999Z</time></trkpt><trkpt lat="43.46692890151504" lon="10.72032975982758"><ele>175.0</ele><time>2026-04-19T11:07:01Z</time></trkpt><trkpt lat="43.46687811805038" lon="10.720226801959734"><ele>175.0</ele><time>2026-04-19T11:07:02Z</time></trkpt><trkpt lat="43.466829084137544" lon="10.720131638244327"><ele>175.0</ele><time>2026-04-19T11:07:03Z</time></trkpt><trkpt lat="43.46678096368431" lon="10.7200382471035"><ele>175.0</ele><time>2026-04-19T11:07:04Z</time></trkpt><trkpt lat="43.46673808450895" lon="10.719947350749742"><ele>175.0</ele><time>2026-04-19T11:07:05Z</time></trkpt><trkpt lat="43.46669808283637" lon="10.719855490265907"><ele>175.14285714285714</ele><time>2026-04-19T11:07:06Z</time></trkpt><trkpt lat="43.466658250369264" lon="10.719765220084751"><ele>175.28571428571428</ele><time>2026-04-19T11:07:07Z</time></trkpt><trkpt lat="43.46661838722453" lon="10.719677687545046"><ele>175.42857142857144</ele><time>2026-04-19T11:07:08Z</time></trkpt><trkpt lat="43.466583952336464" lon="10.719594796096997"><ele>175.57142857142856</ele><time>2026-04-19T11:07:09Z</time></trkpt><trkpt lat="43.46655927985991" lon="10.719512259373653"><ele>175.71428571428572</ele><time>2026-04-19T11:07:10Z</time></trkpt><trkpt lat="43.46654056843962" lon="10.719425014063372"><ele>175.85714285714286</ele><time>2026-04-19T11:07:11Z</time></trkpt><trkpt lat="43.46652125835961" lon="10.71933055035691"><ele>176.0</ele><time>2026-04-19T11:07:12Z</time></trkpt><trkpt lat="43.46650134544425" lon="10.719229193698101"><ele>175.66666666666666</ele><time>2026-04-19T11:07:13Z</time></trkpt><trkpt lat="43.46648040637643" lon="10.719122614033864"><ele>175.33333333333331</ele><time>2026-04-19T11:07:14Z</time></trkpt><trkpt lat="43.46645869523061" lon="10.719012104765458"><ele>175.0</ele><time>2026-04-19T11:07:15Z</time></trkpt><trkpt lat="43.46643659687147" lon="10.718899624391772"><ele>174.66666666666666</ele><time>2026-04-19T11:07:16Z</time></trkpt><trkpt lat="43.4664136141794" lon="10.718784798482938"><ele>174.33333333333334</ele><time>2026-04-19T11:07:17Z</time></trkpt><trkpt lat="43.46638598338142" lon="10.718671825087032"><ele>174.0</ele><time>2026-04-19T11:07:18Z</time></trkpt><trkpt lat="43.46634784992396" lon="10.718561238834207"><ele>173.83333333333334</ele><time>2026-04-19T11:07:19Z</time></trkpt><trkpt lat="43.46630144175163" lon="10.718459218731594"><ele>173.66666666666666</ele><time>2026-04-19T11:07:20Z</time></trkpt><trkpt lat="43.46624468247269" lon="10.718368627976824"><ele>173.5</ele><time>2026-04-19T11:07:21Z</time></trkpt><trkpt lat="43.46617830511343" lon="10.718292928146093"><ele>173.33333333333331</ele><time>2026-04-19T11:07:22Z</time></trkpt><trkpt lat="43.46611365142541" lon="10.718226188220994"><ele>173.16666666666666</ele><time>2026-04-19T11:07:23Z</time></trkpt><trkpt lat="43.466050763293005" lon="10.718160313701397"><ele>173.0</ele><time>2026-04-19T11:07:24Z</time></trkpt><trkpt lat="43.46598815611571" lon="10.718094733436203"><ele>173.0</ele><time>2026-04-19T11:07:25Z</time></trkpt><trkpt lat="43.46592263900879" lon="10.71802881090157"><ele>173.0</ele><time>2026-04-19T11:07:26Z</time></trkpt><trkpt lat="43.46585172874411" lon="10.717957138782134"><ele>173.0</ele><time>2026-04-19T11:07:27Z</time></trkpt><trkpt lat="43.46577974604082" lon="10.71787414752781"><ele>173.0</ele><time>2026-04-19T11:07:28Z</time></trkpt><trkpt lat="43.465713082998434" lon="10.717779286514107"><ele>173.0</ele><time>2026-04-19T11:07:29Z</time></trkpt><trkpt lat="43.465647552220474" lon="10.717681782707997"><ele>172.60000000000002</ele><time>2026-04-19T11:07:30Z</time></trkpt><trkpt lat="43.465582796932765" lon="10.717578535965666"><ele>172.20000000000002</ele><time>2026-04-19T11:07:31Z</time></trkpt><trkpt lat="43.46551711744529" lon="10.717472612646562"><ele>171.8</ele><time>2026-04-19T11:07:32Z</time></trkpt><trkpt lat="43.46544942646058" lon="10.717363445889376"><ele>171.4</ele><time>2026-04-19T11:07:33Z</time></trkpt><trkpt lat="43.465391340457884" lon="10.71725382400591"><ele>171.0</ele><time>2026-04-19T11:07:34Z</time></trkpt><trkpt lat="43.4653526553899" lon="10.7171356602992"><ele>171.0</ele><time>2026-04-19T11:07:35Z</time></trkpt><trkpt lat="43.46532741280715" lon="10.717011329046777"><ele>171.0</ele><time>2026-04-19T11:07:36Z</time></trkpt><trkpt lat="43.46530707781412" lon="10.716880842609966"><ele>171.0</ele><time>2026-04-19T11:07:37Z</time></trkpt><trkpt lat="43.465285509284506" lon="10.716741810538869"><ele>171.0</ele><time>2026-04-19T11:07:38Z</time></trkpt><trkpt lat="43.465263190677234" lon="10.716598006568033"><ele>171.0</ele><time>2026-04-19T11:07:39Z</time></trkpt><trkpt lat="43.46523916248445" lon="10.716450083087647"><ele>169.75</ele><time>2026-04-19T11:07:40Z</time></trkpt><trkpt lat="43.465208786765544" lon="10.716295530943539"><ele>168.5</ele><time>2026-04-19T11:07:41Z</time></trkpt><trkpt lat="43.46516849771761" lon="10.716135146541363"><ele>167.25</ele><time>2026-04-19T11:07:42Z</time></trkpt><trkpt lat="43.46511247548957" lon="10.715981450047426"><ele>166.0</ele><time>2026-04-19T11:07:43Z</time></trkpt><trkpt lat="43.46505270768788" lon="10.715828257003574"><ele>164.75</ele><time>2026-04-19T11:07:44Z</time></trkpt><trkpt lat="43.464992062008676" lon="10.71567204200846"><ele>163.5</ele><time>2026-04-19T11:07:45Z</time></trkpt><trkpt lat="43.46493077029959" lon="10.715513054008147"><ele>162.25</ele><time>2026-04-19T11:07:46Z</time></trkpt><trkpt lat="43.464868819361484" lon="10.715352355964642"><ele>161.0</ele><time>2026-04-19T11:07:47Z</time></trkpt><trkpt lat="43.464804897013" lon="10.715190732930282"><ele>160.0</ele><time>2026-04-19T11:07:48Z</time></trkpt><trkpt lat="43.46473321805374" lon="10.715030756642356"><ele>159.0</ele><time>2026-04-19T11:07:49Z</time></trkpt><trkpt lat="43.464647462416124" lon="10.714881147944075"><ele>158.0</ele><time>2026-04-19T11:07:50Z</time></trkpt><trkpt lat="43.46455163642138" lon="10.714745608520998"><ele>157.0</ele><time>2026-04-19T11:07:51Z</time></trkpt><trkpt lat="43.464452285852246" lon="10.714615431440654"><ele>156.75</ele><time>2026-04-19T11:07:52Z</time></trkpt><trkpt lat="43.46435579120571" lon="10.714482741946567"><ele>156.5</ele><time>2026-04-19T11:07:53Z</time></trkpt><trkpt lat="43.46425937312386" lon="10.714347611131783"><ele>156.25</ele><time>2026-04-19T11:07:54Z</time></trkpt><trkpt lat="43.46415473223987" lon="10.714223558452568"><ele>156.0</ele><time>2026-04-19T11:07:55Z</time></trkpt><trkpt lat="43.464070118099016" lon="10.714074097526346"><ele>155.75</ele><time>2026-04-19T11:07:56Z</time></trkpt><trkpt lat="43.46401503092434" lon="10.713903249483563"><ele>155.5</ele><time>2026-04-19T11:07:57Z</time></trkpt><trkpt lat="43.4639525636676" lon="10.713739032900472"><ele>155.25</ele><time>2026-04-19T11:07:58Z</time></trkpt><trkpt lat="43.463889322794074" lon="10.71358032630375"><ele>155.0</ele><time>2026-04-19T11:07:59Z</time></trkpt><trkpt lat="43.4638245332571" lon="10.713429485607586"><ele>154.75</ele><time>2026-04-19T11:08:00Z</time></trkpt><trkpt lat="43.463756106861354" lon="10.713287620390357"><ele>154.5</ele><time>2026-04-19T11:08:01.001Z</time></trkpt><trkpt lat="43.46368855577863" lon="10.713151165106126"><ele>154.25</ele><time>2026-04-19T11:08:02.001Z</time></trkpt><trkpt lat="43.4636227880139" lon="10.713019882049615"><ele>154.0</ele><time>2026-04-19T11:08:03.001Z</time></trkpt><trkpt lat="43.46355535656257" lon="10.712893544658447"><ele>154.0</ele><time>2026-04-19T11:08:04.001Z</time></trkpt><trkpt lat="43.46348924924414" lon="10.712779686208787"><ele>154.0</ele><time>2026-04-19T11:08:05.001Z</time></trkpt><trkpt lat="43.463442012348295" lon="10.712678304663612"><ele>154.0</ele><time>2026-04-19T11:08:06.001Z</time></trkpt><trkpt lat="43.46324988935577" lon="10.71271384858711"><ele>154.0</ele><time>2026-04-19T11:08:07.001Z</time></trkpt><trkpt lat="43.46313874798118" lon="10.712712414399412"><ele>154.6</ele><time>2026-04-19T11:08:08.001Z</time></trkpt><trkpt lat="43.463027469905214" lon="10.712676696054796"><ele>155.2</ele><time>2026-04-19T11:08:09.001Z</time></trkpt><trkpt lat="43.462921956668964" lon="10.712633564728424"><ele>155.79999999999998</ele><time>2026-04-19T11:08:10.001Z</time></trkpt><trkpt lat="43.46282456633594" lon="10.712565407842245"><ele>156.4</ele><time>2026-04-19T11:08:11.001Z</time></trkpt><trkpt lat="43.462728506803224" lon="10.712482500699975"><ele>157.0</ele><time>2026-04-19T11:08:12.001Z</time></trkpt><trkpt lat="43.46263307185299" lon="10.712387750289333"><ele>157.5</ele><time>2026-04-19T11:08:13.001Z</time></trkpt><trkpt lat="43.462537233290234" lon="10.71229014069858"><ele>158.0</ele><time>2026-04-19T11:08:14.001Z</time></trkpt><trkpt lat="43.46244294416793" lon="10.712184934928684"><ele>158.5</ele><time>2026-04-19T11:08:15.001Z</time></trkpt><trkpt lat="43.46235887864647" lon="10.712064748986132"><ele>159.0</ele><time>2026-04-19T11:08:16.001Z</time></trkpt><trkpt lat="43.462296535624006" lon="10.711926843015059"><ele>160.25</ele><time>2026-04-19T11:08:17.001Z</time></trkpt><trkpt lat="43.46223076312607" lon="10.711782155842544"><ele>161.5</ele><time>2026-04-19T11:08:18.001Z</time></trkpt><trkpt lat="43.462153653643135" lon="10.711652430014627"><ele>162.75</ele><time>2026-04-19T11:08:19.001Z</time></trkpt><trkpt lat="43.46205973869463" lon="10.71156415315947"><ele>164.0</ele><time>2026-04-19T11:08:20.001Z</time></trkpt><trkpt lat="43.461955482224695" lon="10.71155385283304"><ele>164.5</ele><time>2026-04-19T11:08:21.001Z</time></trkpt><trkpt lat="43.46186893636554" lon="10.711547316797525"><ele>165.0</ele><time>2026-04-19T11:08:22.001Z</time></trkpt><trkpt lat="43.46179227676516" lon="10.71155487050589"><ele>165.5</ele><time>2026-04-19T11:08:23.001Z</time></trkpt><trkpt lat="43.46171915565015" lon="10.71155357519156"><ele>166.0</ele><time>2026-04-19T11:08:24.001Z</time></trkpt><trkpt lat="43.46164488936609" lon="10.71155056979096"><ele>166.5</ele><time>2026-04-19T11:08:25.001Z</time></trkpt><trkpt lat="43.46156987763608" lon="10.71154874763555"><ele>167.0</ele><time>2026-04-19T11:08:26.001Z</time></trkpt><trkpt lat="43.46149188067607" lon="10.711543555794819"><ele>167.0</ele><time>2026-04-19T11:08:27.001Z</time></trkpt><trkpt lat="43.46141143664971" lon="10.711535497211813"><ele>167.0</ele><time>2026-04-19T11:08:28.001Z</time></trkpt><trkpt lat="43.46132801157164" lon="10.711524182730479"><ele>167.0</ele><time>2026-04-19T11:08:29.001Z</time></trkpt><trkpt lat="43.46124162302557" lon="10.711514236022767"><ele>167.0</ele><time>2026-04-19T11:08:30.001Z</time></trkpt><trkpt lat="43.46115069154717" lon="10.711504339087394"><ele>167.0</ele><time>2026-04-19T11:08:31.001Z</time></trkpt><trkpt lat="43.46105609848076" lon="10.711493020088586"><ele>167.0</ele><time>2026-04-19T11:08:32.001Z</time></trkpt><trkpt lat="43.46095802277413" lon="10.711482154680644"><ele>168.0</ele><time>2026-04-19T11:08:33.001Z</time></trkpt><trkpt lat="43.46086121305897" lon="10.711471608898938"><ele>169.0</ele><time>2026-04-19T11:08:34.001Z</time></trkpt><trkpt lat="43.460765608208426" lon="10.711460880250582"><ele>170.0</ele><time>2026-04-19T11:08:35.001Z</time></trkpt><trkpt lat="43.46066931997538" lon="10.711438304765668"><ele>171.0</ele><time>2026-04-19T11:08:36.001Z</time></trkpt><trkpt lat="43.460572906349405" lon="10.71140960524667"><ele>172.0</ele><time>2026-04-19T11:08:37.001Z</time></trkpt><trkpt lat="43.4604814936822" lon="10.711349093534926"><ele>172.6</ele><time>2026-04-19T11:08:38.001Z</time></trkpt><trkpt lat="43.4603857288641" lon="10.711303811137748"><ele>173.2</ele><time>2026-04-19T11:08:39.001Z</time></trkpt><trkpt lat="43.46028428446685" lon="10.71127524549506"><ele>173.8</ele><time>2026-04-19T11:08:40.001Z</time></trkpt><trkpt lat="43.46019787258181" lon="10.711195408057977"><ele>174.4</ele><time>2026-04-19T11:08:41.001Z</time></trkpt><trkpt lat="43.460109910594596" lon="10.711126836190175"><ele>175.0</ele><time>2026-04-19T11:08:42.001Z</time></trkpt><trkpt lat="43.460024919713796" lon="10.71105188019643"><ele>176.5</ele><time>2026-04-19T11:08:43.001Z</time></trkpt><trkpt lat="43.459951030698996" lon="10.710973342145687"><ele>178.0</ele><time>2026-04-19T11:08:44.001Z</time></trkpt><trkpt lat="43.459903977542425" lon="10.710884428723851"><ele>179.5</ele><time>2026-04-19T11:08:45.001Z</time></trkpt><trkpt lat="43.45986671029806" lon="10.710792852603289"><ele>181.0</ele><time>2026-04-19T11:08:46.001Z</time></trkpt><trkpt lat="43.45984618054244" lon="10.710702051556547"><ele>182.5</ele><time>2026-04-19T11:08:47.001Z</time></trkpt><trkpt lat="43.4598538159127" lon="10.710533201639079"><ele>184.0</ele><time>2026-04-19T11:08:49.001Z</time></trkpt><trkpt lat="43.4598957518857" lon="10.710413159897756"><ele>184.0</ele><time>2026-04-19T11:08:51.001Z</time></trkpt><trkpt lat="43.45993270194266" lon="10.710303787024774"><ele>184.0</ele><time>2026-04-19T11:09:04Z</time></trkpt><trkpt lat="43.45995138613376" lon="10.710194419324292"><ele>184.0</ele><time>2026-04-19T11:09:06Z</time></trkpt><trkpt lat="43.45995721529746" lon="10.710057606891219"><ele>184.0</ele><time>2026-04-19T11:09:08Z</time></trkpt><trkpt lat="43.45992730867174" lon="10.709914938144367"><ele>184.0</ele><time>2026-04-19T11:09:10Z</time></trkpt><trkpt lat="43.45984375905453" lon="10.709795693850145"><ele>184.0</ele><time>2026-04-19T11:09:12Z</time></trkpt><trkpt lat="43.459785388584066" lon="10.709759224367518"><ele>184.0</ele><time>2026-04-19T11:09:13Z</time></trkpt><trkpt lat="43.45967045552668" lon="10.709728977262708"><ele>184.0</ele><time>2026-04-19T11:09:15Z</time></trkpt><trkpt lat="43.45956173865296" lon="10.709682835509087"><ele>184.0</ele><time>2026-04-19T11:09:17Z</time></trkpt><trkpt lat="43.459445681164176" lon="10.709663962415581"><ele>184.0</ele><time>2026-04-19T11:09:19Z</time></trkpt><trkpt lat="43.45932850488841" lon="10.709647578532781"><ele>184.0</ele><time>2026-04-19T11:09:21Z</time></trkpt><trkpt lat="43.45920776270456" lon="10.70963069606275"><ele>184.0</ele><time>2026-04-19T11:09:23Z</time></trkpt><trkpt lat="43.45908807520343" lon="10.709611535698198"><ele>184.0</ele><time>2026-04-19T11:09:25Z</time></trkpt><trkpt lat="43.45897370784704" lon="10.709593122778072"><ele>184.0</ele><time>2026-04-19T11:09:27Z</time></trkpt><trkpt lat="43.45886152785816" lon="10.709575932740528"><ele>183.71428571428572</ele><time>2026-04-19T11:09:29Z</time></trkpt><trkpt lat="43.45874177233759" lon="10.70955430464334"><ele>183.42857142857142</ele><time>2026-04-19T11:09:31Z</time></trkpt><trkpt lat="43.458679191807946" lon="10.709541024272225"><ele>183.14285714285714</ele><time>2026-04-19T11:09:32Z</time></trkpt><trkpt lat="43.45861478366655" lon="10.709527356036654"><ele>182.85714285714286</ele><time>2026-04-19T11:09:33Z</time></trkpt><trkpt lat="43.45855068495353" lon="10.709513753510246"><ele>182.57142857142856</ele><time>2026-04-19T11:09:34Z</time></trkpt><trkpt lat="43.45848694142251" lon="10.709500226325865"><ele>182.28571428571428</ele><time>2026-04-19T11:09:35Z</time></trkpt><trkpt lat="43.458423916465534" lon="10.709486851640703"><ele>182.0</ele><time>2026-04-19T11:09:36Z</time></trkpt><trkpt lat="43.45830944366396" lon="10.709462559059313"><ele>182.0</ele><time>2026-04-19T11:09:38Z</time></trkpt><trkpt lat="43.45821022443484" lon="10.709441924060123"><ele>182.0</ele><time>2026-04-19T11:09:40Z</time></trkpt><trkpt lat="43.45811073711785" lon="10.709423367768313"><ele>182.0</ele><time>2026-04-19T11:09:42Z</time></trkpt><trkpt lat="43.45800425682114" lon="10.709403507131166"><ele>182.0</ele><time>2026-04-19T11:09:44Z</time></trkpt><trkpt lat="43.45787961203282" lon="10.709377607593005"><ele>182.0</ele><time>2026-04-19T11:09:46Z</time></trkpt><trkpt lat="43.457811497877046" lon="10.709362148479121"><ele>181.71428571428572</ele><time>2026-04-19T11:09:47Z</time></trkpt><trkpt lat="43.45774123470926" lon="10.709346153638894"><ele>181.42857142857144</ele><time>2026-04-19T11:09:48Z</time></trkpt><trkpt lat="43.4576688333315" lon="10.70933138448042"><ele>181.14285714285714</ele><time>2026-04-19T11:09:49Z</time></trkpt><trkpt lat="43.457595896756985" lon="10.709317831495275"><ele>180.85714285714286</ele><time>2026-04-19T11:09:50Z</time></trkpt><trkpt lat="43.45752200018329" lon="10.709306322245729"><ele>180.57142857142858</ele><time>2026-04-19T11:09:51Z</time></trkpt><trkpt lat="43.4574484349411" lon="10.709296476807292"><ele>180.28571428571428</ele><time>2026-04-19T11:09:52Z</time></trkpt><trkpt lat="43.457378486568444" lon="10.709289460263037"><ele>180.0</ele><time>2026-04-19T11:09:53Z</time></trkpt><trkpt lat="43.45730945701404" lon="10.709278393052763"><ele>180.0</ele><time>2026-04-19T11:09:54Z</time></trkpt><trkpt lat="43.45724769907764" lon="10.709258628986788"><ele>180.0</ele><time>2026-04-19T11:09:55Z</time></trkpt><trkpt lat="43.45718324088471" lon="10.709242892617105"><ele>180.0</ele><time>2026-04-19T11:09:56Z</time></trkpt><trkpt lat="43.45714414524035" lon="10.709167358474756"><ele>180.0</ele><time>2026-04-19T11:09:57Z</time></trkpt><trkpt lat="43.457108408721915" lon="10.709091531465326"><ele>180.0</ele><time>2026-04-19T11:09:58Z</time></trkpt><trkpt lat="43.457072751466335" lon="10.70900590095384"><ele>180.0</ele><time>2026-04-19T11:09:59Z</time></trkpt><trkpt lat="43.45703869235783" lon="10.708907887596819"><ele>180.0</ele><time>2026-04-19T11:10:00.001Z</time></trkpt><trkpt lat="43.457004483693" lon="10.70880358863738"><ele>180.2</ele><time>2026-04-19T11:10:01.001Z</time></trkpt><trkpt lat="43.456972168436536" lon="10.708694689197209"><ele>180.4</ele><time>2026-04-19T11:10:02.001Z</time></trkpt><trkpt lat="43.456937617161145" lon="10.708578731625673"><ele>180.60000000000002</ele><time>2026-04-19T11:10:03.001Z</time></trkpt><trkpt lat="43.4568993694017" lon="10.708461514826935"><ele>180.8</ele><time>2026-04-19T11:10:04.001Z</time></trkpt><trkpt lat="43.456857440260045" lon="10.708343524763103"><ele>181.0</ele><time>2026-04-19T11:10:05.001Z</time></trkpt><trkpt lat="43.45680871327461" lon="10.708226909578794"><ele>181.0</ele><time>2026-04-19T11:10:06.001Z</time></trkpt><trkpt lat="43.45675140563201" lon="10.708119491064627"><ele>181.0</ele><time>2026-04-19T11:10:07.001Z</time></trkpt><trkpt lat="43.456693567058366" lon="10.708018121805164"><ele>181.0</ele><time>2026-04-19T11:10:08.001Z</time></trkpt><trkpt lat="43.45663406539641" lon="10.70792066825151"><ele>181.0</ele><time>2026-04-19T11:10:09.001Z</time></trkpt><trkpt lat="43.45657356174339" lon="10.707827097107977"><ele>181.0</ele><time>2026-04-19T11:10:10.001Z</time></trkpt><trkpt lat="43.456508976280716" lon="10.707740138268095"><ele>181.5</ele><time>2026-04-19T11:10:11.001Z</time></trkpt><trkpt lat="43.45644522233334" lon="10.707659367051773"><ele>182.0</ele><time>2026-04-19T11:10:12.001Z</time></trkpt><trkpt lat="43.45638040150432" lon="10.707584883906687"><ele>182.5</ele><time>2026-04-19T11:10:13.001Z</time></trkpt><trkpt lat="43.45631570583475" lon="10.707518874390406"><ele>183.0</ele><time>2026-04-19T11:10:14.001Z</time></trkpt><trkpt lat="43.4562532308528" lon="10.70745591768173"><ele>183.5</ele><time>2026-04-19T11:10:15.001Z</time></trkpt><trkpt lat="43.456190504552765" lon="10.707391442384736"><ele>184.0</ele><time>2026-04-19T11:10:16.001Z</time></trkpt><trkpt lat="43.45612795633705" lon="10.707325623707415"><ele>184.5</ele><time>2026-04-19T11:10:17.001Z</time></trkpt><trkpt lat="43.45606615890454" lon="10.707259873427434"><ele>185.0</ele><time>2026-04-19T11:10:18.001Z</time></trkpt><trkpt lat="43.45600761885573" lon="10.707195241202417"><ele>185.5</ele><time>2026-04-19T11:10:19.001Z</time></trkpt><trkpt lat="43.45595043687535" lon="10.707129064585734"><ele>186.0</ele><time>2026-04-19T11:10:20.001Z</time></trkpt><trkpt lat="43.455893430725666" lon="10.707059637182475"><ele>186.5</ele><time>2026-04-19T11:10:21.001Z</time></trkpt><trkpt lat="43.45583714196559" lon="10.706985195059774"><ele>187.0</ele><time>2026-04-19T11:10:22.001Z</time></trkpt><trkpt lat="43.45578434451765" lon="10.706905957269397"><ele>187.83333333333334</ele><time>2026-04-19T11:10:23.001Z</time></trkpt><trkpt lat="43.45573427684895" lon="10.706822423197707"><ele>188.66666666666669</ele><time>2026-04-19T11:10:24.001Z</time></trkpt><trkpt lat="43.45568788937752" lon="10.706733517061158"><ele>189.5</ele><time>2026-04-19T11:10:25.001Z</time></trkpt><trkpt lat="43.45565048030836" lon="10.706636749974102"><ele>190.33333333333334</ele><time>2026-04-19T11:10:26.001Z</time></trkpt><trkpt lat="43.455611265603714" lon="10.706531319286968"><ele>191.16666666666666</ele><time>2026-04-19T11:10:27.001Z</time></trkpt><trkpt lat="43.455569821934915" lon="10.706421956343853"><ele>192.0</ele><time>2026-04-19T11:10:28.001Z</time></trkpt><trkpt lat="43.45552596330631" lon="10.706310930332336"><ele>192.0</ele><time>2026-04-19T11:10:29.001Z</time></trkpt><trkpt lat="43.455478438953605" lon="10.706198695494308"><ele>192.0</ele><time>2026-04-19T11:10:30.001Z</time></trkpt><trkpt lat="43.455426496428245" lon="10.706093700169136"><ele>192.0</ele><time>2026-04-19T11:10:31.001Z</time></trkpt><trkpt lat="43.45535534367496" lon="10.706015874969316"><ele>192.0</ele><time>2026-04-19T11:10:32.001Z</time></trkpt><trkpt lat="43.455291407159116" lon="10.70593730444289"><ele>192.0</ele><time>2026-04-19T11:10:33.001Z</time></trkpt><trkpt lat="43.45523524113807" lon="10.705849382804958"><ele>192.0</ele><time>2026-04-19T11:10:34.001Z</time></trkpt><trkpt lat="43.45516350365755" lon="10.705787738268258"><ele>193.5</ele><time>2026-04-19T11:10:35.001Z</time></trkpt><trkpt lat="43.45509610733843" lon="10.705730028593669"><ele>195.0</ele><time>2026-04-19T11:10:36.001Z</time></trkpt><trkpt lat="43.455033562698716" lon="10.705671303651059"><ele>196.5</ele><time>2026-04-19T11:10:37.001Z</time></trkpt><trkpt lat="43.45497900353194" lon="10.705600808454614"><ele>198.0</ele><time>2026-04-19T11:10:38.001Z</time></trkpt><trkpt lat="43.45492839559022" lon="10.705522482088124"><ele>199.5</ele><time>2026-04-19T11:10:39.001Z</time></trkpt><trkpt lat="43.454882910890355" lon="10.705433874050925"><ele>201.0</ele><time>2026-04-19T11:10:40.001Z</time></trkpt><trkpt lat="43.45483259000257" lon="10.705342319041046"><ele>201.0</ele><time>2026-04-19T11:10:41.001Z</time></trkpt><trkpt lat="43.45478100681866" lon="10.705251828278536"><ele>201.0</ele><time>2026-04-19T11:10:42.001Z</time></trkpt><trkpt lat="43.454719587790706" lon="10.70516134151679"><ele>201.0</ele><time>2026-04-19T11:10:43.001Z</time></trkpt><trkpt lat="43.45465816390677" lon="10.70507410973045"><ele>201.0</ele><time>2026-04-19T11:10:44.001Z</time></trkpt><trkpt lat="43.45459737613436" lon="10.70498272945462"><ele>201.0</ele><time>2026-04-19T11:10:45.001Z</time></trkpt><trkpt lat="43.454538927322574" lon="10.704891483577693"><ele>201.0</ele><time>2026-04-19T11:10:46.001Z</time></trkpt><trkpt lat="43.454484211436665" lon="10.704800604710616"><ele>203.66666666666666</ele><time>2026-04-19T11:10:47.001Z</time></trkpt><trkpt lat="43.4544534369608" lon="10.704704865158288"><ele>206.33333333333331</ele><time>2026-04-19T11:10:48.001Z</time></trkpt><trkpt lat="43.45443488834774" lon="10.704606376872977"><ele>209.0</ele><time>2026-04-19T11:10:49.001Z</time></trkpt><trkpt lat="43.4544192774916" lon="10.704504591367153"><ele>211.66666666666666</ele><time>2026-04-19T11:10:50.001Z</time></trkpt><trkpt lat="43.454404424997314" lon="10.70440039770591"><ele>214.33333333333331</ele><time>2026-04-19T11:10:51.001Z</time></trkpt><trkpt lat="43.454384895339544" lon="10.704299527732452"><ele>217.0</ele><time>2026-04-19T11:10:52.001Z</time></trkpt><trkpt lat="43.45436150166322" lon="10.704201671148136"><ele>217.33333333333331</ele><time>2026-04-19T11:10:53.001Z</time></trkpt><trkpt lat="43.45431768651751" lon="10.704107149738286"><ele>217.66666666666666</ele><time>2026-04-19T11:10:54.001Z</time></trkpt><trkpt lat="43.454250534411486" lon="10.70403510375477"><ele>218.0</ele><time>2026-04-19T11:10:55.001Z</time></trkpt><trkpt lat="43.45417333288896" lon="10.703995377106201"><ele>218.33333333333331</ele><time>2026-04-19T11:10:56.001Z</time></trkpt><trkpt lat="43.45408922167556" lon="10.703992442799882"><ele>218.66666666666666</ele><time>2026-04-19T11:10:57.001Z</time></trkpt><trkpt lat="43.45400822226039" lon="10.704016394978172"><ele>219.0</ele><time>2026-04-19T11:10:58Z</time></trkpt><trkpt lat="43.45392036544847" lon="10.704018654848072"><ele>219.0</ele><time>2026-04-19T11:10:59Z</time></trkpt><trkpt lat="43.453829500376436" lon="10.704022728041865"><ele>218.99999999999997</ele><time>2026-04-19T11:11:00Z</time></trkpt><trkpt lat="43.45373608434612" lon="10.704027110645082"><ele>218.99999999999997</ele><time>2026-04-19T11:11:01Z</time></trkpt><trkpt lat="43.45364092477458" lon="10.704031258212588"><ele>219.0</ele><time>2026-04-19T11:11:02Z</time></trkpt><trkpt lat="43.45354699782056" lon="10.704037947568011"><ele>219.0</ele><time>2026-04-19T11:11:03Z</time></trkpt><trkpt lat="43.45345520651592" lon="10.704048584035126"><ele>220.0</ele><time>2026-04-19T11:11:04Z</time></trkpt><trkpt lat="43.45336709578055" lon="10.704066551390126"><ele>221.0</ele><time>2026-04-19T11:11:05Z</time></trkpt><trkpt lat="43.45327856759825" lon="10.70408595559488"><ele>222.0</ele><time>2026-04-19T11:11:06Z</time></trkpt><trkpt lat="43.45319813724314" lon="10.704100889282262"><ele>223.0</ele><time>2026-04-19T11:11:07Z</time></trkpt><trkpt lat="43.45312381505733" lon="10.704114554309278"><ele>224.0</ele><time>2026-04-19T11:11:08Z</time></trkpt><trkpt lat="43.45305214533528" lon="10.70413052806991"><ele>225.0</ele><time>2026-04-19T11:11:09Z</time></trkpt><trkpt lat="43.45298065113563" lon="10.704157803313999"><ele>226.33333333333334</ele><time>2026-04-19T11:11:10Z</time></trkpt><trkpt lat="43.45290252788359" lon="10.704192132427279"><ele>227.66666666666669</ele><time>2026-04-19T11:11:11Z</time></trkpt><trkpt lat="43.45282262095606" lon="10.70422816590392"><ele>229.0</ele><time>2026-04-19T11:11:12Z</time></trkpt><trkpt lat="43.452741238221385" lon="10.70427134850352"><ele>230.33333333333334</ele><time>2026-04-19T11:11:13Z</time></trkpt><trkpt lat="43.45266029524397" lon="10.704323055988525"><ele>231.66666666666669</ele><time>2026-04-19T11:11:14Z</time></trkpt><trkpt lat="43.45257975816229" lon="10.70437842557597"><ele>233.0</ele><time>2026-04-19T11:11:15Z</time></trkpt><trkpt lat="43.452498037211996" lon="10.704436682874297"><ele>233.2</ele><time>2026-04-19T11:11:16Z</time></trkpt><trkpt lat="43.45241619097202" lon="10.70449837342287"><ele>233.4</ele><time>2026-04-19T11:11:17Z</time></trkpt><trkpt lat="43.45233435464467" lon="10.70456299747031"><ele>233.59999999999997</ele><time>2026-04-19T11:11:18Z</time></trkpt><trkpt lat="43.4522528657797" lon="10.704629719456312"><ele>233.79999999999998</ele><time>2026-04-19T11:11:19Z</time></trkpt><trkpt lat="43.452173222109465" lon="10.704699802119583"><ele>234.0</ele><time>2026-04-19T11:11:20Z</time></trkpt><trkpt lat="43.452097559182576" lon="10.704774792998487"><ele>235.83333333333334</ele><time>2026-04-19T11:11:21Z</time></trkpt><trkpt lat="43.45203026420561" lon="10.704857860756107"><ele>237.66666666666669</ele><time>2026-04-19T11:11:22Z</time></trkpt><trkpt lat="43.451973633140604" lon="10.704942465532165"><ele>239.5</ele><time>2026-04-19T11:11:23Z</time></trkpt><trkpt lat="43.45193642977652" lon="10.705041836016939"><ele>241.33333333333334</ele><time>2026-04-19T11:11:24Z</time></trkpt><trkpt lat="43.45191435192572" lon="10.705153044087837"><ele>243.16666666666669</ele><time>2026-04-19T11:11:25Z</time></trkpt><trkpt lat="43.45189885934078" lon="10.705270794588102"><ele>245.0</ele><time>2026-04-19T11:11:26Z</time></trkpt><trkpt lat="43.45187614571058" lon="10.705385271577862"><ele>245.0</ele><time>2026-04-19T11:11:27Z</time></trkpt><trkpt lat="43.45183840343559" lon="10.70549571292799"><ele>245.0</ele><time>2026-04-19T11:11:28Z</time></trkpt><trkpt lat="43.45179420709338" lon="10.705605782872476"><ele>245.0</ele><time>2026-04-19T11:11:29Z</time></trkpt><trkpt lat="43.45174577953747" lon="10.705713038853105"><ele>245.0</ele><time>2026-04-19T11:11:30Z</time></trkpt><trkpt lat="43.45169279631925" lon="10.705819746837381"><ele>245.0</ele><time>2026-04-19T11:11:31Z</time></trkpt><trkpt lat="43.45163591323471" lon="10.705924713201323"><ele>245.0</ele><time>2026-04-19T11:11:32Z</time></trkpt><trkpt lat="43.45157570618192" lon="10.706026864039943"><ele>245.0</ele><time>2026-04-19T11:11:33Z</time></trkpt><trkpt lat="43.45151373410263" lon="10.706124343672958"><ele>245.0</ele><time>2026-04-19T11:11:34Z</time></trkpt><trkpt lat="43.45144993587492" lon="10.70622089506344"><ele>245.0</ele><time>2026-04-19T11:11:35Z</time></trkpt><trkpt lat="43.45138042606129" lon="10.706314044285945"><ele>245.0</ele><time>2026-04-19T11:11:36Z</time></trkpt><trkpt lat="43.4513112622432" lon="10.70639853089505"><ele>244.4</ele><time>2026-04-19T11:11:37Z</time></trkpt><trkpt lat="43.45125517436096" lon="10.706472367788122"><ele>243.8</ele><time>2026-04-19T11:11:38Z</time></trkpt><trkpt lat="43.45121420265514" lon="10.706540463550963"><ele>243.2</ele><time>2026-04-19T11:11:39Z</time></trkpt><trkpt lat="43.45112884491979" lon="10.706623564149755"><ele>242.6</ele><time>2026-04-19T11:11:41Z</time></trkpt><trkpt lat="43.45106969984917" lon="10.70670343500935"><ele>242.0</ele><time>2026-04-19T11:11:43Z</time></trkpt><trkpt lat="43.451169844947906" lon="10.706922075789873"><ele>240.83333333333334</ele><time>2026-04-19T11:11:44Z</time></trkpt><trkpt lat="43.45117630683436" lon="10.707076221245593"><ele>239.66666666666669</ele><time>2026-04-19T11:11:46Z</time></trkpt><trkpt lat="43.45117946709614" lon="10.707220817380584"><ele>238.5</ele><time>2026-04-19T11:11:48Z</time></trkpt><trkpt lat="43.45117510580918" lon="10.707354319478327"><ele>237.33333333333331</ele><time>2026-04-19T11:11:50Z</time></trkpt><trkpt lat="43.451178855302196" lon="10.70745280124904"><ele>236.16666666666666</ele><time>2026-04-19T11:11:52.001Z</time></trkpt><trkpt lat="43.45118388821851" lon="10.707540362014216"><ele>235.0</ele><time>2026-04-19T11:12:03.001Z</time></trkpt><trkpt lat="43.4511917244883" lon="10.707637400676433"><ele>235.0</ele><time>2026-04-19T11:12:05.001Z</time></trkpt><trkpt lat="43.451215857785826" lon="10.70773664216247"><ele>234.99999999999997</ele><time>2026-04-19T11:12:07.001Z</time></trkpt><trkpt lat="43.4512405439235" lon="10.70783382980571"><ele>235.0</ele><time>2026-04-19T11:12:09.001Z</time></trkpt><trkpt lat="43.45126398432223" lon="10.707934983966346"><ele>235.0</ele><time>2026-04-19T11:12:11.001Z</time></trkpt><trkpt lat="43.45128126362303" lon="10.70804095312268"><ele>234.99999999999997</ele><time>2026-04-19T11:12:13.001Z</time></trkpt><trkpt lat="43.451293447070924" lon="10.70813729537901"><ele>235.0</ele><time>2026-04-19T11:12:15.001Z</time></trkpt><trkpt lat="43.45130210405507" lon="10.708226702228462"><ele>235.0</ele><time>2026-04-19T11:12:19.001Z</time></trkpt><trkpt lat="43.45130027908206" lon="10.708334690627689"><ele>234.49999999999997</ele><time>2026-04-19T11:12:23.001Z</time></trkpt><trkpt lat="43.45127440549163" lon="10.708441017657007"><ele>234.0</ele><time>2026-04-19T11:12:27.001Z</time></trkpt><trkpt lat="43.45124053414476" lon="10.708523609373724"><ele>233.5</ele><time>2026-04-19T11:12:29.001Z</time></trkpt><trkpt lat="43.45118959873242" lon="10.708620154125626"><ele>233.0</ele><time>2026-04-19T11:12:31.001Z</time></trkpt><trkpt lat="43.451134352983175" lon="10.70873102063639"><ele>232.49999999999997</ele><time>2026-04-19T11:12:33.001Z</time></trkpt><trkpt lat="43.45107363399573" lon="10.708835294947857"><ele>232.0</ele><time>2026-04-19T11:12:35.001Z</time></trkpt><trkpt lat="43.451029561612756" lon="10.708931711489635"><ele>231.8571428571429</ele><time>2026-04-19T11:12:37.001Z</time></trkpt><trkpt lat="43.45098314460734" lon="10.708997657218884"><ele>231.71428571428572</ele><time>2026-04-19T11:12:39.001Z</time></trkpt><trkpt lat="43.45089845173011" lon="10.708962986189652"><ele>231.57142857142858</ele><time>2026-04-19T11:12:42.001Z</time></trkpt><trkpt lat="43.45081195859269" lon="10.70900143610899"><ele>231.42857142857144</ele><time>2026-04-19T11:12:45.001Z</time></trkpt><trkpt lat="43.45076527596668" lon="10.709069929449686"><ele>231.28571428571428</ele><time>2026-04-19T11:12:47.001Z</time></trkpt><trkpt lat="43.45072546814415" lon="10.70914595740565"><ele>231.14285714285714</ele><time>2026-04-19T11:12:49.001Z</time></trkpt><trkpt lat="43.4506969094967" lon="10.709229752472753"><ele>231.0</ele><time>2026-04-19T11:12:51.001Z</time></trkpt><trkpt lat="43.45067387666026" lon="10.709317286310117"><ele>231.0</ele><time>2026-04-19T11:12:53.001Z</time></trkpt><trkpt lat="43.45064692699633" lon="10.709397986538024"><ele>231.0</ele><time>2026-04-19T11:12:55.001Z</time></trkpt><trkpt lat="43.45061659255427" lon="10.709479348395407"><ele>231.0</ele><time>2026-04-19T11:12:57.001Z</time></trkpt><trkpt lat="43.45057330371134" lon="10.709554101578329"><ele>231.0</ele><time>2026-04-19T11:13:01.001Z</time></trkpt><trkpt lat="43.450530551114156" lon="10.709621163512763"><ele>231.0</ele><time>2026-04-19T11:13:04Z</time></trkpt><trkpt lat="43.45047940588151" lon="10.709697488234102"><ele>231.0</ele><time>2026-04-19T11:13:07Z</time></trkpt><trkpt lat="43.45043036779582" lon="10.709787471434625"><ele>231.0</ele><time>2026-04-19T11:13:10Z</time></trkpt><trkpt lat="43.45038845630669" lon="10.709866991643038"><ele>228.85714285714286</ele><time>2026-04-19T11:13:13Z</time></trkpt><trkpt lat="43.45035772827549" lon="10.709947304659108"><ele>226.71428571428572</ele><time>2026-04-19T11:13:16Z</time></trkpt><trkpt lat="43.450317811315095" lon="10.710036146419485"><ele>224.57142857142856</ele><time>2026-04-19T11:13:20Z</time></trkpt><trkpt lat="43.45028855355409" lon="10.710122687547582"><ele>222.42857142857144</ele><time>2026-04-19T11:13:23Z</time></trkpt><trkpt lat="43.450281723911935" lon="10.710219537590435"><ele>220.28571428571428</ele><time>2026-04-19T11:13:25Z</time></trkpt><trkpt lat="43.45028258082646" lon="10.710315105574539"><ele>218.14285714285714</ele><time>2026-04-19T11:13:27Z</time></trkpt><trkpt lat="43.45027829531299" lon="10.710423289191928"><ele>216.0</ele><time>2026-04-19T11:13:30Z</time></trkpt><trkpt lat="43.4502756220725" lon="10.710540523234771"><ele>215.66666666666666</ele><time>2026-04-19T11:13:33Z</time></trkpt><trkpt lat="43.45027481807899" lon="10.71064433806079"><ele>215.33333333333331</ele><time>2026-04-19T11:13:35Z</time></trkpt><trkpt lat="43.45027601862452" lon="10.710756767410682"><ele>215.0</ele><time>2026-04-19T11:13:37Z</time></trkpt><trkpt lat="43.45027267188931" lon="10.710875696754435"><ele>214.66666666666666</ele><time>2026-04-19T11:13:39Z</time></trkpt><trkpt lat="43.45026014929792" lon="10.710998731093193"><ele>214.33333333333331</ele><time>2026-04-19T11:13:41Z</time></trkpt><trkpt lat="43.45023970112424" lon="10.711119241646296"><ele>214.0</ele><time>2026-04-19T11:13:43Z</time></trkpt><trkpt lat="43.45021775735522" lon="10.711245108709893"><ele>213.66666666666666</ele><time>2026-04-19T11:13:45Z</time></trkpt><trkpt lat="43.45019681274507" lon="10.711366529439458"><ele>213.33333333333331</ele><time>2026-04-19T11:13:47Z</time></trkpt><trkpt lat="43.45017670583627" lon="10.711480424168425"><ele>213.0</ele><time>2026-04-19T11:13:49Z</time></trkpt><trkpt lat="43.45015462976765" lon="10.711590062514153"><ele>212.66666666666669</ele><time>2026-04-19T11:13:51Z</time></trkpt><trkpt lat="43.45013088473212" lon="10.711697066671741"><ele>212.33333333333334</ele><time>2026-04-19T11:13:53.001Z</time></trkpt><trkpt lat="43.45010871501757" lon="10.711803178115218"><ele>212.0</ele><time>2026-04-19T11:13:55.001Z</time></trkpt><trkpt lat="43.45007847196262" lon="10.711902063029173"><ele>212.39999999999998</ele><time>2026-04-19T11:13:57.001Z</time></trkpt><trkpt lat="43.45005395769585" lon="10.711996865779003"><ele>212.79999999999998</ele><time>2026-04-19T11:13:59.001Z</time></trkpt><trkpt lat="43.45002201563417" lon="10.712127580474268"><ele>213.2</ele><time>2026-04-19T11:14:02.001Z</time></trkpt><trkpt lat="43.449989279716135" lon="10.71225168456712"><ele>213.6</ele><time>2026-04-19T11:14:04.001Z</time></trkpt><trkpt lat="43.44995509005489" lon="10.712379207420355"><ele>214.0</ele><time>2026-04-19T11:14:06.001Z</time></trkpt><trkpt lat="43.449922496910176" lon="10.712517900819398"><ele>214.0</ele><time>2026-04-19T11:14:08.001Z</time></trkpt><trkpt lat="43.449883163056164" lon="10.712672955653128"><ele>213.99999999999997</ele><time>2026-04-19T11:14:10.001Z</time></trkpt><trkpt lat="43.449834109834065" lon="10.712822196880504"><ele>213.99999999999997</ele><time>2026-04-19T11:14:12.001Z</time></trkpt><trkpt lat="43.44976164040833" lon="10.712937975724472"><ele>214.0</ele><time>2026-04-19T11:14:14.001Z</time></trkpt><trkpt lat="43.44970505515241" lon="10.713012577960301"><ele>214.0</ele><time>2026-04-19T11:16:14.001Z</time></trkpt><trkpt lat="43.4496630205987" lon="10.713077145943796"><ele>213.49999999999997</ele><time>2026-04-19T11:16:16.001Z</time></trkpt><trkpt lat="43.449641288745426" lon="10.713196046235653"><ele>213.0</ele><time>2026-04-19T11:16:18.001Z</time></trkpt><trkpt lat="43.44966870587277" lon="10.713318871873666"><ele>212.5</ele><time>2026-04-19T11:16:20.001Z</time></trkpt><trkpt lat="43.449699263618946" lon="10.713395369659995"><ele>212.0</ele><time>2026-04-19T11:16:22.001Z</time></trkpt><trkpt lat="43.449746636402466" lon="10.71347983608171"><ele>211.49999999999997</ele><time>2026-04-19T11:16:24.001Z</time></trkpt><trkpt lat="43.44980519408758" lon="10.713556563691021"><ele>211.0</ele><time>2026-04-19T11:16:26.001Z</time></trkpt><trkpt lat="43.44986896639194" lon="10.713614589175037"><ele>209.66666666666666</ele><time>2026-04-19T11:16:28.001Z</time></trkpt><trkpt lat="43.449935106576824" lon="10.713672406420722"><ele>208.33333333333331</ele><time>2026-04-19T11:16:30.001Z</time></trkpt><trkpt lat="43.45000638317193" lon="10.7137404793539"><ele>207.0</ele><time>2026-04-19T11:16:32.001Z</time></trkpt><trkpt lat="43.450062769929744" lon="10.713798330776177"><ele>205.66666666666669</ele><time>2026-04-19T11:16:34.001Z</time></trkpt><trkpt lat="43.4501160943527" lon="10.713853453255549"><ele>204.33333333333334</ele><time>2026-04-19T11:16:36.001Z</time></trkpt><trkpt lat="43.450183553115394" lon="10.713915680261378"><ele>203.0</ele><time>2026-04-19T11:16:38.001Z</time></trkpt><trkpt lat="43.450264485173676" lon="10.71398632404123"><ele>203.00000000000003</ele><time>2026-04-19T11:16:40.001Z</time></trkpt><trkpt lat="43.450355889755045" lon="10.714063358632849"><ele>203.0</ele><time>2026-04-19T11:16:42.001Z</time></trkpt><trkpt lat="43.45046746422126" lon="10.714137449761186"><ele>203.0</ele><time>2026-04-19T11:16:44.001Z</time></trkpt><trkpt lat="43.45053043951019" lon="10.714171315085592"><ele>203.0</ele><time>2026-04-19T11:16:45.001Z</time></trkpt><trkpt lat="43.45059266220314" lon="10.714202286730508"><ele>203.00000000000003</ele><time>2026-04-19T11:16:46.001Z</time></trkpt><trkpt lat="43.450655703112666" lon="10.714237104679448"><ele>203.0</ele><time>2026-04-19T11:16:47.001Z</time></trkpt><trkpt lat="43.45071531733439" lon="10.714280103741519"><ele>201.57142857142858</ele><time>2026-04-19T11:16:48.001Z</time></trkpt><trkpt lat="43.45077269242468" lon="10.714328364793175"><ele>200.14285714285714</ele><time>2026-04-19T11:16:49.002Z</time></trkpt><trkpt lat="43.45082530440216" lon="10.714389030669224"><ele>198.71428571428572</ele><time>2026-04-19T11:16:50.002Z</time></trkpt><trkpt lat="43.45086691151001" lon="10.714462106914649"><ele>197.28571428571428</ele><time>2026-04-19T11:16:51.002Z</time></trkpt><trkpt lat="43.450901546242186" lon="10.714538996666965"><ele>195.85714285714286</ele><time>2026-04-19T11:16:52.002Z</time></trkpt><trkpt lat="43.45093382331755" lon="10.71461499545314"><ele>194.42857142857144</ele><time>2026-04-19T11:16:53.002Z</time></trkpt><trkpt lat="43.45096120667397" lon="10.71469369587198"><ele>193.0</ele><time>2026-04-19T11:16:54.002Z</time></trkpt><trkpt lat="43.451001810538365" lon="10.714768516823096"><ele>192.71428571428572</ele><time>2026-04-19T11:16:55.002Z</time></trkpt><trkpt lat="43.451044908278796" lon="10.71484404094818"><ele>192.42857142857144</ele><time>2026-04-19T11:16:56.002Z</time></trkpt><trkpt lat="43.4510911216917" lon="10.714918700259922"><ele>192.14285714285717</ele><time>2026-04-19T11:16:57.002Z</time></trkpt><trkpt lat="43.45114217522277" lon="10.714985764310743"><ele>191.85714285714286</ele><time>2026-04-19T11:16:58.002Z</time></trkpt><trkpt lat="43.45119304853845" lon="10.715059425894012"><ele>191.57142857142856</ele><time>2026-04-19T11:16:59.002Z</time></trkpt><trkpt lat="43.45123596917729" lon="10.715135136517302"><ele>191.2857142857143</ele><time>2026-04-19T11:17:00.002Z</time></trkpt><trkpt lat="43.45127753058012" lon="10.715205702975602"><ele>191.0</ele><time>2026-04-19T11:17:01.002Z</time></trkpt><trkpt lat="43.45134457150801" lon="10.715328937497564"><ele>190.33333333333331</ele><time>2026-04-19T11:17:03.002Z</time></trkpt><trkpt lat="43.45143603764928" lon="10.715430617611077"><ele>189.66666666666666</ele><time>2026-04-19T11:17:05.002Z</time></trkpt><trkpt lat="43.45149878428233" lon="10.715480846939048"><ele>189.0</ele><time>2026-04-19T11:17:06.002Z</time></trkpt><trkpt lat="43.45157145794631" lon="10.715530097535916"><ele>188.33333333333334</ele><time>2026-04-19T11:17:07.002Z</time></trkpt><trkpt lat="43.4516323917914" lon="10.715596487611858"><ele>187.66666666666669</ele><time>2026-04-19T11:17:08.002Z</time></trkpt><trkpt lat="43.45167983585751" lon="10.715679205375245"><ele>187.0</ele><time>2026-04-19T11:17:09.002Z</time></trkpt><trkpt lat="43.45171102722508" lon="10.715756585460413"><ele>187.0</ele><time>2026-04-19T11:17:10.002Z</time></trkpt><trkpt lat="43.45171291466587" lon="10.715873567097603"><ele>187.0</ele><time>2026-04-19T11:17:12.002Z</time></trkpt><trkpt lat="43.451700698663025" lon="10.715971066441229"><ele>187.0</ele><time>2026-04-19T11:17:14.002Z</time></trkpt><trkpt lat="43.4517217616496" lon="10.716081287075744"><ele>187.0</ele><time>2026-04-19T11:17:16.001Z</time></trkpt><trkpt lat="43.45177073935352" lon="10.716187919882296"><ele>187.0</ele><time>2026-04-19T11:17:18.001Z</time></trkpt><trkpt lat="43.451844647836765" lon="10.716277546821381"><ele>187.0</ele><time>2026-04-19T11:17:20.001Z</time></trkpt><trkpt lat="43.45190850004703" lon="10.716324227817044"><ele>186.0</ele><time>2026-04-19T11:17:22.001Z</time></trkpt><trkpt lat="43.45201055250096" lon="10.716387332229452"><ele>185.0</ele><time>2026-04-19T11:17:24.001Z</time></trkpt><trkpt lat="43.452111387821844" lon="10.716457730448848"><ele>184.0</ele><time>2026-04-19T11:17:26.001Z</time></trkpt><trkpt lat="43.45218711260233" lon="10.716579512374558"><ele>183.0</ele><time>2026-04-19T11:17:28.001Z</time></trkpt><trkpt lat="43.45223415105477" lon="10.716728450667777"><ele>183.0</ele><time>2026-04-19T11:17:30Z</time></trkpt><trkpt lat="43.452256589531274" lon="10.716817904226945"><ele>183.0</ele><time>2026-04-19T11:17:31.001Z</time></trkpt><trkpt lat="43.452285438486165" lon="10.716900978830406"><ele>183.0</ele><time>2026-04-19T11:17:32.001Z</time></trkpt><trkpt lat="43.452351139678846" lon="10.717032549023076"><ele>183.0</ele><time>2026-04-19T11:17:34.001Z</time></trkpt><trkpt lat="43.45241216139443" lon="10.71716587274694"><ele>183.0</ele><time>2026-04-19T11:17:36.001Z</time></trkpt><trkpt lat="43.45250531652413" lon="10.717276411588257"><ele>182.8</ele><time>2026-04-19T11:17:38.001Z</time></trkpt><trkpt lat="43.45258002888544" lon="10.717364610890675"><ele>182.60000000000002</ele><time>2026-04-19T11:17:40.001Z</time></trkpt><trkpt lat="43.452615978458915" lon="10.717468718741223"><ele>182.39999999999998</ele><time>2026-04-19T11:17:42.001Z</time></trkpt><trkpt lat="43.452654373100074" lon="10.717620318577092"><ele>182.2</ele><time>2026-04-19T11:17:44.001Z</time></trkpt><trkpt lat="43.452701860456564" lon="10.717769230211852"><ele>182.0</ele><time>2026-04-19T11:17:46.001Z</time></trkpt><trkpt lat="43.45272848985142" lon="10.717908115847603"><ele>182.0</ele><time>2026-04-19T11:17:48.001Z</time></trkpt><trkpt lat="43.45274089730675" lon="10.718040978974926"><ele>182.0</ele><time>2026-04-19T11:17:50.001Z</time></trkpt><trkpt lat="43.452759548187665" lon="10.718198530517704"><ele>182.0</ele><time>2026-04-19T11:17:52.001Z</time></trkpt><trkpt lat="43.45277395658633" lon="10.718287217534497"><ele>182.0</ele><time>2026-04-19T11:17:53.001Z</time></trkpt><trkpt lat="43.45278731989688" lon="10.718378893876542"><ele>182.0</ele><time>2026-04-19T11:17:54.001Z</time></trkpt><trkpt lat="43.45280769999827" lon="10.718476830954348"><ele>182.0</ele><time>2026-04-19T11:17:55.001Z</time></trkpt><trkpt lat="43.452831538352086" lon="10.718572128563798"><ele>181.14285714285714</ele><time>2026-04-19T11:17:56.001Z</time></trkpt><trkpt lat="43.452859255314344" lon="10.718666358409344"><ele>180.28571428571428</ele><time>2026-04-19T11:17:57.001Z</time></trkpt><trkpt lat="43.452893257077186" lon="10.718761054909343"><ele>179.42857142857144</ele><time>2026-04-19T11:17:58.001Z</time></trkpt><trkpt lat="43.452934139720305" lon="10.718851943913913"><ele>178.57142857142856</ele><time>2026-04-19T11:17:59.001Z</time></trkpt><trkpt lat="43.45297079451348" lon="10.718937261375618"><ele>177.71428571428572</ele><time>2026-04-19T11:18:00.001Z</time></trkpt><trkpt lat="43.4530131947498" lon="10.719012521262425"><ele>176.85714285714286</ele><time>2026-04-19T11:18:01.001Z</time></trkpt><trkpt lat="43.453052656420944" lon="10.719084628446291"><ele>176.0</ele><time>2026-04-19T11:18:02.001Z</time></trkpt><trkpt lat="43.45313167262113" lon="10.71921698917638"><ele>176.0</ele><time>2026-04-19T11:18:04.001Z</time></trkpt><trkpt lat="43.45317704364627" lon="10.71929461612514"><ele>176.0</ele><time>2026-04-19T11:18:05.001Z</time></trkpt><trkpt lat="43.45322520301462" lon="10.719378035476964"><ele>176.0</ele><time>2026-04-19T11:18:06.001Z</time></trkpt><trkpt lat="43.453278040003845" lon="10.719466171063365"><ele>176.0</ele><time>2026-04-19T11:18:07.001Z</time></trkpt><trkpt lat="43.4533309630365" lon="10.719554007326574"><ele>176.0</ele><time>2026-04-19T11:18:08.001Z</time></trkpt><trkpt lat="43.453377248286884" lon="10.719653810945433"><ele>176.0</ele><time>2026-04-19T11:18:09.001Z</time></trkpt><trkpt lat="43.453423260723696" lon="10.719741946253638"><ele>175.16666666666666</ele><time>2026-04-19T11:18:10.001Z</time></trkpt><trkpt lat="43.45346965485741" lon="10.71983518516564"><ele>174.33333333333331</ele><time>2026-04-19T11:18:11.001Z</time></trkpt><trkpt lat="43.453517324398966" lon="10.719931114228746"><ele>173.5</ele><time>2026-04-19T11:18:12.001Z</time></trkpt><trkpt lat="43.453564704693314" lon="10.720027798597974"><ele>172.66666666666666</ele><time>2026-04-19T11:18:13.001Z</time></trkpt><trkpt lat="43.45361239443824" lon="10.72012501557096"><ele>171.83333333333334</ele><time>2026-04-19T11:18:14.001Z</time></trkpt><trkpt lat="43.4536640075026" lon="10.72022277188406"><ele>171.0</ele><time>2026-04-19T11:18:15.001Z</time></trkpt><trkpt lat="43.45371466343319" lon="10.720317062590953"><ele>170.33333333333334</ele><time>2026-04-19T11:18:16.001Z</time></trkpt><trkpt lat="43.453764773684235" lon="10.720403289700819"><ele>169.66666666666666</ele><time>2026-04-19T11:18:17.001Z</time></trkpt><trkpt lat="43.45381306860558" lon="10.72048618517367"><ele>169.0</ele><time>2026-04-19T11:18:18.001Z</time></trkpt><trkpt lat="43.453858616115895" lon="10.720570830843501"><ele>168.33333333333331</ele><time>2026-04-19T11:18:19.001Z</time></trkpt><trkpt lat="43.45390808935155" lon="10.720654504265168"><ele>167.66666666666666</ele><time>2026-04-19T11:18:20.001Z</time></trkpt><trkpt lat="43.45395231966111" lon="10.720744384341668"><ele>167.0</ele><time>2026-04-19T11:18:21.001Z</time></trkpt><trkpt lat="43.45399802614596" lon="10.720845368796084"><ele>167.0</ele><time>2026-04-19T11:18:22.001Z</time></trkpt><trkpt lat="43.45403131355863" lon="10.720959654420273"><ele>167.0</ele><time>2026-04-19T11:18:23.001Z</time></trkpt><trkpt lat="43.45406362275948" lon="10.721075804369994"><ele>167.0</ele><time>2026-04-19T11:18:24.001Z</time></trkpt><trkpt lat="43.45409530180473" lon="10.721180154685674"><ele>167.0</ele><time>2026-04-19T11:18:25.001Z</time></trkpt><trkpt lat="43.45413607583955" lon="10.721262244445699"><ele>167.0</ele><time>2026-04-19T11:18:26.001Z</time></trkpt><trkpt lat="43.45418910619295" lon="10.721331473266556"><ele>167.0</ele><time>2026-04-19T11:18:27.001Z</time></trkpt><trkpt lat="43.454252985745576" lon="10.721391949153755"><ele>167.66666666666666</ele><time>2026-04-19T11:18:28.001Z</time></trkpt><trkpt lat="43.45431774331748" lon="10.721436280300601"><ele>168.33333333333331</ele><time>2026-04-19T11:18:29.001Z</time></trkpt><trkpt lat="43.454406457983225" lon="10.721496150689365"><ele>169.0</ele><time>2026-04-19T11:18:31.001Z</time></trkpt><trkpt lat="43.454467967332334" lon="10.72156825127382"><ele>169.66666666666666</ele><time>2026-04-19T11:18:33.001Z</time></trkpt><trkpt lat="43.45449777969225" lon="10.721688892804243"><ele>170.33333333333334</ele><time>2026-04-19T11:18:35.001Z</time></trkpt><trkpt lat="43.45450321464193" lon="10.721801365353544"><ele>171.0</ele><time>2026-04-19T11:18:37.001Z</time></trkpt><trkpt lat="43.45449574760864" lon="10.721903207993495"><ele>172.0</ele><time>2026-04-19T11:18:41.001Z</time></trkpt><trkpt lat="43.45449387245491" lon="10.72199437723546"><ele>173.0</ele><time>2026-04-19T11:18:43.001Z</time></trkpt><trkpt lat="43.454491423220745" lon="10.722117839029972"><ele>174.0</ele><time>2026-04-19T11:18:45.001Z</time></trkpt><trkpt lat="43.454507531747204" lon="10.72224134717082"><ele>175.0</ele><time>2026-04-19T11:18:47.002Z</time></trkpt><trkpt lat="43.45453859845552" lon="10.72236253554682"><ele>176.0</ele><time>2026-04-19T11:18:49.002Z</time></trkpt><trkpt lat="43.45457912469105" lon="10.722465599205801"><ele>177.0</ele><time>2026-04-19T11:18:51.002Z</time></trkpt><trkpt lat="43.45461514028665" lon="10.722577368787222"><ele>177.8</ele><time>2026-04-19T11:18:53.002Z</time></trkpt><trkpt lat="43.4546776191992" lon="10.722712968325812"><ele>178.6</ele><time>2026-04-19T11:18:55.002Z</time></trkpt><trkpt lat="43.45475630309325" lon="10.722868168942412"><ele>179.4</ele><time>2026-04-19T11:18:57.002Z</time></trkpt><trkpt lat="43.45480530095082" lon="10.722974645832926"><ele>180.20000000000002</ele><time>2026-04-19T11:18:58.002Z</time></trkpt><trkpt lat="43.4548588148127" lon="10.723088059506093"><ele>181.0</ele><time>2026-04-19T11:18:59.002Z</time></trkpt><trkpt lat="43.45491368978282" lon="10.723190575547383"><ele>181.33333333333334</ele><time>2026-04-19T11:19:00.002Z</time></trkpt><trkpt lat="43.45495887845763" lon="10.723276406250951"><ele>181.66666666666669</ele><time>2026-04-19T11:19:01.002Z</time></trkpt><trkpt lat="43.45499903645635" lon="10.72336580520973"><ele>182.0</ele><time>2026-04-19T11:19:02.002Z</time></trkpt><trkpt lat="43.45503832903817" lon="10.72345626466252"><ele>182.33333333333334</ele><time>2026-04-19T11:19:03.002Z</time></trkpt><trkpt lat="43.45507199463915" lon="10.723549642161315"><ele>182.66666666666666</ele><time>2026-04-19T11:19:04.002Z</time></trkpt><trkpt lat="43.455099733387684" lon="10.723632564848185"><ele>183.0</ele><time>2026-04-19T11:19:05.002Z</time></trkpt><trkpt lat="43.45514025624761" lon="10.723728469570203"><ele>183.0</ele><time>2026-04-19T11:19:08.002Z</time></trkpt><trkpt lat="43.45518307555382" lon="10.723807068581479"><ele>183.0</ele><time>2026-04-19T11:19:10.002Z</time></trkpt><trkpt lat="43.45523443317721" lon="10.72389996111027"><ele>183.0</ele><time>2026-04-19T11:19:12.002Z</time></trkpt><trkpt lat="43.45527799157103" lon="10.723980516563032"><ele>183.0</ele><time>2026-04-19T11:19:14.002Z</time></trkpt><trkpt lat="43.455327567817996" lon="10.724058975853968"><ele>183.0</ele><time>2026-04-19T11:19:16.002Z</time></trkpt><trkpt lat="43.455400853100265" lon="10.724180849869203"><ele>183.0</ele><time>2026-04-19T11:19:18.002Z</time></trkpt><trkpt lat="43.4554487238655" lon="10.72425331119259"><ele>182.33333333333334</ele><time>2026-04-19T11:19:19.002Z</time></trkpt><trkpt lat="43.45550282561197" lon="10.724330333672729"><ele>181.66666666666666</ele><time>2026-04-19T11:19:20.002Z</time></trkpt><trkpt lat="43.455558902091745" lon="10.724406087366408"><ele>181.0</ele><time>2026-04-19T11:19:21.002Z</time></trkpt><trkpt lat="43.45561621805578" lon="10.724483039009694"><ele>180.33333333333331</ele><time>2026-04-19T11:19:22Z</time></trkpt><trkpt lat="43.45566780359074" lon="10.724555101738918"><ele>179.66666666666666</ele><time>2026-04-19T11:19:23Z</time></trkpt><trkpt lat="43.455714928448316" lon="10.724633660977881"><ele>179.0</ele><time>2026-04-19T11:19:24Z</time></trkpt><trkpt lat="43.455769248794304" lon="10.724708976309751"><ele>179.0</ele><time>2026-04-19T11:19:25Z</time></trkpt><trkpt lat="43.4558246120744" lon="10.724789446833245"><ele>179.0</ele><time>2026-04-19T11:19:26Z</time></trkpt><trkpt lat="43.45587906439284" lon="10.724869204046719"><ele>179.0</ele><time>2026-04-19T11:19:27Z</time></trkpt><trkpt lat="43.45593531301255" lon="10.724956154378619"><ele>179.0</ele><time>2026-04-19T11:19:28Z</time></trkpt><trkpt lat="43.45598790987991" lon="10.72503493795332"><ele>179.0</ele><time>2026-04-19T11:19:29Z</time></trkpt><trkpt lat="43.456041772139" lon="10.725109632695958"><ele>179.0</ele><time>2026-04-19T11:19:30Z</time></trkpt><trkpt lat="43.45609551005056" lon="10.725180085448912"><ele>177.71428571428572</ele><time>2026-04-19T11:19:31Z</time></trkpt><trkpt lat="43.456143481700586" lon="10.725248594111774"><ele>176.42857142857144</ele><time>2026-04-19T11:19:32Z</time></trkpt><trkpt lat="43.45618935732359" lon="10.725313313424493"><ele>175.14285714285717</ele><time>2026-04-19T11:19:33Z</time></trkpt><trkpt lat="43.45623300125907" lon="10.725380311727038"><ele>173.85714285714286</ele><time>2026-04-19T11:19:34Z</time></trkpt><trkpt lat="43.456280279913294" lon="10.725451953885809"><ele>172.57142857142856</ele><time>2026-04-19T11:19:36Z</time></trkpt><trkpt lat="43.456330788875114" lon="10.725522076712402"><ele>171.2857142857143</ele><time>2026-04-19T11:19:38Z</time></trkpt><trkpt lat="43.456382819609914" lon="10.725591351381617"><ele>170.0</ele><time>2026-04-19T11:19:40Z</time></trkpt><trkpt lat="43.45644771584736" lon="10.725680842671533"><ele>169.6</ele><time>2026-04-19T11:19:42Z</time></trkpt><trkpt lat="43.45651964660838" lon="10.725788815045258"><ele>169.2</ele><time>2026-04-19T11:19:44Z</time></trkpt><trkpt lat="43.456587295544544" lon="10.725887267765565"><ele>168.8</ele><time>2026-04-19T11:19:46Z</time></trkpt><trkpt lat="43.45663341221827" lon="10.725959912310609"><ele>168.4</ele><time>2026-04-19T11:19:48Z</time></trkpt><trkpt lat="43.456696713860985" lon="10.726058841180365"><ele>168.0</ele><time>2026-04-19T11:19:50Z</time></trkpt><trkpt lat="43.45676741365977" lon="10.72617503746182"><ele>166.8</ele><time>2026-04-19T11:19:52Z</time></trkpt><trkpt lat="43.45684636359035" lon="10.726305636176095"><ele>165.60000000000002</ele><time>2026-04-19T11:19:54Z</time></trkpt><trkpt lat="43.456889198110936" lon="10.726370991123352"><ele>164.39999999999998</ele><time>2026-04-19T11:19:55Z</time></trkpt><trkpt lat="43.456964667918086" lon="10.726510777921348"><ele>163.2</ele><time>2026-04-19T11:19:57Z</time></trkpt><trkpt lat="43.45703093886422" lon="10.726649550571985"><ele>162.0</ele><time>2026-04-19T11:19:59.001Z</time></trkpt><trkpt lat="43.45709062431226" lon="10.726768733161913"><ele>161.5</ele><time>2026-04-19T11:20:01.001Z</time></trkpt><trkpt lat="43.45712813606429" lon="10.72685848912968"><ele>161.0</ele><time>2026-04-19T11:20:03.001Z</time></trkpt><trkpt lat="43.45715987196836" lon="10.726956744560246"><ele>160.5</ele><time>2026-04-19T11:20:05.001Z</time></trkpt><trkpt lat="43.45719383179655" lon="10.727079100190618"><ele>160.0</ele><time>2026-04-19T11:20:07.001Z</time></trkpt><trkpt lat="43.45723195074081" lon="10.727245470354754"><ele>159.5</ele><time>2026-04-19T11:20:09.001Z</time></trkpt><trkpt lat="43.457253777901464" lon="10.727335447155054"><ele>159.0</ele><time>2026-04-19T11:20:10.001Z</time></trkpt><trkpt lat="43.457274486054224" lon="10.72742622941851"><ele>159.0</ele><time>2026-04-19T11:20:11.001Z</time></trkpt><trkpt lat="43.45729548748163" lon="10.727521209888435"><ele>159.0</ele><time>2026-04-19T11:20:12.001Z</time></trkpt><trkpt lat="43.457315543333245" lon="10.727615868115693"><ele>159.0</ele><time>2026-04-19T11:20:13.001Z</time></trkpt><trkpt lat="43.45733571707157" lon="10.727702727252174"><ele>159.0</ele><time>2026-04-19T11:20:14.001Z</time></trkpt><trkpt lat="43.4573540210627" lon="10.727788795012374"><ele>159.0</ele><time>2026-04-19T11:20:15.001Z</time></trkpt><trkpt lat="43.457367650553266" lon="10.727877140603935"><ele>159.0</ele><time>2026-04-19T11:20:16.001Z</time></trkpt><trkpt lat="43.45738398604801" lon="10.72797435166275"><ele>159.0</ele><time>2026-04-19T11:20:17.001Z</time></trkpt><trkpt lat="43.457407793703666" lon="10.72807325873536"><ele>158.6</ele><time>2026-04-19T11:20:18.001Z</time></trkpt><trkpt lat="43.457429095124716" lon="10.728159317955361"><ele>158.2</ele><time>2026-04-19T11:20:19.001Z</time></trkpt><trkpt lat="43.45746407664101" lon="10.728319276596624"><ele>157.79999999999998</ele><time>2026-04-19T11:20:21.001Z</time></trkpt><trkpt lat="43.45749219486089" lon="10.72845597221924"><ele>157.4</ele><time>2026-04-19T11:20:23.001Z</time></trkpt><trkpt lat="43.45751964348741" lon="10.728598236233221"><ele>157.0</ele><time>2026-04-19T11:20:25.001Z</time></trkpt><trkpt lat="43.45754723609894" lon="10.728749027443033"><ele>156.5</ele><time>2026-04-19T11:20:27.001Z</time></trkpt><trkpt lat="43.45757151817262" lon="10.728878623355422"><ele>156.0</ele><time>2026-04-19T11:20:29.001Z</time></trkpt><trkpt lat="43.45760335820624" lon="10.729026253960022"><ele>155.5</ele><time>2026-04-19T11:20:31.001Z</time></trkpt><trkpt lat="43.45761818948793" lon="10.729114574251719"><ele>155.0</ele><time>2026-04-19T11:20:32.001Z</time></trkpt><trkpt lat="43.457638847900725" lon="10.729204878617326"><ele>154.5</ele><time>2026-04-19T11:20:33.001Z</time></trkpt><trkpt lat="43.45765735623904" lon="10.729295087222658"><ele>154.0</ele><time>2026-04-19T11:20:34.001Z</time></trkpt><trkpt lat="43.457678507410094" lon="10.729384767901335"><ele>153.0</ele><time>2026-04-19T11:20:35.001Z</time></trkpt><trkpt lat="43.45769323466769" lon="10.729475184630088"><ele>152.0</ele><time>2026-04-19T11:20:36.001Z</time></trkpt><trkpt lat="43.45771263096448" lon="10.729639972083104"><ele>151.0</ele><time>2026-04-19T11:20:38.001Z</time></trkpt><trkpt lat="43.457702221618845" lon="10.729792452754833"><ele>150.0</ele><time>2026-04-19T11:20:40.001Z</time></trkpt><trkpt lat="43.45766561329255" lon="10.729903062628004"><ele>149.0</ele><time>2026-04-19T11:20:42.001Z</time></trkpt><trkpt lat="43.45759145260527" lon="10.730007844036008"><ele>149.0</ele><time>2026-04-19T11:20:44.001Z</time></trkpt><trkpt lat="43.4575426382014" lon="10.730070091459883"><ele>149.0</ele><time>2026-04-19T11:20:45.001Z</time></trkpt><trkpt lat="43.457493593759786" lon="10.730129802879622"><ele>149.0</ele><time>2026-04-19T11:20:46.001Z</time></trkpt><trkpt lat="43.45744495888613" lon="10.730192046873466"><ele>149.0</ele><time>2026-04-19T11:20:47.001Z</time></trkpt><trkpt lat="43.45739659476602" lon="10.730249146674685"><ele>149.0</ele><time>2026-04-19T11:20:48.001Z</time></trkpt><trkpt lat="43.45730864592224" lon="10.73036484144778"><ele>149.0</ele><time>2026-04-19T11:20:50.001Z</time></trkpt><trkpt lat="43.45725813315733" lon="10.730426874175542"><ele>148.14285714285714</ele><time>2026-04-19T11:20:51.001Z</time></trkpt><trkpt lat="43.45720521355467" lon="10.730490032755984"><ele>147.28571428571428</ele><time>2026-04-19T11:20:52.001Z</time></trkpt><trkpt lat="43.45714791221328" lon="10.730557314639045"><ele>146.42857142857142</ele><time>2026-04-19T11:20:53.001Z</time></trkpt><trkpt lat="43.45709578699006" lon="10.730616625907912"><ele>145.57142857142856</ele><time>2026-04-19T11:20:54.001Z</time></trkpt><trkpt lat="43.457050079454824" lon="10.730678778249153"><ele>144.71428571428572</ele><time>2026-04-19T11:20:55.001Z</time></trkpt><trkpt lat="43.457001896948086" lon="10.730738743139225"><ele>143.85714285714283</ele><time>2026-04-19T11:20:56.001Z</time></trkpt><trkpt lat="43.456952746275" lon="10.730799477791969"><ele>143.0</ele><time>2026-04-19T11:20:57.001Z</time></trkpt><trkpt lat="43.45690475478321" lon="10.730861948426888"><ele>141.7142857142857</ele><time>2026-04-19T11:20:58.001Z</time></trkpt><trkpt lat="43.45685780886781" lon="10.730924985719833"><ele>140.42857142857142</ele><time>2026-04-19T11:20:59.001Z</time></trkpt><trkpt lat="43.45680902941471" lon="10.730984904748441"><ele>139.14285714285714</ele><time>2026-04-19T11:21:00.001Z</time></trkpt><trkpt lat="43.45676009861893" lon="10.731047704942828"><ele>137.85714285714283</ele><time>2026-04-19T11:21:01.001Z</time></trkpt><trkpt lat="43.45671249658837" lon="10.731110654354211"><ele>136.57142857142856</ele><time>2026-04-19T11:21:02.001Z</time></trkpt><trkpt lat="43.456667051464976" lon="10.73117556311638"><ele>135.28571428571428</ele><time>2026-04-19T11:21:03.001Z</time></trkpt><trkpt lat="43.45658800453721" lon="10.73128625517545"><ele>134.0</ele><time>2026-04-19T11:21:05.001Z</time></trkpt><trkpt lat="43.45652255617795" lon="10.731374499690022"><ele>133.16666666666666</ele><time>2026-04-19T11:21:07.002Z</time></trkpt><trkpt lat="43.4564597559007" lon="10.731472375721037"><ele>132.33333333333331</ele><time>2026-04-19T11:21:10.002Z</time></trkpt><trkpt lat="43.45640352172106" lon="10.731547332198788"><ele>131.5</ele><time>2026-04-19T11:21:12.002Z</time></trkpt><trkpt lat="43.45634872564216" lon="10.731619458937391"><ele>130.66666666666666</ele><time>2026-04-19T11:21:14.002Z</time></trkpt><trkpt lat="43.45628158865755" lon="10.73170760949919"><ele>129.83333333333334</ele><time>2026-04-19T11:21:16.002Z</time></trkpt><trkpt lat="43.45622492517933" lon="10.731785453871648"><ele>129.0</ele><time>2026-04-19T11:21:18.002Z</time></trkpt><trkpt lat="43.456186646618185" lon="10.731854616561147"><ele>128.33333333333334</ele><time>2026-04-19T11:21:22.002Z</time></trkpt><trkpt lat="43.456122452435125" lon="10.73188560971377"><ele>127.66666666666666</ele><time>2026-04-19T11:21:27.002Z</time></trkpt><trkpt lat="43.45606353356545" lon="10.731828580575364"><ele>127.0</ele><time>2026-04-19T11:21:29Z</time></trkpt><trkpt lat="43.455973152652454" lon="10.731738890035741"><ele>126.33333333333333</ele><time>2026-04-19T11:21:31Z</time></trkpt><trkpt lat="43.455872188329955" lon="10.731650356186096"><ele>125.66666666666666</ele><time>2026-04-19T11:21:33Z</time></trkpt><trkpt lat="43.45581252916438" lon="10.73160118088296"><ele>125.0</ele><time>2026-04-19T11:21:34Z</time></trkpt><trkpt lat="43.455743001916105" lon="10.731543241120892"><ele>125.0</ele><time>2026-04-19T11:21:35Z</time></trkpt><trkpt lat="43.45566424876645" lon="10.731475790865815"><ele>125.0</ele><time>2026-04-19T11:21:36Z</time></trkpt><trkpt lat="43.45557734922364" lon="10.73140118159811"><ele>125.0</ele><time>2026-04-19T11:21:37Z</time></trkpt><trkpt lat="43.45548388724615" lon="10.731321821926182"><ele>125.0</ele><time>2026-04-19T11:21:38Z</time></trkpt><trkpt lat="43.45539215148004" lon="10.731243523049166"><ele>125.0</ele><time>2026-04-19T11:21:39Z</time></trkpt><trkpt lat="43.45530140756187" lon="10.73116845147358"><ele>125.2</ele><time>2026-04-19T11:21:40Z</time></trkpt><trkpt lat="43.45522728897858" lon="10.731079368550688"><ele>125.4</ele><time>2026-04-19T11:21:41Z</time></trkpt><trkpt lat="43.45515024073741" lon="10.731036663803126"><ele>125.6</ele><time>2026-04-19T11:21:42Z</time></trkpt><trkpt lat="43.45508610562451" lon="10.730958756676792"><ele>125.8</ele><time>2026-04-19T11:21:43Z</time></trkpt><trkpt lat="43.45501044001941" lon="10.730894691119582"><ele>126.0</ele><time>2026-04-19T11:21:44Z</time></trkpt><trkpt lat="43.45492936092744" lon="10.730826041990756"><ele>126.0</ele><time>2026-04-19T11:21:45Z</time></trkpt><trkpt lat="43.454848206478026" lon="10.730758010702564"><ele>126.0</ele><time>2026-04-19T11:21:46Z</time></trkpt><trkpt lat="43.4547652909092" lon="10.730714951434193"><ele>126.0</ele><time>2026-04-19T11:21:47Z</time></trkpt><trkpt lat="43.4546968665309" lon="10.730631517608106"><ele>126.0</ele><time>2026-04-19T11:21:48Z</time></trkpt><trkpt lat="43.45461740060271" lon="10.730562865303884"><ele>126.0</ele><time>2026-04-19T11:21:49Z</time></trkpt><trkpt lat="43.45453669584153" lon="10.730492671138697"><ele>125.8</ele><time>2026-04-19T11:21:50Z</time></trkpt><trkpt lat="43.454450713142975" lon="10.730421332872385"><ele>125.6</ele><time>2026-04-19T11:21:51Z</time></trkpt><trkpt lat="43.45436289158093" lon="10.730349594270578"><ele>125.4</ele><time>2026-04-19T11:21:52Z</time></trkpt><trkpt lat="43.454273404428214" lon="10.730273301942155"><ele>125.2</ele><time>2026-04-19T11:21:53Z</time></trkpt><trkpt lat="43.454184296472704" lon="10.730198189117624"><ele>125.0</ele><time>2026-04-19T11:21:54Z</time></trkpt><trkpt lat="43.45409838805889" lon="10.730125990591207"><ele>125.6</ele><time>2026-04-19T11:21:55Z</time></trkpt><trkpt lat="43.4540009560432" lon="10.730066309392491"><ele>126.2</ele><time>2026-04-19T11:21:56Z</time></trkpt><trkpt lat="43.45391838716283" lon="10.729969368424127"><ele>126.80000000000001</ele><time>2026-04-19T11:21:57Z</time></trkpt><trkpt lat="43.45381813533375" lon="10.729908743499676"><ele>127.4</ele><time>2026-04-19T11:21:58Z</time></trkpt><trkpt lat="43.45372611313825" lon="10.729829669770439"><ele>128.0</ele><time>2026-04-19T11:21:59Z</time></trkpt><trkpt lat="43.453633024248816" lon="10.729753160868157"><ele>128.0</ele><time>2026-04-19T11:22:00Z</time></trkpt><trkpt lat="43.45353608849533" lon="10.729673196519208"><ele>128.0</ele><time>2026-04-19T11:22:01Z</time></trkpt><trkpt lat="43.45344543434737" lon="10.72957000966814"><ele>128.0</ele><time>2026-04-19T11:22:02Z</time></trkpt><trkpt lat="43.45333600250448" lon="10.729504199346072"><ele>128.0</ele><time>2026-04-19T11:22:03Z</time></trkpt><trkpt lat="43.45323738639815" lon="10.729419077624534"><ele>128.6</ele><time>2026-04-19T11:22:04Z</time></trkpt><trkpt lat="43.45314592052041" lon="10.729323570704839"><ele>129.20000000000002</ele><time>2026-04-19T11:22:05Z</time></trkpt><trkpt lat="43.45304398022347" lon="10.729262697930452"><ele>129.8</ele><time>2026-04-19T11:22:06Z</time></trkpt><trkpt lat="43.452942090523734" lon="10.729215131270918"><ele>130.4</ele><time>2026-04-19T11:22:07Z</time></trkpt><trkpt lat="43.452843338803675" lon="10.729169848573848"><ele>131.0</ele><time>2026-04-19T11:22:08Z</time></trkpt><trkpt lat="43.45273753070014" lon="10.729121455075866"><ele>131.25</ele><time>2026-04-19T11:22:09Z</time></trkpt><trkpt lat="43.45262139890853" lon="10.729090185240038"><ele>131.5</ele><time>2026-04-19T11:22:10.001Z</time></trkpt><trkpt lat="43.45250704263144" lon="10.729036267990674"><ele>131.75</ele><time>2026-04-19T11:22:11.001Z</time></trkpt><trkpt lat="43.45238988634803" lon="10.728977627391641"><ele>132.0</ele><time>2026-04-19T11:22:12.001Z</time></trkpt><trkpt lat="43.452268873876136" lon="10.728920792838236"><ele>132.0</ele><time>2026-04-19T11:22:13.001Z</time></trkpt><trkpt lat="43.45214380087125" lon="10.728861279957057"><ele>132.0</ele><time>2026-04-19T11:22:14.001Z</time></trkpt><trkpt lat="43.45201694462165" lon="10.728803105863875"><ele>132.0</ele><time>2026-04-19T11:22:15.001Z</time></trkpt><trkpt lat="43.451894407587375" lon="10.728746357183963"><ele>132.0</ele><time>2026-04-19T11:22:16.001Z</time></trkpt><trkpt lat="43.4517775463944" lon="10.728694789205694"><ele>132.5</ele><time>2026-04-19T11:22:17.001Z</time></trkpt><trkpt lat="43.451663448441224" lon="10.72864401363887"><ele>133.0</ele><time>2026-04-19T11:22:18.001Z</time></trkpt><trkpt lat="43.451550030739575" lon="10.728593417408606"><ele>133.5</ele><time>2026-04-19T11:22:19.001Z</time></trkpt><trkpt lat="43.45143674101708" lon="10.728550169145613"><ele>134.0</ele><time>2026-04-19T11:22:20.001Z</time></trkpt><trkpt lat="43.45132254249935" lon="10.728524592689546"><ele>134.5</ele><time>2026-04-19T11:22:21.001Z</time></trkpt><trkpt lat="43.45120570915739" lon="10.728519188001023"><ele>135.0</ele><time>2026-04-19T11:22:22.001Z</time></trkpt><trkpt lat="43.451086477017" lon="10.728538318845095"><ele>135.5</ele><time>2026-04-19T11:22:23.001Z</time></trkpt><trkpt lat="43.45096731107232" lon="10.728577761593566"><ele>136.0</ele><time>2026-04-19T11:22:24.001Z</time></trkpt><trkpt lat="43.45084959808788" lon="10.728632583231702"><ele>137.0</ele><time>2026-04-19T11:22:25.001Z</time></trkpt><trkpt lat="43.450734851266674" lon="10.72870516351414"><ele>138.0</ele><time>2026-04-19T11:22:26.001Z</time></trkpt><trkpt lat="43.45062046699964" lon="10.72878406782331"><ele>139.0</ele><time>2026-04-19T11:22:27.001Z</time></trkpt><trkpt lat="43.45050428309897" lon="10.72886224464062"><ele>140.0</ele><time>2026-04-19T11:22:28.001Z</time></trkpt><trkpt lat="43.45039086782883" lon="10.728942153040666"><ele>140.75</ele><time>2026-04-19T11:22:29.001Z</time></trkpt><trkpt lat="43.45027805113431" lon="10.729020944627276"><ele>141.5</ele><time>2026-04-19T11:22:30.001Z</time></trkpt><trkpt lat="43.45016729298563" lon="10.729102352489413"><ele>142.25</ele><time>2026-04-19T11:22:31.001Z</time></trkpt><trkpt lat="43.45005949817025" lon="10.729180638648668"><ele>143.0</ele><time>2026-04-19T11:22:32.001Z</time></trkpt><trkpt lat="43.44995416874265" lon="10.729255050127941"><ele>143.0</ele><time>2026-04-19T11:22:33.001Z</time></trkpt><trkpt lat="43.44985279336588" lon="10.729329502720898"><ele>143.0</ele><time>2026-04-19T11:22:34.001Z</time></trkpt><trkpt lat="43.44976060912042" lon="10.729412491955099"><ele>143.0</ele><time>2026-04-19T11:22:35.001Z</time></trkpt><trkpt lat="43.449685798441806" lon="10.729513571527585"><ele>143.0</ele><time>2026-04-19T11:22:36.001Z</time></trkpt><trkpt lat="43.449631252954006" lon="10.729632570966087"><ele>143.0</ele><time>2026-04-19T11:22:37.001Z</time></trkpt><trkpt lat="43.44959620281044" lon="10.7297643418081"><ele>144.4</ele><time>2026-04-19T11:22:38.001Z</time></trkpt><trkpt lat="43.44957400758687" lon="10.729896385978204"><ele>145.8</ele><time>2026-04-19T11:22:39.001Z</time></trkpt><trkpt lat="43.449548809600536" lon="10.730023772547785"><ele>147.2</ele><time>2026-04-19T11:22:40.001Z</time></trkpt><trkpt lat="43.449505759893334" lon="10.730137718049566"><ele>148.6</ele><time>2026-04-19T11:22:41.001Z</time></trkpt><trkpt lat="43.44944444483412" lon="10.730232740567466"><ele>150.0</ele><time>2026-04-19T11:22:42.001Z</time></trkpt><trkpt lat="43.449366165695295" lon="10.730298627323238"><ele>150.0</ele><time>2026-04-19T11:22:43.001Z</time></trkpt><trkpt lat="43.44927267778719" lon="10.730307072735396"><ele>150.0</ele><time>2026-04-19T11:22:44.001Z</time></trkpt><trkpt lat="43.449183821144175" lon="10.730245733643617"><ele>150.0</ele><time>2026-04-19T11:22:45.001Z</time></trkpt><trkpt lat="43.44909445682002" lon="10.73020249383443"><ele>150.0</ele><time>2026-04-19T11:22:46.001Z</time></trkpt><trkpt lat="43.44899722061651" lon="10.73017213548557"><ele>150.0</ele><time>2026-04-19T11:22:47.001Z</time></trkpt><trkpt lat="43.44890448395775" lon="10.730117922848867"><ele>150.0</ele><time>2026-04-19T11:22:48.001Z</time></trkpt><trkpt lat="43.44880959126478" lon="10.730066608469892"><ele>150.0</ele><time>2026-04-19T11:22:49.001Z</time></trkpt><trkpt lat="43.44871223133958" lon="10.730013426894246"><ele>150.0</ele><time>2026-04-19T11:22:50.001Z</time></trkpt><trkpt lat="43.44861403543889" lon="10.72995482877297"><ele>150.0</ele><time>2026-04-19T11:22:51.001Z</time></trkpt><trkpt lat="43.44851642049923" lon="10.72988758283457"><ele>150.0</ele><time>2026-04-19T11:22:52.001Z</time></trkpt><trkpt lat="43.448417723216004" lon="10.729811447984808"><ele>150.75</ele><time>2026-04-19T11:22:53.001Z</time></trkpt><trkpt lat="43.44833079266763" lon="10.729703210499473"><ele>151.5</ele><time>2026-04-19T11:22:54.001Z</time></trkpt><trkpt lat="43.44823933925375" lon="10.729598149531204"><ele>152.25</ele><time>2026-04-19T11:22:55.001Z</time></trkpt><trkpt lat="43.448138979010096" lon="10.729496373728281"><ele>153.0</ele><time>2026-04-19T11:22:56.001Z</time></trkpt><trkpt lat="43.448050811031294" lon="10.729378053820483"><ele>153.0</ele><time>2026-04-19T11:22:57.001Z</time></trkpt><trkpt lat="43.44797407185875" lon="10.729242916928088"><ele>153.0</ele><time>2026-04-19T11:22:58.001Z</time></trkpt><trkpt lat="43.44788765876483" lon="10.729123242147157"><ele>153.0</ele><time>2026-04-19T11:22:59.001Z</time></trkpt><trkpt lat="43.44779014056673" lon="10.729015561166639"><ele>153.0</ele><time>2026-04-19T11:23:00.001Z</time></trkpt><trkpt lat="43.447705838803586" lon="10.728887823157208"><ele>156.0</ele><time>2026-04-19T11:23:01.001Z</time></trkpt><trkpt lat="43.44763991238375" lon="10.72873714343201"><ele>159.0</ele><time>2026-04-19T11:23:02.001Z</time></trkpt><trkpt lat="43.44757357907899" lon="10.728585527906473"><ele>162.0</ele><time>2026-04-19T11:23:03.001Z</time></trkpt><trkpt lat="43.44751156175737" lon="10.728426598873737"><ele>165.0</ele><time>2026-04-19T11:23:04.001Z</time></trkpt><trkpt lat="43.44744770725904" lon="10.728262849104139"><ele>165.0</ele><time>2026-04-19T11:23:05.001Z</time></trkpt><trkpt lat="43.4473826127738" lon="10.728095919502321"><ele>165.0</ele><time>2026-04-19T11:23:06.001Z</time></trkpt><trkpt lat="43.4473197615347" lon="10.727926171184812"><ele>165.0</ele><time>2026-04-19T11:23:07.001Z</time></trkpt><trkpt lat="43.44725987989188" lon="10.72775813598338"><ele>165.0</ele><time>2026-04-19T11:23:08.001Z</time></trkpt><trkpt lat="43.44720291124924" lon="10.727598274993282"><ele>164.75</ele><time>2026-04-19T11:23:09.001Z</time></trkpt><trkpt lat="43.44714161972006" lon="10.727434941270062"><ele>164.5</ele><time>2026-04-19T11:23:10.001Z</time></trkpt><trkpt lat="43.44707879575317" lon="10.727268216139526"><ele>164.25</ele><time>2026-04-19T11:23:11.001Z</time></trkpt><trkpt lat="43.44701459917385" lon="10.727097848283215"><ele>164.0</ele><time>2026-04-19T11:23:12.001Z</time></trkpt><trkpt lat="43.44694998472809" lon="10.726923319729588"><ele>166.5</ele><time>2026-04-19T11:23:13.001Z</time></trkpt><trkpt lat="43.44689161423468" lon="10.726745946223575"><ele>169.0</ele><time>2026-04-19T11:23:14.002Z</time></trkpt><trkpt lat="43.446836223339155" lon="10.726565181029583"><ele>171.5</ele><time>2026-04-19T11:23:15.002Z</time></trkpt><trkpt lat="43.44678478443617" lon="10.7263878247786"><ele>174.0</ele><time>2026-04-19T11:23:16.002Z</time></trkpt><trkpt lat="43.44673531005264" lon="10.726212245676125"><ele>174.0</ele><time>2026-04-19T11:23:17.002Z</time></trkpt><trkpt lat="43.44668658572755" lon="10.726039328343754"><ele>174.0</ele><time>2026-04-19T11:23:18.002Z</time></trkpt><trkpt lat="43.44663451546838" lon="10.725868299979403"><ele>174.0</ele><time>2026-04-19T11:23:19.002Z</time></trkpt><trkpt lat="43.44658105467806" lon="10.725699160189878"><ele>174.0</ele><time>2026-04-19T11:23:20.002Z</time></trkpt><trkpt lat="43.446527430589306" lon="10.72553314649378"><ele>174.0</ele><time>2026-04-19T11:23:21.002Z</time></trkpt><trkpt lat="43.44647612904753" lon="10.72536777958117"><ele>174.0</ele><time>2026-04-19T11:23:22.002Z</time></trkpt><trkpt lat="43.4464288174319" lon="10.725204514368322"><ele>174.0</ele><time>2026-04-19T11:23:23.002Z</time></trkpt><trkpt lat="43.44639523462864" lon="10.725039281293277"><ele>174.0</ele><time>2026-04-19T11:23:24.002Z</time></trkpt><trkpt lat="43.446385642612064" lon="10.724872725555095"><ele>174.0</ele><time>2026-04-19T11:23:25.002Z</time></trkpt><trkpt lat="43.44640369155929" lon="10.724711607341805"><ele>174.0</ele><time>2026-04-19T11:23:26.002Z</time></trkpt><trkpt lat="43.44643983970418" lon="10.724556694526996"><ele>174.0</ele><time>2026-04-19T11:23:27.002Z</time></trkpt><trkpt lat="43.44647746546102" lon="10.72440099353141"><ele>174.0</ele><time>2026-04-19T11:23:28.002Z</time></trkpt><trkpt lat="43.446510112694405" lon="10.724244326691675"><ele>175.0</ele><time>2026-04-19T11:23:29.002Z</time></trkpt><trkpt lat="43.44652346075333" lon="10.724089927591352"><ele>176.0</ele><time>2026-04-19T11:23:30.002Z</time></trkpt><trkpt lat="43.446517092281766" lon="10.72394592065488"><ele>177.0</ele><time>2026-04-19T11:23:31.002Z</time></trkpt><trkpt lat="43.4464721727445" lon="10.723814111629988"><ele>178.0</ele><time>2026-04-19T11:23:32.002Z</time></trkpt><trkpt lat="43.44644377417676" lon="10.72367778819628"><ele>179.0</ele><time>2026-04-19T11:23:33.002Z</time></trkpt><trkpt lat="43.446400367413524" lon="10.723552784827001"><ele>179.6</ele><time>2026-04-19T11:23:34Z</time></trkpt><trkpt lat="43.446355607145215" lon="10.723427026294164"><ele>180.2</ele><time>2026-04-19T11:23:35Z</time></trkpt><trkpt lat="43.446309087473324" lon="10.723298104753775"><ele>180.79999999999998</ele><time>2026-04-19T11:23:36Z</time></trkpt><trkpt lat="43.44626129709978" lon="10.72316566170798"><ele>181.39999999999998</ele><time>2026-04-19T11:23:37Z</time></trkpt><trkpt lat="43.44621346647269" lon="10.723030111386802"><ele>182.0</ele><time>2026-04-19T11:23:38Z</time></trkpt><trkpt lat="43.44616598636579" lon="10.72289179569916"><ele>184.0</ele><time>2026-04-19T11:23:39Z</time></trkpt><trkpt lat="43.44611601489141" lon="10.722749678225355"><ele>186.0</ele><time>2026-04-19T11:23:40Z</time></trkpt><trkpt lat="43.44605755780026" lon="10.722607308669039"><ele>188.0</ele><time>2026-04-19T11:23:41Z</time></trkpt><trkpt lat="43.445990435045466" lon="10.72246950593309"><ele>190.0</ele><time>2026-04-19T11:23:42Z</time></trkpt><trkpt lat="43.44591777310807" lon="10.72233241685696"><ele>190.0</ele><time>2026-04-19T11:23:43Z</time></trkpt><trkpt lat="43.445834775646595" lon="10.722199977421615"><ele>190.0</ele><time>2026-04-19T11:23:44Z</time></trkpt><trkpt lat="43.44574868462699" lon="10.722076117027518"><ele>190.0</ele><time>2026-04-19T11:23:45Z</time></trkpt><trkpt lat="43.445670097282964" lon="10.721952779600628"><ele>190.0</ele><time>2026-04-19T11:23:46Z</time></trkpt><trkpt lat="43.44560838340926" lon="10.72181350890661"><ele>190.0</ele><time>2026-04-19T11:23:47Z</time></trkpt><trkpt lat="43.44557159161448" lon="10.721666589828935"><ele>190.0</ele><time>2026-04-19T11:23:48Z</time></trkpt><trkpt lat="43.44554204188976" lon="10.721516769821738"><ele>190.0</ele><time>2026-04-19T11:23:49Z</time></trkpt><trkpt lat="43.445526278320905" lon="10.721367098752648"><ele>190.0</ele><time>2026-04-19T11:23:50Z</time></trkpt><trkpt lat="43.44552977808092" lon="10.7212203151197"><ele>190.0</ele><time>2026-04-19T11:23:51Z</time></trkpt><trkpt lat="43.445548563440866" lon="10.72107425289096"><ele>191.2</ele><time>2026-04-19T11:23:52Z</time></trkpt><trkpt lat="43.44557669732705" lon="10.720930698239208"><ele>192.4</ele><time>2026-04-19T11:23:53Z</time></trkpt><trkpt lat="43.44560975791102" lon="10.720787779787175"><ele>193.60000000000002</ele><time>2026-04-19T11:23:54Z</time></trkpt><trkpt lat="43.4456395791812" lon="10.7206454270198"><ele>194.8</ele><time>2026-04-19T11:23:55Z</time></trkpt><trkpt lat="43.44565731916822" lon="10.720496522253672"><ele>196.0</ele><time>2026-04-19T11:23:56Z</time></trkpt><trkpt lat="43.445637927919115" lon="10.720337192554101"><ele>196.0</ele><time>2026-04-19T11:23:57Z</time></trkpt><trkpt lat="43.44558849354514" lon="10.720199716677172"><ele>196.0</ele><time>2026-04-19T11:23:58Z</time></trkpt><trkpt lat="43.44552202774078" lon="10.720081502486563"><ele>196.0</ele><time>2026-04-19T11:23:59Z</time></trkpt><trkpt lat="43.44544525373997" lon="10.719992947739845"><ele>196.0</ele><time>2026-04-19T11:24:00Z</time></trkpt><trkpt lat="43.445353084597734" lon="10.719964285924034"><ele>196.0</ele><time>2026-04-19T11:24:01Z</time></trkpt><trkpt lat="43.44526344214773" lon="10.719963290804797"><ele>197.16666666666666</ele><time>2026-04-19T11:24:02Z</time></trkpt><trkpt lat="43.44518474081569" lon="10.719999757303324"><ele>198.33333333333331</ele><time>2026-04-19T11:24:03Z</time></trkpt><trkpt lat="43.4451186716816" lon="10.720048356477355"><ele>199.5</ele><time>2026-04-19T11:24:04Z</time></trkpt><trkpt lat="43.44505095817696" lon="10.720104228312879"><ele>200.66666666666669</ele><time>2026-04-19T11:24:05Z</time></trkpt><trkpt lat="43.44498116500348" lon="10.720159757750706"><ele>201.83333333333334</ele><time>2026-04-19T11:24:06Z</time></trkpt><trkpt lat="43.44491011970579" lon="10.720221462449075"><ele>203.0</ele><time>2026-04-19T11:24:07Z</time></trkpt><trkpt lat="43.44483726405876" lon="10.720293049466319"><ele>203.0</ele><time>2026-04-19T11:24:08Z</time></trkpt><trkpt lat="43.44477904376771" lon="10.720401032819119"><ele>203.0</ele><time>2026-04-19T11:24:09Z</time></trkpt><trkpt lat="43.444732195374726" lon="10.720526531759754"><ele>203.0</ele><time>2026-04-19T11:24:10Z</time></trkpt><trkpt lat="43.44469175110256" lon="10.72065641290216"><ele>203.0</ele><time>2026-04-19T11:24:11Z</time></trkpt><trkpt lat="43.4446413029669" lon="10.720774657893381"><ele>203.0</ele><time>2026-04-19T11:24:12Z</time></trkpt><trkpt lat="43.444568540175794" lon="10.720869628757304"><ele>205.8</ele><time>2026-04-19T11:24:13Z</time></trkpt><trkpt lat="43.44448064045585" lon="10.720937643510853"><ele>208.60000000000002</ele><time>2026-04-19T11:24:14Z</time></trkpt><trkpt lat="43.44438519009581" lon="10.720981165596145"><ele>211.39999999999998</ele><time>2026-04-19T11:24:15Z</time></trkpt><trkpt lat="43.44428914238274" lon="10.721010100026595"><ele>214.2</ele><time>2026-04-19T11:24:16.001Z</time></trkpt><trkpt lat="43.44419106754074" lon="10.721031092893005"><ele>217.0</ele><time>2026-04-19T11:24:17.001Z</time></trkpt><trkpt lat="43.44408952955325" lon="10.721040999606716"><ele>217.0</ele><time>2026-04-19T11:24:18.001Z</time></trkpt><trkpt lat="43.443986371097175" lon="10.721051537046273"><ele>217.0</ele><time>2026-04-19T11:24:19.001Z</time></trkpt><trkpt lat="43.443879589882144" lon="10.721062542321883"><ele>217.0</ele><time>2026-04-19T11:24:20.001Z</time></trkpt><trkpt lat="43.44376974042141" lon="10.721072183170392"><ele>217.0</ele><time>2026-04-19T11:24:21.001Z</time></trkpt><trkpt lat="43.44366129561672" lon="10.721089777146975"><ele>217.0</ele><time>2026-04-19T11:24:22.001Z</time></trkpt><trkpt lat="43.443556960700136" lon="10.72113055064774"><ele>217.6</ele><time>2026-04-19T11:24:23.001Z</time></trkpt><trkpt lat="43.44345886043978" lon="10.721197243265964"><ele>218.2</ele><time>2026-04-19T11:24:24.001Z</time></trkpt><trkpt lat="43.44336515406216" lon="10.721272380417828"><ele>218.8</ele><time>2026-04-19T11:24:25.001Z</time></trkpt><trkpt lat="43.443273522520364" lon="10.721353968611325"><ele>219.4</ele><time>2026-04-19T11:24:26.001Z</time></trkpt><trkpt lat="43.44318253575395" lon="10.721433404454242"><ele>220.0</ele><time>2026-04-19T11:24:27.001Z</time></trkpt><trkpt lat="43.443085458391046" lon="10.721499520777748"><ele>220.0</ele><time>2026-04-19T11:24:28.001Z</time></trkpt><trkpt lat="43.44298404449915" lon="10.721554906297202"><ele>220.0</ele><time>2026-04-19T11:24:29.001Z</time></trkpt><trkpt lat="43.44287956332459" lon="10.721605605154732"><ele>220.0</ele><time>2026-04-19T11:24:30.001Z</time></trkpt><trkpt lat="43.44277372416433" lon="10.721660036613354"><ele>220.0</ele><time>2026-04-19T11:24:31.001Z</time></trkpt><trkpt lat="43.442668991017456" lon="10.72171790768975"><ele>220.0</ele><time>2026-04-19T11:24:32.001Z</time></trkpt><trkpt lat="43.44257523581552" lon="10.721784025183942"><ele>220.2</ele><time>2026-04-19T11:24:33.001Z</time></trkpt><trkpt lat="43.442491360906196" lon="10.72185285061825"><ele>220.4</ele><time>2026-04-19T11:24:34.001Z</time></trkpt><trkpt lat="43.442416074555496" lon="10.721920879289751"><ele>220.60000000000002</ele><time>2026-04-19T11:24:35.001Z</time></trkpt><trkpt lat="43.4423496148293" lon="10.721985493932227"><ele>220.8</ele><time>2026-04-19T11:24:36.001Z</time></trkpt><trkpt lat="43.442285857742114" lon="10.72202091882248"><ele>221.0</ele><time>2026-04-19T11:24:37.001Z</time></trkpt><trkpt lat="43.44218701773455" lon="10.721936730743636"><ele>222.60000000000002</ele><time>2026-04-19T11:24:39.001Z</time></trkpt><trkpt lat="43.44226626766847" lon="10.72181534000494"><ele>224.20000000000002</ele><time>2026-04-19T11:24:41.001Z</time></trkpt><trkpt lat="43.44231665969824" lon="10.721669460897067"><ele>225.79999999999998</ele><time>2026-04-19T11:24:43.001Z</time></trkpt><trkpt lat="43.44234729173515" lon="10.721500480832548"><ele>227.39999999999998</ele><time>2026-04-19T11:24:45.001Z</time></trkpt><trkpt lat="43.44235822804634" lon="10.721414739794078"><ele>229.0</ele><time>2026-04-19T11:24:46.001Z</time></trkpt><trkpt lat="43.44236859199707" lon="10.721326513296596"><ele>228.99999999999997</ele><time>2026-04-19T11:24:47.001Z</time></trkpt><trkpt lat="43.442381001779175" lon="10.721239688717668"><ele>229.0</ele><time>2026-04-19T11:24:48.001Z</time></trkpt><trkpt lat="43.44241944845145" lon="10.721078729955542"><ele>229.0</ele><time>2026-04-19T11:24:50.001Z</time></trkpt><trkpt lat="43.442451113136734" lon="10.720996200334653"><ele>229.0</ele><time>2026-04-19T11:24:51.001Z</time></trkpt><trkpt lat="43.4424906148852" lon="10.720919475171641"><ele>228.99999999999997</ele><time>2026-04-19T11:24:52.001Z</time></trkpt><trkpt lat="43.4425450785382" lon="10.720840781140497"><ele>229.0</ele><time>2026-04-19T11:24:53.001Z</time></trkpt><trkpt lat="43.44260705886694" lon="10.720765458188644"><ele>230.66666666666666</ele><time>2026-04-19T11:24:54.001Z</time></trkpt><trkpt lat="43.44267259048956" lon="10.720683494310881"><ele>232.33333333333331</ele><time>2026-04-19T11:24:55.001Z</time></trkpt><trkpt lat="43.44273315010984" lon="10.720584071317445"><ele>234.0</ele><time>2026-04-19T11:24:56.001Z</time></trkpt><trkpt lat="43.44278386846192" lon="10.720480661690928"><ele>235.66666666666669</ele><time>2026-04-19T11:24:57.001Z</time></trkpt><trkpt lat="43.44283290832343" lon="10.720380645443557"><ele>237.33333333333334</ele><time>2026-04-19T11:24:58.001Z</time></trkpt><trkpt lat="43.44288389436892" lon="10.72028546240535"><ele>239.0</ele><time>2026-04-19T11:24:59.001Z</time></trkpt><trkpt lat="43.4429169365878" lon="10.72018041771256"><ele>239.50000000000003</ele><time>2026-04-19T11:25:00.001Z</time></trkpt><trkpt lat="43.44291154803759" lon="10.720058340567443"><ele>240.0</ele><time>2026-04-19T11:25:01.001Z</time></trkpt><trkpt lat="43.44285112113423" lon="10.719959952583732"><ele>240.5</ele><time>2026-04-19T11:25:02.001Z</time></trkpt><trkpt lat="43.44275542042936" lon="10.719953265788153"><ele>241.0</ele><time>2026-04-19T11:25:03.001Z</time></trkpt><trkpt lat="43.442683763487224" lon="10.719965274560032"><ele>241.50000000000003</ele><time>2026-04-19T11:25:04.001Z</time></trkpt><trkpt lat="43.44261595797067" lon="10.719978367992152"><ele>242.0</ele><time>2026-04-19T11:25:05.001Z</time></trkpt><trkpt lat="43.442546774924345" lon="10.719992874649176"><ele>242.0</ele><time>2026-04-19T11:25:06.001Z</time></trkpt><trkpt lat="43.44247663130507" lon="10.720010109317098"><ele>241.99999999999997</ele><time>2026-04-19T11:25:07.001Z</time></trkpt><trkpt lat="43.44240508012941" lon="10.720030804221633"><ele>242.0</ele><time>2026-04-19T11:25:08.001Z</time></trkpt><trkpt lat="43.442334420177744" lon="10.720054728805405"><ele>242.0</ele><time>2026-04-19T11:25:09.001Z</time></trkpt><trkpt lat="43.4422650859443" lon="10.72008499186753"><ele>241.99999999999997</ele><time>2026-04-19T11:25:10.001Z</time></trkpt><trkpt lat="43.442196435382954" lon="10.720116841422678"><ele>242.0</ele><time>2026-04-19T11:25:11.001Z</time></trkpt><trkpt lat="43.44212689137789" lon="10.720147403966166"><ele>242.0</ele><time>2026-04-19T11:25:12.001Z</time></trkpt><trkpt lat="43.44205781253292" lon="10.720177276529054"><ele>242.7142857142857</ele><time>2026-04-19T11:25:13.001Z</time></trkpt><trkpt lat="43.44198834653181" lon="10.720206403034968"><ele>243.4285714285714</ele><time>2026-04-19T11:25:14.001Z</time></trkpt><trkpt lat="43.441918731819094" lon="10.720233687814845"><ele>244.14285714285714</ele><time>2026-04-19T11:25:15.001Z</time></trkpt><trkpt lat="43.44184784230992" lon="10.720248904764828"><ele>244.85714285714283</ele><time>2026-04-19T11:25:16.001Z</time></trkpt><trkpt lat="43.44177515517281" lon="10.720245002868976"><ele>245.57142857142856</ele><time>2026-04-19T11:25:17.001Z</time></trkpt><trkpt lat="43.441708642791426" lon="10.720230405705289"><ele>246.28571428571428</ele><time>2026-04-19T11:25:18.002Z</time></trkpt><trkpt lat="43.44163894181375" lon="10.720205247837084"><ele>247.0</ele><time>2026-04-19T11:25:19.002Z</time></trkpt><trkpt lat="43.441562055365225" lon="10.720161878612636"><ele>247.39999999999998</ele><time>2026-04-19T11:25:20.002Z</time></trkpt><trkpt lat="43.44148122478738" lon="10.720094455193783"><ele>247.79999999999998</ele><time>2026-04-19T11:25:21.002Z</time></trkpt><trkpt lat="43.441402995658436" lon="10.720002089226336"><ele>248.2</ele><time>2026-04-19T11:25:22.002Z</time></trkpt><trkpt lat="43.44132842056884" lon="10.719897941472718"><ele>248.6</ele><time>2026-04-19T11:25:23.002Z</time></trkpt><trkpt lat="43.44124632470044" lon="10.719795586769404"><ele>249.0</ele><time>2026-04-19T11:25:24.002Z</time></trkpt><trkpt lat="43.441148943142075" lon="10.719710639830186"><ele>250.5</ele><time>2026-04-19T11:25:25.002Z</time></trkpt><trkpt lat="43.44104106371736" lon="10.719640740674368"><ele>252.0</ele><time>2026-04-19T11:25:26.002Z</time></trkpt><trkpt lat="43.440930752772275" lon="10.719567220360071"><ele>253.5</ele><time>2026-04-19T11:25:27.002Z</time></trkpt><trkpt lat="43.4408304419516" lon="10.719500061684961"><ele>255.0</ele><time>2026-04-19T11:25:28.002Z</time></trkpt><trkpt lat="43.44073491654415" lon="10.719450548087563"><ele>255.0</ele><time>2026-04-19T11:25:29.002Z</time></trkpt><trkpt lat="43.44063180226698" lon="10.719418179186173"><ele>255.0</ele><time>2026-04-19T11:25:30.002Z</time></trkpt><trkpt lat="43.44053174775343" lon="10.719415734919453"><ele>255.0</ele><time>2026-04-19T11:25:31.002Z</time></trkpt><trkpt lat="43.440440387873124" lon="10.719458603863622"><ele>255.0</ele><time>2026-04-19T11:25:32.002Z</time></trkpt><trkpt lat="43.440353593836136" lon="10.719530530709193"><ele>255.0</ele><time>2026-04-19T11:25:33.002Z</time></trkpt><trkpt lat="43.440265441438704" lon="10.719619310738683"><ele>257.25</ele><time>2026-04-19T11:25:34.002Z</time></trkpt><trkpt lat="43.44016470497789" lon="10.719691070253464"><ele>259.5</ele><time>2026-04-19T11:25:35.002Z</time></trkpt><trkpt lat="43.440044141017516" lon="10.719722160478504"><ele>261.75</ele><time>2026-04-19T11:25:36.002Z</time></trkpt><trkpt lat="43.43991890505858" lon="10.719698201403803"><ele>264.0</ele><time>2026-04-19T11:25:37.002Z</time></trkpt><trkpt lat="43.4398235433325" lon="10.719587962970335"><ele>264.0</ele><time>2026-04-19T11:25:38.002Z</time></trkpt><trkpt lat="43.43973825302023" lon="10.71946443053505"><ele>264.0</ele><time>2026-04-19T11:25:39.002Z</time></trkpt><trkpt lat="43.439632543923906" lon="10.719362629347666"><ele>264.0</ele><time>2026-04-19T11:25:40Z</time></trkpt><trkpt lat="43.43953600996151" lon="10.719259735916786"><ele>264.0</ele><time>2026-04-19T11:25:41Z</time></trkpt><trkpt lat="43.43942836392397" lon="10.719188857943612"><ele>268.75</ele><time>2026-04-19T11:25:42Z</time></trkpt><trkpt lat="43.439317075754744" lon="10.719136027328638"><ele>273.5</ele><time>2026-04-19T11:25:43Z</time></trkpt><trkpt lat="43.43920180681638" lon="10.719115265898408"><ele>278.25</ele><time>2026-04-19T11:25:44Z</time></trkpt><trkpt lat="43.43908370469893" lon="10.71912875379979"><ele>283.0</ele><time>2026-04-19T11:25:45Z</time></trkpt><trkpt lat="43.438964565372835" lon="10.719168563839485"><ele>283.0</ele><time>2026-04-19T11:25:46Z</time></trkpt><trkpt lat="43.43884092515779" lon="10.71920372523283"><ele>283.0</ele><time>2026-04-19T11:25:47Z</time></trkpt><trkpt lat="43.43871278101051" lon="10.719227605350653"><ele>283.0</ele><time>2026-04-19T11:25:48Z</time></trkpt><trkpt lat="43.43857496039043" lon="10.719215878658613"><ele>283.0</ele><time>2026-04-19T11:25:49Z</time></trkpt><trkpt lat="43.438438092549646" lon="10.719194870565891"><ele>284.4</ele><time>2026-04-19T11:25:50Z</time></trkpt><trkpt lat="43.438312154224185" lon="10.719166375954728"><ele>285.8</ele><time>2026-04-19T11:25:51Z</time></trkpt><trkpt lat="43.43821221403498" lon="10.719159019792833"><ele>287.2</ele><time>2026-04-19T11:25:52Z</time></trkpt><trkpt lat="43.438123267160016" lon="10.719186472153053"><ele>288.6</ele><time>2026-04-19T11:25:53Z</time></trkpt><trkpt lat="43.43804144441017" lon="10.719250070882628"><ele>290.0</ele><time>2026-04-19T11:25:54Z</time></trkpt><trkpt lat="43.43797801349794" lon="10.719352730348062"><ele>288.8</ele><time>2026-04-19T11:25:55Z</time></trkpt><trkpt lat="43.43794984459014" lon="10.719488836686988"><ele>287.6</ele><time>2026-04-19T11:25:56Z</time></trkpt><trkpt lat="43.43795716623739" lon="10.719631305750157"><ele>286.4</ele><time>2026-04-19T11:25:57Z</time></trkpt><trkpt lat="43.4379785464308" lon="10.719782359015603"><ele>285.2</ele><time>2026-04-19T11:25:58Z</time></trkpt><trkpt lat="43.43799875169021" lon="10.719933866706507"><ele>284.0</ele><time>2026-04-19T11:25:59Z</time></trkpt><trkpt lat="43.43800865613845" lon="10.720083136926622"><ele>284.25</ele><time>2026-04-19T11:26:00Z</time></trkpt><trkpt lat="43.438005295350564" lon="10.720240483458587"><ele>284.5</ele><time>2026-04-19T11:26:01Z</time></trkpt><trkpt lat="43.43799197855123" lon="10.72039970224876"><ele>284.75</ele><time>2026-04-19T11:26:02Z</time></trkpt><trkpt lat="43.43796789495182" lon="10.72055962791892"><ele>285.0</ele><time>2026-04-19T11:26:03Z</time></trkpt><trkpt lat="43.43793182272807" lon="10.720716680790664"><ele>286.0</ele><time>2026-04-19T11:26:04Z</time></trkpt><trkpt lat="43.43787940454999" lon="10.720860712037778"><ele>287.0</ele><time>2026-04-19T11:26:05Z</time></trkpt><trkpt lat="43.43780370138374" lon="10.720972422892537"><ele>288.0</ele><time>2026-04-19T11:26:06Z</time></trkpt><trkpt lat="43.43771831257972" lon="10.721046274707941"><ele>289.0</ele><time>2026-04-19T11:26:07Z</time></trkpt><trkpt lat="43.43762131424614" lon="10.721093357619718"><ele>290.0</ele><time>2026-04-19T11:26:08Z</time></trkpt><trkpt lat="43.43751929295812" lon="10.721131876259452"><ele>290.0</ele><time>2026-04-19T11:26:09Z</time></trkpt><trkpt lat="43.437414170602906" lon="10.721167792729938"><ele>290.0</ele><time>2026-04-19T11:26:10Z</time></trkpt><trkpt lat="43.43731942951766" lon="10.721197854305736"><ele>290.0</ele><time>2026-04-19T11:26:11Z</time></trkpt><trkpt lat="43.43723472402442" lon="10.721227961384672"><ele>290.0</ele><time>2026-04-19T11:26:12Z</time></trkpt><trkpt lat="43.437151415078844" lon="10.721272971281046"><ele>290.0</ele><time>2026-04-19T11:26:13Z</time></trkpt><trkpt lat="43.43707495763827" lon="10.721343341433126"><ele>292.6</ele><time>2026-04-19T11:26:14Z</time></trkpt><trkpt lat="43.43700360055289" lon="10.721431929114676"><ele>295.2</ele><time>2026-04-19T11:26:15Z</time></trkpt><trkpt lat="43.436940524391105" lon="10.721539576537884"><ele>297.8</ele><time>2026-04-19T11:26:16Z</time></trkpt><trkpt lat="43.43689363277404" lon="10.72165947318232"><ele>300.4</ele><time>2026-04-19T11:26:17Z</time></trkpt><trkpt lat="43.43685481568641" lon="10.721780949581271"><ele>303.0</ele><time>2026-04-19T11:26:18Z</time></trkpt><trkpt lat="43.436814712303104" lon="10.721906899232453"><ele>303.0</ele><time>2026-04-19T11:26:19Z</time></trkpt><trkpt lat="43.43677192537929" lon="10.72203888847652"><ele>303.0</ele><time>2026-04-19T11:26:20Z</time></trkpt><trkpt lat="43.43671793565601" lon="10.722162034461231"><ele>303.0</ele><time>2026-04-19T11:26:21Z</time></trkpt><trkpt lat="43.436649187200395" lon="10.722267428131246"><ele>303.0</ele><time>2026-04-19T11:26:22Z</time></trkpt><trkpt lat="43.43656324868262" lon="10.722345938063187"><ele>303.0</ele><time>2026-04-19T11:26:23.001Z</time></trkpt><trkpt lat="43.43646583849776" lon="10.722394766280257"><ele>303.0</ele><time>2026-04-19T11:26:24.001Z</time></trkpt><trkpt lat="43.436360719165584" lon="10.722416131179179"><ele>303.0</ele><time>2026-04-19T11:26:25.001Z</time></trkpt><trkpt lat="43.4362584811931" lon="10.722429561555142"><ele>303.0</ele><time>2026-04-19T11:26:26.001Z</time></trkpt><trkpt lat="43.43616938380142" lon="10.722451496709938"><ele>303.0</ele><time>2026-04-19T11:26:27.001Z</time></trkpt><trkpt lat="43.43609010953653" lon="10.722480626349638"><ele>303.0</ele><time>2026-04-19T11:26:28.001Z</time></trkpt><trkpt lat="43.43602755094251" lon="10.722506495073251"><ele>303.0</ele><time>2026-04-19T11:26:29.001Z</time></trkpt><trkpt lat="43.43594085344681" lon="10.722564179935077"><ele>305.6</ele><time>2026-04-19T11:26:31.001Z</time></trkpt><trkpt lat="43.435894570001366" lon="10.72267265313289"><ele>308.20000000000005</ele><time>2026-04-19T11:26:33.001Z</time></trkpt><trkpt lat="43.43589362840773" lon="10.722818538554787"><ele>310.8</ele><time>2026-04-19T11:26:35.001Z</time></trkpt><trkpt lat="43.435912877409024" lon="10.722986743314825"><ele>313.40000000000003</ele><time>2026-04-19T11:26:37.001Z</time></trkpt><trkpt lat="43.435908513735214" lon="10.723076748837062"><ele>316.0</ele><time>2026-04-19T11:26:38.001Z</time></trkpt><trkpt lat="43.4358673668808" lon="10.723226838231396"><ele>316.0</ele><time>2026-04-19T11:26:40.001Z</time></trkpt><trkpt lat="43.435791455290676" lon="10.723321165727093"><ele>316.0</ele><time>2026-04-19T11:26:42.001Z</time></trkpt><trkpt lat="43.435694889646165" lon="10.723355452056985"><ele>316.0</ele><time>2026-04-19T11:26:44.001Z</time></trkpt><trkpt lat="43.43561262263702" lon="10.723353309054472"><ele>316.0</ele><time>2026-04-19T11:26:47.001Z</time></trkpt><trkpt lat="43.43554544015904" lon="10.723341139702619"><ele>316.0</ele><time>2026-04-19T11:26:50.001Z</time></trkpt><trkpt lat="43.435470153995865" lon="10.723331114017562"><ele>316.0</ele><time>2026-04-19T11:26:54.001Z</time></trkpt><trkpt lat="43.435431102851254" lon="10.723450334496071"><ele>321.0</ele><time>2026-04-19T11:26:57.001Z</time></trkpt><trkpt lat="43.435442603554954" lon="10.723553240799319"><ele>326.0</ele><time>2026-04-19T11:26:59.001Z</time></trkpt><trkpt lat="43.435431732716765" lon="10.723462750151528"><ele>331.0</ele><time>2026-04-19T11:27:24.002Z</time></trkpt><trkpt lat="43.43510960076601" lon="10.722555017384208"><ele>332.3333333333333</ele><time>2026-04-19T11:27:56Z</time></trkpt><trkpt lat="43.435099769991915" lon="10.722430176347592"><ele>333.66666666666663</ele><time>2026-04-19T11:27:58Z</time></trkpt><trkpt lat="43.43510150045809" lon="10.722321972773944"><ele>335.0</ele><time>2026-04-19T11:28:00Z</time></trkpt><trkpt lat="43.43510021308961" lon="10.722207925926845"><ele>336.3333333333333</ele><time>2026-04-19T11:28:02Z</time></trkpt><trkpt lat="43.43508782848144" lon="10.722114515226146"><ele>337.6666666666667</ele><time>2026-04-19T11:28:04Z</time></trkpt><trkpt lat="43.435074424954536" lon="10.722020258253254"><ele>339.0</ele><time>2026-04-19T11:28:06Z</time></trkpt><trkpt lat="43.435132286744064" lon="10.721921696480608"><ele>340.1428571428571</ele><time>2026-04-19T11:28:09Z</time></trkpt><trkpt lat="43.43519326782696" lon="10.721864663055468"><ele>341.28571428571433</ele><time>2026-04-19T11:28:11Z</time></trkpt><trkpt lat="43.43522769237553" lon="10.721791434486942"><ele>342.42857142857144</ele><time>2026-04-19T11:28:13Z</time></trkpt><trkpt lat="43.4352590756717" lon="10.721714659827295"><ele>343.57142857142856</ele><time>2026-04-19T11:28:15Z</time></trkpt><trkpt lat="43.43527515111856" lon="10.721612629899596"><ele>344.71428571428567</ele><time>2026-04-19T11:28:17Z</time></trkpt><trkpt lat="43.43527789256615" lon="10.721504171576905"><ele>345.8571428571429</ele><time>2026-04-19T11:28:19Z</time></trkpt><trkpt lat="43.435280796915094" lon="10.721399943480519"><ele>347.0</ele><time>2026-04-19T11:28:21Z</time></trkpt><trkpt lat="43.435289289829775" lon="10.721268947117691"><ele>347.0</ele><time>2026-04-19T11:28:23Z</time></trkpt><trkpt lat="43.4353000719374" lon="10.721178023169138"><ele>347.0</ele><time>2026-04-19T11:28:25Z</time></trkpt><trkpt lat="43.43531219431824" lon="10.721068142741116"><ele>347.0</ele><time>2026-04-19T11:28:28.001Z</time></trkpt><trkpt lat="43.435407618851315" lon="10.721024858685778"><ele>347.0</ele><time>2026-04-19T11:28:30.001Z</time></trkpt><trkpt lat="43.435455539408764" lon="10.720930020941418"><ele>347.0</ele><time>2026-04-19T11:28:33.001Z</time></trkpt><trkpt lat="43.43550086667672" lon="10.720832314172792"><ele>347.0</ele><time>2026-04-19T11:28:36.001Z</time></trkpt><trkpt lat="43.435533958667314" lon="10.720732428310454"><ele>347.0</ele><time>2026-04-19T11:28:39.001Z</time></trkpt><trkpt lat="43.43555383074799" lon="10.720643813341107"><ele>347.0</ele><time>2026-04-19T11:28:42.001Z</time></trkpt><trkpt lat="43.43553471458439" lon="10.720732516093314"><ele>347.0</ele><time>2026-04-19T11:29:15.001Z</time></trkpt><trkpt lat="43.435506919671774" lon="10.72081667122421"><ele>347.0</ele><time>2026-04-19T11:29:20.001Z</time></trkpt><trkpt lat="43.43546775478826" lon="10.720905845995976"><ele>347.0</ele><time>2026-04-19T11:29:27.002Z</time></trkpt><trkpt lat="43.43542437149234" lon="10.720991704190656"><ele>347.0</ele><time>2026-04-19T11:29:34.002Z</time></trkpt><trkpt lat="43.435385615630366" lon="10.721068404553064"><ele>347.0</ele><time>2026-04-19T11:29:39.002Z</time></trkpt><trkpt lat="43.435346219388094" lon="10.721143353903043"><ele>348.1666666666667</ele><time>2026-04-19T11:29:44.002Z</time></trkpt><trkpt lat="43.435289799893255" lon="10.721035361555355"><ele>349.33333333333337</ele><time>2026-04-19T11:29:51.002Z</time></trkpt><trkpt lat="43.43525940607862" lon="10.7209375780752"><ele>350.5</ele><time>2026-04-19T11:29:53Z</time></trkpt><trkpt lat="43.43524073529349" lon="10.720777573110277"><ele>351.6666666666667</ele><time>2026-04-19T11:29:55Z</time></trkpt><trkpt lat="43.43522981646316" lon="10.720682540476746"><ele>352.8333333333333</ele><time>2026-04-19T11:29:56Z</time></trkpt><trkpt lat="43.43521951941633" lon="10.720589269311905"><ele>354.0</ele><time>2026-04-19T11:29:57Z</time></trkpt><trkpt lat="43.43520836586129" lon="10.72048823996527"><ele>354.0</ele><time>2026-04-19T11:29:58Z</time></trkpt><trkpt lat="43.43519541774782" lon="10.720380832443272"><ele>354.0</ele><time>2026-04-19T11:29:59Z</time></trkpt><trkpt lat="43.4351778830928" lon="10.720273806994497"><ele>354.0</ele><time>2026-04-19T11:30:00Z</time></trkpt><trkpt lat="43.435159239812215" lon="10.720166758511308"><ele>354.0</ele><time>2026-04-19T11:30:01Z</time></trkpt><trkpt lat="43.43514281091427" lon="10.720058082535601"><ele>354.0</ele><time>2026-04-19T11:30:02Z</time></trkpt><trkpt lat="43.435136050545964" lon="10.719953644138768"><ele>354.0</ele><time>2026-04-19T11:30:03Z</time></trkpt><trkpt lat="43.43515674418292" lon="10.719860085016858"><ele>354.5</ele><time>2026-04-19T11:30:04Z</time></trkpt><trkpt lat="43.4351907708908" lon="10.719758995906213"><ele>355.0</ele><time>2026-04-19T11:30:05Z</time></trkpt><trkpt lat="43.43522802972015" lon="10.719664269595345"><ele>355.5</ele><time>2026-04-19T11:30:06Z</time></trkpt><trkpt lat="43.43524717981186" lon="10.71954591271286"><ele>356.0</ele><time>2026-04-19T11:30:07Z</time></trkpt><trkpt lat="43.43525095053557" lon="10.71944748255213"><ele>356.5</ele><time>2026-04-19T11:30:08Z</time></trkpt><trkpt lat="43.435243306451895" lon="10.719327550518356"><ele>357.0</ele><time>2026-04-19T11:30:10Z</time></trkpt><trkpt lat="43.435227799345824" lon="10.719222973067792"><ele>358.40000000000003</ele><time>2026-04-19T11:30:14Z</time></trkpt><trkpt lat="43.43519403212579" lon="10.71911856641321"><ele>359.8</ele><time>2026-04-19T11:30:16Z</time></trkpt><trkpt lat="43.435165525456405" lon="10.71900026255194"><ele>361.2</ele><time>2026-04-19T11:30:18Z</time></trkpt><trkpt lat="43.43513898720981" lon="10.7188781712273"><ele>362.6</ele><time>2026-04-19T11:30:20Z</time></trkpt><trkpt lat="43.43511187088246" lon="10.71875342048616"><ele>364.0</ele><time>2026-04-19T11:30:22Z</time></trkpt><trkpt lat="43.43507895574303" lon="10.718626584996766"><ele>364.8333333333333</ele><time>2026-04-19T11:30:24Z</time></trkpt><trkpt lat="43.43504171224769" lon="10.718509478833036"><ele>365.66666666666663</ele><time>2026-04-19T11:30:26Z</time></trkpt><trkpt lat="43.435003764398445" lon="10.718405951812942"><ele>366.5</ele><time>2026-04-19T11:30:28Z</time></trkpt><trkpt lat="43.43497251959309" lon="10.718318609690307"><ele>367.3333333333333</ele><time>2026-04-19T11:30:30Z</time></trkpt><trkpt lat="43.43494667683752" lon="10.718235269128911"><ele>368.1666666666667</ele><time>2026-04-19T11:30:35.001Z</time></trkpt><trkpt lat="43.43491999491197" lon="10.718129703274997"><ele>369.0</ele><time>2026-04-19T11:30:55.001Z</time></trkpt><trkpt lat="43.43489093106611" lon="10.718008349034294"><ele>369.0</ele><time>2026-04-19T11:31:16.001Z</time></trkpt><trkpt lat="43.43486357255329" lon="10.717907776464642"><ele>369.0</ele><time>2026-04-19T11:31:18.001Z</time></trkpt><trkpt lat="43.43483218756299" lon="10.717806253806872"><ele>369.0</ele><time>2026-04-19T11:31:20.001Z</time></trkpt><trkpt lat="43.43479759909636" lon="10.717703354494684"><ele>369.0</ele><time>2026-04-19T11:31:22.001Z</time></trkpt><trkpt lat="43.434755696594536" lon="10.717584331108009"><ele>369.0</ele><time>2026-04-19T11:31:24.001Z</time></trkpt><trkpt lat="43.434710356187765" lon="10.717461830362923"><ele>369.0</ele><time>2026-04-19T11:31:26.001Z</time></trkpt><trkpt lat="43.434666362878865" lon="10.717330395427593"><ele>372.4</ele><time>2026-04-19T11:31:28.002Z</time></trkpt><trkpt lat="43.43463510921941" lon="10.717189131391546"><ele>375.79999999999995</ele><time>2026-04-19T11:31:30.002Z</time></trkpt><trkpt lat="43.43462599192698" lon="10.717053722399587"><ele>379.20000000000005</ele><time>2026-04-19T11:31:32.002Z</time></trkpt><trkpt lat="43.43461698091084" lon="10.716915034015358"><ele>382.6</ele><time>2026-04-19T11:31:34.002Z</time></trkpt><trkpt lat="43.43461403821548" lon="10.716794054807316"><ele>386.0</ele><time>2026-04-19T11:31:36.002Z</time></trkpt><trkpt lat="43.43458420512728" lon="10.716646048416564"><ele>387.0</ele><time>2026-04-19T11:31:38.002Z</time></trkpt><trkpt lat="43.43453145582693" lon="10.716518021109746"><ele>388.0</ele><time>2026-04-19T11:31:40.002Z</time></trkpt><trkpt lat="43.434476767012384" lon="10.716401448494215"><ele>389.0</ele><time>2026-04-19T11:31:42.002Z</time></trkpt><trkpt lat="43.43441079328975" lon="10.716275731386833"><ele>390.0</ele><time>2026-04-19T11:31:44.002Z</time></trkpt><trkpt lat="43.43433664249195" lon="10.716155437714482"><ele>391.0</ele><time>2026-04-19T11:31:46.002Z</time></trkpt><trkpt lat="43.43425924528578" lon="10.716050087262404"><ele>391.6</ele><time>2026-04-19T11:31:48.002Z</time></trkpt><trkpt lat="43.43419216607256" lon="10.715969585179929"><ele>392.20000000000005</ele><time>2026-04-19T11:31:50.002Z</time></trkpt><trkpt lat="43.434113017468285" lon="10.715913115981682"><ele>392.79999999999995</ele><time>2026-04-19T11:31:52.002Z</time></trkpt><trkpt lat="43.43400874324518" lon="10.715868514010763"><ele>393.4</ele><time>2026-04-19T11:31:54.002Z</time></trkpt><trkpt lat="43.433908061115815" lon="10.715826234009185"><ele>394.0</ele><time>2026-04-19T11:31:56.002Z</time></trkpt><trkpt lat="43.4338208813605" lon="10.715795074682228"><ele>395.6666666666667</ele><time>2026-04-19T11:31:58Z</time></trkpt><trkpt lat="43.43374173795654" lon="10.715768865431524"><ele>397.33333333333337</ele><time>2026-04-19T11:32:01Z</time></trkpt><trkpt lat="43.43365901805244" lon="10.715746863728011"><ele>399.0</ele><time>2026-04-19T11:32:03Z</time></trkpt><trkpt lat="43.43358128526607" lon="10.715727518091823"><ele>400.66666666666663</ele><time>2026-04-19T11:32:05Z</time></trkpt><trkpt lat="43.433509112460236" lon="10.715709440161858"><ele>402.3333333333333</ele><time>2026-04-19T11:32:07Z</time></trkpt><trkpt lat="43.43344385619424" lon="10.715689797133258"><ele>404.0</ele><time>2026-04-19T11:32:09Z</time></trkpt><trkpt lat="43.43337480959228" lon="10.715663469733686"><ele>403.99999999999994</ele><time>2026-04-19T11:32:12Z</time></trkpt><trkpt lat="43.43331069617169" lon="10.715637227539732"><ele>404.0</ele><time>2026-04-19T11:32:14Z</time></trkpt><trkpt lat="43.43323716077385" lon="10.71560294827689"><ele>404.0</ele><time>2026-04-19T11:32:16Z</time></trkpt><trkpt lat="43.4331514465667" lon="10.715557613336673"><ele>404.0</ele><time>2026-04-19T11:32:18Z</time></trkpt><trkpt lat="43.43306169411209" lon="10.7154998183365"><ele>403.99999999999994</ele><time>2026-04-19T11:32:20Z</time></trkpt><trkpt lat="43.43297220237095" lon="10.715429979272807"><ele>404.0</ele><time>2026-04-19T11:32:22Z</time></trkpt><trkpt lat="43.432898033281575" lon="10.715363793449205"><ele>404.66666666666663</ele><time>2026-04-19T11:32:24Z</time></trkpt><trkpt lat="43.43283828280911" lon="10.715304359750785"><ele>405.3333333333333</ele><time>2026-04-19T11:32:26Z</time></trkpt><trkpt lat="43.43277199895847" lon="10.715233296260218"><ele>406.0</ele><time>2026-04-19T11:32:28Z</time></trkpt><trkpt lat="43.43270143911305" lon="10.715152642682707"><ele>406.66666666666663</ele><time>2026-04-19T11:32:30Z</time></trkpt><trkpt lat="43.432632776616536" lon="10.715060680966605"><ele>407.3333333333333</ele><time>2026-04-19T11:32:32Z</time></trkpt><trkpt lat="43.43256364061251" lon="10.714961235991858"><ele>408.0</ele><time>2026-04-19T11:32:34Z</time></trkpt><trkpt lat="43.43250075258011" lon="10.714868706481521"><ele>408.0</ele><time>2026-04-19T11:32:36Z</time></trkpt><trkpt lat="43.43244562361792" lon="10.714787867986232"><ele>408.0</ele><time>2026-04-19T11:32:38Z</time></trkpt><trkpt lat="43.43237203125613" lon="10.714690798223678"><ele>408.0</ele><time>2026-04-19T11:32:40Z</time></trkpt><trkpt lat="43.43228177418815" lon="10.714594998526259"><ele>408.0</ele><time>2026-04-19T11:32:42Z</time></trkpt><trkpt lat="43.43219304145854" lon="10.714511380105574"><ele>408.0</ele><time>2026-04-19T11:32:44Z</time></trkpt><trkpt lat="43.432108619815764" lon="10.71445611008662"><ele>409.0</ele><time>2026-04-19T11:32:46.001Z</time></trkpt><trkpt lat="43.432032981707366" lon="10.714372953982837"><ele>410.0</ele><time>2026-04-19T11:32:48.001Z</time></trkpt><trkpt lat="43.431955929364364" lon="10.714298524683773"><ele>411.0</ele><time>2026-04-19T11:32:50.001Z</time></trkpt><trkpt lat="43.43189380612845" lon="10.714232344181417"><ele>412.0</ele><time>2026-04-19T11:32:53.001Z</time></trkpt><trkpt lat="43.43184638793448" lon="10.714172602449144"><ele>413.0</ele><time>2026-04-19T11:32:57.001Z</time></trkpt><trkpt lat="43.431780835084965" lon="10.714069715260393"><ele>414.0</ele><time>2026-04-19T11:33:00.001Z</time></trkpt><trkpt lat="43.43172641121256" lon="10.713980887240226"><ele>414.0</ele><time>2026-04-19T11:33:02.001Z</time></trkpt><trkpt lat="43.431667206907036" lon="10.71388839490059"><ele>414.0</ele><time>2026-04-19T11:33:04.001Z</time></trkpt><trkpt lat="43.43160244763776" lon="10.713830229447911"><ele>414.0</ele><time>2026-04-19T11:33:06.001Z</time></trkpt><trkpt lat="43.43153119656658" lon="10.713810227760161"><ele>414.0</ele><time>2026-04-19T11:33:08.001Z</time></trkpt><trkpt lat="43.43144680277812" lon="10.713904488011806"><ele>414.0</ele><time>2026-04-19T11:33:10.001Z</time></trkpt><trkpt lat="43.431385911334125" lon="10.714000492092305"><ele>414.0</ele><time>2026-04-19T11:33:12.001Z</time></trkpt><trkpt lat="43.43132733624391" lon="10.71410355525108"><ele>415.0</ele><time>2026-04-19T11:33:14.001Z</time></trkpt><trkpt lat="43.43126780269596" lon="10.7142067351255"><ele>416.0</ele><time>2026-04-19T11:33:16.001Z</time></trkpt><trkpt lat="43.43121858676339" lon="10.714323236339752"><ele>417.0</ele><time>2026-04-19T11:33:18.001Z</time></trkpt><trkpt lat="43.43115807594477" lon="10.714410290790871"><ele>418.0</ele><time>2026-04-19T11:33:20.001Z</time></trkpt><trkpt lat="43.43110719008346" lon="10.714490213672393"><ele>419.0</ele><time>2026-04-19T11:33:22.001Z</time></trkpt><trkpt lat="43.43104618449975" lon="10.714573320261955"><ele>420.0</ele><time>2026-04-19T11:33:24.001Z</time></trkpt><trkpt lat="43.43099136816503" lon="10.714672354195685"><ele>422.6</ele><time>2026-04-19T11:33:26.001Z</time></trkpt><trkpt lat="43.430936688145366" lon="10.714757992775032"><ele>425.2</ele><time>2026-04-19T11:33:28.001Z</time></trkpt><trkpt lat="43.430856080177236" lon="10.714788903930184"><ele>427.79999999999995</ele><time>2026-04-19T11:33:30.001Z</time></trkpt><trkpt lat="43.43077861677937" lon="10.714812344952012"><ele>430.4</ele><time>2026-04-19T11:33:32.001Z</time></trkpt><trkpt lat="43.43068425734909" lon="10.714828657676037"><ele>433.0</ele><time>2026-04-19T11:33:34.001Z</time></trkpt><trkpt lat="43.43057535503406" lon="10.714867132241531"><ele>434.4</ele><time>2026-04-19T11:33:36.002Z</time></trkpt><trkpt lat="43.43045404574733" lon="10.714852877324077"><ele>435.79999999999995</ele><time>2026-04-19T11:33:38.002Z</time></trkpt><trkpt lat="43.430352161144874" lon="10.714853840007304"><ele>437.2</ele><time>2026-04-19T11:33:40.002Z</time></trkpt><trkpt lat="43.43024402303527" lon="10.714860829201315"><ele>438.6</ele><time>2026-04-19T11:33:42.002Z</time></trkpt><trkpt lat="43.4301437347213" lon="10.714884193860314"><ele>440.0</ele><time>2026-04-19T11:33:44.002Z</time></trkpt><trkpt lat="43.43007858506265" lon="10.714932383336468"><ele>440.0</ele><time>2026-04-19T11:33:46.002Z</time></trkpt><trkpt lat="43.429980594925865" lon="10.714993590073577"><ele>440.0</ele><time>2026-04-19T11:33:49.002Z</time></trkpt><trkpt lat="43.429880873486354" lon="10.715069578377376"><ele>440.0</ele><time>2026-04-19T11:33:51.002Z</time></trkpt><trkpt lat="43.42978954860372" lon="10.715143115290038"><ele>440.0</ele><time>2026-04-19T11:33:53.002Z</time></trkpt><trkpt lat="43.429704988537246" lon="10.715206069902997"><ele>440.0</ele><time>2026-04-19T11:33:55.002Z</time></trkpt><trkpt lat="43.429611220116655" lon="10.715276609702636"><ele>442.0</ele><time>2026-04-19T11:33:57.002Z</time></trkpt><trkpt lat="43.42951618333271" lon="10.715344364508297"><ele>444.0</ele><time>2026-04-19T11:33:59.002Z</time></trkpt><trkpt lat="43.42941927772529" lon="10.715411030458299"><ele>446.0</ele><time>2026-04-19T11:34:01.002Z</time></trkpt><trkpt lat="43.429324233328934" lon="10.715493414223287"><ele>448.0</ele><time>2026-04-19T11:34:03.002Z</time></trkpt><trkpt lat="43.429222869825146" lon="10.715572131801794"><ele>450.0</ele><time>2026-04-19T11:34:05Z</time></trkpt><trkpt lat="43.429136723314116" lon="10.715638757968721"><ele>450.0</ele><time>2026-04-19T11:34:07Z</time></trkpt><trkpt lat="43.42906337671122" lon="10.715683523631576"><ele>450.0</ele><time>2026-04-19T11:34:09Z</time></trkpt><trkpt lat="43.4289828478279" lon="10.715697945441446"><ele>450.0</ele><time>2026-04-19T11:34:11Z</time></trkpt><trkpt lat="43.42888766761268" lon="10.715668280282193"><ele>450.0</ele><time>2026-04-19T11:34:13Z</time></trkpt><trkpt lat="43.42879151856365" lon="10.71560801109831"><ele>450.0</ele><time>2026-04-19T11:34:15Z</time></trkpt><trkpt lat="43.42868696448903" lon="10.715532705177516"><ele>450.4</ele><time>2026-04-19T11:34:17Z</time></trkpt><trkpt lat="43.42859837074639" lon="10.715451128171527"><ele>450.8</ele><time>2026-04-19T11:34:19Z</time></trkpt><trkpt lat="43.42850915767606" lon="10.715387731570866"><ele>451.20000000000005</ele><time>2026-04-19T11:34:21Z</time></trkpt><trkpt lat="43.428430865383994" lon="10.71530885657531"><ele>451.6</ele><time>2026-04-19T11:34:23Z</time></trkpt><trkpt lat="43.42835144070595" lon="10.715233723171735"><ele>452.0</ele><time>2026-04-19T11:34:25Z</time></trkpt><trkpt lat="43.42828008364131" lon="10.715147473669488"><ele>452.0</ele><time>2026-04-19T11:34:27Z</time></trkpt><trkpt lat="43.42819209314563" lon="10.715061964835018"><ele>452.00000000000006</ele><time>2026-04-19T11:34:29Z</time></trkpt><trkpt lat="43.428090658317124" lon="10.714976372863024"><ele>452.00000000000006</ele><time>2026-04-19T11:34:31Z</time></trkpt><trkpt lat="43.42797972993054" lon="10.714910216957344"><ele>452.0</ele><time>2026-04-19T11:34:33Z</time></trkpt><trkpt lat="43.42791464911255" lon="10.714881969171483"><ele>452.0</ele><time>2026-04-19T11:34:34Z</time></trkpt><trkpt lat="43.427847554770985" lon="10.714837988766396"><ele>452.3333333333333</ele><time>2026-04-19T11:34:35Z</time></trkpt><trkpt lat="43.42778207196885" lon="10.714799672174307"><ele>452.66666666666663</ele><time>2026-04-19T11:34:36Z</time></trkpt><trkpt lat="43.427720204280014" lon="10.714760607534094"><ele>453.0</ele><time>2026-04-19T11:34:37Z</time></trkpt><trkpt lat="43.427661696673916" lon="10.714722690213167"><ele>453.33333333333337</ele><time>2026-04-19T11:34:38Z</time></trkpt><trkpt lat="43.427572151390656" lon="10.714650101984647"><ele>453.6666666666667</ele><time>2026-04-19T11:34:40Z</time></trkpt><trkpt lat="43.42751489932576" lon="10.714581368459777"><ele>454.0</ele><time>2026-04-19T11:34:42Z</time></trkpt><trkpt lat="43.42745697981767" lon="10.714525549702534"><ele>454.00000000000006</ele><time>2026-04-19T11:34:44Z</time></trkpt><trkpt lat="43.42739676600937" lon="10.71447498381302"><ele>454.0</ele><time>2026-04-19T11:34:46Z</time></trkpt><trkpt lat="43.42732477598711" lon="10.714428204532165"><ele>454.0</ele><time>2026-04-19T11:34:49.001Z</time></trkpt><trkpt lat="43.42725420270651" lon="10.714378659192427"><ele>454.0</ele><time>2026-04-19T11:34:58.001Z</time></trkpt><trkpt lat="43.42718604059661" lon="10.714351995968935"><ele>454.00000000000006</ele><time>2026-04-19T11:35:01.001Z</time></trkpt><trkpt lat="43.42709855098132" lon="10.71433151860559"><ele>454.0</ele><time>2026-04-19T11:35:04.001Z</time></trkpt><trkpt lat="43.427023063853554" lon="10.714363258061846"><ele>455.1666666666667</ele><time>2026-04-19T11:35:07.001Z</time></trkpt><trkpt lat="43.42695187918129" lon="10.71440483998714"><ele>456.33333333333337</ele><time>2026-04-19T11:35:10.001Z</time></trkpt><trkpt lat="43.426881186798255" lon="10.714440306750381"><ele>457.5</ele><time>2026-04-19T11:35:13.001Z</time></trkpt><trkpt lat="43.42681277888506" lon="10.714476130873532"><ele>458.66666666666663</ele><time>2026-04-19T11:35:17.001Z</time></trkpt><trkpt lat="43.426737457192914" lon="10.714521515732223"><ele>459.8333333333333</ele><time>2026-04-19T11:35:21.001Z</time></trkpt><trkpt lat="43.42666271665757" lon="10.71454552152233"><ele>461.0</ele><time>2026-04-19T11:35:24.001Z</time></trkpt><trkpt lat="43.42658071886894" lon="10.714566538050901"><ele>460.99999999999994</ele><time>2026-04-19T11:35:27.001Z</time></trkpt><trkpt lat="43.42650728689839" lon="10.71460269164927"><ele>461.0</ele><time>2026-04-19T11:35:30.001Z</time></trkpt><trkpt lat="43.426451617729136" lon="10.714663445032537"><ele>461.0</ele><time>2026-04-19T11:35:38.002Z</time></trkpt><trkpt lat="43.426393845805556" lon="10.714741314999053"><ele>461.0</ele><time>2026-04-19T11:35:42.002Z</time></trkpt><trkpt lat="43.426340050338574" lon="10.71482607404813"><ele>460.99999999999994</ele><time>2026-04-19T11:35:46.002Z</time></trkpt><trkpt lat="43.42629871721887" lon="10.714896486807023"><ele>461.0</ele><time>2026-04-19T11:35:49.002Z</time></trkpt><trkpt lat="43.42624921316069" lon="10.714972048608614"><ele>462.99999999999994</ele><time>2026-04-19T11:35:52.002Z</time></trkpt><trkpt lat="43.426197225516226" lon="10.715059691478098"><ele>465.0</ele><time>2026-04-19T11:35:55.002Z</time></trkpt><trkpt lat="43.42613556725208" lon="10.715130543868613"><ele>467.0</ele><time>2026-04-19T11:35:58.002Z</time></trkpt><trkpt lat="43.426056991312755" lon="10.715133635338644"><ele>469.0</ele><time>2026-04-19T11:36:01.002Z</time></trkpt><trkpt lat="43.425999783542146" lon="10.715059009148412"><ele>470.99999999999994</ele><time>2026-04-19T11:36:04.002Z</time></trkpt><trkpt lat="43.42594219352998" lon="10.71497396864293"><ele>473.0</ele><time>2026-04-19T11:36:07.002Z</time></trkpt><trkpt lat="43.42586986052653" lon="10.714898224795544"><ele>473.0</ele><time>2026-04-19T11:36:09.999Z</time></trkpt><trkpt lat="43.42581724138305" lon="10.714844718614875"><ele>473.0</ele><time>2026-04-19T11:36:12.999Z</time></trkpt><trkpt lat="43.425759039957796" lon="10.71478830796915"><ele>473.0</ele><time>2026-04-19T11:36:16.999Z</time></trkpt><trkpt lat="43.425705117788894" lon="10.714737959363193"><ele>473.0</ele><time>2026-04-19T11:36:20.999Z</time></trkpt><trkpt lat="43.42563914108515" lon="10.714673007070932"><ele>473.0</ele><time>2026-04-19T11:36:24.999Z</time></trkpt><trkpt lat="43.425571783381784" lon="10.714634519077148"><ele>473.0</ele><time>2026-04-19T11:36:28Z</time></trkpt><trkpt lat="43.42549768314909" lon="10.714623388617833"><ele>473.0</ele><time>2026-04-19T11:36:31Z</time></trkpt><trkpt lat="43.425429554997216" lon="10.714620306926735"><ele>474.16666666666663</ele><time>2026-04-19T11:36:34Z</time></trkpt><trkpt lat="43.425360036948746" lon="10.71461456931527"><ele>475.3333333333333</ele><time>2026-04-19T11:36:37Z</time></trkpt><trkpt lat="43.425281599374635" lon="10.714603271855884"><ele>476.5</ele><time>2026-04-19T11:36:40Z</time></trkpt><trkpt lat="43.42519779729972" lon="10.71459803035066"><ele>477.66666666666663</ele><time>2026-04-19T11:36:43Z</time></trkpt><trkpt lat="43.42512155458333" lon="10.714614483045995"><ele>478.8333333333333</ele><time>2026-04-19T11:36:46Z</time></trkpt><trkpt lat="43.425048014552644" lon="10.714635371698616"><ele>480.0</ele><time>2026-04-19T11:36:49Z</time></trkpt><trkpt lat="43.42497402259683" lon="10.714655982839147"><ele>480.0</ele><time>2026-04-19T11:36:52Z</time></trkpt><trkpt lat="43.424910559225296" lon="10.714682749767693"><ele>480.0</ele><time>2026-04-19T11:36:55Z</time></trkpt><trkpt lat="43.42483535197866" lon="10.714714687068017"><ele>480.0</ele><time>2026-04-19T11:36:58Z</time></trkpt><trkpt lat="43.424756958469374" lon="10.714702487189951"><ele>480.0</ele><time>2026-04-19T11:37:01.001Z</time></trkpt><trkpt lat="43.42468283434523" lon="10.714665954142113"><ele>480.0</ele><time>2026-04-19T11:37:04.001Z</time></trkpt><trkpt lat="43.42460601629629" lon="10.714645203567567"><ele>480.0</ele><time>2026-04-19T11:37:07.001Z</time></trkpt><trkpt lat="43.42452183774789" lon="10.714599815768276"><ele>480.6666666666667</ele><time>2026-04-19T11:37:10.001Z</time></trkpt><trkpt lat="43.42444115624446" lon="10.714544468067473"><ele>481.33333333333337</ele><time>2026-04-19T11:37:13.001Z</time></trkpt><trkpt lat="43.42436566427664" lon="10.714496575497266"><ele>482.0</ele><time>2026-04-19T11:37:16.001Z</time></trkpt><trkpt lat="43.42430581506008" lon="10.714453051919945"><ele>482.6666666666667</ele><time>2026-04-19T11:37:18.001Z</time></trkpt><trkpt lat="43.42423785851928" lon="10.714406857163839"><ele>483.33333333333337</ele><time>2026-04-19T11:37:20.001Z</time></trkpt><trkpt lat="43.424174651025716" lon="10.714367090505375"><ele>484.0</ele><time>2026-04-19T11:37:22.001Z</time></trkpt><trkpt lat="43.42411007052701" lon="10.71434123278692"><ele>486.2857142857143</ele><time>2026-04-19T11:37:24.001Z</time></trkpt><trkpt lat="43.42404799223946" lon="10.714316677183872"><ele>488.57142857142856</ele><time>2026-04-19T11:37:26.001Z</time></trkpt><trkpt lat="43.42397953333882" lon="10.714317830727856"><ele>490.85714285714283</ele><time>2026-04-19T11:37:28.001Z</time></trkpt><trkpt lat="43.42391389557493" lon="10.714320978678217"><ele>493.1428571428571</ele><time>2026-04-19T11:37:30.001Z</time></trkpt><trkpt lat="43.42384602662021" lon="10.71431565711708"><ele>495.42857142857144</ele><time>2026-04-19T11:37:32.001Z</time></trkpt><trkpt lat="43.42377885247093" lon="10.714294753723033"><ele>497.71428571428567</ele><time>2026-04-19T11:37:34.001Z</time></trkpt><trkpt lat="43.423712337421634" lon="10.7142774528713"><ele>500.0</ele><time>2026-04-19T11:37:36.001Z</time></trkpt><trkpt lat="43.42363926530132" lon="10.714274197486429"><ele>500.71428571428567</ele><time>2026-04-19T11:37:38.001Z</time></trkpt><trkpt lat="43.423569998921785" lon="10.714266334738035"><ele>501.42857142857144</ele><time>2026-04-19T11:37:40.001Z</time></trkpt><trkpt lat="43.42350604762633" lon="10.714249656559995"><ele>502.1428571428571</ele><time>2026-04-19T11:37:42.001Z</time></trkpt><trkpt lat="43.423445490584555" lon="10.71422198926253"><ele>502.85714285714283</ele><time>2026-04-19T11:37:44.002Z</time></trkpt><trkpt lat="43.4233787720369" lon="10.71421317768245"><ele>503.57142857142856</ele><time>2026-04-19T11:37:46.002Z</time></trkpt><trkpt lat="43.4232871143847" lon="10.71422930055197"><ele>504.2857142857143</ele><time>2026-04-19T11:37:49.002Z</time></trkpt><trkpt lat="43.4232237855531" lon="10.714243509865549"><ele>505.0</ele><time>2026-04-19T11:37:51.002Z</time></trkpt><trkpt lat="43.42315319339187" lon="10.714264804508794"><ele>505.0</ele><time>2026-04-19T11:37:53.002Z</time></trkpt><trkpt lat="43.42308793162127" lon="10.714279188545255"><ele>504.99999999999994</ele><time>2026-04-19T11:37:55.002Z</time></trkpt><trkpt lat="43.422998441354764" lon="10.714298266136758"><ele>505.0</ele><time>2026-04-19T11:37:58.002Z</time></trkpt><trkpt lat="43.42293529481775" lon="10.714309200480525"><ele>505.0</ele><time>2026-04-19T11:38:00.002Z</time></trkpt><trkpt lat="43.42286843887032" lon="10.714311035418179"><ele>504.99999999999994</ele><time>2026-04-19T11:38:02.002Z</time></trkpt><trkpt lat="43.42280548108705" lon="10.714302626525313"><ele>505.0</ele><time>2026-04-19T11:38:04.002Z</time></trkpt><trkpt lat="43.42273118752461" lon="10.714292396505307"><ele>505.0</ele><time>2026-04-19T11:38:06.002Z</time></trkpt><trkpt lat="43.422665948296185" lon="10.714283747337783"><ele>504.50000000000006</ele><time>2026-04-19T11:38:08.002Z</time></trkpt><trkpt lat="43.42259019189807" lon="10.714291333858784"><ele>504.0</ele><time>2026-04-19T11:38:10.002Z</time></trkpt><trkpt lat="43.4225208005681" lon="10.714329804291514"><ele>503.5</ele><time>2026-04-19T11:38:12.002Z</time></trkpt><trkpt lat="43.42245868513755" lon="10.714360317429694"><ele>503.0</ele><time>2026-04-19T11:38:14.002Z</time></trkpt><trkpt lat="43.42240120226477" lon="10.71439683699474"><ele>502.50000000000006</ele><time>2026-04-19T11:38:15.999Z</time></trkpt><trkpt lat="43.42231953292085" lon="10.714453762783322"><ele>502.0</ele><time>2026-04-19T11:38:18.999Z</time></trkpt><trkpt lat="43.42224213780834" lon="10.714507372189676"><ele>501.99999999999994</ele><time>2026-04-19T11:38:21.999Z</time></trkpt><trkpt lat="43.42218780446283" lon="10.714552909488171"><ele>502.0</ele><time>2026-04-19T11:38:23.999Z</time></trkpt><trkpt lat="43.42212448473266" lon="10.714594164302824"><ele>501.99999999999994</ele><time>2026-04-19T11:38:25.999Z</time></trkpt><trkpt lat="43.42206699084969" lon="10.714632106716271"><ele>501.99999999999994</ele><time>2026-04-19T11:38:27.999Z</time></trkpt><trkpt lat="43.42200331001413" lon="10.71467562936192"><ele>502.0</ele><time>2026-04-19T11:38:29.999Z</time></trkpt><trkpt lat="43.4219310072173" lon="10.7147159275324"><ele>501.99999999999994</ele><time>2026-04-19T11:38:31.999Z</time></trkpt><trkpt lat="43.42184781759108" lon="10.714735213169886"><ele>501.99999999999994</ele><time>2026-04-19T11:38:33.999Z</time></trkpt><trkpt lat="43.42175229034038" lon="10.714729275209969"><ele>502.33333333333337</ele><time>2026-04-19T11:38:35.999Z</time></trkpt><trkpt lat="43.421678088936254" lon="10.714718754069228"><ele>502.6666666666667</ele><time>2026-04-19T11:38:37.999Z</time></trkpt><trkpt lat="43.42159034240021" lon="10.714689114497439"><ele>503.0</ele><time>2026-04-19T11:38:40.999Z</time></trkpt><trkpt lat="43.42152178840809" lon="10.714670496766596"><ele>503.33333333333337</ele><time>2026-04-19T11:38:44Z</time></trkpt><trkpt lat="43.42144805283848" lon="10.714660807638614"><ele>503.6666666666667</ele><time>2026-04-19T11:38:47Z</time></trkpt><trkpt lat="43.42136178009808" lon="10.714627448930736"><ele>504.0</ele><time>2026-04-19T11:38:50Z</time></trkpt><trkpt lat="43.421290403449134" lon="10.714579319381777"><ele>504.0</ele><time>2026-04-19T11:38:53Z</time></trkpt><trkpt lat="43.42123538708951" lon="10.714524158463343"><ele>504.0</ele><time>2026-04-19T11:38:56Z</time></trkpt><trkpt lat="43.421172163207174" lon="10.714466833661264"><ele>504.0</ele><time>2026-04-19T11:38:59Z</time></trkpt><trkpt lat="43.421108025014426" lon="10.714399188768434"><ele>504.0</ele><time>2026-04-19T11:39:02Z</time></trkpt><trkpt lat="43.42105877214291" lon="10.714313156728187"><ele>504.0</ele><time>2026-04-19T11:39:06Z</time></trkpt><trkpt lat="43.421012604476786" lon="10.7142315261185"><ele>504.0</ele><time>2026-04-19T11:39:09Z</time></trkpt><trkpt lat="43.42097405163133" lon="10.714139057863834"><ele>504.6666666666667</ele><time>2026-04-19T11:39:12Z</time></trkpt><trkpt lat="43.420938517604704" lon="10.714044729723051"><ele>505.33333333333337</ele><time>2026-04-19T11:39:15.001Z</time></trkpt><trkpt lat="43.42089628700743" lon="10.713930054300905"><ele>506.0</ele><time>2026-04-19T11:39:18.001Z</time></trkpt><trkpt lat="43.42086052606022" lon="10.713851296788347"><ele>506.6666666666667</ele><time>2026-04-19T11:39:20.001Z</time></trkpt><trkpt lat="43.42081490218983" lon="10.713749587451852"><ele>507.33333333333337</ele><time>2026-04-19T11:39:23.001Z</time></trkpt><trkpt lat="43.42076918232142" lon="10.71366830556237"><ele>508.0</ele><time>2026-04-19T11:39:26.001Z</time></trkpt><trkpt lat="43.420711685506596" lon="10.713594874529315"><ele>508.1666666666667</ele><time>2026-04-19T11:39:29.001Z</time></trkpt><trkpt lat="43.420631034741994" lon="10.713535682670994"><ele>508.33333333333337</ele><time>2026-04-19T11:39:32.001Z</time></trkpt><trkpt lat="43.420545374962536" lon="10.713499218573464"><ele>508.5</ele><time>2026-04-19T11:39:35.001Z</time></trkpt><trkpt lat="43.42046362171731" lon="10.71347174054894"><ele>508.66666666666663</ele><time>2026-04-19T11:39:38.001Z</time></trkpt><trkpt lat="43.42038653010408" lon="10.713422487724493"><ele>508.8333333333333</ele><time>2026-04-19T11:39:41.001Z</time></trkpt><trkpt lat="43.420324985496464" lon="10.713383234065285"><ele>509.0</ele><time>2026-04-19T11:39:43.001Z</time></trkpt><trkpt lat="43.42025533076573" lon="10.713346037272457"><ele>508.99999999999994</ele><time>2026-04-19T11:39:45.001Z</time></trkpt><trkpt lat="43.42018498074192" lon="10.713303882793848"><ele>509.0</ele><time>2026-04-19T11:39:47.001Z</time></trkpt><trkpt lat="43.42011686119795" lon="10.713254443333044"><ele>509.0</ele><time>2026-04-19T11:39:49.001Z</time></trkpt><trkpt lat="43.42005042878941" lon="10.713194239200494"><ele>509.0</ele><time>2026-04-19T11:39:52.001Z</time></trkpt><trkpt lat="43.41998357729253" lon="10.713131874870296"><ele>508.99999999999994</ele><time>2026-04-19T11:39:55.002Z</time></trkpt><trkpt lat="43.419913812517194" lon="10.713041627377407"><ele>509.0</ele><time>2026-04-19T11:39:58.002Z</time></trkpt><trkpt lat="43.419873090625444" lon="10.712974119880323"><ele>508.99999999999994</ele><time>2026-04-19T11:40:00.002Z</time></trkpt><trkpt lat="43.41980569652294" lon="10.712884840069535"><ele>509.0</ele><time>2026-04-19T11:40:03.002Z</time></trkpt><trkpt lat="43.41975563907702" lon="10.712799189829694"><ele>509.0</ele><time>2026-04-19T11:40:06.002Z</time></trkpt><trkpt lat="43.41971227786234" lon="10.712726877443346"><ele>509.0</ele><time>2026-04-19T11:40:09.002Z</time></trkpt><trkpt lat="43.41966408984501" lon="10.712642565285366"><ele>508.99999999999994</ele><time>2026-04-19T11:40:12.002Z</time></trkpt><trkpt lat="43.41962708273099" lon="10.71256048167472"><ele>509.0</ele><time>2026-04-19T11:40:16.002Z</time></trkpt><trkpt lat="43.419589731176345" lon="10.71248364155342"><ele>508.99999999999994</ele><time>2026-04-19T11:40:19.002Z</time></trkpt><trkpt lat="43.419546347166595" lon="10.712378100848833"><ele>509.0</ele><time>2026-04-19T11:40:22.999Z</time></trkpt><trkpt lat="43.41949628006147" lon="10.712295575865632"><ele>509.0</ele><time>2026-04-19T11:40:25.999Z</time></trkpt><trkpt lat="43.41943967526895" lon="10.712226549997473"><ele>509.0</ele><time>2026-04-19T11:40:29.999Z</time></trkpt><trkpt lat="43.419380992338205" lon="10.712169686627304"><ele>508.99999999999994</ele><time>2026-04-19T11:40:32.999Z</time></trkpt><trkpt lat="43.41931775404853" lon="10.712117027481625"><ele>509.0</ele><time>2026-04-19T11:40:35.999Z</time></trkpt><trkpt lat="43.41925908566278" lon="10.71206118926867"><ele>508.99999999999994</ele><time>2026-04-19T11:40:38.999Z</time></trkpt><trkpt lat="43.41919871049073" lon="10.711989205617245"><ele>509.0</ele><time>2026-04-19T11:40:42.999Z</time></trkpt><trkpt lat="43.41914690476529" lon="10.711938340828228"><ele>508.99999999999994</ele><time>2026-04-19T11:40:46Z</time></trkpt><trkpt lat="43.41909417860433" lon="10.711889442246392"><ele>508.99999999999994</ele><time>2026-04-19T11:40:49Z</time></trkpt><trkpt lat="43.41903901091159" lon="10.711830204182483"><ele>509.0</ele><time>2026-04-19T11:40:52Z</time></trkpt><trkpt lat="43.418983870615826" lon="10.711757089276768"><ele>508.99999999999994</ele><time>2026-04-19T11:40:55Z</time></trkpt><trkpt lat="43.41893095346275" lon="10.711684760283559"><ele>508.99999999999994</ele><time>2026-04-19T11:40:59Z</time></trkpt><trkpt lat="43.4188840757479" lon="10.711621463145205"><ele>508.2857142857142</ele><time>2026-04-19T11:41:03Z</time></trkpt><trkpt lat="43.418835953287335" lon="10.711534688818356"><ele>507.57142857142856</ele><time>2026-04-19T11:41:07Z</time></trkpt><trkpt lat="43.41882318528691" lon="10.711446420750336"><ele>506.85714285714283</ele><time>2026-04-19T11:41:11.001Z</time></trkpt><trkpt lat="43.4188114245345" lon="10.711352152300252"><ele>506.1428571428571</ele><time>2026-04-19T11:41:15.001Z</time></trkpt><trkpt lat="43.418797970555765" lon="10.711248115765027"><ele>505.42857142857144</ele><time>2026-04-19T11:41:18.001Z</time></trkpt><trkpt lat="43.41879808325711" lon="10.711160834864359"><ele>504.7142857142857</ele><time>2026-04-19T11:41:20.001Z</time></trkpt><trkpt lat="43.41879255699895" lon="10.71105309413335"><ele>504.0</ele><time>2026-04-19T11:41:23.001Z</time></trkpt><trkpt lat="43.4187710622056" lon="10.71094644979121"><ele>505.6666666666667</ele><time>2026-04-19T11:41:27.001Z</time></trkpt><trkpt lat="43.41874539886146" lon="10.71083891915962"><ele>507.33333333333337</ele><time>2026-04-19T11:41:31.001Z</time></trkpt><trkpt lat="43.41872686027679" lon="10.710727036949093"><ele>509.0</ele><time>2026-04-19T11:41:34.001Z</time></trkpt><trkpt lat="43.41866844671998" lon="10.710663970289332"><ele>510.6666666666667</ele><time>2026-04-19T11:41:37.001Z</time></trkpt><trkpt lat="43.418603794116386" lon="10.7106346860257"><ele>512.3333333333334</ele><time>2026-04-19T11:41:41.001Z</time></trkpt><trkpt lat="43.418524694071415" lon="10.710613820029106"><ele>514.0</ele><time>2026-04-19T11:41:44.001Z</time></trkpt><trkpt lat="43.41846127982004" lon="10.710587699704321"><ele>514.0</ele><time>2026-04-19T11:41:46.002Z</time></trkpt><trkpt lat="43.418380215235736" lon="10.710525275905354"><ele>514.0</ele><time>2026-04-19T11:41:49.002Z</time></trkpt><trkpt lat="43.418342655409475" lon="10.710450110708502"><ele>514.0</ele><time>2026-04-19T11:41:51.002Z</time></trkpt><trkpt lat="43.41829871372871" lon="10.71036629814743"><ele>514.0</ele><time>2026-04-19T11:41:54.002Z</time></trkpt><trkpt lat="43.41824783167389" lon="10.710277329499464"><ele>514.0</ele><time>2026-04-19T11:41:58.002Z</time></trkpt><trkpt lat="43.41820368992773" lon="10.710203164762069"><ele>514.0</ele><time>2026-04-19T11:42:01.002Z</time></trkpt><trkpt lat="43.418163314945765" lon="10.710134185378092"><ele>513.1666666666667</ele><time>2026-04-19T11:42:03.002Z</time></trkpt><trkpt lat="43.418107440131415" lon="10.710054962331027"><ele>512.3333333333334</ele><time>2026-04-19T11:42:05.002Z</time></trkpt><trkpt lat="43.4180439862565" lon="10.709982926490522"><ele>511.5</ele><time>2026-04-19T11:42:07.002Z</time></trkpt><trkpt lat="43.417983200189504" lon="10.709911773322277"><ele>510.66666666666663</ele><time>2026-04-19T11:42:09.002Z</time></trkpt><trkpt lat="43.41792796094608" lon="10.709833332109497"><ele>509.8333333333333</ele><time>2026-04-19T11:42:13.002Z</time></trkpt><trkpt lat="43.41789578296358" lon="10.709736882166826"><ele>509.0</ele><time>2026-04-19T11:42:17.002Z</time></trkpt><trkpt lat="43.41786605479537" lon="10.70964950630613"><ele>508.99999999999994</ele><time>2026-04-19T11:42:20.002Z</time></trkpt><trkpt lat="43.41783200327549" lon="10.70956682200339"><ele>509.0</ele><time>2026-04-19T11:42:24.003Z</time></trkpt><trkpt lat="43.41779612106326" lon="10.709476745668756"><ele>508.99999999999994</ele><time>2026-04-19T11:42:28.001Z</time></trkpt><trkpt lat="43.417770579684536" lon="10.709395987293544"><ele>508.99999999999994</ele><time>2026-04-19T11:42:31.001Z</time></trkpt><trkpt lat="43.41773435466733" lon="10.709293009653424"><ele>509.0</ele><time>2026-04-19T11:42:35.001Z</time></trkpt><trkpt lat="43.41770583178352" lon="10.709194104329983"><ele>508.99999999999994</ele><time>2026-04-19T11:42:39.001Z</time></trkpt><trkpt lat="43.41767742483982" lon="10.709104048735227"><ele>508.99999999999994</ele><time>2026-04-19T11:42:43.001Z</time></trkpt><trkpt lat="43.417642189888596" lon="10.709020293510864"><ele>509.5714285714285</ele><time>2026-04-19T11:42:46.001Z</time></trkpt><trkpt lat="43.41759754701322" lon="10.708925580545987"><ele>510.1428571428571</ele><time>2026-04-19T11:42:49.001Z</time></trkpt><trkpt lat="43.41757206057336" lon="10.708843327210035"><ele>510.7142857142857</ele><time>2026-04-19T11:42:52.001Z</time></trkpt><trkpt lat="43.41754791045481" lon="10.708731800816274"><ele>511.2857142857143</ele><time>2026-04-19T11:42:55.001Z</time></trkpt><trkpt lat="43.41752625626195" lon="10.708647268461403"><ele>511.8571428571429</ele><time>2026-04-19T11:42:57.001Z</time></trkpt><trkpt lat="43.41749906402054" lon="10.70855834863721"><ele>512.4285714285714</ele><time>2026-04-19T11:42:59.001Z</time></trkpt><trkpt lat="43.417472852106" lon="10.70847712061557"><ele>513.0</ele><time>2026-04-19T11:43:01.001Z</time></trkpt><trkpt lat="43.417413345170445" lon="10.708405329585016"><ele>512.5714285714287</ele><time>2026-04-19T11:43:04.001Z</time></trkpt><trkpt lat="43.41735573883077" lon="10.708369787196663"><ele>512.1428571428571</ele><time>2026-04-19T11:43:06.001Z</time></trkpt><trkpt lat="43.417286161039854" lon="10.708365598794083"><ele>511.7142857142858</ele><time>2026-04-19T11:43:09.001Z</time></trkpt><trkpt lat="43.417213310947226" lon="10.708371937213132"><ele>511.28571428571433</ele><time>2026-04-19T11:43:13.001Z</time></trkpt><trkpt lat="43.4171439269716" lon="10.708346286158102"><ele>510.8571428571429</ele><time>2026-04-19T11:43:16.001Z</time></trkpt><trkpt lat="43.417089061979524" lon="10.708290561238666"><ele>510.42857142857144</ele><time>2026-04-19T11:43:19.002Z</time></trkpt><trkpt lat="43.41702942045371" lon="10.708226691399773"><ele>510.0</ele><time>2026-04-19T11:43:23.002Z</time></trkpt><trkpt lat="43.41696989923671" lon="10.708153371024466"><ele>510.0</ele><time>2026-04-19T11:43:27.002Z</time></trkpt><trkpt lat="43.41690583990219" lon="10.708116460294615"><ele>510.00000000000006</ele><time>2026-04-19T11:43:31.002Z</time></trkpt><trkpt lat="43.41684137012781" lon="10.70814646793229"><ele>510.0</ele><time>2026-04-19T11:43:35.002Z</time></trkpt><trkpt lat="43.41676902774884" lon="10.708182374334267"><ele>510.0</ele><time>2026-04-19T11:43:40.002Z</time></trkpt><trkpt lat="43.416711254463124" lon="10.708247761835143"><ele>510.00000000000006</ele><time>2026-04-19T11:43:45.002Z</time></trkpt><trkpt lat="43.416637876045534" lon="10.708287942576426"><ele>510.0</ele><time>2026-04-19T11:43:49.002Z</time></trkpt><trkpt lat="43.41657066621537" lon="10.708275075507768"><ele>510.0</ele><time>2026-04-19T11:44:17.003Z</time></trkpt><trkpt lat="43.41650282952709" lon="10.708234090078337"><ele>510.0</ele><time>2026-04-19T11:44:23.003Z</time></trkpt><trkpt lat="43.416442567485674" lon="10.708184532661345"><ele>510.00000000000006</ele><time>2026-04-19T11:44:33.004Z</time></trkpt><trkpt lat="43.4163948201193" lon="10.708123525716498"><ele>510.0</ele><time>2026-04-19T11:44:41.002Z</time></trkpt><trkpt lat="43.41633767525113" lon="10.708066739947476"><ele>510.0</ele><time>2026-04-19T11:44:47.002Z</time></trkpt><trkpt lat="43.41627143786244" lon="10.70802276325223"><ele>510.00000000000006</ele><time>2026-04-19T11:44:53.002Z</time></trkpt><trkpt lat="43.416216515323505" lon="10.707971725682768"><ele>510.0</ele><time>2026-04-19T11:44:58.002Z</time></trkpt><trkpt lat="43.41615249851227" lon="10.707909639057144"><ele>510.0</ele><time>2026-04-19T11:45:02.002Z</time></trkpt><trkpt lat="43.41609717326548" lon="10.707858227275638"><ele>510.42857142857144</ele><time>2026-04-19T11:45:06.002Z</time></trkpt><trkpt lat="43.41604053490763" lon="10.707818924155974"><ele>510.8571428571429</ele><time>2026-04-19T11:45:12.002Z</time></trkpt><trkpt lat="43.415982822018655" lon="10.707776975464267"><ele>511.28571428571433</ele><time>2026-04-19T11:45:18.002Z</time></trkpt><trkpt lat="43.41593017844656" lon="10.707725158215718"><ele>511.7142857142858</ele><time>2026-04-19T11:45:24.002Z</time></trkpt><trkpt lat="43.41586950714928" lon="10.707670853325956"><ele>512.1428571428571</ele><time>2026-04-19T11:45:29.002Z</time></trkpt><trkpt lat="43.41580988051099" lon="10.707625502215395"><ele>512.5714285714287</ele><time>2026-04-19T11:45:34.002Z</time></trkpt><trkpt lat="43.41575221264393" lon="10.707588072948278"><ele>513.0</ele><time>2026-04-19T11:45:38.002Z</time></trkpt><trkpt lat="43.41567476598007" lon="10.707544078019444"><ele>513.0</ele><time>2026-04-19T11:45:42.003Z</time></trkpt><trkpt lat="43.41559926310164" lon="10.707504844088335"><ele>513.0</ele><time>2026-04-19T11:45:46.003Z</time></trkpt><trkpt lat="43.415525268044846" lon="10.707484086149524"><ele>513.0</ele><time>2026-04-19T11:45:49.003Z</time></trkpt><trkpt lat="43.415448490370636" lon="10.707473067758967"><ele>513.0</ele><time>2026-04-19T11:45:52.003Z</time></trkpt><trkpt lat="43.415369633857935" lon="10.707465243156072"><ele>513.0</ele><time>2026-04-19T11:45:55.003Z</time></trkpt><trkpt lat="43.41529248809134" lon="10.707445672741185"><ele>513.0</ele><time>2026-04-19T11:45:59.003Z</time></trkpt><trkpt lat="43.41522798623895" lon="10.707410137768237"><ele>511.00000000000006</ele><time>2026-04-19T11:46:03.003Z</time></trkpt><trkpt lat="43.415167676553544" lon="10.707351352194317"><ele>509.0</ele><time>2026-04-19T11:46:08.003Z</time></trkpt><trkpt lat="43.415118691793595" lon="10.707289220722846"><ele>507.00000000000006</ele><time>2026-04-19T11:46:13.003Z</time></trkpt><trkpt lat="43.415066912099" lon="10.707210833891097"><ele>505.00000000000006</ele><time>2026-04-19T11:46:17.003Z</time></trkpt><trkpt lat="43.41502063173913" lon="10.707130566803851"><ele>503.0</ele><time>2026-04-19T11:46:23.003Z</time></trkpt><trkpt lat="43.414957097930795" lon="10.707055437390734"><ele>501.00000000000006</ele><time>2026-04-19T11:46:28.004Z</time></trkpt><trkpt lat="43.414906589394285" lon="10.707000042309051"><ele>499.00000000000006</ele><time>2026-04-19T11:46:31.004Z</time></trkpt><trkpt lat="43.41485837598959" lon="10.706933441300748"><ele>498.57142857142867</ele><time>2026-04-19T11:46:37.004Z</time></trkpt><trkpt lat="43.41481684514558" lon="10.70684376250349"><ele>498.14285714285717</ele><time>2026-04-19T11:46:41.002Z</time></trkpt><trkpt lat="43.41478630806525" lon="10.706765276360526"><ele>497.7142857142858</ele><time>2026-04-19T11:46:45.002Z</time></trkpt><trkpt lat="43.414758746689564" lon="10.706679048104643"><ele>497.28571428571433</ele><time>2026-04-19T11:46:49.002Z</time></trkpt><trkpt lat="43.414725336855724" lon="10.706590514959696"><ele>496.8571428571429</ele><time>2026-04-19T11:46:53.002Z</time></trkpt><trkpt lat="43.414683866748476" lon="10.70651876190123"><ele>496.42857142857144</ele><time>2026-04-19T11:46:56.002Z</time></trkpt><trkpt lat="43.41462348544965" lon="10.706440528989017"><ele>496.0</ele><time>2026-04-19T11:46:59.002Z</time></trkpt><trkpt lat="43.414550799849195" lon="10.706379172318746"><ele>496.0</ele><time>2026-04-19T11:47:02.002Z</time></trkpt><trkpt lat="43.41446756959121" lon="10.706363284472358"><ele>496.00000000000006</ele><time>2026-04-19T11:47:05.002Z</time></trkpt><trkpt lat="43.41439802768407" lon="10.706367488874823"><ele>496.0</ele><time>2026-04-19T11:47:08.002Z</time></trkpt><trkpt lat="43.414335109781575" lon="10.706378415841018"><ele>496.0</ele><time>2026-04-19T11:47:11.002Z</time></trkpt><trkpt lat="43.41426679381649" lon="10.706389913472808"><ele>496.00000000000006</ele><time>2026-04-19T11:47:14.002Z</time></trkpt><trkpt lat="43.41419006843886" lon="10.706388747368832"><ele>496.0</ele><time>2026-04-19T11:47:17.002Z</time></trkpt><trkpt lat="43.41411617480676" lon="10.706376410046511"><ele>496.0</ele><time>2026-04-19T11:47:20.002Z</time></trkpt><trkpt lat="43.41404791649702" lon="10.706360294687657"><ele>496.00000000000006</ele><time>2026-04-19T11:47:23.002Z</time></trkpt><trkpt lat="43.41397127346444" lon="10.706335561267789"><ele>496.0</ele><time>2026-04-19T11:47:26.002Z</time></trkpt><trkpt lat="43.41388702764957" lon="10.706286625005811"><ele>496.0</ele><time>2026-04-19T11:47:29.002Z</time></trkpt><trkpt lat="43.41381659230974" lon="10.706206690085567"><ele>496.0</ele><time>2026-04-19T11:47:32.002Z</time></trkpt><trkpt lat="43.41376425711661" lon="10.706141973789697"><ele>496.00000000000006</ele><time>2026-04-19T11:47:35.002Z</time></trkpt><trkpt lat="43.41371563540858" lon="10.706072201253425"><ele>496.0</ele><time>2026-04-19T11:47:38.002Z</time></trkpt><trkpt lat="43.41366097972367" lon="10.705992390223082"><ele>496.50000000000006</ele><time>2026-04-19T11:47:41.002Z</time></trkpt><trkpt lat="43.41359816651471" lon="10.705915356051882"><ele>497.0</ele><time>2026-04-19T11:47:44.002Z</time></trkpt><trkpt lat="43.41353736072224" lon="10.705834188973496"><ele>497.5</ele><time>2026-04-19T11:47:47.002Z</time></trkpt><trkpt lat="43.413479178078255" lon="10.705757704014236"><ele>498.0</ele><time>2026-04-19T11:47:50.002Z</time></trkpt><trkpt lat="43.41342453102338" lon="10.705681191233849"><ele>498.50000000000006</ele><time>2026-04-19T11:47:53.002Z</time></trkpt><trkpt lat="43.41337063893496" lon="10.70560446404679"><ele>499.0</ele><time>2026-04-19T11:47:57.002Z</time></trkpt><trkpt lat="43.41331119470792" lon="10.705535190492451"><ele>499.00000000000006</ele><time>2026-04-19T11:48:01.002Z</time></trkpt><trkpt lat="43.413263100731015" lon="10.705465613121076"><ele>499.0</ele><time>2026-04-19T11:48:05.003Z</time></trkpt><trkpt lat="43.41321133529713" lon="10.705386826390887"><ele>499.0</ele><time>2026-04-19T11:48:09.003Z</time></trkpt><trkpt lat="43.41314597791701" lon="10.705335785886408"><ele>499.0</ele><time>2026-04-19T11:48:13.003Z</time></trkpt><trkpt lat="43.413069681600035" lon="10.705313252758737"><ele>499.00000000000006</ele><time>2026-04-19T11:48:17.003Z</time></trkpt><trkpt lat="43.4129877281976" lon="10.705310585630146"><ele>499.0</ele><time>2026-04-19T11:48:21.003Z</time></trkpt><trkpt lat="43.41291384801585" lon="10.70530310894642"><ele>498.28571428571433</ele><time>2026-04-19T11:48:25.003Z</time></trkpt><trkpt lat="43.4128514799314" lon="10.70527014356821"><ele>497.57142857142856</ele><time>2026-04-19T11:48:29.003Z</time></trkpt><trkpt lat="43.4127801401832" lon="10.705238512160042"><ele>496.8571428571429</ele><time>2026-04-19T11:48:33.003Z</time></trkpt><trkpt lat="43.41270981845766" lon="10.705244507427926"><ele>496.14285714285717</ele><time>2026-04-19T11:48:37.003Z</time></trkpt><trkpt lat="43.41263889694496" lon="10.705258127643127"><ele>495.42857142857144</ele><time>2026-04-19T11:48:41.003Z</time></trkpt><trkpt lat="43.41255701027414" lon="10.705273056843035"><ele>494.7142857142857</ele><time>2026-04-19T11:48:45.003Z</time></trkpt><trkpt lat="43.41247772177544" lon="10.705299414554926"><ele>494.0</ele><time>2026-04-19T11:48:49.002Z</time></trkpt><trkpt lat="43.412424273675214" lon="10.705360764514825"><ele>494.0</ele><time>2026-04-19T11:48:53.002Z</time></trkpt><trkpt lat="43.41237470436214" lon="10.705430470980103"><ele>494.0</ele><time>2026-04-19T11:48:57.002Z</time></trkpt><trkpt lat="43.41233072891915" lon="10.705493714935093"><ele>494.0</ele><time>2026-04-19T11:49:01.002Z</time></trkpt><trkpt lat="43.41227193281597" lon="10.705525524292797"><ele>494.0</ele><time>2026-04-19T11:49:05.002Z</time></trkpt><trkpt lat="43.4121958999415" lon="10.70553221028361"><ele>494.0</ele><time>2026-04-19T11:49:11.002Z</time></trkpt><trkpt lat="43.41213240502271" lon="10.705527582366484"><ele>494.0</ele><time>2026-04-19T11:49:16.002Z</time></trkpt><trkpt lat="43.41207066677211" lon="10.705496518147754"><ele>494.0</ele><time>2026-04-19T11:49:21.002Z</time></trkpt><trkpt lat="43.41200659074306" lon="10.705460411293966"><ele>493.8571428571429</ele><time>2026-04-19T11:49:27.002Z</time></trkpt><trkpt lat="43.41194500474838" lon="10.705441020829383"><ele>493.71428571428567</ele><time>2026-04-19T11:49:32.002Z</time></trkpt><trkpt lat="43.411879456890276" lon="10.70540966545669"><ele>493.57142857142856</ele><time>2026-04-19T11:49:37.002Z</time></trkpt><trkpt lat="43.411816467892635" lon="10.70538426714478"><ele>493.42857142857144</ele><time>2026-04-19T11:49:41.002Z</time></trkpt><trkpt lat="43.41175102267025" lon="10.705362329403021"><ele>493.28571428571433</ele><time>2026-04-19T11:49:46.002Z</time></trkpt><trkpt lat="43.41167643751873" lon="10.705327193774789"><ele>493.1428571428571</ele><time>2026-04-19T11:49:50.002Z</time></trkpt><trkpt lat="43.41161265566925" lon="10.70530173678853"><ele>493.0</ele><time>2026-04-19T11:49:53.002Z</time></trkpt><trkpt lat="43.41155034743165" lon="10.70528168006965"><ele>493.00000000000006</ele><time>2026-04-19T11:49:55.002Z</time></trkpt><trkpt lat="43.411470496983675" lon="10.705277177306872"><ele>493.0</ele><time>2026-04-19T11:49:58.002Z</time></trkpt><trkpt lat="43.41139707175846" lon="10.70528702565491"><ele>493.0</ele><time>2026-04-19T11:50:01.002Z</time></trkpt><trkpt lat="43.411327465810274" lon="10.705312409672775"><ele>493.0</ele><time>2026-04-19T11:50:04.002Z</time></trkpt><trkpt lat="43.41125612015972" lon="10.705350963802548"><ele>493.00000000000006</ele><time>2026-04-19T11:50:07.002Z</time></trkpt><trkpt lat="43.41118199218364" lon="10.705410008511464"><ele>493.0</ele><time>2026-04-19T11:50:10.002Z</time></trkpt><trkpt lat="43.41112768464655" lon="10.705468687986341"><ele>494.42857142857144</ele><time>2026-04-19T11:50:14.003Z</time></trkpt><trkpt lat="43.41107538841574" lon="10.705520361417067"><ele>495.8571428571429</ele><time>2026-04-19T11:50:17.003Z</time></trkpt><trkpt lat="43.411020143002574" lon="10.70558451095831"><ele>497.28571428571433</ele><time>2026-04-19T11:50:19.003Z</time></trkpt><trkpt lat="43.4109730499402" lon="10.705648924178238"><ele>498.7142857142857</ele><time>2026-04-19T11:50:21.003Z</time></trkpt><trkpt lat="43.41092095307384" lon="10.70572604063124"><ele>500.1428571428572</ele><time>2026-04-19T11:50:24.003Z</time></trkpt><trkpt lat="43.41086685007807" lon="10.705806032300046"><ele>501.5714285714286</ele><time>2026-04-19T11:50:27.003Z</time></trkpt><trkpt lat="43.410824674305445" lon="10.705878354054292"><ele>503.0</ele><time>2026-04-19T11:50:30.003Z</time></trkpt><trkpt lat="43.41077915684979" lon="10.705947841751444"><ele>502.99999999999994</ele><time>2026-04-19T11:50:33.003Z</time></trkpt><trkpt lat="43.41072355667066" lon="10.706011886786934"><ele>503.0</ele><time>2026-04-19T11:50:36.003Z</time></trkpt><trkpt lat="43.41065601206347" lon="10.706081159510024"><ele>503.0</ele><time>2026-04-19T11:50:39.003Z</time></trkpt><trkpt lat="43.41059647276125" lon="10.706121459723711"><ele>503.0</ele><time>2026-04-19T11:50:42.003Z</time></trkpt><trkpt lat="43.41052536544165" lon="10.706182112335837"><ele>502.99999999999994</ele><time>2026-04-19T11:50:45.003Z</time></trkpt><trkpt lat="43.410437288505925" lon="10.70626913488342"><ele>503.0</ele><time>2026-04-19T11:50:47.003Z</time></trkpt><trkpt lat="43.410358873672266" lon="10.706330334244194"><ele>503.0</ele><time>2026-04-19T11:50:49.003Z</time></trkpt><trkpt lat="43.410294783661875" lon="10.706346950235096"><ele>503.00000000000006</ele><time>2026-04-19T11:50:51.003Z</time></trkpt><trkpt lat="43.41022176802083" lon="10.7063479124869"><ele>503.0</ele><time>2026-04-19T11:50:53.002Z</time></trkpt><trkpt lat="43.4101424496349" lon="10.706332504573552"><ele>503.0</ele><time>2026-04-19T11:50:55.002Z</time></trkpt><trkpt lat="43.41006024513131" lon="10.706337980122646"><ele>503.00000000000006</ele><time>2026-04-19T11:50:58.002Z</time></trkpt><trkpt lat="43.40999555185175" lon="10.706348936518062"><ele>503.0</ele><time>2026-04-19T11:51:00.002Z</time></trkpt><trkpt lat="43.40992692543143" lon="10.70635515888913"><ele>503.0</ele><time>2026-04-19T11:51:03.002Z</time></trkpt><trkpt lat="43.40985373991841" lon="10.706389569557954"><ele>502.99999999999994</ele><time>2026-04-19T11:51:07.002Z</time></trkpt><trkpt lat="43.40978797704423" lon="10.70645021259967"><ele>503.0</ele><time>2026-04-19T11:51:11.002Z</time></trkpt><trkpt lat="43.40972060623594" lon="10.706536290674398"><ele>503.0</ele><time>2026-04-19T11:51:14.002Z</time></trkpt><trkpt lat="43.40967137406434" lon="10.706629096035767"><ele>503.0</ele><time>2026-04-19T11:51:16.002Z</time></trkpt><trkpt lat="43.409640431866876" lon="10.706711054379682"><ele>502.99999999999994</ele><time>2026-04-19T11:51:19.002Z</time></trkpt><trkpt lat="43.40959552556097" lon="10.706789072207858"><ele>503.0</ele><time>2026-04-19T11:51:23.002Z</time></trkpt><trkpt lat="43.409544668093815" lon="10.706873275222623"><ele>503.42857142857144</ele><time>2026-04-19T11:51:27.002Z</time></trkpt><trkpt lat="43.409479757313804" lon="10.706910075883883"><ele>503.8571428571429</ele><time>2026-04-19T11:51:30.002Z</time></trkpt><trkpt lat="43.40942343872557" lon="10.706954948803949"><ele>504.28571428571433</ele><time>2026-04-19T11:51:33.002Z</time></trkpt><trkpt lat="43.40936886807646" lon="10.707009629221098"><ele>504.7142857142858</ele><time>2026-04-19T11:51:36.002Z</time></trkpt><trkpt lat="43.409292661085004" lon="10.707066144656823"><ele>505.14285714285717</ele><time>2026-04-19T11:51:39.002Z</time></trkpt><trkpt lat="43.40924280409532" lon="10.707122316114367"><ele>505.57142857142867</ele><time>2026-04-19T11:51:42.002Z</time></trkpt><trkpt lat="43.40918964046009" lon="10.707209509787326"><ele>506.00000000000006</ele><time>2026-04-19T11:51:46.002Z</time></trkpt><trkpt lat="43.409154408644916" lon="10.707304220065364"><ele>506.00000000000006</ele><time>2026-04-19T11:51:49.002Z</time></trkpt><trkpt lat="43.409125053558185" lon="10.707410675584459"><ele>506.0</ele><time>2026-04-19T11:51:53.002Z</time></trkpt><trkpt lat="43.409094900395445" lon="10.707508759728691"><ele>506.00000000000006</ele><time>2026-04-19T11:51:57.002Z</time></trkpt><trkpt lat="43.409072754171184" lon="10.707624597017992"><ele>506.00000000000006</ele><time>2026-04-19T11:52:01.002Z</time></trkpt><trkpt lat="43.40907028423971" lon="10.70771453918424"><ele>506.0</ele><time>2026-04-19T11:52:04.002Z</time></trkpt><trkpt lat="43.409061708810775" lon="10.707802210146381"><ele>506.00000000000006</ele><time>2026-04-19T11:52:07.002Z</time></trkpt><trkpt lat="43.409054416906834" lon="10.70789404301071"><ele>506.00000000000006</ele><time>2026-04-19T11:52:10.002Z</time></trkpt><trkpt lat="43.40904448880193" lon="10.708001069299426"><ele>505.28571428571433</ele><time>2026-04-19T11:52:14.002Z</time></trkpt><trkpt lat="43.40903672144756" lon="10.708099358220776"><ele>504.57142857142856</ele><time>2026-04-19T11:52:18.002Z</time></trkpt><trkpt lat="43.40903244886401" lon="10.708197344292925"><ele>503.8571428571429</ele><time>2026-04-19T11:52:22.002Z</time></trkpt><trkpt lat="43.409028682224246" lon="10.7082953682787"><ele>503.14285714285717</ele><time>2026-04-19T11:52:26.002Z</time></trkpt><trkpt lat="43.40903285198127" lon="10.7083916836366"><ele>502.42857142857144</ele><time>2026-04-19T11:52:30.002Z</time></trkpt><trkpt lat="43.40904552244422" lon="10.708483566285095"><ele>501.7142857142857</ele><time>2026-04-19T11:52:33.003Z</time></trkpt><trkpt lat="43.4090597290408" lon="10.708572819925818"><ele>501.0</ele><time>2026-04-19T11:52:36.003Z</time></trkpt><trkpt lat="43.40908206279925" lon="10.708677125638744"><ele>500.57142857142856</ele><time>2026-04-19T11:52:40.003Z</time></trkpt><trkpt lat="43.40909565819342" lon="10.708762529951473"><ele>500.1428571428571</ele><time>2026-04-19T11:52:43.003Z</time></trkpt><trkpt lat="43.40910823042237" lon="10.7088622186138"><ele>499.71428571428567</ele><time>2026-04-19T11:52:46.003Z</time></trkpt><trkpt lat="43.40912122861514" lon="10.708948537014784"><ele>499.2857142857143</ele><time>2026-04-19T11:52:48.003Z</time></trkpt><trkpt lat="43.40914697160829" lon="10.709038777584682"><ele>498.8571428571428</ele><time>2026-04-19T11:52:50.003Z</time></trkpt><trkpt lat="43.409172152610125" lon="10.709129652046775"><ele>498.4285714285714</ele><time>2026-04-19T11:52:52.003Z</time></trkpt><trkpt lat="43.40917891161733" lon="10.70922129102892"><ele>498.0</ele><time>2026-04-19T11:52:54.003Z</time></trkpt><trkpt lat="43.4091708455482" lon="10.709342683326915"><ele>497.3333333333333</ele><time>2026-04-19T11:52:57.003Z</time></trkpt><trkpt lat="43.409137376959634" lon="10.709462470303235"><ele>496.66666666666663</ele><time>2026-04-19T11:53:00.002Z</time></trkpt><trkpt lat="43.40910836175863" lon="10.70955754287178"><ele>496.0</ele><time>2026-04-19T11:53:03.002Z</time></trkpt><trkpt lat="43.409077930766145" lon="10.709666245499685"><ele>495.3333333333333</ele><time>2026-04-19T11:53:06.002Z</time></trkpt><trkpt lat="43.409039160667085" lon="10.70981861258394"><ele>494.66666666666663</ele><time>2026-04-19T11:53:08.002Z</time></trkpt><trkpt lat="43.40901200153684" lon="10.709909598384229"><ele>494.0</ele><time>2026-04-19T11:53:09.002Z</time></trkpt><trkpt lat="43.40897898579891" lon="10.710005616847377"><ele>493.99999999999994</ele><time>2026-04-19T11:53:10.002Z</time></trkpt><trkpt lat="43.40895196245016" lon="10.710091857273767"><ele>494.0</ele><time>2026-04-19T11:53:11.002Z</time></trkpt><trkpt lat="43.4089258514571" lon="10.710202289370342"><ele>494.0</ele><time>2026-04-19T11:53:13.002Z</time></trkpt><trkpt lat="43.40889388540105" lon="10.71037453522616"><ele>494.0</ele><time>2026-04-19T11:53:15.002Z</time></trkpt><trkpt lat="43.4088751260152" lon="10.710473060506134"><ele>493.99999999999994</ele><time>2026-04-19T11:53:16.002Z</time></trkpt><trkpt lat="43.40885493839254" lon="10.710561578596383"><ele>494.0</ele><time>2026-04-19T11:53:17.002Z</time></trkpt><trkpt lat="43.40880368447137" lon="10.710693805967667"><ele>494.49999999999994</ele><time>2026-04-19T11:53:19.002Z</time></trkpt><trkpt lat="43.40875406362497" lon="10.710782336712025"><ele>495.0</ele><time>2026-04-19T11:53:21.002Z</time></trkpt><trkpt lat="43.40869739196119" lon="10.710860220912075"><ele>495.5</ele><time>2026-04-19T11:53:23.002Z</time></trkpt><trkpt lat="43.40861701202982" lon="10.710911494153907"><ele>496.0</ele><time>2026-04-19T11:53:25.002Z</time></trkpt><trkpt lat="43.40851980085164" lon="10.710926325527037"><ele>496.49999999999994</ele><time>2026-04-19T11:53:27.002Z</time></trkpt><trkpt lat="43.40843164863259" lon="10.71094063697026"><ele>497.0</ele><time>2026-04-19T11:53:29.002Z</time></trkpt><trkpt lat="43.40833293531956" lon="10.711011215489867"><ele>496.3333333333333</ele><time>2026-04-19T11:53:31.002Z</time></trkpt><trkpt lat="43.40823928437934" lon="10.711075297005808"><ele>495.66666666666663</ele><time>2026-04-19T11:53:33.002Z</time></trkpt><trkpt lat="43.4081453919494" lon="10.711113512934883"><ele>495.0</ele><time>2026-04-19T11:53:35.002Z</time></trkpt><trkpt lat="43.408076996832754" lon="10.71113762031013"><ele>494.33333333333337</ele><time>2026-04-19T11:53:37.002Z</time></trkpt><trkpt lat="43.408004744052164" lon="10.711172108109558"><ele>493.6666666666667</ele><time>2026-04-19T11:53:39.002Z</time></trkpt><trkpt lat="43.407932362433336" lon="10.711205982189076"><ele>493.0</ele><time>2026-04-19T11:53:41.002Z</time></trkpt><trkpt lat="43.407860760214774" lon="10.711232018032803"><ele>493.00000000000006</ele><time>2026-04-19T11:53:43.002Z</time></trkpt><trkpt lat="43.40777653394081" lon="10.711260030652285"><ele>493.0</ele><time>2026-04-19T11:53:45.002Z</time></trkpt><trkpt lat="43.407669673235056" lon="10.711320777980497"><ele>493.0</ele><time>2026-04-19T11:53:47.002Z</time></trkpt><trkpt lat="43.40760255054819" lon="10.711364937113439"><ele>493.0</ele><time>2026-04-19T11:53:48.002Z</time></trkpt><trkpt lat="43.407538765535854" lon="10.711407115645155"><ele>493.00000000000006</ele><time>2026-04-19T11:53:49.002Z</time></trkpt><trkpt lat="43.40747853238036" lon="10.711440168092823"><ele>493.0</ele><time>2026-04-19T11:53:50.002Z</time></trkpt><trkpt lat="43.407379936407814" lon="10.711461510440806"><ele>493.00000000000006</ele><time>2026-04-19T11:53:52.002Z</time></trkpt><trkpt lat="43.40729740828748" lon="10.711459487147783"><ele>493.0</ele><time>2026-04-19T11:53:54.002Z</time></trkpt><trkpt lat="43.40721636945019" lon="10.711446842213682"><ele>493.0</ele><time>2026-04-19T11:53:56.002Z</time></trkpt><trkpt lat="43.407137125814934" lon="10.71144946975388"><ele>493.0</ele><time>2026-04-19T11:53:58.002Z</time></trkpt><trkpt lat="43.40706885648458" lon="10.711483377463571"><ele>493.00000000000006</ele><time>2026-04-19T11:54:00.002Z</time></trkpt><trkpt lat="43.407005090483885" lon="10.711532771875428"><ele>493.0</ele><time>2026-04-19T11:54:03.002Z</time></trkpt><trkpt lat="43.40693987687493" lon="10.711586898596936"><ele>493.6666666666667</ele><time>2026-04-19T11:54:06.002Z</time></trkpt><trkpt lat="43.40687141959105" lon="10.711641348704584"><ele>494.33333333333337</ele><time>2026-04-19T11:54:09.002Z</time></trkpt><trkpt lat="43.40679001298064" lon="10.711699596061857"><ele>495.0</ele><time>2026-04-19T11:54:12.002Z</time></trkpt><trkpt lat="43.40670478094664" lon="10.71176700837644"><ele>495.66666666666663</ele><time>2026-04-19T11:54:15.002Z</time></trkpt><trkpt lat="43.40664050796034" lon="10.711805045463178"><ele>496.3333333333333</ele><time>2026-04-19T11:54:17.002Z</time></trkpt><trkpt lat="43.406583465036526" lon="10.711867269388629"><ele>497.0</ele><time>2026-04-19T11:54:19.002Z</time></trkpt><trkpt lat="43.40652259306382" lon="10.71193361306442"><ele>496.99999999999994</ele><time>2026-04-19T11:54:21.002Z</time></trkpt><trkpt lat="43.406466640042396" lon="10.711989870095458"><ele>497.0</ele><time>2026-04-19T11:54:23.002Z</time></trkpt><trkpt lat="43.40639294714654" lon="10.712059287034128"><ele>497.0</ele><time>2026-04-19T11:54:25.002Z</time></trkpt><trkpt lat="43.40634491569696" lon="10.712149538437151"><ele>497.0</ele><time>2026-04-19T11:54:27.002Z</time></trkpt><trkpt lat="43.40631036473819" lon="10.712260564653935"><ele>496.99999999999994</ele><time>2026-04-19T11:54:30.002Z</time></trkpt><trkpt lat="43.40627602193521" lon="10.712365500550822"><ele>497.0</ele><time>2026-04-19T11:54:33.002Z</time></trkpt><trkpt lat="43.406234735327224" lon="10.712469218166582"><ele>498.3333333333333</ele><time>2026-04-19T11:54:36.002Z</time></trkpt><trkpt lat="43.406198424636486" lon="10.712570821333735"><ele>499.66666666666663</ele><time>2026-04-19T11:54:39.002Z</time></trkpt><trkpt lat="43.406158342571175" lon="10.712669775868122"><ele>501.0</ele><time>2026-04-19T11:54:42.002Z</time></trkpt><trkpt lat="43.40610641466744" lon="10.71275727005748"><ele>502.33333333333337</ele><time>2026-04-19T11:54:45.002Z</time></trkpt><trkpt lat="43.40606033099099" lon="10.712824476788057"><ele>503.6666666666667</ele><time>2026-04-19T11:54:47.002Z</time></trkpt><trkpt lat="43.40601282766592" lon="10.71288621426402"><ele>505.0</ele><time>2026-04-19T11:54:49.002Z</time></trkpt><trkpt lat="43.40595284963019" lon="10.712961995035077"><ele>505.00000000000006</ele><time>2026-04-19T11:54:52.002Z</time></trkpt><trkpt lat="43.40590665613128" lon="10.713051013855365"><ele>505.0</ele><time>2026-04-19T11:54:55.002Z</time></trkpt><trkpt lat="43.40586044875935" lon="10.713152585777998"><ele>505.0</ele><time>2026-04-19T11:54:58.002Z</time></trkpt><trkpt lat="43.405822477311574" lon="10.713262409578302"><ele>505.0</ele><time>2026-04-19T11:55:01.002Z</time></trkpt><trkpt lat="43.405795532653386" lon="10.713381728848292"><ele>505.00000000000006</ele><time>2026-04-19T11:55:04.002Z</time></trkpt><trkpt lat="43.40576490759183" lon="10.713499157733187"><ele>505.0</ele><time>2026-04-19T11:55:07.002Z</time></trkpt><trkpt lat="43.405729707159445" lon="10.713571788536402"><ele>503.33333333333337</ele><time>2026-04-19T11:55:09.002Z</time></trkpt><trkpt lat="43.40567710563225" lon="10.713679108687806"><ele>501.6666666666667</ele><time>2026-04-19T11:55:12.002Z</time></trkpt><trkpt lat="43.405634650444505" lon="10.713776687340383"><ele>500.0</ele><time>2026-04-19T11:55:15.002Z</time></trkpt><trkpt lat="43.40559807601971" lon="10.713871231265474"><ele>498.33333333333337</ele><time>2026-04-19T11:55:18.002Z</time></trkpt><trkpt lat="43.40556677959149" lon="10.71396532171631"><ele>496.6666666666667</ele><time>2026-04-19T11:55:21.002Z</time></trkpt><trkpt lat="43.40553352949818" lon="10.714057382879746"><ele>495.0</ele><time>2026-04-19T11:55:24.001Z</time></trkpt><trkpt lat="43.4054900649451" lon="10.714181468513402"><ele>498.8333333333333</ele><time>2026-04-19T11:55:27.001Z</time></trkpt><trkpt lat="43.405462845862615" lon="10.714280163724347"><ele>502.66666666666663</ele><time>2026-04-19T11:55:29.001Z</time></trkpt><trkpt lat="43.40543539591637" lon="10.714393993152049"><ele>506.5</ele><time>2026-04-19T11:55:32.001Z</time></trkpt><trkpt lat="43.40542057443423" lon="10.714518020957161"><ele>510.3333333333333</ele><time>2026-04-19T11:55:34.001Z</time></trkpt><trkpt lat="43.40541529256351" lon="10.714652708664088"><ele>514.1666666666666</ele><time>2026-04-19T11:55:36.001Z</time></trkpt><trkpt lat="43.405419056620126" lon="10.7147663239518"><ele>518.0</ele><time>2026-04-19T11:55:38.001Z</time></trkpt><trkpt lat="43.40542033029851" lon="10.714859730232307"><ele>518.0</ele><time>2026-04-19T11:55:40.001Z</time></trkpt><trkpt lat="43.40540971674708" lon="10.714959382999705"><ele>518.0</ele><time>2026-04-19T11:55:42.001Z</time></trkpt><trkpt lat="43.40538982163355" lon="10.715096290106835"><ele>518.0</ele><time>2026-04-19T11:55:44.001Z</time></trkpt><trkpt lat="43.40536771355767" lon="10.715250566917097"><ele>518.0</ele><time>2026-04-19T11:55:46.001Z</time></trkpt><trkpt lat="43.40534333357197" lon="10.715394480961173"><ele>518.0</ele><time>2026-04-19T11:55:48.001Z</time></trkpt><trkpt lat="43.405328279051176" lon="10.71548792665293"><ele>515.1999999999999</ele><time>2026-04-19T11:55:50.001Z</time></trkpt><trkpt lat="43.40530570088274" lon="10.715624794522402"><ele>512.4</ele><time>2026-04-19T11:55:53.001Z</time></trkpt><trkpt lat="43.40528532056248" lon="10.715772331813232"><ele>509.59999999999997</ele><time>2026-04-19T11:55:55.001Z</time></trkpt><trkpt lat="43.40526311153111" lon="10.715916005667227"><ele>506.79999999999995</ele><time>2026-04-19T11:55:57.001Z</time></trkpt><trkpt lat="43.405227776149765" lon="10.716034717834097"><ele>504.0</ele><time>2026-04-19T11:55:59.001Z</time></trkpt><trkpt lat="43.405140715690685" lon="10.716111586827958"><ele>498.75</ele><time>2026-04-19T11:56:01.001Z</time></trkpt><trkpt lat="43.40503380610586" lon="10.71614314616133"><ele>493.5</ele><time>2026-04-19T11:56:03.001Z</time></trkpt><trkpt lat="43.404921549627815" lon="10.71617748552811"><ele>488.25</ele><time>2026-04-19T11:56:05.001Z</time></trkpt><trkpt lat="43.40481096261598" lon="10.716237733104984"><ele>483.0</ele><time>2026-04-19T11:56:07.001Z</time></trkpt><trkpt lat="43.404700993067365" lon="10.716289128433976"><ele>485.4</ele><time>2026-04-19T11:56:09.001Z</time></trkpt><trkpt lat="43.40459030196755" lon="10.716348127759723"><ele>487.79999999999995</ele><time>2026-04-19T11:56:11.001Z</time></trkpt><trkpt lat="43.40447354710864" lon="10.716426366985564"><ele>490.2</ele><time>2026-04-19T11:56:13.001Z</time></trkpt><trkpt lat="43.40440685762211" lon="10.716467214528079"><ele>492.6</ele><time>2026-04-19T11:56:14.001Z</time></trkpt><trkpt lat="43.40433397452235" lon="10.716508146298208"><ele>495.0</ele><time>2026-04-19T11:56:15.002Z</time></trkpt><trkpt lat="43.404260871442716" lon="10.716539188827891"><ele>495.0</ele><time>2026-04-19T11:56:16.002Z</time></trkpt><trkpt lat="43.40419198525569" lon="10.71656626573215"><ele>495.0</ele><time>2026-04-19T11:56:17.002Z</time></trkpt><trkpt lat="43.4041325246423" lon="10.71659816179267"><ele>495.0</ele><time>2026-04-19T11:56:18.002Z</time></trkpt><trkpt lat="43.404053428340674" lon="10.716712509100056"><ele>495.0</ele><time>2026-04-19T11:56:20.002Z</time></trkpt><trkpt lat="43.40402180701776" lon="10.716837523846435"><ele>495.0</ele><time>2026-04-19T11:56:22.002Z</time></trkpt><trkpt lat="43.40400636429857" lon="10.71694342935715"><ele>495.0</ele><time>2026-04-19T11:56:24.002Z</time></trkpt><trkpt lat="43.40401253644289" lon="10.717042877479917"><ele>492.8333333333333</ele><time>2026-04-19T11:56:26.002Z</time></trkpt><trkpt lat="43.40402442393696" lon="10.71714826443044"><ele>490.66666666666663</ele><time>2026-04-19T11:56:28.002Z</time></trkpt><trkpt lat="43.40401567882093" lon="10.71725021354501"><ele>488.5</ele><time>2026-04-19T11:56:30.002Z</time></trkpt><trkpt lat="43.403940192138485" lon="10.71730175174447"><ele>486.3333333333333</ele><time>2026-04-19T11:56:33.002Z</time></trkpt><trkpt lat="43.40387341060088" lon="10.717293575137525"><ele>484.16666666666663</ele><time>2026-04-19T11:56:35.002Z</time></trkpt><trkpt lat="43.40379227125526" lon="10.717238691778267"><ele>482.0</ele><time>2026-04-19T11:56:38.002Z</time></trkpt><trkpt lat="43.40374475115034" lon="10.717151635675409"><ele>481.49999999999994</ele><time>2026-04-19T11:56:41.002Z</time></trkpt><trkpt lat="43.40368885420392" lon="10.717066447423148"><ele>481.0</ele><time>2026-04-19T11:56:44.002Z</time></trkpt><trkpt lat="43.403649307458195" lon="10.716995148240013"><ele>480.5</ele><time>2026-04-19T11:56:47.002Z</time></trkpt><trkpt lat="43.40360798495124" lon="10.716902475949658"><ele>480.0</ele><time>2026-04-19T11:56:51.002Z</time></trkpt><trkpt lat="43.403557322126666" lon="10.716779003194464"><ele>479.49999999999994</ele><time>2026-04-19T11:56:54.002Z</time></trkpt><trkpt lat="43.403511202667914" lon="10.716664499717668"><ele>479.0</ele><time>2026-04-19T11:56:56.002Z</time></trkpt><trkpt lat="43.40346770450162" lon="10.716573688243022"><ele>481.16666666666663</ele><time>2026-04-19T11:56:58.002Z</time></trkpt><trkpt lat="43.40342906076051" lon="10.716497112379166"><ele>483.3333333333333</ele><time>2026-04-19T11:57:00.002Z</time></trkpt><trkpt lat="43.40338739885048" lon="10.716404496572629"><ele>485.5</ele><time>2026-04-19T11:57:03.002Z</time></trkpt><trkpt lat="43.403353964001965" lon="10.716298587241383"><ele>487.66666666666663</ele><time>2026-04-19T11:57:06.002Z</time></trkpt><trkpt lat="43.40333953610488" lon="10.716202941905115"><ele>489.8333333333333</ele><time>2026-04-19T11:57:08.002Z</time></trkpt><trkpt lat="43.40332922452008" lon="10.71610414951749"><ele>492.0</ele><time>2026-04-19T11:57:10.001Z</time></trkpt><trkpt lat="43.403312565388234" lon="10.716000609424329"><ele>494.5</ele><time>2026-04-19T11:57:12.001Z</time></trkpt><trkpt lat="43.403291122143315" lon="10.715910904550697"><ele>497.0</ele><time>2026-04-19T11:57:14.001Z</time></trkpt><trkpt lat="43.403258101421905" lon="10.715807075865408"><ele>499.5</ele><time>2026-04-19T11:57:16.001Z</time></trkpt><trkpt lat="43.40322351998158" lon="10.715718058352804"><ele>502.0</ele><time>2026-04-19T11:57:18.001Z</time></trkpt><trkpt lat="43.40318687375274" lon="10.715626724505228"><ele>504.5</ele><time>2026-04-19T11:57:20.001Z</time></trkpt><trkpt lat="43.40316298360812" lon="10.715533631620131"><ele>507.0</ele><time>2026-04-19T11:57:22.001Z</time></trkpt><trkpt lat="43.40314533012671" lon="10.715427362350127"><ele>507.0</ele><time>2026-04-19T11:57:24.001Z</time></trkpt><trkpt lat="43.40314383238865" lon="10.715330539826892"><ele>507.0</ele><time>2026-04-19T11:57:26.001Z</time></trkpt><trkpt lat="43.403150022477014" lon="10.715200409105956"><ele>507.0</ele><time>2026-04-19T11:57:29.001Z</time></trkpt><trkpt lat="43.40316386446481" lon="10.715108654259698"><ele>507.0</ele><time>2026-04-19T11:57:31.001Z</time></trkpt><trkpt lat="43.403180554338604" lon="10.715007448892969"><ele>507.0</ele><time>2026-04-19T11:57:33.001Z</time></trkpt><trkpt lat="43.403185042031296" lon="10.714899823471582"><ele>507.0</ele><time>2026-04-19T11:57:35.001Z</time></trkpt><trkpt lat="43.40318875944777" lon="10.71480349261801"><ele>509.0</ele><time>2026-04-19T11:57:37.001Z</time></trkpt><trkpt lat="43.40318480198413" lon="10.714704613998908"><ele>511.0</ele><time>2026-04-19T11:57:39.001Z</time></trkpt><trkpt lat="43.40317623573774" lon="10.714610625536638"><ele>513.0</ele><time>2026-04-19T11:57:41.001Z</time></trkpt><trkpt lat="43.40315793439552" lon="10.71449499469955"><ele>515.0</ele><time>2026-04-19T11:57:43.001Z</time></trkpt><trkpt lat="43.40313796408951" lon="10.714361680126068"><ele>517.0</ele><time>2026-04-19T11:57:45.001Z</time></trkpt><trkpt lat="43.40310242642137" lon="10.714248694500533"><ele>519.0</ele><time>2026-04-19T11:57:47.001Z</time></trkpt><trkpt lat="43.403052553214046" lon="10.714082830778683"><ele>518.0</ele><time>2026-04-19T11:57:49.001Z</time></trkpt><trkpt lat="43.40306424617873" lon="10.713961455034783"><ele>517.0</ele><time>2026-04-19T11:57:50.001Z</time></trkpt><trkpt lat="43.40302673540176" lon="10.713866628280563"><ele>516.0</ele><time>2026-04-19T11:57:51.001Z</time></trkpt><trkpt lat="43.402990408409906" lon="10.713777614298833"><ele>515.0</ele><time>2026-04-19T11:57:52.001Z</time></trkpt><trkpt lat="43.40295582978045" lon="10.713693241049949"><ele>514.0</ele><time>2026-04-19T11:57:53.001Z</time></trkpt><trkpt lat="43.40292246052343" lon="10.713611818574373"><ele>513.0</ele><time>2026-04-19T11:57:54.001Z</time></trkpt><trkpt lat="43.40289214699111" lon="10.71352918321042"><ele>512.0</ele><time>2026-04-19T11:57:55.001Z</time></trkpt><trkpt lat="43.40286199939907" lon="10.713447466281348"><ele>514.0</ele><time>2026-04-19T11:57:56.001Z</time></trkpt><trkpt lat="43.402834019848356" lon="10.71336927820952"><ele>516.0</ele><time>2026-04-19T11:57:57.001Z</time></trkpt><trkpt lat="43.402804727707206" lon="10.713287138840963"><ele>518.0</ele><time>2026-04-19T11:57:58.001Z</time></trkpt><trkpt lat="43.40277351770819" lon="10.713199621626973"><ele>520.0</ele><time>2026-04-19T11:57:59.001Z</time></trkpt><trkpt lat="43.40274261974279" lon="10.713113329692614"><ele>522.0</ele><time>2026-04-19T11:58:00.001Z</time></trkpt><trkpt lat="43.40271074946368" lon="10.713025043427537"><ele>524.0</ele><time>2026-04-19T11:58:01.001Z</time></trkpt><trkpt lat="43.40268439760694" lon="10.712933556602064"><ele>526.0</ele><time>2026-04-19T11:58:02.001Z</time></trkpt><trkpt lat="43.40265478251035" lon="10.712851682615208"><ele>526.0</ele><time>2026-04-19T11:58:03.001Z</time></trkpt><trkpt lat="43.402616391195096" lon="10.712779680593934"><ele>526.0</ele><time>2026-04-19T11:58:04.001Z</time></trkpt><trkpt lat="43.4025828029037" lon="10.712701951468537"><ele>526.0</ele><time>2026-04-19T11:58:05.001Z</time></trkpt><trkpt lat="43.40249360815087" lon="10.712571541368998"><ele>526.0</ele><time>2026-04-19T11:58:07.001Z</time></trkpt><trkpt lat="43.40245557621259" lon="10.712483278454021"><ele>526.0</ele><time>2026-04-19T11:58:08.001Z</time></trkpt><trkpt lat="43.40239871959495" lon="10.712405598581281"><ele>526.0</ele><time>2026-04-19T11:58:09.001Z</time></trkpt><trkpt lat="43.40233540501054" lon="10.712340192206126"><ele>528.6666666666667</ele><time>2026-04-19T11:58:10.001Z</time></trkpt><trkpt lat="43.402250920507676" lon="10.712296161550237"><ele>531.3333333333334</ele><time>2026-04-19T11:58:11.001Z</time></trkpt><trkpt lat="43.40216779388154" lon="10.712287736599132"><ele>534.0</ele><time>2026-04-19T11:58:12.001Z</time></trkpt><trkpt lat="43.40209046074061" lon="10.712307886505057"><ele>536.6666666666666</ele><time>2026-04-19T11:58:13.001Z</time></trkpt><trkpt lat="43.402020370646405" lon="10.71228102974801"><ele>539.3333333333333</ele><time>2026-04-19T11:58:14.001Z</time></trkpt><trkpt lat="43.40191043607873" lon="10.71226449706481"><ele>542.0</ele><time>2026-04-19T11:58:16.001Z</time></trkpt><trkpt lat="43.40182493979119" lon="10.712249856084533"><ele>542.1666666666666</ele><time>2026-04-19T11:58:18.001Z</time></trkpt><trkpt lat="43.401724554857296" lon="10.712232372971744"><ele>542.3333333333333</ele><time>2026-04-19T11:58:20.001Z</time></trkpt><trkpt lat="43.401600502573935" lon="10.712210767913097"><ele>542.5</ele><time>2026-04-19T11:58:22.001Z</time></trkpt><trkpt lat="43.40153193016852" lon="10.712222635263755"><ele>542.6666666666666</ele><time>2026-04-19T11:58:23.001Z</time></trkpt><trkpt lat="43.401461349817424" lon="10.712214958708987"><ele>542.8333333333334</ele><time>2026-04-19T11:58:24.001Z</time></trkpt><trkpt lat="43.40139112134448" lon="10.71220532719512"><ele>543.0</ele><time>2026-04-19T11:58:25.001Z</time></trkpt><trkpt lat="43.40132225202673" lon="10.712178797287612"><ele>543.0</ele><time>2026-04-19T11:58:26.001Z</time></trkpt><trkpt lat="43.401254691501634" lon="10.712193591165768"><ele>543.0</ele><time>2026-04-19T11:58:27.001Z</time></trkpt><trkpt lat="43.40118895142652" lon="10.71218873979757"><ele>543.0</ele><time>2026-04-19T11:58:28.001Z</time></trkpt><trkpt lat="43.40107069398227" lon="10.712192151243563"><ele>543.0</ele><time>2026-04-19T11:58:30.001Z</time></trkpt><trkpt lat="43.400964819158624" lon="10.712216005540865"><ele>543.0</ele><time>2026-04-19T11:58:32.001Z</time></trkpt><trkpt lat="43.40084798721641" lon="10.71224353635379"><ele>543.0</ele><time>2026-04-19T11:58:34.001Z</time></trkpt><trkpt lat="43.4007847732004" lon="10.712267398881739"><ele>543.0</ele><time>2026-04-19T11:58:35.001Z</time></trkpt><trkpt lat="43.400711159109896" lon="10.712301330244173"><ele>543.0</ele><time>2026-04-19T11:58:36.001Z</time></trkpt><trkpt lat="43.400636935438754" lon="10.71233933331886"><ele>543.0</ele><time>2026-04-19T11:58:37.001Z</time></trkpt><trkpt lat="43.4005615600201" lon="10.712380252486017"><ele>543.0</ele><time>2026-04-19T11:58:38.001Z</time></trkpt><trkpt lat="43.40048693412742" lon="10.712421035495604"><ele>543.0</ele><time>2026-04-19T11:58:39.001Z</time></trkpt><trkpt lat="43.40041883741463" lon="10.712467496451449"><ele>543.0</ele><time>2026-04-19T11:58:40.001Z</time></trkpt><trkpt lat="43.40035119447622" lon="10.71250985156456"><ele>543.0</ele><time>2026-04-19T11:58:41.001Z</time></trkpt><trkpt lat="43.40028624958712" lon="10.71255289253497"><ele>543.0</ele><time>2026-04-19T11:58:42.001Z</time></trkpt><trkpt lat="43.40021685653301" lon="10.712563377263352"><ele>543.0</ele><time>2026-04-19T11:58:43.001Z</time></trkpt><trkpt lat="43.400154728485994" lon="10.712585239521673"><ele>543.0</ele><time>2026-04-19T11:58:44.001Z</time></trkpt><trkpt lat="43.400033649596715" lon="10.712638582433167"><ele>543.0</ele><time>2026-04-19T11:58:46.001Z</time></trkpt><trkpt lat="43.39997491921081" lon="10.712669919451612"><ele>543.0</ele><time>2026-04-19T11:58:47.001Z</time></trkpt><trkpt lat="43.39991080978344" lon="10.712716295184684"><ele>543.0</ele><time>2026-04-19T11:58:48.001Z</time></trkpt><trkpt lat="43.399843151631046" lon="10.71275818967549"><ele>543.0</ele><time>2026-04-19T11:58:49.001Z</time></trkpt><trkpt lat="43.3997771039829" lon="10.712796754963458"><ele>543.0</ele><time>2026-04-19T11:58:50.001Z</time></trkpt><trkpt lat="43.39971169895241" lon="10.712830195961763"><ele>543.0</ele><time>2026-04-19T11:58:51.001Z</time></trkpt><trkpt lat="43.39964732430139" lon="10.712855021795265"><ele>543.0</ele><time>2026-04-19T11:58:52.001Z</time></trkpt><trkpt lat="43.39958263723385" lon="10.712849745756271"><ele>543.0</ele><time>2026-04-19T11:58:53.001Z</time></trkpt><trkpt lat="43.39947783995056" lon="10.712907405076939"><ele>543.8333333333334</ele><time>2026-04-19T11:58:55.001Z</time></trkpt><trkpt lat="43.399395303795394" lon="10.713018525280338"><ele>544.6666666666666</ele><time>2026-04-19T11:58:57.001Z</time></trkpt><trkpt lat="43.39936508131301" lon="10.71309646983811"><ele>545.5</ele><time>2026-04-19T11:58:58.001Z</time></trkpt><trkpt lat="43.399323622805795" lon="10.713165909729089"><ele>546.3333333333333</ele><time>2026-04-19T11:58:59.001Z</time></trkpt><trkpt lat="43.399289895391114" lon="10.713240520240985"><ele>547.1666666666666</ele><time>2026-04-19T11:59:00.001Z</time></trkpt><trkpt lat="43.39919663945073" lon="10.713348971512604"><ele>548.0</ele><time>2026-04-19T11:59:02.001Z</time></trkpt><trkpt lat="43.399145314631504" lon="10.713399594707662"><ele>548.0</ele><time>2026-04-19T11:59:03.001Z</time></trkpt><trkpt lat="43.399092870255785" lon="10.713450822113975"><ele>548.0</ele><time>2026-04-19T11:59:04.001Z</time></trkpt><trkpt lat="43.399000169188234" lon="10.71353370275669"><ele>548.0</ele><time>2026-04-19T11:59:06.001Z</time></trkpt><trkpt lat="43.39889279937344" lon="10.713625201719944"><ele>548.0</ele><time>2026-04-19T11:59:08.001Z</time></trkpt><trkpt lat="43.39883244121858" lon="10.713673424117337"><ele>548.0</ele><time>2026-04-19T11:59:09.001Z</time></trkpt><trkpt lat="43.39877155830372" lon="10.713723426095283"><ele>548.0</ele><time>2026-04-19T11:59:10.001Z</time></trkpt><trkpt lat="43.39871294232884" lon="10.71378052186386"><ele>549.5714285714287</ele><time>2026-04-19T11:59:11.001Z</time></trkpt><trkpt lat="43.39865894065716" lon="10.713846994594393"><ele>551.1428571428571</ele><time>2026-04-19T11:59:12.001Z</time></trkpt><trkpt lat="43.39860929189189" lon="10.71392955676757"><ele>552.7142857142858</ele><time>2026-04-19T11:59:13.002Z</time></trkpt><trkpt lat="43.39856745355354" lon="10.714015314988098"><ele>554.2857142857143</ele><time>2026-04-19T11:59:14.002Z</time></trkpt><trkpt lat="43.39853155802622" lon="10.714095091271577"><ele>555.8571428571429</ele><time>2026-04-19T11:59:15.002Z</time></trkpt><trkpt lat="43.39849743945423" lon="10.714170918594043"><ele>557.4285714285714</ele><time>2026-04-19T11:59:16.001Z</time></trkpt><trkpt lat="43.39846240716563" lon="10.714245074811686"><ele>559.0</ele><time>2026-04-19T11:59:17.001Z</time></trkpt><trkpt lat="43.39842439447647" lon="10.714317614201004"><ele>555.8</ele><time>2026-04-19T11:59:18.001Z</time></trkpt><trkpt lat="43.39833648849474" lon="10.714420686573826"><ele>552.5999999999999</ele><time>2026-04-19T11:59:20.001Z</time></trkpt><trkpt lat="43.3982159772359" lon="10.714503721862114"><ele>549.4</ele><time>2026-04-19T11:59:22.001Z</time></trkpt><trkpt lat="43.398157167683074" lon="10.714553090680413"><ele>546.1999999999999</ele><time>2026-04-19T11:59:23.001Z</time></trkpt><trkpt lat="43.39810459623046" lon="10.714612275749358"><ele>543.0</ele><time>2026-04-19T11:59:24.001Z</time></trkpt><trkpt lat="43.398013859047204" lon="10.714723043450217"><ele>544.8333333333334</ele><time>2026-04-19T11:59:26.001Z</time></trkpt><trkpt lat="43.39792698789836" lon="10.714820912356119"><ele>546.6666666666666</ele><time>2026-04-19T11:59:28.001Z</time></trkpt><trkpt lat="43.397869739820344" lon="10.71485772156087"><ele>548.5</ele><time>2026-04-19T11:59:29.001Z</time></trkpt><trkpt lat="43.39781460693826" lon="10.714910443028456"><ele>550.3333333333333</ele><time>2026-04-19T11:59:30.001Z</time></trkpt><trkpt lat="43.39774588164423" lon="10.714912002660588"><ele>552.1666666666666</ele><time>2026-04-19T11:59:31.001Z</time></trkpt><trkpt lat="43.39768117498806" lon="10.714871950754178"><ele>554.0</ele><time>2026-04-19T11:59:32.001Z</time></trkpt><trkpt lat="43.39761306191383" lon="10.714867702318786"><ele>554.0</ele><time>2026-04-19T11:59:33.001Z</time></trkpt><trkpt lat="43.39754344113723" lon="10.714877296547877"><ele>554.0</ele><time>2026-04-19T11:59:34.001Z</time></trkpt><trkpt lat="43.39747188232922" lon="10.714901820471571"><ele>554.0</ele><time>2026-04-19T11:59:35.001Z</time></trkpt><trkpt lat="43.39740115886029" lon="10.714959225457983"><ele>554.0</ele><time>2026-04-19T11:59:36.001Z</time></trkpt><trkpt lat="43.39733620665299" lon="10.714997361309107"><ele>554.0</ele><time>2026-04-19T11:59:37.001Z</time></trkpt><trkpt lat="43.39727637857617" lon="10.71504934804414"><ele>554.0</ele><time>2026-04-19T11:59:38.001Z</time></trkpt><trkpt lat="43.39720586824127" lon="10.715068753400079"><ele>554.0</ele><time>2026-04-19T11:59:39.001Z</time></trkpt><trkpt lat="43.39714442013416" lon="10.715102411157178"><ele>554.0</ele><time>2026-04-19T11:59:40.001Z</time></trkpt><trkpt lat="43.39702726149286" lon="10.715154913742058"><ele>554.0</ele><time>2026-04-19T11:59:42.001Z</time></trkpt><trkpt lat="43.396915963636" lon="10.71517922423529"><ele>554.0</ele><time>2026-04-19T11:59:44.001Z</time></trkpt><trkpt lat="43.39679110192188" lon="10.715136883198973"><ele>554.0</ele><time>2026-04-19T11:59:46.001Z</time></trkpt><trkpt lat="43.39672847244644" lon="10.715093703316738"><ele>554.0</ele><time>2026-04-19T11:59:47.001Z</time></trkpt><trkpt lat="43.39665798386324" lon="10.715061159204224"><ele>554.0</ele><time>2026-04-19T11:59:48.001Z</time></trkpt><trkpt lat="43.39661067741837" lon="10.714983508230178"><ele>554.0</ele><time>2026-04-19T11:59:49.001Z</time></trkpt><trkpt lat="43.39655475345909" lon="10.714919986173582"><ele>554.0</ele><time>2026-04-19T11:59:50.001Z</time></trkpt><trkpt lat="43.396501592727056" lon="10.714852239168815"><ele>554.0</ele><time>2026-04-19T11:59:51.001Z</time></trkpt><trkpt lat="43.396446044719205" lon="10.71478172493023"><ele>554.0</ele><time>2026-04-19T11:59:52.001Z</time></trkpt><trkpt lat="43.39638225622579" lon="10.714725606852685"><ele>554.0</ele><time>2026-04-19T11:59:53.001Z</time></trkpt><trkpt lat="43.39632164273265" lon="10.714663483230062"><ele>554.0</ele><time>2026-04-19T11:59:54.001Z</time></trkpt><trkpt lat="43.396262231119785" lon="10.7146029786756"><ele>554.4285714285714</ele><time>2026-04-19T11:59:55.001Z</time></trkpt><trkpt lat="43.396201921710535" lon="10.714550442600357"><ele>554.8571428571428</ele><time>2026-04-19T11:59:56.001Z</time></trkpt><trkpt lat="43.396140798208364" lon="10.714505370949446"><ele>555.2857142857142</ele><time>2026-04-19T11:59:57.001Z</time></trkpt><trkpt lat="43.39608353222598" lon="10.714465602160843"><ele>555.7142857142857</ele><time>2026-04-19T11:59:58.001Z</time></trkpt><trkpt lat="43.396026070033855" lon="10.714427697157902"><ele>556.1428571428571</ele><time>2026-04-19T11:59:59.001Z</time></trkpt><trkpt lat="43.39596424456539" lon="10.714390667857185"><ele>556.5714285714286</ele><time>2026-04-19T12:00:00.001Z</time></trkpt><trkpt lat="43.395898220157115" lon="10.714363498171803"><ele>557.0</ele><time>2026-04-19T12:00:01.001Z</time></trkpt><trkpt lat="43.39583099906484" lon="10.714340967472282"><ele>557.0</ele><time>2026-04-19T12:00:02.001Z</time></trkpt><trkpt lat="43.39576888725578" lon="10.714306825848206"><ele>557.0</ele><time>2026-04-19T12:00:03.001Z</time></trkpt><trkpt lat="43.39570852929512" lon="10.714272807490282"><ele>557.0</ele><time>2026-04-19T12:00:04.001Z</time></trkpt><trkpt lat="43.39559200460656" lon="10.714229303029393"><ele>557.0</ele><time>2026-04-19T12:00:06.001Z</time></trkpt><trkpt lat="43.39547579492895" lon="10.71418947396603"><ele>557.0</ele><time>2026-04-19T12:00:08.001Z</time></trkpt><trkpt lat="43.3953589854738" lon="10.714124244833991"><ele>556.5714285714286</ele><time>2026-04-19T12:00:10.001Z</time></trkpt><trkpt lat="43.39529603540821" lon="10.714100716172696"><ele>556.1428571428571</ele><time>2026-04-19T12:00:11.001Z</time></trkpt><trkpt lat="43.39523240338607" lon="10.714076932722023"><ele>555.7142857142857</ele><time>2026-04-19T12:00:12.001Z</time></trkpt><trkpt lat="43.395164395319725" lon="10.714074786004776"><ele>555.2857142857142</ele><time>2026-04-19T12:00:13.001Z</time></trkpt><trkpt lat="43.39510355853824" lon="10.714030296449863"><ele>554.8571428571428</ele><time>2026-04-19T12:00:14.001Z</time></trkpt><trkpt lat="43.39503416882229" lon="10.714028690501891"><ele>554.4285714285714</ele><time>2026-04-19T12:00:15.001Z</time></trkpt><trkpt lat="43.39496998329903" lon="10.71400660067392"><ele>554.0</ele><time>2026-04-19T12:00:16.001Z</time></trkpt><trkpt lat="43.39490883655414" lon="10.71396453452145"><ele>554.0</ele><time>2026-04-19T12:00:17.001Z</time></trkpt><trkpt lat="43.394803108495076" lon="10.713924187622942"><ele>554.0</ele><time>2026-04-19T12:00:19.001Z</time></trkpt><trkpt lat="43.394715793384705" lon="10.713905929589487"><ele>554.0</ele><time>2026-04-19T12:00:21.001Z</time></trkpt><trkpt lat="43.39465435116815" lon="10.713845491836643"><ele>554.0</ele><time>2026-04-19T12:00:24.001Z</time></trkpt><trkpt lat="43.39457263945371" lon="10.714018297276573"><ele>554.0</ele><time>2026-04-19T12:00:26.001Z</time></trkpt><trkpt lat="43.39454134800649" lon="10.71416112281021"><ele>553.5</ele><time>2026-04-19T12:00:28.001Z</time></trkpt><trkpt lat="43.39450098478548" lon="10.714317281544982"><ele>553.0</ele><time>2026-04-19T12:00:30.001Z</time></trkpt><trkpt lat="43.39445711120134" lon="10.714476770015786"><ele>552.5</ele><time>2026-04-19T12:00:32.001Z</time></trkpt><trkpt lat="43.39443503995773" lon="10.714560456613901"><ele>552.0</ele><time>2026-04-19T12:00:33.001Z</time></trkpt><trkpt lat="43.39441314633661" lon="10.714648659234015"><ele>551.5</ele><time>2026-04-19T12:00:34.001Z</time></trkpt><trkpt lat="43.39439086548076" lon="10.714742151360745"><ele>551.0</ele><time>2026-04-19T12:00:35.001Z</time></trkpt><trkpt lat="43.39436781171251" lon="10.714837097578187"><ele>550.9999999999999</ele><time>2026-04-19T12:00:36.001Z</time></trkpt><trkpt lat="43.394342986161305" lon="10.714931102480877"><ele>551.0</ele><time>2026-04-19T12:00:37.001Z</time></trkpt><trkpt lat="43.39431083805097" lon="10.715021818277965"><ele>551.0</ele><time>2026-04-19T12:00:38.001Z</time></trkpt><trkpt lat="43.394271483043404" lon="10.715103923990501"><ele>551.0</ele><time>2026-04-19T12:00:39.001Z</time></trkpt><trkpt lat="43.39422494753509" lon="10.715181877421152"><ele>551.0</ele><time>2026-04-19T12:00:40.001Z</time></trkpt><trkpt lat="43.39417127558127" lon="10.715254756113097"><ele>550.9999999999999</ele><time>2026-04-19T12:00:41.001Z</time></trkpt><trkpt lat="43.394101038038464" lon="10.715305847189532"><ele>551.0</ele><time>2026-04-19T12:00:42.001Z</time></trkpt><trkpt lat="43.394039710852695" lon="10.715373210702074"><ele>551.1666666666666</ele><time>2026-04-19T12:00:43.001Z</time></trkpt><trkpt lat="43.393989282366356" lon="10.715454861248203"><ele>551.3333333333333</ele><time>2026-04-19T12:00:44.001Z</time></trkpt><trkpt lat="43.39392744390584" lon="10.715519503275283"><ele>551.5</ele><time>2026-04-19T12:00:45.001Z</time></trkpt><trkpt lat="43.393865384973935" lon="10.715584927039783"><ele>551.6666666666666</ele><time>2026-04-19T12:00:46.001Z</time></trkpt><trkpt lat="43.39380448907808" lon="10.715645384386972"><ele>551.8333333333334</ele><time>2026-04-19T12:00:47.001Z</time></trkpt><trkpt lat="43.39374583948903" lon="10.715705149815886"><ele>552.0</ele><time>2026-04-19T12:00:48.001Z</time></trkpt><trkpt lat="43.39369060431453" lon="10.715768708837231"><ele>552.8333333333334</ele><time>2026-04-19T12:00:49.001Z</time></trkpt><trkpt lat="43.39363920412717" lon="10.715842476151625"><ele>553.6666666666666</ele><time>2026-04-19T12:00:50.001Z</time></trkpt><trkpt lat="43.39359052298763" lon="10.715919975204125"><ele>554.5</ele><time>2026-04-19T12:00:51.001Z</time></trkpt><trkpt lat="43.393549359059065" lon="10.716007082052304"><ele>555.3333333333333</ele><time>2026-04-19T12:00:52.001Z</time></trkpt><trkpt lat="43.39351416128341" lon="10.716098551359917"><ele>556.1666666666666</ele><time>2026-04-19T12:00:53.001Z</time></trkpt><trkpt lat="43.3934842613544" lon="10.716195142657213"><ele>557.0</ele><time>2026-04-19T12:00:54.001Z</time></trkpt><trkpt lat="43.39346221873213" lon="10.716296617427977"><ele>557.1666666666666</ele><time>2026-04-19T12:00:55.001Z</time></trkpt><trkpt lat="43.39344825363493" lon="10.716399947545817"><ele>557.3333333333333</ele><time>2026-04-19T12:00:56.001Z</time></trkpt><trkpt lat="43.393434707466994" lon="10.7165052072528"><ele>557.5</ele><time>2026-04-19T12:00:57.001Z</time></trkpt><trkpt lat="43.39342451052826" lon="10.716609635024149"><ele>557.6666666666666</ele><time>2026-04-19T12:00:58.001Z</time></trkpt><trkpt lat="43.39341753686959" lon="10.71671810372808"><ele>557.8333333333334</ele><time>2026-04-19T12:00:59.001Z</time></trkpt><trkpt lat="43.39341120775539" lon="10.716828827035293"><ele>558.0</ele><time>2026-04-19T12:01:00.001Z</time></trkpt><trkpt lat="43.39340345030921" lon="10.71694025418808"><ele>558.0</ele><time>2026-04-19T12:01:01.001Z</time></trkpt><trkpt lat="43.39338929826852" lon="10.71705300425933"><ele>558.0</ele><time>2026-04-19T12:01:02.001Z</time></trkpt><trkpt lat="43.39337211024883" lon="10.717164116262355"><ele>558.0</ele><time>2026-04-19T12:01:03.001Z</time></trkpt><trkpt lat="43.39335400026206" lon="10.717272448037315"><ele>558.0</ele><time>2026-04-19T12:01:04.001Z</time></trkpt><trkpt lat="43.39333661858208" lon="10.717376294361133"><ele>558.0</ele><time>2026-04-19T12:01:05.001Z</time></trkpt><trkpt lat="43.3933173422752" lon="10.717475277413559"><ele>558.0</ele><time>2026-04-19T12:01:06.001Z</time></trkpt><trkpt lat="43.393297693338276" lon="10.717571263459323"><ele>557.9999999999999</ele><time>2026-04-19T12:01:07.001Z</time></trkpt><trkpt lat="43.3932776109839" lon="10.717661947373916"><ele>558.0</ele><time>2026-04-19T12:01:08.001Z</time></trkpt><trkpt lat="43.39325652386819" lon="10.717751648627818"><ele>558.0</ele><time>2026-04-19T12:01:09.001Z</time></trkpt><trkpt lat="43.39323134131857" lon="10.717843594006558"><ele>558.0</ele><time>2026-04-19T12:01:10.001Z</time></trkpt><trkpt lat="43.39320426504669" lon="10.717933687782237"><ele>558.0</ele><time>2026-04-19T12:01:11.001Z</time></trkpt><trkpt lat="43.393175793617104" lon="10.71802283060688"><ele>557.9999999999999</ele><time>2026-04-19T12:01:12.001Z</time></trkpt><trkpt lat="43.39314847719857" lon="10.718108027784421"><ele>558.0</ele><time>2026-04-19T12:01:13.001Z</time></trkpt><trkpt lat="43.39312147737118" lon="10.718194393696065"><ele>557.9999999999999</ele><time>2026-04-19T12:01:14.001Z</time></trkpt><trkpt lat="43.393093238745905" lon="10.718280258751026"><ele>558.0</ele><time>2026-04-19T12:01:15.001Z</time></trkpt><trkpt lat="43.39306160050883" lon="10.71836762616987"><ele>558.0</ele><time>2026-04-19T12:01:16.001Z</time></trkpt><trkpt lat="43.39302983040044" lon="10.718454948568983"><ele>558.0</ele><time>2026-04-19T12:01:17.001Z</time></trkpt><trkpt lat="43.39299718441409" lon="10.718544076478418"><ele>558.0</ele><time>2026-04-19T12:01:18.001Z</time></trkpt><trkpt lat="43.39296312227868" lon="10.718633808844942"><ele>557.9999999999999</ele><time>2026-04-19T12:01:19.001Z</time></trkpt><trkpt lat="43.39292876432804" lon="10.718720861028315"><ele>558.0</ele><time>2026-04-19T12:01:20.001Z</time></trkpt><trkpt lat="43.39289681401215" lon="10.718801646597525"><ele>556.9999999999999</ele><time>2026-04-19T12:01:21.001Z</time></trkpt><trkpt lat="43.392865032725695" lon="10.718883830509567"><ele>556.0</ele><time>2026-04-19T12:01:22Z</time></trkpt><trkpt lat="43.39283019335748" lon="10.7189688129108"><ele>555.0</ele><time>2026-04-19T12:01:23Z</time></trkpt><trkpt lat="43.392794074403305" lon="10.719055791769268"><ele>554.0</ele><time>2026-04-19T12:01:24Z</time></trkpt><trkpt lat="43.39275682767303" lon="10.719141611319836"><ele>553.0</ele><time>2026-04-19T12:01:25Z</time></trkpt><trkpt lat="43.392717704498516" lon="10.7192250542437"><ele>551.9999999999999</ele><time>2026-04-19T12:01:26Z</time></trkpt><trkpt lat="43.392677287565306" lon="10.719303874197871"><ele>551.0</ele><time>2026-04-19T12:01:27Z</time></trkpt><trkpt lat="43.392634076101366" lon="10.719380956946255"><ele>549.9999999999999</ele><time>2026-04-19T12:01:28Z</time></trkpt><trkpt lat="43.392588281541954" lon="10.719458250957342"><ele>549.0</ele><time>2026-04-19T12:01:29Z</time></trkpt><trkpt lat="43.39254085247761" lon="10.719533535550463"><ele>548.0</ele><time>2026-04-19T12:01:30Z</time></trkpt><trkpt lat="43.39249324390245" lon="10.719608799974194"><ele>547.0</ele><time>2026-04-19T12:01:31Z</time></trkpt><trkpt lat="43.39244642074356" lon="10.719683868648112"><ele>546.0</ele><time>2026-04-19T12:01:32Z</time></trkpt><trkpt lat="43.39239977592203" lon="10.71975822527406"><ele>544.9999999999999</ele><time>2026-04-19T12:01:33Z</time></trkpt><trkpt lat="43.392350095707414" lon="10.719833276377443"><ele>544.0</ele><time>2026-04-19T12:01:34Z</time></trkpt><trkpt lat="43.39229968657143" lon="10.719910262138633"><ele>544.0</ele><time>2026-04-19T12:01:35Z</time></trkpt><trkpt lat="43.39225362804116" lon="10.71999681129298"><ele>544.0</ele><time>2026-04-19T12:01:36Z</time></trkpt><trkpt lat="43.39221384469121" lon="10.720093061379776"><ele>544.0</ele><time>2026-04-19T12:01:37Z</time></trkpt><trkpt lat="43.392177744329985" lon="10.720192530925956"><ele>544.0</ele><time>2026-04-19T12:01:38Z</time></trkpt><trkpt lat="43.39214450903649" lon="10.720295358125249"><ele>544.0</ele><time>2026-04-19T12:01:39Z</time></trkpt><trkpt lat="43.392112626539245" lon="10.720401474482463"><ele>544.0</ele><time>2026-04-19T12:01:40Z</time></trkpt><trkpt lat="43.39207942079613" lon="10.720505310354303"><ele>541.5</ele><time>2026-04-19T12:01:41Z</time></trkpt><trkpt lat="43.39204627495135" lon="10.720609186504374"><ele>539.0</ele><time>2026-04-19T12:01:42Z</time></trkpt><trkpt lat="43.39201488652249" lon="10.720710930869268"><ele>536.5</ele><time>2026-04-19T12:01:43Z</time></trkpt><trkpt lat="43.391984576421905" lon="10.720810498531076"><ele>534.0</ele><time>2026-04-19T12:01:44Z</time></trkpt><trkpt lat="43.391954771639796" lon="10.720910431432667"><ele>531.5</ele><time>2026-04-19T12:01:45Z</time></trkpt><trkpt lat="43.39192433378633" lon="10.721008651271879"><ele>529.0</ele><time>2026-04-19T12:01:46Z</time></trkpt><trkpt lat="43.39189497112188" lon="10.721105617722507"><ele>528.8571428571429</ele><time>2026-04-19T12:01:47Z</time></trkpt><trkpt lat="43.39186795113983" lon="10.721202376645266"><ele>528.7142857142857</ele><time>2026-04-19T12:01:48Z</time></trkpt><trkpt lat="43.39184171446121" lon="10.721298894641563"><ele>528.5714285714286</ele><time>2026-04-19T12:01:49Z</time></trkpt><trkpt lat="43.391817228713045" lon="10.721394563257183"><ele>528.4285714285714</ele><time>2026-04-19T12:01:50Z</time></trkpt><trkpt lat="43.391803591250465" lon="10.721491237266862"><ele>528.2857142857143</ele><time>2026-04-19T12:01:51Z</time></trkpt><trkpt lat="43.39180126397012" lon="10.721590059698807"><ele>528.1428571428571</ele><time>2026-04-19T12:01:52Z</time></trkpt><trkpt lat="43.39181040905348" lon="10.721689477140334"><ele>528.0</ele><time>2026-04-19T12:01:53Z</time></trkpt><trkpt lat="43.391821106005686" lon="10.721787195869906"><ele>528.0</ele><time>2026-04-19T12:01:54Z</time></trkpt><trkpt lat="43.39183426854058" lon="10.721883039397643"><ele>528.0</ele><time>2026-04-19T12:01:55Z</time></trkpt><trkpt lat="43.391849919292" lon="10.721977987702713"><ele>528.0</ele><time>2026-04-19T12:01:56Z</time></trkpt><trkpt lat="43.391866533024945" lon="10.722074503308711"><ele>528.0</ele><time>2026-04-19T12:01:57Z</time></trkpt><trkpt lat="43.39188225336542" lon="10.722172338652369"><ele>528.0</ele><time>2026-04-19T12:01:58Z</time></trkpt><trkpt lat="43.391897056020134" lon="10.72227686886408"><ele>528.0</ele><time>2026-04-19T12:01:59Z</time></trkpt><trkpt lat="43.39191166884175" lon="10.72238251295186"><ele>528.0</ele><time>2026-04-19T12:02:00Z</time></trkpt><trkpt lat="43.39192925928305" lon="10.722488682504476"><ele>527.3333333333334</ele><time>2026-04-19T12:02:01Z</time></trkpt><trkpt lat="43.391949878355426" lon="10.722599521170395"><ele>526.6666666666666</ele><time>2026-04-19T12:02:02Z</time></trkpt><trkpt lat="43.39196799216211" lon="10.722709935105273"><ele>526.0</ele><time>2026-04-19T12:02:03Z</time></trkpt><trkpt lat="43.39198571492531" lon="10.722823359808746"><ele>525.3333333333333</ele><time>2026-04-19T12:02:04Z</time></trkpt><trkpt lat="43.39200301801012" lon="10.722935147938719"><ele>524.6666666666666</ele><time>2026-04-19T12:02:05Z</time></trkpt><trkpt lat="43.392024666049544" lon="10.723045953225693"><ele>524.0</ele><time>2026-04-19T12:02:06.001Z</time></trkpt><trkpt lat="43.39205704900531" lon="10.7231478731854"><ele>523.0</ele><time>2026-04-19T12:02:07.001Z</time></trkpt><trkpt lat="43.39209741406954" lon="10.723241570709742"><ele>522.0</ele><time>2026-04-19T12:02:08.001Z</time></trkpt><trkpt lat="43.39214084232343" lon="10.723334936687817"><ele>521.0</ele><time>2026-04-19T12:02:09.001Z</time></trkpt><trkpt lat="43.392181676712504" lon="10.723425332956758"><ele>520.0</ele><time>2026-04-19T12:02:10.001Z</time></trkpt><trkpt lat="43.392217339769" lon="10.723520029654969"><ele>519.0</ele><time>2026-04-19T12:02:11.001Z</time></trkpt><trkpt lat="43.39225080451065" lon="10.723612605806485"><ele>518.0</ele><time>2026-04-19T12:02:12.001Z</time></trkpt><trkpt lat="43.3922879024546" lon="10.723703272704125"><ele>516.8333333333333</ele><time>2026-04-19T12:02:13.001Z</time></trkpt><trkpt lat="43.39232545639383" lon="10.72379488598405"><ele>515.6666666666666</ele><time>2026-04-19T12:02:14.001Z</time></trkpt><trkpt lat="43.39236260788113" lon="10.723886490024856"><ele>514.5</ele><time>2026-04-19T12:02:15.001Z</time></trkpt><trkpt lat="43.39240188734598" lon="10.72398291298562"><ele>513.3333333333334</ele><time>2026-04-19T12:02:16.001Z</time></trkpt><trkpt lat="43.39244183819431" lon="10.724074202931307"><ele>512.1666666666667</ele><time>2026-04-19T12:02:17.001Z</time></trkpt><trkpt lat="43.39248523611155" lon="10.72416545315918"><ele>511.0</ele><time>2026-04-19T12:02:18.001Z</time></trkpt><trkpt lat="43.39253221822757" lon="10.724256710898466"><ele>511.00000000000006</ele><time>2026-04-19T12:02:19.001Z</time></trkpt><trkpt lat="43.39258094050873" lon="10.72434354764942"><ele>511.0</ele><time>2026-04-19T12:02:20.001Z</time></trkpt><trkpt lat="43.39262928544824" lon="10.724432799680482"><ele>511.0</ele><time>2026-04-19T12:02:21.001Z</time></trkpt><trkpt lat="43.39267643620586" lon="10.724519173868233"><ele>511.0</ele><time>2026-04-19T12:02:22.001Z</time></trkpt><trkpt lat="43.39271459819852" lon="10.724596578855163"><ele>511.00000000000006</ele><time>2026-04-19T12:02:23.001Z</time></trkpt><trkpt lat="43.392760967913205" lon="10.724693720884932"><ele>511.0</ele><time>2026-04-19T12:02:25.001Z</time></trkpt><trkpt lat="43.39279719002578" lon="10.72477733956424"><ele>510.6</ele><time>2026-04-19T12:02:32.001Z</time></trkpt><trkpt lat="43.39285032730124" lon="10.724899459763796"><ele>510.20000000000005</ele><time>2026-04-19T12:02:34.001Z</time></trkpt><trkpt lat="43.392901510996936" lon="10.725054962266743"><ele>509.79999999999995</ele><time>2026-04-19T12:02:36.001Z</time></trkpt><trkpt lat="43.392929388099496" lon="10.72514982135738"><ele>509.4</ele><time>2026-04-19T12:02:37.001Z</time></trkpt><trkpt lat="43.39295751321012" lon="10.725260524419406"><ele>509.0</ele><time>2026-04-19T12:02:38.001Z</time></trkpt><trkpt lat="43.39298565972703" lon="10.725379498562162"><ele>509.0</ele><time>2026-04-19T12:02:39.001Z</time></trkpt><trkpt lat="43.3930038409653" lon="10.725511656576767"><ele>509.0</ele><time>2026-04-19T12:02:40.001Z</time></trkpt><trkpt lat="43.39300307079547" lon="10.725652429378423"><ele>509.0</ele><time>2026-04-19T12:02:41.001Z</time></trkpt><trkpt lat="43.392982858283666" lon="10.725788480200023"><ele>509.0</ele><time>2026-04-19T12:02:42.001Z</time></trkpt><trkpt lat="43.39294523350063" lon="10.725915259122026"><ele>509.0</ele><time>2026-04-19T12:02:43.001Z</time></trkpt><trkpt lat="43.392891780350126" lon="10.726034121561037"><ele>510.75</ele><time>2026-04-19T12:02:44.001Z</time></trkpt><trkpt lat="43.39282810436456" lon="10.726151684344229"><ele>512.5</ele><time>2026-04-19T12:02:45.001Z</time></trkpt><trkpt lat="43.392762104175695" lon="10.726280378496698"><ele>514.25</ele><time>2026-04-19T12:02:46.001Z</time></trkpt><trkpt lat="43.39270004209005" lon="10.72643324305926"><ele>516.0</ele><time>2026-04-19T12:02:47.001Z</time></trkpt><trkpt lat="43.39264464146621" lon="10.726602740614032"><ele>516.0</ele><time>2026-04-19T12:02:48.001Z</time></trkpt><trkpt lat="43.392591713276005" lon="10.726760426334259"><ele>516.0</ele><time>2026-04-19T12:02:49.001Z</time></trkpt><trkpt lat="43.39253796517647" lon="10.726898551462753"><ele>516.0</ele><time>2026-04-19T12:02:50.001Z</time></trkpt><trkpt lat="43.39248789096718" lon="10.72703413485786"><ele>516.0</ele><time>2026-04-19T12:02:51.001Z</time></trkpt><trkpt lat="43.392444931930726" lon="10.72717553072891"><ele>519.0</ele><time>2026-04-19T12:02:52.001Z</time></trkpt><trkpt lat="43.392390716222174" lon="10.727489142100067"><ele>522.0</ele><time>2026-04-19T12:02:54.001Z</time></trkpt><trkpt lat="43.39236679736464" lon="10.727660648024484"><ele>525.0</ele><time>2026-04-19T12:02:55.001Z</time></trkpt><trkpt lat="43.39233233555961" lon="10.727832734694898"><ele>525.5</ele><time>2026-04-19T12:02:56.001Z</time></trkpt><trkpt lat="43.39228082551728" lon="10.728001353975205"><ele>526.0</ele><time>2026-04-19T12:02:57.001Z</time></trkpt><trkpt lat="43.392215365504384" lon="10.728141079493126"><ele>526.5</ele><time>2026-04-19T12:02:58.001Z</time></trkpt><trkpt lat="43.39215136859042" lon="10.728256303386315"><ele>527.0</ele><time>2026-04-19T12:02:59.001Z</time></trkpt><trkpt lat="43.39209980972366" lon="10.728378050696609"><ele>527.0</ele><time>2026-04-19T12:03:00.001Z</time></trkpt><trkpt lat="43.392068057084614" lon="10.728517215473452"><ele>527.0</ele><time>2026-04-19T12:03:01.001Z</time></trkpt><trkpt lat="43.392053228093374" lon="10.728670169161262"><ele>527.0</ele><time>2026-04-19T12:03:02.001Z</time></trkpt><trkpt lat="43.39205696729159" lon="10.728833214084782"><ele>527.0</ele><time>2026-04-19T12:03:03.001Z</time></trkpt><trkpt lat="43.39206575923661" lon="10.728993429935187"><ele>528.0</ele><time>2026-04-19T12:03:04.001Z</time></trkpt><trkpt lat="43.39206993522739" lon="10.72914597046795"><ele>529.0</ele><time>2026-04-19T12:03:05.001Z</time></trkpt><trkpt lat="43.39206596910458" lon="10.729292655673364"><ele>530.0</ele><time>2026-04-19T12:03:06.001Z</time></trkpt><trkpt lat="43.39206106121603" lon="10.72943149956826"><ele>531.0</ele><time>2026-04-19T12:03:07.001Z</time></trkpt><trkpt lat="43.39205405603041" lon="10.729570004611796"><ele>532.0</ele><time>2026-04-19T12:03:08.001Z</time></trkpt><trkpt lat="43.39204400347581" lon="10.72971359854521"><ele>532.4</ele><time>2026-04-19T12:03:09.001Z</time></trkpt><trkpt lat="43.392028474251994" lon="10.729861020610873"><ele>532.8000000000001</ele><time>2026-04-19T12:03:10.001Z</time></trkpt><trkpt lat="43.39200820187231" lon="10.730013092582503"><ele>533.2</ele><time>2026-04-19T12:03:11.001Z</time></trkpt><trkpt lat="43.39198158205533" lon="10.73016605345865"><ele>533.6</ele><time>2026-04-19T12:03:12.001Z</time></trkpt><trkpt lat="43.391952356484786" lon="10.730308690870014"><ele>534.0</ele><time>2026-04-19T12:03:13.001Z</time></trkpt><trkpt lat="43.39192489529964" lon="10.730437120833706"><ele>534.0</ele><time>2026-04-19T12:03:14.001Z</time></trkpt><trkpt lat="43.39190415275015" lon="10.73055665224904"><ele>534.0</ele><time>2026-04-19T12:03:15.001Z</time></trkpt><trkpt lat="43.39188238124151" lon="10.730676569682327"><ele>534.0</ele><time>2026-04-19T12:03:16.001Z</time></trkpt><trkpt lat="43.39186046325953" lon="10.730800954329283"><ele>534.0</ele><time>2026-04-19T12:03:17.001Z</time></trkpt><trkpt lat="43.391836486412195" lon="10.73093006692136"><ele>534.0</ele><time>2026-04-19T12:03:18.001Z</time></trkpt><trkpt lat="43.391809067164566" lon="10.731063999455575"><ele>533.2</ele><time>2026-04-19T12:03:19.001Z</time></trkpt><trkpt lat="43.39178169305501" lon="10.731196445725368"><ele>532.4</ele><time>2026-04-19T12:03:20.001Z</time></trkpt><trkpt lat="43.39175353333363" lon="10.73133606051113"><ele>531.6</ele><time>2026-04-19T12:03:21.001Z</time></trkpt><trkpt lat="43.39172421496818" lon="10.731479142480179"><ele>530.8</ele><time>2026-04-19T12:03:22.001Z</time></trkpt><trkpt lat="43.39169187471267" lon="10.731627074240135"><ele>530.0</ele><time>2026-04-19T12:03:23.001Z</time></trkpt><trkpt lat="43.391660516424984" lon="10.731781584210577"><ele>529.6</ele><time>2026-04-19T12:03:24.001Z</time></trkpt><trkpt lat="43.39162561686755" lon="10.731933723677992"><ele>529.2</ele><time>2026-04-19T12:03:25.001Z</time></trkpt><trkpt lat="43.3915899677438" lon="10.732075639543124"><ele>528.8</ele><time>2026-04-19T12:03:26.001Z</time></trkpt><trkpt lat="43.391555665990666" lon="10.73219634787735"><ele>528.4</ele><time>2026-04-19T12:03:27Z</time></trkpt><trkpt lat="43.39152146778301" lon="10.732305785738117"><ele>528.0</ele><time>2026-04-19T12:03:28Z</time></trkpt><trkpt lat="43.391483755894185" lon="10.732418915500666"><ele>528.0</ele><time>2026-04-19T12:03:29Z</time></trkpt><trkpt lat="43.39144707679624" lon="10.732530432026126"><ele>528.0</ele><time>2026-04-19T12:03:30Z</time></trkpt><trkpt lat="43.391408508644666" lon="10.732641456356765"><ele>528.0</ele><time>2026-04-19T12:03:31Z</time></trkpt><trkpt lat="43.39136570325027" lon="10.7327499535612"><ele>528.0</ele><time>2026-04-19T12:03:32Z</time></trkpt><trkpt lat="43.391320623958684" lon="10.732848700331383"><ele>528.0</ele><time>2026-04-19T12:03:33Z</time></trkpt><trkpt lat="43.39128011408679" lon="10.732925680795411"><ele>528.0</ele><time>2026-04-19T12:03:34Z</time></trkpt><trkpt lat="43.391238058294654" lon="10.73299514911562"><ele>525.0</ele><time>2026-04-19T12:03:35Z</time></trkpt><trkpt lat="43.39114281030538" lon="10.733121108743404"><ele>522.0</ele><time>2026-04-19T12:03:37Z</time></trkpt><trkpt lat="43.39109040580989" lon="10.733202686033659"><ele>519.0</ele><time>2026-04-19T12:03:38Z</time></trkpt><trkpt lat="43.3910326399526" lon="10.733259666166308"><ele>516.0</ele><time>2026-04-19T12:03:39Z</time></trkpt><trkpt lat="43.39098431875581" lon="10.733338142866437"><ele>513.0</ele><time>2026-04-19T12:03:40Z</time></trkpt><trkpt lat="43.390934298014116" lon="10.733412683403118"><ele>510.0</ele><time>2026-04-19T12:03:41Z</time></trkpt><trkpt lat="43.39088689799567" lon="10.733496104729731"><ele>510.0</ele><time>2026-04-19T12:03:42Z</time></trkpt><trkpt lat="43.390836725887894" lon="10.733576225114383"><ele>510.0</ele><time>2026-04-19T12:03:43Z</time></trkpt><trkpt lat="43.390786106580144" lon="10.733651347697464"><ele>510.0</ele><time>2026-04-19T12:03:44Z</time></trkpt><trkpt lat="43.39073127528661" lon="10.73373235883076"><ele>510.0</ele><time>2026-04-19T12:03:45Z</time></trkpt><trkpt lat="43.39067618387346" lon="10.733818179918835"><ele>510.0</ele><time>2026-04-19T12:03:46Z</time></trkpt><trkpt lat="43.39062180378071" lon="10.733908076332263"><ele>510.0</ele><time>2026-04-19T12:03:47Z</time></trkpt><trkpt lat="43.39056908913871" lon="10.73399835328859"><ele>510.0</ele><time>2026-04-19T12:03:48Z</time></trkpt><trkpt lat="43.39051377941627" lon="10.73408949586076"><ele>510.0</ele><time>2026-04-19T12:03:49Z</time></trkpt><trkpt lat="43.390459386561034" lon="10.734180135844518"><ele>510.0</ele><time>2026-04-19T12:03:50Z</time></trkpt><trkpt lat="43.39040324189308" lon="10.73426760504421"><ele>510.0</ele><time>2026-04-19T12:03:51Z</time></trkpt><trkpt lat="43.390347964080426" lon="10.73435929217775"><ele>510.0</ele><time>2026-04-19T12:03:52Z</time></trkpt><trkpt lat="43.39029235470854" lon="10.734444332359823"><ele>510.0</ele><time>2026-04-19T12:03:53Z</time></trkpt><trkpt lat="43.390240592512484" lon="10.734521472310155"><ele>508.0</ele><time>2026-04-19T12:03:54Z</time></trkpt><trkpt lat="43.39019035899451" lon="10.734597302433015"><ele>506.0</ele><time>2026-04-19T12:03:55Z</time></trkpt><trkpt lat="43.39013563922387" lon="10.734678031235557"><ele>504.0</ele><time>2026-04-19T12:03:56Z</time></trkpt><trkpt lat="43.39007667666736" lon="10.734764392101239"><ele>502.0</ele><time>2026-04-19T12:03:57Z</time></trkpt><trkpt lat="43.3900157299454" lon="10.734848861816388"><ele>500.0</ele><time>2026-04-19T12:03:58Z</time></trkpt><trkpt lat="43.389960355783245" lon="10.734927117235392"><ele>498.0</ele><time>2026-04-19T12:03:59Z</time></trkpt><trkpt lat="43.38990669844235" lon="10.73500034198293"><ele>498.0</ele><time>2026-04-19T12:04:00Z</time></trkpt><trkpt lat="43.38985403185861" lon="10.735079949839568"><ele>497.99999999999994</ele><time>2026-04-19T12:04:01Z</time></trkpt><trkpt lat="43.389807707152876" lon="10.7351621111286"><ele>497.99999999999994</ele><time>2026-04-19T12:04:02Z</time></trkpt><trkpt lat="43.389750414695015" lon="10.735199055112984"><ele>498.0</ele><time>2026-04-19T12:04:03Z</time></trkpt><trkpt lat="43.38983225424965" lon="10.735441553766822"><ele>498.0</ele><time>2026-04-19T12:04:05Z</time></trkpt><trkpt lat="43.389848789252326" lon="10.735545037666126"><ele>497.0</ele><time>2026-04-19T12:04:06Z</time></trkpt><trkpt lat="43.38986023963866" lon="10.735656884890814"><ele>496.0</ele><time>2026-04-19T12:04:07Z</time></trkpt><trkpt lat="43.38989581194172" lon="10.735765384903187"><ele>495.0</ele><time>2026-04-19T12:04:08Z</time></trkpt><trkpt lat="43.389941979747256" lon="10.735866796607134"><ele>494.0</ele><time>2026-04-19T12:04:09Z</time></trkpt><trkpt lat="43.38999867312994" lon="10.73595745117962"><ele>493.0</ele><time>2026-04-19T12:04:10Z</time></trkpt><trkpt lat="43.39006404179386" lon="10.73604505151999"><ele>492.0</ele><time>2026-04-19T12:04:11Z</time></trkpt><trkpt lat="43.39013364414726" lon="10.736127334262518"><ele>490.0</ele><time>2026-04-19T12:04:12Z</time></trkpt><trkpt lat="43.390202569927155" lon="10.736204696693965"><ele>488.0</ele><time>2026-04-19T12:04:13Z</time></trkpt><trkpt lat="43.390266971103266" lon="10.736277631143585"><ele>486.0</ele><time>2026-04-19T12:04:14Z</time></trkpt><trkpt lat="43.390334170000294" lon="10.736323568393212"><ele>484.0</ele><time>2026-04-19T12:04:15Z</time></trkpt><trkpt lat="43.390412715701" lon="10.736322241973628"><ele>482.0</ele><time>2026-04-19T12:04:16Z</time></trkpt><trkpt lat="43.39049432573109" lon="10.736307628588133"><ele>480.0</ele><time>2026-04-19T12:04:17Z</time></trkpt><trkpt lat="43.390570807518" lon="10.736243267256475"><ele>480.0</ele><time>2026-04-19T12:04:18Z</time></trkpt><trkpt lat="43.39062421860306" lon="10.736175453971947"><ele>480.0</ele><time>2026-04-19T12:04:19Z</time></trkpt><trkpt lat="43.39073611529996" lon="10.736136011578227"><ele>480.0</ele><time>2026-04-19T12:04:21Z</time></trkpt><trkpt lat="43.39080700006946" lon="10.736172357585042"><ele>480.0</ele><time>2026-04-19T12:04:22Z</time></trkpt><trkpt lat="43.390867962763394" lon="10.736238586474483"><ele>480.0</ele><time>2026-04-19T12:04:23Z</time></trkpt><trkpt lat="43.39093754995744" lon="10.736282181133653"><ele>480.0</ele><time>2026-04-19T12:04:24Z</time></trkpt><trkpt lat="43.391014331288055" lon="10.736289576298304"><ele>480.0</ele><time>2026-04-19T12:04:25Z</time></trkpt><trkpt lat="43.39109265891813" lon="10.736311835842322"><ele>480.0</ele><time>2026-04-19T12:04:26Z</time></trkpt><trkpt lat="43.391171408905976" lon="10.7363077234637"><ele>480.0</ele><time>2026-04-19T12:04:27Z</time></trkpt><trkpt lat="43.39124483052244" lon="10.736314965305098"><ele>480.0</ele><time>2026-04-19T12:04:28Z</time></trkpt><trkpt lat="43.39131878696121" lon="10.736304296602333"><ele>480.0</ele><time>2026-04-19T12:04:29Z</time></trkpt><trkpt lat="43.39138893049631" lon="10.736318805294916"><ele>480.0</ele><time>2026-04-19T12:04:30Z</time></trkpt><trkpt lat="43.39145843338464" lon="10.736328205814063"><ele>480.0</ele><time>2026-04-19T12:04:31Z</time></trkpt><trkpt lat="43.391522679954434" lon="10.736341892560327"><ele>481.2</ele><time>2026-04-19T12:04:32Z</time></trkpt><trkpt lat="43.391633191984944" lon="10.736401828825148"><ele>482.4</ele><time>2026-04-19T12:04:34Z</time></trkpt><trkpt lat="43.39171021484503" lon="10.736533496376891"><ele>483.6</ele><time>2026-04-19T12:04:36Z</time></trkpt><trkpt lat="43.39173358195973" lon="10.736620039092909"><ele>484.8</ele><time>2026-04-19T12:04:37Z</time></trkpt><trkpt lat="43.39173881004469" lon="10.73671301446708"><ele>486.0</ele><time>2026-04-19T12:04:38Z</time></trkpt><trkpt lat="43.39174234974591" lon="10.736814623330632"><ele>484.5</ele><time>2026-04-19T12:04:39Z</time></trkpt><trkpt lat="43.391744791226536" lon="10.736916862941754"><ele>483.0</ele><time>2026-04-19T12:04:40Z</time></trkpt><trkpt lat="43.39173775626401" lon="10.737023539789275"><ele>481.5</ele><time>2026-04-19T12:04:41Z</time></trkpt><trkpt lat="43.3917222662332" lon="10.737132698950102"><ele>480.0</ele><time>2026-04-19T12:04:42Z</time></trkpt><trkpt lat="43.391702252904786" lon="10.737243077515139"><ele>478.5</ele><time>2026-04-19T12:04:43.001Z</time></trkpt><trkpt lat="43.39167581357809" lon="10.73735582288549"><ele>477.0</ele><time>2026-04-19T12:04:44.001Z</time></trkpt><trkpt lat="43.391644043684124" lon="10.737470088283626"><ele>477.0</ele><time>2026-04-19T12:04:45.001Z</time></trkpt><trkpt lat="43.391618116153445" lon="10.737593166873731"><ele>477.00000000000006</ele><time>2026-04-19T12:04:46.001Z</time></trkpt><trkpt lat="43.39159867960379" lon="10.737722759527228"><ele>477.00000000000006</ele><time>2026-04-19T12:04:47.001Z</time></trkpt><trkpt lat="43.39157989440011" lon="10.737856732302589"><ele>477.0</ele><time>2026-04-19T12:04:48.001Z</time></trkpt><trkpt lat="43.391573753702" lon="10.737995039848757"><ele>477.0</ele><time>2026-04-19T12:04:49.001Z</time></trkpt><trkpt lat="43.39158283150261" lon="10.738136829951923"><ele>475.20000000000005</ele><time>2026-04-19T12:04:50.001Z</time></trkpt><trkpt lat="43.39160454544571" lon="10.738276751236958"><ele>473.40000000000003</ele><time>2026-04-19T12:04:51.001Z</time></trkpt><trkpt lat="43.391629515692976" lon="10.738411354221045"><ele>471.59999999999997</ele><time>2026-04-19T12:04:52.001Z</time></trkpt><trkpt lat="43.39163626622559" lon="10.738543425102902"><ele>469.79999999999995</ele><time>2026-04-19T12:04:53.001Z</time></trkpt><trkpt lat="43.39162640336881" lon="10.738675967266873"><ele>468.0</ele><time>2026-04-19T12:04:54.001Z</time></trkpt><trkpt lat="43.39160784255993" lon="10.738809645163078"><ele>467.3333333333333</ele><time>2026-04-19T12:04:55.001Z</time></trkpt><trkpt lat="43.39158712075446" lon="10.738938867962306"><ele>466.66666666666663</ele><time>2026-04-19T12:04:56.001Z</time></trkpt><trkpt lat="43.39156912370284" lon="10.739063524647346"><ele>466.0</ele><time>2026-04-19T12:04:57.001Z</time></trkpt><trkpt lat="43.39156033619819" lon="10.739176637464963"><ele>465.3333333333333</ele><time>2026-04-19T12:04:58.001Z</time></trkpt><trkpt lat="43.39154467620431" lon="10.739281991937409"><ele>464.66666666666663</ele><time>2026-04-19T12:04:59.001Z</time></trkpt><trkpt lat="43.39149872854443" lon="10.739365559464844"><ele>464.0</ele><time>2026-04-19T12:05:00.001Z</time></trkpt><trkpt lat="43.39147065072" lon="10.739467612448376"><ele>463.66666666666663</ele><time>2026-04-19T12:05:01.001Z</time></trkpt><trkpt lat="43.391417940882874" lon="10.739540857026538"><ele>463.3333333333333</ele><time>2026-04-19T12:05:02.001Z</time></trkpt><trkpt lat="43.39134428804922" lon="10.739568321155378"><ele>463.0</ele><time>2026-04-19T12:05:03.001Z</time></trkpt><trkpt lat="43.391271538244176" lon="10.739586454094034"><ele>462.66666666666663</ele><time>2026-04-19T12:05:04.001Z</time></trkpt><trkpt lat="43.39121015618325" lon="10.739636191381416"><ele>462.3333333333333</ele><time>2026-04-19T12:05:05.001Z</time></trkpt><trkpt lat="43.391138545347104" lon="10.739660639647727"><ele>462.0</ele><time>2026-04-19T12:05:08.001Z</time></trkpt><trkpt lat="43.39114283555642" lon="10.739828893012605"><ele>460.8333333333333</ele><time>2026-04-19T12:05:11.001Z</time></trkpt><trkpt lat="43.39117670498994" lon="10.739920878730002"><ele>459.66666666666663</ele><time>2026-04-19T12:05:13.001Z</time></trkpt><trkpt lat="43.39122191147919" lon="10.740053315880484"><ele>458.5</ele><time>2026-04-19T12:05:15.001Z</time></trkpt><trkpt lat="43.39124849577841" lon="10.74013871339656"><ele>457.3333333333333</ele><time>2026-04-19T12:05:16.001Z</time></trkpt><trkpt lat="43.391279953903485" lon="10.74024238660488"><ele>456.16666666666663</ele><time>2026-04-19T12:05:17.001Z</time></trkpt><trkpt lat="43.3913162006997" lon="10.740357786686427"><ele>455.0</ele><time>2026-04-19T12:05:18.001Z</time></trkpt><trkpt lat="43.39135482639911" lon="10.740469489358333"><ele>455.0</ele><time>2026-04-19T12:05:19.001Z</time></trkpt><trkpt lat="43.39139122140469" lon="10.740584838959531"><ele>455.0</ele><time>2026-04-19T12:05:20.001Z</time></trkpt><trkpt lat="43.391428733281245" lon="10.740699848826456"><ele>455.0</ele><time>2026-04-19T12:05:21.001Z</time></trkpt><trkpt lat="43.3914663558583" lon="10.740816334909457"><ele>455.0</ele><time>2026-04-19T12:05:22.001Z</time></trkpt><trkpt lat="43.391519842033865" lon="10.740921934469954"><ele>455.0</ele><time>2026-04-19T12:05:23.001Z</time></trkpt><trkpt lat="43.391588986770685" lon="10.741018201146908"><ele>452.99999999999994</ele><time>2026-04-19T12:05:24.001Z</time></trkpt><trkpt lat="43.39167210743879" lon="10.741093537970984"><ele>451.0</ele><time>2026-04-19T12:05:25.001Z</time></trkpt><trkpt lat="43.39175261408808" lon="10.741162661411169"><ele>449.0</ele><time>2026-04-19T12:05:26.001Z</time></trkpt><trkpt lat="43.391821955223335" lon="10.741231429306202"><ele>447.0</ele><time>2026-04-19T12:05:27.001Z</time></trkpt><trkpt lat="43.391869661407775" lon="10.74129576489657"><ele>444.99999999999994</ele><time>2026-04-19T12:05:28.001Z</time></trkpt><trkpt lat="43.39189317777331" lon="10.741384884613911"><ele>443.0</ele><time>2026-04-19T12:05:29.001Z</time></trkpt><trkpt lat="43.391896984333435" lon="10.741484922649386"><ele>443.0</ele><time>2026-04-19T12:05:30.001Z</time></trkpt><trkpt lat="43.39187140490111" lon="10.741597162155578"><ele>442.99999999999994</ele><time>2026-04-19T12:05:31.001Z</time></trkpt><trkpt lat="43.39184684236506" lon="10.741715923624477"><ele>442.99999999999994</ele><time>2026-04-19T12:05:32.001Z</time></trkpt><trkpt lat="43.391820202885064" lon="10.741839932236623"><ele>443.0</ele><time>2026-04-19T12:05:32.999Z</time></trkpt><trkpt lat="43.391803080862466" lon="10.74196696254941"><ele>443.0</ele><time>2026-04-19T12:05:33.999Z</time></trkpt><trkpt lat="43.39178682708313" lon="10.742093122843787"><ele>442.0</ele><time>2026-04-19T12:05:34.999Z</time></trkpt><trkpt lat="43.391771777412586" lon="10.742218858767748"><ele>440.99999999999994</ele><time>2026-04-19T12:05:35.999Z</time></trkpt><trkpt lat="43.39175648815579" lon="10.742343635077733"><ele>439.99999999999994</ele><time>2026-04-19T12:05:36.999Z</time></trkpt><trkpt lat="43.39174523202937" lon="10.742464607711028"><ele>439.0</ele><time>2026-04-19T12:05:37.999Z</time></trkpt><trkpt lat="43.39173607917142" lon="10.742585866000585"><ele>438.0</ele><time>2026-04-19T12:05:38.999Z</time></trkpt><trkpt lat="43.391726168965796" lon="10.742707635045031"><ele>437.3333333333333</ele><time>2026-04-19T12:05:39.999Z</time></trkpt><trkpt lat="43.391718693514065" lon="10.742828165924243"><ele>436.66666666666663</ele><time>2026-04-19T12:05:40.999Z</time></trkpt><trkpt lat="43.39171606346523" lon="10.742950514920288"><ele>436.0</ele><time>2026-04-19T12:05:41.999Z</time></trkpt><trkpt lat="43.39171789078291" lon="10.743074754937465"><ele>435.3333333333333</ele><time>2026-04-19T12:05:43Z</time></trkpt><trkpt lat="43.39172604392162" lon="10.74319434011216"><ele>434.66666666666663</ele><time>2026-04-19T12:05:44Z</time></trkpt><trkpt lat="43.39173499677268" lon="10.743300585884228"><ele>434.0</ele><time>2026-04-19T12:05:45Z</time></trkpt><trkpt lat="43.391727808024164" lon="10.743436126814485"><ele>434.0</ele><time>2026-04-19T12:05:47Z</time></trkpt><trkpt lat="43.391637466693226" lon="10.743450759498758"><ele>434.0</ele><time>2026-04-19T12:05:49Z</time></trkpt><trkpt lat="43.39158567035641" lon="10.743332554451"><ele>434.0</ele><time>2026-04-19T12:05:51Z</time></trkpt><trkpt lat="43.39158254777962" lon="10.743172186524886"><ele>434.0</ele><time>2026-04-19T12:05:53Z</time></trkpt><trkpt lat="43.391572016477966" lon="10.743000432065202"><ele>434.0</ele><time>2026-04-19T12:05:55Z</time></trkpt><trkpt lat="43.391563445501035" lon="10.742841773837082"><ele>434.0</ele><time>2026-04-19T12:05:57Z</time></trkpt><trkpt lat="43.39153567235891" lon="10.742690682749044"><ele>434.0</ele><time>2026-04-19T12:05:59Z</time></trkpt><trkpt lat="43.39147909116377" lon="10.742642934283237"><ele>434.0</ele><time>2026-04-19T12:06:00Z</time></trkpt><trkpt lat="43.391409260830606" lon="10.74266676993216"><ele>434.0</ele><time>2026-04-19T12:06:01Z</time></trkpt><trkpt lat="43.39134801938941" lon="10.742778005770088"><ele>434.0</ele><time>2026-04-19T12:06:03Z</time></trkpt><trkpt lat="43.39134786091574" lon="10.74292881322595"><ele>434.0</ele><time>2026-04-19T12:06:05Z</time></trkpt><trkpt lat="43.39135284203112" lon="10.743022020977271"><ele>434.0</ele><time>2026-04-19T12:06:06Z</time></trkpt><trkpt lat="43.3913573117109" lon="10.743117093636558"><ele>434.0</ele><time>2026-04-19T12:06:07Z</time></trkpt><trkpt lat="43.39135510410048" lon="10.743211401214731"><ele>434.0</ele><time>2026-04-19T12:06:08Z</time></trkpt><trkpt lat="43.391348372005844" lon="10.743308485682434"><ele>434.0</ele><time>2026-04-19T12:06:09Z</time></trkpt><trkpt lat="43.39135595875207" lon="10.743411396126593"><ele>434.0</ele><time>2026-04-19T12:06:10Z</time></trkpt><trkpt lat="43.391369588298275" lon="10.743515697276502"><ele>434.0</ele><time>2026-04-19T12:06:11Z</time></trkpt><trkpt lat="43.39139723110798" lon="10.743629183073162"><ele>431.66666666666663</ele><time>2026-04-19T12:06:12Z</time></trkpt><trkpt lat="43.39143587024346" lon="10.743737633069562"><ele>429.3333333333333</ele><time>2026-04-19T12:06:13Z</time></trkpt><trkpt lat="43.391479290021216" lon="10.743839478627478"><ele>427.0</ele><time>2026-04-19T12:06:14Z</time></trkpt><trkpt lat="43.39151217933672" lon="10.743933181942015"><ele>424.66666666666663</ele><time>2026-04-19T12:06:15Z</time></trkpt><trkpt lat="43.39154459010925" lon="10.744025936074175"><ele>422.3333333333333</ele><time>2026-04-19T12:06:16Z</time></trkpt><trkpt lat="43.39157554498546" lon="10.744109761992434"><ele>420.0</ele><time>2026-04-19T12:06:17Z</time></trkpt><trkpt lat="43.39162586286465" lon="10.744261112888882"><ele>416.8</ele><time>2026-04-19T12:06:19Z</time></trkpt><trkpt lat="43.391654582868284" lon="10.744437914607701"><ele>413.6</ele><time>2026-04-19T12:06:21Z</time></trkpt><trkpt lat="43.391700663224604" lon="10.744527020610896"><ele>410.4</ele><time>2026-04-19T12:06:22Z</time></trkpt><trkpt lat="43.39175113596689" lon="10.744622631592197"><ele>407.2</ele><time>2026-04-19T12:06:23Z</time></trkpt><trkpt lat="43.391813834557645" lon="10.744707169597623"><ele>404.0</ele><time>2026-04-19T12:06:24Z</time></trkpt><trkpt lat="43.391857780291495" lon="10.744797025616405"><ele>404.0</ele><time>2026-04-19T12:06:25Z</time></trkpt><trkpt lat="43.39191411819782" lon="10.744875751375242"><ele>404.0</ele><time>2026-04-19T12:06:26Z</time></trkpt><trkpt lat="43.39197014791848" lon="10.744986012761883"><ele>404.0</ele><time>2026-04-19T12:06:27Z</time></trkpt><trkpt lat="43.39203589653281" lon="10.745082134569849"><ele>404.0</ele><time>2026-04-19T12:06:28Z</time></trkpt><trkpt lat="43.39209428175322" lon="10.745184375273986"><ele>404.0</ele><time>2026-04-19T12:06:29Z</time></trkpt><trkpt lat="43.39215205168202" lon="10.745294975316627"><ele>404.6</ele><time>2026-04-19T12:06:30Z</time></trkpt><trkpt lat="43.39218632859295" lon="10.745420498335394"><ele>405.2</ele><time>2026-04-19T12:06:31Z</time></trkpt><trkpt lat="43.3921816953029" lon="10.745543289227138"><ele>405.8</ele><time>2026-04-19T12:06:32Z</time></trkpt><trkpt lat="43.39214900784857" lon="10.74566217681792"><ele>406.40000000000003</ele><time>2026-04-19T12:06:33Z</time></trkpt><trkpt lat="43.39209398086003" lon="10.745756974758034"><ele>407.0</ele><time>2026-04-19T12:06:34Z</time></trkpt><trkpt lat="43.392039877105915" lon="10.745852966650862"><ele>406.3333333333333</ele><time>2026-04-19T12:06:35Z</time></trkpt><trkpt lat="43.39198185539082" lon="10.745944282138089"><ele>405.66666666666663</ele><time>2026-04-19T12:06:36Z</time></trkpt><trkpt lat="43.39192188990121" lon="10.74603239654358"><ele>405.0</ele><time>2026-04-19T12:06:37Z</time></trkpt><trkpt lat="43.39186261781937" lon="10.746115556790837"><ele>404.33333333333337</ele><time>2026-04-19T12:06:38Z</time></trkpt><trkpt lat="43.39181112177121" lon="10.746196005154353"><ele>403.6666666666667</ele><time>2026-04-19T12:06:39Z</time></trkpt><trkpt lat="43.39176337046863" lon="10.746274273698148"><ele>403.0</ele><time>2026-04-19T12:06:40Z</time></trkpt><trkpt lat="43.39171624792447" lon="10.74635464539709"><ele>403.00000000000006</ele><time>2026-04-19T12:06:41Z</time></trkpt><trkpt lat="43.39166439209334" lon="10.746432363003077"><ele>403.0</ele><time>2026-04-19T12:06:42Z</time></trkpt><trkpt lat="43.391620760825845" lon="10.74651712535374"><ele>403.0</ele><time>2026-04-19T12:06:43Z</time></trkpt><trkpt lat="43.39157689161693" lon="10.746605778998031"><ele>403.0</ele><time>2026-04-19T12:06:44Z</time></trkpt><trkpt lat="43.39154031707081" lon="10.746710129378675"><ele>403.00000000000006</ele><time>2026-04-19T12:06:45Z</time></trkpt><trkpt lat="43.39151476841485" lon="10.746828408378017"><ele>403.0</ele><time>2026-04-19T12:06:46Z</time></trkpt><trkpt lat="43.39150225403072" lon="10.746953717087553"><ele>402.83333333333337</ele><time>2026-04-19T12:06:47Z</time></trkpt><trkpt lat="43.39149481401195" lon="10.747074126434036"><ele>402.6666666666667</ele><time>2026-04-19T12:06:48Z</time></trkpt><trkpt lat="43.39148701141795" lon="10.747184392836514"><ele>402.5</ele><time>2026-04-19T12:06:49Z</time></trkpt><trkpt lat="43.39147859680176" lon="10.74729062772243"><ele>402.33333333333337</ele><time>2026-04-19T12:06:50Z</time></trkpt><trkpt lat="43.391481099058254" lon="10.747393189401821"><ele>402.1666666666667</ele><time>2026-04-19T12:06:51Z</time></trkpt><trkpt lat="43.39149519785681" lon="10.747488839818317"><ele>402.0</ele><time>2026-04-19T12:06:52Z</time></trkpt><trkpt lat="43.391517197340406" lon="10.747573141853161"><ele>400.6666666666667</ele><time>2026-04-19T12:06:53Z</time></trkpt><trkpt lat="43.39157442842565" lon="10.747717416426411"><ele>399.33333333333337</ele><time>2026-04-19T12:06:55Z</time></trkpt><trkpt lat="43.39165197863888" lon="10.74785141718281"><ele>398.0</ele><time>2026-04-19T12:06:57Z</time></trkpt><trkpt lat="43.39169865861286" lon="10.747916644588397"><ele>396.6666666666667</ele><time>2026-04-19T12:06:58Z</time></trkpt><trkpt lat="43.39175253829603" lon="10.747975905666951"><ele>395.33333333333337</ele><time>2026-04-19T12:06:59Z</time></trkpt><trkpt lat="43.39180937050236" lon="10.748031302951047"><ele>394.0</ele><time>2026-04-19T12:07:00Z</time></trkpt><trkpt lat="43.39186796779393" lon="10.748086956631031"><ele>394.0</ele><time>2026-04-19T12:07:01Z</time></trkpt><trkpt lat="43.39192890859399" lon="10.748141474626578"><ele>394.0</ele><time>2026-04-19T12:07:02Z</time></trkpt><trkpt lat="43.39198660604003" lon="10.748198278762963"><ele>394.0</ele><time>2026-04-19T12:07:03Z</time></trkpt><trkpt lat="43.392032094565195" lon="10.748266275448144"><ele>394.0</ele><time>2026-04-19T12:07:04Z</time></trkpt><trkpt lat="43.39206915875762" lon="10.748348122110057"><ele>394.0</ele><time>2026-04-19T12:07:05Z</time></trkpt><trkpt lat="43.39210023852962" lon="10.748435511170435"><ele>394.0</ele><time>2026-04-19T12:07:06Z</time></trkpt><trkpt lat="43.39213240246789" lon="10.748526249922334"><ele>394.0</ele><time>2026-04-19T12:07:07Z</time></trkpt><trkpt lat="43.39216023337638" lon="10.748618090562378"><ele>394.42857142857144</ele><time>2026-04-19T12:07:08Z</time></trkpt><trkpt lat="43.39218849450822" lon="10.748708870121762"><ele>394.8571428571429</ele><time>2026-04-19T12:07:09Z</time></trkpt><trkpt lat="43.39222121803173" lon="10.74879897834811"><ele>395.2857142857143</ele><time>2026-04-19T12:07:10Z</time></trkpt><trkpt lat="43.39225254856099" lon="10.748889251887292"><ele>395.7142857142857</ele><time>2026-04-19T12:07:11Z</time></trkpt><trkpt lat="43.392278779686855" lon="10.748978035453737"><ele>396.1428571428571</ele><time>2026-04-19T12:07:12Z</time></trkpt><trkpt lat="43.39230457773375" lon="10.749064233774853"><ele>396.57142857142856</ele><time>2026-04-19T12:07:13Z</time></trkpt><trkpt lat="43.392328352585636" lon="10.74914773473605"><ele>397.0</ele><time>2026-04-19T12:07:14Z</time></trkpt><trkpt lat="43.39237605534442" lon="10.749306532131168"><ele>396.25</ele><time>2026-04-19T12:07:16.001Z</time></trkpt><trkpt lat="43.39241876081206" lon="10.749464834634956"><ele>395.5</ele><time>2026-04-19T12:07:18.001Z</time></trkpt><trkpt lat="43.39246353653475" lon="10.749620718288075"><ele>394.75</ele><time>2026-04-19T12:07:20.001Z</time></trkpt><trkpt lat="43.392516187098515" lon="10.749754858153068"><ele>394.0</ele><time>2026-04-19T12:07:22.001Z</time></trkpt><trkpt lat="43.39261215837333" lon="10.749831288977349"><ele>394.00000000000006</ele><time>2026-04-19T12:07:24.001Z</time></trkpt><trkpt lat="43.392692832966254" lon="10.749925906481705"><ele>394.0</ele><time>2026-04-19T12:07:26.001Z</time></trkpt><trkpt lat="43.39276768635167" lon="10.749885620403628"><ele>394.0</ele><time>2026-04-19T12:07:27.001Z</time></trkpt><trkpt lat="43.39283521282472" lon="10.74986980127105"><ele>394.0</ele><time>2026-04-19T12:07:28.001Z</time></trkpt><trkpt lat="43.392901877666425" lon="10.749852893918336"><ele>394.00000000000006</ele><time>2026-04-19T12:07:29.001Z</time></trkpt><trkpt lat="43.392967072977264" lon="10.749816364810908"><ele>394.0</ele><time>2026-04-19T12:07:30.001Z</time></trkpt><trkpt lat="43.393031867790384" lon="10.749759198914218"><ele>393.00000000000006</ele><time>2026-04-19T12:07:31.001Z</time></trkpt><trkpt lat="43.393091087416906" lon="10.7496838529602"><ele>392.0</ele><time>2026-04-19T12:07:32.001Z</time></trkpt><trkpt lat="43.39314221186799" lon="10.749596338633925"><ele>391.0</ele><time>2026-04-19T12:07:33.001Z</time></trkpt><trkpt lat="43.39318832389775" lon="10.749503270823508"><ele>390.0</ele><time>2026-04-19T12:07:34.001Z</time></trkpt><trkpt lat="43.393225833233224" lon="10.74939891894334"><ele>389.00000000000006</ele><time>2026-04-19T12:07:35.001Z</time></trkpt><trkpt lat="43.3932685110228" lon="10.749298793335981"><ele>388.0</ele><time>2026-04-19T12:07:36.001Z</time></trkpt><trkpt lat="43.39330995821296" lon="10.749205062326377"><ele>388.0</ele><time>2026-04-19T12:07:37.001Z</time></trkpt><trkpt lat="43.39334920521924" lon="10.749110107046715"><ele>388.0</ele><time>2026-04-19T12:07:38.001Z</time></trkpt><trkpt lat="43.3933901823775" lon="10.74901887316024"><ele>388.0</ele><time>2026-04-19T12:07:38.999Z</time></trkpt><trkpt lat="43.393446938216805" lon="10.74895372642108"><ele>388.0</ele><time>2026-04-19T12:07:39.999Z</time></trkpt><trkpt lat="43.3934855406787" lon="10.748866372842835"><ele>388.0</ele><time>2026-04-19T12:07:40.999Z</time></trkpt><trkpt lat="43.39355072268259" lon="10.748818913112677"><ele>388.0</ele><time>2026-04-19T12:07:41.999Z</time></trkpt><trkpt lat="43.39360432209168" lon="10.748758360491387"><ele>388.0</ele><time>2026-04-19T12:07:42.999Z</time></trkpt><trkpt lat="43.39365290816881" lon="10.748683949092554"><ele>388.0</ele><time>2026-04-19T12:07:43.999Z</time></trkpt><trkpt lat="43.393711955261516" lon="10.748635054219283"><ele>388.0</ele><time>2026-04-19T12:07:44.999Z</time></trkpt><trkpt lat="43.39377353608832" lon="10.748600997541864"><ele>388.0</ele><time>2026-04-19T12:07:45.999Z</time></trkpt><trkpt lat="43.3938429920723" lon="10.748606648203195"><ele>388.0</ele><time>2026-04-19T12:07:46.999Z</time></trkpt><trkpt lat="43.3939108247808" lon="10.748618225407986"><ele>388.0</ele><time>2026-04-19T12:07:47.999Z</time></trkpt><trkpt lat="43.393988706875426" lon="10.74860242251733"><ele>388.0</ele><time>2026-04-19T12:07:48.999Z</time></trkpt><trkpt lat="43.39406514205056" lon="10.74861170978657"><ele>388.0</ele><time>2026-04-19T12:07:49.999Z</time></trkpt><trkpt lat="43.39413931202832" lon="10.74861521663096"><ele>387.4285714285714</ele><time>2026-04-19T12:07:50.999Z</time></trkpt><trkpt lat="43.39421261293047" lon="10.748608881004834"><ele>386.8571428571429</ele><time>2026-04-19T12:07:51.999Z</time></trkpt><trkpt lat="43.394282205396244" lon="10.748594991849657"><ele>386.2857142857143</ele><time>2026-04-19T12:07:52.999Z</time></trkpt><trkpt lat="43.394348158215195" lon="10.748570418605507"><ele>385.71428571428567</ele><time>2026-04-19T12:07:53.999Z</time></trkpt><trkpt lat="43.39441430641149" lon="10.748549024609419"><ele>385.1428571428571</ele><time>2026-04-19T12:07:54.999Z</time></trkpt><trkpt lat="43.394471380739915" lon="10.748500206384524"><ele>384.57142857142856</ele><time>2026-04-19T12:07:55.999Z</time></trkpt><trkpt lat="43.39452470258202" lon="10.748452114999786"><ele>384.0</ele><time>2026-04-19T12:07:56.999Z</time></trkpt><trkpt lat="43.39463025694242" lon="10.748371017909328"><ele>384.0</ele><time>2026-04-19T12:07:58.999Z</time></trkpt><trkpt lat="43.39474214285159" lon="10.74836155029729"><ele>384.0</ele><time>2026-04-19T12:08:01Z</time></trkpt><trkpt lat="43.39485806072041" lon="10.748443408829521"><ele>384.0</ele><time>2026-04-19T12:08:03Z</time></trkpt><trkpt lat="43.394925232699656" lon="10.74848704994667"><ele>384.0</ele><time>2026-04-19T12:08:04Z</time></trkpt><trkpt lat="43.39499176940795" lon="10.74852610442728"><ele>384.0</ele><time>2026-04-19T12:08:05Z</time></trkpt><trkpt lat="43.39505672643111" lon="10.74856758863383"><ele>381.4285714285714</ele><time>2026-04-19T12:08:06Z</time></trkpt><trkpt lat="43.39511947452634" lon="10.748620704258029"><ele>378.85714285714283</ele><time>2026-04-19T12:08:07Z</time></trkpt><trkpt lat="43.39517291304432" lon="10.748684024081435"><ele>376.2857142857143</ele><time>2026-04-19T12:08:08Z</time></trkpt><trkpt lat="43.395220628784465" lon="10.748749224857166"><ele>373.71428571428567</ele><time>2026-04-19T12:08:09Z</time></trkpt><trkpt lat="43.39526937124486" lon="10.74881467652588"><ele>371.14285714285717</ele><time>2026-04-19T12:08:10Z</time></trkpt><trkpt lat="43.39531962616934" lon="10.748880656333384"><ele>368.57142857142856</ele><time>2026-04-19T12:08:11Z</time></trkpt><trkpt lat="43.395371062631725" lon="10.748948076365211"><ele>366.0</ele><time>2026-04-19T12:08:12Z</time></trkpt><trkpt lat="43.3954210685759" lon="10.749022095753084"><ele>366.0</ele><time>2026-04-19T12:08:13Z</time></trkpt><trkpt lat="43.39547347930435" lon="10.749096360622563"><ele>366.0</ele><time>2026-04-19T12:08:14Z</time></trkpt><trkpt lat="43.39552959035102" lon="10.749168418754323"><ele>366.0</ele><time>2026-04-19T12:08:15Z</time></trkpt><trkpt lat="43.39559035766404" lon="10.749232950359623"><ele>366.0</ele><time>2026-04-19T12:08:16Z</time></trkpt><trkpt lat="43.39565669015492" lon="10.749285868451125"><ele>366.0</ele><time>2026-04-19T12:08:17Z</time></trkpt><trkpt lat="43.39572854581347" lon="10.749318724516412"><ele>366.0</ele><time>2026-04-19T12:08:18Z</time></trkpt><trkpt lat="43.39580366495354" lon="10.749328742676964"><ele>367.0</ele><time>2026-04-19T12:08:19Z</time></trkpt><trkpt lat="43.39588491831309" lon="10.749343558342385"><ele>368.0</ele><time>2026-04-19T12:08:20Z</time></trkpt><trkpt lat="43.39597078689335" lon="10.749315808434767"><ele>369.0</ele><time>2026-04-19T12:08:21Z</time></trkpt><trkpt lat="43.39605491876183" lon="10.749284206059118"><ele>370.0</ele><time>2026-04-19T12:08:22Z</time></trkpt><trkpt lat="43.39614073133541" lon="10.749251972366464"><ele>371.0</ele><time>2026-04-19T12:08:23Z</time></trkpt><trkpt lat="43.3962297872028" lon="10.749218520404504"><ele>372.0</ele><time>2026-04-19T12:08:24Z</time></trkpt><trkpt lat="43.39631911347736" lon="10.749184966867583"><ele>370.0</ele><time>2026-04-19T12:08:25Z</time></trkpt><trkpt lat="43.39640891780319" lon="10.749151111075719"><ele>368.0</ele><time>2026-04-19T12:08:26Z</time></trkpt><trkpt lat="43.39649750693888" lon="10.74911671924244"><ele>366.0</ele><time>2026-04-19T12:08:27Z</time></trkpt><trkpt lat="43.396584261891164" lon="10.74908303953639"><ele>364.0</ele><time>2026-04-19T12:08:28Z</time></trkpt><trkpt lat="43.39666873015932" lon="10.749050684436575"><ele>362.0</ele><time>2026-04-19T12:08:29Z</time></trkpt><trkpt lat="43.39675274527386" lon="10.749018530520216"><ele>362.0</ele><time>2026-04-19T12:08:30Z</time></trkpt><trkpt lat="43.39683623534688" lon="10.74898657748946"><ele>362.0</ele><time>2026-04-19T12:08:31Z</time></trkpt><trkpt lat="43.396918648368526" lon="10.748955912141065"><ele>362.0</ele><time>2026-04-19T12:08:32Z</time></trkpt><trkpt lat="43.396999457206576" lon="10.748925992418096"><ele>362.0</ele><time>2026-04-19T12:08:33Z</time></trkpt><trkpt lat="43.397080073722876" lon="10.748896250149674"><ele>362.0</ele><time>2026-04-19T12:08:34Z</time></trkpt><trkpt lat="43.397159938157614" lon="10.748869684560077"><ele>362.0</ele><time>2026-04-19T12:08:35Z</time></trkpt><trkpt lat="43.39724181570095" lon="10.74884269331424"><ele>360.5</ele><time>2026-04-19T12:08:36Z</time></trkpt><trkpt lat="43.39732410037987" lon="10.748815567849402"><ele>359.0</ele><time>2026-04-19T12:08:37Z</time></trkpt><trkpt lat="43.39740364186014" lon="10.748789346717908"><ele>357.5</ele><time>2026-04-19T12:08:38Z</time></trkpt><trkpt lat="43.397482125401154" lon="10.748763474323207"><ele>356.0</ele><time>2026-04-19T12:08:39Z</time></trkpt><trkpt lat="43.397554690044075" lon="10.748739328427773"><ele>354.5</ele><time>2026-04-19T12:08:40Z</time></trkpt><trkpt lat="43.39765243069649" lon="10.748740469740873"><ele>353.0</ele><time>2026-04-19T12:08:42Z</time></trkpt><trkpt lat="43.39766714796558" lon="10.74889022815645"><ele>353.0</ele><time>2026-04-19T12:08:44Z</time></trkpt><trkpt lat="43.39761020638424" lon="10.748944845463532"><ele>353.0</ele><time>2026-04-19T12:08:45Z</time></trkpt><trkpt lat="43.397540367512335" lon="10.748958969773131"><ele>353.0</ele><time>2026-04-19T12:08:46Z</time></trkpt><trkpt lat="43.397477910323644" lon="10.748978815780072"><ele>353.0</ele><time>2026-04-19T12:08:47Z</time></trkpt><trkpt lat="43.39741489424576" lon="10.7490034318198"><ele>353.0</ele><time>2026-04-19T12:08:48Z</time></trkpt><trkpt lat="43.3973554652816" lon="10.74904255443905"><ele>353.0</ele><time>2026-04-19T12:08:49Z</time></trkpt><trkpt lat="43.39724588211642" lon="10.749113419190094"><ele>355.25</ele><time>2026-04-19T12:08:51Z</time></trkpt><trkpt lat="43.39713789605104" lon="10.74917496178414"><ele>357.5</ele><time>2026-04-19T12:08:53Z</time></trkpt><trkpt lat="43.397035080232016" lon="10.749243389081757"><ele>359.75</ele><time>2026-04-19T12:08:55Z</time></trkpt><trkpt lat="43.39693484305634" lon="10.749325741506302"><ele>362.0</ele><time>2026-04-19T12:08:57Z</time></trkpt><trkpt lat="43.39690951882305" lon="10.749494273196063"><ele>358.1666666666667</ele><time>2026-04-19T12:08:59Z</time></trkpt><trkpt lat="43.396973396512706" lon="10.749568941473182"><ele>354.33333333333337</ele><time>2026-04-19T12:09:00Z</time></trkpt><trkpt lat="43.39704857485931" lon="10.749560001631146"><ele>350.5</ele><time>2026-04-19T12:09:01Z</time></trkpt><trkpt lat="43.39712819595062" lon="10.74951095528803"><ele>346.6666666666667</ele><time>2026-04-19T12:09:02Z</time></trkpt><trkpt lat="43.39721645327317" lon="10.749475046558508"><ele>342.8333333333333</ele><time>2026-04-19T12:09:03Z</time></trkpt><trkpt lat="43.397313545265064" lon="10.74944258428114"><ele>339.0</ele><time>2026-04-19T12:09:04Z</time></trkpt><trkpt lat="43.39742227453219" lon="10.749401328622561"><ele>342.5</ele><time>2026-04-19T12:09:05Z</time></trkpt><trkpt lat="43.39753950931037" lon="10.749360237803163"><ele>346.0</ele><time>2026-04-19T12:09:06Z</time></trkpt><trkpt lat="43.39766752472888" lon="10.749319900176129"><ele>349.5</ele><time>2026-04-19T12:09:07Z</time></trkpt><trkpt lat="43.3977991739078" lon="10.749271950814727"><ele>353.0</ele><time>2026-04-19T12:09:08Z</time></trkpt><trkpt lat="43.39792720100052" lon="10.749218049639872"><ele>348.5</ele><time>2026-04-19T12:09:09Z</time></trkpt><trkpt lat="43.39805480122136" lon="10.749157180733974"><ele>344.0</ele><time>2026-04-19T12:09:10Z</time></trkpt><trkpt lat="43.39818022996866" lon="10.74908765376097"><ele>339.5</ele><time>2026-04-19T12:09:11Z</time></trkpt><trkpt lat="43.398299291848154" lon="10.749006956738976"><ele>335.0</ele><time>2026-04-19T12:09:12Z</time></trkpt><trkpt lat="43.398413310571485" lon="10.748918175583398"><ele>335.0</ele><time>2026-04-19T12:09:13Z</time></trkpt><trkpt lat="43.39852548908295" lon="10.7488332891889"><ele>335.0</ele><time>2026-04-19T12:09:14Z</time></trkpt><trkpt lat="43.39863808826195" lon="10.748751725446452"><ele>335.0</ele><time>2026-04-19T12:09:15Z</time></trkpt><trkpt lat="43.398746654307736" lon="10.748660381479354"><ele>335.0</ele><time>2026-04-19T12:09:16Z</time></trkpt><trkpt lat="43.39885248207047" lon="10.748571057745906"><ele>334.25</ele><time>2026-04-19T12:09:17Z</time></trkpt><trkpt lat="43.3989505597345" lon="10.748471316802469"><ele>333.5</ele><time>2026-04-19T12:09:18Z</time></trkpt><trkpt lat="43.39905029225429" lon="10.748372727334136"><ele>332.75</ele><time>2026-04-19T12:09:19Z</time></trkpt><trkpt lat="43.399116490935484" lon="10.748240976928145"><ele>332.0</ele><time>2026-04-19T12:09:20Z</time></trkpt><trkpt lat="43.39916500957908" lon="10.748120553169"><ele>332.0</ele><time>2026-04-19T12:09:21.001Z</time></trkpt><trkpt lat="43.39920795134695" lon="10.74802479714193"><ele>332.0</ele><time>2026-04-19T12:09:22.001Z</time></trkpt><trkpt lat="43.399288181360326" lon="10.74798189266915"><ele>332.0</ele><time>2026-04-19T12:09:23.001Z</time></trkpt><trkpt lat="43.3993764741027" lon="10.747992180077178"><ele>332.0</ele><time>2026-04-19T12:09:24.001Z</time></trkpt><trkpt lat="43.399451207859926" lon="10.748055042106973"><ele>332.0</ele><time>2026-04-19T12:09:25.001Z</time></trkpt><trkpt lat="43.39951193514515" lon="10.74815354881992"><ele>332.0</ele><time>2026-04-19T12:09:26.001Z</time></trkpt><trkpt lat="43.39955783029291" lon="10.748273923652777"><ele>332.0</ele><time>2026-04-19T12:09:27.001Z</time></trkpt><trkpt lat="43.39960235065476" lon="10.7484090180725"><ele>332.0</ele><time>2026-04-19T12:09:28.001Z</time></trkpt><trkpt lat="43.39965025796923" lon="10.748549324336906"><ele>332.0</ele><time>2026-04-19T12:09:29.001Z</time></trkpt><trkpt lat="43.399698884448036" lon="10.748687260763694"><ele>332.0</ele><time>2026-04-19T12:09:30.001Z</time></trkpt><trkpt lat="43.39974868816548" lon="10.748826121527694"><ele>332.0</ele><time>2026-04-19T12:09:31.001Z</time></trkpt><trkpt lat="43.39980132988535" lon="10.748961038403378"><ele>327.6</ele><time>2026-04-19T12:09:32.001Z</time></trkpt><trkpt lat="43.39986920576232" lon="10.749068610217508"><ele>323.20000000000005</ele><time>2026-04-19T12:09:33.001Z</time></trkpt><trkpt lat="43.399958177609086" lon="10.749144685587428"><ele>318.8</ele><time>2026-04-19T12:09:34.001Z</time></trkpt><trkpt lat="43.4000628998539" lon="10.749188824789877"><ele>314.4</ele><time>2026-04-19T12:09:35.001Z</time></trkpt><trkpt lat="43.400174933478176" lon="10.749219925212907"><ele>310.0</ele><time>2026-04-19T12:09:36.001Z</time></trkpt><trkpt lat="43.40029444569163" lon="10.749226617502705"><ele>310.0</ele><time>2026-04-19T12:09:37.001Z</time></trkpt><trkpt lat="43.40041830163229" lon="10.749217373470987"><ele>310.0</ele><time>2026-04-19T12:09:38.001Z</time></trkpt><trkpt lat="43.40054325779227" lon="10.749188000908552"><ele>310.0</ele><time>2026-04-19T12:09:39.001Z</time></trkpt><trkpt lat="43.40066445915116" lon="10.749129128265063"><ele>310.0</ele><time>2026-04-19T12:09:40.001Z</time></trkpt><trkpt lat="43.400773297714295" lon="10.749039299039087"><ele>309.75</ele><time>2026-04-19T12:09:41.001Z</time></trkpt><trkpt lat="43.400866052517806" lon="10.748919599579562"><ele>309.5</ele><time>2026-04-19T12:09:42.001Z</time></trkpt><trkpt lat="43.40095825080049" lon="10.748790653200224"><ele>309.25</ele><time>2026-04-19T12:09:43.001Z</time></trkpt><trkpt lat="43.401025663721505" lon="10.748636604580142"><ele>309.0</ele><time>2026-04-19T12:09:44.001Z</time></trkpt><trkpt lat="43.40108645453696" lon="10.748478286604463"><ele>309.0</ele><time>2026-04-19T12:09:44.999Z</time></trkpt><trkpt lat="43.401177841215045" lon="10.748348349875945"><ele>309.0</ele><time>2026-04-19T12:09:45.999Z</time></trkpt><trkpt lat="43.40128221579415" lon="10.74823481997319"><ele>309.0</ele><time>2026-04-19T12:09:46.999Z</time></trkpt><trkpt lat="43.40139755047162" lon="10.748141004179747"><ele>309.0</ele><time>2026-04-19T12:09:47.999Z</time></trkpt><trkpt lat="43.40152492124211" lon="10.748071389355323"><ele>306.75</ele><time>2026-04-19T12:09:48.999Z</time></trkpt><trkpt lat="43.40165912393932" lon="10.748033595186508"><ele>304.5</ele><time>2026-04-19T12:09:49.999Z</time></trkpt><trkpt lat="43.401794751414656" lon="10.748045271658423"><ele>302.25</ele><time>2026-04-19T12:09:50.999Z</time></trkpt><trkpt lat="43.401924727326175" lon="10.74809887398448"><ele>300.0</ele><time>2026-04-19T12:09:51.999Z</time></trkpt><trkpt lat="43.40205240209884" lon="10.748171584667714"><ele>298.75</ele><time>2026-04-19T12:09:52.999Z</time></trkpt><trkpt lat="43.40217225075988" lon="10.748277138665344"><ele>297.5</ele><time>2026-04-19T12:09:53.999Z</time></trkpt><trkpt lat="43.40227102697266" lon="10.748421659660222"><ele>296.25</ele><time>2026-04-19T12:09:54.999Z</time></trkpt><trkpt lat="43.40233992292239" lon="10.748587911481243"><ele>295.0</ele><time>2026-04-19T12:09:55.999Z</time></trkpt><trkpt lat="43.40238521263116" lon="10.748763082871127"><ele>295.0</ele><time>2026-04-19T12:09:56.999Z</time></trkpt><trkpt lat="43.402436769638186" lon="10.748907759571392"><ele>295.0</ele><time>2026-04-19T12:09:57.999Z</time></trkpt><trkpt lat="43.4025124578904" lon="10.74903565275599"><ele>295.0</ele><time>2026-04-19T12:09:58.999Z</time></trkpt><trkpt lat="43.402609818302636" lon="10.749151412142508"><ele>295.0</ele><time>2026-04-19T12:09:59.999Z</time></trkpt><trkpt lat="43.402713842400615" lon="10.749263945249487"><ele>295.0</ele><time>2026-04-19T12:10:00.999Z</time></trkpt><trkpt lat="43.40283644119398" lon="10.749347070186298"><ele>295.0</ele><time>2026-04-19T12:10:01.999Z</time></trkpt><trkpt lat="43.402976309955335" lon="10.749390500163834"><ele>295.0</ele><time>2026-04-19T12:10:02.999Z</time></trkpt><trkpt lat="43.403115799357835" lon="10.749417712903591"><ele>295.0</ele><time>2026-04-19T12:10:03.999Z</time></trkpt><trkpt lat="43.40324156167413" lon="10.74945955090161"><ele>293.25</ele><time>2026-04-19T12:10:04.999Z</time></trkpt><trkpt lat="43.40334786040242" lon="10.749526691344535"><ele>291.5</ele><time>2026-04-19T12:10:05.999Z</time></trkpt><trkpt lat="43.403438358511046" lon="10.749635828246072"><ele>289.75</ele><time>2026-04-19T12:10:06.999Z</time></trkpt><trkpt lat="43.40351433026795" lon="10.749777494236708"><ele>288.0</ele><time>2026-04-19T12:10:07.999Z</time></trkpt><trkpt lat="43.403592686371674" lon="10.749925689615235"><ele>288.0</ele><time>2026-04-19T12:10:08.999Z</time></trkpt><trkpt lat="43.40369057025564" lon="10.750067188394643"><ele>288.0</ele><time>2026-04-19T12:10:09.999Z</time></trkpt><trkpt lat="43.40379769155381" lon="10.750204312938243"><ele>288.0</ele><time>2026-04-19T12:10:10.999Z</time></trkpt><trkpt lat="43.40389700782332" lon="10.750340049564725"><ele>288.0</ele><time>2026-04-19T12:10:11.999Z</time></trkpt><trkpt lat="43.40396953218427" lon="10.750488346356663"><ele>287.5</ele><time>2026-04-19T12:10:12.999Z</time></trkpt><trkpt lat="43.40401250268045" lon="10.750666513558613"><ele>287.0</ele><time>2026-04-19T12:10:13.999Z</time></trkpt><trkpt lat="43.404030321914625" lon="10.75086100903518"><ele>286.5</ele><time>2026-04-19T12:10:15Z</time></trkpt><trkpt lat="43.40403280960064" lon="10.751057855758505"><ele>286.0</ele><time>2026-04-19T12:10:16Z</time></trkpt><trkpt lat="43.40404003622879" lon="10.7512625787776"><ele>283.3333333333333</ele><time>2026-04-19T12:10:17Z</time></trkpt><trkpt lat="43.404049243735656" lon="10.75147888802725"><ele>280.6666666666667</ele><time>2026-04-19T12:10:18Z</time></trkpt><trkpt lat="43.40406397641745" lon="10.75170429262728"><ele>278.0</ele><time>2026-04-19T12:10:19Z</time></trkpt><trkpt lat="43.404076924723974" lon="10.751931013991694"><ele>275.6666666666667</ele><time>2026-04-19T12:10:20Z</time></trkpt><trkpt lat="43.40409047098929" lon="10.752161720948864"><ele>273.3333333333333</ele><time>2026-04-19T12:10:21Z</time></trkpt><trkpt lat="43.40411082554705" lon="10.75238567289834"><ele>271.0</ele><time>2026-04-19T12:10:22Z</time></trkpt><trkpt lat="43.40415478240647" lon="10.752610154143216"><ele>268.66666666666663</ele><time>2026-04-19T12:10:23Z</time></trkpt><trkpt lat="43.404218137488485" lon="10.75282577834312"><ele>266.3333333333333</ele><time>2026-04-19T12:10:24Z</time></trkpt><trkpt lat="43.40429034594699" lon="10.753016473154043"><ele>264.0</ele><time>2026-04-19T12:10:25Z</time></trkpt><trkpt lat="43.404371782669195" lon="10.753188728892926"><ele>264.0</ele><time>2026-04-19T12:10:26Z</time></trkpt><trkpt lat="43.40445857487058" lon="10.753352403178166"><ele>264.0</ele><time>2026-04-19T12:10:27Z</time></trkpt><trkpt lat="43.404555510399916" lon="10.753505710394816"><ele>264.0</ele><time>2026-04-19T12:10:28Z</time></trkpt><trkpt lat="43.4046673132962" lon="10.753645140066808"><ele>264.0</ele><time>2026-04-19T12:10:29Z</time></trkpt><trkpt lat="43.40478202656864" lon="10.753751746441184"><ele>262.75</ele><time>2026-04-19T12:10:30Z</time></trkpt><trkpt lat="43.40489997165288" lon="10.753832536374489"><ele>261.5</ele><time>2026-04-19T12:10:31Z</time></trkpt><trkpt lat="43.405031417377266" lon="10.753868069987126"><ele>260.25</ele><time>2026-04-19T12:10:32Z</time></trkpt><trkpt lat="43.405163499678956" lon="10.753893615860187"><ele>259.0</ele><time>2026-04-19T12:10:33Z</time></trkpt><trkpt lat="43.405293892120525" lon="10.753930719955129"><ele>259.0</ele><time>2026-04-19T12:10:34Z</time></trkpt><trkpt lat="43.40541945273197" lon="10.754000184364475"><ele>259.0</ele><time>2026-04-19T12:10:35Z</time></trkpt><trkpt lat="43.40553539589326" lon="10.754099574281813"><ele>259.0</ele><time>2026-04-19T12:10:36Z</time></trkpt><trkpt lat="43.405627620665435" lon="10.754223823260196"><ele>259.0</ele><time>2026-04-19T12:10:37Z</time></trkpt><trkpt lat="43.4056837023652" lon="10.754380447846396"><ele>257.75</ele><time>2026-04-19T12:10:38Z</time></trkpt><trkpt lat="43.40572468798443" lon="10.754544848342194"><ele>256.5</ele><time>2026-04-19T12:10:39Z</time></trkpt><trkpt lat="43.40576394979299" lon="10.754704783482513"><ele>255.25</ele><time>2026-04-19T12:10:40Z</time></trkpt><trkpt lat="43.40581295033047" lon="10.754854328203136"><ele>254.0</ele><time>2026-04-19T12:10:41Z</time></trkpt><trkpt lat="43.40587111877094" lon="10.75499226033112"><ele>254.0</ele><time>2026-04-19T12:10:42Z</time></trkpt><trkpt lat="43.40594346150703" lon="10.755116421566036"><ele>253.99999999999997</ele><time>2026-04-19T12:10:43Z</time></trkpt><trkpt lat="43.40603027475591" lon="10.755220636901642"><ele>253.99999999999997</ele><time>2026-04-19T12:10:44Z</time></trkpt><trkpt lat="43.40611334619061" lon="10.755299129855846"><ele>254.0</ele><time>2026-04-19T12:10:45Z</time></trkpt><trkpt lat="43.40618770570768" lon="10.755359514580325"><ele>254.0</ele><time>2026-04-19T12:10:46Z</time></trkpt><trkpt lat="43.406246941994254" lon="10.755402469019009"><ele>252.39999999999998</ele><time>2026-04-19T12:10:47Z</time></trkpt><trkpt lat="43.40631436604337" lon="10.755490473761297"><ele>250.79999999999998</ele><time>2026-04-19T12:10:49Z</time></trkpt><trkpt lat="43.40635043032876" lon="10.755570672265605"><ele>249.20000000000002</ele><time>2026-04-19T12:10:52Z</time></trkpt><trkpt lat="43.40646476168877" lon="10.755567003058758"><ele>247.60000000000002</ele><time>2026-04-19T12:10:55Z</time></trkpt><trkpt lat="43.40656917772458" lon="10.75551217803237"><ele>246.0</ele><time>2026-04-19T12:10:57Z</time></trkpt><trkpt lat="43.40669678277668" lon="10.755463652653447"><ele>246.0</ele><time>2026-04-19T12:10:59Z</time></trkpt><trkpt lat="43.40675684278354" lon="10.75540544828213"><ele>246.0</ele><time>2026-04-19T12:11:00Z</time></trkpt><trkpt lat="43.40680801344807" lon="10.75533341690417"><ele>246.0</ele><time>2026-04-19T12:11:01Z</time></trkpt><trkpt lat="43.40687640240344" lon="10.755286369530756"><ele>246.0</ele><time>2026-04-19T12:11:02Z</time></trkpt><trkpt lat="43.4069481251758" lon="10.755232961808126"><ele>246.0</ele><time>2026-04-19T12:11:03Z</time></trkpt><trkpt lat="43.407029691889605" lon="10.755183784773198"><ele>246.0</ele><time>2026-04-19T12:11:04Z</time></trkpt><trkpt lat="43.407129419306386" lon="10.75517804514017"><ele>248.8</ele><time>2026-04-19T12:11:05Z</time></trkpt><trkpt lat="43.4072154541986" lon="10.755125384818134"><ele>251.60000000000002</ele><time>2026-04-19T12:11:06Z</time></trkpt><trkpt lat="43.40730061411723" lon="10.755075575446996"><ele>254.4</ele><time>2026-04-19T12:11:07Z</time></trkpt><trkpt lat="43.40739002928634" lon="10.755029082271896"><ele>257.2</ele><time>2026-04-19T12:11:08Z</time></trkpt><trkpt lat="43.4074749090967" lon="10.754984872620073"><ele>260.0</ele><time>2026-04-19T12:11:09Z</time></trkpt><trkpt lat="43.40755528399388" lon="10.75493566214069"><ele>260.0</ele><time>2026-04-19T12:11:10Z</time></trkpt><trkpt lat="43.40763122646001" lon="10.754880863533844"><ele>260.0</ele><time>2026-04-19T12:11:11Z</time></trkpt><trkpt lat="43.40770458216478" lon="10.754826164748852"><ele>260.0</ele><time>2026-04-19T12:11:12Z</time></trkpt><trkpt lat="43.407771395590395" lon="10.754762732212962"><ele>260.0</ele><time>2026-04-19T12:11:13Z</time></trkpt><trkpt lat="43.407838222273305" lon="10.754721269486682"><ele>260.0</ele><time>2026-04-19T12:11:14Z</time></trkpt><trkpt lat="43.40790411156411" lon="10.754682296918693"><ele>260.0</ele><time>2026-04-19T12:11:15Z</time></trkpt><trkpt lat="43.407968265797706" lon="10.754642301883521"><ele>261.1666666666667</ele><time>2026-04-19T12:11:16Z</time></trkpt><trkpt lat="43.40803135957019" lon="10.754598350953586"><ele>262.33333333333337</ele><time>2026-04-19T12:11:17Z</time></trkpt><trkpt lat="43.40809172896339" lon="10.754564054329721"><ele>263.5</ele><time>2026-04-19T12:11:18Z</time></trkpt><trkpt lat="43.408200498121076" lon="10.75450196090302"><ele>264.6666666666667</ele><time>2026-04-19T12:11:20.001Z</time></trkpt><trkpt lat="43.40831087492904" lon="10.754436163517715"><ele>265.8333333333333</ele><time>2026-04-19T12:11:22.001Z</time></trkpt><trkpt lat="43.40837155805325" lon="10.754397311054866"><ele>267.0</ele><time>2026-04-19T12:11:23.001Z</time></trkpt><trkpt lat="43.40843699229105" lon="10.754358449380943"><ele>267.0</ele><time>2026-04-19T12:11:24.001Z</time></trkpt><trkpt lat="43.40851056728705" lon="10.754342548556494"><ele>267.0</ele><time>2026-04-19T12:11:25.001Z</time></trkpt><trkpt lat="43.40858270619631" lon="10.754309033207091"><ele>267.0</ele><time>2026-04-19T12:11:26.001Z</time></trkpt><trkpt lat="43.40865516417887" lon="10.754276955241345"><ele>267.0</ele><time>2026-04-19T12:11:27.001Z</time></trkpt><trkpt lat="43.408728768675594" lon="10.754244370077764"><ele>267.0</ele><time>2026-04-19T12:11:28.001Z</time></trkpt><trkpt lat="43.408804228198484" lon="10.754207742542151"><ele>267.0</ele><time>2026-04-19T12:11:29.001Z</time></trkpt><trkpt lat="43.40887710517554" lon="10.754163616307638"><ele>265.1666666666667</ele><time>2026-04-19T12:11:30.001Z</time></trkpt><trkpt lat="43.40894124333365" lon="10.754100653062123"><ele>263.3333333333333</ele><time>2026-04-19T12:11:31.001Z</time></trkpt><trkpt lat="43.40901258755439" lon="10.754068748431155"><ele>261.5</ele><time>2026-04-19T12:11:32.001Z</time></trkpt><trkpt lat="43.40908577740685" lon="10.754056241469844"><ele>259.66666666666663</ele><time>2026-04-19T12:11:33.001Z</time></trkpt><trkpt lat="43.40915429634591" lon="10.754053870146016"><ele>257.8333333333333</ele><time>2026-04-19T12:11:34.001Z</time></trkpt><trkpt lat="43.40921727770373" lon="10.754057917755821"><ele>256.0</ele><time>2026-04-19T12:11:35.001Z</time></trkpt><trkpt lat="43.40934291971952" lon="10.754062803931314"><ele>256.0</ele><time>2026-04-19T12:11:37.001Z</time></trkpt><trkpt lat="43.4094129130801" lon="10.754051978442984"><ele>255.99999999999997</ele><time>2026-04-19T12:11:38.001Z</time></trkpt><trkpt lat="43.40948565300083" lon="10.754033441466039"><ele>256.0</ele><time>2026-04-19T12:11:39.001Z</time></trkpt><trkpt lat="43.40956124517877" lon="10.754032102260153"><ele>256.0</ele><time>2026-04-19T12:11:40.001Z</time></trkpt><trkpt lat="43.40962725680427" lon="10.753984907054354"><ele>255.99999999999997</ele><time>2026-04-19T12:11:41.001Z</time></trkpt><trkpt lat="43.40969747239724" lon="10.753959677049595"><ele>256.0</ele><time>2026-04-19T12:11:42.001Z</time></trkpt><trkpt lat="43.4097682078453" lon="10.753938780702317"><ele>256.0</ele><time>2026-04-19T12:11:43.001Z</time></trkpt><trkpt lat="43.40983671523376" lon="10.753910163827165"><ele>255.57142857142856</ele><time>2026-04-19T12:11:44.001Z</time></trkpt><trkpt lat="43.40990103726127" lon="10.753867558510093"><ele>255.1428571428571</ele><time>2026-04-19T12:11:45.001Z</time></trkpt><trkpt lat="43.4099699629443" lon="10.753839417979435"><ele>254.71428571428572</ele><time>2026-04-19T12:11:46.001Z</time></trkpt><trkpt lat="43.41003325720371" lon="10.75377710513629"><ele>254.28571428571428</ele><time>2026-04-19T12:11:47.001Z</time></trkpt><trkpt lat="43.410089670071" lon="10.753708564809857"><ele>253.85714285714286</ele><time>2026-04-19T12:11:48.001Z</time></trkpt><trkpt lat="43.410146829586736" lon="10.753646908753373"><ele>253.42857142857144</ele><time>2026-04-19T12:11:49.001Z</time></trkpt><trkpt lat="43.410211397914786" lon="10.753584331383033"><ele>253.00000000000003</ele><time>2026-04-19T12:11:50.001Z</time></trkpt><trkpt lat="43.41027642225037" lon="10.753531484050281"><ele>252.99999999999997</ele><time>2026-04-19T12:11:51Z</time></trkpt><trkpt lat="43.41035115836199" lon="10.753476472786437"><ele>253.0</ele><time>2026-04-19T12:11:52Z</time></trkpt><trkpt lat="43.410434969998114" lon="10.753455800141868"><ele>253.0</ele><time>2026-04-19T12:11:53Z</time></trkpt><trkpt lat="43.41052076225812" lon="10.75345003878237"><ele>253.0</ele><time>2026-04-19T12:11:54Z</time></trkpt><trkpt lat="43.41061133212072" lon="10.753455162724762"><ele>252.99999999999997</ele><time>2026-04-19T12:11:55Z</time></trkpt><trkpt lat="43.41070164233349" lon="10.753470070865724"><ele>253.0</ele><time>2026-04-19T12:11:56Z</time></trkpt><trkpt lat="43.41078511568452" lon="10.753487271147254"><ele>251.8571428571429</ele><time>2026-04-19T12:11:57Z</time></trkpt><trkpt lat="43.41086442651074" lon="10.753501953031222"><ele>250.71428571428572</ele><time>2026-04-19T12:11:58Z</time></trkpt><trkpt lat="43.41093965757621" lon="10.753512352746597"><ele>249.57142857142858</ele><time>2026-04-19T12:11:59Z</time></trkpt><trkpt lat="43.41101241797594" lon="10.753516401266575"><ele>248.42857142857144</ele><time>2026-04-19T12:12:00Z</time></trkpt><trkpt lat="43.411083765471545" lon="10.753511431552326"><ele>247.28571428571428</ele><time>2026-04-19T12:12:01Z</time></trkpt><trkpt lat="43.411155915714154" lon="10.753490202886123"><ele>246.14285714285714</ele><time>2026-04-19T12:12:02Z</time></trkpt><trkpt lat="43.411224991218766" lon="10.753457903336063"><ele>245.0</ele><time>2026-04-19T12:12:03Z</time></trkpt><trkpt lat="43.41129262212723" lon="10.753427065558366"><ele>244.28571428571428</ele><time>2026-04-19T12:12:04Z</time></trkpt><trkpt lat="43.41135737480016" lon="10.753400339661795"><ele>243.57142857142856</ele><time>2026-04-19T12:12:05Z</time></trkpt><trkpt lat="43.41142389697432" lon="10.753375759174869"><ele>242.85714285714286</ele><time>2026-04-19T12:12:06Z</time></trkpt><trkpt lat="43.411493437603454" lon="10.753344530822456"><ele>242.14285714285714</ele><time>2026-04-19T12:12:07Z</time></trkpt><trkpt lat="43.41156583346098" lon="10.75331703008276"><ele>241.42857142857142</ele><time>2026-04-19T12:12:08Z</time></trkpt><trkpt lat="43.41164199269375" lon="10.753296214898159"><ele>240.71428571428572</ele><time>2026-04-19T12:12:09Z</time></trkpt><trkpt lat="43.41172223751756" lon="10.753283142259125"><ele>240.0</ele><time>2026-04-19T12:12:10Z</time></trkpt><trkpt lat="43.41180744408233" lon="10.753280198002853"><ele>240.0</ele><time>2026-04-19T12:12:11Z</time></trkpt><trkpt lat="43.411893926226846" lon="10.753286018723132"><ele>240.0</ele><time>2026-04-19T12:12:12Z</time></trkpt><trkpt lat="43.41197984579992" lon="10.75329540783548"><ele>240.0</ele><time>2026-04-19T12:12:13Z</time></trkpt><trkpt lat="43.41206177053697" lon="10.75330758172791"><ele>240.0</ele><time>2026-04-19T12:12:14Z</time></trkpt><trkpt lat="43.41213898747076" lon="10.753320908949679"><ele>240.0</ele><time>2026-04-19T12:12:15Z</time></trkpt><trkpt lat="43.412212865450755" lon="10.75333074235657"><ele>240.0</ele><time>2026-04-19T12:12:16Z</time></trkpt><trkpt lat="43.41228361007806" lon="10.753337106122357"><ele>239.2</ele><time>2026-04-19T12:12:17Z</time></trkpt><trkpt lat="43.41235163421169" lon="10.753340377169888"><ele>238.4</ele><time>2026-04-19T12:12:18Z</time></trkpt><trkpt lat="43.41241488539138" lon="10.753343607690132"><ele>237.60000000000002</ele><time>2026-04-19T12:12:19Z</time></trkpt><trkpt lat="43.41253331042107" lon="10.753354786984966"><ele>236.8</ele><time>2026-04-19T12:12:21Z</time></trkpt><trkpt lat="43.412653637473646" lon="10.753364432260414"><ele>236.0</ele><time>2026-04-19T12:12:23Z</time></trkpt><trkpt lat="43.41276273488906" lon="10.753369833164944"><ele>236.0</ele><time>2026-04-19T12:12:25Z</time></trkpt><trkpt lat="43.41286530498048" lon="10.753378010277677"><ele>236.00000000000003</ele><time>2026-04-19T12:12:27Z</time></trkpt><trkpt lat="43.412960899686084" lon="10.753383364419635"><ele>236.00000000000003</ele><time>2026-04-19T12:12:29Z</time></trkpt><trkpt lat="43.413045411513906" lon="10.753389590883124"><ele>236.0</ele><time>2026-04-19T12:12:31Z</time></trkpt><trkpt lat="43.413126495831584" lon="10.753392010390359"><ele>236.0</ele><time>2026-04-19T12:12:33Z</time></trkpt><trkpt lat="43.413226776554765" lon="10.753392358962449"><ele>235.8</ele><time>2026-04-19T12:12:35Z</time></trkpt><trkpt lat="43.41335070229598" lon="10.75340430346671"><ele>235.60000000000002</ele><time>2026-04-19T12:12:37Z</time></trkpt><trkpt lat="43.413415746348335" lon="10.753407507723711"><ele>235.4</ele><time>2026-04-19T12:12:38Z</time></trkpt><trkpt lat="43.41353003394858" lon="10.753405190141104"><ele>235.2</ele><time>2026-04-19T12:12:40.001Z</time></trkpt><trkpt lat="43.413640794661035" lon="10.753417032056632"><ele>235.0</ele><time>2026-04-19T12:12:42.001Z</time></trkpt><trkpt lat="43.41374497059991" lon="10.753423938529977"><ele>234.5</ele><time>2026-04-19T12:12:44.001Z</time></trkpt><trkpt lat="43.41384719316822" lon="10.753385492861776"><ele>234.0</ele><time>2026-04-19T12:12:46.001Z</time></trkpt><trkpt lat="43.41395986454933" lon="10.75332233792288"><ele>233.5</ele><time>2026-04-19T12:12:48.001Z</time></trkpt><trkpt lat="43.41406391704104" lon="10.753248195096683"><ele>233.0</ele><time>2026-04-19T12:12:50.001Z</time></trkpt><trkpt lat="43.41416980009016" lon="10.753227617807735"><ele>233.0</ele><time>2026-04-19T12:12:52.001Z</time></trkpt><trkpt lat="43.41426709635626" lon="10.753218441044476"><ele>233.0</ele><time>2026-04-19T12:12:54.001Z</time></trkpt><trkpt lat="43.41436399449132" lon="10.753208400394517"><ele>233.0</ele><time>2026-04-19T12:12:56.001Z</time></trkpt><trkpt lat="43.41446009634203" lon="10.753232323406992"><ele>233.0</ele><time>2026-04-19T12:12:58.001Z</time></trkpt><trkpt lat="43.41456542340889" lon="10.753254015850825"><ele>233.0</ele><time>2026-04-19T12:13:00.001Z</time></trkpt><trkpt lat="43.41469539898421" lon="10.753272498784273"><ele>231.85714285714286</ele><time>2026-04-19T12:13:02.001Z</time></trkpt><trkpt lat="43.41476381210591" lon="10.75328216000359"><ele>230.71428571428572</ele><time>2026-04-19T12:13:03.001Z</time></trkpt><trkpt lat="43.41483306998403" lon="10.75328358697528"><ele>229.57142857142858</ele><time>2026-04-19T12:13:04.001Z</time></trkpt><trkpt lat="43.41490471900749" lon="10.753281720438556"><ele>228.42857142857144</ele><time>2026-04-19T12:13:05.001Z</time></trkpt><trkpt lat="43.414973614764534" lon="10.753282788890258"><ele>227.28571428571428</ele><time>2026-04-19T12:13:06.001Z</time></trkpt><trkpt lat="43.41504389879556" lon="10.753283453336048"><ele>226.14285714285717</ele><time>2026-04-19T12:13:07.001Z</time></trkpt><trkpt lat="43.415112461319126" lon="10.753281927197559"><ele>225.00000000000003</ele><time>2026-04-19T12:13:08.001Z</time></trkpt><trkpt lat="43.415182227229366" lon="10.753282039925683"><ele>225.00000000000003</ele><time>2026-04-19T12:13:09.001Z</time></trkpt><trkpt lat="43.415251106278106" lon="10.753283706972207"><ele>225.0</ele><time>2026-04-19T12:13:10.001Z</time></trkpt><trkpt lat="43.41531735631931" lon="10.753287054424165"><ele>225.00000000000003</ele><time>2026-04-19T12:13:11.001Z</time></trkpt><trkpt lat="43.415380987548545" lon="10.753297099057077"><ele>225.00000000000003</ele><time>2026-04-19T12:13:12.001Z</time></trkpt><trkpt lat="43.41544351378678" lon="10.753322474525547"><ele>225.0</ele><time>2026-04-19T12:13:13.001Z</time></trkpt><trkpt lat="43.41549908703962" lon="10.753365875981316"><ele>225.00000000000003</ele><time>2026-04-19T12:13:14.001Z</time></trkpt><trkpt lat="43.41555371618923" lon="10.753412331597602"><ele>225.00000000000003</ele><time>2026-04-19T12:13:15.001Z</time></trkpt><trkpt lat="43.415608263961325" lon="10.753470967474783"><ele>224.00000000000003</ele><time>2026-04-19T12:13:16.001Z</time></trkpt><trkpt lat="43.41565915882411" lon="10.753533943402271"><ele>223.0</ele><time>2026-04-19T12:13:17.001Z</time></trkpt><trkpt lat="43.41570865135808" lon="10.753602771879486"><ele>222.0</ele><time>2026-04-19T12:13:18.001Z</time></trkpt><trkpt lat="43.415756771576746" lon="10.753672278434118"><ele>221.0</ele><time>2026-04-19T12:13:19.001Z</time></trkpt><trkpt lat="43.41580815618693" lon="10.753746840205066"><ele>220.0</ele><time>2026-04-19T12:13:20.001Z</time></trkpt><trkpt lat="43.41586403732403" lon="10.753816933614624"><ele>219.0</ele><time>2026-04-19T12:13:21.001Z</time></trkpt><trkpt lat="43.41592475782292" lon="10.753883563527092"><ele>218.0</ele><time>2026-04-19T12:13:22.001Z</time></trkpt><trkpt lat="43.415988962728214" lon="10.753947412740528"><ele>217.33333333333334</ele><time>2026-04-19T12:13:23.001Z</time></trkpt><trkpt lat="43.41605359520423" lon="10.754009227080779"><ele>216.66666666666669</ele><time>2026-04-19T12:13:24.001Z</time></trkpt><trkpt lat="43.41612395840426" lon="10.754075199846758"><ele>216.0</ele><time>2026-04-19T12:13:25.001Z</time></trkpt><trkpt lat="43.41619607190524" lon="10.754140127660687"><ele>215.33333333333331</ele><time>2026-04-19T12:13:26.001Z</time></trkpt><trkpt lat="43.41627014763596" lon="10.754205526304196"><ele>214.66666666666666</ele><time>2026-04-19T12:13:27.001Z</time></trkpt><trkpt lat="43.41634765064611" lon="10.754272216219801"><ele>214.0</ele><time>2026-04-19T12:13:28.001Z</time></trkpt><trkpt lat="43.41642161285837" lon="10.754338444892468"><ele>211.99999999999997</ele><time>2026-04-19T12:13:29.001Z</time></trkpt><trkpt lat="43.416491905241784" lon="10.754409054230964"><ele>210.0</ele><time>2026-04-19T12:13:30.001Z</time></trkpt><trkpt lat="43.41655926487244" lon="10.754480187926125"><ele>208.0</ele><time>2026-04-19T12:13:31.001Z</time></trkpt><trkpt lat="43.41662539192579" lon="10.75454995904433"><ele>206.0</ele><time>2026-04-19T12:13:32.001Z</time></trkpt><trkpt lat="43.416689198627324" lon="10.754622754763057"><ele>203.99999999999997</ele><time>2026-04-19T12:13:33.001Z</time></trkpt><trkpt lat="43.41675476929598" lon="10.754695299464048"><ele>202.0</ele><time>2026-04-19T12:13:34.001Z</time></trkpt><trkpt lat="43.416815529882925" lon="10.754777245248851"><ele>201.99999999999997</ele><time>2026-04-19T12:13:35.001Z</time></trkpt><trkpt lat="43.41687762640571" lon="10.754854282612152"><ele>202.0</ele><time>2026-04-19T12:13:36.001Z</time></trkpt><trkpt lat="43.41694431003605" lon="10.754935904266034"><ele>202.0</ele><time>2026-04-19T12:13:37.001Z</time></trkpt><trkpt lat="43.417006781977996" lon="10.75501141822677"><ele>202.0</ele><time>2026-04-19T12:13:38.001Z</time></trkpt><trkpt lat="43.417062493743565" lon="10.755086944347314"><ele>201.99999999999997</ele><time>2026-04-19T12:13:39.001Z</time></trkpt><trkpt lat="43.41710175978139" lon="10.755167480462653"><ele>202.0</ele><time>2026-04-19T12:13:40.001Z</time></trkpt><trkpt lat="43.417116726707626" lon="10.755264678924945"><ele>199.99999999999997</ele><time>2026-04-19T12:13:41.001Z</time></trkpt><trkpt lat="43.41705351509104" lon="10.755367983063197"><ele>198.0</ele><time>2026-04-19T12:13:44.001Z</time></trkpt><trkpt lat="43.417002638335944" lon="10.7554285171832"><ele>196.0</ele><time>2026-04-19T12:13:45.001Z</time></trkpt><trkpt lat="43.41695204308601" lon="10.755487726823256"><ele>194.0</ele><time>2026-04-19T12:13:46.001Z</time></trkpt><trkpt lat="43.416899567578604" lon="10.755541044661117"><ele>192.0</ele><time>2026-04-19T12:13:47.001Z</time></trkpt><trkpt lat="43.41682071616957" lon="10.755648330482034"><ele>190.0</ele><time>2026-04-19T12:13:49.001Z</time></trkpt><trkpt lat="43.41674108641179" lon="10.755759346131253"><ele>190.0</ele><time>2026-04-19T12:13:51.002Z</time></trkpt><trkpt lat="43.41666834544536" lon="10.755848871056282"><ele>190.0</ele><time>2026-04-19T12:13:53.002Z</time></trkpt><trkpt lat="43.41662772341004" lon="10.755923175776122"><ele>190.0</ele><time>2026-04-19T12:13:55.002Z</time></trkpt><trkpt lat="43.41661751570302" lon="10.756052096105941"><ele>190.0</ele><time>2026-04-19T12:13:57.001Z</time></trkpt><trkpt lat="43.41669901695649" lon="10.756158102601287"><ele>190.0</ele><time>2026-04-19T12:13:59.001Z</time></trkpt><trkpt lat="43.41678209420158" lon="10.756257163097812"><ele>188.4</ele><time>2026-04-19T12:14:01.001Z</time></trkpt><trkpt lat="43.41687339566031" lon="10.756342575251553"><ele>186.8</ele><time>2026-04-19T12:14:03.001Z</time></trkpt><trkpt lat="43.416951385892126" lon="10.756428690198709"><ele>185.2</ele><time>2026-04-19T12:14:05.001Z</time></trkpt><trkpt lat="43.417022823831175" lon="10.756504848501313"><ele>183.6</ele><time>2026-04-19T12:14:07.001Z</time></trkpt><trkpt lat="43.41709073439892" lon="10.756588208566638"><ele>182.0</ele><time>2026-04-19T12:14:09.001Z</time></trkpt><trkpt lat="43.41714739713646" lon="10.756700140597209"><ele>181.8</ele><time>2026-04-19T12:14:11.001Z</time></trkpt><trkpt lat="43.4171824965958" lon="10.75682723910137"><ele>181.6</ele><time>2026-04-19T12:14:13.001Z</time></trkpt><trkpt lat="43.41719781866297" lon="10.756966143010667"><ele>181.4</ele><time>2026-04-19T12:14:15.001Z</time></trkpt><trkpt lat="43.41719829175894" lon="10.757105228073726"><ele>181.20000000000002</ele><time>2026-04-19T12:14:17.001Z</time></trkpt><trkpt lat="43.41720229254523" lon="10.757238377762878"><ele>181.0</ele><time>2026-04-19T12:14:19.001Z</time></trkpt><trkpt lat="43.41721123916246" lon="10.757382712281116"><ele>180.4</ele><time>2026-04-19T12:14:21.001Z</time></trkpt><trkpt lat="43.41721751805471" lon="10.757523987834638"><ele>179.8</ele><time>2026-04-19T12:14:23.001Z</time></trkpt><trkpt lat="43.417224300451444" lon="10.757672804838817"><ele>179.20000000000002</ele><time>2026-04-19T12:14:25.001Z</time></trkpt><trkpt lat="43.417232756061644" lon="10.757824883585133"><ele>178.60000000000002</ele><time>2026-04-19T12:14:27.001Z</time></trkpt><trkpt lat="43.41724679533761" lon="10.757979664872362"><ele>178.0</ele><time>2026-04-19T12:14:29.001Z</time></trkpt><trkpt lat="43.417242498700475" lon="10.758134261378693"><ele>178.0</ele><time>2026-04-19T12:14:31.001Z</time></trkpt><trkpt lat="43.41719548071168" lon="10.75828136896106"><ele>178.0</ele><time>2026-04-19T12:14:33.001Z</time></trkpt><trkpt lat="43.417120970609396" lon="10.758402309988538"><ele>178.0</ele><time>2026-04-19T12:14:35.001Z</time></trkpt><trkpt lat="43.41704269692354" lon="10.75851510199224"><ele>178.0</ele><time>2026-04-19T12:14:37.001Z</time></trkpt><trkpt lat="43.41697377152781" lon="10.758631533601212"><ele>177.25</ele><time>2026-04-19T12:14:39.001Z</time></trkpt><trkpt lat="43.41692348060558" lon="10.758774606088943"><ele>176.5</ele><time>2026-04-19T12:14:41.001Z</time></trkpt><trkpt lat="43.41688469614127" lon="10.758936432386527"><ele>175.75</ele><time>2026-04-19T12:14:43.001Z</time></trkpt><trkpt lat="43.41685560863513" lon="10.7590883189554"><ele>175.0</ele><time>2026-04-19T12:14:45.001Z</time></trkpt><trkpt lat="43.41683988031826" lon="10.759251522948526"><ele>175.0</ele><time>2026-04-19T12:14:47.001Z</time></trkpt><trkpt lat="43.416834607536934" lon="10.759347821729147"><ele>175.0</ele><time>2026-04-19T12:14:48.001Z</time></trkpt><trkpt lat="43.41682734900209" lon="10.759448401131417"><ele>175.0</ele><time>2026-04-19T12:14:49.001Z</time></trkpt><trkpt lat="43.41681599475358" lon="10.759542503025445"><ele>175.0</ele><time>2026-04-19T12:14:50.001Z</time></trkpt><trkpt lat="43.41680736972298" lon="10.759633011851626"><ele>175.0</ele><time>2026-04-19T12:14:51.001Z</time></trkpt><trkpt lat="43.41679406652279" lon="10.759724986202597"><ele>175.0</ele><time>2026-04-19T12:14:52.001Z</time></trkpt><trkpt lat="43.41678094236119" lon="10.759823119131148"><ele>175.0</ele><time>2026-04-19T12:14:53.001Z</time></trkpt><trkpt lat="43.416768171861555" lon="10.759919740610925"><ele>174.57142857142858</ele><time>2026-04-19T12:14:54.001Z</time></trkpt><trkpt lat="43.41675606260008" lon="10.760010720490564"><ele>174.14285714285714</ele><time>2026-04-19T12:14:55.001Z</time></trkpt><trkpt lat="43.4167467111979" lon="10.760111651454075"><ele>173.71428571428572</ele><time>2026-04-19T12:14:56.001Z</time></trkpt><trkpt lat="43.41673414511221" lon="10.760208810219401"><ele>173.28571428571428</ele><time>2026-04-19T12:14:57.001Z</time></trkpt><trkpt lat="43.41671711573035" lon="10.760305552016497"><ele>172.85714285714286</ele><time>2026-04-19T12:14:58.001Z</time></trkpt><trkpt lat="43.416698783836694" lon="10.760408318845636"><ele>172.42857142857144</ele><time>2026-04-19T12:14:59.001Z</time></trkpt><trkpt lat="43.41667991302783" lon="10.760514989827932"><ele>172.0</ele><time>2026-04-19T12:15:00.001Z</time></trkpt><trkpt lat="43.41665925264818" lon="10.760626264384332"><ele>171.5</ele><time>2026-04-19T12:15:01.001Z</time></trkpt><trkpt lat="43.41663570006204" lon="10.760737632460234"><ele>171.0</ele><time>2026-04-19T12:15:02.001Z</time></trkpt><trkpt lat="43.41660772483149" lon="10.760848271617062"><ele>170.5</ele><time>2026-04-19T12:15:03.001Z</time></trkpt><trkpt lat="43.4165760074109" lon="10.760956317562169"><ele>170.0</ele><time>2026-04-19T12:15:04.001Z</time></trkpt><trkpt lat="43.416541019386884" lon="10.761061144848227"><ele>169.5</ele><time>2026-04-19T12:15:05.001Z</time></trkpt><trkpt lat="43.41650487361559" lon="10.761159910698684"><ele>169.0</ele><time>2026-04-19T12:15:06.001Z</time></trkpt><trkpt lat="43.41646540616366" lon="10.761256503615423"><ele>169.16666666666669</ele><time>2026-04-19T12:15:07.001Z</time></trkpt><trkpt lat="43.41642625029064" lon="10.761355064149583"><ele>169.33333333333334</ele><time>2026-04-19T12:15:08.001Z</time></trkpt><trkpt lat="43.41639201383625" lon="10.761454309454843"><ele>169.5</ele><time>2026-04-19T12:15:09.001Z</time></trkpt><trkpt lat="43.41635672460419" lon="10.761558861762488"><ele>169.66666666666666</ele><time>2026-04-19T12:15:10.001Z</time></trkpt><trkpt lat="43.41632392352823" lon="10.76166665719156"><ele>169.83333333333331</ele><time>2026-04-19T12:15:11.001Z</time></trkpt><trkpt lat="43.41629163638815" lon="10.761778528967001"><ele>170.0</ele><time>2026-04-19T12:15:12.001Z</time></trkpt><trkpt lat="43.41626301401677" lon="10.761891179091162"><ele>170.0</ele><time>2026-04-19T12:15:13.001Z</time></trkpt><trkpt lat="43.41623526508648" lon="10.762007137000685"><ele>170.0</ele><time>2026-04-19T12:15:14.001Z</time></trkpt><trkpt lat="43.41620825702913" lon="10.762124145021664"><ele>170.0</ele><time>2026-04-19T12:15:15.001Z</time></trkpt><trkpt lat="43.41618193140615" lon="10.762237273727925"><ele>170.0</ele><time>2026-04-19T12:15:16.001Z</time></trkpt><trkpt lat="43.416156232587284" lon="10.762350257855271"><ele>170.0</ele><time>2026-04-19T12:15:17.001Z</time></trkpt><trkpt lat="43.41613092201833" lon="10.762458239177692"><ele>170.0</ele><time>2026-04-19T12:15:18.001Z</time></trkpt><trkpt lat="43.416105043212085" lon="10.762564255000374"><ele>170.0</ele><time>2026-04-19T12:15:19.001Z</time></trkpt><trkpt lat="43.4160797109156" lon="10.762667498537448"><ele>170.0</ele><time>2026-04-19T12:15:20.001Z</time></trkpt><trkpt lat="43.41605534987646" lon="10.762768518230413"><ele>170.0</ele><time>2026-04-19T12:15:21.001Z</time></trkpt><trkpt lat="43.41603205572744" lon="10.762868504845985"><ele>170.0</ele><time>2026-04-19T12:15:22.001Z</time></trkpt><trkpt lat="43.41600976533203" lon="10.762966312316891"><ele>170.0</ele><time>2026-04-19T12:15:23.001Z</time></trkpt><trkpt lat="43.41598888098011" lon="10.76306419237623"><ele>170.0</ele><time>2026-04-19T12:15:24.001Z</time></trkpt><trkpt lat="43.415966808857476" lon="10.76315854028567"><ele>170.4</ele><time>2026-04-19T12:15:25.002Z</time></trkpt><trkpt lat="43.4159473663467" lon="10.763248636538664"><ele>170.8</ele><time>2026-04-19T12:15:26.002Z</time></trkpt><trkpt lat="43.41592629921481" lon="10.763336050955155"><ele>171.2</ele><time>2026-04-19T12:15:27.002Z</time></trkpt><trkpt lat="43.4158894354338" lon="10.763497629219817"><ele>171.6</ele><time>2026-04-19T12:15:29.002Z</time></trkpt><trkpt lat="43.41585500980333" lon="10.763657832267148"><ele>172.0</ele><time>2026-04-19T12:15:31.002Z</time></trkpt><trkpt lat="43.41581821282256" lon="10.763818057933761"><ele>172.00000000000003</ele><time>2026-04-19T12:15:33.002Z</time></trkpt><trkpt lat="43.41579505598492" lon="10.763907151511189"><ele>172.0</ele><time>2026-04-19T12:15:34.002Z</time></trkpt><trkpt lat="43.41577063351592" lon="10.763995391628066"><ele>172.0</ele><time>2026-04-19T12:15:35.002Z</time></trkpt><trkpt lat="43.41574419726382" lon="10.764088362324411"><ele>172.0</ele><time>2026-04-19T12:15:36.002Z</time></trkpt><trkpt lat="43.415717016720365" lon="10.764178482431042"><ele>172.0</ele><time>2026-04-19T12:15:37.002Z</time></trkpt><trkpt lat="43.41568768959036" lon="10.764271315262361"><ele>172.00000000000003</ele><time>2026-04-19T12:15:38.002Z</time></trkpt><trkpt lat="43.41565686432499" lon="10.764356379610575"><ele>172.0</ele><time>2026-04-19T12:15:39.002Z</time></trkpt><trkpt lat="43.41562642489927" lon="10.764440321022"><ele>171.85714285714286</ele><time>2026-04-19T12:15:40.002Z</time></trkpt><trkpt lat="43.41559519305915" lon="10.76452305116542"><ele>171.71428571428572</ele><time>2026-04-19T12:15:41.002Z</time></trkpt><trkpt lat="43.415562912663155" lon="10.764606981306377"><ele>171.57142857142856</ele><time>2026-04-19T12:15:42.002Z</time></trkpt><trkpt lat="43.41553008103009" lon="10.764686039042063"><ele>171.42857142857144</ele><time>2026-04-19T12:15:43.002Z</time></trkpt><trkpt lat="43.41549849904194" lon="10.764764407435717"><ele>171.28571428571428</ele><time>2026-04-19T12:15:44.002Z</time></trkpt><trkpt lat="43.415466633159824" lon="10.764843145868095"><ele>171.14285714285714</ele><time>2026-04-19T12:15:45.002Z</time></trkpt><trkpt lat="43.41543382702725" lon="10.764921027035864"><ele>171.0</ele><time>2026-04-19T12:15:46.002Z</time></trkpt><trkpt lat="43.415403078870916" lon="10.764998401592194"><ele>169.33333333333334</ele><time>2026-04-19T12:15:47.002Z</time></trkpt><trkpt lat="43.41537188585624" lon="10.765075047912719"><ele>167.66666666666666</ele><time>2026-04-19T12:15:48.002Z</time></trkpt><trkpt lat="43.41531308884261" lon="10.76522724528742"><ele>166.0</ele><time>2026-04-19T12:15:50.002Z</time></trkpt><trkpt lat="43.41528334039845" lon="10.765307120413379"><ele>164.33333333333331</ele><time>2026-04-19T12:15:51.002Z</time></trkpt><trkpt lat="43.41525695571807" lon="10.765388376734492"><ele>162.66666666666666</ele><time>2026-04-19T12:15:52.002Z</time></trkpt><trkpt lat="43.41523080571843" lon="10.765473347742828"><ele>161.0</ele><time>2026-04-19T12:15:53.002Z</time></trkpt><trkpt lat="43.41520413121365" lon="10.765560049766108"><ele>160.83333333333331</ele><time>2026-04-19T12:15:54.002Z</time></trkpt><trkpt lat="43.415179463311475" lon="10.765653736511043"><ele>160.66666666666666</ele><time>2026-04-19T12:15:55.002Z</time></trkpt><trkpt lat="43.41515639479617" lon="10.765750903510758"><ele>160.5</ele><time>2026-04-19T12:15:56.002Z</time></trkpt><trkpt lat="43.415130694600606" lon="10.76585065384401"><ele>160.33333333333334</ele><time>2026-04-19T12:15:57.002Z</time></trkpt><trkpt lat="43.41510604928205" lon="10.765953295790023"><ele>160.16666666666669</ele><time>2026-04-19T12:15:58.002Z</time></trkpt><trkpt lat="43.415077887255336" lon="10.766059424785665"><ele>160.0</ele><time>2026-04-19T12:15:59.002Z</time></trkpt><trkpt lat="43.415048237477464" lon="10.766169002137579"><ele>159.66666666666669</ele><time>2026-04-19T12:16:00.002Z</time></trkpt><trkpt lat="43.41501715572657" lon="10.766277558940462"><ele>159.33333333333334</ele><time>2026-04-19T12:16:01.002Z</time></trkpt><trkpt lat="43.41498471866732" lon="10.76639131573799"><ele>159.0</ele><time>2026-04-19T12:16:02.002Z</time></trkpt><trkpt lat="43.41495319019002" lon="10.766505082501583"><ele>158.66666666666666</ele><time>2026-04-19T12:16:03.001Z</time></trkpt><trkpt lat="43.41491914443081" lon="10.766622346848866"><ele>158.33333333333331</ele><time>2026-04-19T12:16:04.001Z</time></trkpt><trkpt lat="43.41488236218689" lon="10.766741784272405"><ele>158.0</ele><time>2026-04-19T12:16:05.001Z</time></trkpt><trkpt lat="43.414850016965936" lon="10.76686200083109"><ele>156.8</ele><time>2026-04-19T12:16:06.001Z</time></trkpt><trkpt lat="43.41481578104212" lon="10.76697995148714"><ele>155.60000000000002</ele><time>2026-04-19T12:16:07.001Z</time></trkpt><trkpt lat="43.414782456564225" lon="10.767098193435091"><ele>154.39999999999998</ele><time>2026-04-19T12:16:08.001Z</time></trkpt><trkpt lat="43.41475227883262" lon="10.767223057062921"><ele>153.2</ele><time>2026-04-19T12:16:09.001Z</time></trkpt><trkpt lat="43.41472897636608" lon="10.76735395930868"><ele>152.0</ele><time>2026-04-19T12:16:10.001Z</time></trkpt><trkpt lat="43.414718496075956" lon="10.767485654922906"><ele>152.0</ele><time>2026-04-19T12:16:11.001Z</time></trkpt><trkpt lat="43.41471996176887" lon="10.76762513220087"><ele>152.0</ele><time>2026-04-19T12:16:12.001Z</time></trkpt><trkpt lat="43.41473582222671" lon="10.767761582468017"><ele>152.0</ele><time>2026-04-19T12:16:13.001Z</time></trkpt><trkpt lat="43.41477184655557" lon="10.76788856070806"><ele>152.0</ele><time>2026-04-19T12:16:14.001Z</time></trkpt><trkpt lat="43.41481717827913" lon="10.768004716210006"><ele>152.0</ele><time>2026-04-19T12:16:15.001Z</time></trkpt><trkpt lat="43.41486767182584" lon="10.768121870213678"><ele>150.4</ele><time>2026-04-19T12:16:16.001Z</time></trkpt><trkpt lat="43.41492001786954" lon="10.7682395810356"><ele>148.79999999999998</ele><time>2026-04-19T12:16:17.001Z</time></trkpt><trkpt lat="43.41497443412939" lon="10.76835082825152"><ele>147.2</ele><time>2026-04-19T12:16:18.001Z</time></trkpt><trkpt lat="43.415026543900595" lon="10.768465587072255"><ele>145.6</ele><time>2026-04-19T12:16:19.001Z</time></trkpt><trkpt lat="43.41507490891604" lon="10.768578925333985"><ele>144.0</ele><time>2026-04-19T12:16:20.001Z</time></trkpt><trkpt lat="43.415118639100825" lon="10.768692503010106"><ele>142.6</ele><time>2026-04-19T12:16:21.001Z</time></trkpt><trkpt lat="43.41516972119327" lon="10.768798916240074"><ele>141.2</ele><time>2026-04-19T12:16:22.001Z</time></trkpt><trkpt lat="43.41522651842063" lon="10.768900748981544"><ele>139.79999999999998</ele><time>2026-04-19T12:16:23.001Z</time></trkpt><trkpt lat="43.415284994294296" lon="10.76899381055246"><ele>138.4</ele><time>2026-04-19T12:16:24.001Z</time></trkpt><trkpt lat="43.41534422022648" lon="10.769082030241735"><ele>137.0</ele><time>2026-04-19T12:16:25.001Z</time></trkpt><trkpt lat="43.41540211636276" lon="10.769172434753507"><ele>137.0</ele><time>2026-04-19T12:16:26.001Z</time></trkpt><trkpt lat="43.41545582815511" lon="10.769262327241153"><ele>137.0</ele><time>2026-04-19T12:16:27.001Z</time></trkpt><trkpt lat="43.41550576545983" lon="10.769353060788436"><ele>137.0</ele><time>2026-04-19T12:16:28.001Z</time></trkpt><trkpt lat="43.41555212360807" lon="10.769442549146968"><ele>137.0</ele><time>2026-04-19T12:16:29.001Z</time></trkpt><trkpt lat="43.415597253445824" lon="10.769529621428523"><ele>137.0</ele><time>2026-04-19T12:16:30.001Z</time></trkpt><trkpt lat="43.415640202983724" lon="10.7696136784561"><ele>137.0</ele><time>2026-04-19T12:16:31.001Z</time></trkpt><trkpt lat="43.415680455560846" lon="10.76969170380312"><ele>136.4</ele><time>2026-04-19T12:16:32.001Z</time></trkpt><trkpt lat="43.41571929425702" lon="10.769768328703066"><ele>135.79999999999998</ele><time>2026-04-19T12:16:33.001Z</time></trkpt><trkpt lat="43.41575736684846" lon="10.769839749105456"><ele>135.2</ele><time>2026-04-19T12:16:34.001Z</time></trkpt><trkpt lat="43.41583739912854" lon="10.769967184192838"><ele>134.6</ele><time>2026-04-19T12:16:36.001Z</time></trkpt><trkpt lat="43.415940899455805" lon="10.77006814321347"><ele>134.0</ele><time>2026-04-19T12:16:38.001Z</time></trkpt><trkpt lat="43.41600744895294" lon="10.770107782640338"><ele>134.0</ele><time>2026-04-19T12:16:39.001Z</time></trkpt><trkpt lat="43.416080796025916" lon="10.77014535340305"><ele>134.0</ele><time>2026-04-19T12:16:40.001Z</time></trkpt><trkpt lat="43.41615551614832" lon="10.77018457369826"><ele>134.0</ele><time>2026-04-19T12:16:41.001Z</time></trkpt><trkpt lat="43.41622937212651" lon="10.770228930380348"><ele>134.0</ele><time>2026-04-19T12:16:42.001Z</time></trkpt><trkpt lat="43.416295056304136" lon="10.770287441089405"><ele>134.0</ele><time>2026-04-19T12:16:43.001Z</time></trkpt><trkpt lat="43.41635206210721" lon="10.770358580402073"><ele>134.0</ele><time>2026-04-19T12:16:44.001Z</time></trkpt><trkpt lat="43.416400475252196" lon="10.770437502398279"><ele>134.0</ele><time>2026-04-19T12:16:45.001Z</time></trkpt><trkpt lat="43.41643731442797" lon="10.7705202546748"><ele>134.0</ele><time>2026-04-19T12:16:46.001Z</time></trkpt><trkpt lat="43.41646541860116" lon="10.77060127013524"><ele>134.0</ele><time>2026-04-19T12:16:47.001Z</time></trkpt><trkpt lat="43.41649900155312" lon="10.770749111370815"><ele>134.0</ele><time>2026-04-19T12:16:49.001Z</time></trkpt><trkpt lat="43.41652466447219" lon="10.770883382306613"><ele>134.0</ele><time>2026-04-19T12:16:51.001Z</time></trkpt><trkpt lat="43.41656006499824" lon="10.77103371245478"><ele>133.83333333333331</ele><time>2026-04-19T12:16:53.001Z</time></trkpt><trkpt lat="43.4165995204335" lon="10.77120056580594"><ele>133.66666666666666</ele><time>2026-04-19T12:16:55.001Z</time></trkpt><trkpt lat="43.416615119361865" lon="10.771292211954902"><ele>133.5</ele><time>2026-04-19T12:16:56.001Z</time></trkpt><trkpt lat="43.41662864704621" lon="10.771386334748815"><ele>133.33333333333334</ele><time>2026-04-19T12:16:57.001Z</time></trkpt><trkpt lat="43.4166209121243" lon="10.771487506995888"><ele>133.16666666666669</ele><time>2026-04-19T12:16:58.001Z</time></trkpt><trkpt lat="43.41660605304451" lon="10.771586376710395"><ele>133.0</ele><time>2026-04-19T12:16:59.001Z</time></trkpt><trkpt lat="43.41658715936226" lon="10.77167882621479"><ele>133.0</ele><time>2026-04-19T12:17:00.001Z</time></trkpt><trkpt lat="43.41656023408163" lon="10.771766537522407"><ele>133.0</ele><time>2026-04-19T12:17:01.001Z</time></trkpt><trkpt lat="43.416531726583514" lon="10.771851954900661"><ele>133.0</ele><time>2026-04-19T12:17:02.001Z</time></trkpt><trkpt lat="43.41650510626793" lon="10.771940916625747"><ele>133.0</ele><time>2026-04-19T12:17:03.001Z</time></trkpt><trkpt lat="43.41648501366375" lon="10.772034301939739"><ele>133.0</ele><time>2026-04-19T12:17:04.001Z</time></trkpt><trkpt lat="43.41646890351975" lon="10.772134142180667"><ele>133.0</ele><time>2026-04-19T12:17:05.001Z</time></trkpt><trkpt lat="43.41645826559724" lon="10.772237079361126"><ele>133.0</ele><time>2026-04-19T12:17:06.001Z</time></trkpt><trkpt lat="43.41645602237573" lon="10.772341060168413"><ele>133.0</ele><time>2026-04-19T12:17:07.001Z</time></trkpt><trkpt lat="43.41646114910466" lon="10.772442228147769"><ele>133.0</ele><time>2026-04-19T12:17:08.001Z</time></trkpt><trkpt lat="43.41646577613851" lon="10.772540481727193"><ele>133.0</ele><time>2026-04-19T12:17:09.001Z</time></trkpt><trkpt lat="43.41646727464764" lon="10.772638771570872"><ele>133.0</ele><time>2026-04-19T12:17:10.001Z</time></trkpt><trkpt lat="43.416464225673465" lon="10.772731128557218"><ele>133.0</ele><time>2026-04-19T12:17:11.001Z</time></trkpt><trkpt lat="43.416491327491094" lon="10.772862045830122"><ele>133.0</ele><time>2026-04-19T12:17:13.002Z</time></trkpt><trkpt lat="43.416527065031296" lon="10.77296155006485"><ele>133.0</ele><time>2026-04-19T12:17:17.002Z</time></trkpt><trkpt lat="43.416435209311366" lon="10.773115605808865"><ele>133.0</ele><time>2026-04-19T12:17:19.002Z</time></trkpt><trkpt lat="43.416389640983404" lon="10.77319158984532"><ele>133.0</ele><time>2026-04-19T12:17:20.002Z</time></trkpt><trkpt lat="43.41633691126441" lon="10.773273730252244"><ele>133.0</ele><time>2026-04-19T12:17:21.002Z</time></trkpt><trkpt lat="43.41627398901726" lon="10.773374497787476"><ele>133.0</ele><time>2026-04-19T12:17:22.002Z</time></trkpt><trkpt lat="43.416202355568366" lon="10.773489694613794"><ele>132.75</ele><time>2026-04-19T12:17:23.002Z</time></trkpt><trkpt lat="43.41611036619933" lon="10.773599654761888"><ele>132.5</ele><time>2026-04-19T12:17:24.002Z</time></trkpt><trkpt lat="43.416005426698106" lon="10.773685580562368"><ele>132.25</ele><time>2026-04-19T12:17:25.002Z</time></trkpt><trkpt lat="43.41589651232341" lon="10.773748253051112"><ele>132.0</ele><time>2026-04-19T12:17:26.002Z</time></trkpt><trkpt lat="43.415792316248776" lon="10.773789230957263"><ele>132.0</ele><time>2026-04-19T12:17:27.002Z</time></trkpt><trkpt lat="43.41569872324752" lon="10.773826731473921"><ele>132.0</ele><time>2026-04-19T12:17:28.002Z</time></trkpt><trkpt lat="43.415618994719075" lon="10.773861293769285"><ele>132.0</ele><time>2026-04-19T12:17:29.002Z</time></trkpt><trkpt lat="43.4155486042713" lon="10.773893833046293"><ele>132.0</ele><time>2026-04-19T12:17:30.002Z</time></trkpt><trkpt lat="43.415482617591735" lon="10.773927243481578"><ele>132.0</ele><time>2026-04-19T12:17:31.002Z</time></trkpt><trkpt lat="43.41541416087542" lon="10.773962382655453"><ele>132.0</ele><time>2026-04-19T12:17:32.002Z</time></trkpt><trkpt lat="43.41533877744996" lon="10.77399486618196"><ele>132.66666666666666</ele><time>2026-04-19T12:17:33.002Z</time></trkpt><trkpt lat="43.415257338153864" lon="10.774028319910773"><ele>133.33333333333334</ele><time>2026-04-19T12:17:34.002Z</time></trkpt><trkpt lat="43.415176594383404" lon="10.774062845545618"><ele>134.0</ele><time>2026-04-19T12:17:35.002Z</time></trkpt><trkpt lat="43.41509645037406" lon="10.774097761071905"><ele>134.66666666666669</ele><time>2026-04-19T12:17:36.002Z</time></trkpt><trkpt lat="43.41501657712314" lon="10.77413124175183"><ele>135.33333333333334</ele><time>2026-04-19T12:17:37.002Z</time></trkpt><trkpt lat="43.41493665487819" lon="10.774164099015474"><ele>136.0</ele><time>2026-04-19T12:17:38.002Z</time></trkpt><trkpt lat="43.414858850835074" lon="10.774196973994767"><ele>136.0</ele><time>2026-04-19T12:17:39.002Z</time></trkpt><trkpt lat="43.41477904150645" lon="10.774229290321534"><ele>136.0</ele><time>2026-04-19T12:17:40.002Z</time></trkpt><trkpt lat="43.41469267056199" lon="10.774257976684053"><ele>136.0</ele><time>2026-04-19T12:17:41.002Z</time></trkpt><trkpt lat="43.414599591652426" lon="10.774268113808164"><ele>136.0</ele><time>2026-04-19T12:17:42.002Z</time></trkpt><trkpt lat="43.414505069664244" lon="10.774255786702707"><ele>136.0</ele><time>2026-04-19T12:17:43.002Z</time></trkpt><trkpt lat="43.41441013854204" lon="10.774216143723306"><ele>136.2</ele><time>2026-04-19T12:17:44.002Z</time></trkpt><trkpt lat="43.414322470989916" lon="10.774134600426958"><ele>136.39999999999998</ele><time>2026-04-19T12:17:45.002Z</time></trkpt><trkpt lat="43.41422554126063" lon="10.774062755303433"><ele>136.6</ele><time>2026-04-19T12:17:46.002Z</time></trkpt><trkpt lat="43.41412290947073" lon="10.773984992610773"><ele>136.79999999999998</ele><time>2026-04-19T12:17:47.002Z</time></trkpt><trkpt lat="43.41402025481561" lon="10.773909301012928"><ele>137.0</ele><time>2026-04-19T12:17:48.002Z</time></trkpt><trkpt lat="43.41392117449199" lon="10.773838529395688"><ele>137.0</ele><time>2026-04-19T12:17:49.002Z</time></trkpt><trkpt lat="43.41382839292536" lon="10.773770239246156"><ele>137.0</ele><time>2026-04-19T12:17:50.002Z</time></trkpt><trkpt lat="43.41373874880078" lon="10.773704299575117"><ele>137.0</ele><time>2026-04-19T12:17:51.002Z</time></trkpt><trkpt lat="43.41364838852931" lon="10.773639125881758"><ele>137.0</ele><time>2026-04-19T12:17:52.002Z</time></trkpt><trkpt lat="43.413557643093" lon="10.77357367430586"><ele>137.0</ele><time>2026-04-19T12:17:53.002Z</time></trkpt><trkpt lat="43.41346655099387" lon="10.773507970575531"><ele>137.4</ele><time>2026-04-19T12:17:54.002Z</time></trkpt><trkpt lat="43.41337521914863" lon="10.77344254356831"><ele>137.79999999999998</ele><time>2026-04-19T12:17:55.002Z</time></trkpt><trkpt lat="43.41328196648188" lon="10.773377694488287"><ele>138.2</ele><time>2026-04-19T12:17:56.002Z</time></trkpt><trkpt lat="43.41318457466639" lon="10.773319437577975"><ele>138.6</ele><time>2026-04-19T12:17:57.002Z</time></trkpt><trkpt lat="43.41307916286299" lon="10.773289880050903"><ele>139.0</ele><time>2026-04-19T12:17:58.002Z</time></trkpt><trkpt lat="43.41297855047524" lon="10.773243089337814"><ele>139.0</ele><time>2026-04-19T12:17:59.002Z</time></trkpt><trkpt lat="43.41287548170388" lon="10.773208260464104"><ele>139.0</ele><time>2026-04-19T12:18:00.002Z</time></trkpt><trkpt lat="43.41277855064519" lon="10.773149096914695"><ele>139.0</ele><time>2026-04-19T12:18:01.002Z</time></trkpt><trkpt lat="43.41267687054465" lon="10.773120944274213"><ele>139.0</ele><time>2026-04-19T12:18:02.002Z</time></trkpt><trkpt lat="43.41257431197767" lon="10.773112845850987"><ele>139.0</ele><time>2026-04-19T12:18:03.002Z</time></trkpt><trkpt lat="43.41247175957411" lon="10.773185484883662"><ele>139.0</ele><time>2026-04-19T12:18:04.002Z</time></trkpt><trkpt lat="43.41237828649338" lon="10.773251345560853"><ele>139.0</ele><time>2026-04-19T12:18:05.002Z</time></trkpt><trkpt lat="43.412296279514266" lon="10.773341807054146"><ele>139.0</ele><time>2026-04-19T12:18:06.002Z</time></trkpt><trkpt lat="43.41221760301163" lon="10.773440968455942"><ele>139.0</ele><time>2026-04-19T12:18:07.002Z</time></trkpt><trkpt lat="43.41212646134322" lon="10.773518200927517"><ele>139.0</ele><time>2026-04-19T12:18:08.002Z</time></trkpt><trkpt lat="43.41202694165096" lon="10.773579457936693"><ele>138.5</ele><time>2026-04-19T12:18:09.002Z</time></trkpt><trkpt lat="43.41192250766716" lon="10.77363158592432"><ele>138.0</ele><time>2026-04-19T12:18:10.002Z</time></trkpt><trkpt lat="43.41181510040134" lon="10.773678275564537"><ele>137.5</ele><time>2026-04-19T12:18:11.002Z</time></trkpt><trkpt lat="43.411706306029714" lon="10.773721715229069"><ele>137.0</ele><time>2026-04-19T12:18:12.002Z</time></trkpt><trkpt lat="43.41159475274642" lon="10.773746442311982"><ele>137.0</ele><time>2026-04-19T12:18:13.002Z</time></trkpt><trkpt lat="43.411482154901336" lon="10.773742717855061"><ele>137.0</ele><time>2026-04-19T12:18:14.002Z</time></trkpt><trkpt lat="43.41137156593358" lon="10.773713913875516"><ele>137.0</ele><time>2026-04-19T12:18:15.002Z</time></trkpt><trkpt lat="43.411262306835745" lon="10.77367057753089"><ele>137.0</ele><time>2026-04-19T12:18:16.001Z</time></trkpt><trkpt lat="43.41115042818938" lon="10.773640215264855"><ele>137.5</ele><time>2026-04-19T12:18:17.001Z</time></trkpt><trkpt lat="43.41104138023063" lon="10.773631704360868"><ele>138.0</ele><time>2026-04-19T12:18:18.001Z</time></trkpt><trkpt lat="43.410928917567176" lon="10.773630731100761"><ele>138.5</ele><time>2026-04-19T12:18:19.001Z</time></trkpt><trkpt lat="43.41081094809276" lon="10.773635393097887"><ele>139.0</ele><time>2026-04-19T12:18:20.001Z</time></trkpt><trkpt lat="43.4106897785793" lon="10.773640666297135"><ele>139.0</ele><time>2026-04-19T12:18:21.001Z</time></trkpt><trkpt lat="43.41056890947833" lon="10.773640552690878"><ele>139.0</ele><time>2026-04-19T12:18:22.001Z</time></trkpt><trkpt lat="43.41045207291794" lon="10.77362806228948"><ele>139.0</ele><time>2026-04-19T12:18:23.001Z</time></trkpt><trkpt lat="43.41034406893178" lon="10.773596394042245"><ele>139.0</ele><time>2026-04-19T12:18:24.001Z</time></trkpt><trkpt lat="43.410247191309985" lon="10.77354682115502"><ele>139.0</ele><time>2026-04-19T12:18:25.001Z</time></trkpt><trkpt lat="43.410155315869154" lon="10.77349163730285"><ele>139.0</ele><time>2026-04-19T12:18:26.001Z</time></trkpt><trkpt lat="43.41006062955151" lon="10.773459490015675"><ele>139.0</ele><time>2026-04-19T12:18:27.001Z</time></trkpt><trkpt lat="43.40996165556117" lon="10.773459991777722"><ele>139.0</ele><time>2026-04-19T12:18:28.001Z</time></trkpt><trkpt lat="43.409865172513406" lon="10.773502293599686"><ele>139.0</ele><time>2026-04-19T12:18:29.001Z</time></trkpt><trkpt lat="43.40977135779502" lon="10.773570687303668"><ele>139.0</ele><time>2026-04-19T12:18:30.001Z</time></trkpt><trkpt lat="43.409688837123" lon="10.773669967255412"><ele>139.0</ele><time>2026-04-19T12:18:31.001Z</time></trkpt><trkpt lat="43.40962976596345" lon="10.773799571684657"><ele>139.0</ele><time>2026-04-19T12:18:32.001Z</time></trkpt><trkpt lat="43.409598220143145" lon="10.773942123544114"><ele>139.0</ele><time>2026-04-19T12:18:33.001Z</time></trkpt><trkpt lat="43.40958310835422" lon="10.774086666476144"><ele>139.0</ele><time>2026-04-19T12:18:34.001Z</time></trkpt><trkpt lat="43.409564008905065" lon="10.774226945598608"><ele>140.0</ele><time>2026-04-19T12:18:35.001Z</time></trkpt><trkpt lat="43.409524557802584" lon="10.77435982750518"><ele>141.0</ele><time>2026-04-19T12:18:36.001Z</time></trkpt><trkpt lat="43.40946671901911" lon="10.774486607020938"><ele>142.0</ele><time>2026-04-19T12:18:37.001Z</time></trkpt><trkpt lat="43.40939412582343" lon="10.774599962875113"><ele>143.0</ele><time>2026-04-19T12:18:38.001Z</time></trkpt><trkpt lat="43.40930933878513" lon="10.774701394789881"><ele>144.0</ele><time>2026-04-19T12:18:39.001Z</time></trkpt><trkpt lat="43.40921889521431" lon="10.77479187108185"><ele>144.0</ele><time>2026-04-19T12:18:40.001Z</time></trkpt><trkpt lat="43.40912505786637" lon="10.774874012051294"><ele>144.0</ele><time>2026-04-19T12:18:41.001Z</time></trkpt><trkpt lat="43.40902704369656" lon="10.774945395934234"><ele>144.0</ele><time>2026-04-19T12:18:42.001Z</time></trkpt><trkpt lat="43.40892765835557" lon="10.775019611355823"><ele>144.0</ele><time>2026-04-19T12:18:43.001Z</time></trkpt><trkpt lat="43.40881915414547" lon="10.775084010017228"><ele>143.5</ele><time>2026-04-19T12:18:44.001Z</time></trkpt><trkpt lat="43.40870427386382" lon="10.775142599053162"><ele>143.0</ele><time>2026-04-19T12:18:45.001Z</time></trkpt><trkpt lat="43.40858724032324" lon="10.77519444891078"><ele>142.5</ele><time>2026-04-19T12:18:46.001Z</time></trkpt><trkpt lat="43.40847227539528" lon="10.775242311967457"><ele>142.0</ele><time>2026-04-19T12:18:47.001Z</time></trkpt><trkpt lat="43.4083578517969" lon="10.775285574068768"><ele>142.0</ele><time>2026-04-19T12:18:48.001Z</time></trkpt><trkpt lat="43.4082463808493" lon="10.775324137765299"><ele>142.0</ele><time>2026-04-19T12:18:49.001Z</time></trkpt><trkpt lat="43.408137999934446" lon="10.775357231843728"><ele>142.0</ele><time>2026-04-19T12:18:50.001Z</time></trkpt><trkpt lat="43.40803064511577" lon="10.775386415519927"><ele>142.0</ele><time>2026-04-19T12:18:51.001Z</time></trkpt><trkpt lat="43.40791862342242" lon="10.77540449061345"><ele>142.0</ele><time>2026-04-19T12:18:52.001Z</time></trkpt><trkpt lat="43.407802644915606" lon="10.775413612854084"><ele>142.75</ele><time>2026-04-19T12:18:53.001Z</time></trkpt><trkpt lat="43.4076852930202" lon="10.77541792880585"><ele>143.5</ele><time>2026-04-19T12:18:54.001Z</time></trkpt><trkpt lat="43.40756735161141" lon="10.775417539517836"><ele>144.25</ele><time>2026-04-19T12:18:55.001Z</time></trkpt><trkpt lat="43.40744927505706" lon="10.775418680440396"><ele>145.0</ele><time>2026-04-19T12:18:56.001Z</time></trkpt><trkpt lat="43.40732995369947" lon="10.775424882574637"><ele>145.0</ele><time>2026-04-19T12:18:57.001Z</time></trkpt><trkpt lat="43.40721124887757" lon="10.775441914943046"><ele>145.0</ele><time>2026-04-19T12:18:58.001Z</time></trkpt><trkpt lat="43.407093882472026" lon="10.775474015320315"><ele>145.0</ele><time>2026-04-19T12:18:59.001Z</time></trkpt><trkpt lat="43.4069780074171" lon="10.775523624161188"><ele>145.0</ele><time>2026-04-19T12:19:00.001Z</time></trkpt><trkpt lat="43.4068603156613" lon="10.77556894196967"><ele>145.25</ele><time>2026-04-19T12:19:01.001Z</time></trkpt><trkpt lat="43.40673771352305" lon="10.775591632420777"><ele>145.5</ele><time>2026-04-19T12:19:02.001Z</time></trkpt><trkpt lat="43.40661260957695" lon="10.775591996960317"><ele>145.75</ele><time>2026-04-19T12:19:03.001Z</time></trkpt><trkpt lat="43.40648684915509" lon="10.775583525998814"><ele>146.0</ele><time>2026-04-19T12:19:04.001Z</time></trkpt><trkpt lat="43.40636079567154" lon="10.775557988887217"><ele>145.75</ele><time>2026-04-19T12:19:05.001Z</time></trkpt><trkpt lat="43.406240144854856" lon="10.775522023493052"><ele>145.5</ele><time>2026-04-19T12:19:06.001Z</time></trkpt><trkpt lat="43.40611472652069" lon="10.775444747779108"><ele>145.25</ele><time>2026-04-19T12:19:07.001Z</time></trkpt><trkpt lat="43.405998594894506" lon="10.775387287568115"><ele>145.0</ele><time>2026-04-19T12:19:08.001Z</time></trkpt><trkpt lat="43.40587779459661" lon="10.775327495866277"><ele>145.0</ele><time>2026-04-19T12:19:09.001Z</time></trkpt><trkpt lat="43.405759433380275" lon="10.775267277731517"><ele>145.0</ele><time>2026-04-19T12:19:10.001Z</time></trkpt><trkpt lat="43.40564344383526" lon="10.775207177116776"><ele>145.0</ele><time>2026-04-19T12:19:11.001Z</time></trkpt><trkpt lat="43.40553009058791" lon="10.775148442428153"><ele>145.0</ele><time>2026-04-19T12:19:12.001Z</time></trkpt><trkpt lat="43.40541797922306" lon="10.775090351177536"><ele>146.25</ele><time>2026-04-19T12:19:13.001Z</time></trkpt><trkpt lat="43.405308632214364" lon="10.775033692461028"><ele>147.5</ele><time>2026-04-19T12:19:14.001Z</time></trkpt><trkpt lat="43.40519874296991" lon="10.774976752680956"><ele>148.75</ele><time>2026-04-19T12:19:15.001Z</time></trkpt><trkpt lat="43.40508872538185" lon="10.774919746345217"><ele>150.0</ele><time>2026-04-19T12:19:16.001Z</time></trkpt><trkpt lat="43.40497795223732" lon="10.77486276935864"><ele>150.0</ele><time>2026-04-19T12:19:17.001Z</time></trkpt><trkpt lat="43.40486813317844" lon="10.774806478870632"><ele>150.0</ele><time>2026-04-19T12:19:18.001Z</time></trkpt><trkpt lat="43.40475813141827" lon="10.774751569109068"><ele>150.0</ele><time>2026-04-19T12:19:19.002Z</time></trkpt><trkpt lat="43.404647015201384" lon="10.77469894833731"><ele>150.0</ele><time>2026-04-19T12:19:20.002Z</time></trkpt><trkpt lat="43.40453512460749" lon="10.774652992774879"><ele>150.0</ele><time>2026-04-19T12:19:21.002Z</time></trkpt><trkpt lat="43.40441765832458" lon="10.774633443982625"><ele>150.0</ele><time>2026-04-19T12:19:22.002Z</time></trkpt><trkpt lat="43.40430347498262" lon="10.774606060393062"><ele>150.0</ele><time>2026-04-19T12:19:23.002Z</time></trkpt><trkpt lat="43.4041909796279" lon="10.774594242829053"><ele>150.0</ele><time>2026-04-19T12:19:24.002Z</time></trkpt><trkpt lat="43.40407201034185" lon="10.774597292995082"><ele>150.0</ele><time>2026-04-19T12:19:25.002Z</time></trkpt><trkpt lat="43.40395503428147" lon="10.774628148079016"><ele>150.0</ele><time>2026-04-19T12:19:26.002Z</time></trkpt><trkpt lat="43.403843354836724" lon="10.774678668818606"><ele>150.0</ele><time>2026-04-19T12:19:27.002Z</time></trkpt><trkpt lat="43.40373589409279" lon="10.774754153245933"><ele>150.0</ele><time>2026-04-19T12:19:28.002Z</time></trkpt><trkpt lat="43.403629483877815" lon="10.774835718064763"><ele>152.0</ele><time>2026-04-19T12:19:29.002Z</time></trkpt><trkpt lat="43.40352109889348" lon="10.774915600562007"><ele>154.0</ele><time>2026-04-19T12:19:30.002Z</time></trkpt><trkpt lat="43.40340981243994" lon="10.774983755540418"><ele>156.0</ele><time>2026-04-19T12:19:31.002Z</time></trkpt><trkpt lat="43.40329888290588" lon="10.775048474680153"><ele>158.0</ele><time>2026-04-19T12:19:32.002Z</time></trkpt><trkpt lat="43.4031945448708" lon="10.775118804818005"><ele>158.0</ele><time>2026-04-19T12:19:33.002Z</time></trkpt><trkpt lat="43.40309218717251" lon="10.775188047476922"><ele>158.0</ele><time>2026-04-19T12:19:34.002Z</time></trkpt><trkpt lat="43.402989308575805" lon="10.775247196471385"><ele>158.0</ele><time>2026-04-19T12:19:35.002Z</time></trkpt><trkpt lat="43.40288975225832" lon="10.775306535488934"><ele>158.0</ele><time>2026-04-19T12:19:36.002Z</time></trkpt><trkpt lat="43.40279279267617" lon="10.775365686737576"><ele>158.0</ele><time>2026-04-19T12:19:37.002Z</time></trkpt><trkpt lat="43.40269755363909" lon="10.775425434509158"><ele>158.0</ele><time>2026-04-19T12:19:38.002Z</time></trkpt><trkpt lat="43.402607170533734" lon="10.775492215223675"><ele>158.0</ele><time>2026-04-19T12:19:39.002Z</time></trkpt><trkpt lat="43.402525921171275" lon="10.77557086649549"><ele>158.0</ele><time>2026-04-19T12:19:40.002Z</time></trkpt><trkpt lat="43.402452706599796" lon="10.775666434230448"><ele>158.0</ele><time>2026-04-19T12:19:41.002Z</time></trkpt><trkpt lat="43.40239013971422" lon="10.77578152172379"><ele>158.0</ele><time>2026-04-19T12:19:42.002Z</time></trkpt><trkpt lat="43.40234496596465" lon="10.775915402432927"><ele>158.0</ele><time>2026-04-19T12:19:43.002Z</time></trkpt><trkpt lat="43.4023123629697" lon="10.776057000042169"><ele>158.0</ele><time>2026-04-19T12:19:44.002Z</time></trkpt><trkpt lat="43.402306216090786" lon="10.776206675444623"><ele>158.0</ele><time>2026-04-19T12:19:45.002Z</time></trkpt><trkpt lat="43.40230012146686" lon="10.776354274126234"><ele>158.0</ele><time>2026-04-19T12:19:46.002Z</time></trkpt><trkpt lat="43.4022889391254" lon="10.776502967834205"><ele>158.0</ele><time>2026-04-19T12:19:47.002Z</time></trkpt><trkpt lat="43.402273288592696" lon="10.776649682127061"><ele>158.0</ele><time>2026-04-19T12:19:48.002Z</time></trkpt><trkpt lat="43.40224827774832" lon="10.776794550699803"><ele>158.0</ele><time>2026-04-19T12:19:49.002Z</time></trkpt><trkpt lat="43.4022147019971" lon="10.77693647251243"><ele>158.0</ele><time>2026-04-19T12:19:50.002Z</time></trkpt><trkpt lat="43.4021740098089" lon="10.777076895775917"><ele>158.0</ele><time>2026-04-19T12:19:51.002Z</time></trkpt><trkpt lat="43.40213401634291" lon="10.777221786761318"><ele>158.0</ele><time>2026-04-19T12:19:52.002Z</time></trkpt><trkpt lat="43.402096807986716" lon="10.77736986231726"><ele>159.5</ele><time>2026-04-19T12:19:53.002Z</time></trkpt><trkpt lat="43.40206677801366" lon="10.777521374234762"><ele>161.0</ele><time>2026-04-19T12:19:54.002Z</time></trkpt><trkpt lat="43.40203886067917" lon="10.777671418687326"><ele>162.5</ele><time>2026-04-19T12:19:55.002Z</time></trkpt><trkpt lat="43.40201601596338" lon="10.777823661430828"><ele>164.0</ele><time>2026-04-19T12:19:56.002Z</time></trkpt><trkpt lat="43.401999522332325" lon="10.777980221505093"><ele>164.5</ele><time>2026-04-19T12:19:57.002Z</time></trkpt><trkpt lat="43.40198847469254" lon="10.778138649240004"><ele>165.0</ele><time>2026-04-19T12:19:58.002Z</time></trkpt><trkpt lat="43.401984993185806" lon="10.778300334116746"><ele>165.5</ele><time>2026-04-19T12:19:59.002Z</time></trkpt><trkpt lat="43.401983841305324" lon="10.778464796528082"><ele>166.0</ele><time>2026-04-19T12:20:00.002Z</time></trkpt><trkpt lat="43.401983511185314" lon="10.778630808028428"><ele>166.25</ele><time>2026-04-19T12:20:01.002Z</time></trkpt><trkpt lat="43.401985924046585" lon="10.778800337277875"><ele>166.5</ele><time>2026-04-19T12:20:02.002Z</time></trkpt><trkpt lat="43.40199175677063" lon="10.77897137051388"><ele>166.75</ele><time>2026-04-19T12:20:03.002Z</time></trkpt><trkpt lat="43.40200092448249" lon="10.779143443859983"><ele>167.0</ele><time>2026-04-19T12:20:04.002Z</time></trkpt><trkpt lat="43.40200783519486" lon="10.779317913334186"><ele>166.75</ele><time>2026-04-19T12:20:05.002Z</time></trkpt><trkpt lat="43.4020141262917" lon="10.779492442684411"><ele>166.5</ele><time>2026-04-19T12:20:06.002Z</time></trkpt><trkpt lat="43.40201971477166" lon="10.779666873446583"><ele>166.25</ele><time>2026-04-19T12:20:07.002Z</time></trkpt><trkpt lat="43.40202086341604" lon="10.779842375285677"><ele>166.0</ele><time>2026-04-19T12:20:08.002Z</time></trkpt><trkpt lat="43.40201637841394" lon="10.780016598190675"><ele>165.75</ele><time>2026-04-19T12:20:09.002Z</time></trkpt><trkpt lat="43.40200533400646" lon="10.780190757139646"><ele>165.5</ele><time>2026-04-19T12:20:10.002Z</time></trkpt><trkpt lat="43.40198268588089" lon="10.78036297077418"><ele>165.25</ele><time>2026-04-19T12:20:11.002Z</time></trkpt><trkpt lat="43.40195643875518" lon="10.780536425051514"><ele>165.0</ele><time>2026-04-19T12:20:12.002Z</time></trkpt><trkpt lat="43.40192812867214" lon="10.780710727211085"><ele>165.0</ele><time>2026-04-19T12:20:13.002Z</time></trkpt><trkpt lat="43.40190459318465" lon="10.780887656566684"><ele>165.0</ele><time>2026-04-19T12:20:14.002Z</time></trkpt><trkpt lat="43.401883911151884" lon="10.781067782713905"><ele>165.0</ele><time>2026-04-19T12:20:15.001Z</time></trkpt><trkpt lat="43.40186673225814" lon="10.781250998563628"><ele>165.0</ele><time>2026-04-19T12:20:16.001Z</time></trkpt><trkpt lat="43.40184793742184" lon="10.781434142527333"><ele>165.0</ele><time>2026-04-19T12:20:17.001Z</time></trkpt><trkpt lat="43.401833755389724" lon="10.781615521766485"><ele>165.0</ele><time>2026-04-19T12:20:18.001Z</time></trkpt><trkpt lat="43.401835002835355" lon="10.781795600174009"><ele>165.0</ele><time>2026-04-19T12:20:19.001Z</time></trkpt><trkpt lat="43.40184905332342" lon="10.781973117944306"><ele>165.0</ele><time>2026-04-19T12:20:20.001Z</time></trkpt><trkpt lat="43.401860030361206" lon="10.782150221694579"><ele>164.75</ele><time>2026-04-19T12:20:21.001Z</time></trkpt><trkpt lat="43.401872190377375" lon="10.78232623658494"><ele>164.5</ele><time>2026-04-19T12:20:22.001Z</time></trkpt><trkpt lat="43.40188713681571" lon="10.782502940331103"><ele>164.25</ele><time>2026-04-19T12:20:23.001Z</time></trkpt><trkpt lat="43.401902907432095" lon="10.782679523262338"><ele>164.0</ele><time>2026-04-19T12:20:24.001Z</time></trkpt><trkpt lat="43.401918940708136" lon="10.782857345091456"><ele>163.25</ele><time>2026-04-19T12:20:25.001Z</time></trkpt><trkpt lat="43.40193598913806" lon="10.78303499816618"><ele>162.5</ele><time>2026-04-19T12:20:26.001Z</time></trkpt><trkpt lat="43.40195554409133" lon="10.783209478427771"><ele>161.75</ele><time>2026-04-19T12:20:27.001Z</time></trkpt><trkpt lat="43.40197288148136" lon="10.783383448583844"><ele>161.0</ele><time>2026-04-19T12:20:28.001Z</time></trkpt><trkpt lat="43.40199144784641" lon="10.783555516264927"><ele>160.25</ele><time>2026-04-19T12:20:29.001Z</time></trkpt><trkpt lat="43.40200945268608" lon="10.783729545365999"><ele>159.5</ele><time>2026-04-19T12:20:30.001Z</time></trkpt><trkpt lat="43.40202723705392" lon="10.783904110839996"><ele>158.75</ele><time>2026-04-19T12:20:31.001Z</time></trkpt><trkpt lat="43.40204370971124" lon="10.784078816905774"><ele>158.0</ele><time>2026-04-19T12:20:32.001Z</time></trkpt><trkpt lat="43.402064033508466" lon="10.784253323056571"><ele>157.75</ele><time>2026-04-19T12:20:33.001Z</time></trkpt><trkpt lat="43.40209373942644" lon="10.78442517536532"><ele>157.5</ele><time>2026-04-19T12:20:34.001Z</time></trkpt><trkpt lat="43.40213150529674" lon="10.78459561527191"><ele>157.25</ele><time>2026-04-19T12:20:35.001Z</time></trkpt><trkpt lat="43.402174698278046" lon="10.784764680719464"><ele>157.0</ele><time>2026-04-19T12:20:36.001Z</time></trkpt><trkpt lat="43.40222117184097" lon="10.784935062938631"><ele>158.75</ele><time>2026-04-19T12:20:37.001Z</time></trkpt><trkpt lat="43.402266882813024" lon="10.785110018473867"><ele>160.5</ele><time>2026-04-19T12:20:38.001Z</time></trkpt><trkpt lat="43.40231101188327" lon="10.78529024847577"><ele>162.25</ele><time>2026-04-19T12:20:39.001Z</time></trkpt><trkpt lat="43.40235642226363" lon="10.785475720501434"><ele>164.0</ele><time>2026-04-19T12:20:40.001Z</time></trkpt><trkpt lat="43.40240440390124" lon="10.785663245794465"><ele>164.0</ele><time>2026-04-19T12:20:41.001Z</time></trkpt><trkpt lat="43.40245251355725" lon="10.78585209838106"><ele>164.0</ele><time>2026-04-19T12:20:42.001Z</time></trkpt><trkpt lat="43.40249940479036" lon="10.786042909371123"><ele>164.0</ele><time>2026-04-19T12:20:43.001Z</time></trkpt><trkpt lat="43.40254726827963" lon="10.786231436485588"><ele>164.0</ele><time>2026-04-19T12:20:44.001Z</time></trkpt><trkpt lat="43.40259669518777" lon="10.786417561809445"><ele>164.5</ele><time>2026-04-19T12:20:45.001Z</time></trkpt><trkpt lat="43.40264474696943" lon="10.786603669568596"><ele>165.0</ele><time>2026-04-19T12:20:46.001Z</time></trkpt><trkpt lat="43.40269162978294" lon="10.786788070698243"><ele>165.5</ele><time>2026-04-19T12:20:47.001Z</time></trkpt><trkpt lat="43.40273546082416" lon="10.786972580524683"><ele>166.0</ele><time>2026-04-19T12:20:48.001Z</time></trkpt><trkpt lat="43.40277921219119" lon="10.787152053608555"><ele>166.5</ele><time>2026-04-19T12:20:49.001Z</time></trkpt><trkpt lat="43.40282046005433" lon="10.787323551165668"><ele>167.0</ele><time>2026-04-19T12:20:50.001Z</time></trkpt><trkpt lat="43.40285024120989" lon="10.787495679041513"><ele>167.5</ele><time>2026-04-19T12:20:51.001Z</time></trkpt><trkpt lat="43.402868643817165" lon="10.78766239831661"><ele>168.0</ele><time>2026-04-19T12:20:52.001Z</time></trkpt><trkpt lat="43.40287027727571" lon="10.78782317831414"><ele>169.75</ele><time>2026-04-19T12:20:53.001Z</time></trkpt><trkpt lat="43.40285616159475" lon="10.787978939203683"><ele>171.5</ele><time>2026-04-19T12:20:54.001Z</time></trkpt><trkpt lat="43.40281769756834" lon="10.788127037645504"><ele>173.25</ele><time>2026-04-19T12:20:55.001Z</time></trkpt><trkpt lat="43.40275992202874" lon="10.788265238819468"><ele>175.0</ele><time>2026-04-19T12:20:56.001Z</time></trkpt><trkpt lat="43.4026904906459" lon="10.78839560157636"><ele>176.5</ele><time>2026-04-19T12:20:57.001Z</time></trkpt><trkpt lat="43.40260872375678" lon="10.78852265058624"><ele>178.0</ele><time>2026-04-19T12:20:58.001Z</time></trkpt><trkpt lat="43.402520068515855" lon="10.788651154865681"><ele>179.5</ele><time>2026-04-19T12:20:59.001Z</time></trkpt><trkpt lat="43.402425475592665" lon="10.788780097073433"><ele>181.0</ele><time>2026-04-19T12:21:00.001Z</time></trkpt><trkpt lat="43.40232882235833" lon="10.788906381104743"><ele>181.0</ele><time>2026-04-19T12:21:01.001Z</time></trkpt><trkpt lat="43.402225333616805" lon="10.789017483094634"><ele>181.0</ele><time>2026-04-19T12:21:02.001Z</time></trkpt><trkpt lat="43.402115967341416" lon="10.789098925022534"><ele>181.0</ele><time>2026-04-19T12:21:03.001Z</time></trkpt><trkpt lat="43.40199928491705" lon="10.789148402778414"><ele>181.0</ele><time>2026-04-19T12:21:04.001Z</time></trkpt><trkpt lat="43.401880699141266" lon="10.789132999729008"><ele>178.75</ele><time>2026-04-19T12:21:05.001Z</time></trkpt><trkpt lat="43.40176526022336" lon="10.789110110351402"><ele>176.5</ele><time>2026-04-19T12:21:06.001Z</time></trkpt><trkpt lat="43.40165279118167" lon="10.789070015935335"><ele>174.25</ele><time>2026-04-19T12:21:07.001Z</time></trkpt><trkpt lat="43.40153593189597" lon="10.789031368242313"><ele>172.0</ele><time>2026-04-19T12:21:08.001Z</time></trkpt><trkpt lat="43.40141770528499" lon="10.789018980235165"><ele>169.0</ele><time>2026-04-19T12:21:09.001Z</time></trkpt><trkpt lat="43.40130706449729" lon="10.789012575760465"><ele>166.0</ele><time>2026-04-19T12:21:10.001Z</time></trkpt><trkpt lat="43.401204142833116" lon="10.789047532267759"><ele>163.0</ele><time>2026-04-19T12:21:11.001Z</time></trkpt><trkpt lat="43.40111880241644" lon="10.789118837427344"><ele>160.0</ele><time>2026-04-19T12:21:12.001Z</time></trkpt><trkpt lat="43.40105739104288" lon="10.789218653082196"><ele>157.0</ele><time>2026-04-19T12:21:13.001Z</time></trkpt><trkpt lat="43.40101558299172" lon="10.789335030968587"><ele>156.0</ele><time>2026-04-19T12:21:14.001Z</time></trkpt><trkpt lat="43.40099834253947" lon="10.789467010148051"><ele>155.0</ele><time>2026-04-19T12:21:15.001Z</time></trkpt><trkpt lat="43.401014981746634" lon="10.789597258476496"><ele>154.0</ele><time>2026-04-19T12:21:16.001Z</time></trkpt><trkpt lat="43.40104560498928" lon="10.7897210226293"><ele>153.0</ele><time>2026-04-19T12:21:17.001Z</time></trkpt><trkpt lat="43.401084225682496" lon="10.789836680515318"><ele>152.0</ele><time>2026-04-19T12:21:18.001Z</time></trkpt><trkpt lat="43.40113062815105" lon="10.789943013037526"><ele>152.0</ele><time>2026-04-19T12:21:19.001Z</time></trkpt><trkpt lat="43.40118543738221" lon="10.790039411307013"><ele>152.0</ele><time>2026-04-19T12:21:20.001Z</time></trkpt><trkpt lat="43.401240829438144" lon="10.790137992641581"><ele>152.0</ele><time>2026-04-19T12:21:21.001Z</time></trkpt><trkpt lat="43.40129852920129" lon="10.790233816646161"><ele>152.0</ele><time>2026-04-19T12:21:22.001Z</time></trkpt><trkpt lat="43.40135916028182" lon="10.79032723637439"><ele>152.0</ele><time>2026-04-19T12:21:23.001Z</time></trkpt><trkpt lat="43.40141209645341" lon="10.790421594406375"><ele>152.0</ele><time>2026-04-19T12:21:24.001Z</time></trkpt><trkpt lat="43.401452081618906" lon="10.790525186506954"><ele>151.66666666666666</ele><time>2026-04-19T12:21:25.001Z</time></trkpt><trkpt lat="43.40147231711628" lon="10.790633786916533"><ele>151.33333333333331</ele><time>2026-04-19T12:21:26.001Z</time></trkpt><trkpt lat="43.40146534271769" lon="10.7907451477164"><ele>151.0</ele><time>2026-04-19T12:21:27.001Z</time></trkpt><trkpt lat="43.40143503670487" lon="10.790851377856317"><ele>150.66666666666666</ele><time>2026-04-19T12:21:28.001Z</time></trkpt><trkpt lat="43.4013802875096" lon="10.790946998740258"><ele>150.33333333333334</ele><time>2026-04-19T12:21:29.001Z</time></trkpt><trkpt lat="43.401308466782446" lon="10.791025094948319"><ele>150.0</ele><time>2026-04-19T12:21:30.001Z</time></trkpt><trkpt lat="43.401228536184036" lon="10.791091105140692"><ele>150.0</ele><time>2026-04-19T12:21:31.001Z</time></trkpt><trkpt lat="43.40114590611495" lon="10.791152806209361"><ele>150.0</ele><time>2026-04-19T12:21:32.001Z</time></trkpt><trkpt lat="43.40106351114275" lon="10.79121214737716"><ele>150.0</ele><time>2026-04-19T12:21:33.001Z</time></trkpt><trkpt lat="43.40098850173207" lon="10.791254122884958"><ele>150.0</ele><time>2026-04-19T12:21:34.001Z</time></trkpt><trkpt lat="43.40087041400155" lon="10.791313229834842"><ele>150.0</ele><time>2026-04-19T12:21:36.001Z</time></trkpt><trkpt lat="43.400804024960166" lon="10.791339489067747"><ele>150.0</ele><time>2026-04-19T12:21:37.001Z</time></trkpt><trkpt lat="43.40072897201999" lon="10.7913647408176"><ele>150.0</ele><time>2026-04-19T12:21:38.001Z</time></trkpt><trkpt lat="43.400648433012826" lon="10.791394871434754"><ele>150.0</ele><time>2026-04-19T12:21:39.001Z</time></trkpt><trkpt lat="43.40056830731635" lon="10.79142658419971"><ele>150.0</ele><time>2026-04-19T12:21:40.001Z</time></trkpt><trkpt lat="43.40049066899633" lon="10.791459496930845"><ele>150.0</ele><time>2026-04-19T12:21:41.001Z</time></trkpt><trkpt lat="43.40041479050809" lon="10.791502269818604"><ele>150.0</ele><time>2026-04-19T12:21:42.001Z</time></trkpt><trkpt lat="43.40034143782033" lon="10.791547907202938"><ele>149.0</ele><time>2026-04-19T12:21:43.001Z</time></trkpt><trkpt lat="43.40026920818677" lon="10.791603683765075"><ele>148.0</ele><time>2026-04-19T12:21:44.001Z</time></trkpt><trkpt lat="43.40019809040238" lon="10.79167146727074"><ele>147.0</ele><time>2026-04-19T12:21:45.001Z</time></trkpt><trkpt lat="43.400133297126786" lon="10.791754531161684"><ele>146.0</ele><time>2026-04-19T12:21:46.001Z</time></trkpt><trkpt lat="43.40008046002004" lon="10.791853374369957"><ele>145.0</ele><time>2026-04-19T12:21:47.001Z</time></trkpt><trkpt lat="43.40003783105441" lon="10.79196301654833"><ele>144.0</ele><time>2026-04-19T12:21:48.001Z</time></trkpt><trkpt lat="43.40000179153706" lon="10.792077727543429"><ele>144.0</ele><time>2026-04-19T12:21:49.001Z</time></trkpt><trkpt lat="43.39997113210963" lon="10.7921939926747"><ele>144.0</ele><time>2026-04-19T12:21:50.001Z</time></trkpt><trkpt lat="43.39993988478244" lon="10.792309642939623"><ele>144.0</ele><time>2026-04-19T12:21:51.001Z</time></trkpt><trkpt lat="43.39990401392813" lon="10.792422388844171"><ele>144.0</ele><time>2026-04-19T12:21:52.001Z</time></trkpt><trkpt lat="43.399860631543596" lon="10.79252772597621"><ele>144.0</ele><time>2026-04-19T12:21:53.001Z</time></trkpt><trkpt lat="43.39980692876465" lon="10.79262487832671"><ele>144.0</ele><time>2026-04-19T12:21:54.001Z</time></trkpt><trkpt lat="43.399736742573786" lon="10.79270572668777"><ele>143.0</ele><time>2026-04-19T12:21:55.001Z</time></trkpt><trkpt lat="43.399657211944934" lon="10.792771413027321"><ele>142.0</ele><time>2026-04-19T12:21:56.001Z</time></trkpt><trkpt lat="43.39957868945424" lon="10.79281519654464"><ele>141.0</ele><time>2026-04-19T12:21:57.001Z</time></trkpt><trkpt lat="43.39949030918664" lon="10.792850054977155"><ele>140.0</ele><time>2026-04-19T12:21:58.001Z</time></trkpt><trkpt lat="43.39939568361738" lon="10.792881503489607"><ele>139.0</ele><time>2026-04-19T12:21:59.001Z</time></trkpt><trkpt lat="43.39929663157443" lon="10.79291107561583"><ele>139.0</ele><time>2026-04-19T12:22:00.001Z</time></trkpt><trkpt lat="43.39919344877574" lon="10.792932373979792"><ele>139.0</ele><time>2026-04-19T12:22:01.001Z</time></trkpt><trkpt lat="43.39908939633888" lon="10.792904242171591"><ele>139.0</ele><time>2026-04-19T12:22:02.001Z</time></trkpt><trkpt lat="43.39898497384596" lon="10.792863836693389"><ele>139.0</ele><time>2026-04-19T12:22:03.001Z</time></trkpt><trkpt lat="43.39888207589541" lon="10.792810759646907"><ele>139.0</ele><time>2026-04-19T12:22:04.001Z</time></trkpt><trkpt lat="43.39877788588316" lon="10.79275211563625"><ele>138.4</ele><time>2026-04-19T12:22:05.001Z</time></trkpt><trkpt lat="43.39867412652935" lon="10.792692741820659"><ele>137.8</ele><time>2026-04-19T12:22:06.001Z</time></trkpt><trkpt lat="43.398571860650726" lon="10.79263422264224"><ele>137.2</ele><time>2026-04-19T12:22:07.001Z</time></trkpt><trkpt lat="43.39847063748519" lon="10.792577307764748"><ele>136.6</ele><time>2026-04-19T12:22:08.001Z</time></trkpt><trkpt lat="43.398369560170224" lon="10.792522699848117"><ele>136.0</ele><time>2026-04-19T12:22:09.001Z</time></trkpt><trkpt lat="43.39826725989365" lon="10.792469202458271"><ele>136.0</ele><time>2026-04-19T12:22:10.001Z</time></trkpt><trkpt lat="43.398160731570755" lon="10.792420174569711"><ele>136.0</ele><time>2026-04-19T12:22:11.002Z</time></trkpt><trkpt lat="43.39805106818974" lon="10.792405254343807"><ele>136.0</ele><time>2026-04-19T12:22:12.002Z</time></trkpt><trkpt lat="43.39794738495449" lon="10.792378072816629"><ele>136.0</ele><time>2026-04-19T12:22:13.002Z</time></trkpt><trkpt lat="43.397846042088304" lon="10.792366035629753"><ele>136.0</ele><time>2026-04-19T12:22:14.002Z</time></trkpt><trkpt lat="43.39774800702426" lon="10.792367113166025"><ele>136.33333333333334</ele><time>2026-04-19T12:22:15.002Z</time></trkpt><trkpt lat="43.397654640318535" lon="10.792379906471352"><ele>136.66666666666669</ele><time>2026-04-19T12:22:16.002Z</time></trkpt><trkpt lat="43.39756440430935" lon="10.792395453970535"><ele>137.0</ele><time>2026-04-19T12:22:17.002Z</time></trkpt><trkpt lat="43.39748505896572" lon="10.792405327241486"><ele>137.33333333333334</ele><time>2026-04-19T12:22:18.002Z</time></trkpt><trkpt lat="43.3973820299998" lon="10.79238578652083"><ele>137.66666666666666</ele><time>2026-04-19T12:22:20.002Z</time></trkpt><trkpt lat="43.39732407540538" lon="10.792331514337741"><ele>138.0</ele><time>2026-04-19T12:22:26.999Z</time></trkpt><trkpt lat="43.397292172442384" lon="10.792418470379854"><ele>138.0</ele><time>2026-04-19T12:22:34Z</time></trkpt><trkpt lat="43.39735059538225" lon="10.792383685829117"><ele>138.0</ele><time>2026-04-19T12:22:38Z</time></trkpt><trkpt lat="43.39762097843376" lon="10.792423614780834"><ele>138.0</ele><time>2026-04-19T12:22:40Z</time></trkpt><trkpt lat="43.39770301051197" lon="10.792405732492101"><ele>138.0</ele><time>2026-04-19T12:22:41Z</time></trkpt><trkpt lat="43.39779374714038" lon="10.792388876196885"><ele>138.0</ele><time>2026-04-19T12:22:42Z</time></trkpt><trkpt lat="43.39789387842333" lon="10.792392781664807"><ele>138.0</ele><time>2026-04-19T12:22:43Z</time></trkpt><trkpt lat="43.398002321158444" lon="10.79242046358765"><ele>138.0</ele><time>2026-04-19T12:22:44Z</time></trkpt><trkpt lat="43.39811660669639" lon="10.792458376434766"><ele>138.0</ele><time>2026-04-19T12:22:45Z</time></trkpt><trkpt lat="43.39823808913277" lon="10.792513356728799"><ele>137.5</ele><time>2026-04-19T12:22:46Z</time></trkpt><trkpt lat="43.39836522094689" lon="10.792580207021631"><ele>137.0</ele><time>2026-04-19T12:22:47Z</time></trkpt><trkpt lat="43.39849572134694" lon="10.79265511798392"><ele>136.5</ele><time>2026-04-19T12:22:48Z</time></trkpt><trkpt lat="43.398620904033336" lon="10.792731509640863"><ele>136.0</ele><time>2026-04-19T12:22:49Z</time></trkpt><trkpt lat="43.39874392135622" lon="10.792802620237001"><ele>136.75</ele><time>2026-04-19T12:22:50Z</time></trkpt><trkpt lat="43.398865116602565" lon="10.79286898607673"><ele>137.5</ele><time>2026-04-19T12:22:51Z</time></trkpt><trkpt lat="43.39898398666538" lon="10.792927166500245"><ele>138.25</ele><time>2026-04-19T12:22:52Z</time></trkpt><trkpt lat="43.39910475488399" lon="10.792958676193303"><ele>139.0</ele><time>2026-04-19T12:22:53Z</time></trkpt><trkpt lat="43.39922982543593" lon="10.79296032903581"><ele>139.0</ele><time>2026-04-19T12:22:54Z</time></trkpt><trkpt lat="43.39935707517329" lon="10.792933593718136"><ele>139.0</ele><time>2026-04-19T12:22:55Z</time></trkpt><trkpt lat="43.39948418858081" lon="10.792892947774497"><ele>139.0</ele><time>2026-04-19T12:22:56Z</time></trkpt><trkpt lat="43.399606691715206" lon="10.792833594926616"><ele>139.0</ele><time>2026-04-19T12:22:57Z</time></trkpt><trkpt lat="43.399729124353684" lon="10.792772939683886"><ele>140.25</ele><time>2026-04-19T12:22:58Z</time></trkpt><trkpt lat="43.399830976442686" lon="10.792667657802628"><ele>141.5</ele><time>2026-04-19T12:22:59Z</time></trkpt><trkpt lat="43.39991148851554" lon="10.792532526141773"><ele>142.75</ele><time>2026-04-19T12:23:00Z</time></trkpt><trkpt lat="43.39996981770943" lon="10.792379996845826"><ele>144.0</ele><time>2026-04-19T12:23:01Z</time></trkpt><trkpt lat="43.40001488667982" lon="10.792223199549495"><ele>144.0</ele><time>2026-04-19T12:23:02Z</time></trkpt><trkpt lat="43.40005818007992" lon="10.792068838965811"><ele>144.0</ele><time>2026-04-19T12:23:03Z</time></trkpt><trkpt lat="43.4001076618149" lon="10.791927113381862"><ele>144.0</ele><time>2026-04-19T12:23:04Z</time></trkpt><trkpt lat="43.40017422445592" lon="10.79179672573149"><ele>144.0</ele><time>2026-04-19T12:23:05Z</time></trkpt><trkpt lat="43.40026357829358" lon="10.791682940027288"><ele>143.25</ele><time>2026-04-19T12:23:06Z</time></trkpt><trkpt lat="43.40035985203824" lon="10.791565135189163"><ele>142.5</ele><time>2026-04-19T12:23:07Z</time></trkpt><trkpt lat="43.400483234614015" lon="10.791498724044379"><ele>141.75</ele><time>2026-04-19T12:23:08Z</time></trkpt><trkpt lat="43.40061300816792" lon="10.791449251989594"><ele>141.0</ele><time>2026-04-19T12:23:09Z</time></trkpt><trkpt lat="43.400746830097795" lon="10.791404087657531"><ele>143.25</ele><time>2026-04-19T12:23:10Z</time></trkpt><trkpt lat="43.40087906713182" lon="10.79135116067193"><ele>145.5</ele><time>2026-04-19T12:23:11Z</time></trkpt><trkpt lat="43.40100943193387" lon="10.7912874672756"><ele>147.75</ele><time>2026-04-19T12:23:12Z</time></trkpt><trkpt lat="43.40113768136797" lon="10.791208518295168"><ele>150.0</ele><time>2026-04-19T12:23:13Z</time></trkpt><trkpt lat="43.4012589022766" lon="10.79111169482844"><ele>152.5</ele><time>2026-04-19T12:23:14Z</time></trkpt><trkpt lat="43.40136387034005" lon="10.791001292751833"><ele>155.0</ele><time>2026-04-19T12:23:15Z</time></trkpt><trkpt lat="43.401458111001496" lon="10.790895333673337"><ele>157.5</ele><time>2026-04-19T12:23:16Z</time></trkpt><trkpt lat="43.40151869434084" lon="10.790749762388206"><ele>160.0</ele><time>2026-04-19T12:23:17Z</time></trkpt><trkpt lat="43.40151971676722" lon="10.790574212214418"><ele>160.0</ele><time>2026-04-19T12:23:18Z</time></trkpt><trkpt lat="43.401463405378465" lon="10.790423867170368"><ele>160.0</ele><time>2026-04-19T12:23:19Z</time></trkpt><trkpt lat="43.40139680832549" lon="10.790295702022894"><ele>160.0</ele><time>2026-04-19T12:23:20Z</time></trkpt><trkpt lat="43.4013397017908" lon="10.790165859081016"><ele>160.0</ele><time>2026-04-19T12:23:21Z</time></trkpt><trkpt lat="43.40127336171116" lon="10.790052913259652"><ele>158.4</ele><time>2026-04-19T12:23:22Z</time></trkpt><trkpt lat="43.40121159421683" lon="10.789945249110483"><ele>156.8</ele><time>2026-04-19T12:23:23Z</time></trkpt><trkpt lat="43.40115442329094" lon="10.789835203932906"><ele>155.2</ele><time>2026-04-19T12:23:24Z</time></trkpt><trkpt lat="43.40110986862509" lon="10.789712793242145"><ele>153.6</ele><time>2026-04-19T12:23:25Z</time></trkpt><trkpt lat="43.40107745164443" lon="10.789583966770962"><ele>152.0</ele><time>2026-04-19T12:23:26Z</time></trkpt><trkpt lat="43.401064199123674" lon="10.789453923086253"><ele>153.0</ele><time>2026-04-19T12:23:27Z</time></trkpt><trkpt lat="43.40107147430689" lon="10.789328848128255"><ele>154.0</ele><time>2026-04-19T12:23:28Z</time></trkpt><trkpt lat="43.40110958372986" lon="10.789219016635654"><ele>155.0</ele><time>2026-04-19T12:23:29.001Z</time></trkpt><trkpt lat="43.401158679693964" lon="10.789117419455906"><ele>156.0</ele><time>2026-04-19T12:23:30.001Z</time></trkpt><trkpt lat="43.40124524483136" lon="10.789057220630898"><ele>157.0</ele><time>2026-04-19T12:23:31.001Z</time></trkpt><trkpt lat="43.401339871532784" lon="10.789036159910864"><ele>160.0</ele><time>2026-04-19T12:23:32.001Z</time></trkpt><trkpt lat="43.401435956865065" lon="10.789053500328176"><ele>163.0</ele><time>2026-04-19T12:23:33.001Z</time></trkpt><trkpt lat="43.401529511116216" lon="10.789090542456437"><ele>166.0</ele><time>2026-04-19T12:23:34.001Z</time></trkpt><trkpt lat="43.40162398956059" lon="10.789127714290348"><ele>169.0</ele><time>2026-04-19T12:23:35.001Z</time></trkpt><trkpt lat="43.40172190641212" lon="10.789159523171005"><ele>172.0</ele><time>2026-04-19T12:23:36.001Z</time></trkpt><trkpt lat="43.40182207510342" lon="10.789181423398894"><ele>172.0</ele><time>2026-04-19T12:23:37.001Z</time></trkpt><trkpt lat="43.401925519936" lon="10.789184060998391"><ele>172.0</ele><time>2026-04-19T12:23:38.001Z</time></trkpt><trkpt lat="43.40203216825088" lon="10.789167842492231"><ele>172.0</ele><time>2026-04-19T12:23:39.001Z</time></trkpt><trkpt lat="43.402134659592576" lon="10.789126360061632"><ele>172.0</ele><time>2026-04-19T12:23:40.001Z</time></trkpt><trkpt lat="43.402231814415984" lon="10.789055449542841"><ele>172.0</ele><time>2026-04-19T12:23:41.001Z</time></trkpt><trkpt lat="43.40232163455333" lon="10.788965497734651"><ele>172.6</ele><time>2026-04-19T12:23:42.001Z</time></trkpt><trkpt lat="43.402404073794386" lon="10.788862318245886"><ele>173.2</ele><time>2026-04-19T12:23:43.001Z</time></trkpt><trkpt lat="43.40249274489876" lon="10.788774639996259"><ele>173.8</ele><time>2026-04-19T12:23:44.001Z</time></trkpt><trkpt lat="43.40256627719506" lon="10.788671118041806"><ele>174.4</ele><time>2026-04-19T12:23:45.001Z</time></trkpt><trkpt lat="43.402636091813086" lon="10.788568809691364"><ele>175.0</ele><time>2026-04-19T12:23:46.001Z</time></trkpt><trkpt lat="43.402701959188875" lon="10.788466740915165"><ele>175.0</ele><time>2026-04-19T12:23:47.001Z</time></trkpt><trkpt lat="43.40276358811255" lon="10.788363633532388"><ele>175.0</ele><time>2026-04-19T12:23:48.001Z</time></trkpt><trkpt lat="43.402816266118876" lon="10.78825643736936"><ele>175.0</ele><time>2026-04-19T12:23:49.001Z</time></trkpt><trkpt lat="43.40286114118257" lon="10.788152051903802"><ele>175.0</ele><time>2026-04-19T12:23:50.001Z</time></trkpt><trkpt lat="43.40287969574828" lon="10.788048189992168"><ele>175.0</ele><time>2026-04-19T12:23:51.001Z</time></trkpt><trkpt lat="43.402935779460506" lon="10.787987631835971"><ele>175.0</ele><time>2026-04-19T12:23:52.001Z</time></trkpt><trkpt lat="43.403070307465825" lon="10.78799080347401"><ele>175.5</ele><time>2026-04-19T12:23:54.001Z</time></trkpt><trkpt lat="43.40313939697889" lon="10.788042021821663"><ele>176.0</ele><time>2026-04-19T12:23:55.001Z</time></trkpt><trkpt lat="43.40319906205072" lon="10.788113718202698"><ele>176.5</ele><time>2026-04-19T12:23:56.001Z</time></trkpt><trkpt lat="43.403256108510675" lon="10.788197163600364"><ele>177.0</ele><time>2026-04-19T12:23:57.001Z</time></trkpt><trkpt lat="43.40330652541491" lon="10.788295499459588"><ele>177.5</ele><time>2026-04-19T12:23:58.001Z</time></trkpt><trkpt lat="43.40335227239894" lon="10.788399615708231"><ele>178.0</ele><time>2026-04-19T12:23:59.001Z</time></trkpt><trkpt lat="43.40340020166688" lon="10.78850428041183"><ele>179.4</ele><time>2026-04-19T12:24:00.001Z</time></trkpt><trkpt lat="43.403449172441526" lon="10.788612711037896"><ele>180.8</ele><time>2026-04-19T12:24:01.001Z</time></trkpt><trkpt lat="43.40350265173827" lon="10.788722180240464"><ele>182.2</ele><time>2026-04-19T12:24:02.001Z</time></trkpt><trkpt lat="43.403557426207406" lon="10.788833787184387"><ele>183.6</ele><time>2026-04-19T12:24:03.001Z</time></trkpt><trkpt lat="43.40361339054938" lon="10.788948024824464"><ele>185.0</ele><time>2026-04-19T12:24:04.001Z</time></trkpt><trkpt lat="43.4036697023601" lon="10.789067420133659"><ele>185.0</ele><time>2026-04-19T12:24:05.001Z</time></trkpt><trkpt lat="43.40372852746583" lon="10.789193117970466"><ele>185.0</ele><time>2026-04-19T12:24:06.001Z</time></trkpt><trkpt lat="43.40378945027605" lon="10.789326878003827"><ele>185.0</ele><time>2026-04-19T12:24:07.001Z</time></trkpt><trkpt lat="43.40385788068408" lon="10.789459753482218"><ele>185.0</ele><time>2026-04-19T12:24:08.001Z</time></trkpt><trkpt lat="43.40389086097656" lon="10.789608508261415"><ele>185.0</ele><time>2026-04-19T12:24:09.001Z</time></trkpt><trkpt lat="43.403929609248024" lon="10.789746801238337"><ele>185.0</ele><time>2026-04-19T12:24:10.001Z</time></trkpt><trkpt lat="43.403965638963086" lon="10.789894389588653"><ele>185.0</ele><time>2026-04-19T12:24:11.001Z</time></trkpt><trkpt lat="43.404004401349596" lon="10.790041932411324"><ele>185.0</ele><time>2026-04-19T12:24:12.001Z</time></trkpt><trkpt lat="43.40405889462026" lon="10.790181538744575"><ele>186.0</ele><time>2026-04-19T12:24:13.001Z</time></trkpt><trkpt lat="43.40412294112589" lon="10.790310739899132"><ele>187.0</ele><time>2026-04-19T12:24:14.001Z</time></trkpt><trkpt lat="43.40419551374978" lon="10.790425708711972"><ele>188.0</ele><time>2026-04-19T12:24:15.001Z</time></trkpt><trkpt lat="43.40427532040226" lon="10.790528676233839"><ele>189.0</ele><time>2026-04-19T12:24:16.001Z</time></trkpt><trkpt lat="43.40435742613916" lon="10.79062903706757"><ele>190.0</ele><time>2026-04-19T12:24:17.001Z</time></trkpt><trkpt lat="43.404442002301266" lon="10.790734925202333"><ele>190.0</ele><time>2026-04-19T12:24:18.001Z</time></trkpt><trkpt lat="43.404533660149944" lon="10.79083902628018"><ele>190.0</ele><time>2026-04-19T12:24:19.001Z</time></trkpt><trkpt lat="43.40462949093214" lon="10.790944331093213"><ele>190.0</ele><time>2026-04-19T12:24:20.001Z</time></trkpt><trkpt lat="43.404726699901545" lon="10.791053892773508"><ele>190.0</ele><time>2026-04-19T12:24:21.001Z</time></trkpt><trkpt lat="43.40481857838378" lon="10.791176312336388"><ele>191.5</ele><time>2026-04-19T12:24:22.001Z</time></trkpt><trkpt lat="43.40490089748835" lon="10.791315025664206"><ele>193.0</ele><time>2026-04-19T12:24:23.001Z</time></trkpt><trkpt lat="43.40497720518294" lon="10.791464131418403"><ele>194.5</ele><time>2026-04-19T12:24:24.001Z</time></trkpt><trkpt lat="43.40506205598292" lon="10.791607670182566"><ele>196.0</ele><time>2026-04-19T12:24:25.001Z</time></trkpt><trkpt lat="43.40515372574936" lon="10.79173744873773"><ele>197.4</ele><time>2026-04-19T12:24:26Z</time></trkpt><trkpt lat="43.40525031026778" lon="10.79184089151875"><ele>198.8</ele><time>2026-04-19T12:24:27Z</time></trkpt><trkpt lat="43.405333032633116" lon="10.791943246834467"><ele>200.20000000000002</ele><time>2026-04-19T12:24:28Z</time></trkpt><trkpt lat="43.40538190449995" lon="10.79206689590313"><ele>201.60000000000002</ele><time>2026-04-19T12:24:29Z</time></trkpt><trkpt lat="43.40540085496819" lon="10.792206392014192"><ele>203.0</ele><time>2026-04-19T12:24:30Z</time></trkpt><trkpt lat="43.40539351780114" lon="10.792344797476698"><ele>203.0</ele><time>2026-04-19T12:24:31Z</time></trkpt><trkpt lat="43.4053759608062" lon="10.79247336417842"><ele>203.0</ele><time>2026-04-19T12:24:32Z</time></trkpt><trkpt lat="43.40537319154597" lon="10.792595601541636"><ele>203.0</ele><time>2026-04-19T12:24:33Z</time></trkpt><trkpt lat="43.40538691858312" lon="10.792715903819305"><ele>203.0</ele><time>2026-04-19T12:24:34Z</time></trkpt><trkpt lat="43.405440464906825" lon="10.79281742188452"><ele>203.0</ele><time>2026-04-19T12:24:35Z</time></trkpt><trkpt lat="43.405484090535275" lon="10.792929755455436"><ele>202.4</ele><time>2026-04-19T12:24:36Z</time></trkpt><trkpt lat="43.40552951762613" lon="10.793045767147351"><ele>201.8</ele><time>2026-04-19T12:24:37Z</time></trkpt><trkpt lat="43.40556886591393" lon="10.793173793031762"><ele>201.2</ele><time>2026-04-19T12:24:38Z</time></trkpt><trkpt lat="43.40563704325473" lon="10.793278438947498"><ele>200.6</ele><time>2026-04-19T12:24:39Z</time></trkpt><trkpt lat="43.405722113599644" lon="10.793357658368166"><ele>200.0</ele><time>2026-04-19T12:24:40Z</time></trkpt><trkpt lat="43.40581953806946" lon="10.79340792678609"><ele>200.0</ele><time>2026-04-19T12:24:41Z</time></trkpt><trkpt lat="43.40592379276249" lon="10.793428683772097"><ele>200.0</ele><time>2026-04-19T12:24:42Z</time></trkpt><trkpt lat="43.40602769121554" lon="10.7934268558527"><ele>200.0</ele><time>2026-04-19T12:24:43Z</time></trkpt><trkpt lat="43.406131727177375" lon="10.793416829393331"><ele>200.0</ele><time>2026-04-19T12:24:44Z</time></trkpt><trkpt lat="43.40623366232985" lon="10.793437970370082"><ele>200.0</ele><time>2026-04-19T12:24:45Z</time></trkpt><trkpt lat="43.4063361789027" lon="10.79344180115441"><ele>200.8</ele><time>2026-04-19T12:24:46Z</time></trkpt><trkpt lat="43.40643983054954" lon="10.79344700630539"><ele>201.6</ele><time>2026-04-19T12:24:47Z</time></trkpt><trkpt lat="43.40654212327269" lon="10.79345279784632"><ele>202.39999999999998</ele><time>2026-04-19T12:24:48Z</time></trkpt><trkpt lat="43.406642676160764" lon="10.793458039224328"><ele>203.2</ele><time>2026-04-19T12:24:49Z</time></trkpt><trkpt lat="43.40674144132197" lon="10.793513586630622"><ele>204.0</ele><time>2026-04-19T12:24:50Z</time></trkpt><trkpt lat="43.40684141876763" lon="10.793590042695538"><ele>205.25</ele><time>2026-04-19T12:24:51Z</time></trkpt><trkpt lat="43.406934349226404" lon="10.793687130222303"><ele>206.5</ele><time>2026-04-19T12:24:52Z</time></trkpt><trkpt lat="43.40702483911196" lon="10.793793505142398"><ele>207.75</ele><time>2026-04-19T12:24:53Z</time></trkpt><trkpt lat="43.40711103983795" lon="10.793906126272166"><ele>209.0</ele><time>2026-04-19T12:24:54Z</time></trkpt><trkpt lat="43.40719074558847" lon="10.794029290035475"><ele>209.0</ele><time>2026-04-19T12:24:55Z</time></trkpt><trkpt lat="43.4072615652747" lon="10.794164245202053"><ele>209.0</ele><time>2026-04-19T12:24:56Z</time></trkpt><trkpt lat="43.40731812624167" lon="10.794315145776997"><ele>209.0</ele><time>2026-04-19T12:24:57Z</time></trkpt><trkpt lat="43.407364597927526" lon="10.794476779258641"><ele>209.0</ele><time>2026-04-19T12:24:58Z</time></trkpt><trkpt lat="43.40740304468454" lon="10.794647251058768"><ele>207.25</ele><time>2026-04-19T12:24:59Z</time></trkpt><trkpt lat="43.407438233681134" lon="10.794823112985021"><ele>205.5</ele><time>2026-04-19T12:25:00Z</time></trkpt><trkpt lat="43.407475981208485" lon="10.79500189636116"><ele>203.75</ele><time>2026-04-19T12:25:01Z</time></trkpt><trkpt lat="43.407514077672474" lon="10.795178493685263"><ele>202.0</ele><time>2026-04-19T12:25:02Z</time></trkpt><trkpt lat="43.40755114259714" lon="10.79534902041465"><ele>201.2</ele><time>2026-04-19T12:25:03.001Z</time></trkpt><trkpt lat="43.4075859858629" lon="10.795513324417971"><ele>200.39999999999998</ele><time>2026-04-19T12:25:04.001Z</time></trkpt><trkpt lat="43.407618382440944" lon="10.795667876065846"><ele>199.60000000000002</ele><time>2026-04-19T12:25:05.001Z</time></trkpt><trkpt lat="43.40764949443413" lon="10.795800957979788"><ele>198.8</ele><time>2026-04-19T12:25:06.001Z</time></trkpt><trkpt lat="43.40769132354614" lon="10.79590353018733"><ele>198.0</ele><time>2026-04-19T12:25:07.001Z</time></trkpt><trkpt lat="43.40775149976151" lon="10.795972478646693"><ele>198.66666666666666</ele><time>2026-04-19T12:25:08.001Z</time></trkpt><trkpt lat="43.407832656552955" lon="10.79601659604742"><ele>199.33333333333331</ele><time>2026-04-19T12:25:09.001Z</time></trkpt><trkpt lat="43.407926377579656" lon="10.796028090646947"><ele>200.0</ele><time>2026-04-19T12:25:10.001Z</time></trkpt><trkpt lat="43.40801757218668" lon="10.79601642824068"><ele>200.66666666666666</ele><time>2026-04-19T12:25:11.001Z</time></trkpt><trkpt lat="43.40810267896801" lon="10.795986639873076"><ele>201.33333333333331</ele><time>2026-04-19T12:25:12.001Z</time></trkpt><trkpt lat="43.40818292089004" lon="10.795977422602803"><ele>202.0</ele><time>2026-04-19T12:25:13.001Z</time></trkpt><trkpt lat="43.40824438074123" lon="10.79592396775282"><ele>201.99999999999997</ele><time>2026-04-19T12:25:14.001Z</time></trkpt><trkpt lat="43.40834279646182" lon="10.795890200086305"><ele>202.0</ele><time>2026-04-19T12:25:16.001Z</time></trkpt><trkpt lat="43.40841225829645" lon="10.795898286393594"><ele>202.0</ele><time>2026-04-19T12:25:18.001Z</time></trkpt><trkpt lat="43.40850170646216" lon="10.795900706464328"><ele>202.0</ele><time>2026-04-19T12:25:20.001Z</time></trkpt><trkpt lat="43.40862019228875" lon="10.795849888983524"><ele>201.99999999999997</ele><time>2026-04-19T12:25:22.001Z</time></trkpt><trkpt lat="43.40866275504694" lon="10.79578281763525"><ele>202.0</ele><time>2026-04-19T12:25:23.001Z</time></trkpt><trkpt lat="43.40867618282582" lon="10.795567384070267"><ele>202.0</ele><time>2026-04-19T12:25:25.001Z</time></trkpt><trkpt lat="43.40863069269782" lon="10.795490012860341"><ele>202.0</ele><time>2026-04-19T12:25:26.001Z</time></trkpt><trkpt lat="43.40860165727086" lon="10.795329336361405"><ele>202.0</ele><time>2026-04-19T12:25:28.001Z</time></trkpt><trkpt lat="43.4085663186429" lon="10.795165175587218"><ele>202.0</ele><time>2026-04-19T12:25:30.001Z</time></trkpt><trkpt lat="43.40860989225648" lon="10.795061363451364"><ele>202.0</ele><time>2026-04-19T12:25:31.001Z</time></trkpt><trkpt lat="43.40859616783891" lon="10.794969727863"><ele>202.66666666666666</ele><time>2026-04-19T12:25:32.001Z</time></trkpt><trkpt lat="43.408580609924606" lon="10.794872898408363"><ele>203.33333333333331</ele><time>2026-04-19T12:25:33.001Z</time></trkpt><trkpt lat="43.4085651915037" lon="10.794779347046584"><ele>204.0</ele><time>2026-04-19T12:25:34.001Z</time></trkpt><trkpt lat="43.408550249018376" lon="10.794687787257693"><ele>204.66666666666669</ele><time>2026-04-19T12:25:35.001Z</time></trkpt><trkpt lat="43.4085362602693" lon="10.794596382088471"><ele>205.33333333333334</ele><time>2026-04-19T12:25:36.001Z</time></trkpt><trkpt lat="43.408523962408246" lon="10.794509865368042"><ele>206.0</ele><time>2026-04-19T12:25:37.001Z</time></trkpt><trkpt lat="43.40850846122402" lon="10.794347301876567"><ele>206.8</ele><time>2026-04-19T12:25:39.001Z</time></trkpt><trkpt lat="43.40851639480008" lon="10.7941632291737"><ele>207.60000000000002</ele><time>2026-04-19T12:25:41.001Z</time></trkpt><trkpt lat="43.40851970763573" lon="10.794060969923684"><ele>208.4</ele><time>2026-04-19T12:25:42.001Z</time></trkpt><trkpt lat="43.40852316849686" lon="10.793954141402446"><ele>209.2</ele><time>2026-04-19T12:25:43.001Z</time></trkpt><trkpt lat="43.40852672393042" lon="10.793844393299452"><ele>210.0</ele><time>2026-04-19T12:25:44.001Z</time></trkpt><trkpt lat="43.408530488280896" lon="10.793728197373033"><ele>210.0</ele><time>2026-04-19T12:25:45.001Z</time></trkpt><trkpt lat="43.40852826867504" lon="10.793608180177225"><ele>210.0</ele><time>2026-04-19T12:25:46.001Z</time></trkpt><trkpt lat="43.40851831931113" lon="10.79349519536737"><ele>210.0</ele><time>2026-04-19T12:25:47.001Z</time></trkpt><trkpt lat="43.40849498101982" lon="10.79339624078911"><ele>210.0</ele><time>2026-04-19T12:25:48.001Z</time></trkpt><trkpt lat="43.4084633054754" lon="10.793313075690596"><ele>210.0</ele><time>2026-04-19T12:25:49.001Z</time></trkpt><trkpt lat="43.40842651799489" lon="10.793242731582826"><ele>210.0</ele><time>2026-04-19T12:25:50.001Z</time></trkpt><trkpt lat="43.40835449471984" lon="10.793110201426014"><ele>210.0</ele><time>2026-04-19T12:25:52.001Z</time></trkpt><trkpt lat="43.408314116661245" lon="10.793040467924893"><ele>210.0</ele><time>2026-04-19T12:25:53.001Z</time></trkpt><trkpt lat="43.408250077858185" lon="10.792914224905998"><ele>210.0</ele><time>2026-04-19T12:25:55.001Z</time></trkpt><trkpt lat="43.40820969510307" lon="10.792771579185885"><ele>210.0</ele><time>2026-04-19T12:25:57.001Z</time></trkpt><trkpt lat="43.408201658569254" lon="10.79260448264384"><ele>210.0</ele><time>2026-04-19T12:25:59.001Z</time></trkpt><trkpt lat="43.40820290440338" lon="10.792514123956757"><ele>210.0</ele><time>2026-04-19T12:26:00.001Z</time></trkpt><trkpt lat="43.408204022932864" lon="10.792419607858603"><ele>210.0</ele><time>2026-04-19T12:26:01.001Z</time></trkpt><trkpt lat="43.408206054464266" lon="10.792323148459213"><ele>210.0</ele><time>2026-04-19T12:26:02.001Z</time></trkpt><trkpt lat="43.40820977026842" lon="10.792222435305277"><ele>210.0</ele><time>2026-04-19T12:26:03.001Z</time></trkpt><trkpt lat="43.40822024989061" lon="10.792127566093406"><ele>210.0</ele><time>2026-04-19T12:26:04.001Z</time></trkpt><trkpt lat="43.40823973539123" lon="10.792043302562801"><ele>210.0</ele><time>2026-04-19T12:26:05.001Z</time></trkpt><trkpt lat="43.408265163464684" lon="10.79195550645425"><ele>210.0</ele><time>2026-04-19T12:26:06.001Z</time></trkpt><trkpt lat="43.408302241250006" lon="10.791877760324121"><ele>210.5</ele><time>2026-04-19T12:26:07.001Z</time></trkpt><trkpt lat="43.40835185773026" lon="10.791808077870376"><ele>211.0</ele><time>2026-04-19T12:26:08.001Z</time></trkpt><trkpt lat="43.40840943719789" lon="10.791726851546208"><ele>211.5</ele><time>2026-04-19T12:26:09.001Z</time></trkpt><trkpt lat="43.40846385239834" lon="10.791642383720475"><ele>212.0</ele><time>2026-04-19T12:26:10.001Z</time></trkpt><trkpt lat="43.40851903463129" lon="10.791554959956333"><ele>212.5</ele><time>2026-04-19T12:26:11.001Z</time></trkpt><trkpt lat="43.40857133949814" lon="10.79146712468826"><ele>213.0</ele><time>2026-04-19T12:26:12.001Z</time></trkpt><trkpt lat="43.408618105529605" lon="10.791381251402289"><ele>212.99999999999997</ele><time>2026-04-19T12:26:13.001Z</time></trkpt><trkpt lat="43.40866023491744" lon="10.791296876904225"><ele>213.0</ele><time>2026-04-19T12:26:14.001Z</time></trkpt><trkpt lat="43.40869659231309" lon="10.791206806723743"><ele>213.0</ele><time>2026-04-19T12:26:15.001Z</time></trkpt><trkpt lat="43.408728994049476" lon="10.791119061912637"><ele>213.0</ele><time>2026-04-19T12:26:16.001Z</time></trkpt><trkpt lat="43.40875306831072" lon="10.79101625747648"><ele>213.0</ele><time>2026-04-19T12:26:17.001Z</time></trkpt><trkpt lat="43.408776520927" lon="10.790920225216485"><ele>212.99999999999997</ele><time>2026-04-19T12:26:18.001Z</time></trkpt><trkpt lat="43.40879820281433" lon="10.790823512389371"><ele>213.0</ele><time>2026-04-19T12:26:19.001Z</time></trkpt><trkpt lat="43.408819128349386" lon="10.79072871137388"><ele>212.28571428571428</ele><time>2026-04-19T12:26:20.001Z</time></trkpt><trkpt lat="43.40883991037406" lon="10.790634215167358"><ele>211.57142857142856</ele><time>2026-04-19T12:26:21.001Z</time></trkpt><trkpt lat="43.40886120996055" lon="10.790543189396345"><ele>210.85714285714283</ele><time>2026-04-19T12:26:22.001Z</time></trkpt><trkpt lat="43.4088855675606" lon="10.790454004684891"><ele>210.14285714285714</ele><time>2026-04-19T12:26:23.001Z</time></trkpt><trkpt lat="43.40891552249332" lon="10.790363461460236"><ele>209.42857142857144</ele><time>2026-04-19T12:26:24.001Z</time></trkpt><trkpt lat="43.408948375189276" lon="10.790264065501928"><ele>208.7142857142857</ele><time>2026-04-19T12:26:25.001Z</time></trkpt><trkpt lat="43.408977909442264" lon="10.790163244797702"><ele>208.0</ele><time>2026-04-19T12:26:26.001Z</time></trkpt><trkpt lat="43.409009212208204" lon="10.790056386805517"><ele>207.99999999999997</ele><time>2026-04-19T12:26:27.001Z</time></trkpt><trkpt lat="43.40904064440021" lon="10.789945495733916"><ele>208.0</ele><time>2026-04-19T12:26:28.001Z</time></trkpt><trkpt lat="43.40907062443388" lon="10.78982882679966"><ele>208.0</ele><time>2026-04-19T12:26:29.001Z</time></trkpt><trkpt lat="43.4090971506931" lon="10.789718719934958"><ele>208.0</ele><time>2026-04-19T12:26:30.001Z</time></trkpt><trkpt lat="43.4091236347592" lon="10.789620697050422"><ele>207.99999999999997</ele><time>2026-04-19T12:26:31.001Z</time></trkpt><trkpt lat="43.4091604429223" lon="10.789538559753277"><ele>208.0</ele><time>2026-04-19T12:26:32.001Z</time></trkpt><trkpt lat="43.40921866067811" lon="10.789476503298612"><ele>207.99999999999997</ele><time>2026-04-19T12:26:33.001Z</time></trkpt><trkpt lat="43.409283955393605" lon="10.789410018460183"><ele>208.0</ele><time>2026-04-19T12:26:34.001Z</time></trkpt><trkpt lat="43.40936215910235" lon="10.789376857994359"><ele>208.0</ele><time>2026-04-19T12:26:35.001Z</time></trkpt><trkpt lat="43.409436558067384" lon="10.78932914531951"><ele>208.0</ele><time>2026-04-19T12:26:36.001Z</time></trkpt><trkpt lat="43.409510477549034" lon="10.789274867046725"><ele>207.99999999999997</ele><time>2026-04-19T12:26:37.001Z</time></trkpt><trkpt lat="43.40958600067048" lon="10.789224690375608"><ele>208.0</ele><time>2026-04-19T12:26:38.001Z</time></trkpt><trkpt lat="43.409662894941285" lon="10.78918053957435"><ele>208.33333333333331</ele><time>2026-04-19T12:26:39.001Z</time></trkpt><trkpt lat="43.4097443204361" lon="10.789174215243785"><ele>208.66666666666666</ele><time>2026-04-19T12:26:40.001Z</time></trkpt><trkpt lat="43.40981805159652" lon="10.78919603572556"><ele>209.0</ele><time>2026-04-19T12:26:41.001Z</time></trkpt><trkpt lat="43.40988259637834" lon="10.789233761842738"><ele>209.33333333333331</ele><time>2026-04-19T12:26:42.001Z</time></trkpt><trkpt lat="43.40994416690958" lon="10.789293381515687"><ele>209.66666666666666</ele><time>2026-04-19T12:26:43.001Z</time></trkpt><trkpt lat="43.41001078020617" lon="10.789351698836123"><ele>210.0</ele><time>2026-04-19T12:26:44.001Z</time></trkpt><trkpt lat="43.410075136689684" lon="10.7894092511348"><ele>208.66666666666666</ele><time>2026-04-19T12:26:45.001Z</time></trkpt><trkpt lat="43.410141809485175" lon="10.789462383636591"><ele>207.33333333333331</ele><time>2026-04-19T12:26:46.001Z</time></trkpt><trkpt lat="43.41020995768999" lon="10.789513391701293"><ele>206.0</ele><time>2026-04-19T12:26:47.001Z</time></trkpt><trkpt lat="43.41027743610438" lon="10.789571071048867"><ele>204.66666666666666</ele><time>2026-04-19T12:26:48.001Z</time></trkpt><trkpt lat="43.410344064609596" lon="10.789629412025596"><ele>203.33333333333331</ele><time>2026-04-19T12:26:49.001Z</time></trkpt><trkpt lat="43.41041094201983" lon="10.78968738408479"><ele>202.0</ele><time>2026-04-19T12:26:50.001Z</time></trkpt><trkpt lat="43.4104742883222" lon="10.789742118318841"><ele>203.28571428571428</ele><time>2026-04-19T12:26:51.001Z</time></trkpt><trkpt lat="43.410533361462846" lon="10.78979462187613"><ele>204.57142857142856</ele><time>2026-04-19T12:26:52.001Z</time></trkpt><trkpt lat="43.41059101256404" lon="10.789846231600514"><ele>205.85714285714286</ele><time>2026-04-19T12:26:53.001Z</time></trkpt><trkpt lat="43.41065336387021" lon="10.789897235915523"><ele>207.14285714285714</ele><time>2026-04-19T12:26:54.001Z</time></trkpt><trkpt lat="43.41071788299424" lon="10.789951578793026"><ele>208.42857142857144</ele><time>2026-04-19T12:26:55.001Z</time></trkpt><trkpt lat="43.41078411190749" lon="10.790008019758206"><ele>209.71428571428572</ele><time>2026-04-19T12:26:56.001Z</time></trkpt><trkpt lat="43.41084717460528" lon="10.790073210830627"><ele>211.0</ele><time>2026-04-19T12:26:57.001Z</time></trkpt><trkpt lat="43.41090492871406" lon="10.790141557879073"><ele>208.16666666666666</ele><time>2026-04-19T12:26:58.001Z</time></trkpt><trkpt lat="43.410963516594315" lon="10.790202601735032"><ele>205.33333333333331</ele><time>2026-04-19T12:26:59.001Z</time></trkpt><trkpt lat="43.41102476742554" lon="10.790259642238524"><ele>202.5</ele><time>2026-04-19T12:27:00.001Z</time></trkpt><trkpt lat="43.411090512204055" lon="10.790310701104447"><ele>199.66666666666669</ele><time>2026-04-19T12:27:01.001Z</time></trkpt><trkpt lat="43.41116159937645" lon="10.790354380998856"><ele>196.83333333333334</ele><time>2026-04-19T12:27:02.001Z</time></trkpt><trkpt lat="43.411233772060214" lon="10.790389720588932"><ele>194.0</ele><time>2026-04-19T12:27:03.001Z</time></trkpt><trkpt lat="43.41130232153156" lon="10.790420925963769"><ele>195.50000000000003</ele><time>2026-04-19T12:27:04.001Z</time></trkpt><trkpt lat="43.41136897701836" lon="10.790435999104309"><ele>197.0</ele><time>2026-04-19T12:27:05.001Z</time></trkpt><trkpt lat="43.411432565025834" lon="10.790427774657712"><ele>198.5</ele><time>2026-04-19T12:27:06.001Z</time></trkpt><trkpt lat="43.41155181160913" lon="10.790332460080398"><ele>200.0</ele><time>2026-04-19T12:27:08.001Z</time></trkpt><trkpt lat="43.4116237919496" lon="10.790304436844133"><ele>201.50000000000003</ele><time>2026-04-19T12:27:09.001Z</time></trkpt><trkpt lat="43.41168819816017" lon="10.790256168686067"><ele>203.0</ele><time>2026-04-19T12:27:10.001Z</time></trkpt><trkpt lat="43.411748359007525" lon="10.79020818471159"><ele>203.85714285714286</ele><time>2026-04-19T12:27:11.001Z</time></trkpt><trkpt lat="43.41178940686793" lon="10.790127747211939"><ele>204.71428571428572</ele><time>2026-04-19T12:27:12.001Z</time></trkpt><trkpt lat="43.41183426429623" lon="10.790051318925292"><ele>205.57142857142856</ele><time>2026-04-19T12:27:13.001Z</time></trkpt><trkpt lat="43.411863819303264" lon="10.789961877824297"><ele>206.42857142857144</ele><time>2026-04-19T12:27:14.001Z</time></trkpt><trkpt lat="43.41188279527172" lon="10.789866168395562"><ele>207.28571428571428</ele><time>2026-04-19T12:27:15.001Z</time></trkpt><trkpt lat="43.41194457724785" lon="10.789781252184525"><ele>208.14285714285714</ele><time>2026-04-19T12:27:16.001Z</time></trkpt><trkpt lat="43.41196187923188" lon="10.789681463178225"><ele>209.0</ele><time>2026-04-19T12:27:17.001Z</time></trkpt><trkpt lat="43.41197850904988" lon="10.78958267021761"><ele>209.00000000000003</ele><time>2026-04-19T12:27:18.001Z</time></trkpt><trkpt lat="43.41199285463916" lon="10.78947947371702"><ele>209.0</ele><time>2026-04-19T12:27:19.001Z</time></trkpt><trkpt lat="43.41200320963842" lon="10.789374525436173"><ele>209.0</ele><time>2026-04-19T12:27:20.001Z</time></trkpt><trkpt lat="43.41201057867512" lon="10.789269827527724"><ele>209.0</ele><time>2026-04-19T12:27:21.001Z</time></trkpt><trkpt lat="43.41201684759219" lon="10.789167353659078"><ele>209.00000000000003</ele><time>2026-04-19T12:27:22.001Z</time></trkpt><trkpt lat="43.412022922414664" lon="10.789066664704958"><ele>209.0</ele><time>2026-04-19T12:27:23.001Z</time></trkpt><trkpt lat="43.41202832309118" lon="10.788963660399094"><ele>209.28571428571428</ele><time>2026-04-19T12:27:24.001Z</time></trkpt><trkpt lat="43.412033323941" lon="10.78886439705755"><ele>209.57142857142856</ele><time>2026-04-19T12:27:25.001Z</time></trkpt><trkpt lat="43.41203827407657" lon="10.788766140262709"><ele>209.85714285714286</ele><time>2026-04-19T12:27:26.001Z</time></trkpt><trkpt lat="43.41204490908258" lon="10.78866928531012"><ele>210.14285714285714</ele><time>2026-04-19T12:27:27.001Z</time></trkpt><trkpt lat="43.412052150648606" lon="10.788566820564185"><ele>210.42857142857144</ele><time>2026-04-19T12:27:28.001Z</time></trkpt><trkpt lat="43.412053321087456" lon="10.78846650594058"><ele>210.71428571428572</ele><time>2026-04-19T12:27:29.001Z</time></trkpt><trkpt lat="43.41206597543915" lon="10.78837396844787"><ele>211.0</ele><time>2026-04-19T12:27:30.001Z</time></trkpt><trkpt lat="43.41211856395686" lon="10.788228678909064"><ele>207.4</ele><time>2026-04-19T12:27:32.001Z</time></trkpt><trkpt lat="43.41218547185563" lon="10.78808695931746"><ele>203.8</ele><time>2026-04-19T12:27:34.001Z</time></trkpt><trkpt lat="43.4122620231247" lon="10.78795634767166"><ele>200.20000000000002</ele><time>2026-04-19T12:27:36.001Z</time></trkpt><trkpt lat="43.41230235066484" lon="10.787882688101003"><ele>196.60000000000002</ele><time>2026-04-19T12:27:37.001Z</time></trkpt><trkpt lat="43.41234473487671" lon="10.787802196879344"><ele>193.0</ele><time>2026-04-19T12:27:38.001Z</time></trkpt><trkpt lat="43.412380284069" lon="10.787697404803465"><ele>192.83333333333331</ele><time>2026-04-19T12:27:39.001Z</time></trkpt><trkpt lat="43.41239608628974" lon="10.78757855767309"><ele>192.66666666666666</ele><time>2026-04-19T12:27:40.001Z</time></trkpt><trkpt lat="43.412393676983264" lon="10.787471447865954"><ele>192.5</ele><time>2026-04-19T12:27:41.001Z</time></trkpt><trkpt lat="43.41237988202648" lon="10.7873444875681"><ele>192.33333333333331</ele><time>2026-04-19T12:27:43.001Z</time></trkpt><trkpt lat="43.412373371875354" lon="10.787239375774568"><ele>192.16666666666666</ele><time>2026-04-19T12:27:46.001Z</time></trkpt><trkpt lat="43.41238815849718" lon="10.787107421938174"><ele>192.0</ele><time>2026-04-19T12:27:49.001Z</time></trkpt><trkpt lat="43.412440961861805" lon="10.78699371625595"><ele>192.0</ele><time>2026-04-19T12:27:51.001Z</time></trkpt><trkpt lat="43.412533191967405" lon="10.786906396723852"><ele>192.0</ele><time>2026-04-19T12:27:53.001Z</time></trkpt><trkpt lat="43.4126376860761" lon="10.786810569943622"><ele>192.0</ele><time>2026-04-19T12:27:55.001Z</time></trkpt><trkpt lat="43.412694464310846" lon="10.786762118102056"><ele>192.0</ele><time>2026-04-19T12:27:56.001Z</time></trkpt><trkpt lat="43.41275194359087" lon="10.786713089291032"><ele>192.0</ele><time>2026-04-19T12:27:57.001Z</time></trkpt><trkpt lat="43.412806249868076" lon="10.786666961060929"><ele>192.0</ele><time>2026-04-19T12:27:58.001Z</time></trkpt><trkpt lat="43.412925777635024" lon="10.786595439132284"><ele>192.7142857142857</ele><time>2026-04-19T12:28:00.001Z</time></trkpt><trkpt lat="43.41298437757378" lon="10.786544015607493"><ele>193.42857142857142</ele><time>2026-04-19T12:28:01.001Z</time></trkpt><trkpt lat="43.41304041278414" lon="10.78649324101768"><ele>194.14285714285714</ele><time>2026-04-19T12:28:02.001Z</time></trkpt><trkpt lat="43.413096480292616" lon="10.786442016708628"><ele>194.85714285714283</ele><time>2026-04-19T12:28:03.001Z</time></trkpt><trkpt lat="43.41315254741041" lon="10.786391694725458"><ele>195.57142857142858</ele><time>2026-04-19T12:28:04.001Z</time></trkpt><trkpt lat="43.41321150177351" lon="10.786341072619743"><ele>196.28571428571428</ele><time>2026-04-19T12:28:05.001Z</time></trkpt><trkpt lat="43.41327117288307" lon="10.78629486203195"><ele>197.0</ele><time>2026-04-19T12:28:06.001Z</time></trkpt><trkpt lat="43.41333126290398" lon="10.78624725624761"><ele>195.42857142857144</ele><time>2026-04-19T12:28:07.001Z</time></trkpt><trkpt lat="43.41340213169827" lon="10.786235977863853"><ele>193.85714285714286</ele><time>2026-04-19T12:28:08.001Z</time></trkpt><trkpt lat="43.413472639570216" lon="10.786241893178849"><ele>192.28571428571428</ele><time>2026-04-19T12:28:09.001Z</time></trkpt><trkpt lat="43.41354208499029" lon="10.786263818120593"><ele>190.71428571428572</ele><time>2026-04-19T12:28:10.001Z</time></trkpt><trkpt lat="43.41360834979724" lon="10.786285658763802"><ele>189.14285714285714</ele><time>2026-04-19T12:28:11.001Z</time></trkpt><trkpt lat="43.41367302578923" lon="10.786304698902182"><ele>187.57142857142858</ele><time>2026-04-19T12:28:12.001Z</time></trkpt><trkpt lat="43.413739234087714" lon="10.78631070080036"><ele>186.0</ele><time>2026-04-19T12:28:13.001Z</time></trkpt><trkpt lat="43.41380638613617" lon="10.786306132406336"><ele>185.16666666666666</ele><time>2026-04-19T12:28:14.001Z</time></trkpt><trkpt lat="43.41387742735066" lon="10.786296197835403"><ele>184.33333333333334</ele><time>2026-04-19T12:28:15.001Z</time></trkpt><trkpt lat="43.413951330630994" lon="10.78628371874998"><ele>183.5</ele><time>2026-04-19T12:28:16.002Z</time></trkpt><trkpt lat="43.414026032014604" lon="10.786267660280194"><ele>182.66666666666669</ele><time>2026-04-19T12:28:17.002Z</time></trkpt><trkpt lat="43.41410309535612" lon="10.786250438821664"><ele>181.83333333333334</ele><time>2026-04-19T12:28:18.002Z</time></trkpt><trkpt lat="43.41418216546441" lon="10.786235916623488"><ele>181.0</ele><time>2026-04-19T12:28:19.002Z</time></trkpt><trkpt lat="43.41426123136443" lon="10.786226808673009"><ele>181.0</ele><time>2026-04-19T12:28:20.002Z</time></trkpt><trkpt lat="43.41433830703168" lon="10.786217921361146"><ele>181.0</ele><time>2026-04-19T12:28:21.002Z</time></trkpt><trkpt lat="43.41441342523295" lon="10.786208270428627"><ele>181.0</ele><time>2026-04-19T12:28:22.002Z</time></trkpt><trkpt lat="43.414485581654404" lon="10.786202915225214"><ele>181.0</ele><time>2026-04-19T12:28:23.002Z</time></trkpt><trkpt lat="43.41455545817045" lon="10.786212766295899"><ele>181.0</ele><time>2026-04-19T12:28:24.002Z</time></trkpt><trkpt lat="43.41462660424387" lon="10.78622390641837"><ele>181.0</ele><time>2026-04-19T12:28:25.002Z</time></trkpt><trkpt lat="43.41469536622635" lon="10.786237574163328"><ele>181.0</ele><time>2026-04-19T12:28:26.002Z</time></trkpt><trkpt lat="43.414762614710796" lon="10.786249828713498"><ele>180.85714285714286</ele><time>2026-04-19T12:28:27.002Z</time></trkpt><trkpt lat="43.414826027696826" lon="10.786263703937367"><ele>180.71428571428572</ele><time>2026-04-19T12:28:28.002Z</time></trkpt><trkpt lat="43.41488938052778" lon="10.786278888362764"><ele>180.57142857142856</ele><time>2026-04-19T12:28:29.002Z</time></trkpt><trkpt lat="43.414951998269515" lon="10.786294026305525"><ele>180.42857142857144</ele><time>2026-04-19T12:28:30.002Z</time></trkpt><trkpt lat="43.41501620359538" lon="10.786307949129109"><ele>180.2857142857143</ele><time>2026-04-19T12:28:31.002Z</time></trkpt><trkpt lat="43.415082911192606" lon="10.786321280596633"><ele>180.14285714285714</ele><time>2026-04-19T12:28:32.002Z</time></trkpt><trkpt lat="43.41515182593619" lon="10.786333309371754"><ele>180.0</ele><time>2026-04-19T12:28:33.002Z</time></trkpt><trkpt lat="43.41522244569801" lon="10.786346157937993"><ele>180.0</ele><time>2026-04-19T12:28:34.002Z</time></trkpt><trkpt lat="43.415294125109384" lon="10.786360960895845"><ele>180.0</ele><time>2026-04-19T12:28:35.002Z</time></trkpt><trkpt lat="43.415366874187015" lon="10.786378528763628"><ele>180.0</ele><time>2026-04-19T12:28:36.002Z</time></trkpt><trkpt lat="43.415439396051106" lon="10.786398818794149"><ele>180.0</ele><time>2026-04-19T12:28:37.001Z</time></trkpt><trkpt lat="43.41551101994405" lon="10.786421876483868"><ele>180.0</ele><time>2026-04-19T12:28:38.001Z</time></trkpt><trkpt lat="43.41558108802992" lon="10.78643960986396"><ele>180.0</ele><time>2026-04-19T12:28:39.001Z</time></trkpt><trkpt lat="43.41565257687431" lon="10.786451914996816"><ele>180.0</ele><time>2026-04-19T12:28:40.001Z</time></trkpt><trkpt lat="43.41572344466759" lon="10.786465587704884"><ele>180.7142857142857</ele><time>2026-04-19T12:28:41.001Z</time></trkpt><trkpt lat="43.41579430156719" lon="10.786480718088864"><ele>181.42857142857144</ele><time>2026-04-19T12:28:42.001Z</time></trkpt><trkpt lat="43.41586498379164" lon="10.78649715994596"><ele>182.14285714285714</ele><time>2026-04-19T12:28:43.001Z</time></trkpt><trkpt lat="43.415934926755035" lon="10.786514198019523"><ele>182.85714285714283</ele><time>2026-04-19T12:28:44.001Z</time></trkpt><trkpt lat="43.416005208256244" lon="10.786530652360899"><ele>183.57142857142856</ele><time>2026-04-19T12:28:45.001Z</time></trkpt><trkpt lat="43.41607543121089" lon="10.786547357529686"><ele>184.28571428571428</ele><time>2026-04-19T12:28:46.001Z</time></trkpt><trkpt lat="43.4161460587042" lon="10.786565982079978"><ele>185.0</ele><time>2026-04-19T12:28:47.001Z</time></trkpt><trkpt lat="43.41621683039443" lon="10.786589428072366"><ele>184.99999999999997</ele><time>2026-04-19T12:28:48.001Z</time></trkpt><trkpt lat="43.41628733249445" lon="10.786616468301947"><ele>185.0</ele><time>2026-04-19T12:28:49.001Z</time></trkpt><trkpt lat="43.4163562889292" lon="10.78665012827519"><ele>185.0</ele><time>2026-04-19T12:28:50.001Z</time></trkpt><trkpt lat="43.416422944044726" lon="10.786692792798211"><ele>185.0</ele><time>2026-04-19T12:28:51.001Z</time></trkpt><trkpt lat="43.416487357175306" lon="10.786742885253128"><ele>185.0</ele><time>2026-04-19T12:28:52.001Z</time></trkpt><trkpt lat="43.41655139021468" lon="10.786792305331703"><ele>184.99999999999997</ele><time>2026-04-19T12:28:53.001Z</time></trkpt><trkpt lat="43.41661605309094" lon="10.786838547063116"><ele>185.0</ele><time>2026-04-19T12:28:54.001Z</time></trkpt><trkpt lat="43.41667948295744" lon="10.78688434853758"><ele>184.57142857142856</ele><time>2026-04-19T12:28:55.001Z</time></trkpt><trkpt lat="43.416742777525215" lon="10.786933083323294"><ele>184.14285714285714</ele><time>2026-04-19T12:28:56.001Z</time></trkpt><trkpt lat="43.416805481719" lon="10.786983106692"><ele>183.71428571428572</ele><time>2026-04-19T12:28:57.001Z</time></trkpt><trkpt lat="43.41686622533509" lon="10.787034481255086"><ele>183.28571428571428</ele><time>2026-04-19T12:28:58.001Z</time></trkpt><trkpt lat="43.41692835972068" lon="10.787082769997024"><ele>182.85714285714286</ele><time>2026-04-19T12:28:59.001Z</time></trkpt><trkpt lat="43.41699086372818" lon="10.78712948151067"><ele>182.42857142857142</ele><time>2026-04-19T12:29:00.001Z</time></trkpt><trkpt lat="43.417052481492405" lon="10.787174758930387"><ele>182.0</ele><time>2026-04-19T12:29:01.001Z</time></trkpt><trkpt lat="43.417114248386696" lon="10.78721896654113"><ele>183.42857142857142</ele><time>2026-04-19T12:29:02.001Z</time></trkpt><trkpt lat="43.417174477368796" lon="10.787265990988962"><ele>184.85714285714286</ele><time>2026-04-19T12:29:03.001Z</time></trkpt><trkpt lat="43.41723292348056" lon="10.787315904599414"><ele>186.28571428571428</ele><time>2026-04-19T12:29:04.001Z</time></trkpt><trkpt lat="43.41729177272975" lon="10.787360418372742"><ele>187.71428571428572</ele><time>2026-04-19T12:29:05.001Z</time></trkpt><trkpt lat="43.41735267667572" lon="10.78740116649537"><ele>189.14285714285714</ele><time>2026-04-19T12:29:06.001Z</time></trkpt><trkpt lat="43.41741563958876" lon="10.787438682229167"><ele>190.57142857142856</ele><time>2026-04-19T12:29:07.001Z</time></trkpt><trkpt lat="43.41748092853185" lon="10.7874766372076"><ele>192.0</ele><time>2026-04-19T12:29:08.001Z</time></trkpt><trkpt lat="43.417550764610176" lon="10.787511144831642"><ele>192.0</ele><time>2026-04-19T12:29:09.001Z</time></trkpt><trkpt lat="43.417623386436155" lon="10.787542500218901"><ele>192.0</ele><time>2026-04-19T12:29:10.001Z</time></trkpt><trkpt lat="43.417697594922814" lon="10.787575124646409"><ele>192.0</ele><time>2026-04-19T12:29:11.001Z</time></trkpt><trkpt lat="43.41777365465197" lon="10.787609173940245"><ele>192.0</ele><time>2026-04-19T12:29:12.001Z</time></trkpt><trkpt lat="43.4178533539226" lon="10.787644512561464"><ele>192.0</ele><time>2026-04-19T12:29:13.001Z</time></trkpt><trkpt lat="43.41793273179766" lon="10.787683502670555"><ele>192.0</ele><time>2026-04-19T12:29:14.001Z</time></trkpt><trkpt lat="43.41800856501045" lon="10.787742377006042"><ele>192.39999999999998</ele><time>2026-04-19T12:29:15.001Z</time></trkpt><trkpt lat="43.41807575735348" lon="10.787819660664379"><ele>192.79999999999998</ele><time>2026-04-19T12:29:16.001Z</time></trkpt><trkpt lat="43.418137126639245" lon="10.787913177108091"><ele>193.2</ele><time>2026-04-19T12:29:17.001Z</time></trkpt><trkpt lat="43.418190700020375" lon="10.788014165869773"><ele>193.6</ele><time>2026-04-19T12:29:18.001Z</time></trkpt><trkpt lat="43.418239632065315" lon="10.7881226053879"><ele>194.0</ele><time>2026-04-19T12:29:19.001Z</time></trkpt><trkpt lat="43.41828836593535" lon="10.78823086096446"><ele>194.0</ele><time>2026-04-19T12:29:20.001Z</time></trkpt><trkpt lat="43.41834905913348" lon="10.788330937609176"><ele>194.0</ele><time>2026-04-19T12:29:21.001Z</time></trkpt><trkpt lat="43.418423239336725" lon="10.788421860664206"><ele>194.0</ele><time>2026-04-19T12:29:22.001Z</time></trkpt><trkpt lat="43.418510347349056" lon="10.788495035673135"><ele>194.0</ele><time>2026-04-19T12:29:23.001Z</time></trkpt><trkpt lat="43.41860654015759" lon="10.78855537794929"><ele>194.0</ele><time>2026-04-19T12:29:24.001Z</time></trkpt><trkpt lat="43.41870970481526" lon="10.788598086397934"><ele>193.0</ele><time>2026-04-19T12:29:25.001Z</time></trkpt><trkpt lat="43.41881774607885" lon="10.788627835653116"><ele>192.0</ele><time>2026-04-19T12:29:26.001Z</time></trkpt><trkpt lat="43.418928534935006" lon="10.788652389205382"><ele>191.0</ele><time>2026-04-19T12:29:27.001Z</time></trkpt><trkpt lat="43.419041543559096" lon="10.788680882951445"><ele>190.0</ele><time>2026-04-19T12:29:28.001Z</time></trkpt><trkpt lat="43.419155131457" lon="10.788721081510639"><ele>190.0</ele><time>2026-04-19T12:29:29.001Z</time></trkpt><trkpt lat="43.419265556410274" lon="10.788779311965024"><ele>190.0</ele><time>2026-04-19T12:29:30.001Z</time></trkpt><trkpt lat="43.419371639011715" lon="10.788856187841493"><ele>190.0</ele><time>2026-04-19T12:29:31.001Z</time></trkpt><trkpt lat="43.41947280575697" lon="10.788942100685246"><ele>190.0</ele><time>2026-04-19T12:29:32.001Z</time></trkpt><trkpt lat="43.41957014735975" lon="10.789033364881316"><ele>190.8</ele><time>2026-04-19T12:29:33.001Z</time></trkpt><trkpt lat="43.41966597995371" lon="10.78912145962369"><ele>191.6</ele><time>2026-04-19T12:29:34.001Z</time></trkpt><trkpt lat="43.41976216419991" lon="10.789204695560937"><ele>192.39999999999998</ele><time>2026-04-19T12:29:35.001Z</time></trkpt><trkpt lat="43.41985739442229" lon="10.789283388314862"><ele>193.2</ele><time>2026-04-19T12:29:36.001Z</time></trkpt><trkpt lat="43.419947997052105" lon="10.789360336571436"><ele>194.0</ele><time>2026-04-19T12:29:37.001Z</time></trkpt><trkpt lat="43.42003485675746" lon="10.78943614144896"><ele>194.0</ele><time>2026-04-19T12:29:38.001Z</time></trkpt><trkpt lat="43.42012435417054" lon="10.789509600185694"><ele>194.0</ele><time>2026-04-19T12:29:39.001Z</time></trkpt><trkpt lat="43.42021533182616" lon="10.789584032209069"><ele>194.0</ele><time>2026-04-19T12:29:40.001Z</time></trkpt><trkpt lat="43.42030573911413" lon="10.789664511191006"><ele>194.0</ele><time>2026-04-19T12:29:41.001Z</time></trkpt><trkpt lat="43.42039788700227" lon="10.789748182219329"><ele>194.0</ele><time>2026-04-19T12:29:42.001Z</time></trkpt><trkpt lat="43.42049246071633" lon="10.789829285660723"><ele>195.25</ele><time>2026-04-19T12:29:43.001Z</time></trkpt><trkpt lat="43.4205905774226" lon="10.789908048936878"><ele>196.5</ele><time>2026-04-19T12:29:44.001Z</time></trkpt><trkpt lat="43.42069044794543" lon="10.789986391675527"><ele>197.75</ele><time>2026-04-19T12:29:45.001Z</time></trkpt><trkpt lat="43.42079255325594" lon="10.790064456650676"><ele>199.0</ele><time>2026-04-19T12:29:46.001Z</time></trkpt><trkpt lat="43.42089850596579" lon="10.790142192686687"><ele>200.0</ele><time>2026-04-19T12:29:47.001Z</time></trkpt><trkpt lat="43.421010399312095" lon="10.790222551510187"><ele>201.0</ele><time>2026-04-19T12:29:48.001Z</time></trkpt><trkpt lat="43.42112565629211" lon="10.79030147006416"><ele>202.0</ele><time>2026-04-19T12:29:49.001Z</time></trkpt><trkpt lat="43.42123881358523" lon="10.790382781348157"><ele>203.0</ele><time>2026-04-19T12:29:50.001Z</time></trkpt><trkpt lat="43.421357992799024" lon="10.790468520985234"><ele>203.0</ele><time>2026-04-19T12:29:51.001Z</time></trkpt><trkpt lat="43.42147984904182" lon="10.790561645274048"><ele>203.0</ele><time>2026-04-19T12:29:52.001Z</time></trkpt><trkpt lat="43.421605623524435" lon="10.790661053298969"><ele>203.0</ele><time>2026-04-19T12:29:53.001Z</time></trkpt><trkpt lat="43.421731350164265" lon="10.790757663096468"><ele>203.0</ele><time>2026-04-19T12:29:54.001Z</time></trkpt><trkpt lat="43.421859908262576" lon="10.790845914094845"><ele>203.0</ele><time>2026-04-19T12:29:55.001Z</time></trkpt><trkpt lat="43.421987531749075" lon="10.790921624910876"><ele>203.0</ele><time>2026-04-19T12:29:56.001Z</time></trkpt><trkpt lat="43.42211024184285" lon="10.790981405863036"><ele>203.0</ele><time>2026-04-19T12:29:57.001Z</time></trkpt><trkpt lat="43.42221577986426" lon="10.79104555891406"><ele>203.0</ele><time>2026-04-19T12:29:58.001Z</time></trkpt><trkpt lat="43.422299936625336" lon="10.79110905398201"><ele>201.50000000000003</ele><time>2026-04-19T12:29:59.001Z</time></trkpt><trkpt lat="43.42237431987343" lon="10.791181344920686"><ele>200.0</ele><time>2026-04-19T12:30:00.001Z</time></trkpt><trkpt lat="43.42242792166264" lon="10.79124134452428"><ele>198.5</ele><time>2026-04-19T12:30:01.001Z</time></trkpt><trkpt lat="43.42251060255209" lon="10.791320102597371"><ele>197.0</ele><time>2026-04-19T12:30:03.001Z</time></trkpt><trkpt lat="43.422566662038406" lon="10.791365295234273"><ele>195.50000000000003</ele><time>2026-04-19T12:30:04.001Z</time></trkpt><trkpt lat="43.4226271049337" lon="10.791412251922953"><ele>194.0</ele><time>2026-04-19T12:30:05.001Z</time></trkpt><trkpt lat="43.42269301751685" lon="10.791454855223682"><ele>194.00000000000003</ele><time>2026-04-19T12:30:06.001Z</time></trkpt><trkpt lat="43.422757858157055" lon="10.791490335404143"><ele>194.0</ele><time>2026-04-19T12:30:07.001Z</time></trkpt><trkpt lat="43.42281682116932" lon="10.791522000441622"><ele>194.0</ele><time>2026-04-19T12:30:08.001Z</time></trkpt><trkpt lat="43.422922535347425" lon="10.791573326617996"><ele>194.0</ele><time>2026-04-19T12:30:10.001Z</time></trkpt><trkpt lat="43.42300855799388" lon="10.791606674590247"><ele>194.00000000000003</ele><time>2026-04-19T12:30:12.001Z</time></trkpt><trkpt lat="43.42308099167312" lon="10.791634358375397"><ele>194.0</ele><time>2026-04-19T12:30:14.001Z</time></trkpt><trkpt lat="43.42317287077926" lon="10.791666043941643"><ele>194.2</ele><time>2026-04-19T12:30:16.001Z</time></trkpt><trkpt lat="43.42328937084308" lon="10.79171079535158"><ele>194.39999999999998</ele><time>2026-04-19T12:30:18.002Z</time></trkpt><trkpt lat="43.42339064106413" lon="10.791775740127806"><ele>194.6</ele><time>2026-04-19T12:30:20.002Z</time></trkpt><trkpt lat="43.42345464174932" lon="10.791831268685478"><ele>194.8</ele><time>2026-04-19T12:30:22.002Z</time></trkpt><trkpt lat="43.42352498168026" lon="10.791911247435646"><ele>195.0</ele><time>2026-04-19T12:30:24.002Z</time></trkpt><trkpt lat="43.42361891032281" lon="10.792032914175023"><ele>195.0</ele><time>2026-04-19T12:30:26.002Z</time></trkpt><trkpt lat="43.42366735813075" lon="10.792089029920335"><ele>195.0</ele><time>2026-04-19T12:30:27.002Z</time></trkpt><trkpt lat="43.423773805472955" lon="10.792177433157265"><ele>195.0</ele><time>2026-04-19T12:30:29.002Z</time></trkpt><trkpt lat="43.42383163560089" lon="10.792214263999801"><ele>195.0</ele><time>2026-04-19T12:30:30.002Z</time></trkpt><trkpt lat="43.4239452694495" lon="10.79227174034093"><ele>195.0</ele><time>2026-04-19T12:30:32.002Z</time></trkpt><trkpt lat="43.42404553606788" lon="10.792317305773045"><ele>195.0</ele><time>2026-04-19T12:30:34.002Z</time></trkpt><trkpt lat="43.4241282893363" lon="10.792344895978623"><ele>195.0</ele><time>2026-04-19T12:30:36.002Z</time></trkpt><trkpt lat="43.42421223240412" lon="10.792376703760189"><ele>195.0</ele><time>2026-04-19T12:30:38.002Z</time></trkpt><trkpt lat="43.42429313295825" lon="10.792427930637237"><ele>195.0</ele><time>2026-04-19T12:30:40.002Z</time></trkpt><trkpt lat="43.42436482848483" lon="10.792509153765964"><ele>195.0</ele><time>2026-04-19T12:30:42.002Z</time></trkpt><trkpt lat="43.42442943576014" lon="10.79260773127025"><ele>195.16666666666666</ele><time>2026-04-19T12:30:44.001Z</time></trkpt><trkpt lat="43.42448727906071" lon="10.79269923569745"><ele>195.33333333333331</ele><time>2026-04-19T12:30:46.001Z</time></trkpt><trkpt lat="43.42454214123989" lon="10.792781266252476"><ele>195.5</ele><time>2026-04-19T12:30:48.001Z</time></trkpt><trkpt lat="43.424603327999556" lon="10.792866392583607"><ele>195.66666666666666</ele><time>2026-04-19T12:30:50.001Z</time></trkpt><trkpt lat="43.42467468088245" lon="10.792948208588806"><ele>195.83333333333331</ele><time>2026-04-19T12:30:52.001Z</time></trkpt><trkpt lat="43.42475121722578" lon="10.79303135395191"><ele>196.0</ele><time>2026-04-19T12:30:54.001Z</time></trkpt><trkpt lat="43.42483459748598" lon="10.793105748750996"><ele>196.0</ele><time>2026-04-19T12:30:56.001Z</time></trkpt><trkpt lat="43.424915239867055" lon="10.793196608289662"><ele>196.0</ele><time>2026-04-19T12:30:58.001Z</time></trkpt><trkpt lat="43.4249876516079" lon="10.793285312516044"><ele>196.0</ele><time>2026-04-19T12:31:00.001Z</time></trkpt><trkpt lat="43.425065116410956" lon="10.793373391074299"><ele>196.0</ele><time>2026-04-19T12:31:02.001Z</time></trkpt><trkpt lat="43.4251452850943" lon="10.793444188701066"><ele>196.0</ele><time>2026-04-19T12:31:04.001Z</time></trkpt><trkpt lat="43.425234956493696" lon="10.793486504501393"><ele>196.0</ele><time>2026-04-19T12:31:06.001Z</time></trkpt><trkpt lat="43.425318184828505" lon="10.793476344165192"><ele>196.0</ele><time>2026-04-19T12:31:08.001Z</time></trkpt><trkpt lat="43.42540403199815" lon="10.793463527089951"><ele>196.0</ele><time>2026-04-19T12:31:10.001Z</time></trkpt><trkpt lat="43.425467024386634" lon="10.793380656781798"><ele>196.0</ele><time>2026-04-19T12:31:12.001Z</time></trkpt><trkpt lat="43.425518316047445" lon="10.793272334473285"><ele>196.0</ele><time>2026-04-19T12:31:14.001Z</time></trkpt><trkpt lat="43.42557574869227" lon="10.79313861132383"><ele>195.57142857142858</ele><time>2026-04-19T12:31:16.001Z</time></trkpt><trkpt lat="43.42560487792195" lon="10.793060260420283"><ele>195.14285714285714</ele><time>2026-04-19T12:31:17.001Z</time></trkpt><trkpt lat="43.42563317547405" lon="10.792978179095362"><ele>194.71428571428572</ele><time>2026-04-19T12:31:18.001Z</time></trkpt><trkpt lat="43.425660978721126" lon="10.792896547502474"><ele>194.28571428571428</ele><time>2026-04-19T12:31:19.001Z</time></trkpt><trkpt lat="43.42569012632428" lon="10.792814475808449"><ele>193.85714285714286</ele><time>2026-04-19T12:31:20.001Z</time></trkpt><trkpt lat="43.425721220326146" lon="10.792734499049816"><ele>193.42857142857144</ele><time>2026-04-19T12:31:21.001Z</time></trkpt><trkpt lat="43.42575502119576" lon="10.792653496218668"><ele>193.0</ele><time>2026-04-19T12:31:22.001Z</time></trkpt><trkpt lat="43.425790436112145" lon="10.792568265207914"><ele>192.99999999999997</ele><time>2026-04-19T12:31:23.001Z</time></trkpt><trkpt lat="43.42582286900652" lon="10.792483784218058"><ele>193.0</ele><time>2026-04-19T12:31:24.001Z</time></trkpt><trkpt lat="43.425854631319645" lon="10.792398503007297"><ele>193.0</ele><time>2026-04-19T12:31:25.001Z</time></trkpt><trkpt lat="43.42588603877025" lon="10.792314174733336"><ele>193.0</ele><time>2026-04-19T12:31:26.001Z</time></trkpt><trkpt lat="43.42591565286612" lon="10.792237477004223"><ele>192.99999999999997</ele><time>2026-04-19T12:31:27.001Z</time></trkpt><trkpt lat="43.42596934765104" lon="10.79211168779234"><ele>193.0</ele><time>2026-04-19T12:31:29.001Z</time></trkpt><trkpt lat="43.426011292432854" lon="10.792017362634406"><ele>193.0</ele><time>2026-04-19T12:31:31.001Z</time></trkpt><trkpt lat="43.42605547385529" lon="10.791918445625301"><ele>193.0</ele><time>2026-04-19T12:31:33.001Z</time></trkpt><trkpt lat="43.426112414809715" lon="10.791796107029548"><ele>193.0</ele><time>2026-04-19T12:31:35.001Z</time></trkpt><trkpt lat="43.42617633514621" lon="10.791655544759408"><ele>193.0</ele><time>2026-04-19T12:31:37.001Z</time></trkpt><trkpt lat="43.426229191575345" lon="10.79150648819139"><ele>193.0</ele><time>2026-04-19T12:31:39.001Z</time></trkpt><trkpt lat="43.42626553968562" lon="10.791379172384524"><ele>192.66666666666666</ele><time>2026-04-19T12:31:41.001Z</time></trkpt><trkpt lat="43.42629112170458" lon="10.791276344024977"><ele>192.33333333333331</ele><time>2026-04-19T12:31:43.001Z</time></trkpt><trkpt lat="43.426314008559515" lon="10.791184349328223"><ele>192.0</ele><time>2026-04-19T12:31:45.001Z</time></trkpt><trkpt lat="43.42633906525797" lon="10.791084758095948"><ele>191.66666666666666</ele><time>2026-04-19T12:31:47.001Z</time></trkpt><trkpt lat="43.426369781551756" lon="10.790964371324858"><ele>191.33333333333331</ele><time>2026-04-19T12:31:49.001Z</time></trkpt><trkpt lat="43.42639704166941" lon="10.790857530336423"><ele>191.0</ele><time>2026-04-19T12:31:51.001Z</time></trkpt><trkpt lat="43.42642020280654" lon="10.790763627088937"><ele>190.57142857142858</ele><time>2026-04-19T12:31:53.001Z</time></trkpt><trkpt lat="43.426442305325985" lon="10.790670433379827"><ele>190.14285714285714</ele><time>2026-04-19T12:31:55.001Z</time></trkpt><trkpt lat="43.42646482647437" lon="10.790575474549124"><ele>189.71428571428572</ele><time>2026-04-19T12:31:57.001Z</time></trkpt><trkpt lat="43.4264872012924" lon="10.790481131525892"><ele>189.28571428571428</ele><time>2026-04-19T12:31:59.001Z</time></trkpt><trkpt lat="43.426520272517614" lon="10.790398746119338"><ele>188.85714285714283</ele><time>2026-04-19T12:32:01.001Z</time></trkpt><trkpt lat="43.426543834812875" lon="10.79030084118199"><ele>188.42857142857142</ele><time>2026-04-19T12:32:03.001Z</time></trkpt><trkpt lat="43.42656382210852" lon="10.790198930698212"><ele>188.0</ele><time>2026-04-19T12:32:05.001Z</time></trkpt><trkpt lat="43.426578275377956" lon="10.790077719277932"><ele>188.0</ele><time>2026-04-19T12:32:08.001Z</time></trkpt><trkpt lat="43.42656144907384" lon="10.78996816395644"><ele>188.0</ele><time>2026-04-19T12:32:11.001Z</time></trkpt><trkpt lat="43.4265728037985" lon="10.789874418466871"><ele>188.0</ele><time>2026-04-19T12:32:14.001Z</time></trkpt><trkpt lat="43.42658583800861" lon="10.789777397488955"><ele>188.0</ele><time>2026-04-19T12:32:28.002Z</time></trkpt><trkpt lat="43.42661493009054" lon="10.789675053724661"><ele>188.0</ele><time>2026-04-19T12:32:31.002Z</time></trkpt><trkpt lat="43.426638196217205" lon="10.78958952825387"><ele>188.0</ele><time>2026-04-19T12:32:33.002Z</time></trkpt><trkpt lat="43.426688535022926" lon="10.789500082322366"><ele>188.0</ele><time>2026-04-19T12:32:35.002Z</time></trkpt><trkpt lat="43.42672484233103" lon="10.789405444330187"><ele>188.0</ele><time>2026-04-19T12:32:37.002Z</time></trkpt><trkpt lat="43.426765585702974" lon="10.78929924332964"><ele>188.0</ele><time>2026-04-19T12:32:39.002Z</time></trkpt><trkpt lat="43.426816517759114" lon="10.789187825318528"><ele>188.0</ele><time>2026-04-19T12:32:41.002Z</time></trkpt><trkpt lat="43.42687648311731" lon="10.789078502794645"><ele>188.0</ele><time>2026-04-19T12:32:43.002Z</time></trkpt><trkpt lat="43.426895623653465" lon="10.788874078380957"><ele>188.42857142857142</ele><time>2026-04-19T12:32:45.002Z</time></trkpt><trkpt lat="43.426903671819744" lon="10.788782892834526"><ele>188.85714285714283</ele><time>2026-04-19T12:32:46.002Z</time></trkpt><trkpt lat="43.42691300875842" lon="10.788686882174355"><ele>189.28571428571428</ele><time>2026-04-19T12:32:47.002Z</time></trkpt><trkpt lat="43.42692405258872" lon="10.788584227763682"><ele>189.71428571428572</ele><time>2026-04-19T12:32:48.002Z</time></trkpt><trkpt lat="43.42693562287145" lon="10.788479996186998"><ele>190.14285714285714</ele><time>2026-04-19T12:32:49.001Z</time></trkpt><trkpt lat="43.426952978019436" lon="10.78838824375173"><ele>190.57142857142858</ele><time>2026-04-19T12:32:50.001Z</time></trkpt><trkpt lat="43.426974163364605" lon="10.788297384144311"><ele>191.0</ele><time>2026-04-19T12:32:51.001Z</time></trkpt><trkpt lat="43.42700215368513" lon="10.788215594479793"><ele>191.16666666666666</ele><time>2026-04-19T12:32:52.001Z</time></trkpt><trkpt lat="43.42703696642311" lon="10.788136319405742"><ele>191.33333333333331</ele><time>2026-04-19T12:32:53.001Z</time></trkpt><trkpt lat="43.42707477022321" lon="10.788059473522381"><ele>191.5</ele><time>2026-04-19T12:32:54.001Z</time></trkpt><trkpt lat="43.427113966721286" lon="10.787985863531244"><ele>191.66666666666666</ele><time>2026-04-19T12:32:55.001Z</time></trkpt><trkpt lat="43.42718290345942" lon="10.787861217747151"><ele>191.83333333333334</ele><time>2026-04-19T12:32:57.001Z</time></trkpt><trkpt lat="43.42726659202767" lon="10.787724104927618"><ele>192.0</ele><time>2026-04-19T12:32:59.001Z</time></trkpt><trkpt lat="43.427314093538534" lon="10.787650708991082"><ele>193.42857142857142</ele><time>2026-04-19T12:33:00.001Z</time></trkpt><trkpt lat="43.42736151588152" lon="10.787578324347857"><ele>194.85714285714286</ele><time>2026-04-19T12:33:01.001Z</time></trkpt><trkpt lat="43.42740723078135" lon="10.787508544876609"><ele>196.28571428571428</ele><time>2026-04-19T12:33:02.001Z</time></trkpt><trkpt lat="43.4274531318578" lon="10.787438482089286"><ele>197.71428571428572</ele><time>2026-04-19T12:33:03.001Z</time></trkpt><trkpt lat="43.427499087270704" lon="10.787368336028708"><ele>199.14285714285714</ele><time>2026-04-19T12:33:04.001Z</time></trkpt><trkpt lat="43.427536128649564" lon="10.787286420436867"><ele>200.57142857142856</ele><time>2026-04-19T12:33:05.001Z</time></trkpt><trkpt lat="43.42758961013187" lon="10.787226439185199"><ele>202.0</ele><time>2026-04-19T12:33:06.001Z</time></trkpt><trkpt lat="43.4276456354399" lon="10.787178553435727"><ele>202.0</ele><time>2026-04-19T12:33:07.001Z</time></trkpt><trkpt lat="43.42774990231477" lon="10.787146304850786"><ele>202.0</ele><time>2026-04-19T12:33:09.001Z</time></trkpt><trkpt lat="43.42784189001578" lon="10.787129693226317"><ele>202.0</ele><time>2026-04-19T12:33:11.001Z</time></trkpt><trkpt lat="43.42792928425031" lon="10.787089476573712"><ele>202.0</ele><time>2026-04-19T12:33:13.001Z</time></trkpt><trkpt lat="43.42800841931457" lon="10.78704404311004"><ele>202.0</ele><time>2026-04-19T12:33:15.001Z</time></trkpt><trkpt lat="43.42808941555347" lon="10.78700718146639"><ele>202.83333333333331</ele><time>2026-04-19T12:33:17.001Z</time></trkpt><trkpt lat="43.428176564822955" lon="10.786989580658249"><ele>203.66666666666666</ele><time>2026-04-19T12:33:19.001Z</time></trkpt><trkpt lat="43.42825517410343" lon="10.786932957594319"><ele>204.5</ele><time>2026-04-19T12:33:21.001Z</time></trkpt><trkpt lat="43.428335280307245" lon="10.786900889721895"><ele>205.33333333333331</ele><time>2026-04-19T12:33:23.001Z</time></trkpt><trkpt lat="43.428412534586776" lon="10.786867779998726"><ele>206.16666666666666</ele><time>2026-04-19T12:33:25.001Z</time></trkpt><trkpt lat="43.42849227041456" lon="10.786831761044139"><ele>207.0</ele><time>2026-04-19T12:33:27.001Z</time></trkpt><trkpt lat="43.42857543819601" lon="10.786805918076425"><ele>207.0</ele><time>2026-04-19T12:33:29.001Z</time></trkpt><trkpt lat="43.42866884015687" lon="10.7868278255287"><ele>207.0</ele><time>2026-04-19T12:33:31.001Z</time></trkpt><trkpt lat="43.4287558402408" lon="10.786896348222859"><ele>207.0</ele><time>2026-04-19T12:33:33.001Z</time></trkpt><trkpt lat="43.42883718506653" lon="10.786985485977178"><ele>207.0</ele><time>2026-04-19T12:33:35.001Z</time></trkpt><trkpt lat="43.42892363469378" lon="10.787084399509002"><ele>207.0</ele><time>2026-04-19T12:33:37.001Z</time></trkpt><trkpt lat="43.429017111760636" lon="10.787180987476807"><ele>208.0</ele><time>2026-04-19T12:33:39.001Z</time></trkpt><trkpt lat="43.42911599674907" lon="10.787258227978452"><ele>209.0</ele><time>2026-04-19T12:33:41.001Z</time></trkpt><trkpt lat="43.429209443213665" lon="10.787307594315054"><ele>210.0</ele><time>2026-04-19T12:33:43.001Z</time></trkpt><trkpt lat="43.42931600098652" lon="10.787342157767258"><ele>211.0</ele><time>2026-04-19T12:33:45.001Z</time></trkpt><trkpt lat="43.42943932819401" lon="10.787365551285044"><ele>212.0</ele><time>2026-04-19T12:33:47.001Z</time></trkpt><trkpt lat="43.4295595290539" lon="10.787386650316911"><ele>210.8</ele><time>2026-04-19T12:33:49.001Z</time></trkpt><trkpt lat="43.429671441634895" lon="10.787404745554104"><ele>209.6</ele><time>2026-04-19T12:33:51.001Z</time></trkpt><trkpt lat="43.42977585875448" lon="10.787416746582146"><ele>208.4</ele><time>2026-04-19T12:33:53.001Z</time></trkpt><trkpt lat="43.429876633720184" lon="10.787419346372369"><ele>207.20000000000002</ele><time>2026-04-19T12:33:55.001Z</time></trkpt><trkpt lat="43.42997476056616" lon="10.787430678614246"><ele>206.0</ele><time>2026-04-19T12:33:57.001Z</time></trkpt><trkpt lat="43.430076668387784" lon="10.787463384464525"><ele>206.0</ele><time>2026-04-19T12:33:59.001Z</time></trkpt><trkpt lat="43.43017959455099" lon="10.787528792954562"><ele>206.0</ele><time>2026-04-19T12:34:01.001Z</time></trkpt><trkpt lat="43.43028460801787" lon="10.787617910957037"><ele>206.0</ele><time>2026-04-19T12:34:03.001Z</time></trkpt><trkpt lat="43.43033911023314" lon="10.787662957902981"><ele>206.0</ele><time>2026-04-19T12:34:04.001Z</time></trkpt><trkpt lat="43.43039250893465" lon="10.787709150993136"><ele>206.0</ele><time>2026-04-19T12:34:05.001Z</time></trkpt><trkpt lat="43.43049823162304" lon="10.787804512246522"><ele>204.7142857142857</ele><time>2026-04-19T12:34:07.001Z</time></trkpt><trkpt lat="43.43055637511889" lon="10.787846099657154"><ele>203.42857142857142</ele><time>2026-04-19T12:34:08.001Z</time></trkpt><trkpt lat="43.430617491970345" lon="10.787877055478722"><ele>202.14285714285714</ele><time>2026-04-19T12:34:09.001Z</time></trkpt><trkpt lat="43.430681202777585" lon="10.787895774810229"><ele>200.85714285714283</ele><time>2026-04-19T12:34:10.001Z</time></trkpt><trkpt lat="43.43074660144744" lon="10.787901104422255"><ele>199.57142857142858</ele><time>2026-04-19T12:34:11.001Z</time></trkpt><trkpt lat="43.43080986780259" lon="10.787894615333455"><ele>198.28571428571428</ele><time>2026-04-19T12:34:12.001Z</time></trkpt><trkpt lat="43.430920645179185" lon="10.787868893520127"><ele>197.0</ele><time>2026-04-19T12:34:14.001Z</time></trkpt><trkpt lat="43.43103512008657" lon="10.787836776359445"><ele>197.00000000000003</ele><time>2026-04-19T12:34:16.001Z</time></trkpt><trkpt lat="43.431153537328015" lon="10.787799298859312"><ele>197.0</ele><time>2026-04-19T12:34:18.001Z</time></trkpt><trkpt lat="43.4312159349579" lon="10.787780441653924"><ele>197.0</ele><time>2026-04-19T12:34:19.001Z</time></trkpt><trkpt lat="43.431280915514826" lon="10.787760944898535"><ele>197.0</ele><time>2026-04-19T12:34:20.001Z</time></trkpt><trkpt lat="43.431347819921186" lon="10.787740519954962"><ele>197.00000000000003</ele><time>2026-04-19T12:34:21.001Z</time></trkpt><trkpt lat="43.43141525561966" lon="10.787721087157836"><ele>197.0</ele><time>2026-04-19T12:34:22.001Z</time></trkpt><trkpt lat="43.43148034721068" lon="10.787702630474406"><ele>197.2</ele><time>2026-04-19T12:34:23.001Z</time></trkpt><trkpt lat="43.43154231782583" lon="10.787684834200961"><ele>197.39999999999998</ele><time>2026-04-19T12:34:24.001Z</time></trkpt><trkpt lat="43.431658879132904" lon="10.787653390676926"><ele>197.60000000000002</ele><time>2026-04-19T12:34:26.001Z</time></trkpt><trkpt lat="43.43176811084989" lon="10.787627817488367"><ele>197.8</ele><time>2026-04-19T12:34:28.001Z</time></trkpt><trkpt lat="43.43187924710093" lon="10.787577084088088"><ele>198.0</ele><time>2026-04-19T12:34:30.001Z</time></trkpt><trkpt lat="43.43193635776761" lon="10.78753673204666"><ele>198.0</ele><time>2026-04-19T12:34:31.001Z</time></trkpt><trkpt lat="43.43199033886904" lon="10.787487547908437"><ele>198.0</ele><time>2026-04-19T12:34:32.001Z</time></trkpt><trkpt lat="43.432044846302716" lon="10.787431249694725"><ele>198.0</ele><time>2026-04-19T12:34:33.001Z</time></trkpt><trkpt lat="43.43210318146463" lon="10.787378131137936"><ele>198.0</ele><time>2026-04-19T12:34:34.001Z</time></trkpt><trkpt lat="43.43216246522096" lon="10.7873288888948"><ele>198.0</ele><time>2026-04-19T12:34:35.001Z</time></trkpt><trkpt lat="43.43222057822969" lon="10.787279559444386"><ele>198.0</ele><time>2026-04-19T12:34:36.001Z</time></trkpt><trkpt lat="43.43226984249863" lon="10.787224293038072"><ele>198.0</ele><time>2026-04-19T12:34:37.001Z</time></trkpt><trkpt lat="43.432341796721296" lon="10.787103339950631"><ele>196.60000000000002</ele><time>2026-04-19T12:34:39.001Z</time></trkpt><trkpt lat="43.43240080238694" lon="10.786972465820094"><ele>195.20000000000002</ele><time>2026-04-19T12:34:41.002Z</time></trkpt><trkpt lat="43.43247277786229" lon="10.786854814782474"><ele>193.8</ele><time>2026-04-19T12:34:43.002Z</time></trkpt><trkpt lat="43.432525855231646" lon="10.786738638078077"><ele>192.4</ele><time>2026-04-19T12:34:45.002Z</time></trkpt><trkpt lat="43.43257412932582" lon="10.786636181140844"><ele>191.0</ele><time>2026-04-19T12:34:47.002Z</time></trkpt><trkpt lat="43.432613138497416" lon="10.786520402386563"><ele>191.0</ele><time>2026-04-19T12:34:49.002Z</time></trkpt><trkpt lat="43.43268707990918" lon="10.786438660857673"><ele>191.0</ele><time>2026-04-19T12:34:51.002Z</time></trkpt><trkpt lat="43.43276147573264" lon="10.786344440933714"><ele>191.0</ele><time>2026-04-19T12:34:53.002Z</time></trkpt><trkpt lat="43.43284317657787" lon="10.786244428675085"><ele>191.0</ele><time>2026-04-19T12:34:55.001Z</time></trkpt><trkpt lat="43.432925904891775" lon="10.78614117106155"><ele>191.0</ele><time>2026-04-19T12:34:57.001Z</time></trkpt><trkpt lat="43.43300834356541" lon="10.78603769345535"><ele>189.8</ele><time>2026-04-19T12:34:59.001Z</time></trkpt><trkpt lat="43.433078746792525" lon="10.785948769800807"><ele>188.60000000000002</ele><time>2026-04-19T12:35:01.001Z</time></trkpt><trkpt lat="43.43314929046021" lon="10.785858946443408"><ele>187.4</ele><time>2026-04-19T12:35:03.001Z</time></trkpt><trkpt lat="43.433218470331035" lon="10.785768280532405"><ele>186.2</ele><time>2026-04-19T12:35:05.001Z</time></trkpt><trkpt lat="43.433277018508086" lon="10.785661027264181"><ele>185.0</ele><time>2026-04-19T12:35:07.001Z</time></trkpt><trkpt lat="43.4333532401261" lon="10.785572594012308"><ele>185.0</ele><time>2026-04-19T12:35:09.001Z</time></trkpt><trkpt lat="43.4334335513287" lon="10.785485846858968"><ele>185.0</ele><time>2026-04-19T12:35:11.001Z</time></trkpt><trkpt lat="43.43351749454937" lon="10.78540503033531"><ele>185.0</ele><time>2026-04-19T12:35:13.001Z</time></trkpt><trkpt lat="43.433605456021496" lon="10.785332895033749"><ele>185.0</ele><time>2026-04-19T12:35:15.001Z</time></trkpt><trkpt lat="43.433692340750774" lon="10.78525538651055"><ele>185.0</ele><time>2026-04-19T12:35:17.001Z</time></trkpt><trkpt lat="43.43377846434343" lon="10.785171848259214"><ele>182.6</ele><time>2026-04-19T12:35:19.001Z</time></trkpt><trkpt lat="43.433865803286146" lon="10.785091667491324"><ele>180.2</ele><time>2026-04-19T12:35:21.001Z</time></trkpt><trkpt lat="43.43395248948487" lon="10.785014474696197"><ele>177.8</ele><time>2026-04-19T12:35:23.001Z</time></trkpt><trkpt lat="43.43404050389551" lon="10.784930151716079"><ele>175.4</ele><time>2026-04-19T12:35:25.001Z</time></trkpt><trkpt lat="43.43413040133065" lon="10.78482506001145"><ele>173.0</ele><time>2026-04-19T12:35:27.001Z</time></trkpt><trkpt lat="43.434211896020784" lon="10.784695585979435"><ele>173.0</ele><time>2026-04-19T12:35:29.001Z</time></trkpt><trkpt lat="43.43428554889436" lon="10.784562496025325"><ele>173.0</ele><time>2026-04-19T12:35:31.001Z</time></trkpt><trkpt lat="43.43436518560218" lon="10.784430575328347"><ele>173.0</ele><time>2026-04-19T12:35:33.001Z</time></trkpt><trkpt lat="43.434440974998154" lon="10.784294649915402"><ele>173.0</ele><time>2026-04-19T12:35:35.001Z</time></trkpt><trkpt lat="43.43448432543847" lon="10.784222231426648"><ele>173.0</ele><time>2026-04-19T12:35:36.001Z</time></trkpt><trkpt lat="43.43452979424096" lon="10.784147053307901"><ele>172.66666666666666</ele><time>2026-04-19T12:35:37.001Z</time></trkpt><trkpt lat="43.43457447072033" lon="10.784071648136846"><ele>172.33333333333331</ele><time>2026-04-19T12:35:38.001Z</time></trkpt><trkpt lat="43.43461632965378" lon="10.784002858169154"><ele>172.0</ele><time>2026-04-19T12:35:39.001Z</time></trkpt><trkpt lat="43.43469347983798" lon="10.783874954290654"><ele>171.66666666666666</ele><time>2026-04-19T12:35:41.001Z</time></trkpt><trkpt lat="43.43473631623157" lon="10.783806843239429"><ele>171.33333333333334</ele><time>2026-04-19T12:35:42.001Z</time></trkpt><trkpt lat="43.434777801712244" lon="10.783740863493533"><ele>171.0</ele><time>2026-04-19T12:35:43.001Z</time></trkpt><trkpt lat="43.43481958383187" lon="10.783673814705137"><ele>170.0</ele><time>2026-04-19T12:35:44.001Z</time></trkpt><trkpt lat="43.4348966837145" lon="10.783540471528688"><ele>169.0</ele><time>2026-04-19T12:35:46.001Z</time></trkpt><trkpt lat="43.43497161306767" lon="10.783410857038886"><ele>168.0</ele><time>2026-04-19T12:35:48.001Z</time></trkpt><trkpt lat="43.43504557872292" lon="10.783285302121037"><ele>167.0</ele><time>2026-04-19T12:35:50.001Z</time></trkpt><trkpt lat="43.43511999198127" lon="10.783156845638286"><ele>167.0</ele><time>2026-04-19T12:35:52.001Z</time></trkpt><trkpt lat="43.43519060667143" lon="10.783021866122004"><ele>167.0</ele><time>2026-04-19T12:35:54.001Z</time></trkpt><trkpt lat="43.43525733896454" lon="10.782883848905046"><ele>167.0</ele><time>2026-04-19T12:35:56.001Z</time></trkpt><trkpt lat="43.435317787269284" lon="10.782739516433008"><ele>167.0</ele><time>2026-04-19T12:35:58.001Z</time></trkpt><trkpt lat="43.435378235404634" lon="10.782594795735452"><ele>166.75</ele><time>2026-04-19T12:36:00.001Z</time></trkpt><trkpt lat="43.43543383275979" lon="10.78245019837656"><ele>166.5</ele><time>2026-04-19T12:36:02.001Z</time></trkpt><trkpt lat="43.435513996845074" lon="10.782328402589265"><ele>166.25</ele><time>2026-04-19T12:36:04.001Z</time></trkpt><trkpt lat="43.43557682781715" lon="10.782193220235259"><ele>166.0</ele><time>2026-04-19T12:36:06.001Z</time></trkpt><trkpt lat="43.43566434330596" lon="10.782081348053053"><ele>166.5</ele><time>2026-04-19T12:36:08.001Z</time></trkpt><trkpt lat="43.435713262601716" lon="10.782023356402547"><ele>167.0</ele><time>2026-04-19T12:36:09.001Z</time></trkpt><trkpt lat="43.43576200831587" lon="10.781965561495397"><ele>167.5</ele><time>2026-04-19T12:36:10.001Z</time></trkpt><trkpt lat="43.43581089055912" lon="10.78190656432013"><ele>168.0</ele><time>2026-04-19T12:36:11.001Z</time></trkpt><trkpt lat="43.43590586660426" lon="10.781793431313424"><ele>168.5</ele><time>2026-04-19T12:36:13.001Z</time></trkpt><trkpt lat="43.43599620326513" lon="10.781689338833003"><ele>169.0</ele><time>2026-04-19T12:36:15.001Z</time></trkpt><trkpt lat="43.43608647168269" lon="10.781576925054708"><ele>169.0</ele><time>2026-04-19T12:36:17.001Z</time></trkpt><trkpt lat="43.43617219902033" lon="10.78147208233823"><ele>169.0</ele><time>2026-04-19T12:36:19.001Z</time></trkpt><trkpt lat="43.43624973250326" lon="10.781377713819126"><ele>169.0</ele><time>2026-04-19T12:36:21.001Z</time></trkpt><trkpt lat="43.43632489907108" lon="10.781290864862207"><ele>169.0</ele><time>2026-04-19T12:36:23.001Z</time></trkpt><trkpt lat="43.43640677103497" lon="10.781191781993888"><ele>169.0</ele><time>2026-04-19T12:36:25.001Z</time></trkpt><trkpt lat="43.436492621899774" lon="10.781079525822344"><ele>167.75</ele><time>2026-04-19T12:36:27.001Z</time></trkpt><trkpt lat="43.43657647681445" lon="10.780957932121284"><ele>166.5</ele><time>2026-04-19T12:36:29.001Z</time></trkpt><trkpt lat="43.436658029334936" lon="10.780832753056826"><ele>165.25</ele><time>2026-04-19T12:36:31.001Z</time></trkpt><trkpt lat="43.436739575266195" lon="10.780710275619121"><ele>164.0</ele><time>2026-04-19T12:36:33.001Z</time></trkpt><trkpt lat="43.43682074072427" lon="10.78058969578369"><ele>163.99999999999997</ele><time>2026-04-19T12:36:35.001Z</time></trkpt><trkpt lat="43.43686486761468" lon="10.780523595907596"><ele>164.0</ele><time>2026-04-19T12:36:36.001Z</time></trkpt><trkpt lat="43.43691192376929" lon="10.780453286853582"><ele>164.0</ele><time>2026-04-19T12:36:37.001Z</time></trkpt><trkpt lat="43.436959693997125" lon="10.780381000889895"><ele>164.0</ele><time>2026-04-19T12:36:38.001Z</time></trkpt><trkpt lat="43.43700522571978" lon="10.780307140910592"><ele>164.0</ele><time>2026-04-19T12:36:39.001Z</time></trkpt><trkpt lat="43.437047084038255" lon="10.780232135464567"><ele>163.99999999999997</ele><time>2026-04-19T12:36:40.001Z</time></trkpt><trkpt lat="43.437087487154706" lon="10.780156833855626"><ele>164.0</ele><time>2026-04-19T12:36:41.001Z</time></trkpt><trkpt lat="43.43714315064383" lon="10.780104929161931"><ele>162.25</ele><time>2026-04-19T12:36:42.001Z</time></trkpt><trkpt lat="43.43722448113618" lon="10.779985688461368"><ele>160.5</ele><time>2026-04-19T12:36:44.001Z</time></trkpt><trkpt lat="43.437328135104345" lon="10.779912450679012"><ele>158.75</ele><time>2026-04-19T12:36:46.001Z</time></trkpt><trkpt lat="43.43744012047279" lon="10.779880407079823"><ele>157.0</ele><time>2026-04-19T12:36:48.001Z</time></trkpt><trkpt lat="43.43755297357587" lon="10.779907187754262"><ele>157.0</ele><time>2026-04-19T12:36:50.001Z</time></trkpt><trkpt lat="43.43766131399419" lon="10.779969058492235"><ele>157.0</ele><time>2026-04-19T12:36:52.001Z</time></trkpt><trkpt lat="43.437766001844444" lon="10.780021324041638"><ele>157.0</ele><time>2026-04-19T12:36:54.001Z</time></trkpt><trkpt lat="43.43786458984474" lon="10.780072275362794"><ele>157.0</ele><time>2026-04-19T12:36:56.001Z</time></trkpt><trkpt lat="43.43795512220369" lon="10.780128812534064"><ele>157.0</ele><time>2026-04-19T12:36:58.001Z</time></trkpt><trkpt lat="43.43804133478309" lon="10.780187242743468"><ele>156.2</ele><time>2026-04-19T12:37:00.001Z</time></trkpt><trkpt lat="43.43813581668364" lon="10.78024162148041"><ele>155.39999999999998</ele><time>2026-04-19T12:37:02.001Z</time></trkpt><trkpt lat="43.43824086776332" lon="10.780303855369999"><ele>154.60000000000002</ele><time>2026-04-19T12:37:04.001Z</time></trkpt><trkpt lat="43.43835511717124" lon="10.78037044494852"><ele>153.8</ele><time>2026-04-19T12:37:06.001Z</time></trkpt><trkpt lat="43.4384163199994" lon="10.780404832208207"><ele>153.0</ele><time>2026-04-19T12:37:07.001Z</time></trkpt><trkpt lat="43.438480262196634" lon="10.780441363659737"><ele>153.0</ele><time>2026-04-19T12:37:08.001Z</time></trkpt><trkpt lat="43.43854475054212" lon="10.780478849368306"><ele>153.0</ele><time>2026-04-19T12:37:09.001Z</time></trkpt><trkpt lat="43.438608316590624" lon="10.780523285773354"><ele>153.0</ele><time>2026-04-19T12:37:10.001Z</time></trkpt><trkpt lat="43.43867150395484" lon="10.780571599395463"><ele>153.0</ele><time>2026-04-19T12:37:11.001Z</time></trkpt><trkpt lat="43.43873856023564" lon="10.78061265329874"><ele>153.0</ele><time>2026-04-19T12:37:12.001Z</time></trkpt><trkpt lat="43.43880677219027" lon="10.780648908175378"><ele>153.0</ele><time>2026-04-19T12:37:13.001Z</time></trkpt><trkpt lat="43.43887423945156" lon="10.780676930870817"><ele>153.0</ele><time>2026-04-19T12:37:14.001Z</time></trkpt><trkpt lat="43.43894287365154" lon="10.780700039065017"><ele>152.8</ele><time>2026-04-19T12:37:15.001Z</time></trkpt><trkpt lat="43.439010934847005" lon="10.780717783394103"><ele>152.60000000000002</ele><time>2026-04-19T12:37:16.001Z</time></trkpt><trkpt lat="43.43907515875753" lon="10.780731637645824"><ele>152.39999999999998</ele><time>2026-04-19T12:37:17.001Z</time></trkpt><trkpt lat="43.43919248424936" lon="10.78075251073111"><ele>152.2</ele><time>2026-04-19T12:37:19.001Z</time></trkpt><trkpt lat="43.439298747048966" lon="10.780765448071438"><ele>152.0</ele><time>2026-04-19T12:37:21.001Z</time></trkpt><trkpt lat="43.439403425187976" lon="10.780774912164905"><ele>152.0</ele><time>2026-04-19T12:37:23.001Z</time></trkpt><trkpt lat="43.43948753344425" lon="10.78078428904745"><ele>152.0</ele><time>2026-04-19T12:37:25.001Z</time></trkpt><trkpt lat="43.43955160034945" lon="10.78078981288924"><ele>152.0</ele><time>2026-04-19T12:37:29.001Z</time></trkpt><trkpt lat="43.439618383633196" lon="10.78080092163526"><ele>152.0</ele><time>2026-04-19T12:38:01.001Z</time></trkpt><trkpt lat="43.43968432377882" lon="10.780808841098839"><ele>152.0</ele><time>2026-04-19T12:38:06.001Z</time></trkpt><trkpt lat="43.43977992518313" lon="10.780813680657413"><ele>152.0</ele><time>2026-04-19T12:39:12.001Z</time></trkpt><trkpt lat="43.43986888697633" lon="10.780806019018407"><ele>151.4</ele><time>2026-04-19T12:39:14.001Z</time></trkpt><trkpt lat="43.43995823480205" lon="10.780813295107887"><ele>150.79999999999998</ele><time>2026-04-19T12:39:16.001Z</time></trkpt><trkpt lat="43.44006001007915" lon="10.780834534753584"><ele>150.2</ele><time>2026-04-19T12:39:18.001Z</time></trkpt><trkpt lat="43.440163828131936" lon="10.78083911129275"><ele>149.6</ele><time>2026-04-19T12:39:20.001Z</time></trkpt><trkpt lat="43.44026062316491" lon="10.78084390631399"><ele>149.0</ele><time>2026-04-19T12:39:22.001Z</time></trkpt><trkpt lat="43.44033774031069" lon="10.780853506776479"><ele>149.0</ele><time>2026-04-19T12:39:24.001Z</time></trkpt><trkpt lat="43.44040167114335" lon="10.780859115006784"><ele>149.0</ele><time>2026-04-19T12:39:26.001Z</time></trkpt><trkpt lat="43.44048285006286" lon="10.780864375574492"><ele>149.0</ele><time>2026-04-19T12:39:29.001Z</time></trkpt><trkpt lat="43.44056621364696" lon="10.780871880622955"><ele>149.0</ele><time>2026-04-19T12:39:32.001Z</time></trkpt><trkpt lat="43.440631683005385" lon="10.780880410637039"><ele>149.0</ele><time>2026-04-19T12:39:34.001Z</time></trkpt><trkpt lat="43.44069672045168" lon="10.780888646400689"><ele>149.0</ele><time>2026-04-19T12:39:36.001Z</time></trkpt><trkpt lat="43.44076593630536" lon="10.780896472726495"><ele>149.0</ele><time>2026-04-19T12:39:38.001Z</time></trkpt><trkpt lat="43.44084333270203" lon="10.780904278132839"><ele>149.66666666666666</ele><time>2026-04-19T12:39:40.001Z</time></trkpt><trkpt lat="43.440929477397056" lon="10.780913311116453"><ele>150.33333333333331</ele><time>2026-04-19T12:39:42.001Z</time></trkpt><trkpt lat="43.441016791556024" lon="10.780922590460579"><ele>151.0</ele><time>2026-04-19T12:39:44.001Z</time></trkpt><trkpt lat="43.4410975898362" lon="10.780930966924265"><ele>151.66666666666666</ele><time>2026-04-19T12:39:46.001Z</time></trkpt><trkpt lat="43.44117388416724" lon="10.780938818169858"><ele>152.33333333333334</ele><time>2026-04-19T12:39:48.001Z</time></trkpt><trkpt lat="43.44125860670987" lon="10.780945167017036"><ele>153.0</ele><time>2026-04-19T12:39:50.001Z</time></trkpt><trkpt lat="43.44136614032297" lon="10.780929121661128"><ele>154.0</ele><time>2026-04-19T12:39:52.001Z</time></trkpt><trkpt lat="43.44147462799392" lon="10.780866179640766"><ele>155.0</ele><time>2026-04-19T12:39:54.001Z</time></trkpt><trkpt lat="43.44156771334867" lon="10.780774670163758"><ele>156.0</ele><time>2026-04-19T12:39:56.001Z</time></trkpt><trkpt lat="43.4416597251498" lon="10.78068548122114"><ele>157.0</ele><time>2026-04-19T12:39:58.001Z</time></trkpt><trkpt lat="43.44176182655168" lon="10.780618025239557"><ele>157.0</ele><time>2026-04-19T12:40:00.001Z</time></trkpt><trkpt lat="43.44186061000542" lon="10.780538928951255"><ele>157.0</ele><time>2026-04-19T12:40:02.001Z</time></trkpt><trkpt lat="43.441978802605234" lon="10.780503209541866"><ele>157.0</ele><time>2026-04-19T12:40:04.001Z</time></trkpt><trkpt lat="43.44204253044503" lon="10.780520310675328"><ele>157.0</ele><time>2026-04-19T12:40:05.001Z</time></trkpt><trkpt lat="43.442105922369215" lon="10.780548016093398"><ele>157.0</ele><time>2026-04-19T12:40:06.001Z</time></trkpt><trkpt lat="43.44216670510873" lon="10.780586780486779"><ele>157.0</ele><time>2026-04-19T12:40:07.001Z</time></trkpt><trkpt lat="43.44222732513393" lon="10.780626433241896"><ele>155.0</ele><time>2026-04-19T12:40:08.001Z</time></trkpt><trkpt lat="43.44228721937516" lon="10.780664723300415"><ele>153.0</ele><time>2026-04-19T12:40:09.001Z</time></trkpt><trkpt lat="43.44239232203945" lon="10.780737509499682"><ele>151.0</ele><time>2026-04-19T12:40:11.001Z</time></trkpt><trkpt lat="43.442484328772125" lon="10.78079383700292"><ele>149.0</ele><time>2026-04-19T12:40:13.001Z</time></trkpt><trkpt lat="43.44259755525212" lon="10.780782295578069"><ele>147.0</ele><time>2026-04-19T12:40:15.001Z</time></trkpt><trkpt lat="43.4426643217719" lon="10.780771390425613"><ele>147.0</ele><time>2026-04-19T12:40:16.001Z</time></trkpt><trkpt lat="43.442729406965874" lon="10.780720666983372"><ele>147.0</ele><time>2026-04-19T12:40:17.001Z</time></trkpt><trkpt lat="43.442785751341816" lon="10.780652708365347"><ele>147.0</ele><time>2026-04-19T12:40:18.001Z</time></trkpt><trkpt lat="43.44283708212996" lon="10.780584732492288"><ele>147.0</ele><time>2026-04-19T12:40:19.001Z</time></trkpt><trkpt lat="43.442888957076605" lon="10.780518206804782"><ele>147.0</ele><time>2026-04-19T12:40:20.001Z</time></trkpt><trkpt lat="43.44294524741979" lon="10.780452427730074"><ele>147.0</ele><time>2026-04-19T12:40:21.001Z</time></trkpt><trkpt lat="43.44300278342943" lon="10.780387029271163"><ele>147.0</ele><time>2026-04-19T12:40:22.001Z</time></trkpt><trkpt lat="43.443060883156235" lon="10.78032493142856"><ele>145.5</ele><time>2026-04-19T12:40:23.001Z</time></trkpt><trkpt lat="43.443120494817016" lon="10.780262065051948"><ele>144.0</ele><time>2026-04-19T12:40:24.001Z</time></trkpt><trkpt lat="43.443173517949106" lon="10.78018712112593"><ele>142.5</ele><time>2026-04-19T12:40:25.001Z</time></trkpt><trkpt lat="43.443234384968605" lon="10.780124475849224"><ele>141.0</ele><time>2026-04-19T12:40:26.001Z</time></trkpt><trkpt lat="43.443298479226144" lon="10.780065873506299"><ele>139.5</ele><time>2026-04-19T12:40:27.001Z</time></trkpt><trkpt lat="43.443359579940086" lon="10.780007456822835"><ele>138.0</ele><time>2026-04-19T12:40:28.001Z</time></trkpt><trkpt lat="43.44342275148375" lon="10.779950640911439"><ele>138.0</ele><time>2026-04-19T12:40:29.001Z</time></trkpt><trkpt lat="43.44348471802173" lon="10.77989461010882"><ele>138.0</ele><time>2026-04-19T12:40:30.001Z</time></trkpt><trkpt lat="43.44354587348246" lon="10.779834663684715"><ele>138.0</ele><time>2026-04-19T12:40:31.001Z</time></trkpt><trkpt lat="43.443603494664565" lon="10.779772553996605"><ele>138.0</ele><time>2026-04-19T12:40:32.001Z</time></trkpt><trkpt lat="43.44366229912023" lon="10.779710610615453"><ele>138.0</ele><time>2026-04-19T12:40:33.001Z</time></trkpt><trkpt lat="43.44372125824697" lon="10.779649475558498"><ele>138.0</ele><time>2026-04-19T12:40:34.001Z</time></trkpt><trkpt lat="43.44378239237122" lon="10.779584152227345"><ele>138.0</ele><time>2026-04-19T12:40:35.001Z</time></trkpt><trkpt lat="43.4438450553647" lon="10.779518414759652"><ele>136.83333333333334</ele><time>2026-04-19T12:40:36.001Z</time></trkpt><trkpt lat="43.44390808569615" lon="10.779455514370698"><ele>135.66666666666666</ele><time>2026-04-19T12:40:37.001Z</time></trkpt><trkpt lat="43.44397010381409" lon="10.779396172810841"><ele>134.5</ele><time>2026-04-19T12:40:38.001Z</time></trkpt><trkpt lat="43.444031000865586" lon="10.779337253176463"><ele>133.33333333333331</ele><time>2026-04-19T12:40:39.001Z</time></trkpt><trkpt lat="43.44409083202745" lon="10.779277728481494"><ele>132.16666666666666</ele><time>2026-04-19T12:40:40.001Z</time></trkpt><trkpt lat="43.44415078992296" lon="10.779217563626709"><ele>131.0</ele><time>2026-04-19T12:40:41.001Z</time></trkpt><trkpt lat="43.44421139758365" lon="10.779158708165086"><ele>131.0</ele><time>2026-04-19T12:40:42.001Z</time></trkpt><trkpt lat="43.44428229325863" lon="10.7791227576528"><ele>131.0</ele><time>2026-04-19T12:40:43.001Z</time></trkpt><trkpt lat="43.44434422458064" lon="10.779070674459051"><ele>131.0</ele><time>2026-04-19T12:40:44.001Z</time></trkpt><trkpt lat="43.44440076400727" lon="10.779002577514238"><ele>131.0</ele><time>2026-04-19T12:40:45.001Z</time></trkpt><trkpt lat="43.4444654218074" lon="10.778954615264107"><ele>131.0</ele><time>2026-04-19T12:40:46.001Z</time></trkpt><trkpt lat="43.44452980817334" lon="10.77890771222178"><ele>131.0</ele><time>2026-04-19T12:40:47.001Z</time></trkpt><trkpt lat="43.444602741674466" lon="10.77888655166458"><ele>131.0</ele><time>2026-04-19T12:40:48.001Z</time></trkpt><trkpt lat="43.44466828626933" lon="10.778841315271928"><ele>130.0</ele><time>2026-04-19T12:40:49.001Z</time></trkpt><trkpt lat="43.44472145538899" lon="10.778770410380876"><ele>129.0</ele><time>2026-04-19T12:40:50.001Z</time></trkpt><trkpt lat="43.44478235237168" lon="10.778728156140517"><ele>128.0</ele><time>2026-04-19T12:40:51.001Z</time></trkpt><trkpt lat="43.44484159819785" lon="10.778680720918896"><ele>127.0</ele><time>2026-04-19T12:40:52.001Z</time></trkpt><trkpt lat="43.444901537045034" lon="10.77862655844389"><ele>126.00000000000001</ele><time>2026-04-19T12:40:53.001Z</time></trkpt><trkpt lat="43.44496132302643" lon="10.778574353306029"><ele>125.0</ele><time>2026-04-19T12:40:54.001Z</time></trkpt><trkpt lat="43.44502306559812" lon="10.778525995207273"><ele>124.0</ele><time>2026-04-19T12:40:55.001Z</time></trkpt><trkpt lat="43.44508471720159" lon="10.778477067932378"><ele>123.66666666666667</ele><time>2026-04-19T12:40:56.001Z</time></trkpt><trkpt lat="43.44514681132144" lon="10.778425870152928"><ele>123.33333333333334</ele><time>2026-04-19T12:40:57.001Z</time></trkpt><trkpt lat="43.44520793325286" lon="10.778373776421683"><ele>123.0</ele><time>2026-04-19T12:40:58.001Z</time></trkpt><trkpt lat="43.445266784588064" lon="10.778326663651168"><ele>122.66666666666666</ele><time>2026-04-19T12:40:59.001Z</time></trkpt><trkpt lat="43.4453256494306" lon="10.77829298556051"><ele>122.33333333333333</ele><time>2026-04-19T12:41:00.001Z</time></trkpt><trkpt lat="43.44545171705217" lon="10.778276425550787"><ele>122.0</ele><time>2026-04-19T12:41:02.001Z</time></trkpt><trkpt lat="43.44551851180687" lon="10.77828184802123"><ele>121.66666666666666</ele><time>2026-04-19T12:41:03.001Z</time></trkpt><trkpt lat="43.445589015460456" lon="10.778299892793582"><ele>121.33333333333333</ele><time>2026-04-19T12:41:04.001Z</time></trkpt><trkpt lat="43.445662971191396" lon="10.778329222811207"><ele>121.0</ele><time>2026-04-19T12:41:05.001Z</time></trkpt><trkpt lat="43.44573894105255" lon="10.778363731929806"><ele>120.66666666666666</ele><time>2026-04-19T12:41:06.001Z</time></trkpt><trkpt lat="43.44581855693174" lon="10.778402035833851"><ele>120.33333333333333</ele><time>2026-04-19T12:41:07.001Z</time></trkpt><trkpt lat="43.445901640955476" lon="10.77844107175726"><ele>120.0</ele><time>2026-04-19T12:41:08.001Z</time></trkpt><trkpt lat="43.44598721674664" lon="10.778481218851136"><ele>120.6</ele><time>2026-04-19T12:41:09.001Z</time></trkpt><trkpt lat="43.44607370706942" lon="10.778521107779083"><ele>121.2</ele><time>2026-04-19T12:41:10.001Z</time></trkpt><trkpt lat="43.446161700386654" lon="10.778563184708803"><ele>121.80000000000001</ele><time>2026-04-19T12:41:11.001Z</time></trkpt><trkpt lat="43.446252389756346" lon="10.778605766611774"><ele>122.4</ele><time>2026-04-19T12:41:12.001Z</time></trkpt><trkpt lat="43.44635263098021" lon="10.778647968320868"><ele>123.0</ele><time>2026-04-19T12:41:13.001Z</time></trkpt><trkpt lat="43.446459803233765" lon="10.778688031287464"><ele>123.0</ele><time>2026-04-19T12:41:14.001Z</time></trkpt><trkpt lat="43.44657333381289" lon="10.778718556114256"><ele>123.0</ele><time>2026-04-19T12:41:15.001Z</time></trkpt><trkpt lat="43.44669202574125" lon="10.778725846567177"><ele>123.0</ele><time>2026-04-19T12:41:16.001Z</time></trkpt><trkpt lat="43.44680866559605" lon="10.778718548703543"><ele>123.0</ele><time>2026-04-19T12:41:17.001Z</time></trkpt><trkpt lat="43.446914167619724" lon="10.778715962144611"><ele>123.0</ele><time>2026-04-19T12:41:18.001Z</time></trkpt><trkpt lat="43.44701839654916" lon="10.778732226813043"><ele>123.00000000000001</ele><time>2026-04-19T12:41:19.001Z</time></trkpt><trkpt lat="43.447118049381224" lon="10.778760210019446"><ele>123.00000000000001</ele><time>2026-04-19T12:41:20.001Z</time></trkpt><trkpt lat="43.447212994052734" lon="10.77878939349241"><ele>123.0</ele><time>2026-04-19T12:41:21.001Z</time></trkpt><trkpt lat="43.44730436722797" lon="10.778821119125883"><ele>123.0</ele><time>2026-04-19T12:41:22.001Z</time></trkpt><trkpt lat="43.44738973850734" lon="10.778853459628555"><ele>123.42857142857144</ele><time>2026-04-19T12:41:23.001Z</time></trkpt><trkpt lat="43.447462648257755" lon="10.778881809544284"><ele>123.85714285714286</ele><time>2026-04-19T12:41:24.001Z</time></trkpt><trkpt lat="43.4475303154836" lon="10.778907694775311"><ele>124.28571428571429</ele><time>2026-04-19T12:41:25.001Z</time></trkpt><trkpt lat="43.44759119525322" lon="10.778931311873253"><ele>124.71428571428572</ele><time>2026-04-19T12:41:26.001Z</time></trkpt><trkpt lat="43.4476552782346" lon="10.778956148901335"><ele>125.14285714285714</ele><time>2026-04-19T12:41:27.001Z</time></trkpt><trkpt lat="43.447725425627034" lon="10.778982533987412"><ele>125.57142857142857</ele><time>2026-04-19T12:41:28.001Z</time></trkpt><trkpt lat="43.44780073525393" lon="10.779000074241107"><ele>126.0</ele><time>2026-04-19T12:41:29.001Z</time></trkpt><trkpt lat="43.44788360786298" lon="10.779003928462359"><ele>124.4</ele><time>2026-04-19T12:41:30.001Z</time></trkpt><trkpt lat="43.44797258558496" lon="10.77899101146174"><ele>122.8</ele><time>2026-04-19T12:41:31.001Z</time></trkpt><trkpt lat="43.44806469540485" lon="10.778966352385144"><ele>121.20000000000002</ele><time>2026-04-19T12:41:32.001Z</time></trkpt><trkpt lat="43.448158785125194" lon="10.778934781068765"><ele>119.60000000000001</ele><time>2026-04-19T12:41:33.001Z</time></trkpt><trkpt lat="43.448257277042764" lon="10.778898426732582"><ele>118.0</ele><time>2026-04-19T12:41:34.001Z</time></trkpt><trkpt lat="43.448359447890596" lon="10.778862625582807"><ele>118.0</ele><time>2026-04-19T12:41:35.001Z</time></trkpt><trkpt lat="43.44846229363858" lon="10.778824371664943"><ele>118.00000000000001</ele><time>2026-04-19T12:41:36.001Z</time></trkpt><trkpt lat="43.44856289394619" lon="10.778786221184596"><ele>118.00000000000001</ele><time>2026-04-19T12:41:37.001Z</time></trkpt><trkpt lat="43.44866167153074" lon="10.778748396979775"><ele>118.0</ele><time>2026-04-19T12:41:38.001Z</time></trkpt><trkpt lat="43.448758402306254" lon="10.778714610350498"><ele>118.0</ele><time>2026-04-19T12:41:39.001Z</time></trkpt><trkpt lat="43.44885468287866" lon="10.778684444670882"><ele>117.0</ele><time>2026-04-19T12:41:40.001Z</time></trkpt><trkpt lat="43.44895183294093" lon="10.778654409241092"><ele>116.00000000000001</ele><time>2026-04-19T12:41:41.001Z</time></trkpt><trkpt lat="43.44904774199767" lon="10.77862386680784"><ele>115.00000000000001</ele><time>2026-04-19T12:41:42.001Z</time></trkpt><trkpt lat="43.44914523306717" lon="10.778592492234822"><ele>114.0</ele><time>2026-04-19T12:41:43.001Z</time></trkpt><trkpt lat="43.44924335387315" lon="10.778560450593156"><ele>113.0</ele><time>2026-04-19T12:41:44.001Z</time></trkpt><trkpt lat="43.44934159889572" lon="10.77852846924198"><ele>113.2</ele><time>2026-04-19T12:41:45.001Z</time></trkpt><trkpt lat="43.449439632898965" lon="10.778497396479379"><ele>113.4</ele><time>2026-04-19T12:41:46.001Z</time></trkpt><trkpt lat="43.44953952879076" lon="10.778464379767344"><ele>113.60000000000001</ele><time>2026-04-19T12:41:47.001Z</time></trkpt><trkpt lat="43.44963943510774" lon="10.778431818734912"><ele>113.80000000000001</ele><time>2026-04-19T12:41:48.001Z</time></trkpt><trkpt lat="43.449738233103474" lon="10.778397580659588"><ele>114.0</ele><time>2026-04-19T12:41:49.001Z</time></trkpt><trkpt lat="43.449836742123225" lon="10.778362452784764"><ele>115.4</ele><time>2026-04-19T12:41:50.001Z</time></trkpt><trkpt lat="43.4499336461326" lon="10.77832793187051"><ele>116.80000000000001</ele><time>2026-04-19T12:41:51.001Z</time></trkpt><trkpt lat="43.45002826163792" lon="10.778295156080969"><ele>118.19999999999999</ele><time>2026-04-19T12:41:52.001Z</time></trkpt><trkpt lat="43.450119437959785" lon="10.77826043346889"><ele>119.6</ele><time>2026-04-19T12:41:53.001Z</time></trkpt><trkpt lat="43.45020958703709" lon="10.778227177801641"><ele>121.0</ele><time>2026-04-19T12:41:54.001Z</time></trkpt><trkpt lat="43.450301761873284" lon="10.778200124859534"><ele>121.0</ele><time>2026-04-19T12:41:55.001Z</time></trkpt><trkpt lat="43.45039525027309" lon="10.778173708883532"><ele>121.0</ele><time>2026-04-19T12:41:56.001Z</time></trkpt><trkpt lat="43.45048957054749" lon="10.778144982532677"><ele>121.0</ele><time>2026-04-19T12:41:57.001Z</time></trkpt><trkpt lat="43.450584678274296" lon="10.778114605767977"><ele>121.0</ele><time>2026-04-19T12:41:58.001Z</time></trkpt><trkpt lat="43.4506804939937" lon="10.778085952437772"><ele>121.0</ele><time>2026-04-19T12:41:59.001Z</time></trkpt><trkpt lat="43.45077819400386" lon="10.778069603002514"><ele>123.19999999999999</ele><time>2026-04-19T12:42:00.001Z</time></trkpt><trkpt lat="43.450879088834604" lon="10.7780795160659"><ele>125.39999999999999</ele><time>2026-04-19T12:42:01.001Z</time></trkpt><trkpt lat="43.450981691897795" lon="10.778107118993669"><ele>127.6</ele><time>2026-04-19T12:42:02.001Z</time></trkpt><trkpt lat="43.45108826524574" lon="10.778142984592678"><ele>129.79999999999998</ele><time>2026-04-19T12:42:03.001Z</time></trkpt><trkpt lat="43.45120045208982" lon="10.778181780642612"><ele>132.0</ele><time>2026-04-19T12:42:04.001Z</time></trkpt><trkpt lat="43.45131754436461" lon="10.778221509017682"><ele>132.0</ele><time>2026-04-19T12:42:05.001Z</time></trkpt><trkpt lat="43.451437831463835" lon="10.778258245321714"><ele>132.0</ele><time>2026-04-19T12:42:06.001Z</time></trkpt><trkpt lat="43.451554721185516" lon="10.778297362641363"><ele>132.0</ele><time>2026-04-19T12:42:07.001Z</time></trkpt><trkpt lat="43.451662186012236" lon="10.778332488877977"><ele>132.0</ele><time>2026-04-19T12:42:08.001Z</time></trkpt><trkpt lat="43.45176338232173" lon="10.778364298498932"><ele>132.0</ele><time>2026-04-19T12:42:09.001Z</time></trkpt><trkpt lat="43.45185478146591" lon="10.778393932278108"><ele>132.0</ele><time>2026-04-19T12:42:10.001Z</time></trkpt><trkpt lat="43.451938379567416" lon="10.778419002489454"><ele>132.0</ele><time>2026-04-19T12:42:11.001Z</time></trkpt><trkpt lat="43.45201451289981" lon="10.778450050926637"><ele>132.0</ele><time>2026-04-19T12:42:12.001Z</time></trkpt><trkpt lat="43.45208981045034" lon="10.778391641533872"><ele>132.0</ele><time>2026-04-19T12:42:13.001Z</time></trkpt><trkpt lat="43.45215968777581" lon="10.778345051000954"><ele>132.0</ele><time>2026-04-19T12:42:14.001Z</time></trkpt><trkpt lat="43.452222804807214" lon="10.778288327097574"><ele>130.6</ele><time>2026-04-19T12:42:15.001Z</time></trkpt><trkpt lat="43.4522856536706" lon="10.778231846422878"><ele>129.2</ele><time>2026-04-19T12:42:16.001Z</time></trkpt><trkpt lat="43.45234836106225" lon="10.778212300428008"><ele>127.8</ele><time>2026-04-19T12:42:17.001Z</time></trkpt><trkpt lat="43.452432221280695" lon="10.778181833263176"><ele>126.4</ele><time>2026-04-19T12:42:19.001Z</time></trkpt><trkpt lat="43.45246903244804" lon="10.77834668192008"><ele>125.0</ele><time>2026-04-19T12:42:21.001Z</time></trkpt><trkpt lat="43.452464390044106" lon="10.778521121095864"><ele>125.0</ele><time>2026-04-19T12:42:23.001Z</time></trkpt><trkpt lat="43.45246086033639" lon="10.778621896412766"><ele>125.0</ele><time>2026-04-19T12:42:24.001Z</time></trkpt><trkpt lat="43.45246412424844" lon="10.77872452582087"><ele>125.0</ele><time>2026-04-19T12:42:25.001Z</time></trkpt><trkpt lat="43.45247070083177" lon="10.778824567719907"><ele>125.0</ele><time>2026-04-19T12:42:26.001Z</time></trkpt><trkpt lat="43.452476393444286" lon="10.7789187846911"><ele>125.0</ele><time>2026-04-19T12:42:27.001Z</time></trkpt><trkpt lat="43.452485048195655" lon="10.779010284860558"><ele>125.0</ele><time>2026-04-19T12:42:28.001Z</time></trkpt><trkpt lat="43.4525052936489" lon="10.77910020447487"><ele>125.0</ele><time>2026-04-19T12:42:29.001Z</time></trkpt><trkpt lat="43.45252636885018" lon="10.77919196015901"><ele>124.99999999999999</ele><time>2026-04-19T12:42:30.001Z</time></trkpt><trkpt lat="43.45255049253098" lon="10.779280036328647"><ele>125.0</ele><time>2026-04-19T12:42:31.001Z</time></trkpt><trkpt lat="43.452568210906655" lon="10.779373993485418"><ele>125.0</ele><time>2026-04-19T12:42:32.001Z</time></trkpt><trkpt lat="43.45259099570057" lon="10.779461851539397"><ele>125.0</ele><time>2026-04-19T12:42:33.001Z</time></trkpt><trkpt lat="43.45261808507286" lon="10.7795423164799"><ele>124.99999999999999</ele><time>2026-04-19T12:42:34.001Z</time></trkpt><trkpt lat="43.45268060311175" lon="10.779687710305529"><ele>125.0</ele><time>2026-04-19T12:42:36.001Z</time></trkpt><trkpt lat="43.45274642744088" lon="10.779833155039217"><ele>124.99999999999999</ele><time>2026-04-19T12:42:38.001Z</time></trkpt><trkpt lat="43.452780605010574" lon="10.779912990066192"><ele>125.0</ele><time>2026-04-19T12:42:39.001Z</time></trkpt><trkpt lat="43.45281526854287" lon="10.779994023741033"><ele>125.0</ele><time>2026-04-19T12:42:40.001Z</time></trkpt><trkpt lat="43.45284901790783" lon="10.780075565446854"><ele>125.0</ele><time>2026-04-19T12:42:41.001Z</time></trkpt><trkpt lat="43.45288012061037" lon="10.780157861885895"><ele>124.99999999999999</ele><time>2026-04-19T12:42:42.001Z</time></trkpt><trkpt lat="43.45290695578657" lon="10.780236434695276"><ele>125.0</ele><time>2026-04-19T12:42:43.001Z</time></trkpt><trkpt lat="43.452960670919275" lon="10.780380536434427"><ele>125.0</ele><time>2026-04-19T12:42:45.001Z</time></trkpt><trkpt lat="43.45301637891214" lon="10.78050911813972"><ele>125.0</ele><time>2026-04-19T12:42:47.001Z</time></trkpt><trkpt lat="43.45306239200464" lon="10.780601060900366"><ele>125.0</ele><time>2026-04-19T12:42:49.001Z</time></trkpt><trkpt lat="43.45311627507688" lon="10.780711856769056"><ele>125.0</ele><time>2026-04-19T12:42:51.001Z</time></trkpt><trkpt lat="43.4531844907699" lon="10.78085422938108"><ele>125.0</ele><time>2026-04-19T12:42:53.001Z</time></trkpt><trkpt lat="43.45322629502187" lon="10.780927037529255"><ele>124.99999999999999</ele><time>2026-04-19T12:42:54.001Z</time></trkpt><trkpt lat="43.453282473247604" lon="10.780997259511762"><ele>125.0</ele><time>2026-04-19T12:42:55.001Z</time></trkpt><trkpt lat="43.453349780827615" lon="10.78106070981553"><ele>125.0</ele><time>2026-04-19T12:42:56.001Z</time></trkpt><trkpt lat="43.45341935126882" lon="10.781117119960763"><ele>125.0</ele><time>2026-04-19T12:42:57.001Z</time></trkpt><trkpt lat="43.45349695492811" lon="10.781151146668408"><ele>124.99999999999999</ele><time>2026-04-19T12:42:58.001Z</time></trkpt><trkpt lat="43.45357582968221" lon="10.781180168812046"><ele>125.0</ele><time>2026-04-19T12:42:59.001Z</time></trkpt><trkpt lat="43.45365513786693" lon="10.781204889799165"><ele>125.6</ele><time>2026-04-19T12:43:00.001Z</time></trkpt><trkpt lat="43.4537203364461" lon="10.781225672356367"><ele>126.2</ele><time>2026-04-19T12:43:01.001Z</time></trkpt><trkpt lat="43.453834883430595" lon="10.781269519903423"><ele>126.80000000000001</ele><time>2026-04-19T12:43:03.001Z</time></trkpt><trkpt lat="43.453951350903445" lon="10.781305909725788"><ele>127.4</ele><time>2026-04-19T12:43:05.001Z</time></trkpt><trkpt lat="43.454060195838004" lon="10.78133571035767"><ele>128.0</ele><time>2026-04-19T12:43:07.001Z</time></trkpt><trkpt lat="43.45414376536967" lon="10.781354028737509"><ele>126.60000000000001</ele><time>2026-04-19T12:43:09.001Z</time></trkpt><trkpt lat="43.45422230726539" lon="10.7813715469361"><ele>125.20000000000002</ele><time>2026-04-19T12:43:11.001Z</time></trkpt><trkpt lat="43.454321627168056" lon="10.781376876408334"><ele>123.8</ele><time>2026-04-19T12:43:13.001Z</time></trkpt><trkpt lat="43.45442970196302" lon="10.781378032864616"><ele>122.4</ele><time>2026-04-19T12:43:15.001Z</time></trkpt><trkpt lat="43.45453869620461" lon="10.781355719456082"><ele>121.0</ele><time>2026-04-19T12:43:17.001Z</time></trkpt><trkpt lat="43.45464260426079" lon="10.781307182390307"><ele>120.0</ele><time>2026-04-19T12:43:19.001Z</time></trkpt><trkpt lat="43.454744796755435" lon="10.78122774858554"><ele>119.0</ele><time>2026-04-19T12:43:21.001Z</time></trkpt><trkpt lat="43.454837463288676" lon="10.781131641134145"><ele>118.0</ele><time>2026-04-19T12:43:23.001Z</time></trkpt><trkpt lat="43.454922284075224" lon="10.781029314529674"><ele>117.0</ele><time>2026-04-19T12:43:25.001Z</time></trkpt><trkpt lat="43.455021711354604" lon="10.780943670518132"><ele>114.8</ele><time>2026-04-19T12:43:27.001Z</time></trkpt><trkpt lat="43.45511111506145" lon="10.78083692268857"><ele>112.6</ele><time>2026-04-19T12:43:29.001Z</time></trkpt><trkpt lat="43.45518083717314" lon="10.780764868652428"><ele>110.39999999999999</ele><time>2026-04-19T12:43:31.001Z</time></trkpt><trkpt lat="43.455269708984716" lon="10.78070688336501"><ele>108.19999999999999</ele><time>2026-04-19T12:43:33.001Z</time></trkpt><trkpt lat="43.45538551166365" lon="10.7807215620185"><ele>106.0</ele><time>2026-04-19T12:43:35Z</time></trkpt><trkpt lat="43.45546550300209" lon="10.78075986921551"><ele>106.0</ele><time>2026-04-19T12:43:37Z</time></trkpt><trkpt lat="43.455534443871095" lon="10.780795385967258"><ele>106.0</ele><time>2026-04-19T12:43:39Z</time></trkpt><trkpt lat="43.45562511842657" lon="10.780855927019914"><ele>106.0</ele><time>2026-04-19T12:43:41Z</time></trkpt><trkpt lat="43.455723606116926" lon="10.78092192283687"><ele>106.0</ele><time>2026-04-19T12:43:43Z</time></trkpt><trkpt lat="43.455810964884584" lon="10.78098226266915"><ele>106.0</ele><time>2026-04-19T12:43:45Z</time></trkpt><trkpt lat="43.455908445943194" lon="10.781031257525836"><ele>106.0</ele><time>2026-04-19T12:43:47Z</time></trkpt><trkpt lat="43.45600643548121" lon="10.7810729210375"><ele>106.0</ele><time>2026-04-19T12:43:49Z</time></trkpt><trkpt lat="43.456067436344675" lon="10.781108899692294"><ele>106.0</ele><time>2026-04-19T12:43:51Z</time></trkpt><trkpt lat="43.45614472012218" lon="10.781146397324479"><ele>106.0</ele><time>2026-04-19T12:43:53Z</time></trkpt><trkpt lat="43.45623836029095" lon="10.781199844326585"><ele>106.0</ele><time>2026-04-19T12:43:55Z</time></trkpt><trkpt lat="43.45631399951584" lon="10.78129591608514"><ele>102.4</ele><time>2026-04-19T12:43:57Z</time></trkpt><trkpt lat="43.456368063502545" lon="10.78141703955841"><ele>98.8</ele><time>2026-04-19T12:43:59Z</time></trkpt><trkpt lat="43.456405552993715" lon="10.781554398355317"><ele>95.2</ele><time>2026-04-19T12:44:00.999Z</time></trkpt><trkpt lat="43.456444796914454" lon="10.781681151738011"><ele>91.60000000000001</ele><time>2026-04-19T12:44:02.999Z</time></trkpt><trkpt lat="43.45654348072043" lon="10.78176577085296"><ele>88.0</ele><time>2026-04-19T12:44:04.999Z</time></trkpt><trkpt lat="43.45667491112235" lon="10.781782553011812"><ele>88.0</ele><time>2026-04-19T12:44:06.999Z</time></trkpt><trkpt lat="43.45675039218913" lon="10.781784321633298"><ele>88.0</ele><time>2026-04-19T12:44:07.999Z</time></trkpt><trkpt lat="43.45683085741012" lon="10.781789645375714"><ele>88.0</ele><time>2026-04-19T12:44:08.999Z</time></trkpt><trkpt lat="43.45691165942308" lon="10.781799139038855"><ele>88.0</ele><time>2026-04-19T12:44:09.999Z</time></trkpt><trkpt lat="43.45699361597456" lon="10.781808448775873"><ele>88.0</ele><time>2026-04-19T12:44:10.999Z</time></trkpt><trkpt lat="43.457075574712036" lon="10.781818772137646"><ele>88.0</ele><time>2026-04-19T12:44:11.999Z</time></trkpt><trkpt lat="43.45715648961419" lon="10.781827327343484"><ele>87.71428571428572</ele><time>2026-04-19T12:44:12.999Z</time></trkpt><trkpt lat="43.45723398769615" lon="10.78183209046191"><ele>87.42857142857143</ele><time>2026-04-19T12:44:13.999Z</time></trkpt><trkpt lat="43.45730882226373" lon="10.781836817373595"><ele>87.14285714285714</ele><time>2026-04-19T12:44:14.999Z</time></trkpt><trkpt lat="43.45738007593165" lon="10.781842612196327"><ele>86.85714285714286</ele><time>2026-04-19T12:44:15.999Z</time></trkpt><trkpt lat="43.45744883945243" lon="10.781857499727119"><ele>86.57142857142857</ele><time>2026-04-19T12:44:16.999Z</time></trkpt><trkpt lat="43.45750616058115" lon="10.781899738346794"><ele>86.28571428571429</ele><time>2026-04-19T12:44:17.999Z</time></trkpt><trkpt lat="43.45756573847047" lon="10.781961429124351"><ele>86.0</ele><time>2026-04-19T12:44:19.999Z</time></trkpt><trkpt lat="43.457614252081925" lon="10.782050800166768"><ele>85.4</ele><time>2026-04-19T12:44:43.999Z</time></trkpt><trkpt lat="43.457637217864246" lon="10.782151513468984"><ele>84.8</ele><time>2026-04-19T12:44:47.999Z</time></trkpt><trkpt lat="43.45779766647026" lon="10.782031110527065"><ele>84.2</ele><time>2026-04-19T12:44:49.999Z</time></trkpt><trkpt lat="43.45784366153501" lon="10.781969502632785"><ele>83.60000000000001</ele><time>2026-04-19T12:44:50.999Z</time></trkpt><trkpt lat="43.45789534030128" lon="10.781909674142028"><ele>83.0</ele><time>2026-04-19T12:44:51.999Z</time></trkpt><trkpt lat="43.45796048200911" lon="10.781841902916135"><ele>83.0</ele><time>2026-04-19T12:44:52.999Z</time></trkpt><trkpt lat="43.45803432381063" lon="10.78176501234801"><ele>83.0</ele><time>2026-04-19T12:44:53.999Z</time></trkpt><trkpt lat="43.4581199840834" lon="10.78167784723273"><ele>83.0</ele><time>2026-04-19T12:44:55Z</time></trkpt><trkpt lat="43.4582151921781" lon="10.781582048054888"><ele>83.0</ele><time>2026-04-19T12:44:56Z</time></trkpt><trkpt lat="43.458315793639514" lon="10.781478680347881"><ele>83.0</ele><time>2026-04-19T12:44:57Z</time></trkpt><trkpt lat="43.45842145887584" lon="10.781367187330515"><ele>83.0</ele><time>2026-04-19T12:44:58Z</time></trkpt><trkpt lat="43.45852626630202" lon="10.781256566278818"><ele>83.0</ele><time>2026-04-19T12:44:59Z</time></trkpt><trkpt lat="43.45862958420966" lon="10.781149006035402"><ele>83.0</ele><time>2026-04-19T12:45:00Z</time></trkpt><trkpt lat="43.458734314961" lon="10.781039289332137"><ele>83.0</ele><time>2026-04-19T12:45:01Z</time></trkpt><trkpt lat="43.45884064326685" lon="10.780927375473425"><ele>82.75</ele><time>2026-04-19T12:45:02Z</time></trkpt><trkpt lat="43.458950516291985" lon="10.78081354205487"><ele>82.5</ele><time>2026-04-19T12:45:03Z</time></trkpt><trkpt lat="43.45906195013419" lon="10.78069670447884"><ele>82.25</ele><time>2026-04-19T12:45:04Z</time></trkpt><trkpt lat="43.45917660773055" lon="10.780576401919783"><ele>82.0</ele><time>2026-04-19T12:45:05Z</time></trkpt><trkpt lat="43.45929329901705" lon="10.780454695424167"><ele>82.0</ele><time>2026-04-19T12:45:06Z</time></trkpt><trkpt lat="43.45941160569684" lon="10.780330281816969"><ele>82.0</ele><time>2026-04-19T12:45:07Z</time></trkpt><trkpt lat="43.459531121590665" lon="10.780204491359049"><ele>82.0</ele><time>2026-04-19T12:45:08Z</time></trkpt><trkpt lat="43.459652178571204" lon="10.780077889327734"><ele>82.66666666666666</ele><time>2026-04-19T12:45:09Z</time></trkpt><trkpt lat="43.45977463744212" lon="10.779952713664665"><ele>83.33333333333333</ele><time>2026-04-19T12:45:10Z</time></trkpt><trkpt lat="43.459894129846404" lon="10.77982693396088"><ele>84.0</ele><time>2026-04-19T12:45:11Z</time></trkpt><trkpt lat="43.460011502466834" lon="10.779705070527914"><ele>84.0</ele><time>2026-04-19T12:45:12Z</time></trkpt><trkpt lat="43.46012688030513" lon="10.779586834682082"><ele>84.0</ele><time>2026-04-19T12:45:13Z</time></trkpt><trkpt lat="43.46023987246282" lon="10.779468361891343"><ele>84.0</ele><time>2026-04-19T12:45:14Z</time></trkpt><trkpt lat="43.460349372359424" lon="10.779348831371736"><ele>84.0</ele><time>2026-04-19T12:45:15Z</time></trkpt><trkpt lat="43.46045834309753" lon="10.779232136893219"><ele>84.25</ele><time>2026-04-19T12:45:16Z</time></trkpt><trkpt lat="43.46056773044354" lon="10.779116460277125"><ele>84.5</ele><time>2026-04-19T12:45:17Z</time></trkpt><trkpt lat="43.460680527465364" lon="10.779003488984321"><ele>84.75</ele><time>2026-04-19T12:45:18Z</time></trkpt><trkpt lat="43.46079443298725" lon="10.778888346193753"><ele>85.0</ele><time>2026-04-19T12:45:19Z</time></trkpt><trkpt lat="43.460910017086555" lon="10.778770277470414"><ele>85.0</ele><time>2026-04-19T12:45:20Z</time></trkpt><trkpt lat="43.46102407134291" lon="10.778650881133142"><ele>85.0</ele><time>2026-04-19T12:45:21Z</time></trkpt><trkpt lat="43.461138207895914" lon="10.77852887589105"><ele>85.0</ele><time>2026-04-19T12:45:22Z</time></trkpt><trkpt lat="43.461252517669806" lon="10.778407045188402"><ele>85.0</ele><time>2026-04-19T12:45:23Z</time></trkpt><trkpt lat="43.46137267946341" lon="10.778294792437732"><ele>84.5</ele><time>2026-04-19T12:45:24Z</time></trkpt><trkpt lat="43.46149618537367" lon="10.77818741122591"><ele>84.0</ele><time>2026-04-19T12:45:24.999Z</time></trkpt><trkpt lat="43.461625655172206" lon="10.778085981089271"><ele>83.5</ele><time>2026-04-19T12:45:25.999Z</time></trkpt><trkpt lat="43.4617568840386" lon="10.777987088987135"><ele>83.0</ele><time>2026-04-19T12:45:26.999Z</time></trkpt><trkpt lat="43.461889406115695" lon="10.777885938251481"><ele>83.0</ele><time>2026-04-19T12:45:27.999Z</time></trkpt><trkpt lat="43.46202173576143" lon="10.77778002396119"><ele>83.0</ele><time>2026-04-19T12:45:28.999Z</time></trkpt><trkpt lat="43.46215507766051" lon="10.777672116242622"><ele>83.0</ele><time>2026-04-19T12:45:29.999Z</time></trkpt><trkpt lat="43.462290625092955" lon="10.777563071968867"><ele>83.0</ele><time>2026-04-19T12:45:30.999Z</time></trkpt><trkpt lat="43.46242914932464" lon="10.777455290775652"><ele>83.0</ele><time>2026-04-19T12:45:31.999Z</time></trkpt><trkpt lat="43.462573258116585" lon="10.777345284832858"><ele>83.0</ele><time>2026-04-19T12:45:33Z</time></trkpt><trkpt lat="43.46272292887642" lon="10.77722864014014"><ele>83.0</ele><time>2026-04-19T12:45:34Z</time></trkpt><trkpt lat="43.46287590620746" lon="10.777106336989908"><ele>83.0</ele><time>2026-04-19T12:45:35Z</time></trkpt><trkpt lat="43.463034669614146" lon="10.77697787565397"><ele>83.0</ele><time>2026-04-19T12:45:36Z</time></trkpt><trkpt lat="43.46319888717558" lon="10.776848254556988"><ele>82.33333333333334</ele><time>2026-04-19T12:45:37Z</time></trkpt><trkpt lat="43.46336510759243" lon="10.776718082291987"><ele>81.66666666666667</ele><time>2026-04-19T12:45:38Z</time></trkpt><trkpt lat="43.46353253127385" lon="10.776586139293892"><ele>81.0</ele><time>2026-04-19T12:45:39Z</time></trkpt><trkpt lat="43.46370341154854" lon="10.776452369782366"><ele>80.33333333333333</ele><time>2026-04-19T12:45:40Z</time></trkpt><trkpt lat="43.46387375107044" lon="10.77631943022879"><ele>79.66666666666666</ele><time>2026-04-19T12:45:41Z</time></trkpt><trkpt lat="43.464043417592876" lon="10.776186644528536"><ele>79.0</ele><time>2026-04-19T12:45:42Z</time></trkpt><trkpt lat="43.464216722818776" lon="10.77604846096271"><ele>79.0</ele><time>2026-04-19T12:45:43Z</time></trkpt><trkpt lat="43.46439436652124" lon="10.775909309527064"><ele>79.0</ele><time>2026-04-19T12:45:44Z</time></trkpt><trkpt lat="43.46457372384421" lon="10.775768938028166"><ele>79.0</ele><time>2026-04-19T12:45:45Z</time></trkpt><trkpt lat="43.46475486493278" lon="10.775624666712153"><ele>79.0</ele><time>2026-04-19T12:45:46Z</time></trkpt><trkpt lat="43.46493683380143" lon="10.77548281975222"><ele>79.0</ele><time>2026-04-19T12:45:47Z</time></trkpt><trkpt lat="43.46512025849681" lon="10.7753371907191"><ele>79.0</ele><time>2026-04-19T12:45:48Z</time></trkpt><trkpt lat="43.465305768544546" lon="10.775188119736752"><ele>78.66666666666666</ele><time>2026-04-19T12:45:49Z</time></trkpt><trkpt lat="43.4654935566395" lon="10.7750398352624"><ele>78.33333333333333</ele><time>2026-04-19T12:45:50Z</time></trkpt><trkpt lat="43.46568696705163" lon="10.774897088792494"><ele>78.0</ele><time>2026-04-19T12:45:51Z</time></trkpt><trkpt lat="43.465890734846106" lon="10.774782122963849"><ele>78.0</ele><time>2026-04-19T12:45:52Z</time></trkpt><trkpt lat="43.466099543352925" lon="10.774692238612335"><ele>78.0</ele><time>2026-04-19T12:45:53Z</time></trkpt><trkpt lat="43.46631813226755" lon="10.774624524243693"><ele>78.0</ele><time>2026-04-19T12:45:54Z</time></trkpt><trkpt lat="43.466537317305644" lon="10.774564297759524"><ele>77.66666666666667</ele><time>2026-04-19T12:45:55Z</time></trkpt><trkpt lat="43.46675052406773" lon="10.774500371052541"><ele>77.33333333333334</ele><time>2026-04-19T12:45:56Z</time></trkpt><trkpt lat="43.466957899437936" lon="10.77443929098201"><ele>77.0</ele><time>2026-04-19T12:45:57Z</time></trkpt><trkpt lat="43.4671602830365" lon="10.774379410562826"><ele>79.0</ele><time>2026-04-19T12:45:58Z</time></trkpt><trkpt lat="43.46735696961805" lon="10.774319942882007"><ele>81.0</ele><time>2026-04-19T12:45:59Z</time></trkpt><trkpt lat="43.467545179452024" lon="10.774243036046965"><ele>83.0</ele><time>2026-04-19T12:46:00Z</time></trkpt><trkpt lat="43.46772230427708" lon="10.774143907264328"><ele>83.0</ele><time>2026-04-19T12:46:01Z</time></trkpt><trkpt lat="43.46788575068638" lon="10.774021740207328"><ele>83.0</ele><time>2026-04-19T12:46:02Z</time></trkpt><trkpt lat="43.46803305164842" lon="10.773879515501369"><ele>83.0</ele><time>2026-04-19T12:46:03Z</time></trkpt><trkpt lat="43.46817038814695" lon="10.773730356962322"><ele>84.0</ele><time>2026-04-19T12:46:04Z</time></trkpt><trkpt lat="43.46830653046604" lon="10.773585453704952"><ele>85.0</ele><time>2026-04-19T12:46:05.001Z</time></trkpt><trkpt lat="43.46844513724949" lon="10.773444621621254"><ele>86.0</ele><time>2026-04-19T12:46:06.001Z</time></trkpt><trkpt lat="43.46858089108071" lon="10.773302117516382"><ele>86.0</ele><time>2026-04-19T12:46:07.001Z</time></trkpt><trkpt lat="43.46871542170818" lon="10.773163368715533"><ele>86.0</ele><time>2026-04-19T12:46:08.001Z</time></trkpt><trkpt lat="43.46884995060888" lon="10.773024336388728"><ele>86.0</ele><time>2026-04-19T12:46:09.001Z</time></trkpt><trkpt lat="43.46898646304151" lon="10.772884872599377"><ele>84.66666666666667</ele><time>2026-04-19T12:46:10.001Z</time></trkpt><trkpt lat="43.46912335492845" lon="10.772743167950717"><ele>83.33333333333333</ele><time>2026-04-19T12:46:11.001Z</time></trkpt><trkpt lat="43.4692579594579" lon="10.772595432741984"><ele>82.0</ele><time>2026-04-19T12:46:12.001Z</time></trkpt><trkpt lat="43.46939531708205" lon="10.772450691794742"><ele>82.0</ele><time>2026-04-19T12:46:13.001Z</time></trkpt><trkpt lat="43.4695341042196" lon="10.772308445585493"><ele>82.0</ele><time>2026-04-19T12:46:14.001Z</time></trkpt><trkpt lat="43.46967162177615" lon="10.77216203798323"><ele>82.0</ele><time>2026-04-19T12:46:15.001Z</time></trkpt><trkpt lat="43.46980617137467" lon="10.772009687908133"><ele>82.33333333333333</ele><time>2026-04-19T12:46:16.001Z</time></trkpt><trkpt lat="43.4699395256519" lon="10.771848387354927"><ele>82.66666666666667</ele><time>2026-04-19T12:46:17.001Z</time></trkpt><trkpt lat="43.47007289669024" lon="10.771687420301728"><ele>83.0</ele><time>2026-04-19T12:46:18.001Z</time></trkpt><trkpt lat="43.4702119991082" lon="10.771529305473877"><ele>83.0</ele><time>2026-04-19T12:46:19.001Z</time></trkpt><trkpt lat="43.47035241834694" lon="10.771364656304915"><ele>83.0</ele><time>2026-04-19T12:46:20.001Z</time></trkpt><trkpt lat="43.47049440898985" lon="10.77119698182196"><ele>83.0</ele><time>2026-04-19T12:46:21.001Z</time></trkpt><trkpt lat="43.47063317742163" lon="10.771027423811965"><ele>81.66666666666667</ele><time>2026-04-19T12:46:22.001Z</time></trkpt><trkpt lat="43.47076951826771" lon="10.770851996556404"><ele>80.33333333333333</ele><time>2026-04-19T12:46:23.001Z</time></trkpt><trkpt lat="43.47090201342981" lon="10.770671509573651"><ele>79.0</ele><time>2026-04-19T12:46:24.001Z</time></trkpt><trkpt lat="43.47102933266107" lon="10.770489315657088"><ele>79.0</ele><time>2026-04-19T12:46:25.001Z</time></trkpt><trkpt lat="43.471147827599715" lon="10.77030592106231"><ele>79.0</ele><time>2026-04-19T12:46:26.001Z</time></trkpt><trkpt lat="43.471255262190375" lon="10.77012151160724"><ele>79.0</ele><time>2026-04-19T12:46:27.001Z</time></trkpt><trkpt lat="43.47135909118248" lon="10.769940742826481"><ele>77.66666666666666</ele><time>2026-04-19T12:46:28.001Z</time></trkpt><trkpt lat="43.47146043478935" lon="10.769762410512076"><ele>76.33333333333333</ele><time>2026-04-19T12:46:29.001Z</time></trkpt><trkpt lat="43.471555968317865" lon="10.769580186551677"><ele>75.0</ele><time>2026-04-19T12:46:30.001Z</time></trkpt><trkpt lat="43.47164724675981" lon="10.769388114084569"><ele>77.0</ele><time>2026-04-19T12:46:31.001Z</time></trkpt><trkpt lat="43.47172852700262" lon="10.769187246121335"><ele>79.0</ele><time>2026-04-19T12:46:32.001Z</time></trkpt><trkpt lat="43.47180037901907" lon="10.76898097560619"><ele>81.0</ele><time>2026-04-19T12:46:33.001Z</time></trkpt><trkpt lat="43.471861755325115" lon="10.76877181994942"><ele>81.0</ele><time>2026-04-19T12:46:34.001Z</time></trkpt><trkpt lat="43.47192129295491" lon="10.768564490554178"><ele>81.0</ele><time>2026-04-19T12:46:35.001Z</time></trkpt><trkpt lat="43.47197945820834" lon="10.76835608648238"><ele>81.0</ele><time>2026-04-19T12:46:36.001Z</time></trkpt><trkpt lat="43.4720380807412" lon="10.768146999781564"><ele>80.0</ele><time>2026-04-19T12:46:37.001Z</time></trkpt><trkpt lat="43.472096307029226" lon="10.767935446744087"><ele>79.0</ele><time>2026-04-19T12:46:38.001Z</time></trkpt><trkpt lat="43.47215561912148" lon="10.767717879102744"><ele>78.0</ele><time>2026-04-19T12:46:39.001Z</time></trkpt><trkpt lat="43.47221715747267" lon="10.767498106543929"><ele>77.33333333333333</ele><time>2026-04-19T12:46:40.001Z</time></trkpt><trkpt lat="43.47228080533639" lon="10.767273914576784"><ele>76.66666666666666</ele><time>2026-04-19T12:46:41.001Z</time></trkpt><trkpt lat="43.47234207499443" lon="10.767053093239445"><ele>76.0</ele><time>2026-04-19T12:46:42.001Z</time></trkpt><trkpt lat="43.47240201667571" lon="10.766836141436618"><ele>76.0</ele><time>2026-04-19T12:46:43.001Z</time></trkpt><trkpt lat="43.472459404178664" lon="10.76662195195587"><ele>76.0</ele><time>2026-04-19T12:46:44.001Z</time></trkpt><trkpt lat="43.47251767007839" lon="10.766405464864274"><ele>76.0</ele><time>2026-04-19T12:46:45.001Z</time></trkpt><trkpt lat="43.472578399166736" lon="10.766185963407336"><ele>76.66666666666666</ele><time>2026-04-19T12:46:46.001Z</time></trkpt><trkpt lat="43.47263863981352" lon="10.765967154123578"><ele>77.33333333333333</ele><time>2026-04-19T12:46:47.001Z</time></trkpt><trkpt lat="43.47270061246275" lon="10.765754229685355"><ele>78.0</ele><time>2026-04-19T12:46:48.001Z</time></trkpt><trkpt lat="43.47276304788029" lon="10.76554129537143"><ele>78.0</ele><time>2026-04-19T12:46:49.001Z</time></trkpt><trkpt lat="43.472819823368134" lon="10.765321549302767"><ele>78.0</ele><time>2026-04-19T12:46:50.001Z</time></trkpt><trkpt lat="43.472868669993424" lon="10.765102890843863"><ele>78.0</ele><time>2026-04-19T12:46:51.001Z</time></trkpt><trkpt lat="43.47290851254184" lon="10.764890832353856"><ele>78.25</ele><time>2026-04-19T12:46:52.001Z</time></trkpt><trkpt lat="43.47293635187157" lon="10.764684870805036"><ele>78.5</ele><time>2026-04-19T12:46:53.001Z</time></trkpt><trkpt lat="43.47295781761551" lon="10.764488691810001"><ele>78.75</ele><time>2026-04-19T12:46:54.001Z</time></trkpt><trkpt lat="43.47297415560855" lon="10.764316649358253"><ele>79.0</ele><time>2026-04-19T12:46:55.001Z</time></trkpt><trkpt lat="43.472986582478356" lon="10.764167321391048"><ele>79.0</ele><time>2026-04-19T12:46:56.001Z</time></trkpt><trkpt lat="43.47299573467678" lon="10.764037959757097"><ele>79.0</ele><time>2026-04-19T12:46:57.001Z</time></trkpt><trkpt lat="43.473003541546845" lon="10.763918995632206"><ele>79.0</ele><time>2026-04-19T12:46:58.001Z</time></trkpt><trkpt lat="43.47301156199528" lon="10.763811190868207"><ele>79.0</ele><time>2026-04-19T12:46:59.001Z</time></trkpt><trkpt lat="43.47302000420468" lon="10.76372188093364"><ele>79.0</ele><time>2026-04-19T12:47:00.001Z</time></trkpt><trkpt lat="43.4730322245555" lon="10.763587745111927"><ele>79.0</ele><time>2026-04-19T12:47:02.001Z</time></trkpt><trkpt lat="43.473041727017" lon="10.763483415625618"><ele>79.80000000000001</ele><time>2026-04-19T12:47:07.001Z</time></trkpt><trkpt lat="43.473047703663056" lon="10.76338187851749"><ele>80.60000000000001</ele><time>2026-04-19T12:47:09.001Z</time></trkpt><trkpt lat="43.47304749351642" lon="10.763229712266854"><ele>81.4</ele><time>2026-04-19T12:47:11.001Z</time></trkpt><trkpt lat="43.4730712532962" lon="10.76305256424326"><ele>82.2</ele><time>2026-04-19T12:47:13.001Z</time></trkpt><trkpt lat="43.47311208143548" lon="10.762955712549987"><ele>83.0</ele><time>2026-04-19T12:47:14.001Z</time></trkpt><trkpt lat="43.473131713519656" lon="10.762837489389566"><ele>83.0</ele><time>2026-04-19T12:47:15.001Z</time></trkpt><trkpt lat="43.47319538112564" lon="10.762749689080849"><ele>83.0</ele><time>2026-04-19T12:47:16.001Z</time></trkpt><trkpt lat="43.473248713004715" lon="10.762648868216468"><ele>83.0</ele><time>2026-04-19T12:47:17.001Z</time></trkpt><trkpt lat="43.47332990291582" lon="10.762580513607688"><ele>83.0</ele><time>2026-04-19T12:47:18.001Z</time></trkpt><trkpt lat="43.47341823906703" lon="10.762524715246615"><ele>83.0</ele><time>2026-04-19T12:47:19.001Z</time></trkpt><trkpt lat="43.47350253714054" lon="10.76247135955172"><ele>84.2</ele><time>2026-04-19T12:47:20.001Z</time></trkpt><trkpt lat="43.47358370951942" lon="10.76241590923"><ele>85.4</ele><time>2026-04-19T12:47:21.001Z</time></trkpt><trkpt lat="43.473662744293456" lon="10.762359053809762"><ele>86.60000000000001</ele><time>2026-04-19T12:47:22.001Z</time></trkpt><trkpt lat="43.47374171459616" lon="10.76229408019588"><ele>87.80000000000001</ele><time>2026-04-19T12:47:23.001Z</time></trkpt><trkpt lat="43.473822268597424" lon="10.762229686196438"><ele>89.0</ele><time>2026-04-19T12:47:24.001Z</time></trkpt><trkpt lat="43.47390323515314" lon="10.762163595287403"><ele>89.0</ele><time>2026-04-19T12:47:25.001Z</time></trkpt><trkpt lat="43.473980559595034" lon="10.762096489213286"><ele>89.0</ele><time>2026-04-19T12:47:26.001Z</time></trkpt><trkpt lat="43.47405905730987" lon="10.762031791668765"><ele>89.0</ele><time>2026-04-19T12:47:27.001Z</time></trkpt><trkpt lat="43.47413414418011" lon="10.761967240898723"><ele>89.0</ele><time>2026-04-19T12:47:28.001Z</time></trkpt><trkpt lat="43.474206374338735" lon="10.76190322571449"><ele>89.0</ele><time>2026-04-19T12:47:29.001Z</time></trkpt><trkpt lat="43.47427551045062" lon="10.761841241550952"><ele>89.0</ele><time>2026-04-19T12:47:30.001Z</time></trkpt><trkpt lat="43.47435085711739" lon="10.761803329086344"><ele>90.0</ele><time>2026-04-19T12:47:31Z</time></trkpt><trkpt lat="43.47442270159162" lon="10.761746264426819"><ele>91.0</ele><time>2026-04-19T12:47:32Z</time></trkpt><trkpt lat="43.47449619136401" lon="10.761687892892224"><ele>92.0</ele><time>2026-04-19T12:47:33Z</time></trkpt><trkpt lat="43.474567799042774" lon="10.761631016312947"><ele>93.0</ele><time>2026-04-19T12:47:34Z</time></trkpt><trkpt lat="43.47463852883431" lon="10.761573569910482"><ele>94.0</ele><time>2026-04-19T12:47:35Z</time></trkpt><trkpt lat="43.47470087127428" lon="10.761498701394299"><ele>95.0</ele><time>2026-04-19T12:47:36Z</time></trkpt><trkpt lat="43.474782775862366" lon="10.761454769223189"><ele>95.0</ele><time>2026-04-19T12:47:37Z</time></trkpt><trkpt lat="43.47485866493747" lon="10.761392290748711"><ele>95.0</ele><time>2026-04-19T12:47:38Z</time></trkpt><trkpt lat="43.4749346919493" lon="10.761321793728165"><ele>95.0</ele><time>2026-04-19T12:47:39Z</time></trkpt><trkpt lat="43.475010034698926" lon="10.76123810124607"><ele>95.0</ele><time>2026-04-19T12:47:40Z</time></trkpt><trkpt lat="43.475080671976364" lon="10.761141688207472"><ele>95.0</ele><time>2026-04-19T12:47:41Z</time></trkpt><trkpt lat="43.47514451081599" lon="10.761029999839975"><ele>97.4</ele><time>2026-04-19T12:47:42Z</time></trkpt><trkpt lat="43.47519380795624" lon="10.760904941860192"><ele>99.8</ele><time>2026-04-19T12:47:43Z</time></trkpt><trkpt lat="43.475228190221856" lon="10.760766108125347"><ele>102.19999999999999</ele><time>2026-04-19T12:47:44Z</time></trkpt><trkpt lat="43.47525276026351" lon="10.760623367817704"><ele>104.6</ele><time>2026-04-19T12:47:45Z</time></trkpt><trkpt lat="43.47526992145933" lon="10.760480082754752"><ele>107.0</ele><time>2026-04-19T12:47:46Z</time></trkpt><trkpt lat="43.475275166919296" lon="10.760340938822608"><ele>106.99999999999999</ele><time>2026-04-19T12:47:47Z</time></trkpt><trkpt lat="43.47527051965417" lon="10.760217160990193"><ele>107.0</ele><time>2026-04-19T12:47:48Z</time></trkpt><trkpt lat="43.475264111267926" lon="10.760106923983773"><ele>107.0</ele><time>2026-04-19T12:47:49Z</time></trkpt><trkpt lat="43.47525881667478" lon="10.760012600757108"><ele>107.0</ele><time>2026-04-19T12:47:50Z</time></trkpt><trkpt lat="43.475269244456165" lon="10.759921349881289"><ele>106.99999999999999</ele><time>2026-04-19T12:47:51Z</time></trkpt><trkpt lat="43.47524291457379" lon="10.759752305962683"><ele>107.0</ele><time>2026-04-19T12:47:53Z</time></trkpt><trkpt lat="43.475239550203874" lon="10.759661426534604"><ele>107.85714285714286</ele><time>2026-04-19T12:47:54Z</time></trkpt><trkpt lat="43.47523677835286" lon="10.759566359084996"><ele>108.71428571428572</ele><time>2026-04-19T12:47:55Z</time></trkpt><trkpt lat="43.475232076026806" lon="10.759466420134636"><ele>109.57142857142858</ele><time>2026-04-19T12:47:56Z</time></trkpt><trkpt lat="43.475227912813295" lon="10.759366691876284"><ele>110.42857142857143</ele><time>2026-04-19T12:47:57Z</time></trkpt><trkpt lat="43.47522471756448" lon="10.759270892860226"><ele>111.28571428571428</ele><time>2026-04-19T12:47:58Z</time></trkpt><trkpt lat="43.47522181581497" lon="10.759176702929645"><ele>112.14285714285715</ele><time>2026-04-19T12:47:59Z</time></trkpt><trkpt lat="43.475218135281786" lon="10.759083447750449"><ele>113.0</ele><time>2026-04-19T12:48:00Z</time></trkpt><trkpt lat="43.47521218676787" lon="10.75898998885142"><ele>113.28571428571429</ele><time>2026-04-19T12:48:01Z</time></trkpt><trkpt lat="43.47519959627542" lon="10.758898098798358"><ele>113.57142857142856</ele><time>2026-04-19T12:48:02Z</time></trkpt><trkpt lat="43.47520459222713" lon="10.758806973275101"><ele>113.85714285714285</ele><time>2026-04-19T12:48:03Z</time></trkpt><trkpt lat="43.47518823640293" lon="10.758719956023238"><ele>114.14285714285714</ele><time>2026-04-19T12:48:04Z</time></trkpt><trkpt lat="43.47517336775778" lon="10.75863456572589"><ele>114.42857142857142</ele><time>2026-04-19T12:48:05.001Z</time></trkpt><trkpt lat="43.47515411693904" lon="10.75854277727016"><ele>114.7142857142857</ele><time>2026-04-19T12:48:06.001Z</time></trkpt><trkpt lat="43.47513355298582" lon="10.758448771980984"><ele>114.99999999999999</ele><time>2026-04-19T12:48:07.001Z</time></trkpt><trkpt lat="43.47510935053919" lon="10.758354519699179"><ele>115.85714285714283</ele><time>2026-04-19T12:48:08.001Z</time></trkpt><trkpt lat="43.475084905029235" lon="10.758265559902407"><ele>116.71428571428571</ele><time>2026-04-19T12:48:09.001Z</time></trkpt><trkpt lat="43.475059171758254" lon="10.758178494419463"><ele>117.57142857142856</ele><time>2026-04-19T12:48:10.001Z</time></trkpt><trkpt lat="43.47502428566717" lon="10.758099068405814"><ele>118.42857142857142</ele><time>2026-04-19T12:48:11.001Z</time></trkpt><trkpt lat="43.47498283962521" lon="10.758032289566943"><ele>119.28571428571428</ele><time>2026-04-19T12:48:12.001Z</time></trkpt><trkpt lat="43.4749103545282" lon="10.757947350473598"><ele>120.14285714285714</ele><time>2026-04-19T12:48:14.001Z</time></trkpt><trkpt lat="43.47484254196939" lon="10.75790801023888"><ele>121.0</ele><time>2026-04-19T12:48:16.001Z</time></trkpt><trkpt lat="43.474781731681475" lon="10.757847027265223"><ele>121.00000000000001</ele><time>2026-04-19T12:48:19.001Z</time></trkpt><trkpt lat="43.47471424308174" lon="10.757780307042914"><ele>121.0</ele><time>2026-04-19T12:48:22.001Z</time></trkpt><trkpt lat="43.474653934147334" lon="10.757720161541053"><ele>121.0</ele><time>2026-04-19T12:48:24.001Z</time></trkpt><trkpt lat="43.47457699122284" lon="10.757646049746507"><ele>121.0</ele><time>2026-04-19T12:48:26.001Z</time></trkpt><trkpt lat="43.47447921830711" lon="10.757551110068057"><ele>121.00000000000001</ele><time>2026-04-19T12:48:28.001Z</time></trkpt><trkpt lat="43.47443121059767" lon="10.757474156690451"><ele>121.0</ele><time>2026-04-19T12:48:29.001Z</time></trkpt><trkpt lat="43.47436785763084" lon="10.757408549082168"><ele>122.16666666666667</ele><time>2026-04-19T12:48:30.001Z</time></trkpt><trkpt lat="43.47430372823177" lon="10.757342137352445"><ele>123.33333333333334</ele><time>2026-04-19T12:48:31.001Z</time></trkpt><trkpt lat="43.474239693847956" lon="10.75727606030728"><ele>124.5</ele><time>2026-04-19T12:48:32.001Z</time></trkpt><trkpt lat="43.47417601173048" lon="10.757211982864407"><ele>125.66666666666666</ele><time>2026-04-19T12:48:33.001Z</time></trkpt><trkpt lat="43.474102945115476" lon="10.757165653604467"><ele>126.83333333333333</ele><time>2026-04-19T12:48:34.001Z</time></trkpt><trkpt lat="43.474042025846714" lon="10.757098159551171"><ele>128.0</ele><time>2026-04-19T12:48:35.001Z</time></trkpt><trkpt lat="43.473981716542376" lon="10.757029296155402"><ele>127.99999999999999</ele><time>2026-04-19T12:48:36.001Z</time></trkpt><trkpt lat="43.473921440898835" lon="10.756958506878526"><ele>128.0</ele><time>2026-04-19T12:48:37.001Z</time></trkpt><trkpt lat="43.47386605491741" lon="10.756884095747708"><ele>128.0</ele><time>2026-04-19T12:48:38.001Z</time></trkpt><trkpt lat="43.47381639015463" lon="10.756806534825628"><ele>128.0</ele><time>2026-04-19T12:48:39.001Z</time></trkpt><trkpt lat="43.47377100207791" lon="10.756725375473502"><ele>127.99999999999999</ele><time>2026-04-19T12:48:40.001Z</time></trkpt><trkpt lat="43.473728705763115" lon="10.756640195440623"><ele>128.0</ele><time>2026-04-19T12:48:41.001Z</time></trkpt><trkpt lat="43.47369108554037" lon="10.756552538367469"><ele>127.83333333333333</ele><time>2026-04-19T12:48:42.001Z</time></trkpt><trkpt lat="43.47365668766962" lon="10.756459690202117"><ele>127.66666666666666</ele><time>2026-04-19T12:48:43.001Z</time></trkpt><trkpt lat="43.473626579447206" lon="10.756363700168592"><ele>127.5</ele><time>2026-04-19T12:48:44.001Z</time></trkpt><trkpt lat="43.473595572935544" lon="10.756265372862327"><ele>127.33333333333334</ele><time>2026-04-19T12:48:45.001Z</time></trkpt><trkpt lat="43.47356541738477" lon="10.756163985758993"><ele>127.16666666666667</ele><time>2026-04-19T12:48:46.001Z</time></trkpt><trkpt lat="43.47353538687013" lon="10.756060592913736"><ele>127.0</ele><time>2026-04-19T12:48:47.001Z</time></trkpt><trkpt lat="43.47350500818618" lon="10.755957528828109"><ele>127.00000000000001</ele><time>2026-04-19T12:48:48.001Z</time></trkpt><trkpt lat="43.473473878966495" lon="10.755853714817324"><ele>127.0</ele><time>2026-04-19T12:48:49.001Z</time></trkpt><trkpt lat="43.47344256597666" lon="10.75575042215404"><ele>127.0</ele><time>2026-04-19T12:48:50.001Z</time></trkpt><trkpt lat="43.473426193381684" lon="10.755640631579206"><ele>127.0</ele><time>2026-04-19T12:48:51.001Z</time></trkpt><trkpt lat="43.4733953833974" lon="10.755540899236767"><ele>127.00000000000001</ele><time>2026-04-19T12:48:52.001Z</time></trkpt><trkpt lat="43.473365048010386" lon="10.755445502590288"><ele>127.0</ele><time>2026-04-19T12:48:53.001Z</time></trkpt><trkpt lat="43.47333434034806" lon="10.755357857861728"><ele>127.0</ele><time>2026-04-19T12:48:54.001Z</time></trkpt><trkpt lat="43.473305418470005" lon="10.755275310179405"><ele>127.0</ele><time>2026-04-19T12:48:55.001Z</time></trkpt><trkpt lat="43.47327583888588" lon="10.755195017640252"><ele>127.0</ele><time>2026-04-19T12:48:56.001Z</time></trkpt><trkpt lat="43.47324526077658" lon="10.755113035402626"><ele>127.0</ele><time>2026-04-19T12:48:57.001Z</time></trkpt><trkpt lat="43.4732126426094" lon="10.755025583453879"><ele>127.0</ele><time>2026-04-19T12:48:58.001Z</time></trkpt><trkpt lat="43.47317632615295" lon="10.754928216173465"><ele>127.0</ele><time>2026-04-19T12:48:59.001Z</time></trkpt><trkpt lat="43.47313672088345" lon="10.75482203135181"><ele>127.0</ele><time>2026-04-19T12:49:00.001Z</time></trkpt><trkpt lat="43.473093925827754" lon="10.754707948396469"><ele>126.8</ele><time>2026-04-19T12:49:01.001Z</time></trkpt><trkpt lat="43.473049426540925" lon="10.754591856789844"><ele>126.6</ele><time>2026-04-19T12:49:02.001Z</time></trkpt><trkpt lat="43.47300609383074" lon="10.754478203238799"><ele>126.39999999999999</ele><time>2026-04-19T12:49:03.001Z</time></trkpt><trkpt lat="43.47296502344538" lon="10.754367170036074"><ele>126.19999999999999</ele><time>2026-04-19T12:49:04.001Z</time></trkpt><trkpt lat="43.472925253821224" lon="10.754256580306368"><ele>126.0</ele><time>2026-04-19T12:49:05.001Z</time></trkpt><trkpt lat="43.472888000894386" lon="10.754145665834155"><ele>126.0</ele><time>2026-04-19T12:49:06.001Z</time></trkpt><trkpt lat="43.47285445791426" lon="10.754036208963667"><ele>126.0</ele><time>2026-04-19T12:49:07.001Z</time></trkpt><trkpt lat="43.47282205126804" lon="10.753921823430113"><ele>126.0</ele><time>2026-04-19T12:49:08.001Z</time></trkpt><trkpt lat="43.47279156987783" lon="10.753812982542412"><ele>126.0</ele><time>2026-04-19T12:49:09.001Z</time></trkpt><trkpt lat="43.47276323905344" lon="10.753703501899404"><ele>126.0</ele><time>2026-04-19T12:49:10.001Z</time></trkpt><trkpt lat="43.47273549159256" lon="10.753596275535601"><ele>126.0</ele><time>2026-04-19T12:49:11.001Z</time></trkpt><trkpt lat="43.47270689569838" lon="10.75348577058448"><ele>126.0</ele><time>2026-04-19T12:49:12.001Z</time></trkpt><trkpt lat="43.47266317210561" lon="10.753380470448526"><ele>126.0</ele><time>2026-04-19T12:49:13.001Z</time></trkpt><trkpt lat="43.47263468397627" lon="10.75326795849792"><ele>126.0</ele><time>2026-04-19T12:49:14.001Z</time></trkpt><trkpt lat="43.47260567791867" lon="10.753158970306764"><ele>126.0</ele><time>2026-04-19T12:49:15.001Z</time></trkpt><trkpt lat="43.47257583389137" lon="10.753050857904158"><ele>126.0</ele><time>2026-04-19T12:49:16.001Z</time></trkpt><trkpt lat="43.47254465291987" lon="10.752938276348495"><ele>126.0</ele><time>2026-04-19T12:49:17.001Z</time></trkpt><trkpt lat="43.47252642295905" lon="10.752818994512426"><ele>126.0</ele><time>2026-04-19T12:49:18.001Z</time></trkpt><trkpt lat="43.47249767365218" lon="10.752715687449024"><ele>126.0</ele><time>2026-04-19T12:49:19.001Z</time></trkpt><trkpt lat="43.47247132525687" lon="10.7526210077638"><ele>126.0</ele><time>2026-04-19T12:49:20.001Z</time></trkpt><trkpt lat="43.472446567713575" lon="10.752532044649726"><ele>126.0</ele><time>2026-04-19T12:49:21.001Z</time></trkpt><trkpt lat="43.47242324828029" lon="10.752448249186681"><ele>126.0</ele><time>2026-04-19T12:49:22.001Z</time></trkpt><trkpt lat="43.472400214530495" lon="10.752365394744075"><ele>126.0</ele><time>2026-04-19T12:49:23.001Z</time></trkpt><trkpt lat="43.47237624565766" lon="10.752278957256157"><ele>126.0</ele><time>2026-04-19T12:49:24.001Z</time></trkpt><trkpt lat="43.47235212821899" lon="10.752191983855344"><ele>126.0</ele><time>2026-04-19T12:49:25.001Z</time></trkpt><trkpt lat="43.4723278457509" lon="10.752104415184595"><ele>126.0</ele><time>2026-04-19T12:49:26.001Z</time></trkpt><trkpt lat="43.47230431779815" lon="10.75201896249599"><ele>126.0</ele><time>2026-04-19T12:49:27.001Z</time></trkpt><trkpt lat="43.47228249085214" lon="10.751936235191888"><ele>126.0</ele><time>2026-04-19T12:49:28.001Z</time></trkpt><trkpt lat="43.47224077101763" lon="10.751776367964833"><ele>126.0</ele><time>2026-04-19T12:49:30.001Z</time></trkpt><trkpt lat="43.47219782061369" lon="10.751609874866043"><ele>125.71428571428572</ele><time>2026-04-19T12:49:32.001Z</time></trkpt><trkpt lat="43.472175230882435" lon="10.751520072573312"><ele>125.42857142857143</ele><time>2026-04-19T12:49:33.001Z</time></trkpt><trkpt lat="43.47215212832328" lon="10.75142831874757"><ele>125.14285714285714</ele><time>2026-04-19T12:49:34.001Z</time></trkpt><trkpt lat="43.472128579036756" lon="10.751334790833118"><ele>124.85714285714286</ele><time>2026-04-19T12:49:35.001Z</time></trkpt><trkpt lat="43.472103790393795" lon="10.751236806196692"><ele>124.57142857142858</ele><time>2026-04-19T12:49:36.001Z</time></trkpt><trkpt lat="43.472077458724485" lon="10.75113581612567"><ele>124.28571428571429</ele><time>2026-04-19T12:49:37Z</time></trkpt><trkpt lat="43.47205021542499" lon="10.751031329602847"><ele>124.0</ele><time>2026-04-19T12:49:38Z</time></trkpt><trkpt lat="43.47202181548101" lon="10.750924440212678"><ele>123.85714285714286</ele><time>2026-04-19T12:49:39Z</time></trkpt><trkpt lat="43.4719942854186" lon="10.750824803226232"><ele>123.71428571428572</ele><time>2026-04-19T12:49:40Z</time></trkpt><trkpt lat="43.47196733236167" lon="10.75072823125478"><ele>123.57142857142858</ele><time>2026-04-19T12:49:41Z</time></trkpt><trkpt lat="43.47194008441953" lon="10.75063755649333"><ele>123.42857142857144</ele><time>2026-04-19T12:49:42Z</time></trkpt><trkpt lat="43.4719124262124" lon="10.750545516557077"><ele>123.28571428571429</ele><time>2026-04-19T12:49:43Z</time></trkpt><trkpt lat="43.47188370048431" lon="10.750451204204591"><ele>123.14285714285717</ele><time>2026-04-19T12:49:44Z</time></trkpt><trkpt lat="43.47185441357607" lon="10.750357890235179"><ele>123.00000000000001</ele><time>2026-04-19T12:49:45Z</time></trkpt><trkpt lat="43.47181002761701" lon="10.750274747750002"><ele>123.0</ele><time>2026-04-19T12:49:46Z</time></trkpt><trkpt lat="43.471780857913146" lon="10.750183150982968"><ele>123.0</ele><time>2026-04-19T12:49:47Z</time></trkpt><trkpt lat="43.471749120909514" lon="10.7500900507514"><ele>123.0</ele><time>2026-04-19T12:49:48Z</time></trkpt><trkpt lat="43.47173128731929" lon="10.749981488565217"><ele>123.0</ele><time>2026-04-19T12:49:49Z</time></trkpt><trkpt lat="43.471695115229416" lon="10.749875719547072"><ele>123.0</ele><time>2026-04-19T12:49:50Z</time></trkpt><trkpt lat="43.47165705719319" lon="10.749765977498189"><ele>123.0</ele><time>2026-04-19T12:49:51Z</time></trkpt><trkpt lat="43.471617646182466" lon="10.749656555279774"><ele>123.0</ele><time>2026-04-19T12:49:52Z</time></trkpt><trkpt lat="43.47157648054636" lon="10.74954597156409"><ele>123.0</ele><time>2026-04-19T12:49:53Z</time></trkpt><trkpt lat="43.471534189985185" lon="10.749435514524"><ele>123.0</ele><time>2026-04-19T12:49:54Z</time></trkpt><trkpt lat="43.47149176067955" lon="10.749329757938085"><ele>123.0</ele><time>2026-04-19T12:49:55Z</time></trkpt><trkpt lat="43.471449978829874" lon="10.749228724822794"><ele>123.0</ele><time>2026-04-19T12:49:56Z</time></trkpt><trkpt lat="43.471407749185275" lon="10.749128118034958"><ele>123.0</ele><time>2026-04-19T12:49:57Z</time></trkpt><trkpt lat="43.4713651917529" lon="10.749026730362953"><ele>122.60000000000001</ele><time>2026-04-19T12:49:58Z</time></trkpt><trkpt lat="43.4713216333702" lon="10.74892392550132"><ele>122.20000000000002</ele><time>2026-04-19T12:49:59Z</time></trkpt><trkpt lat="43.47127081945409" lon="10.74882176259935"><ele>121.8</ele><time>2026-04-19T12:50:00.001Z</time></trkpt><trkpt lat="43.47121081491339" lon="10.74872616197777"><ele>121.4</ele><time>2026-04-19T12:50:01.001Z</time></trkpt><trkpt lat="43.47113898897766" lon="10.748641304266378"><ele>121.0</ele><time>2026-04-19T12:50:02.001Z</time></trkpt><trkpt lat="43.47106295886688" lon="10.748572013538329"><ele>121.14285714285714</ele><time>2026-04-19T12:50:03.001Z</time></trkpt><trkpt lat="43.47098623339906" lon="10.748511986966204"><ele>121.28571428571428</ele><time>2026-04-19T12:50:04.001Z</time></trkpt><trkpt lat="43.47091545141039" lon="10.748462433771456"><ele>121.42857142857142</ele><time>2026-04-19T12:50:05.001Z</time></trkpt><trkpt lat="43.47085067433929" lon="10.748419457087282"><ele>121.57142857142856</ele><time>2026-04-19T12:50:06.001Z</time></trkpt><trkpt lat="43.47078646046332" lon="10.748375747829128"><ele>121.71428571428571</ele><time>2026-04-19T12:50:07.001Z</time></trkpt><trkpt lat="43.47072199502661" lon="10.748338951116486"><ele>121.85714285714283</ele><time>2026-04-19T12:50:08.001Z</time></trkpt><trkpt lat="43.47066035409226" lon="10.748303766470375"><ele>121.99999999999999</ele><time>2026-04-19T12:50:09.001Z</time></trkpt><trkpt lat="43.47059963589436" lon="10.748270562736769"><ele>122.0</ele><time>2026-04-19T12:50:10.001Z</time></trkpt><trkpt lat="43.47048536719833" lon="10.748209714354518"><ele>121.99999999999999</ele><time>2026-04-19T12:50:12.001Z</time></trkpt><trkpt lat="43.47036989686773" lon="10.748147953431623"><ele>121.99999999999999</ele><time>2026-04-19T12:50:14.001Z</time></trkpt><trkpt lat="43.47030888751784" lon="10.7481139183602"><ele>122.0</ele><time>2026-04-19T12:50:15.001Z</time></trkpt><trkpt lat="43.47024443535592" lon="10.748074003193299"><ele>122.0</ele><time>2026-04-19T12:50:16.001Z</time></trkpt><trkpt lat="43.47017588165985" lon="10.748029378158003"><ele>121.83333333333333</ele><time>2026-04-19T12:50:17.001Z</time></trkpt><trkpt lat="43.470104584178415" lon="10.747982249724693"><ele>121.66666666666666</ele><time>2026-04-19T12:50:18.001Z</time></trkpt><trkpt lat="43.47003206379716" lon="10.747930418836106"><ele>121.5</ele><time>2026-04-19T12:50:19.001Z</time></trkpt><trkpt lat="43.46996055191149" lon="10.747877300433032"><ele>121.33333333333334</ele><time>2026-04-19T12:50:20.001Z</time></trkpt><trkpt lat="43.469889793890886" lon="10.747821075744467"><ele>121.16666666666667</ele><time>2026-04-19T12:50:21.001Z</time></trkpt><trkpt lat="43.4698195275694" lon="10.74776310611792"><ele>121.0</ele><time>2026-04-19T12:50:22.001Z</time></trkpt><trkpt lat="43.46975124677592" lon="10.747702701138046"><ele>121.33333333333334</ele><time>2026-04-19T12:50:23.001Z</time></trkpt><trkpt lat="43.4696825912407" lon="10.747640893147857"><ele>121.66666666666667</ele><time>2026-04-19T12:50:24.001Z</time></trkpt><trkpt lat="43.46961653723546" lon="10.747581427200272"><ele>122.0</ele><time>2026-04-19T12:50:25.001Z</time></trkpt><trkpt lat="43.46955218374412" lon="10.747523492154741"><ele>122.33333333333334</ele><time>2026-04-19T12:50:26.001Z</time></trkpt><trkpt lat="43.46948937168701" lon="10.747466973801151"><ele>122.66666666666667</ele><time>2026-04-19T12:50:27.001Z</time></trkpt><trkpt lat="43.46942801896748" lon="10.747411777796456"><ele>123.0</ele><time>2026-04-19T12:50:28.001Z</time></trkpt><trkpt lat="43.46936760423217" lon="10.747357425631277"><ele>123.71428571428572</ele><time>2026-04-19T12:50:29.001Z</time></trkpt><trkpt lat="43.46930849262147" lon="10.747304245639102"><ele>124.42857142857143</ele><time>2026-04-19T12:50:30.001Z</time></trkpt><trkpt lat="43.46924961825465" lon="10.747251279331195"><ele>125.14285714285714</ele><time>2026-04-19T12:50:31.001Z</time></trkpt><trkpt lat="43.46919130327436" lon="10.747198816305975"><ele>125.85714285714286</ele><time>2026-04-19T12:50:32.001Z</time></trkpt><trkpt lat="43.469131382391566" lon="10.74714490841037"><ele>126.57142857142856</ele><time>2026-04-19T12:50:33.001Z</time></trkpt><trkpt lat="43.469070362169674" lon="10.747090011435208"><ele>127.28571428571428</ele><time>2026-04-19T12:50:34.001Z</time></trkpt><trkpt lat="43.469007412043766" lon="10.747033378505085"><ele>128.0</ele><time>2026-04-19T12:50:35.001Z</time></trkpt><trkpt lat="43.4689435697538" lon="10.746974257696378"><ele>127.99999999999999</ele><time>2026-04-19T12:50:36.001Z</time></trkpt><trkpt lat="43.46888142225453" lon="10.746912078651507"><ele>128.0</ele><time>2026-04-19T12:50:37.001Z</time></trkpt><trkpt lat="43.46881049482194" lon="10.746861398837618"><ele>128.0</ele><time>2026-04-19T12:50:38.001Z</time></trkpt><trkpt lat="43.46875558153087" lon="10.746782934829884"><ele>128.0</ele><time>2026-04-19T12:50:39.001Z</time></trkpt><trkpt lat="43.46870807230825" lon="10.746698654349519"><ele>127.99999999999999</ele><time>2026-04-19T12:50:40.001Z</time></trkpt><trkpt lat="43.46866883117866" lon="10.746610968915572"><ele>128.0</ele><time>2026-04-19T12:50:41.001Z</time></trkpt><trkpt lat="43.468635842511524" lon="10.746518969026294"><ele>129.16666666666666</ele><time>2026-04-19T12:50:42.001Z</time></trkpt><trkpt lat="43.468624087674854" lon="10.746411893505735"><ele>130.33333333333331</ele><time>2026-04-19T12:50:43.001Z</time></trkpt><trkpt lat="43.468597233355204" lon="10.746305787299963"><ele>131.5</ele><time>2026-04-19T12:50:44.001Z</time></trkpt><trkpt lat="43.46857086467463" lon="10.746194546522409"><ele>132.66666666666666</ele><time>2026-04-19T12:50:45.001Z</time></trkpt><trkpt lat="43.46854399173485" lon="10.746076256045688"><ele>133.83333333333334</ele><time>2026-04-19T12:50:46.001Z</time></trkpt><trkpt lat="43.46851653816861" lon="10.745953980718793"><ele>135.0</ele><time>2026-04-19T12:50:47.001Z</time></trkpt><trkpt lat="43.46848960241642" lon="10.745827559938167"><ele>135.0</ele><time>2026-04-19T12:50:48.001Z</time></trkpt><trkpt lat="43.468462174147554" lon="10.745698827226478"><ele>135.0</ele><time>2026-04-19T12:50:49.001Z</time></trkpt><trkpt lat="43.46842997241891" lon="10.7455638019474"><ele>135.0</ele><time>2026-04-19T12:50:50.001Z</time></trkpt><trkpt lat="43.468391459281" lon="10.745438982831065"><ele>135.0</ele><time>2026-04-19T12:50:51.001Z</time></trkpt><trkpt lat="43.46834850909441" lon="10.74532507357449"><ele>135.0</ele><time>2026-04-19T12:50:52.001Z</time></trkpt><trkpt lat="43.468301252638604" lon="10.74522185871311"><ele>134.0</ele><time>2026-04-19T12:50:53.001Z</time></trkpt><trkpt lat="43.46824935249475" lon="10.745125463029428"><ele>133.0</ele><time>2026-04-19T12:50:54.001Z</time></trkpt><trkpt lat="43.46818622452531" lon="10.74503244811362"><ele>132.0</ele><time>2026-04-19T12:50:55.001Z</time></trkpt><trkpt lat="43.46811418140426" lon="10.744954510710631"><ele>131.0</ele><time>2026-04-19T12:50:56.001Z</time></trkpt><trkpt lat="43.46803848913439" lon="10.744885346758151"><ele>130.0</ele><time>2026-04-19T12:50:57.001Z</time></trkpt><trkpt lat="43.467952100848606" lon="10.744839576638944"><ele>131.66666666666669</ele><time>2026-04-19T12:50:58.001Z</time></trkpt><trkpt lat="43.46787436194385" lon="10.744778424217706"><ele>133.33333333333334</ele><time>2026-04-19T12:50:59.001Z</time></trkpt><trkpt lat="43.46779702340785" lon="10.744721630927291"><ele>135.0</ele><time>2026-04-19T12:51:00.001Z</time></trkpt><trkpt lat="43.46772399960875" lon="10.744664025803836"><ele>136.66666666666666</ele><time>2026-04-19T12:51:01.001Z</time></trkpt><trkpt lat="43.46765188448611" lon="10.74460639276143"><ele>138.33333333333331</ele><time>2026-04-19T12:51:02.001Z</time></trkpt><trkpt lat="43.46758002106946" lon="10.744551362718282"><ele>140.0</ele><time>2026-04-19T12:51:03.001Z</time></trkpt><trkpt lat="43.46750734758864" lon="10.744498880944443"><ele>140.0</ele><time>2026-04-19T12:51:04.001Z</time></trkpt><trkpt lat="43.46743364987262" lon="10.74444634909165"><ele>140.0</ele><time>2026-04-19T12:51:05.001Z</time></trkpt><trkpt lat="43.46737007902107" lon="10.744369908254619"><ele>140.0</ele><time>2026-04-19T12:51:06.001Z</time></trkpt><trkpt lat="43.467297124121636" lon="10.744312635580663"><ele>140.0</ele><time>2026-04-19T12:51:07.001Z</time></trkpt><trkpt lat="43.46726458237932" lon="10.74420629325005"><ele>140.0</ele><time>2026-04-19T12:51:08.001Z</time></trkpt><trkpt lat="43.467247531284144" lon="10.744086577793615"><ele>140.0</ele><time>2026-04-19T12:51:09.001Z</time></trkpt><trkpt lat="43.46725805539695" lon="10.743962938358436"><ele>139.0</ele><time>2026-04-19T12:51:10.001Z</time></trkpt><trkpt lat="43.4672722796061" lon="10.743831079748832"><ele>138.0</ele><time>2026-04-19T12:51:11.001Z</time></trkpt><trkpt lat="43.467288180093114" lon="10.743697088331418"><ele>137.0</ele><time>2026-04-19T12:51:12.001Z</time></trkpt><trkpt lat="43.46728772749206" lon="10.743559207044672"><ele>136.0</ele><time>2026-04-19T12:51:13.001Z</time></trkpt><trkpt lat="43.46730047835251" lon="10.74342363133068"><ele>135.0</ele><time>2026-04-19T12:51:14.001Z</time></trkpt><trkpt lat="43.46732702567355" lon="10.743290258069953"><ele>134.66666666666666</ele><time>2026-04-19T12:51:15.001Z</time></trkpt><trkpt lat="43.467340587692306" lon="10.743159259105065"><ele>134.33333333333334</ele><time>2026-04-19T12:51:16.001Z</time></trkpt><trkpt lat="43.467354975540275" lon="10.74303671494583"><ele>134.0</ele><time>2026-04-19T12:51:17.001Z</time></trkpt><trkpt lat="43.467372374104826" lon="10.742923336725033"><ele>133.66666666666669</ele><time>2026-04-19T12:51:18.001Z</time></trkpt><trkpt lat="43.46739264819285" lon="10.742817930656031"><ele>133.33333333333334</ele><time>2026-04-19T12:51:19Z</time></trkpt><trkpt lat="43.46741831379679" lon="10.742720465306238"><ele>133.0</ele><time>2026-04-19T12:51:20Z</time></trkpt><trkpt lat="43.46744667510074" lon="10.742622000227648"><ele>133.0</ele><time>2026-04-19T12:51:21Z</time></trkpt><trkpt lat="43.46747716003528" lon="10.7425270783309"><ele>133.0</ele><time>2026-04-19T12:51:22Z</time></trkpt><trkpt lat="43.46751250839976" lon="10.742434961842983"><ele>133.0</ele><time>2026-04-19T12:51:23Z</time></trkpt><trkpt lat="43.467549969544976" lon="10.742341844128221"><ele>133.0</ele><time>2026-04-19T12:51:24Z</time></trkpt><trkpt lat="43.467584925822706" lon="10.742247334808207"><ele>133.0</ele><time>2026-04-19T12:51:25Z</time></trkpt><trkpt lat="43.46761735624962" lon="10.742152033407269"><ele>133.0</ele><time>2026-04-19T12:51:26Z</time></trkpt><trkpt lat="43.467649573350016" lon="10.742055102304205"><ele>133.0</ele><time>2026-04-19T12:51:27Z</time></trkpt><trkpt lat="43.46766687693301" lon="10.741948040675606"><ele>133.0</ele><time>2026-04-19T12:51:28Z</time></trkpt><trkpt lat="43.46771544663714" lon="10.741860581026817"><ele>133.0</ele><time>2026-04-19T12:51:29Z</time></trkpt><trkpt lat="43.46774819303743" lon="10.741765705477192"><ele>133.0</ele><time>2026-04-19T12:51:30Z</time></trkpt><trkpt lat="43.46778161040518" lon="10.74167182829917"><ele>133.0</ele><time>2026-04-19T12:51:31Z</time></trkpt><trkpt lat="43.467815607865816" lon="10.7415804667557"><ele>133.0</ele><time>2026-04-19T12:51:32Z</time></trkpt><trkpt lat="43.46785125703868" lon="10.741492658966328"><ele>133.16666666666669</ele><time>2026-04-19T12:51:33Z</time></trkpt><trkpt lat="43.46789005450899" lon="10.741409399364745"><ele>133.33333333333334</ele><time>2026-04-19T12:51:34Z</time></trkpt><trkpt lat="43.467934802774316" lon="10.741322431628504"><ele>133.5</ele><time>2026-04-19T12:51:35Z</time></trkpt><trkpt lat="43.46798318719806" lon="10.741234732541873"><ele>133.66666666666666</ele><time>2026-04-19T12:51:36Z</time></trkpt><trkpt lat="43.46803689037798" lon="10.741150923063683"><ele>133.83333333333331</ele><time>2026-04-19T12:51:37Z</time></trkpt><trkpt lat="43.4680937450678" lon="10.741071320028437"><ele>134.0</ele><time>2026-04-19T12:51:38Z</time></trkpt><trkpt lat="43.46815515494721" lon="10.74099827679379"><ele>133.5</ele><time>2026-04-19T12:51:39Z</time></trkpt><trkpt lat="43.46821563790899" lon="10.740926812521415"><ele>133.0</ele><time>2026-04-19T12:51:40Z</time></trkpt><trkpt lat="43.46826563654338" lon="10.740839272171579"><ele>132.5</ele><time>2026-04-19T12:51:41Z</time></trkpt><trkpt lat="43.46832308737515" lon="10.740763830589035"><ele>132.0</ele><time>2026-04-19T12:51:42Z</time></trkpt><trkpt lat="43.46836970238419" lon="10.740674413854045"><ele>131.5</ele><time>2026-04-19T12:51:43Z</time></trkpt><trkpt lat="43.46840677093259" lon="10.740576544746556"><ele>131.0</ele><time>2026-04-19T12:51:44Z</time></trkpt><trkpt lat="43.46844756997611" lon="10.740481010730472"><ele>131.0</ele><time>2026-04-19T12:51:45Z</time></trkpt><trkpt lat="43.46846571012943" lon="10.740370801664055"><ele>131.0</ele><time>2026-04-19T12:51:46Z</time></trkpt><trkpt lat="43.46847746820063" lon="10.740261982251921"><ele>131.0</ele><time>2026-04-19T12:51:47Z</time></trkpt><trkpt lat="43.468487806556794" lon="10.740158243593983"><ele>131.0</ele><time>2026-04-19T12:51:48Z</time></trkpt><trkpt lat="43.468497749597" lon="10.740058472281602"><ele>131.0</ele><time>2026-04-19T12:51:49Z</time></trkpt><trkpt lat="43.46851190157765" lon="10.739965879203554"><ele>131.0</ele><time>2026-04-19T12:51:50Z</time></trkpt><trkpt lat="43.46852424808659" lon="10.739873790413323"><ele>131.0</ele><time>2026-04-19T12:51:51Z</time></trkpt><trkpt lat="43.46853322087205" lon="10.739781726058304"><ele>131.0</ele><time>2026-04-19T12:51:52Z</time></trkpt><trkpt lat="43.468540422954725" lon="10.739612898270043"><ele>131.0</ele><time>2026-04-19T12:51:54Z</time></trkpt><trkpt lat="43.46854165103197" lon="10.739443036096768"><ele>131.0</ele><time>2026-04-19T12:51:56Z</time></trkpt><trkpt lat="43.46853094229357" lon="10.739351524375216"><ele>131.0</ele><time>2026-04-19T12:51:57Z</time></trkpt><trkpt lat="43.468514534727284" lon="10.739265515269704"><ele>131.0</ele><time>2026-04-19T12:51:58Z</time></trkpt><trkpt lat="43.46848694581286" lon="10.739180170870098"><ele>131.0</ele><time>2026-04-19T12:51:59Z</time></trkpt><trkpt lat="43.46845120947095" lon="10.739101306151461"><ele>131.33333333333331</ele><time>2026-04-19T12:52:00Z</time></trkpt><trkpt lat="43.468410995959644" lon="10.739026126849923"><ele>131.66666666666666</ele><time>2026-04-19T12:52:01Z</time></trkpt><trkpt lat="43.46836962540136" lon="10.738954507059566"><ele>132.0</ele><time>2026-04-19T12:52:02Z</time></trkpt><trkpt lat="43.46833106833583" lon="10.738883960647414"><ele>132.33333333333334</ele><time>2026-04-19T12:52:03Z</time></trkpt><trkpt lat="43.468268896674175" lon="10.738745528492979"><ele>132.66666666666669</ele><time>2026-04-19T12:52:05Z</time></trkpt><trkpt lat="43.468224897284635" lon="10.738619451010464"><ele>133.0</ele><time>2026-04-19T12:52:07Z</time></trkpt><trkpt lat="43.468218337957275" lon="10.738511360684955"><ele>133.8</ele><time>2026-04-19T12:52:09Z</time></trkpt><trkpt lat="43.46826025203603" lon="10.738391885253028"><ele>134.60000000000002</ele><time>2026-04-19T12:52:11Z</time></trkpt><trkpt lat="43.46835284508103" lon="10.738275655887955"><ele>135.39999999999998</ele><time>2026-04-19T12:52:13Z</time></trkpt><trkpt lat="43.46840543273008" lon="10.738226677197018"><ele>136.2</ele><time>2026-04-19T12:52:14Z</time></trkpt><trkpt lat="43.468517538758675" lon="10.738146455176738"><ele>137.0</ele><time>2026-04-19T12:52:16Z</time></trkpt><trkpt lat="43.46858053599849" lon="10.738100315487142"><ele>137.0</ele><time>2026-04-19T12:52:17Z</time></trkpt><trkpt lat="43.46865773772885" lon="10.73808615306446"><ele>137.0</ele><time>2026-04-19T12:52:18Z</time></trkpt><trkpt lat="43.46873812292456" lon="10.738080006388461"><ele>137.0</ele><time>2026-04-19T12:52:19Z</time></trkpt><trkpt lat="43.46882209864228" lon="10.738083171879582"><ele>137.0</ele><time>2026-04-19T12:52:20Z</time></trkpt><trkpt lat="43.46890641562279" lon="10.738081041987032"><ele>137.0</ele><time>2026-04-19T12:52:21Z</time></trkpt><trkpt lat="43.46899352374963" lon="10.73807352405377"><ele>137.0</ele><time>2026-04-19T12:52:22Z</time></trkpt><trkpt lat="43.469083860730755" lon="10.73804794195478"><ele>137.6</ele><time>2026-04-19T12:52:23Z</time></trkpt><trkpt lat="43.46917166465337" lon="10.738003634474634"><ele>138.2</ele><time>2026-04-19T12:52:24Z</time></trkpt><trkpt lat="43.46925296171668" lon="10.73793075948982"><ele>138.8</ele><time>2026-04-19T12:52:25Z</time></trkpt><trkpt lat="43.46933143203032" lon="10.737850581800071"><ele>139.4</ele><time>2026-04-19T12:52:26Z</time></trkpt><trkpt lat="43.46940037159758" lon="10.737749084093991"><ele>140.0</ele><time>2026-04-19T12:52:27Z</time></trkpt><trkpt lat="43.46945697676712" lon="10.737633748146644"><ele>140.0</ele><time>2026-04-19T12:52:28Z</time></trkpt><trkpt lat="43.469502050178875" lon="10.737530585991466"><ele>140.0</ele><time>2026-04-19T12:52:29Z</time></trkpt><trkpt lat="43.469557322306734" lon="10.737461568664202"><ele>140.0</ele><time>2026-04-19T12:52:30Z</time></trkpt><trkpt lat="43.469629273279324" lon="10.73732444509484"><ele>140.0</ele><time>2026-04-19T12:52:32Z</time></trkpt><trkpt lat="43.46969031159618" lon="10.737205818900325"><ele>140.0</ele><time>2026-04-19T12:52:34Z</time></trkpt><trkpt lat="43.469738212368966" lon="10.737111012064434"><ele>141.5</ele><time>2026-04-19T12:52:37Z</time></trkpt><trkpt lat="43.469768045706786" lon="10.737018797821605"><ele>143.0</ele><time>2026-04-19T12:52:39Z</time></trkpt><trkpt lat="43.46981267109873" lon="10.736928205744446"><ele>144.5</ele><time>2026-04-19T12:52:41Z</time></trkpt><trkpt lat="43.46985418699189" lon="10.73684497888853"><ele>146.0</ele><time>2026-04-19T12:52:43Z</time></trkpt><trkpt lat="43.46988832823946" lon="10.73676093833125"><ele>147.5</ele><time>2026-04-19T12:52:45Z</time></trkpt><trkpt lat="43.469940267929246" lon="10.736681291341776"><ele>149.0</ele><time>2026-04-19T12:52:47Z</time></trkpt><trkpt lat="43.46998945243212" lon="10.736571994152785"><ele>150.0</ele><time>2026-04-19T12:52:49Z</time></trkpt><trkpt lat="43.470039577887476" lon="10.736459533419726"><ele>151.0</ele><time>2026-04-19T12:52:51Z</time></trkpt><trkpt lat="43.47008516775024" lon="10.736356870533838"><ele>152.0</ele><time>2026-04-19T12:52:53Z</time></trkpt><trkpt lat="43.47012528496283" lon="10.736260519057643"><ele>153.0</ele><time>2026-04-19T12:52:55Z</time></trkpt><trkpt lat="43.47016372669951" lon="10.736166102555"><ele>154.0</ele><time>2026-04-19T12:52:57Z</time></trkpt><trkpt lat="43.470201900911235" lon="10.736060636259621"><ele>155.0</ele><time>2026-04-19T12:52:59Z</time></trkpt><trkpt lat="43.47025939601272" lon="10.735934373284381"><ele>156.16666666666666</ele><time>2026-04-19T12:53:01Z</time></trkpt><trkpt lat="43.470280038874286" lon="10.73584502417104"><ele>157.33333333333331</ele><time>2026-04-19T12:53:02Z</time></trkpt><trkpt lat="43.47030130622724" lon="10.73567596350978"><ele>158.5</ele><time>2026-04-19T12:53:04Z</time></trkpt><trkpt lat="43.47032937681328" lon="10.73559331547912"><ele>159.66666666666666</ele><time>2026-04-19T12:53:05Z</time></trkpt><trkpt lat="43.47034816642299" lon="10.735499241479989"><ele>160.83333333333334</ele><time>2026-04-19T12:53:06Z</time></trkpt><trkpt lat="43.47036553477895" lon="10.73539844053302"><ele>162.0</ele><time>2026-04-19T12:53:07Z</time></trkpt><trkpt lat="43.470381229289025" lon="10.735290014359958"><ele>165.2</ele><time>2026-04-19T12:53:08Z</time></trkpt><trkpt lat="43.470395767053574" lon="10.73516864252494"><ele>168.39999999999998</ele><time>2026-04-19T12:53:09Z</time></trkpt><trkpt lat="43.47040068695076" lon="10.735035154046516"><ele>171.60000000000002</ele><time>2026-04-19T12:53:10Z</time></trkpt><trkpt lat="43.47041216055543" lon="10.734902236961736"><ele>174.8</ele><time>2026-04-19T12:53:11Z</time></trkpt><trkpt lat="43.47040721181092" lon="10.734766718823884"><ele>178.0</ele><time>2026-04-19T12:53:12Z</time></trkpt><trkpt lat="43.47038650621512" lon="10.734629231310189"><ele>178.0</ele><time>2026-04-19T12:53:13Z</time></trkpt><trkpt lat="43.47035962902297" lon="10.734490761273108"><ele>178.0</ele><time>2026-04-19T12:53:14Z</time></trkpt><trkpt lat="43.47033247033285" lon="10.734346838690323"><ele>178.0</ele><time>2026-04-19T12:53:15Z</time></trkpt><trkpt lat="43.47031943396869" lon="10.7341931332072"><ele>178.0</ele><time>2026-04-19T12:53:16Z</time></trkpt><trkpt lat="43.4703208312619" lon="10.734062025797149"><ele>178.0</ele><time>2026-04-19T12:53:17Z</time></trkpt><trkpt lat="43.47033634594197" lon="10.73393909602088"><ele>178.0</ele><time>2026-04-19T12:53:18Z</time></trkpt><trkpt lat="43.470350853868105" lon="10.733828685263619"><ele>178.0</ele><time>2026-04-19T12:53:19Z</time></trkpt><trkpt lat="43.47036313070568" lon="10.73372559261558"><ele>178.0</ele><time>2026-04-19T12:53:20Z</time></trkpt><trkpt lat="43.470376640668945" lon="10.7336272228312"><ele>178.0</ele><time>2026-04-19T12:53:21Z</time></trkpt><trkpt lat="43.47038550953879" lon="10.733528087984409"><ele>178.0</ele><time>2026-04-19T12:53:22Z</time></trkpt><trkpt lat="43.47039030863288" lon="10.733426024252944"><ele>178.0</ele><time>2026-04-19T12:53:23Z</time></trkpt><trkpt lat="43.47040807936911" lon="10.733323023920017"><ele>178.16666666666669</ele><time>2026-04-19T12:53:24Z</time></trkpt><trkpt lat="43.4704159656719" lon="10.733214578692932"><ele>178.33333333333334</ele><time>2026-04-19T12:53:25Z</time></trkpt><trkpt lat="43.470423757113316" lon="10.733103250583293"><ele>178.5</ele><time>2026-04-19T12:53:26Z</time></trkpt><trkpt lat="43.4704300710509" lon="10.732987838745174"><ele>178.66666666666666</ele><time>2026-04-19T12:53:27Z</time></trkpt><trkpt lat="43.470439244810144" lon="10.732864156067821"><ele>178.83333333333331</ele><time>2026-04-19T12:53:28Z</time></trkpt><trkpt lat="43.47045502436505" lon="10.732734275202986"><ele>179.0</ele><time>2026-04-19T12:53:29Z</time></trkpt><trkpt lat="43.4704749244888" lon="10.732599990927712"><ele>181.0</ele><time>2026-04-19T12:53:30Z</time></trkpt><trkpt lat="43.47050059204303" lon="10.732456345536027"><ele>183.0</ele><time>2026-04-19T12:53:31Z</time></trkpt><trkpt lat="43.47052901372652" lon="10.73230165661999"><ele>185.0</ele><time>2026-04-19T12:53:32Z</time></trkpt><trkpt lat="43.47055959371631" lon="10.73213636329397"><ele>187.0</ele><time>2026-04-19T12:53:33Z</time></trkpt><trkpt lat="43.470589706541936" lon="10.731960058525361"><ele>189.25</ele><time>2026-04-19T12:53:34Z</time></trkpt><trkpt lat="43.47061823370611" lon="10.731785170789081"><ele>191.5</ele><time>2026-04-19T12:53:35Z</time></trkpt><trkpt lat="43.470644842565655" lon="10.731624614901403"><ele>193.75</ele><time>2026-04-19T12:53:36Z</time></trkpt><trkpt lat="43.470665105182704" lon="10.731480433929557"><ele>196.0</ele><time>2026-04-19T12:53:37Z</time></trkpt><trkpt lat="43.470684044649424" lon="10.731348430672186"><ele>196.0</ele><time>2026-04-19T12:53:38Z</time></trkpt><trkpt lat="43.470698961443986" lon="10.731219445404108"><ele>196.0</ele><time>2026-04-19T12:53:39Z</time></trkpt><trkpt lat="43.47071310271065" lon="10.731088132968042"><ele>196.0</ele><time>2026-04-19T12:53:40Z</time></trkpt><trkpt lat="43.4707296335873" lon="10.730951767963617"><ele>196.0</ele><time>2026-04-19T12:53:41Z</time></trkpt><trkpt lat="43.47074255204097" lon="10.730807854371182"><ele>196.0</ele><time>2026-04-19T12:53:42Z</time></trkpt><trkpt lat="43.47074386929488" lon="10.730662537510334"><ele>196.20000000000002</ele><time>2026-04-19T12:53:43Z</time></trkpt><trkpt lat="43.47072580380475" lon="10.730514498553195"><ele>196.4</ele><time>2026-04-19T12:53:44Z</time></trkpt><trkpt lat="43.470702959465655" lon="10.730371711940979"><ele>196.6</ele><time>2026-04-19T12:53:45Z</time></trkpt><trkpt lat="43.47066925626253" lon="10.730222943191437"><ele>196.8</ele><time>2026-04-19T12:53:46Z</time></trkpt><trkpt lat="43.47063442536677" lon="10.730073829979304"><ele>197.0</ele><time>2026-04-19T12:53:47Z</time></trkpt><trkpt lat="43.47060143763479" lon="10.729928480230548"><ele>197.0</ele><time>2026-04-19T12:53:48Z</time></trkpt><trkpt lat="43.47057322401474" lon="10.729793426148268"><ele>197.0</ele><time>2026-04-19T12:53:49Z</time></trkpt><trkpt lat="43.47054620671267" lon="10.72966253180852"><ele>197.0</ele><time>2026-04-19T12:53:50Z</time></trkpt><trkpt lat="43.47052591917296" lon="10.729552572019823"><ele>197.0</ele><time>2026-04-19T12:53:51Z</time></trkpt><trkpt lat="43.47050830553499" lon="10.72941930370116"><ele>197.0</ele><time>2026-04-19T12:53:53Z</time></trkpt><trkpt lat="43.47048698003995" lon="10.729311874464122"><ele>198.16666666666669</ele><time>2026-04-19T12:53:56Z</time></trkpt><trkpt lat="43.470540507431814" lon="10.729252392471185"><ele>199.33333333333334</ele><time>2026-04-19T12:53:57Z</time></trkpt><trkpt lat="43.470633647255944" lon="10.729168405466556"><ele>200.5</ele><time>2026-04-19T12:53:59Z</time></trkpt><trkpt lat="43.47069270872044" lon="10.72911519604676"><ele>201.66666666666669</ele><time>2026-04-19T12:54:00Z</time></trkpt><trkpt lat="43.47075339839069" lon="10.729061677691602"><ele>202.83333333333334</ele><time>2026-04-19T12:54:01Z</time></trkpt><trkpt lat="43.47080763632372" lon="10.728993369533438"><ele>204.0</ele><time>2026-04-19T12:54:02Z</time></trkpt><trkpt lat="43.470870328168466" lon="10.72893043285661"><ele>204.0</ele><time>2026-04-19T12:54:03Z</time></trkpt><trkpt lat="43.470929281845656" lon="10.728874745385744"><ele>204.0</ele><time>2026-04-19T12:54:04Z</time></trkpt><trkpt lat="43.470980604361884" lon="10.728821838515772"><ele>204.0</ele><time>2026-04-19T12:54:05Z</time></trkpt><trkpt lat="43.4710878567345" lon="10.728755574495407"><ele>204.0</ele><time>2026-04-19T12:54:07Z</time></trkpt><trkpt lat="43.47118175962086" lon="10.728677991587928"><ele>204.0</ele><time>2026-04-19T12:54:09Z</time></trkpt><trkpt lat="43.47130304791702" lon="10.72862732048368"><ele>204.14285714285714</ele><time>2026-04-19T12:54:11Z</time></trkpt><trkpt lat="43.47136432632993" lon="10.728602263301683"><ele>204.28571428571428</ele><time>2026-04-19T12:54:12Z</time></trkpt><trkpt lat="43.47142604966151" lon="10.728572052806173"><ele>204.42857142857144</ele><time>2026-04-19T12:54:13Z</time></trkpt><trkpt lat="43.4714916672761" lon="10.728538010177456"><ele>204.57142857142856</ele><time>2026-04-19T12:54:14Z</time></trkpt><trkpt lat="43.471552380461304" lon="10.728511259436175"><ele>204.7142857142857</ele><time>2026-04-19T12:54:15Z</time></trkpt><trkpt lat="43.47161322646422" lon="10.72848213560499"><ele>204.85714285714286</ele><time>2026-04-19T12:54:16Z</time></trkpt><trkpt lat="43.471707146668585" lon="10.728440385820893"><ele>205.0</ele><time>2026-04-19T12:54:18Z</time></trkpt><trkpt lat="43.47177667661578" lon="10.728412832938707"><ele>204.99999999999997</ele><time>2026-04-19T12:54:20Z</time></trkpt><trkpt lat="43.471881009327156" lon="10.728380556106016"><ele>205.0</ele><time>2026-04-19T12:54:22Z</time></trkpt><trkpt lat="43.471956577945406" lon="10.728382461228072"><ele>205.0</ele><time>2026-04-19T12:54:23Z</time></trkpt><trkpt lat="43.472031310704416" lon="10.72839326214606"><ele>205.0</ele><time>2026-04-19T12:54:24Z</time></trkpt><trkpt lat="43.472152924967546" lon="10.7284074397351"><ele>204.99999999999997</ele><time>2026-04-19T12:54:26Z</time></trkpt><trkpt lat="43.47221886042557" lon="10.728397879344872"><ele>205.0</ele><time>2026-04-19T12:54:27Z</time></trkpt><trkpt lat="43.47233478438872" lon="10.728354348337646"><ele>204.8</ele><time>2026-04-19T12:54:29Z</time></trkpt><trkpt lat="43.472431998367405" lon="10.728300008378925"><ele>204.6</ele><time>2026-04-19T12:54:31Z</time></trkpt><trkpt lat="43.47252619388455" lon="10.728241455549679"><ele>204.39999999999998</ele><time>2026-04-19T12:54:33Z</time></trkpt><trkpt lat="43.472630609593864" lon="10.728172359902226"><ele>204.2</ele><time>2026-04-19T12:54:35Z</time></trkpt><trkpt lat="43.47271896793623" lon="10.728112334187685"><ele>204.0</ele><time>2026-04-19T12:54:37Z</time></trkpt><trkpt lat="43.47282225396848" lon="10.7280473961057"><ele>204.0</ele><time>2026-04-19T12:54:39Z</time></trkpt><trkpt lat="43.47288369715245" lon="10.728006854919338"><ele>204.0</ele><time>2026-04-19T12:54:40Z</time></trkpt><trkpt lat="43.472948222360266" lon="10.727967055239706"><ele>204.0</ele><time>2026-04-19T12:54:41Z</time></trkpt><trkpt lat="43.473017631754935" lon="10.7279355040288"><ele>204.0</ele><time>2026-04-19T12:54:42Z</time></trkpt><trkpt lat="43.4730934500391" lon="10.727925687716658"><ele>204.0</ele><time>2026-04-19T12:54:43Z</time></trkpt><trkpt lat="43.47317494191531" lon="10.727934589422901"><ele>204.0</ele><time>2026-04-19T12:54:44Z</time></trkpt><trkpt lat="43.473252960408175" lon="10.727951677843128"><ele>204.0</ele><time>2026-04-19T12:54:45Z</time></trkpt><trkpt lat="43.47332867477897" lon="10.727977475968451"><ele>203.66666666666666</ele><time>2026-04-19T12:54:46Z</time></trkpt><trkpt lat="43.47340543837261" lon="10.728002958940646"><ele>203.33333333333331</ele><time>2026-04-19T12:54:47Z</time></trkpt><trkpt lat="43.473481812616285" lon="10.728028324294687"><ele>203.0</ele><time>2026-04-19T12:54:48Z</time></trkpt><trkpt lat="43.473555870983304" lon="10.728050353989143"><ele>202.66666666666666</ele><time>2026-04-19T12:54:49Z</time></trkpt><trkpt lat="43.47362215643313" lon="10.728073457288184"><ele>202.33333333333331</ele><time>2026-04-19T12:54:50Z</time></trkpt><trkpt lat="43.47368355157516" lon="10.728096149058896"><ele>202.0</ele><time>2026-04-19T12:54:51Z</time></trkpt><trkpt lat="43.47379166776836" lon="10.728136967165918"><ele>203.8</ele><time>2026-04-19T12:54:53Z</time></trkpt><trkpt lat="43.47389252607151" lon="10.728186545309192"><ele>205.6</ele><time>2026-04-19T12:54:55Z</time></trkpt><trkpt lat="43.47398914880187" lon="10.728217697102743"><ele>207.4</ele><time>2026-04-19T12:54:57Z</time></trkpt><trkpt lat="43.474080183312424" lon="10.72823460231163"><ele>209.20000000000002</ele><time>2026-04-19T12:54:59Z</time></trkpt><trkpt lat="43.47417028078884" lon="10.728260710418503"><ele>211.0</ele><time>2026-04-19T12:55:01Z</time></trkpt><trkpt lat="43.47425773409057" lon="10.728290664140417"><ele>211.0</ele><time>2026-04-19T12:55:03Z</time></trkpt><trkpt lat="43.47435896706388" lon="10.72832089076457"><ele>211.0</ele><time>2026-04-19T12:55:05Z</time></trkpt><trkpt lat="43.47447374924033" lon="10.728354397503324"><ele>211.0</ele><time>2026-04-19T12:55:07Z</time></trkpt><trkpt lat="43.47459288670727" lon="10.728386478408234"><ele>211.0</ele><time>2026-04-19T12:55:09Z</time></trkpt><trkpt lat="43.47471674132128" lon="10.728407132398806"><ele>211.60000000000002</ele><time>2026-04-19T12:55:11Z</time></trkpt><trkpt lat="43.474829537839554" lon="10.72840299774222"><ele>212.2</ele><time>2026-04-19T12:55:13Z</time></trkpt><trkpt lat="43.474929992464624" lon="10.728395825554502"><ele>212.79999999999998</ele><time>2026-04-19T12:55:15Z</time></trkpt><trkpt lat="43.47503674630638" lon="10.728391724149752"><ele>213.39999999999998</ele><time>2026-04-19T12:55:17Z</time></trkpt><trkpt lat="43.475133722521825" lon="10.728385614342281"><ele>214.0</ele><time>2026-04-19T12:55:19Z</time></trkpt><trkpt lat="43.475222229221906" lon="10.728390997293836"><ele>214.00000000000003</ele><time>2026-04-19T12:55:21Z</time></trkpt><trkpt lat="43.47529460498635" lon="10.72841364204473"><ele>214.0</ele><time>2026-04-19T12:55:23Z</time></trkpt><trkpt lat="43.475357031751784" lon="10.728453951463498"><ele>214.0</ele><time>2026-04-19T12:55:25Z</time></trkpt><trkpt lat="43.47541901188262" lon="10.728493420946764"><ele>214.0</ele><time>2026-04-19T12:55:27Z</time></trkpt><trkpt lat="43.47548359484515" lon="10.728523961793524"><ele>214.0</ele><time>2026-04-19T12:55:29Z</time></trkpt><trkpt lat="43.475557586912416" lon="10.728558591357016"><ele>214.00000000000003</ele><time>2026-04-19T12:55:31Z</time></trkpt><trkpt lat="43.47562729237689" lon="10.72858580670729"><ele>214.0</ele><time>2026-04-19T12:55:33Z</time></trkpt><trkpt lat="43.47570278516297" lon="10.728628179716168"><ele>212.49999999999997</ele><time>2026-04-19T12:55:35Z</time></trkpt><trkpt lat="43.47577957906185" lon="10.728666798561918"><ele>211.0</ele><time>2026-04-19T12:55:37Z</time></trkpt><trkpt lat="43.475857215949816" lon="10.728708774512308"><ele>209.5</ele><time>2026-04-19T12:55:39Z</time></trkpt><trkpt lat="43.4759355860676" lon="10.728740165450722"><ele>208.0</ele><time>2026-04-19T12:55:41Z</time></trkpt><trkpt lat="43.476022607879294" lon="10.728784831758222"><ele>206.49999999999997</ele><time>2026-04-19T12:55:43Z</time></trkpt><trkpt lat="43.47611740838114" lon="10.728845135367639"><ele>205.0</ele><time>2026-04-19T12:55:45Z</time></trkpt><trkpt lat="43.47621937635848" lon="10.728912950967953"><ele>205.2</ele><time>2026-04-19T12:55:47Z</time></trkpt><trkpt lat="43.47630810680485" lon="10.72901581710643"><ele>205.4</ele><time>2026-04-19T12:55:49Z</time></trkpt><trkpt lat="43.47639976165913" lon="10.729089755477494"><ele>205.60000000000002</ele><time>2026-04-19T12:55:51Z</time></trkpt><trkpt lat="43.476482740259776" lon="10.72915918343096"><ele>205.8</ele><time>2026-04-19T12:55:53Z</time></trkpt><trkpt lat="43.476565647021324" lon="10.729214508444946"><ele>206.0</ele><time>2026-04-19T12:55:54.999Z</time></trkpt><trkpt lat="43.476653726049484" lon="10.729233427861551"><ele>206.0</ele><time>2026-04-19T12:55:56.999Z</time></trkpt><trkpt lat="43.476748349393404" lon="10.729258831687725"><ele>206.0</ele><time>2026-04-19T12:55:58.999Z</time></trkpt><trkpt lat="43.47685663977447" lon="10.729284676588772"><ele>206.0</ele><time>2026-04-19T12:56:00.999Z</time></trkpt><trkpt lat="43.476960280109964" lon="10.729318512490075"><ele>206.0</ele><time>2026-04-19T12:56:02.999Z</time></trkpt><trkpt lat="43.477036654993306" lon="10.729398342369802"><ele>206.0</ele><time>2026-04-19T12:56:04.999Z</time></trkpt><trkpt lat="43.47704653214467" lon="10.729563299720116"><ele>205.42857142857142</ele><time>2026-04-19T12:56:06.999Z</time></trkpt><trkpt lat="43.47706148662971" lon="10.729649208960424"><ele>204.85714285714286</ele><time>2026-04-19T12:56:07.999Z</time></trkpt><trkpt lat="43.477057584491746" lon="10.729742454037849"><ele>204.28571428571428</ele><time>2026-04-19T12:56:08.999Z</time></trkpt><trkpt lat="43.477064102990205" lon="10.729838649146437"><ele>203.71428571428572</ele><time>2026-04-19T12:56:09.999Z</time></trkpt><trkpt lat="43.47708341461341" lon="10.729937166070028"><ele>203.14285714285714</ele><time>2026-04-19T12:56:10.999Z</time></trkpt><trkpt lat="43.47711251299043" lon="10.730032125034421"><ele>202.57142857142856</ele><time>2026-04-19T12:56:11.999Z</time></trkpt><trkpt lat="43.4771527311576" lon="10.730126809616479"><ele>202.0</ele><time>2026-04-19T12:56:12.999Z</time></trkpt><trkpt lat="43.47719660444004" lon="10.730227789967659"><ele>199.6</ele><time>2026-04-19T12:56:13.999Z</time></trkpt><trkpt lat="43.4772438288174" lon="10.730335593920973"><ele>197.2</ele><time>2026-04-19T12:56:14.999Z</time></trkpt><trkpt lat="43.47728620392851" lon="10.730460836186653"><ele>194.8</ele><time>2026-04-19T12:56:16Z</time></trkpt><trkpt lat="43.477314682761325" lon="10.73059330004237"><ele>192.4</ele><time>2026-04-19T12:56:17Z</time></trkpt><trkpt lat="43.47733439483706" lon="10.730732253275415"><ele>190.0</ele><time>2026-04-19T12:56:18Z</time></trkpt><trkpt lat="43.477345063370336" lon="10.73087732119892"><ele>190.0</ele><time>2026-04-19T12:56:19Z</time></trkpt><trkpt lat="43.477356001335565" lon="10.731025019232808"><ele>190.0</ele><time>2026-04-19T12:56:20Z</time></trkpt><trkpt lat="43.47736870842536" lon="10.731177564325515"><ele>190.0</ele><time>2026-04-19T12:56:21Z</time></trkpt><trkpt lat="43.47738659923231" lon="10.7313331454274"><ele>190.0</ele><time>2026-04-19T12:56:22Z</time></trkpt><trkpt lat="43.47741476638218" lon="10.731486909402498"><ele>190.0</ele><time>2026-04-19T12:56:23Z</time></trkpt><trkpt lat="43.47745055895135" lon="10.731627665363145"><ele>188.66666666666669</ele><time>2026-04-19T12:56:24Z</time></trkpt><trkpt lat="43.47749521168332" lon="10.731747887189606"><ele>187.33333333333334</ele><time>2026-04-19T12:56:25Z</time></trkpt><trkpt lat="43.47754771856355" lon="10.731844494473112"><ele>186.0</ele><time>2026-04-19T12:56:26Z</time></trkpt><trkpt lat="43.47760696040717" lon="10.731911751444873"><ele>184.66666666666666</ele><time>2026-04-19T12:56:27Z</time></trkpt><trkpt lat="43.47766610208335" lon="10.731947875525556"><ele>183.33333333333331</ele><time>2026-04-19T12:56:28Z</time></trkpt><trkpt lat="43.47775737231355" lon="10.731987328955427"><ele>182.0</ele><time>2026-04-19T12:56:30Z</time></trkpt><trkpt lat="43.47777871285582" lon="10.732082601089212"><ele>179.83333333333331</ele><time>2026-04-19T12:56:32Z</time></trkpt><trkpt lat="43.477803791316546" lon="10.732248019566372"><ele>177.66666666666666</ele><time>2026-04-19T12:56:34Z</time></trkpt><trkpt lat="43.477815716397075" lon="10.732343178348646"><ele>175.5</ele><time>2026-04-19T12:56:35Z</time></trkpt><trkpt lat="43.47782577641916" lon="10.732436043440712"><ele>173.33333333333334</ele><time>2026-04-19T12:56:36Z</time></trkpt><trkpt lat="43.47783415505065" lon="10.7325261951252"><ele>171.16666666666669</ele><time>2026-04-19T12:56:37Z</time></trkpt><trkpt lat="43.477868087551116" lon="10.732687274695712"><ele>169.0</ele><time>2026-04-19T12:56:39Z</time></trkpt><trkpt lat="43.47793554919396" lon="10.732820661061774"><ele>167.79999999999998</ele><time>2026-04-19T12:56:41Z</time></trkpt><trkpt lat="43.478004278552206" lon="10.73295158449253"><ele>166.6</ele><time>2026-04-19T12:56:43Z</time></trkpt><trkpt lat="43.478072176059634" lon="10.733084519626516"><ele>165.4</ele><time>2026-04-19T12:56:45Z</time></trkpt><trkpt lat="43.47814131670044" lon="10.73322052810295"><ele>164.2</ele><time>2026-04-19T12:56:47Z</time></trkpt><trkpt lat="43.47817982231466" lon="10.733293025695227"><ele>163.0</ele><time>2026-04-19T12:56:48Z</time></trkpt><trkpt lat="43.47822523464027" lon="10.733357391700096"><ele>163.0</ele><time>2026-04-19T12:56:49Z</time></trkpt><trkpt lat="43.47826908403562" lon="10.733428442431753"><ele>163.0</ele><time>2026-04-19T12:56:50Z</time></trkpt><trkpt lat="43.47839422457926" lon="10.733471705251565"><ele>163.0</ele><time>2026-04-19T12:56:52Z</time></trkpt><trkpt lat="43.478444389268645" lon="10.733553657930672"><ele>163.0</ele><time>2026-04-19T12:56:53Z</time></trkpt><trkpt lat="43.47848131191473" lon="10.733658445242725"><ele>163.0</ele><time>2026-04-19T12:56:54Z</time></trkpt><trkpt lat="43.478516952331454" lon="10.733777099187273"><ele>162.4</ele><time>2026-04-19T12:56:55Z</time></trkpt><trkpt lat="43.47855226898878" lon="10.7338981079504"><ele>161.8</ele><time>2026-04-19T12:56:56Z</time></trkpt><trkpt lat="43.47858200064599" lon="10.734017197821785"><ele>161.2</ele><time>2026-04-19T12:56:57Z</time></trkpt><trkpt lat="43.47860258330578" lon="10.734140782587634"><ele>160.6</ele><time>2026-04-19T12:56:58Z</time></trkpt><trkpt lat="43.47860991974819" lon="10.73426296687503"><ele>160.0</ele><time>2026-04-19T12:56:59Z</time></trkpt><trkpt lat="43.47861048047098" lon="10.73437717782479"><ele>159.14285714285714</ele><time>2026-04-19T12:57:00Z</time></trkpt><trkpt lat="43.47861328493907" lon="10.734488444980524"><ele>158.28571428571428</ele><time>2026-04-19T12:57:01Z</time></trkpt><trkpt lat="43.47861965595568" lon="10.734592558636159"><ele>157.42857142857144</ele><time>2026-04-19T12:57:02Z</time></trkpt><trkpt lat="43.478630006692065" lon="10.734692467338814"><ele>156.57142857142856</ele><time>2026-04-19T12:57:03Z</time></trkpt><trkpt lat="43.47864381049847" lon="10.734789444659617"><ele>155.71428571428572</ele><time>2026-04-19T12:57:04Z</time></trkpt><trkpt lat="43.478659538532995" lon="10.734883830613272"><ele>154.85714285714286</ele><time>2026-04-19T12:57:05Z</time></trkpt><trkpt lat="43.47867871021552" lon="10.73497741878028"><ele>154.0</ele><time>2026-04-19T12:57:06Z</time></trkpt><trkpt lat="43.478698244448964" lon="10.735074710894539"><ele>154.0</ele><time>2026-04-19T12:57:07Z</time></trkpt><trkpt lat="43.478717962395486" lon="10.735172356353225"><ele>154.0</ele><time>2026-04-19T12:57:08Z</time></trkpt><trkpt lat="43.478736373416034" lon="10.735272012018363"><ele>154.0</ele><time>2026-04-19T12:57:09Z</time></trkpt><trkpt lat="43.47875570663251" lon="10.735370465455302"><ele>154.0</ele><time>2026-04-19T12:57:10Z</time></trkpt><trkpt lat="43.47877464997558" lon="10.735471504176193"><ele>154.0</ele><time>2026-04-19T12:57:11Z</time></trkpt><trkpt lat="43.47879534638451" lon="10.735565879180497"><ele>154.0</ele><time>2026-04-19T12:57:12Z</time></trkpt><trkpt lat="43.47881762964793" lon="10.735651035818849"><ele>154.0</ele><time>2026-04-19T12:57:13Z</time></trkpt><trkpt lat="43.478862677483505" lon="10.73577414146005"><ele>150.8</ele><time>2026-04-19T12:57:15Z</time></trkpt><trkpt lat="43.47890408970241" lon="10.73589196118616"><ele>147.60000000000002</ele><time>2026-04-19T12:57:17Z</time></trkpt><trkpt lat="43.47895943915228" lon="10.736014546885652"><ele>144.4</ele><time>2026-04-19T12:57:19Z</time></trkpt><trkpt lat="43.4790359210816" lon="10.73610808820772"><ele>141.20000000000002</ele><time>2026-04-19T12:57:21Z</time></trkpt><trkpt lat="43.47912533552646" lon="10.73618411183696"><ele>138.0</ele><time>2026-04-19T12:57:23Z</time></trkpt><trkpt lat="43.47923500057329" lon="10.736250036774596"><ele>136.33333333333334</ele><time>2026-04-19T12:57:25Z</time></trkpt><trkpt lat="43.4792946319013" lon="10.736281212922558"><ele>134.66666666666666</ele><time>2026-04-19T12:57:26Z</time></trkpt><trkpt lat="43.47940481289796" lon="10.7363457055314"><ele>133.0</ele><time>2026-04-19T12:57:28Z</time></trkpt><trkpt lat="43.47951130117747" lon="10.736434415175573"><ele>131.33333333333331</ele><time>2026-04-19T12:57:30Z</time></trkpt><trkpt lat="43.47956138572356" lon="10.736492913670164"><ele>129.66666666666666</ele><time>2026-04-19T12:57:31Z</time></trkpt><trkpt lat="43.47961381892734" lon="10.736557703051224"><ele>128.0</ele><time>2026-04-19T12:57:32Z</time></trkpt><trkpt lat="43.47966547042107" lon="10.736620787531045"><ele>126.75</ele><time>2026-04-19T12:57:33Z</time></trkpt><trkpt lat="43.479752364871295" lon="10.736716228908113"><ele>125.5</ele><time>2026-04-19T12:57:35Z</time></trkpt><trkpt lat="43.47983998460217" lon="10.736825742581946"><ele>124.25</ele><time>2026-04-19T12:57:37Z</time></trkpt><trkpt lat="43.47993441103471" lon="10.73692650880469"><ele>123.0</ele><time>2026-04-19T12:57:39Z</time></trkpt><trkpt lat="43.48003650143214" lon="10.737016067882529"><ele>122.5</ele><time>2026-04-19T12:57:41Z</time></trkpt><trkpt lat="43.480129242754984" lon="10.737119987885693"><ele>122.0</ele><time>2026-04-19T12:57:43Z</time></trkpt><trkpt lat="43.48022850845468" lon="10.737207926270278"><ele>121.5</ele><time>2026-04-19T12:57:45Z</time></trkpt><trkpt lat="43.48032521798493" lon="10.737292832689974"><ele>121.0</ele><time>2026-04-19T12:57:47Z</time></trkpt><trkpt lat="43.4804255327964" lon="10.737360049461524"><ele>120.6</ele><time>2026-04-19T12:57:49Z</time></trkpt><trkpt lat="43.48050351963171" lon="10.73746179343451"><ele>120.19999999999999</ele><time>2026-04-19T12:57:51Z</time></trkpt><trkpt lat="43.48057729193196" lon="10.737564661595245"><ele>119.80000000000001</ele><time>2026-04-19T12:57:53Z</time></trkpt><trkpt lat="43.48067051419785" lon="10.737627264212358"><ele>119.4</ele><time>2026-04-19T12:57:55Z</time></trkpt><trkpt lat="43.480791264802804" lon="10.737628502117959"><ele>119.0</ele><time>2026-04-19T12:57:57Z</time></trkpt><trkpt lat="43.48091319964835" lon="10.73764969614177"><ele>119.0</ele><time>2026-04-19T12:57:59Z</time></trkpt><trkpt lat="43.48097593258573" lon="10.737667191590319"><ele>119.0</ele><time>2026-04-19T12:58:00Z</time></trkpt><trkpt lat="43.48104157436964" lon="10.737677814351477"><ele>119.0</ele><time>2026-04-19T12:58:00.999Z</time></trkpt><trkpt lat="43.481110410315054" lon="10.737682240599256"><ele>119.0</ele><time>2026-04-19T12:58:01.999Z</time></trkpt><trkpt lat="43.48118009947805" lon="10.737680834444829"><ele>119.0</ele><time>2026-04-19T12:58:02.999Z</time></trkpt><trkpt lat="43.48125244322017" lon="10.737673306159179"><ele>119.0</ele><time>2026-04-19T12:58:03.999Z</time></trkpt><trkpt lat="43.481325873100474" lon="10.73766128960939"><ele>119.0</ele><time>2026-04-19T12:58:04.999Z</time></trkpt><trkpt lat="43.48140068713252" lon="10.737654050188105"><ele>118.33333333333333</ele><time>2026-04-19T12:58:05.999Z</time></trkpt><trkpt lat="43.48147706854634" lon="10.73765386333807"><ele>117.66666666666666</ele><time>2026-04-19T12:58:06.999Z</time></trkpt><trkpt lat="43.481554910316135" lon="10.737660201699223"><ele>117.0</ele><time>2026-04-19T12:58:07.999Z</time></trkpt><trkpt lat="43.48163353916971" lon="10.737668074082631"><ele>116.33333333333334</ele><time>2026-04-19T12:58:08.999Z</time></trkpt><trkpt lat="43.48171219856227" lon="10.73768179677474"><ele>115.66666666666667</ele><time>2026-04-19T12:58:09.999Z</time></trkpt><trkpt lat="43.481790603207436" lon="10.73770373828384"><ele>115.0</ele><time>2026-04-19T12:58:10.999Z</time></trkpt><trkpt lat="43.481867495648316" lon="10.737734816307979"><ele>114.57142857142856</ele><time>2026-04-19T12:58:11.999Z</time></trkpt><trkpt lat="43.48194336115581" lon="10.737768184269255"><ele>114.14285714285714</ele><time>2026-04-19T12:58:12.999Z</time></trkpt><trkpt lat="43.482013663400615" lon="10.737808424906753"><ele>113.71428571428571</ele><time>2026-04-19T12:58:13.999Z</time></trkpt><trkpt lat="43.48207736311468" lon="10.737855245506744"><ele>113.28571428571428</ele><time>2026-04-19T12:58:14.999Z</time></trkpt><trkpt lat="43.482138081060015" lon="10.737904966476059"><ele>112.85714285714286</ele><time>2026-04-19T12:58:15.999Z</time></trkpt><trkpt lat="43.48220220032131" lon="10.73795253825257"><ele>112.42857142857143</ele><time>2026-04-19T12:58:16.999Z</time></trkpt><trkpt lat="43.48227233730651" lon="10.737999005197386"><ele>112.0</ele><time>2026-04-19T12:58:18Z</time></trkpt><trkpt lat="43.482346950471914" lon="10.73804135801101"><ele>111.16666666666667</ele><time>2026-04-19T12:58:19Z</time></trkpt><trkpt lat="43.48242771731019" lon="10.738077141756802"><ele>110.33333333333334</ele><time>2026-04-19T12:58:20Z</time></trkpt><trkpt lat="43.482507994686245" lon="10.738107122047007"><ele>109.5</ele><time>2026-04-19T12:58:21Z</time></trkpt><trkpt lat="43.48258573421213" lon="10.73813613273739"><ele>108.66666666666666</ele><time>2026-04-19T12:58:22Z</time></trkpt><trkpt lat="43.48266125576673" lon="10.738174324325705"><ele>107.83333333333333</ele><time>2026-04-19T12:58:23Z</time></trkpt><trkpt lat="43.482729113702355" lon="10.738221965337395"><ele>107.0</ele><time>2026-04-19T12:58:24Z</time></trkpt><trkpt lat="43.482790892645724" lon="10.738277562774083"><ele>107.00000000000001</ele><time>2026-04-19T12:58:25Z</time></trkpt><trkpt lat="43.48284975656737" lon="10.738340024050512"><ele>107.0</ele><time>2026-04-19T12:58:26Z</time></trkpt><trkpt lat="43.48290630952781" lon="10.738405017420577"><ele>107.0</ele><time>2026-04-19T12:58:27Z</time></trkpt><trkpt lat="43.482961750203316" lon="10.738471214828454"><ele>107.0</ele><time>2026-04-19T12:58:28Z</time></trkpt><trkpt lat="43.4830173052199" lon="10.738537469046628"><ele>107.0</ele><time>2026-04-19T12:58:29Z</time></trkpt><trkpt lat="43.483073876659624" lon="10.738602564701855"><ele>107.00000000000001</ele><time>2026-04-19T12:58:30Z</time></trkpt><trkpt lat="43.48313294546189" lon="10.7386662490948"><ele>107.0</ele><time>2026-04-19T12:58:31Z</time></trkpt><trkpt lat="43.483191893925884" lon="10.738730899435128"><ele>106.42857142857143</ele><time>2026-04-19T12:58:32Z</time></trkpt><trkpt lat="43.48324821305632" lon="10.738796273111978"><ele>105.85714285714286</ele><time>2026-04-19T12:58:33Z</time></trkpt><trkpt lat="43.483304931938186" lon="10.73885726318967"><ele>105.28571428571428</ele><time>2026-04-19T12:58:34Z</time></trkpt><trkpt lat="43.48336125448379" lon="10.738915682773426"><ele>104.71428571428572</ele><time>2026-04-19T12:58:35Z</time></trkpt><trkpt lat="43.483416545814904" lon="10.738972066062594"><ele>104.14285714285714</ele><time>2026-04-19T12:58:36Z</time></trkpt><trkpt lat="43.48347151309606" lon="10.73902720769607"><ele>103.57142857142857</ele><time>2026-04-19T12:58:37Z</time></trkpt><trkpt lat="43.48352287850818" lon="10.73908390082372"><ele>103.0</ele><time>2026-04-19T12:58:38Z</time></trkpt><trkpt lat="43.48357254942815" lon="10.7391393021871"><ele>103.00000000000001</ele><time>2026-04-19T12:58:39Z</time></trkpt><trkpt lat="43.48367414441938" lon="10.739243129444455"><ele>103.0</ele><time>2026-04-19T12:58:41Z</time></trkpt><trkpt lat="43.483726828018966" lon="10.739296847545017"><ele>103.0</ele><time>2026-04-19T12:58:42Z</time></trkpt><trkpt lat="43.483778043829716" lon="10.739355695934778"><ele>103.0</ele><time>2026-04-19T12:58:43Z</time></trkpt><trkpt lat="43.483825746650524" lon="10.739421361304922"><ele>103.00000000000001</ele><time>2026-04-19T12:58:44Z</time></trkpt><trkpt lat="43.48387084621395" lon="10.739494798597644"><ele>103.0</ele><time>2026-04-19T12:58:45Z</time></trkpt><trkpt lat="43.48391335500855" lon="10.739576730343597"><ele>102.16666666666667</ele><time>2026-04-19T12:58:46Z</time></trkpt><trkpt lat="43.48395117959015" lon="10.739666808005184"><ele>101.33333333333334</ele><time>2026-04-19T12:58:47Z</time></trkpt><trkpt lat="43.483979960426986" lon="10.73976523656356"><ele>100.5</ele><time>2026-04-19T12:58:48Z</time></trkpt><trkpt lat="43.48400088393973" lon="10.739869787572967"><ele>99.66666666666666</ele><time>2026-04-19T12:58:49Z</time></trkpt><trkpt lat="43.48401391423414" lon="10.739975311596137"><ele>98.83333333333333</ele><time>2026-04-19T12:58:50Z</time></trkpt><trkpt lat="43.4840241665002" lon="10.74007654038929"><ele>98.0</ele><time>2026-04-19T12:58:51Z</time></trkpt><trkpt lat="43.48403668173608" lon="10.740173622126214"><ele>97.80000000000001</ele><time>2026-04-19T12:58:52Z</time></trkpt><trkpt lat="43.48405270513291" lon="10.740266549732844"><ele>97.6</ele><time>2026-04-19T12:58:53Z</time></trkpt><trkpt lat="43.48406831197251" lon="10.740355742593838"><ele>97.4</ele><time>2026-04-19T12:58:54Z</time></trkpt><trkpt lat="43.48411637483146" lon="10.740515461053922"><ele>97.19999999999999</ele><time>2026-04-19T12:58:56Z</time></trkpt><trkpt lat="43.484188796421016" lon="10.740639079178022"><ele>97.0</ele><time>2026-04-19T12:58:58Z</time></trkpt><trkpt lat="43.484274656780165" lon="10.740761779904215"><ele>97.0</ele><time>2026-04-19T12:59:00Z</time></trkpt><trkpt lat="43.4843210429273" lon="10.74082583750873"><ele>97.0</ele><time>2026-04-19T12:59:01Z</time></trkpt><trkpt lat="43.48436864224646" lon="10.740890284634185"><ele>97.0</ele><time>2026-04-19T12:59:02Z</time></trkpt><trkpt lat="43.48441760401606" lon="10.740956090841715"><ele>97.0</ele><time>2026-04-19T12:59:03Z</time></trkpt><trkpt lat="43.48446640380532" lon="10.741023253304602"><ele>97.0</ele><time>2026-04-19T12:59:04Z</time></trkpt><trkpt lat="43.484515990304196" lon="10.741089157621088"><ele>97.0</ele><time>2026-04-19T12:59:05Z</time></trkpt><trkpt lat="43.484566443875295" lon="10.74114939620677"><ele>97.0</ele><time>2026-04-19T12:59:06Z</time></trkpt><trkpt lat="43.484653928226294" lon="10.741272908014276"><ele>96.57142857142857</ele><time>2026-04-19T12:59:08Z</time></trkpt><trkpt lat="43.48470068552046" lon="10.74133544052854"><ele>96.14285714285715</ele><time>2026-04-19T12:59:09Z</time></trkpt><trkpt lat="43.484748110536685" lon="10.741399327985132"><ele>95.71428571428572</ele><time>2026-04-19T12:59:10Z</time></trkpt><trkpt lat="43.48479614064777" lon="10.741464877726791"><ele>95.28571428571428</ele><time>2026-04-19T12:59:11Z</time></trkpt><trkpt lat="43.48484389717457" lon="10.741531263169247"><ele>94.85714285714286</ele><time>2026-04-19T12:59:12Z</time></trkpt><trkpt lat="43.48488779956457" lon="10.741594772879642"><ele>94.42857142857143</ele><time>2026-04-19T12:59:13Z</time></trkpt><trkpt lat="43.48497093254126" lon="10.741709144736072"><ele>94.0</ele><time>2026-04-19T12:59:15Z</time></trkpt><trkpt lat="43.485051241853924" lon="10.741806536575012"><ele>93.80000000000001</ele><time>2026-04-19T12:59:17Z</time></trkpt><trkpt lat="43.48510771011332" lon="10.741922991932915"><ele>93.60000000000001</ele><time>2026-04-19T12:59:19Z</time></trkpt><trkpt lat="43.48518654720864" lon="10.742008015091928"><ele>93.4</ele><time>2026-04-19T12:59:21Z</time></trkpt><trkpt lat="43.485258974886946" lon="10.742092626592909"><ele>93.2</ele><time>2026-04-19T12:59:23Z</time></trkpt><trkpt lat="43.48532925441489" lon="10.742187452840946"><ele>93.0</ele><time>2026-04-19T12:59:25Z</time></trkpt><trkpt lat="43.485407587489334" lon="10.74228676322869"><ele>93.0</ele><time>2026-04-19T12:59:27Z</time></trkpt><trkpt lat="43.485473366602115" lon="10.742378193685267"><ele>93.0</ele><time>2026-04-19T12:59:29Z</time></trkpt><trkpt lat="43.48553380845316" lon="10.7424704127087"><ele>93.0</ele><time>2026-04-19T12:59:31Z</time></trkpt><trkpt lat="43.48560126909379" lon="10.742569917150828"><ele>93.0</ele><time>2026-04-19T12:59:33Z</time></trkpt><trkpt lat="43.48566899550513" lon="10.742664232271565"><ele>93.0</ele><time>2026-04-19T12:59:35Z</time></trkpt><trkpt lat="43.48575027937016" lon="10.742703873304519"><ele>93.0</ele><time>2026-04-19T12:59:37Z</time></trkpt><trkpt lat="43.485845637862305" lon="10.742646490025264"><ele>93.0</ele><time>2026-04-19T12:59:39Z</time></trkpt><trkpt lat="43.48595093464276" lon="10.742584012730733"><ele>93.0</ele><time>2026-04-19T12:59:41Z</time></trkpt><trkpt lat="43.48605586551633" lon="10.74250921996947"><ele>93.0</ele><time>2026-04-19T12:59:43Z</time></trkpt><trkpt lat="43.486167365409955" lon="10.74245527377273"><ele>92.4</ele><time>2026-04-19T12:59:45Z</time></trkpt><trkpt lat="43.486280361582445" lon="10.742488973002233"><ele>91.80000000000001</ele><time>2026-04-19T12:59:47Z</time></trkpt><trkpt lat="43.48639339117594" lon="10.742553835880539"><ele>91.2</ele><time>2026-04-19T12:59:49Z</time></trkpt><trkpt lat="43.48650538536383" lon="10.742618013478975"><ele>90.6</ele><time>2026-04-19T12:59:51Z</time></trkpt><trkpt lat="43.48656934506854" lon="10.74263468505004"><ele>90.0</ele><time>2026-04-19T12:59:52Z</time></trkpt><trkpt lat="43.4866360216506" lon="10.742661994660747"><ele>90.0</ele><time>2026-04-19T12:59:53Z</time></trkpt><trkpt lat="43.48670683556589" lon="10.742627455106504"><ele>90.0</ele><time>2026-04-19T12:59:54Z</time></trkpt><trkpt lat="43.48678407461052" lon="10.742613920053024"><ele>90.0</ele><time>2026-04-19T12:59:55Z</time></trkpt><trkpt lat="43.4868670040242" lon="10.742602096563038"><ele>90.0</ele><time>2026-04-19T12:59:56Z</time></trkpt><trkpt lat="43.4869542089738" lon="10.742593107048817"><ele>90.0</ele><time>2026-04-19T12:59:57Z</time></trkpt><trkpt lat="43.487046040891215" lon="10.742584969888968"><ele>90.0</ele><time>2026-04-19T12:59:58Z</time></trkpt><trkpt lat="43.487141897257466" lon="10.742579554527762"><ele>87.8</ele><time>2026-04-19T12:59:59Z</time></trkpt><trkpt lat="43.48724259576202" lon="10.742595895568654"><ele>85.6</ele><time>2026-04-19T13:00:00Z</time></trkpt><trkpt lat="43.487345767952924" lon="10.742593072224684"><ele>83.4</ele><time>2026-04-19T13:00:01Z</time></trkpt><trkpt lat="43.48745360066504" lon="10.742571534975868"><ele>81.2</ele><time>2026-04-19T13:00:02Z</time></trkpt><trkpt lat="43.48756454295259" lon="10.74257199911567"><ele>79.0</ele><time>2026-04-19T13:00:03Z</time></trkpt><trkpt lat="43.48767901537264" lon="10.742577754252851"><ele>79.0</ele><time>2026-04-19T13:00:04Z</time></trkpt><trkpt lat="43.48779033525417" lon="10.742592860678105"><ele>79.0</ele><time>2026-04-19T13:00:05Z</time></trkpt><trkpt lat="43.487887404037096" lon="10.742619711964474"><ele>79.0</ele><time>2026-04-19T13:00:06Z</time></trkpt><trkpt lat="43.487964837381845" lon="10.74264684071124"><ele>79.0</ele><time>2026-04-19T13:00:06.999Z</time></trkpt><trkpt lat="43.48803928516323" lon="10.742672771392094"><ele>79.0</ele><time>2026-04-19T13:00:07.999Z</time></trkpt><trkpt lat="43.48811594397834" lon="10.742695934444253"><ele>79.0</ele><time>2026-04-19T13:00:08.999Z</time></trkpt><trkpt lat="43.48818869336677" lon="10.742717293038858"><ele>77.4</ele><time>2026-04-19T13:00:09.999Z</time></trkpt><trkpt lat="43.488257719180986" lon="10.74275074680615"><ele>75.80000000000001</ele><time>2026-04-19T13:00:10.999Z</time></trkpt><trkpt lat="43.48834304091275" lon="10.742840090174289"><ele>74.19999999999999</ele><time>2026-04-19T13:00:12.999Z</time></trkpt><trkpt lat="43.48839560816744" lon="10.742903343343533"><ele>72.6</ele><time>2026-04-19T13:00:23Z</time></trkpt><trkpt lat="43.48849525444873" lon="10.742859659292076"><ele>71.0</ele><time>2026-04-19T13:00:24Z</time></trkpt><trkpt lat="43.488604577711946" lon="10.742767095953326"><ele>70.8</ele><time>2026-04-19T13:00:26Z</time></trkpt><trkpt lat="43.488673610144076" lon="10.742711893505602"><ele>70.6</ele><time>2026-04-19T13:00:27Z</time></trkpt><trkpt lat="43.48875235269641" lon="10.742636936420237"><ele>70.4</ele><time>2026-04-19T13:00:28Z</time></trkpt><trkpt lat="43.48884182676204" lon="10.742552464761323"><ele>70.2</ele><time>2026-04-19T13:00:29Z</time></trkpt><trkpt lat="43.488942622674784" lon="10.74246117235361"><ele>70.0</ele><time>2026-04-19T13:00:30Z</time></trkpt><trkpt lat="43.489054713047686" lon="10.742364963515"><ele>70.0</ele><time>2026-04-19T13:00:31Z</time></trkpt><trkpt lat="43.489172007654716" lon="10.742271725826523"><ele>70.0</ele><time>2026-04-19T13:00:32Z</time></trkpt><trkpt lat="43.48928807686497" lon="10.742188226064108"><ele>70.0</ele><time>2026-04-19T13:00:33Z</time></trkpt><trkpt lat="43.48940778167063" lon="10.74210809719802"><ele>70.0</ele><time>2026-04-19T13:00:34Z</time></trkpt><trkpt lat="43.48952844238992" lon="10.74203025517393"><ele>69.75</ele><time>2026-04-19T13:00:35Z</time></trkpt><trkpt lat="43.48964715239745" lon="10.741952791745414"><ele>69.5</ele><time>2026-04-19T13:00:36Z</time></trkpt><trkpt lat="43.48976420501415" lon="10.74187600710349"><ele>69.25</ele><time>2026-04-19T13:00:37Z</time></trkpt><trkpt lat="43.48988083594479" lon="10.741800505813075"><ele>69.0</ele><time>2026-04-19T13:00:38Z</time></trkpt><trkpt lat="43.489993900725025" lon="10.74172107770165"><ele>69.75</ele><time>2026-04-19T13:00:39Z</time></trkpt><trkpt lat="43.49010337954508" lon="10.741635388508113"><ele>70.5</ele><time>2026-04-19T13:00:40Z</time></trkpt><trkpt lat="43.49020985663726" lon="10.741547412976999"><ele>71.25</ele><time>2026-04-19T13:00:41Z</time></trkpt><trkpt lat="43.49031246005254" lon="10.741459467056258"><ele>72.0</ele><time>2026-04-19T13:00:42Z</time></trkpt><trkpt lat="43.49041179857241" lon="10.741367787226784"><ele>71.5</ele><time>2026-04-19T13:00:43Z</time></trkpt><trkpt lat="43.49050830844587" lon="10.741272492973742"><ele>71.0</ele><time>2026-04-19T13:00:44Z</time></trkpt><trkpt lat="43.49059962828822" lon="10.741173991364626"><ele>70.5</ele><time>2026-04-19T13:00:45Z</time></trkpt><trkpt lat="43.49068686288314" lon="10.74107393780233"><ele>70.0</ele><time>2026-04-19T13:00:46Z</time></trkpt><trkpt lat="43.490773385742635" lon="10.74096838757761"><ele>70.0</ele><time>2026-04-19T13:00:47Z</time></trkpt><trkpt lat="43.49085834969288" lon="10.740857784676402"><ele>70.0</ele><time>2026-04-19T13:00:48Z</time></trkpt><trkpt lat="43.490941694845645" lon="10.74074121328348"><ele>70.0</ele><time>2026-04-19T13:00:49Z</time></trkpt><trkpt lat="43.49102601405978" lon="10.740614842720012"><ele>70.0</ele><time>2026-04-19T13:00:50Z</time></trkpt><trkpt lat="43.491110196517454" lon="10.740482489485059"><ele>70.0</ele><time>2026-04-19T13:00:51Z</time></trkpt><trkpt lat="43.49119394674491" lon="10.740342499179436"><ele>70.0</ele><time>2026-04-19T13:00:52Z</time></trkpt><trkpt lat="43.491276626280644" lon="10.740195987128912"><ele>70.0</ele><time>2026-04-19T13:00:53Z</time></trkpt><trkpt lat="43.49135719711117" lon="10.740042738421671"><ele>70.0</ele><time>2026-04-19T13:00:54Z</time></trkpt><trkpt lat="43.49143678269773" lon="10.739883479927956"><ele>70.0</ele><time>2026-04-19T13:00:55Z</time></trkpt><trkpt lat="43.49151558993081" lon="10.739720924908546"><ele>70.0</ele><time>2026-04-19T13:00:56Z</time></trkpt><trkpt lat="43.49159401590747" lon="10.73955646529804"><ele>70.0</ele><time>2026-04-19T13:00:57Z</time></trkpt><trkpt lat="43.49167273448579" lon="10.739389702704157"><ele>70.0</ele><time>2026-04-19T13:00:58Z</time></trkpt><trkpt lat="43.491749496306454" lon="10.739221662180368"><ele>70.0</ele><time>2026-04-19T13:00:59Z</time></trkpt><trkpt lat="43.491824535018615" lon="10.739055342109488"><ele>70.0</ele><time>2026-04-19T13:01:00Z</time></trkpt><trkpt lat="43.49190157040387" lon="10.738888543654003"><ele>70.0</ele><time>2026-04-19T13:01:01Z</time></trkpt><trkpt lat="43.49198087481602" lon="10.738721080933498"><ele>70.0</ele><time>2026-04-19T13:01:02Z</time></trkpt><trkpt lat="43.49206606935739" lon="10.738556948872994"><ele>69.75</ele><time>2026-04-19T13:01:03Z</time></trkpt><trkpt lat="43.492154384569325" lon="10.738397894806646"><ele>69.5</ele><time>2026-04-19T13:01:04Z</time></trkpt><trkpt lat="43.49224787331603" lon="10.738242799534172"><ele>69.25</ele><time>2026-04-19T13:01:05Z</time></trkpt><trkpt lat="43.492345483669354" lon="10.738089322097153"><ele>69.0</ele><time>2026-04-19T13:01:06Z</time></trkpt><trkpt lat="43.4924479525901" lon="10.737937708604527"><ele>69.0</ele><time>2026-04-19T13:01:07Z</time></trkpt><trkpt lat="43.492556875594936" lon="10.737786645751658"><ele>69.0</ele><time>2026-04-19T13:01:08Z</time></trkpt><trkpt lat="43.49267188146388" lon="10.737637408252741"><ele>69.0</ele><time>2026-04-19T13:01:09Z</time></trkpt><trkpt lat="43.49279558193465" lon="10.737491606690782"><ele>69.0</ele><time>2026-04-19T13:01:10Z</time></trkpt><trkpt lat="43.49292312500875" lon="10.737353451455032"><ele>69.0</ele><time>2026-04-19T13:01:11Z</time></trkpt><trkpt lat="43.49305326523682" lon="10.737220462455946"><ele>69.0</ele><time>2026-04-19T13:01:12Z</time></trkpt><trkpt lat="43.49318682536775" lon="10.737092346607398"><ele>69.0</ele><time>2026-04-19T13:01:13Z</time></trkpt><trkpt lat="43.49332284017478" lon="10.736964879738819"><ele>69.0</ele><time>2026-04-19T13:01:14Z</time></trkpt><trkpt lat="43.49346063811125" lon="10.736837578323868"><ele>69.0</ele><time>2026-04-19T13:01:15Z</time></trkpt><trkpt lat="43.49360116873224" lon="10.73671172503995"><ele>69.0</ele><time>2026-04-19T13:01:16Z</time></trkpt><trkpt lat="43.49374510180412" lon="10.736588442061418"><ele>69.0</ele><time>2026-04-19T13:01:17Z</time></trkpt><trkpt lat="43.493894220085764" lon="10.73646973505629"><ele>69.0</ele><time>2026-04-19T13:01:18Z</time></trkpt><trkpt lat="43.49404938931428" lon="10.736355334278707"><ele>69.33333333333333</ele><time>2026-04-19T13:01:19Z</time></trkpt><trkpt lat="43.49420844715723" lon="10.73625159263451"><ele>69.66666666666666</ele><time>2026-04-19T13:01:20Z</time></trkpt><trkpt lat="43.4943683159099" lon="10.73615471371186"><ele>70.0</ele><time>2026-04-19T13:01:21Z</time></trkpt><trkpt lat="43.49452991436505" lon="10.736064172410769"><ele>70.33333333333333</ele><time>2026-04-19T13:01:22Z</time></trkpt><trkpt lat="43.49469613896082" lon="10.73598373587434"><ele>70.66666666666667</ele><time>2026-04-19T13:01:23Z</time></trkpt><trkpt lat="43.494863858949856" lon="10.735905706700036"><ele>71.0</ele><time>2026-04-19T13:01:24Z</time></trkpt><trkpt lat="43.495031206301" lon="10.735832213534822"><ele>71.0</ele><time>2026-04-19T13:01:25Z</time></trkpt><trkpt lat="43.49519877413215" lon="10.735763554444018"><ele>71.0</ele><time>2026-04-19T13:01:26Z</time></trkpt><trkpt lat="43.49536475566512" lon="10.735696755993528"><ele>71.0</ele><time>2026-04-19T13:01:27Z</time></trkpt><trkpt lat="43.495528884076094" lon="10.735624228773158"><ele>70.0</ele><time>2026-04-19T13:01:28Z</time></trkpt><trkpt lat="43.49568765573037" lon="10.735539576630448"><ele>69.0</ele><time>2026-04-19T13:01:29Z</time></trkpt><trkpt lat="43.49584196455418" lon="10.73544437936459"><ele>68.0</ele><time>2026-04-19T13:01:30Z</time></trkpt><trkpt lat="43.495991305211064" lon="10.73533572234619"><ele>67.66666666666667</ele><time>2026-04-19T13:01:31Z</time></trkpt><trkpt lat="43.49613557305818" lon="10.735216809883454"><ele>67.33333333333333</ele><time>2026-04-19T13:01:32Z</time></trkpt><trkpt lat="43.496276600559526" lon="10.735088566687393"><ele>67.0</ele><time>2026-04-19T13:01:33Z</time></trkpt><trkpt lat="43.49641386973337" lon="10.73495100265311"><ele>67.0</ele><time>2026-04-19T13:01:34Z</time></trkpt><trkpt lat="43.49654853487991" lon="10.73480684631365"><ele>67.0</ele><time>2026-04-19T13:01:35Z</time></trkpt><trkpt lat="43.49668267547069" lon="10.734658991708752"><ele>67.0</ele><time>2026-04-19T13:01:36Z</time></trkpt><trkpt lat="43.49681876935143" lon="10.734511486210648"><ele>66.66666666666666</ele><time>2026-04-19T13:01:37Z</time></trkpt><trkpt lat="43.496958731065575" lon="10.73436890577564"><ele>66.33333333333333</ele><time>2026-04-19T13:01:38Z</time></trkpt><trkpt lat="43.49710337232482" lon="10.734236989671539"><ele>66.0</ele><time>2026-04-19T13:01:39Z</time></trkpt><trkpt lat="43.49724976387826" lon="10.734112535915088"><ele>66.0</ele><time>2026-04-19T13:01:40Z</time></trkpt><trkpt lat="43.49739642840018" lon="10.73399923447392"><ele>66.0</ele><time>2026-04-19T13:01:41Z</time></trkpt><trkpt lat="43.49754590813337" lon="10.733890229038815"><ele>66.0</ele><time>2026-04-19T13:01:42Z</time></trkpt><trkpt lat="43.497698485519784" lon="10.733790402780679"><ele>66.0</ele><time>2026-04-19T13:01:43Z</time></trkpt><trkpt lat="43.49785316178829" lon="10.733698801614395"><ele>66.0</ele><time>2026-04-19T13:01:44Z</time></trkpt><trkpt lat="43.498007689073624" lon="10.733614374862674"><ele>66.0</ele><time>2026-04-19T13:01:45Z</time></trkpt><trkpt lat="43.498162803600614" lon="10.733536064651306"><ele>67.33333333333333</ele><time>2026-04-19T13:01:46Z</time></trkpt><trkpt lat="43.49831675830078" lon="10.733456268484165"><ele>68.66666666666666</ele><time>2026-04-19T13:01:47Z</time></trkpt><trkpt lat="43.498469556374445" lon="10.733377662968463"><ele>70.0</ele><time>2026-04-19T13:01:48Z</time></trkpt><trkpt lat="43.49862218707671" lon="10.733299509820409"><ele>69.33333333333333</ele><time>2026-04-19T13:01:49Z</time></trkpt><trkpt lat="43.49877471305407" lon="10.733223211053122"><ele>68.66666666666667</ele><time>2026-04-19T13:01:50Z</time></trkpt><trkpt lat="43.49892582983046" lon="10.733147029647023"><ele>68.0</ele><time>2026-04-19T13:01:51Z</time></trkpt><trkpt lat="43.49907482879405" lon="10.733073888102304"><ele>68.0</ele><time>2026-04-19T13:01:52Z</time></trkpt><trkpt lat="43.4992207618128" lon="10.733003914633608"><ele>68.0</ele><time>2026-04-19T13:01:53Z</time></trkpt><trkpt lat="43.49936127370018" lon="10.732932587820011"><ele>68.0</ele><time>2026-04-19T13:01:54Z</time></trkpt><trkpt lat="43.49949595230275" lon="10.732857881860925"><ele>68.0</ele><time>2026-04-19T13:01:55Z</time></trkpt><trkpt lat="43.499627945171824" lon="10.732769899285394"><ele>67.75</ele><time>2026-04-19T13:01:56Z</time></trkpt><trkpt lat="43.4997549253583" lon="10.732666403348151"><ele>67.5</ele><time>2026-04-19T13:01:57Z</time></trkpt><trkpt lat="43.499873135386395" lon="10.732544536343163"><ele>67.25</ele><time>2026-04-19T13:01:58Z</time></trkpt><trkpt lat="43.49997841414346" lon="10.73240261812563"><ele>67.0</ele><time>2026-04-19T13:01:59Z</time></trkpt><trkpt lat="43.50006866282542" lon="10.732243842812709"><ele>67.0</ele><time>2026-04-19T13:02:00Z</time></trkpt><trkpt lat="43.50014486373604" lon="10.732071769311426"><ele>67.0</ele><time>2026-04-19T13:02:01Z</time></trkpt><trkpt lat="43.500207547104054" lon="10.731888043769418"><ele>67.0</ele><time>2026-04-19T13:02:02Z</time></trkpt><trkpt lat="43.500252099592544" lon="10.731697506161979"><ele>67.0</ele><time>2026-04-19T13:02:03Z</time></trkpt><trkpt lat="43.50027626699484" lon="10.731497549330527"><ele>67.0</ele><time>2026-04-19T13:02:04Z</time></trkpt><trkpt lat="43.500287231127295" lon="10.73129529988693"><ele>67.0</ele><time>2026-04-19T13:02:05Z</time></trkpt><trkpt lat="43.50028535837759" lon="10.731093219074014"><ele>67.0</ele><time>2026-04-19T13:02:06Z</time></trkpt><trkpt lat="43.50027685452174" lon="10.730889335837432"><ele>67.0</ele><time>2026-04-19T13:02:07Z</time></trkpt><trkpt lat="43.5002661295148" lon="10.730686667488701"><ele>67.0</ele><time>2026-04-19T13:02:08Z</time></trkpt><trkpt lat="43.50025676621394" lon="10.730484058629694"><ele>67.0</ele><time>2026-04-19T13:02:09Z</time></trkpt><trkpt lat="43.500246640099604" lon="10.730282677308532"><ele>67.0</ele><time>2026-04-19T13:02:10Z</time></trkpt><trkpt lat="43.50023435252391" lon="10.730084392659391"><ele>67.0</ele><time>2026-04-19T13:02:11Z</time></trkpt><trkpt lat="43.50021737710934" lon="10.729890433552217"><ele>67.75</ele><time>2026-04-19T13:02:12Z</time></trkpt><trkpt lat="43.50019654956114" lon="10.729699187167233"><ele>68.5</ele><time>2026-04-19T13:02:12.999Z</time></trkpt><trkpt lat="43.500169102206655" lon="10.729511666557908"><ele>69.25</ele><time>2026-04-19T13:02:13.999Z</time></trkpt><trkpt lat="43.500134323793674" lon="10.729328138403773"><ele>70.0</ele><time>2026-04-19T13:02:14.999Z</time></trkpt><trkpt lat="43.50009515533822" lon="10.72914756822889"><ele>70.0</ele><time>2026-04-19T13:02:15.999Z</time></trkpt><trkpt lat="43.50005108103224" lon="10.728969070213909"><ele>70.0</ele><time>2026-04-19T13:02:16.999Z</time></trkpt><trkpt lat="43.50000443759761" lon="10.728792613300296"><ele>70.0</ele><time>2026-04-19T13:02:18Z</time></trkpt><trkpt lat="43.49995639730471" lon="10.728617743176633"><ele>70.0</ele><time>2026-04-19T13:02:18.999Z</time></trkpt><trkpt lat="43.49990632357934" lon="10.728444600280442"><ele>71.75</ele><time>2026-04-19T13:02:19.999Z</time></trkpt><trkpt lat="43.49985435816654" lon="10.728271507167634"><ele>73.5</ele><time>2026-04-19T13:02:21Z</time></trkpt><trkpt lat="43.49980070412149" lon="10.728101121888432"><ele>75.25</ele><time>2026-04-19T13:02:22Z</time></trkpt><trkpt lat="43.4997436880346" lon="10.727933942874154"><ele>77.0</ele><time>2026-04-19T13:02:23Z</time></trkpt><trkpt lat="43.49968668979875" lon="10.727768890847942"><ele>78.25</ele><time>2026-04-19T13:02:24Z</time></trkpt><trkpt lat="43.49962860708993" lon="10.727605789521366"><ele>79.5</ele><time>2026-04-19T13:02:25Z</time></trkpt><trkpt lat="43.49956838500046" lon="10.727445454121224"><ele>80.75</ele><time>2026-04-19T13:02:26Z</time></trkpt><trkpt lat="43.49950517931733" lon="10.727287549640588"><ele>82.0</ele><time>2026-04-19T13:02:27Z</time></trkpt><trkpt lat="43.499438698161505" lon="10.727129128517763"><ele>79.75</ele><time>2026-04-19T13:02:28Z</time></trkpt><trkpt lat="43.499370134619646" lon="10.726968688088586"><ele>77.5</ele><time>2026-04-19T13:02:29Z</time></trkpt><trkpt lat="43.49930164961785" lon="10.72680672191115"><ele>75.25</ele><time>2026-04-19T13:02:30Z</time></trkpt><trkpt lat="43.49923446833706" lon="10.726645874488966"><ele>73.0</ele><time>2026-04-19T13:02:31Z</time></trkpt><trkpt lat="43.49916897136361" lon="10.726486452120565"><ele>73.0</ele><time>2026-04-19T13:02:32Z</time></trkpt><trkpt lat="43.499102596161286" lon="10.726328760835248"><ele>73.0</ele><time>2026-04-19T13:02:33Z</time></trkpt><trkpt lat="43.49903658790781" lon="10.726173308074062"><ele>73.0</ele><time>2026-04-19T13:02:34Z</time></trkpt><trkpt lat="43.49897093551251" lon="10.726018166718518"><ele>73.0</ele><time>2026-04-19T13:02:35Z</time></trkpt><trkpt lat="43.49890547664529" lon="10.725864132018577"><ele>73.5</ele><time>2026-04-19T13:02:36Z</time></trkpt><trkpt lat="43.498839324321104" lon="10.725710395139437"><ele>74.0</ele><time>2026-04-19T13:02:37Z</time></trkpt><trkpt lat="43.49877311870093" lon="10.725558153770297"><ele>74.5</ele><time>2026-04-19T13:02:38Z</time></trkpt><trkpt lat="43.498706135590176" lon="10.72540748679685"><ele>75.0</ele><time>2026-04-19T13:02:39Z</time></trkpt><trkpt lat="43.498640775615286" lon="10.725257059507197"><ele>75.25</ele><time>2026-04-19T13:02:40Z</time></trkpt><trkpt lat="43.49858202748418" lon="10.725092242029012"><ele>75.5</ele><time>2026-04-19T13:02:41Z</time></trkpt><trkpt lat="43.49854956173008" lon="10.724929592386514"><ele>75.75</ele><time>2026-04-19T13:02:42Z</time></trkpt><trkpt lat="43.498532527837455" lon="10.724764105355097"><ele>76.0</ele><time>2026-04-19T13:02:43Z</time></trkpt><trkpt lat="43.498531432948575" lon="10.724597311563672"><ele>76.0</ele><time>2026-04-19T13:02:44Z</time></trkpt><trkpt lat="43.49853233070558" lon="10.724425170916016"><ele>76.0</ele><time>2026-04-19T13:02:45Z</time></trkpt><trkpt lat="43.498539176293576" lon="10.724251367608364"><ele>76.0</ele><time>2026-04-19T13:02:46Z</time></trkpt><trkpt lat="43.49854751935588" lon="10.72407316087174"><ele>76.0</ele><time>2026-04-19T13:02:47Z</time></trkpt><trkpt lat="43.49856593226317" lon="10.723894799332848"><ele>75.25</ele><time>2026-04-19T13:02:48Z</time></trkpt><trkpt lat="43.498605762212726" lon="10.723721162939235"><ele>74.5</ele><time>2026-04-19T13:02:49Z</time></trkpt><trkpt lat="43.49864405776987" lon="10.723549716091448"><ele>73.75</ele><time>2026-04-19T13:02:50Z</time></trkpt><trkpt lat="43.49868062732333" lon="10.723377467368739"><ele>73.0</ele><time>2026-04-19T13:02:51Z</time></trkpt><trkpt lat="43.49871638253116" lon="10.723204323127346"><ele>71.75</ele><time>2026-04-19T13:02:52Z</time></trkpt><trkpt lat="43.49875249515638" lon="10.723029251799156"><ele>70.5</ele><time>2026-04-19T13:02:53Z</time></trkpt><trkpt lat="43.49878865217966" lon="10.722849866808511"><ele>69.25</ele><time>2026-04-19T13:02:54Z</time></trkpt><trkpt lat="43.498826545870656" lon="10.722667674512843"><ele>68.0</ele><time>2026-04-19T13:02:55Z</time></trkpt><trkpt lat="43.498865569870546" lon="10.722489323493653"><ele>68.0</ele><time>2026-04-19T13:02:56Z</time></trkpt><trkpt lat="43.498895066778886" lon="10.722309102161509"><ele>68.0</ele><time>2026-04-19T13:02:57Z</time></trkpt><trkpt lat="43.49893071596591" lon="10.722133232300884"><ele>68.0</ele><time>2026-04-19T13:02:58Z</time></trkpt><trkpt lat="43.49896534919075" lon="10.721977320839363"><ele>68.0</ele><time>2026-04-19T13:02:59Z</time></trkpt><trkpt lat="43.4989972777855" lon="10.721844549239586"><ele>68.33333333333334</ele><time>2026-04-19T13:03:00Z</time></trkpt><trkpt lat="43.499024025890115" lon="10.72174488139939"><ele>68.66666666666667</ele><time>2026-04-19T13:03:01Z</time></trkpt><trkpt lat="43.499069086932415" lon="10.721662529425384"><ele>69.0</ele><time>2026-04-19T13:03:02Z</time></trkpt><trkpt lat="43.499134249542315" lon="10.721597158900165"><ele>69.33333333333333</ele><time>2026-04-19T13:03:03Z</time></trkpt><trkpt lat="43.49920424216447" lon="10.721533998384503"><ele>69.66666666666666</ele><time>2026-04-19T13:03:04Z</time></trkpt><trkpt lat="43.4992489605741" lon="10.721455161014013"><ele>70.0</ele><time>2026-04-19T13:03:05Z</time></trkpt><trkpt lat="43.499255846840065" lon="10.721366421918002"><ele>70.0</ele><time>2026-04-19T13:03:06Z</time></trkpt><trkpt lat="43.49920180516225" lon="10.721214611873792"><ele>70.0</ele><time>2026-04-19T13:03:08Z</time></trkpt><trkpt lat="43.499150967479196" lon="10.721157451793216"><ele>70.0</ele><time>2026-04-19T13:03:09Z</time></trkpt><trkpt lat="43.49907940612395" lon="10.721126037163826"><ele>70.0</ele><time>2026-04-19T13:03:10Z</time></trkpt><trkpt lat="43.49904531319569" lon="10.721004834661626"><ele>70.0</ele><time>2026-04-19T13:03:11Z</time></trkpt><trkpt lat="43.499009616448255" lon="10.720891803077217"><ele>70.0</ele><time>2026-04-19T13:03:12Z</time></trkpt><trkpt lat="43.49899056583341" lon="10.720751175887596"><ele>69.4</ele><time>2026-04-19T13:03:13Z</time></trkpt><trkpt lat="43.498973882217506" lon="10.720615140085965"><ele>68.8</ele><time>2026-04-19T13:03:14Z</time></trkpt><trkpt lat="43.49896170357076" lon="10.720467495990839"><ele>68.2</ele><time>2026-04-19T13:03:15Z</time></trkpt><trkpt lat="43.49894719998197" lon="10.72032009657767"><ele>67.6</ele><time>2026-04-19T13:03:16Z</time></trkpt><trkpt lat="43.49893184939694" lon="10.72015916848526"><ele>67.0</ele><time>2026-04-19T13:03:17Z</time></trkpt><trkpt lat="43.498920236745725" lon="10.719991039206361"><ele>67.0</ele><time>2026-04-19T13:03:18Z</time></trkpt><trkpt lat="43.498905389199685" lon="10.719820801787879"><ele>67.0</ele><time>2026-04-19T13:03:19Z</time></trkpt><trkpt lat="43.49889229303847" lon="10.719653652182062"><ele>67.0</ele><time>2026-04-19T13:03:20Z</time></trkpt><trkpt lat="43.49887962153981" lon="10.719476008368236"><ele>67.0</ele><time>2026-04-19T13:03:21Z</time></trkpt><trkpt lat="43.498868935927085" lon="10.719286826184216"><ele>67.0</ele><time>2026-04-19T13:03:22Z</time></trkpt><trkpt lat="43.49885790306135" lon="10.71909198736067"><ele>67.0</ele><time>2026-04-19T13:03:23Z</time></trkpt><trkpt lat="43.498845568071786" lon="10.718896077184489"><ele>67.0</ele><time>2026-04-19T13:03:24Z</time></trkpt><trkpt lat="43.49882993981135" lon="10.718695319380954"><ele>67.0</ele><time>2026-04-19T13:03:25Z</time></trkpt><trkpt lat="43.49881097065034" lon="10.718487363496081"><ele>67.0</ele><time>2026-04-19T13:03:26Z</time></trkpt><trkpt lat="43.4987861058722" lon="10.718271637580537"><ele>67.0</ele><time>2026-04-19T13:03:27Z</time></trkpt><trkpt lat="43.49874661085328" lon="10.718053483982322"><ele>67.0</ele><time>2026-04-19T13:03:28Z</time></trkpt><trkpt lat="43.49868389950306" lon="10.717837344127403"><ele>69.0</ele><time>2026-04-19T13:03:29Z</time></trkpt><trkpt lat="43.498602125977634" lon="10.71762873993807"><ele>71.0</ele><time>2026-04-19T13:03:30Z</time></trkpt><trkpt lat="43.49850276203462" lon="10.717427308872793"><ele>73.0</ele><time>2026-04-19T13:03:31Z</time></trkpt><trkpt lat="43.49838343825335" lon="10.717236942680993"><ele>73.0</ele><time>2026-04-19T13:03:32Z</time></trkpt><trkpt lat="43.49824512595236" lon="10.717062373087092"><ele>73.0</ele><time>2026-04-19T13:03:33Z</time></trkpt><trkpt lat="43.49811746702404" lon="10.716868023196309"><ele>73.0</ele><time>2026-04-19T13:03:34Z</time></trkpt><trkpt lat="43.49797584423117" lon="10.716683726328123"><ele>73.33333333333333</ele><time>2026-04-19T13:03:35Z</time></trkpt><trkpt lat="43.49782864199255" lon="10.716497443551692"><ele>73.66666666666667</ele><time>2026-04-19T13:03:36Z</time></trkpt><trkpt lat="43.49767434824542" lon="10.71631854712003"><ele>74.0</ele><time>2026-04-19T13:03:37Z</time></trkpt><trkpt lat="43.49751275792872" lon="10.716162972333617"><ele>75.0</ele><time>2026-04-19T13:03:38Z</time></trkpt><trkpt lat="43.49734491741841" lon="10.71604151150983"><ele>76.0</ele><time>2026-04-19T13:03:39Z</time></trkpt><trkpt lat="43.49718835002776" lon="10.71590447312953"><ele>77.0</ele><time>2026-04-19T13:03:40Z</time></trkpt><trkpt lat="43.49703140901978" lon="10.715771323027063"><ele>77.0</ele><time>2026-04-19T13:03:41Z</time></trkpt><trkpt lat="43.49687655407618" lon="10.715637013541393"><ele>77.0</ele><time>2026-04-19T13:03:42Z</time></trkpt><trkpt lat="43.49672164952142" lon="10.715503087846793"><ele>77.0</ele><time>2026-04-19T13:03:43Z</time></trkpt><trkpt lat="43.49656695499021" lon="10.715371337679043"><ele>77.0</ele><time>2026-04-19T13:03:44Z</time></trkpt><trkpt lat="43.49641354518074" lon="10.715238749050409"><ele>77.0</ele><time>2026-04-19T13:03:45Z</time></trkpt><trkpt lat="43.49626103474165" lon="10.715107678803843"><ele>77.0</ele><time>2026-04-19T13:03:46Z</time></trkpt><trkpt lat="43.496109205607034" lon="10.714976975561447"><ele>76.0</ele><time>2026-04-19T13:03:47Z</time></trkpt><trkpt lat="43.49595730108149" lon="10.71485162435342"><ele>75.0</ele><time>2026-04-19T13:03:48Z</time></trkpt><trkpt lat="43.49580296880294" lon="10.714735101048278"><ele>74.0</ele><time>2026-04-19T13:03:49Z</time></trkpt><trkpt lat="43.49564281459377" lon="10.714630259520249"><ele>74.0</ele><time>2026-04-19T13:03:50Z</time></trkpt><trkpt lat="43.49548070271508" lon="10.714519347086872"><ele>74.0</ele><time>2026-04-19T13:03:51Z</time></trkpt><trkpt lat="43.49530042350305" lon="10.714468765007796"><ele>74.0</ele><time>2026-04-19T13:03:52Z</time></trkpt><trkpt lat="43.49512447618129" lon="10.714400088835689"><ele>74.66666666666667</ele><time>2026-04-19T13:03:53Z</time></trkpt><trkpt lat="43.494945773826174" lon="10.714339444234241"><ele>75.33333333333333</ele><time>2026-04-19T13:03:54Z</time></trkpt><trkpt lat="43.49476503021522" lon="10.714284405154654"><ele>76.0</ele><time>2026-04-19T13:03:55Z</time></trkpt><trkpt lat="43.494584437343725" lon="10.714231755573135"><ele>76.0</ele><time>2026-04-19T13:03:56Z</time></trkpt><trkpt lat="43.49440553868102" lon="10.71417320751674"><ele>76.0</ele><time>2026-04-19T13:03:57Z</time></trkpt><trkpt lat="43.49422768676859" lon="10.714103757379341"><ele>76.0</ele><time>2026-04-19T13:03:58Z</time></trkpt><trkpt lat="43.49405171031855" lon="10.714020369764727"><ele>76.0</ele><time>2026-04-19T13:03:59Z</time></trkpt><trkpt lat="43.49387780907398" lon="10.71392287743139"><ele>76.0</ele><time>2026-04-19T13:04:00Z</time></trkpt><trkpt lat="43.49370732326843" lon="10.713808467337397"><ele>76.0</ele><time>2026-04-19T13:04:01Z</time></trkpt><trkpt lat="43.49354700236293" lon="10.713671843835295"><ele>77.66666666666666</ele><time>2026-04-19T13:04:02Z</time></trkpt><trkpt lat="43.49339106054039" lon="10.71352104125615"><ele>79.33333333333333</ele><time>2026-04-19T13:04:03Z</time></trkpt><trkpt lat="43.493235901751135" lon="10.713367358033452"><ele>81.0</ele><time>2026-04-19T13:04:04Z</time></trkpt><trkpt lat="43.49308212817572" lon="10.713212359761691"><ele>81.0</ele><time>2026-04-19T13:04:05Z</time></trkpt><trkpt lat="43.49293038772826" lon="10.713058271997896"><ele>81.0</ele><time>2026-04-19T13:04:06Z</time></trkpt><trkpt lat="43.49278065036172" lon="10.712906794667017"><ele>81.0</ele><time>2026-04-19T13:04:07Z</time></trkpt><trkpt lat="43.492636739133026" lon="10.712755429317246"><ele>81.33333333333333</ele><time>2026-04-19T13:04:08Z</time></trkpt><trkpt lat="43.49250371454696" lon="10.712599258954727"><ele>81.66666666666666</ele><time>2026-04-19T13:04:09Z</time></trkpt><trkpt lat="43.49238242381386" lon="10.712437541647525"><ele>82.0</ele><time>2026-04-19T13:04:10Z</time></trkpt><trkpt lat="43.49227649257685" lon="10.712265696462486"><ele>82.0</ele><time>2026-04-19T13:04:11Z</time></trkpt><trkpt lat="43.49218295968948" lon="10.712088811472576"><ele>82.0</ele><time>2026-04-19T13:04:12Z</time></trkpt><trkpt lat="43.49209234690301" lon="10.711906265192003"><ele>82.0</ele><time>2026-04-19T13:04:13Z</time></trkpt><trkpt lat="43.49200046119112" lon="10.711717728804821"><ele>80.66666666666666</ele><time>2026-04-19T13:04:14Z</time></trkpt><trkpt lat="43.49190494325798" lon="10.711525163470245"><ele>79.33333333333333</ele><time>2026-04-19T13:04:15Z</time></trkpt><trkpt lat="43.49180760279784" lon="10.711326561321282"><ele>78.0</ele><time>2026-04-19T13:04:16Z</time></trkpt><trkpt lat="43.491708140562565" lon="10.71112245964802"><ele>79.0</ele><time>2026-04-19T13:04:17Z</time></trkpt><trkpt lat="43.49160934966405" lon="10.710918212580657"><ele>80.0</ele><time>2026-04-19T13:04:18Z</time></trkpt><trkpt lat="43.49151166203988" lon="10.710721593352833"><ele>81.0</ele><time>2026-04-19T13:04:19Z</time></trkpt><trkpt lat="43.49141753601302" lon="10.71054206758625"><ele>81.0</ele><time>2026-04-19T13:04:20Z</time></trkpt><trkpt lat="43.4913226469544" lon="10.710382315482901"><ele>81.0</ele><time>2026-04-19T13:04:21Z</time></trkpt><trkpt lat="43.49122061659843" lon="10.710231124762284"><ele>81.0</ele><time>2026-04-19T13:04:22Z</time></trkpt><trkpt lat="43.49110954228776" lon="10.710089828867728"><ele>80.75</ele><time>2026-04-19T13:04:23Z</time></trkpt><trkpt lat="43.49098710002645" lon="10.709966226824283"><ele>80.5</ele><time>2026-04-19T13:04:24Z</time></trkpt><trkpt lat="43.490863298419576" lon="10.709849054352938"><ele>80.25</ele><time>2026-04-19T13:04:25Z</time></trkpt><trkpt lat="43.49074410979432" lon="10.709739840342236"><ele>80.0</ele><time>2026-04-19T13:04:26Z</time></trkpt><trkpt lat="43.490629894086034" lon="10.70964311230254"><ele>80.0</ele><time>2026-04-19T13:04:27Z</time></trkpt><trkpt lat="43.490521011458945" lon="10.709555725564055"><ele>80.0</ele><time>2026-04-19T13:04:28Z</time></trkpt><trkpt lat="43.490417417315754" lon="10.709470669564276"><ele>80.0</ele><time>2026-04-19T13:04:29Z</time></trkpt><trkpt lat="43.49032539286265" lon="10.709381835570584"><ele>80.0</ele><time>2026-04-19T13:04:30Z</time></trkpt><trkpt lat="43.490248827973694" lon="10.709293175730938"><ele>80.6</ele><time>2026-04-19T13:04:31Z</time></trkpt><trkpt lat="43.49018929573277" lon="10.709210327175063"><ele>81.2</ele><time>2026-04-19T13:04:32Z</time></trkpt><trkpt lat="43.49013879117652" lon="10.709138113160925"><ele>81.80000000000001</ele><time>2026-04-19T13:04:33Z</time></trkpt><trkpt lat="43.49008983436223" lon="10.7090791966285"><ele>82.4</ele><time>2026-04-19T13:04:34Z</time></trkpt><trkpt lat="43.489991536642734" lon="10.70899975574108"><ele>83.0</ele><time>2026-04-19T13:04:36Z</time></trkpt><trkpt lat="43.4898836311571" lon="10.708915651955182"><ele>83.0</ele><time>2026-04-19T13:04:38Z</time></trkpt><trkpt lat="43.48982464554993" lon="10.708865196715799"><ele>83.0</ele><time>2026-04-19T13:04:39Z</time></trkpt><trkpt lat="43.48978460348726" lon="10.70877761038287"><ele>83.0</ele><time>2026-04-19T13:04:40Z</time></trkpt><trkpt lat="43.48974379003308" lon="10.708704470492663"><ele>83.0</ele><time>2026-04-19T13:04:41Z</time></trkpt><trkpt lat="43.489707344224314" lon="10.708535595957088"><ele>83.0</ele><time>2026-04-19T13:04:43Z</time></trkpt><trkpt lat="43.48970315107685" lon="10.708362078042146"><ele>84.33333333333334</ele><time>2026-04-19T13:04:45Z</time></trkpt><trkpt lat="43.4897298372147" lon="10.708197214818428"><ele>85.66666666666667</ele><time>2026-04-19T13:04:47Z</time></trkpt><trkpt lat="43.48977610715577" lon="10.708036349062787"><ele>87.0</ele><time>2026-04-19T13:04:49Z</time></trkpt><trkpt lat="43.48980861029403" lon="10.707959036447605"><ele>88.33333333333333</ele><time>2026-04-19T13:04:50Z</time></trkpt><trkpt lat="43.48984443315563" lon="10.707880361392862"><ele>89.66666666666666</ele><time>2026-04-19T13:04:51Z</time></trkpt><trkpt lat="43.489879822512506" lon="10.707802638517377"><ele>91.0</ele><time>2026-04-19T13:04:52Z</time></trkpt><trkpt lat="43.48991817882743" lon="10.707722377513356"><ele>91.28571428571429</ele><time>2026-04-19T13:04:53Z</time></trkpt><trkpt lat="43.48996001000702" lon="10.707635434288925"><ele>91.57142857142857</ele><time>2026-04-19T13:04:54Z</time></trkpt><trkpt lat="43.49000128214993" lon="10.707548454704705"><ele>91.85714285714286</ele><time>2026-04-19T13:04:55Z</time></trkpt><trkpt lat="43.490039444128094" lon="10.707464456997469"><ele>92.14285714285714</ele><time>2026-04-19T13:04:56Z</time></trkpt><trkpt lat="43.49007587330637" lon="10.707384273289753"><ele>92.42857142857143</ele><time>2026-04-19T13:04:57Z</time></trkpt><trkpt lat="43.49011108544764" lon="10.707306243111885"><ele>92.71428571428572</ele><time>2026-04-19T13:04:58Z</time></trkpt><trkpt lat="43.4901444872652" lon="10.70723013007744"><ele>93.0</ele><time>2026-04-19T13:04:59Z</time></trkpt><trkpt lat="43.49017675940936" lon="10.707154585333928"><ele>93.0</ele><time>2026-04-19T13:05:00Z</time></trkpt><trkpt lat="43.49024558542507" lon="10.707016284598856"><ele>93.0</ele><time>2026-04-19T13:05:02Z</time></trkpt><trkpt lat="43.490334591122185" lon="10.70688799527713"><ele>93.0</ele><time>2026-04-19T13:05:04Z</time></trkpt><trkpt lat="43.490385300528445" lon="10.70681734961166"><ele>93.0</ele><time>2026-04-19T13:05:05Z</time></trkpt><trkpt lat="43.49043643811044" lon="10.70674441117435"><ele>93.0</ele><time>2026-04-19T13:05:06Z</time></trkpt><trkpt lat="43.49049031465541" lon="10.706667139984317"><ele>94.0</ele><time>2026-04-19T13:05:07Z</time></trkpt><trkpt lat="43.49054088340376" lon="10.706572454072216"><ele>95.0</ele><time>2026-04-19T13:05:08Z</time></trkpt><trkpt lat="43.490583229151326" lon="10.706468548998693"><ele>96.0</ele><time>2026-04-19T13:05:09Z</time></trkpt><trkpt lat="43.490620266144525" lon="10.706365278237778"><ele>97.0</ele><time>2026-04-19T13:05:10Z</time></trkpt><trkpt lat="43.490654859211936" lon="10.706260033061664"><ele>98.0</ele><time>2026-04-19T13:05:11Z</time></trkpt><trkpt lat="43.490687092332884" lon="10.706150006098778"><ele>99.0</ele><time>2026-04-19T13:05:12Z</time></trkpt><trkpt lat="43.490717012228316" lon="10.70604211964154"><ele>99.33333333333333</ele><time>2026-04-19T13:05:13Z</time></trkpt><trkpt lat="43.49074627802223" lon="10.705934673756841"><ele>99.66666666666666</ele><time>2026-04-19T13:05:14Z</time></trkpt><trkpt lat="43.490774686777605" lon="10.705827198363215"><ele>100.0</ele><time>2026-04-19T13:05:15Z</time></trkpt><trkpt lat="43.49080429726606" lon="10.70571517633181"><ele>100.33333333333333</ele><time>2026-04-19T13:05:16Z</time></trkpt><trkpt lat="43.49083311207746" lon="10.705606576506803"><ele>100.66666666666666</ele><time>2026-04-19T13:05:17Z</time></trkpt><trkpt lat="43.49086220632046" lon="10.705499370357963"><ele>101.0</ele><time>2026-04-19T13:05:18Z</time></trkpt><trkpt lat="43.49089163791207" lon="10.705390921271995"><ele>100.99999999999999</ele><time>2026-04-19T13:05:19Z</time></trkpt><trkpt lat="43.49092120874001" lon="10.705281959279114"><ele>101.0</ele><time>2026-04-19T13:05:20Z</time></trkpt><trkpt lat="43.49095131982619" lon="10.705171572525577"><ele>101.0</ele><time>2026-04-19T13:05:21Z</time></trkpt><trkpt lat="43.49098188834945" lon="10.705059749907765"><ele>101.0</ele><time>2026-04-19T13:05:22Z</time></trkpt><trkpt lat="43.491012752455404" lon="10.704946845831415"><ele>100.99999999999999</ele><time>2026-04-19T13:05:23Z</time></trkpt><trkpt lat="43.49104453406704" lon="10.704829733930987"><ele>101.0</ele><time>2026-04-19T13:05:24Z</time></trkpt><trkpt lat="43.49107654187421" lon="10.704710586301493"><ele>101.4</ele><time>2026-04-19T13:05:25Z</time></trkpt><trkpt lat="43.49110930351724" lon="10.704588632590633"><ele>101.8</ele><time>2026-04-19T13:05:26Z</time></trkpt><trkpt lat="43.49114262693424" lon="10.704464587757048"><ele>102.2</ele><time>2026-04-19T13:05:27Z</time></trkpt><trkpt lat="43.491177138188846" lon="10.704338955177992"><ele>102.60000000000001</ele><time>2026-04-19T13:05:28Z</time></trkpt><trkpt lat="43.491212222828324" lon="10.704212308081821"><ele>103.0</ele><time>2026-04-19T13:05:29Z</time></trkpt><trkpt lat="43.49124782333893" lon="10.7040837989256"><ele>103.60000000000001</ele><time>2026-04-19T13:05:30Z</time></trkpt><trkpt lat="43.491283322807114" lon="10.70395461644591"><ele>104.2</ele><time>2026-04-19T13:05:31Z</time></trkpt><trkpt lat="43.49131856011497" lon="10.70382520728917"><ele>104.8</ele><time>2026-04-19T13:05:32Z</time></trkpt><trkpt lat="43.49135431689537" lon="10.703693890354742"><ele>105.4</ele><time>2026-04-19T13:05:33Z</time></trkpt><trkpt lat="43.4913899044924" lon="10.703563194713887"><ele>106.0</ele><time>2026-04-19T13:05:34Z</time></trkpt><trkpt lat="43.49142199142024" lon="10.703445355371972"><ele>106.83333333333334</ele><time>2026-04-19T13:05:35Z</time></trkpt><trkpt lat="43.49145407803592" lon="10.703331636527974"><ele>107.66666666666667</ele><time>2026-04-19T13:05:36Z</time></trkpt><trkpt lat="43.49148830627694" lon="10.703216456783187"><ele>108.5</ele><time>2026-04-19T13:05:37Z</time></trkpt><trkpt lat="43.49152527702385" lon="10.703104018567117"><ele>109.33333333333334</ele><time>2026-04-19T13:05:38Z</time></trkpt><trkpt lat="43.491565238729976" lon="10.702993632086233"><ele>110.16666666666667</ele><time>2026-04-19T13:05:39Z</time></trkpt><trkpt lat="43.49160567880239" lon="10.702883004927575"><ele>111.0</ele><time>2026-04-19T13:05:40Z</time></trkpt><trkpt lat="43.491643794486954" lon="10.702784822246596"><ele>111.6</ele><time>2026-04-19T13:05:41Z</time></trkpt><trkpt lat="43.491686776293285" lon="10.702683239166005"><ele>112.19999999999999</ele><time>2026-04-19T13:05:42Z</time></trkpt><trkpt lat="43.491731184336416" lon="10.702574677447716"><ele>112.80000000000001</ele><time>2026-04-19T13:05:43Z</time></trkpt><trkpt lat="43.49177645604755" lon="10.702460141466917"><ele>113.4</ele><time>2026-04-19T13:05:44Z</time></trkpt><trkpt lat="43.49182366753736" lon="10.70233955219054"><ele>114.0</ele><time>2026-04-19T13:05:45Z</time></trkpt><trkpt lat="43.49186747082312" lon="10.702220288793576"><ele>114.0</ele><time>2026-04-19T13:05:46Z</time></trkpt><trkpt lat="43.49190904139311" lon="10.702098654538"><ele>114.0</ele><time>2026-04-19T13:05:47Z</time></trkpt><trkpt lat="43.49194636886516" lon="10.701975950212129"><ele>114.0</ele><time>2026-04-19T13:05:48Z</time></trkpt><trkpt lat="43.49198242460663" lon="10.7018530359385"><ele>114.0</ele><time>2026-04-19T13:05:49Z</time></trkpt><trkpt lat="43.492001621042505" lon="10.701723320451327"><ele>114.0</ele><time>2026-04-19T13:05:50Z</time></trkpt><trkpt lat="43.49203461535761" lon="10.701603565523133"><ele>114.33333333333333</ele><time>2026-04-19T13:05:51Z</time></trkpt><trkpt lat="43.4920649868878" lon="10.701486047711153"><ele>114.66666666666666</ele><time>2026-04-19T13:05:52Z</time></trkpt><trkpt lat="43.49209391245371" lon="10.701371233522176"><ele>115.0</ele><time>2026-04-19T13:05:53Z</time></trkpt><trkpt lat="43.492117547543394" lon="10.70125665852166"><ele>115.33333333333333</ele><time>2026-04-19T13:05:54Z</time></trkpt><trkpt lat="43.492132389953426" lon="10.70113989067952"><ele>115.66666666666666</ele><time>2026-04-19T13:05:55Z</time></trkpt><trkpt lat="43.49214110125615" lon="10.701019646173025"><ele>116.0</ele><time>2026-04-19T13:05:56Z</time></trkpt><trkpt lat="43.492143899336945" lon="10.700895861153551"><ele>116.4</ele><time>2026-04-19T13:05:57Z</time></trkpt><trkpt lat="43.49214545697183" lon="10.700768762142342"><ele>116.8</ele><time>2026-04-19T13:05:58Z</time></trkpt><trkpt lat="43.49214471416236" lon="10.70063592868269"><ele>117.20000000000002</ele><time>2026-04-19T13:05:59Z</time></trkpt><trkpt lat="43.492140749622266" lon="10.700500060164112"><ele>117.60000000000001</ele><time>2026-04-19T13:06:00Z</time></trkpt><trkpt lat="43.49213400244378" lon="10.700359636584913"><ele>118.0</ele><time>2026-04-19T13:06:01Z</time></trkpt><trkpt lat="43.49214737249342" lon="10.700218483848092"><ele>118.80000000000001</ele><time>2026-04-19T13:06:02Z</time></trkpt><trkpt lat="43.49215378396314" lon="10.700080648257066"><ele>119.60000000000001</ele><time>2026-04-19T13:06:03Z</time></trkpt><trkpt lat="43.49216553445421" lon="10.699947564658988"><ele>120.39999999999999</ele><time>2026-04-19T13:06:04Z</time></trkpt><trkpt lat="43.49217560282481" lon="10.699812159989946"><ele>121.19999999999999</ele><time>2026-04-19T13:06:05Z</time></trkpt><trkpt lat="43.49222645380384" lon="10.699697585017272"><ele>122.0</ele><time>2026-04-19T13:06:06Z</time></trkpt><trkpt lat="43.4922672503006" lon="10.699587199573475"><ele>121.99999999999999</ele><time>2026-04-19T13:06:07Z</time></trkpt><trkpt lat="43.492312822282855" lon="10.699498850697408"><ele>122.0</ele><time>2026-04-19T13:06:08Z</time></trkpt><trkpt lat="43.492356340907925" lon="10.699413492818008"><ele>121.99999999999999</ele><time>2026-04-19T13:06:09Z</time></trkpt><trkpt lat="43.49239027116513" lon="10.69932834976554"><ele>121.99999999999999</ele><time>2026-04-19T13:06:10Z</time></trkpt><trkpt lat="43.492399063689874" lon="10.69923234111766"><ele>122.0</ele><time>2026-04-19T13:06:11Z</time></trkpt><trkpt lat="43.49241209305467" lon="10.69913926754412"><ele>121.99999999999999</ele><time>2026-04-19T13:06:12Z</time></trkpt><trkpt lat="43.49243818877341" lon="10.699042162440751"><ele>121.99999999999999</ele><time>2026-04-19T13:06:13Z</time></trkpt><trkpt lat="43.49244719333073" lon="10.69893665311677"><ele>122.83333333333333</ele><time>2026-04-19T13:06:14Z</time></trkpt><trkpt lat="43.49245424867828" lon="10.698825196237452"><ele>123.66666666666666</ele><time>2026-04-19T13:06:15Z</time></trkpt><trkpt lat="43.49246736908599" lon="10.698713105364261"><ele>124.5</ele><time>2026-04-19T13:06:16Z</time></trkpt><trkpt lat="43.49247380168832" lon="10.69860215321541"><ele>125.33333333333334</ele><time>2026-04-19T13:06:17Z</time></trkpt><trkpt lat="43.492500727060744" lon="10.69849841914045"><ele>126.16666666666667</ele><time>2026-04-19T13:06:18Z</time></trkpt><trkpt lat="43.492541535512984" lon="10.69839880864367"><ele>127.0</ele><time>2026-04-19T13:06:19Z</time></trkpt><trkpt lat="43.49256987720289" lon="10.698288753871068"><ele>127.66666666666667</ele><time>2026-04-19T13:06:20Z</time></trkpt><trkpt lat="43.49259806307245" lon="10.698179007418494"><ele>128.33333333333334</ele><time>2026-04-19T13:06:21Z</time></trkpt><trkpt lat="43.492612978562235" lon="10.698061464353652"><ele>129.0</ele><time>2026-04-19T13:06:22Z</time></trkpt><trkpt lat="43.49264511334637" lon="10.697950273596918"><ele>129.66666666666666</ele><time>2026-04-19T13:06:23Z</time></trkpt><trkpt lat="43.49267884609412" lon="10.697836645001283"><ele>130.33333333333331</ele><time>2026-04-19T13:06:24Z</time></trkpt><trkpt lat="43.49271450138024" lon="10.69772225237035"><ele>131.0</ele><time>2026-04-19T13:06:25Z</time></trkpt><trkpt lat="43.492751790177046" lon="10.69760673992893"><ele>130.8</ele><time>2026-04-19T13:06:26Z</time></trkpt><trkpt lat="43.49279388958081" lon="10.697491937646326"><ele>130.6</ele><time>2026-04-19T13:06:27Z</time></trkpt><trkpt lat="43.49284606483023" lon="10.697385292576387"><ele>130.4</ele><time>2026-04-19T13:06:28Z</time></trkpt><trkpt lat="43.4929203573897" lon="10.697306866861163"><ele>130.2</ele><time>2026-04-19T13:06:29Z</time></trkpt><trkpt lat="43.49298210469793" lon="10.697215392525798"><ele>130.0</ele><time>2026-04-19T13:06:30Z</time></trkpt><trkpt lat="43.493054962806944" lon="10.697149288364571"><ele>130.0</ele><time>2026-04-19T13:06:31Z</time></trkpt><trkpt lat="43.49311882304396" lon="10.697079189414657"><ele>130.0</ele><time>2026-04-19T13:06:32Z</time></trkpt><trkpt lat="43.49317653722247" lon="10.697012589377705"><ele>130.0</ele><time>2026-04-19T13:06:33Z</time></trkpt><trkpt lat="43.49323289834075" lon="10.696954683658863"><ele>130.0</ele><time>2026-04-19T13:06:34Z</time></trkpt><trkpt lat="43.49328993718826" lon="10.696893012128195"><ele>130.0</ele><time>2026-04-19T13:06:35Z</time></trkpt><trkpt lat="43.49335293247302" lon="10.6968371146825"><ele>130.0</ele><time>2026-04-19T13:06:36Z</time></trkpt><trkpt lat="43.49341371263119" lon="10.696775587577724"><ele>130.5</ele><time>2026-04-19T13:06:37Z</time></trkpt><trkpt lat="43.49347347416398" lon="10.696713112379305"><ele>131.0</ele><time>2026-04-19T13:06:38Z</time></trkpt><trkpt lat="43.493533120567484" lon="10.696651495707224"><ele>131.5</ele><time>2026-04-19T13:06:39Z</time></trkpt><trkpt lat="43.49359508258871" lon="10.696588910940157"><ele>132.0</ele><time>2026-04-19T13:06:40Z</time></trkpt><trkpt lat="43.493670102171535" lon="10.696542539463625"><ele>132.5</ele><time>2026-04-19T13:06:41Z</time></trkpt><trkpt lat="43.49373765813819" lon="10.696474711170431"><ele>133.0</ele><time>2026-04-19T13:06:42Z</time></trkpt><trkpt lat="43.49380797719208" lon="10.696402604014368"><ele>133.0</ele><time>2026-04-19T13:06:43Z</time></trkpt><trkpt lat="43.49388158659668" lon="10.696327123015202"><ele>133.0</ele><time>2026-04-19T13:06:44Z</time></trkpt><trkpt lat="43.493956533810014" lon="10.696250270417359"><ele>133.0</ele><time>2026-04-19T13:06:45Z</time></trkpt><trkpt lat="43.494032038404434" lon="10.696172846046737"><ele>133.0</ele><time>2026-04-19T13:06:46Z</time></trkpt><trkpt lat="43.49410683118661" lon="10.696096151626618"><ele>133.0</ele><time>2026-04-19T13:06:47Z</time></trkpt><trkpt lat="43.49418136555984" lon="10.696019722235295"><ele>133.5</ele><time>2026-04-19T13:06:48Z</time></trkpt><trkpt lat="43.49425410946726" lon="10.695945128916774"><ele>134.0</ele><time>2026-04-19T13:06:49Z</time></trkpt><trkpt lat="43.49432589738613" lon="10.695872345555097"><ele>134.5</ele><time>2026-04-19T13:06:50Z</time></trkpt><trkpt lat="43.494396305053925" lon="10.695801154140288"><ele>135.0</ele><time>2026-04-19T13:06:51Z</time></trkpt><trkpt lat="43.49446441059781" lon="10.695732290245429"><ele>135.5</ele><time>2026-04-19T13:06:52Z</time></trkpt><trkpt lat="43.49452632043596" lon="10.695669675043273"><ele>136.0</ele><time>2026-04-19T13:06:53Z</time></trkpt><trkpt lat="43.49458322899866" lon="10.695612097020906"><ele>136.42857142857142</ele><time>2026-04-19T13:06:54Z</time></trkpt><trkpt lat="43.494638730396765" lon="10.69555594278338"><ele>136.85714285714286</ele><time>2026-04-19T13:06:55Z</time></trkpt><trkpt lat="43.49469483284719" lon="10.695499180097247"><ele>137.28571428571428</ele><time>2026-04-19T13:06:56Z</time></trkpt><trkpt lat="43.49475192678222" lon="10.695441414502069"><ele>137.71428571428572</ele><time>2026-04-19T13:06:57Z</time></trkpt><trkpt lat="43.49481248552397" lon="10.695380645612236"><ele>138.14285714285714</ele><time>2026-04-19T13:06:58Z</time></trkpt><trkpt lat="43.494867750199916" lon="10.695300807363278"><ele>138.57142857142856</ele><time>2026-04-19T13:06:59Z</time></trkpt><trkpt lat="43.49493493462216" lon="10.695234669788142"><ele>139.0</ele><time>2026-04-19T13:07:00Z</time></trkpt><trkpt lat="43.49500240658424" lon="10.695166656127634"><ele>138.5</ele><time>2026-04-19T13:07:01Z</time></trkpt><trkpt lat="43.495068960572446" lon="10.695098340725519"><ele>138.0</ele><time>2026-04-19T13:07:02Z</time></trkpt><trkpt lat="43.495133727281065" lon="10.695030808896131"><ele>137.5</ele><time>2026-04-19T13:07:03Z</time></trkpt><trkpt lat="43.49519863113258" lon="10.694963750191661"><ele>137.0</ele><time>2026-04-19T13:07:04Z</time></trkpt><trkpt lat="43.495260513406855" lon="10.694898535386887"><ele>136.5</ele><time>2026-04-19T13:07:05Z</time></trkpt><trkpt lat="43.4953191330317" lon="10.694841158066424"><ele>136.0</ele><time>2026-04-19T13:07:06Z</time></trkpt><trkpt lat="43.4954288406337" lon="10.694780427422756"><ele>136.0</ele><time>2026-04-19T13:07:08Z</time></trkpt><trkpt lat="43.495522031121695" lon="10.694733312892659"><ele>136.0</ele><time>2026-04-19T13:07:10Z</time></trkpt><trkpt lat="43.49561817800908" lon="10.69470024938283"><ele>136.0</ele><time>2026-04-19T13:07:12Z</time></trkpt><trkpt lat="43.495724284706775" lon="10.694642171484096"><ele>136.0</ele><time>2026-04-19T13:07:14Z</time></trkpt><trkpt lat="43.495836007350206" lon="10.694605666422392"><ele>136.0</ele><time>2026-04-19T13:07:16Z</time></trkpt><trkpt lat="43.49593205400867" lon="10.69457570624536"><ele>136.0</ele><time>2026-04-19T13:07:18Z</time></trkpt><trkpt lat="43.49601719499752" lon="10.69454936036453"><ele>136.0</ele><time>2026-04-19T13:07:20Z</time></trkpt><trkpt lat="43.496104220399445" lon="10.694525271369821"><ele>136.0</ele><time>2026-04-19T13:07:22Z</time></trkpt><trkpt lat="43.49620835135447" lon="10.694498170006296"><ele>136.0</ele><time>2026-04-19T13:07:24Z</time></trkpt><trkpt lat="43.49632277400581" lon="10.694456546776015"><ele>136.0</ele><time>2026-04-19T13:07:26Z</time></trkpt><trkpt lat="43.496436947229824" lon="10.694422203081054"><ele>138.6</ele><time>2026-04-19T13:07:28Z</time></trkpt><trkpt lat="43.49653619217736" lon="10.694353449401447"><ele>141.2</ele><time>2026-04-19T13:07:30Z</time></trkpt><trkpt lat="43.496619558467195" lon="10.694268775016553"><ele>143.8</ele><time>2026-04-19T13:07:32Z</time></trkpt><trkpt lat="43.4966942157217" lon="10.69416788614662"><ele>146.4</ele><time>2026-04-19T13:07:34Z</time></trkpt><trkpt lat="43.496739698538974" lon="10.694019909308015"><ele>149.0</ele><time>2026-04-19T13:07:36Z</time></trkpt><trkpt lat="43.49677760014042" lon="10.693874532699404"><ele>149.0</ele><time>2026-04-19T13:07:38Z</time></trkpt><trkpt lat="43.496800442427485" lon="10.693729411129754"><ele>149.0</ele><time>2026-04-19T13:07:40Z</time></trkpt><trkpt lat="43.49682499244225" lon="10.693588810038873"><ele>149.0</ele><time>2026-04-19T13:07:42Z</time></trkpt><trkpt lat="43.4968444397397" lon="10.693446033628952"><ele>149.0</ele><time>2026-04-19T13:07:44Z</time></trkpt><trkpt lat="43.49686832918915" lon="10.693286620129486"><ele>149.0</ele><time>2026-04-19T13:07:46Z</time></trkpt><trkpt lat="43.496893845247236" lon="10.693124940413533"><ele>148.6</ele><time>2026-04-19T13:07:48Z</time></trkpt><trkpt lat="43.49691333522251" lon="10.692962402288526"><ele>148.2</ele><time>2026-04-19T13:07:50Z</time></trkpt><trkpt lat="43.49693772173925" lon="10.692802689716654"><ele>147.79999999999998</ele><time>2026-04-19T13:07:52Z</time></trkpt><trkpt lat="43.49697028302022" lon="10.692654151996846"><ele>147.4</ele><time>2026-04-19T13:07:54Z</time></trkpt><trkpt lat="43.49698610303501" lon="10.69254554604069"><ele>147.0</ele><time>2026-04-19T13:07:56Z</time></trkpt><trkpt lat="43.49700030134916" lon="10.692448073245593"><ele>145.66666666666666</ele><time>2026-04-19T13:08:02Z</time></trkpt><trkpt lat="43.4969989479788" lon="10.692344358860675"><ele>144.33333333333334</ele><time>2026-04-19T13:08:06Z</time></trkpt><trkpt lat="43.49702766356562" lon="10.69223017724058"><ele>143.0</ele><time>2026-04-19T13:08:09Z</time></trkpt><trkpt lat="43.49704161790412" lon="10.692108237618044"><ele>141.66666666666669</ele><time>2026-04-19T13:08:12Z</time></trkpt><trkpt lat="43.49705405245995" lon="10.691984257482385"><ele>140.33333333333334</ele><time>2026-04-19T13:08:15Z</time></trkpt><trkpt lat="43.49707064428066" lon="10.691863299810628"><ele>139.0</ele><time>2026-04-19T13:08:18Z</time></trkpt><trkpt lat="43.49708161289306" lon="10.691777650738345"><ele>139.14285714285714</ele><time>2026-04-19T13:08:20Z</time></trkpt><trkpt lat="43.49709389532065" lon="10.691690519905647"><ele>139.28571428571428</ele><time>2026-04-19T13:08:22Z</time></trkpt><trkpt lat="43.497107545331595" lon="10.691597671786282"><ele>139.42857142857144</ele><time>2026-04-19T13:08:24Z</time></trkpt><trkpt lat="43.49712018013903" lon="10.69150112973182"><ele>139.57142857142856</ele><time>2026-04-19T13:08:26Z</time></trkpt><trkpt lat="43.497132317752225" lon="10.691405455126901"><ele>139.71428571428572</ele><time>2026-04-19T13:08:28Z</time></trkpt><trkpt lat="43.4971439061499" lon="10.69131253084973"><ele>139.85714285714286</ele><time>2026-04-19T13:08:30Z</time></trkpt><trkpt lat="43.49716113359785" lon="10.69118299069566"><ele>140.0</ele><time>2026-04-19T13:08:33Z</time></trkpt><trkpt lat="43.497176009023015" lon="10.691059589487176"><ele>140.16666666666666</ele><time>2026-04-19T13:08:36Z</time></trkpt><trkpt lat="43.4971934674885" lon="10.69093061073676"><ele>140.33333333333331</ele><time>2026-04-19T13:08:39Z</time></trkpt><trkpt lat="43.49720907934227" lon="10.690820589747915"><ele>140.5</ele><time>2026-04-19T13:08:41Z</time></trkpt><trkpt lat="43.497221706620344" lon="10.690702603628031"><ele>140.66666666666666</ele><time>2026-04-19T13:08:43Z</time></trkpt><trkpt lat="43.49723611605361" lon="10.69059722326283"><ele>140.83333333333334</ele><time>2026-04-19T13:08:45Z</time></trkpt><trkpt lat="43.497260256153055" lon="10.69051599613454"><ele>141.0</ele><time>2026-04-19T13:08:47Z</time></trkpt><trkpt lat="43.49727155187646" lon="10.690428081192655"><ele>141.0</ele><time>2026-04-19T13:08:49Z</time></trkpt><trkpt lat="43.49728358821938" lon="10.690335548865345"><ele>141.0</ele><time>2026-04-19T13:08:51Z</time></trkpt><trkpt lat="43.49728061507781" lon="10.690240680865244"><ele>141.0</ele><time>2026-04-19T13:08:53Z</time></trkpt><trkpt lat="43.497293218155434" lon="10.690149219341988"><ele>141.0</ele><time>2026-04-19T13:08:55Z</time></trkpt><trkpt lat="43.49732201116648" lon="10.690067324727023"><ele>141.0</ele><time>2026-04-19T13:08:57Z</time></trkpt><trkpt lat="43.49733605749351" lon="10.689971868441448"><ele>141.0</ele><time>2026-04-19T13:08:59Z</time></trkpt><trkpt lat="43.497351426677476" lon="10.689867422098944"><ele>141.0</ele><time>2026-04-19T13:09:01Z</time></trkpt><trkpt lat="43.49736761017968" lon="10.689758586469674"><ele>141.16666666666666</ele><time>2026-04-19T13:09:03Z</time></trkpt><trkpt lat="43.49738560594991" lon="10.68963962596016"><ele>141.33333333333334</ele><time>2026-04-19T13:09:05Z</time></trkpt><trkpt lat="43.497405053384476" lon="10.689512079359163"><ele>141.5</ele><time>2026-04-19T13:09:07Z</time></trkpt><trkpt lat="43.49742308739126" lon="10.689393802242137"><ele>141.66666666666669</ele><time>2026-04-19T13:09:09Z</time></trkpt><trkpt lat="43.49743732538078" lon="10.689300421516046"><ele>141.83333333333334</ele><time>2026-04-19T13:09:11Z</time></trkpt><trkpt lat="43.49745594455622" lon="10.689172020804266"><ele>142.0</ele><time>2026-04-19T13:09:14Z</time></trkpt><trkpt lat="43.49745542465064" lon="10.68906213511952"><ele>142.0</ele><time>2026-04-19T13:09:16Z</time></trkpt><trkpt lat="43.49747153918369" lon="10.688954428364212"><ele>142.0</ele><time>2026-04-19T13:09:18Z</time></trkpt><trkpt lat="43.49749356337133" lon="10.688846559118776"><ele>142.0</ele><time>2026-04-19T13:09:20Z</time></trkpt><trkpt lat="43.497505576679345" lon="10.688734076192047"><ele>142.0</ele><time>2026-04-19T13:09:22Z</time></trkpt><trkpt lat="43.4975165541504" lon="10.688625263606719"><ele>142.0</ele><time>2026-04-19T13:09:24Z</time></trkpt><trkpt lat="43.4975310115405" lon="10.688515281032588"><ele>142.0</ele><time>2026-04-19T13:09:26Z</time></trkpt><trkpt lat="43.49754746005241" lon="10.688400612256032"><ele>142.16666666666669</ele><time>2026-04-19T13:09:28Z</time></trkpt><trkpt lat="43.49755821332956" lon="10.688279660633945"><ele>142.33333333333334</ele><time>2026-04-19T13:09:30Z</time></trkpt><trkpt lat="43.49758767034455" lon="10.688156983386104"><ele>142.5</ele><time>2026-04-19T13:09:32Z</time></trkpt><trkpt lat="43.497604584506895" lon="10.688033230872197"><ele>142.66666666666666</ele><time>2026-04-19T13:09:34Z</time></trkpt><trkpt lat="43.49761980372638" lon="10.687921879181848"><ele>142.83333333333331</ele><time>2026-04-19T13:09:36Z</time></trkpt><trkpt lat="43.49763749017468" lon="10.687797926742231"><ele>143.0</ele><time>2026-04-19T13:09:38Z</time></trkpt><trkpt lat="43.4976582977093" lon="10.687656649167483"><ele>143.6</ele><time>2026-04-19T13:09:40Z</time></trkpt><trkpt lat="43.497680923368556" lon="10.68750585733491"><ele>144.20000000000002</ele><time>2026-04-19T13:09:42Z</time></trkpt><trkpt lat="43.49770369256129" lon="10.687356250795483"><ele>144.8</ele><time>2026-04-19T13:09:44Z</time></trkpt><trkpt lat="43.49772194426503" lon="10.687232200862002"><ele>145.4</ele><time>2026-04-19T13:09:46Z</time></trkpt><trkpt lat="43.49773668999711" lon="10.68712117072308"><ele>146.0</ele><time>2026-04-19T13:09:48Z</time></trkpt><trkpt lat="43.497751743491214" lon="10.687020920188735"><ele>146.2</ele><time>2026-04-19T13:09:50Z</time></trkpt><trkpt lat="43.497774655186504" lon="10.68691656294303"><ele>146.39999999999998</ele><time>2026-04-19T13:09:52Z</time></trkpt><trkpt lat="43.497809898507704" lon="10.686806537091295"><ele>146.6</ele><time>2026-04-19T13:09:54Z</time></trkpt><trkpt lat="43.49786252474446" lon="10.686683275747793"><ele>146.79999999999998</ele><time>2026-04-19T13:09:56Z</time></trkpt><trkpt lat="43.4979097809707" lon="10.686542377351833"><ele>147.0</ele><time>2026-04-19T13:09:58Z</time></trkpt><trkpt lat="43.49797174464786" lon="10.686409480673799"><ele>147.0</ele><time>2026-04-19T13:10:00Z</time></trkpt><trkpt lat="43.49803546214689" lon="10.686283391997092"><ele>147.0</ele><time>2026-04-19T13:10:02Z</time></trkpt><trkpt lat="43.49809679708198" lon="10.68616859776308"><ele>147.0</ele><time>2026-04-19T13:10:04Z</time></trkpt><trkpt lat="43.49814795055319" lon="10.686055338942396"><ele>147.0</ele><time>2026-04-19T13:10:06Z</time></trkpt><trkpt lat="43.498202121609154" lon="10.685949072200279"><ele>147.0</ele><time>2026-04-19T13:10:08Z</time></trkpt><trkpt lat="43.498250057042455" lon="10.685837214017317"><ele>147.0</ele><time>2026-04-19T13:10:10Z</time></trkpt><trkpt lat="43.49831814250175" lon="10.685723900999996"><ele>147.0</ele><time>2026-04-19T13:10:12Z</time></trkpt><trkpt lat="43.49835681406817" lon="10.685576519198428"><ele>147.0</ele><time>2026-04-19T13:10:14Z</time></trkpt><trkpt lat="43.498399381597196" lon="10.685428919747892"><ele>147.0</ele><time>2026-04-19T13:10:16Z</time></trkpt><trkpt lat="43.498442854546944" lon="10.685277192506188"><ele>148.2</ele><time>2026-04-19T13:10:18Z</time></trkpt><trkpt lat="43.498457635460014" lon="10.685134218326626"><ele>149.39999999999998</ele><time>2026-04-19T13:10:20Z</time></trkpt><trkpt lat="43.498460831627" lon="10.68501167034161"><ele>150.60000000000002</ele><time>2026-04-19T13:10:22Z</time></trkpt><trkpt lat="43.498452653669055" lon="10.68487670771947"><ele>151.8</ele><time>2026-04-19T13:10:24Z</time></trkpt><trkpt lat="43.49842877835864" lon="10.684753407080615"><ele>153.0</ele><time>2026-04-19T13:10:26Z</time></trkpt><trkpt lat="43.4984031926825" lon="10.684636771846744"><ele>153.0</ele><time>2026-04-19T13:10:28Z</time></trkpt><trkpt lat="43.498377778881796" lon="10.68452948419189"><ele>153.0</ele><time>2026-04-19T13:10:30Z</time></trkpt><trkpt lat="43.49835209683149" lon="10.684421064069328"><ele>153.0</ele><time>2026-04-19T13:10:32Z</time></trkpt><trkpt lat="43.49832624789433" lon="10.68431193937775"><ele>153.0</ele><time>2026-04-19T13:10:34Z</time></trkpt><trkpt lat="43.49830102678291" lon="10.684205465093836"><ele>153.0</ele><time>2026-04-19T13:10:36Z</time></trkpt><trkpt lat="43.498278282547425" lon="10.684105327138363"><ele>153.0</ele><time>2026-04-19T13:10:38Z</time></trkpt><trkpt lat="43.49826151417966" lon="10.684017063294846"><ele>153.0</ele><time>2026-04-19T13:10:40Z</time></trkpt><trkpt lat="43.49824399820396" lon="10.683909110844391"><ele>153.0</ele><time>2026-04-19T13:10:42Z</time></trkpt><trkpt lat="43.49823390559583" lon="10.683779091446718"><ele>153.0</ele><time>2026-04-19T13:10:44Z</time></trkpt><trkpt lat="43.49824558702596" lon="10.683634397082908"><ele>153.0</ele><time>2026-04-19T13:10:46Z</time></trkpt><trkpt lat="43.4982650991311" lon="10.683493880956991"><ele>153.0</ele><time>2026-04-19T13:10:48Z</time></trkpt><trkpt lat="43.498264287688535" lon="10.68338312383996"><ele>152.85714285714286</ele><time>2026-04-19T13:10:50Z</time></trkpt><trkpt lat="43.498285639569936" lon="10.683263258419684"><ele>152.71428571428572</ele><time>2026-04-19T13:10:53Z</time></trkpt><trkpt lat="43.49830717159129" lon="10.683140402998893"><ele>152.57142857142856</ele><time>2026-04-19T13:10:56Z</time></trkpt><trkpt lat="43.49831931060683" lon="10.683054239126328"><ele>152.42857142857144</ele><time>2026-04-19T13:10:58Z</time></trkpt><trkpt lat="43.498331228914836" lon="10.682963036364738"><ele>152.2857142857143</ele><time>2026-04-19T13:11:00Z</time></trkpt><trkpt lat="43.498353814811345" lon="10.68287653438116"><ele>152.14285714285714</ele><time>2026-04-19T13:11:02Z</time></trkpt><trkpt lat="43.498367909170256" lon="10.682789513706382"><ele>152.0</ele><time>2026-04-19T13:11:04Z</time></trkpt><trkpt lat="43.49838646369374" lon="10.682681900490726"><ele>152.66666666666666</ele><time>2026-04-19T13:11:07Z</time></trkpt><trkpt lat="43.49841209422251" lon="10.68255795560966"><ele>153.33333333333331</ele><time>2026-04-19T13:11:10Z</time></trkpt><trkpt lat="43.49843666172229" lon="10.682473190113999"><ele>154.0</ele><time>2026-04-19T13:11:12Z</time></trkpt><trkpt lat="43.498469617499254" lon="10.682393751487458"><ele>154.66666666666666</ele><time>2026-04-19T13:11:14Z</time></trkpt><trkpt lat="43.49851304548019" lon="10.68231922623145"><ele>155.33333333333334</ele><time>2026-04-19T13:11:16Z</time></trkpt><trkpt lat="43.498582046981525" lon="10.682247074449196"><ele>156.0</ele><time>2026-04-19T13:11:19Z</time></trkpt><trkpt lat="43.49864262160371" lon="10.682195888885948"><ele>156.0</ele><time>2026-04-19T13:11:21Z</time></trkpt><trkpt lat="43.49871183475249" lon="10.682145845785154"><ele>156.0</ele><time>2026-04-19T13:11:23Z</time></trkpt><trkpt lat="43.49878917192557" lon="10.682111082220974"><ele>156.0</ele><time>2026-04-19T13:11:25Z</time></trkpt><trkpt lat="43.49886281200905" lon="10.682081432297645"><ele>156.0</ele><time>2026-04-19T13:11:27Z</time></trkpt><trkpt lat="43.4989337216331" lon="10.682055972504104"><ele>156.0</ele><time>2026-04-19T13:11:29Z</time></trkpt><trkpt lat="43.49899749671174" lon="10.682032692712582"><ele>156.0</ele><time>2026-04-19T13:11:31Z</time></trkpt><trkpt lat="43.49908701150642" lon="10.681992916121674"><ele>156.4</ele><time>2026-04-19T13:11:34Z</time></trkpt><trkpt lat="43.49917397158013" lon="10.681953495127537"><ele>156.8</ele><time>2026-04-19T13:11:37Z</time></trkpt><trkpt lat="43.49926399879182" lon="10.681919592041249"><ele>157.20000000000002</ele><time>2026-04-19T13:11:40Z</time></trkpt><trkpt lat="43.49935317833636" lon="10.681887221803192"><ele>157.6</ele><time>2026-04-19T13:11:43Z</time></trkpt><trkpt lat="43.49944425943916" lon="10.68185751440926"><ele>158.0</ele><time>2026-04-19T13:11:46Z</time></trkpt><trkpt lat="43.499537142840765" lon="10.681820690415147"><ele>157.16666666666666</ele><time>2026-04-19T13:11:49Z</time></trkpt><trkpt lat="43.49960223132238" lon="10.68178983878444"><ele>156.33333333333331</ele><time>2026-04-19T13:11:51Z</time></trkpt><trkpt lat="43.49966941657336" lon="10.681762302618752"><ele>155.5</ele><time>2026-04-19T13:11:53Z</time></trkpt><trkpt lat="43.4997381775811" lon="10.681736199932171"><ele>154.66666666666666</ele><time>2026-04-19T13:11:55Z</time></trkpt><trkpt lat="43.49980601218964" lon="10.681710173084824"><ele>153.83333333333334</ele><time>2026-04-19T13:11:57Z</time></trkpt><trkpt lat="43.49989588489855" lon="10.68167420716175"><ele>153.0</ele><time>2026-04-19T13:12:00Z</time></trkpt><trkpt lat="43.499980747734675" lon="10.68163351833623"><ele>153.0</ele><time>2026-04-19T13:12:03Z</time></trkpt><trkpt lat="43.50004219004588" lon="10.681612492428494"><ele>153.0</ele><time>2026-04-19T13:12:08Z</time></trkpt><trkpt lat="43.50011081416841" lon="10.681577582586153"><ele>153.0</ele><time>2026-04-19T13:12:12Z</time></trkpt><trkpt lat="43.50018029430065" lon="10.681541162017988"><ele>153.0</ele><time>2026-04-19T13:12:16Z</time></trkpt><trkpt lat="43.500246820348345" lon="10.681508465765935"><ele>153.0</ele><time>2026-04-19T13:12:20Z</time></trkpt><trkpt lat="43.50032733170325" lon="10.681478710570124"><ele>153.0</ele><time>2026-04-19T13:12:22Z</time></trkpt><trkpt lat="43.50041742531599" lon="10.681444678963954"><ele>152.66666666666666</ele><time>2026-04-19T13:12:24Z</time></trkpt><trkpt lat="43.50049910122769" lon="10.681420325105348"><ele>152.33333333333334</ele><time>2026-04-19T13:12:26Z</time></trkpt><trkpt lat="43.50057081963803" lon="10.681405349045136"><ele>152.0</ele><time>2026-04-19T13:12:28Z</time></trkpt><trkpt lat="43.50064463768264" lon="10.681399623197292"><ele>151.66666666666669</ele><time>2026-04-19T13:12:30Z</time></trkpt><trkpt lat="43.50072464515794" lon="10.681394916547466"><ele>151.33333333333334</ele><time>2026-04-19T13:12:32Z</time></trkpt><trkpt lat="43.500811861475995" lon="10.681383110131264"><ele>151.0</ele><time>2026-04-19T13:12:34Z</time></trkpt><trkpt lat="43.50090229049521" lon="10.681372218458893"><ele>151.0</ele><time>2026-04-19T13:12:36Z</time></trkpt><trkpt lat="43.500981871326886" lon="10.681358776861892"><ele>151.0</ele><time>2026-04-19T13:12:38Z</time></trkpt><trkpt lat="43.50105592829816" lon="10.681345014438284"><ele>151.0</ele><time>2026-04-19T13:12:40Z</time></trkpt><trkpt lat="43.50113532704596" lon="10.68133159059734"><ele>151.0</ele><time>2026-04-19T13:12:42Z</time></trkpt><trkpt lat="43.50121159016648" lon="10.681305138819248"><ele>151.0</ele><time>2026-04-19T13:12:44Z</time></trkpt><trkpt lat="43.50128689948847" lon="10.681270986647219"><ele>151.0</ele><time>2026-04-19T13:12:46Z</time></trkpt><trkpt lat="43.501356933695185" lon="10.681230517387728"><ele>150.83333333333334</ele><time>2026-04-19T13:12:48Z</time></trkpt><trkpt lat="43.50142773333011" lon="10.68120778568694"><ele>150.66666666666669</ele><time>2026-04-19T13:12:50Z</time></trkpt><trkpt lat="43.501487600743246" lon="10.681138778210077"><ele>150.5</ele><time>2026-04-19T13:12:52Z</time></trkpt><trkpt lat="43.501554858341166" lon="10.681077630142882"><ele>150.33333333333334</ele><time>2026-04-19T13:12:54Z</time></trkpt><trkpt lat="43.50162712263867" lon="10.681027402283574"><ele>150.16666666666666</ele><time>2026-04-19T13:12:56Z</time></trkpt><trkpt lat="43.50167979469314" lon="10.680944031198193"><ele>150.0</ele><time>2026-04-19T13:12:58Z</time></trkpt><trkpt lat="43.50174548564329" lon="10.68086938673436"><ele>150.0</ele><time>2026-04-19T13:13:00Z</time></trkpt><trkpt lat="43.5018104791139" lon="10.680788480445266"><ele>150.0</ele><time>2026-04-19T13:13:02Z</time></trkpt><trkpt lat="43.501882799575164" lon="10.680695972467626"><ele>150.0</ele><time>2026-04-19T13:13:04Z</time></trkpt><trkpt lat="43.501955579056684" lon="10.680597880408671"><ele>150.0</ele><time>2026-04-19T13:13:06Z</time></trkpt><trkpt lat="43.502008241902715" lon="10.680515375112343"><ele>150.0</ele><time>2026-04-19T13:13:08Z</time></trkpt><trkpt lat="43.50206510537156" lon="10.680435887617676"><ele>150.0</ele><time>2026-04-19T13:13:10Z</time></trkpt><trkpt lat="43.502122819736165" lon="10.680358616615042"><ele>149.16666666666666</ele><time>2026-04-19T13:13:12Z</time></trkpt><trkpt lat="43.5021800648037" lon="10.680287995395382"><ele>148.33333333333334</ele><time>2026-04-19T13:13:14Z</time></trkpt><trkpt lat="43.50224123179384" lon="10.68021149660227"><ele>147.5</ele><time>2026-04-19T13:13:16Z</time></trkpt><trkpt lat="43.5023041631077" lon="10.68013087050063"><ele>146.66666666666669</ele><time>2026-04-19T13:13:19Z</time></trkpt><trkpt lat="43.50235882980829" lon="10.680067495257505"><ele>145.83333333333334</ele><time>2026-04-19T13:13:21Z</time></trkpt><trkpt lat="43.50243319460056" lon="10.679981806302902"><ele>145.0</ele><time>2026-04-19T13:13:23Z</time></trkpt><trkpt lat="43.50251580538657" lon="10.679909693692254"><ele>145.0</ele><time>2026-04-19T13:13:25Z</time></trkpt><trkpt lat="43.502582147585606" lon="10.679830557749712"><ele>145.0</ele><time>2026-04-19T13:13:27Z</time></trkpt><trkpt lat="43.502642724384124" lon="10.679757794425273"><ele>145.0</ele><time>2026-04-19T13:13:29Z</time></trkpt><trkpt lat="43.50269872641223" lon="10.679692710021762"><ele>145.0</ele><time>2026-04-19T13:13:31Z</time></trkpt><trkpt lat="43.50276214470677" lon="10.679625637581212"><ele>145.0</ele><time>2026-04-19T13:13:33Z</time></trkpt><trkpt lat="43.502824793836126" lon="10.679566299036061"><ele>145.0</ele><time>2026-04-19T13:13:35Z</time></trkpt><trkpt lat="43.50289008677533" lon="10.67950941419988"><ele>143.83333333333334</ele><time>2026-04-19T13:13:37Z</time></trkpt><trkpt lat="43.50294919911732" lon="10.679438502918845"><ele>142.66666666666669</ele><time>2026-04-19T13:13:39Z</time></trkpt><trkpt lat="43.50302104501913" lon="10.679392896578811"><ele>141.5</ele><time>2026-04-19T13:13:41Z</time></trkpt><trkpt lat="43.50309305559696" lon="10.679340181356972"><ele>140.33333333333334</ele><time>2026-04-19T13:13:43Z</time></trkpt><trkpt lat="43.50316258906192" lon="10.679299281021423"><ele>139.16666666666666</ele><time>2026-04-19T13:13:45Z</time></trkpt><trkpt lat="43.50323423252757" lon="10.679261467848482"><ele>138.0</ele><time>2026-04-19T13:13:47Z</time></trkpt><trkpt lat="43.50330825834578" lon="10.679222816024728"><ele>140.28571428571428</ele><time>2026-04-19T13:13:49Z</time></trkpt><trkpt lat="43.50337563131844" lon="10.679201273882544"><ele>142.57142857142858</ele><time>2026-04-19T13:13:51Z</time></trkpt><trkpt lat="43.50344488779271" lon="10.67918177470797"><ele>144.85714285714286</ele><time>2026-04-19T13:13:53Z</time></trkpt><trkpt lat="43.503521046498506" lon="10.679184547770028"><ele>147.14285714285714</ele><time>2026-04-19T13:13:55Z</time></trkpt><trkpt lat="43.50360163432509" lon="10.679193389830369"><ele>149.42857142857144</ele><time>2026-04-19T13:13:57Z</time></trkpt><trkpt lat="43.50367470071579" lon="10.679202142476116"><ele>151.71428571428572</ele><time>2026-04-19T13:13:59Z</time></trkpt><trkpt lat="43.503742973695516" lon="10.679219002234605"><ele>154.0</ele><time>2026-04-19T13:14:01Z</time></trkpt><trkpt lat="43.50383488414887" lon="10.679242257683676"><ele>154.0</ele><time>2026-04-19T13:14:04Z</time></trkpt><trkpt lat="43.50390163141506" lon="10.679260321163506"><ele>154.0</ele><time>2026-04-19T13:14:06Z</time></trkpt><trkpt lat="43.5039706135857" lon="10.679280176747431"><ele>154.0</ele><time>2026-04-19T13:14:08Z</time></trkpt><trkpt lat="43.50403255809913" lon="10.679298958029376"><ele>154.0</ele><time>2026-04-19T13:14:10Z</time></trkpt><trkpt lat="43.50411911833407" lon="10.679323472262663"><ele>154.0</ele><time>2026-04-19T13:14:13Z</time></trkpt><trkpt lat="43.50421042334218" lon="10.679348236146636"><ele>154.0</ele><time>2026-04-19T13:14:16Z</time></trkpt><trkpt lat="43.504277284825584" lon="10.679372832743528"><ele>154.0</ele><time>2026-04-19T13:14:18Z</time></trkpt><trkpt lat="43.50434714053942" lon="10.679396565894804"><ele>154.0</ele><time>2026-04-19T13:14:20Z</time></trkpt><trkpt lat="43.5044154361207" lon="10.679418134084685"><ele>154.0</ele><time>2026-04-19T13:14:22Z</time></trkpt><trkpt lat="43.50448742567318" lon="10.679442994667898"><ele>154.0</ele><time>2026-04-19T13:14:24Z</time></trkpt><trkpt lat="43.50455532023316" lon="10.679464029627713"><ele>154.0</ele><time>2026-04-19T13:14:26Z</time></trkpt><trkpt lat="43.50462031983441" lon="10.679476442688552"><ele>154.0</ele><time>2026-04-19T13:14:28Z</time></trkpt><trkpt lat="43.50469213761202" lon="10.679495239052459"><ele>154.0</ele><time>2026-04-19T13:14:30Z</time></trkpt><trkpt lat="43.50475430575457" lon="10.679520916320893"><ele>154.0</ele><time>2026-04-19T13:14:32Z</time></trkpt><trkpt lat="43.50481454413975" lon="10.679549930126196"><ele>154.0</ele><time>2026-04-19T13:14:34Z</time></trkpt><trkpt lat="43.50487405205552" lon="10.679585228058457"><ele>154.0</ele><time>2026-04-19T13:14:36Z</time></trkpt><trkpt lat="43.504939801458555" lon="10.679610673720491"><ele>154.0</ele><time>2026-04-19T13:14:38Z</time></trkpt><trkpt lat="43.505009219093225" lon="10.679563216563878"><ele>154.0</ele><time>2026-04-19T13:14:40Z</time></trkpt><trkpt lat="43.50507538971502" lon="10.679478640836614"><ele>154.0</ele><time>2026-04-19T13:14:42Z</time></trkpt><trkpt lat="43.50512922992892" lon="10.67937900693019"><ele>153.5</ele><time>2026-04-19T13:14:44Z</time></trkpt><trkpt lat="43.505174317633" lon="10.679287612325437"><ele>153.0</ele><time>2026-04-19T13:14:46Z</time></trkpt><trkpt lat="43.50521779114494" lon="10.67919529144611"><ele>152.5</ele><time>2026-04-19T13:14:48Z</time></trkpt><trkpt lat="43.50526856082383" lon="10.679090402875012"><ele>152.0</ele><time>2026-04-19T13:14:50Z</time></trkpt><trkpt lat="43.50531869988025" lon="10.678994385971924"><ele>151.5</ele><time>2026-04-19T13:14:52Z</time></trkpt><trkpt lat="43.505360447740706" lon="10.678916482576323"><ele>151.0</ele><time>2026-04-19T13:14:56Z</time></trkpt><trkpt lat="43.50540463721902" lon="10.67883130133544"><ele>150.4</ele><time>2026-04-19T13:15:01Z</time></trkpt><trkpt lat="43.505446216723044" lon="10.67874339896096"><ele>149.8</ele><time>2026-04-19T13:15:03Z</time></trkpt><trkpt lat="43.50550245058899" lon="10.678623132715245"><ele>149.20000000000002</ele><time>2026-04-19T13:15:05Z</time></trkpt><trkpt lat="43.50556869316119" lon="10.678457547605472"><ele>148.6</ele><time>2026-04-19T13:15:07Z</time></trkpt><trkpt lat="43.505600194746506" lon="10.678349112585149"><ele>148.0</ele><time>2026-04-19T13:15:08Z</time></trkpt><trkpt lat="43.505621036480925" lon="10.678235124364244"><ele>148.0</ele><time>2026-04-19T13:15:09Z</time></trkpt><trkpt lat="43.50563567083182" lon="10.678132573474777"><ele>148.0</ele><time>2026-04-19T13:15:10Z</time></trkpt><trkpt lat="43.50564890417356" lon="10.678039651620693"><ele>148.0</ele><time>2026-04-19T13:15:11Z</time></trkpt><trkpt lat="43.50567708086354" lon="10.677873262935066"><ele>148.0</ele><time>2026-04-19T13:15:13Z</time></trkpt><trkpt lat="43.50569230850108" lon="10.677786516122815"><ele>148.0</ele><time>2026-04-19T13:15:14Z</time></trkpt><trkpt lat="43.50570787594705" lon="10.67769702526201"><ele>148.0</ele><time>2026-04-19T13:15:15Z</time></trkpt><trkpt lat="43.50571990693023" lon="10.677602249332555"><ele>148.4</ele><time>2026-04-19T13:15:16Z</time></trkpt><trkpt lat="43.50573027724748" lon="10.677509868688155"><ele>148.8</ele><time>2026-04-19T13:15:17Z</time></trkpt><trkpt lat="43.505741697655566" lon="10.677350928890757"><ele>149.2</ele><time>2026-04-19T13:15:19Z</time></trkpt><trkpt lat="43.50573760448034" lon="10.677206857409688"><ele>149.6</ele><time>2026-04-19T13:15:21Z</time></trkpt><trkpt lat="43.50572406025792" lon="10.677064817042133"><ele>150.0</ele><time>2026-04-19T13:15:23Z</time></trkpt><trkpt lat="43.50570708477006" lon="10.676911676958163"><ele>150.0</ele><time>2026-04-19T13:15:25Z</time></trkpt><trkpt lat="43.50569122478551" lon="10.676767770817351"><ele>150.0</ele><time>2026-04-19T13:15:27Z</time></trkpt><trkpt lat="43.50568174439031" lon="10.676651054301859"><ele>150.0</ele><time>2026-04-19T13:15:29Z</time></trkpt><trkpt lat="43.50567355953665" lon="10.67649858353173"><ele>150.0</ele><time>2026-04-19T13:15:31Z</time></trkpt><trkpt lat="43.505667637140384" lon="10.676320571206698"><ele>150.0</ele><time>2026-04-19T13:15:33Z</time></trkpt><trkpt lat="43.505666550883355" lon="10.676226532488933"><ele>150.0</ele><time>2026-04-19T13:15:34Z</time></trkpt><trkpt lat="43.50566735636736" lon="10.676136389978078"><ele>150.0</ele><time>2026-04-19T13:15:35Z</time></trkpt><trkpt lat="43.50566986274476" lon="10.676048204885594"><ele>150.0</ele><time>2026-04-19T13:15:36Z</time></trkpt><trkpt lat="43.5056775752861" lon="10.67588173018171"><ele>150.0</ele><time>2026-04-19T13:15:38Z</time></trkpt><trkpt lat="43.505689211790795" lon="10.675733301167195"><ele>150.0</ele><time>2026-04-19T13:15:40Z</time></trkpt><trkpt lat="43.505701415297494" lon="10.67560922194615"><ele>150.0</ele><time>2026-04-19T13:15:42Z</time></trkpt><trkpt lat="43.50571928546541" lon="10.675478757196828"><ele>150.6</ele><time>2026-04-19T13:15:44Z</time></trkpt><trkpt lat="43.505736342093975" lon="10.67535423108467"><ele>151.2</ele><time>2026-04-19T13:15:46Z</time></trkpt><trkpt lat="43.505751405021144" lon="10.675221099920094"><ele>151.8</ele><time>2026-04-19T13:15:48Z</time></trkpt><trkpt lat="43.505765815079776" lon="10.675070701404243"><ele>152.4</ele><time>2026-04-19T13:15:50Z</time></trkpt><trkpt lat="43.50577806146721" lon="10.67489956749499"><ele>153.0</ele><time>2026-04-19T13:15:52Z</time></trkpt><trkpt lat="43.5057793056777" lon="10.67480162918695"><ele>153.0</ele><time>2026-04-19T13:15:53Z</time></trkpt><trkpt lat="43.50577683435169" lon="10.674698941708245"><ele>153.0</ele><time>2026-04-19T13:15:54Z</time></trkpt><trkpt lat="43.50577439910017" lon="10.674604344436968"><ele>153.0</ele><time>2026-04-19T13:15:55Z</time></trkpt><trkpt lat="43.50577327261327" lon="10.674514622247726"><ele>153.0</ele><time>2026-04-19T13:15:56Z</time></trkpt><trkpt lat="43.505772830054575" lon="10.674423811396496"><ele>153.0</ele><time>2026-04-19T13:15:57Z</time></trkpt><trkpt lat="43.50577016142065" lon="10.674335517894209"><ele>153.0</ele><time>2026-04-19T13:15:58Z</time></trkpt><trkpt lat="43.505737345545185" lon="10.674185089559971"><ele>152.20000000000002</ele><time>2026-04-19T13:16:00Z</time></trkpt><trkpt lat="43.50568542042039" lon="10.674060608694223"><ele>151.4</ele><time>2026-04-19T13:16:02Z</time></trkpt><trkpt lat="43.50562756255309" lon="10.673937106572627"><ele>150.60000000000002</ele><time>2026-04-19T13:16:04Z</time></trkpt><trkpt lat="43.505589940555744" lon="10.673821488742838"><ele>149.8</ele><time>2026-04-19T13:16:06Z</time></trkpt><trkpt lat="43.50556422414387" lon="10.673701865539993"><ele>149.0</ele><time>2026-04-19T13:16:08Z</time></trkpt><trkpt lat="43.50554954188328" lon="10.673596937461815"><ele>148.0</ele><time>2026-04-19T13:16:10Z</time></trkpt><trkpt lat="43.505536384271956" lon="10.67348836954993"><ele>147.0</ele><time>2026-04-19T13:16:12Z</time></trkpt><trkpt lat="43.50552609577529" lon="10.673381534665257"><ele>146.0</ele><time>2026-04-19T13:16:14Z</time></trkpt><trkpt lat="43.50551679765329" lon="10.673274301963781"><ele>145.0</ele><time>2026-04-19T13:16:16Z</time></trkpt><trkpt lat="43.50551006854493" lon="10.673168407305958"><ele>144.0</ele><time>2026-04-19T13:16:18Z</time></trkpt><trkpt lat="43.50550488782253" lon="10.673070042588833"><ele>143.0</ele><time>2026-04-19T13:16:20Z</time></trkpt><trkpt lat="43.505500803801894" lon="10.672963817026409"><ele>143.0</ele><time>2026-04-19T13:16:22Z</time></trkpt><trkpt lat="43.505498993159975" lon="10.672850344631769"><ele>143.0</ele><time>2026-04-19T13:16:24Z</time></trkpt><trkpt lat="43.50549825089221" lon="10.672747854995622"><ele>143.0</ele><time>2026-04-19T13:16:26Z</time></trkpt><trkpt lat="43.50549873096392" lon="10.672652219665391"><ele>143.0</ele><time>2026-04-19T13:16:28Z</time></trkpt><trkpt lat="43.505500028735725" lon="10.672553315847058"><ele>143.0</ele><time>2026-04-19T13:16:30Z</time></trkpt><trkpt lat="43.505497695619816" lon="10.672414870145882"><ele>143.0</ele><time>2026-04-19T13:16:32Z</time></trkpt><trkpt lat="43.50548907832822" lon="10.672276590827835"><ele>142.57142857142856</ele><time>2026-04-19T13:16:34Z</time></trkpt><trkpt lat="43.50547912585027" lon="10.672162622224766"><ele>142.14285714285714</ele><time>2026-04-19T13:16:36Z</time></trkpt><trkpt lat="43.505470288787485" lon="10.67206456980818"><ele>141.71428571428572</ele><time>2026-04-19T13:16:38Z</time></trkpt><trkpt lat="43.50546196047138" lon="10.67197216224631"><ele>141.28571428571428</ele><time>2026-04-19T13:16:40Z</time></trkpt><trkpt lat="43.50543649078243" lon="10.671884610887588"><ele>140.85714285714286</ele><time>2026-04-19T13:16:42Z</time></trkpt><trkpt lat="43.505443538919195" lon="10.671794091907804"><ele>140.42857142857142</ele><time>2026-04-19T13:16:44Z</time></trkpt><trkpt lat="43.50543204985305" lon="10.671689942105367"><ele>140.0</ele><time>2026-04-19T13:16:46Z</time></trkpt><trkpt lat="43.50541539389717" lon="10.671557607111419"><ele>138.8</ele><time>2026-04-19T13:16:48Z</time></trkpt><trkpt lat="43.50539608769403" lon="10.671411336795686"><ele>137.6</ele><time>2026-04-19T13:16:50Z</time></trkpt><trkpt lat="43.50537412540761" lon="10.671254795592366"><ele>136.4</ele><time>2026-04-19T13:16:52Z</time></trkpt><trkpt lat="43.50535168721793" lon="10.671095572503187"><ele>135.2</ele><time>2026-04-19T13:16:54Z</time></trkpt><trkpt lat="43.50533107547702" lon="10.670949310024945"><ele>134.0</ele><time>2026-04-19T13:16:56Z</time></trkpt><trkpt lat="43.50531196940143" lon="10.670812754356287"><ele>134.0</ele><time>2026-04-19T13:16:58Z</time></trkpt><trkpt lat="43.50529282235427" lon="10.670673758037239"><ele>134.0</ele><time>2026-04-19T13:17:00Z</time></trkpt><trkpt lat="43.50527045234837" lon="10.670511364956186"><ele>134.0</ele><time>2026-04-19T13:17:02Z</time></trkpt><trkpt lat="43.50525599602109" lon="10.670406420541555"><ele>134.0</ele><time>2026-04-19T13:17:03Z</time></trkpt><trkpt lat="43.50524138755029" lon="10.67030037166906"><ele>134.0</ele><time>2026-04-19T13:17:04Z</time></trkpt><trkpt lat="43.50522569906099" lon="10.67018648246489"><ele>133.5</ele><time>2026-04-19T13:17:05Z</time></trkpt><trkpt lat="43.50521179986787" lon="10.670081622198326"><ele>133.0</ele><time>2026-04-19T13:17:06Z</time></trkpt><trkpt lat="43.505198751247384" lon="10.669980337987948"><ele>132.5</ele><time>2026-04-19T13:17:07Z</time></trkpt><trkpt lat="43.50518601927386" lon="10.6698792350506"><ele>132.0</ele><time>2026-04-19T13:17:08Z</time></trkpt><trkpt lat="43.50517498374201" lon="10.669787105694818"><ele>131.5</ele><time>2026-04-19T13:17:09Z</time></trkpt><trkpt lat="43.50516800567138" lon="10.669698287001424"><ele>131.0</ele><time>2026-04-19T13:17:10Z</time></trkpt><trkpt lat="43.50516970791829" lon="10.669554364641655"><ele>130.5</ele><time>2026-04-19T13:17:12Z</time></trkpt><trkpt lat="43.50517644626466" lon="10.669409881872477"><ele>130.0</ele><time>2026-04-19T13:17:14Z</time></trkpt><trkpt lat="43.50517201373608" lon="10.669249620852506"><ele>129.5</ele><time>2026-04-19T13:17:16Z</time></trkpt><trkpt lat="43.50515218414634" lon="10.669156416073616"><ele>129.0</ele><time>2026-04-19T13:17:17Z</time></trkpt><trkpt lat="43.50512099848649" lon="10.669056189772512"><ele>128.5</ele><time>2026-04-19T13:17:18Z</time></trkpt><trkpt lat="43.505083877725525" lon="10.668962443519556"><ele>128.0</ele><time>2026-04-19T13:17:19Z</time></trkpt><trkpt lat="43.50504418487754" lon="10.6688721799349"><ele>128.0</ele><time>2026-04-19T13:17:20Z</time></trkpt><trkpt lat="43.505025042499774" lon="10.668773072352543"><ele>128.0</ele><time>2026-04-19T13:17:21Z</time></trkpt><trkpt lat="43.50498569429573" lon="10.668615522821808"><ele>128.0</ele><time>2026-04-19T13:17:23Z</time></trkpt><trkpt lat="43.50496818014424" lon="10.668439597373766"><ele>128.0</ele><time>2026-04-19T13:17:25Z</time></trkpt><trkpt lat="43.504942558540236" lon="10.668345544385836"><ele>128.0</ele><time>2026-04-19T13:17:26Z</time></trkpt><trkpt lat="43.504931960561755" lon="10.668245509024603"><ele>127.33333333333333</ele><time>2026-04-19T13:17:27Z</time></trkpt><trkpt lat="43.5049206623531" lon="10.668151130591436"><ele>126.66666666666666</ele><time>2026-04-19T13:17:28Z</time></trkpt><trkpt lat="43.50490441289363" lon="10.668062906474736"><ele>126.0</ele><time>2026-04-19T13:17:29Z</time></trkpt><trkpt lat="43.5049039348849" lon="10.667970639595802"><ele>125.33333333333334</ele><time>2026-04-19T13:17:30Z</time></trkpt><trkpt lat="43.504875623825846" lon="10.667813685980219"><ele>124.66666666666667</ele><time>2026-04-19T13:17:32Z</time></trkpt><trkpt lat="43.504837817202485" lon="10.667668304334434"><ele>124.0</ele><time>2026-04-19T13:17:34Z</time></trkpt><trkpt lat="43.50482633482416" lon="10.667582333666006"><ele>123.57142857142858</ele><time>2026-04-19T13:17:35Z</time></trkpt><trkpt lat="43.50480834875065" lon="10.667493090773442"><ele>123.14285714285715</ele><time>2026-04-19T13:17:36Z</time></trkpt><trkpt lat="43.504783165877484" lon="10.667397945042508"><ele>122.71428571428572</ele><time>2026-04-19T13:17:37Z</time></trkpt><trkpt lat="43.50476238311721" lon="10.667297544097561"><ele>122.28571428571428</ele><time>2026-04-19T13:17:38Z</time></trkpt><trkpt lat="43.50474152094983" lon="10.667198366024245"><ele>121.85714285714285</ele><time>2026-04-19T13:17:39Z</time></trkpt><trkpt lat="43.50472415709945" lon="10.667101483754319"><ele>121.42857142857142</ele><time>2026-04-19T13:17:40Z</time></trkpt><trkpt lat="43.504708052027816" lon="10.667002745543337"><ele>121.0</ele><time>2026-04-19T13:17:41Z</time></trkpt><trkpt lat="43.50469869960523" lon="10.666899843572898"><ele>119.8</ele><time>2026-04-19T13:17:42Z</time></trkpt><trkpt lat="43.50469639847933" lon="10.666805503391318"><ele>118.6</ele><time>2026-04-19T13:17:43Z</time></trkpt><trkpt lat="43.50470593456059" lon="10.666665431796787"><ele>117.4</ele><time>2026-04-19T13:17:45Z</time></trkpt><trkpt lat="43.504761356938765" lon="10.666557099725393"><ele>116.2</ele><time>2026-04-19T13:17:47Z</time></trkpt><trkpt lat="43.50485721303655" lon="10.666454695496384"><ele>115.0</ele><time>2026-04-19T13:17:49Z</time></trkpt><trkpt lat="43.50490472007323" lon="10.666394386371689"><ele>115.0</ele><time>2026-04-19T13:17:50Z</time></trkpt><trkpt lat="43.50496355119652" lon="10.666244969395057"><ele>115.0</ele><time>2026-04-19T13:17:52Z</time></trkpt><trkpt lat="43.504996331794935" lon="10.666132247739489"><ele>115.0</ele><time>2026-04-19T13:17:54Z</time></trkpt><trkpt lat="43.50501660406483" lon="10.665993042192099"><ele>115.0</ele><time>2026-04-19T13:17:56Z</time></trkpt><trkpt lat="43.5050368818324" lon="10.665844731130221"><ele>115.0</ele><time>2026-04-19T13:17:58Z</time></trkpt><trkpt lat="43.505055925556576" lon="10.66568722904323"><ele>113.83333333333334</ele><time>2026-04-19T13:18:00Z</time></trkpt><trkpt lat="43.50507423645568" lon="10.665516082891989"><ele>112.66666666666667</ele><time>2026-04-19T13:18:02Z</time></trkpt><trkpt lat="43.505083440932566" lon="10.66542197511239"><ele>111.5</ele><time>2026-04-19T13:18:03Z</time></trkpt><trkpt lat="43.505091980130196" lon="10.665319317558"><ele>110.33333333333334</ele><time>2026-04-19T13:18:04Z</time></trkpt><trkpt lat="43.50509558769011" lon="10.665212052292448"><ele>109.16666666666667</ele><time>2026-04-19T13:18:05Z</time></trkpt><trkpt lat="43.505089177908395" lon="10.665102857275985"><ele>108.0</ele><time>2026-04-19T13:18:06Z</time></trkpt><trkpt lat="43.505074024391995" lon="10.664994432800686"><ele>106.5</ele><time>2026-04-19T13:18:07Z</time></trkpt><trkpt lat="43.5050525226549" lon="10.664882633044703"><ele>105.0</ele><time>2026-04-19T13:18:08Z</time></trkpt><trkpt lat="43.50503154393501" lon="10.664766971964141"><ele>103.5</ele><time>2026-04-19T13:18:09Z</time></trkpt><trkpt lat="43.50501011687696" lon="10.664646293763884"><ele>102.0</ele><time>2026-04-19T13:18:10Z</time></trkpt><trkpt lat="43.50498940543753" lon="10.664529646054726"><ele>100.5</ele><time>2026-04-19T13:18:11Z</time></trkpt><trkpt lat="43.50495401148975" lon="10.664422451104691"><ele>99.0</ele><time>2026-04-19T13:18:12Z</time></trkpt><trkpt lat="43.50495173465182" lon="10.664314030569205"><ele>98.0</ele><time>2026-04-19T13:18:13Z</time></trkpt><trkpt lat="43.50493760995318" lon="10.664219315834638"><ele>97.0</ele><time>2026-04-19T13:18:14Z</time></trkpt><trkpt lat="43.50492577408657" lon="10.664129825208356"><ele>96.0</ele><time>2026-04-19T13:18:15Z</time></trkpt><trkpt lat="43.50491361587342" lon="10.664032698768475"><ele>95.0</ele><time>2026-04-19T13:18:16Z</time></trkpt><trkpt lat="43.504902549830256" lon="10.663930917135009"><ele>94.0</ele><time>2026-04-19T13:18:17Z</time></trkpt><trkpt lat="43.504892607618686" lon="10.663824992255357"><ele>93.0</ele><time>2026-04-19T13:18:18Z</time></trkpt><trkpt lat="43.50488473262947" lon="10.663724152183528"><ele>92.0</ele><time>2026-04-19T13:18:19Z</time></trkpt><trkpt lat="43.5048788575332" lon="10.663628585697586"><ele>90.83333333333334</ele><time>2026-04-19T13:18:20Z</time></trkpt><trkpt lat="43.504874634198394" lon="10.663538803283569"><ele>89.66666666666667</ele><time>2026-04-19T13:18:21Z</time></trkpt><trkpt lat="43.50487319617698" lon="10.663400478298"><ele>88.5</ele><time>2026-04-19T13:18:23Z</time></trkpt><trkpt lat="43.504869681474545" lon="10.66329686870205"><ele>87.33333333333333</ele><time>2026-04-19T13:18:25Z</time></trkpt><trkpt lat="43.504908028573404" lon="10.663193099131936"><ele>86.16666666666666</ele><time>2026-04-19T13:18:27Z</time></trkpt><trkpt lat="43.5049361394174" lon="10.66305037371664"><ele>85.0</ele><time>2026-04-19T13:18:29Z</time></trkpt><trkpt lat="43.5049629155034" lon="10.662892709517832"><ele>84.16666666666666</ele><time>2026-04-19T13:18:31Z</time></trkpt><trkpt lat="43.50499858366882" lon="10.662731940285612"><ele>83.33333333333333</ele><time>2026-04-19T13:18:33Z</time></trkpt><trkpt lat="43.50500737485503" lon="10.662637952016723"><ele>82.5</ele><time>2026-04-19T13:18:34Z</time></trkpt><trkpt lat="43.50501340064469" lon="10.662542098409597"><ele>81.66666666666667</ele><time>2026-04-19T13:18:35Z</time></trkpt><trkpt lat="43.50501930619284" lon="10.662442956650274"><ele>80.83333333333334</ele><time>2026-04-19T13:18:36Z</time></trkpt><trkpt lat="43.50502462072366" lon="10.662342224913653"><ele>80.0</ele><time>2026-04-19T13:18:37Z</time></trkpt><trkpt lat="43.50502924742981" lon="10.662239260902782"><ele>80.0</ele><time>2026-04-19T13:18:38Z</time></trkpt><trkpt lat="43.50503347833174" lon="10.66213702377839"><ele>80.0</ele><time>2026-04-19T13:18:39Z</time></trkpt><trkpt lat="43.505037771772614" lon="10.662033275428053"><ele>80.0</ele><time>2026-04-19T13:18:40Z</time></trkpt><trkpt lat="43.505041468570404" lon="10.66192725966245"><ele>80.0</ele><time>2026-04-19T13:18:41Z</time></trkpt><trkpt lat="43.50504335820159" lon="10.661822016855162"><ele>80.0</ele><time>2026-04-19T13:18:42Z</time></trkpt><trkpt lat="43.505045179931" lon="10.661720555859354"><ele>80.0</ele><time>2026-04-19T13:18:43Z</time></trkpt><trkpt lat="43.505046870038534" lon="10.661626425252253"><ele>80.0</ele><time>2026-04-19T13:18:44Z</time></trkpt><trkpt lat="43.505048453859146" lon="10.661538212564656"><ele>80.0</ele><time>2026-04-19T13:18:45Z</time></trkpt><trkpt lat="43.50503840223352" lon="10.66144745572771"><ele>80.0</ele><time>2026-04-19T13:18:46Z</time></trkpt><trkpt lat="43.505008112581145" lon="10.661290881547586"><ele>80.0</ele><time>2026-04-19T13:18:48Z</time></trkpt><trkpt lat="43.50497553727913" lon="10.661127154365362"><ele>80.0</ele><time>2026-04-19T13:18:50Z</time></trkpt><trkpt lat="43.50495047932231" lon="10.660956843353425"><ele>80.0</ele><time>2026-04-19T13:18:52Z</time></trkpt><trkpt lat="43.504943408253794" lon="10.660867978948602"><ele>80.0</ele><time>2026-04-19T13:18:53Z</time></trkpt><trkpt lat="43.50492850484581" lon="10.660702311972125"><ele>80.0</ele><time>2026-04-19T13:18:55Z</time></trkpt><trkpt lat="43.5049122702331" lon="10.660547811908373"><ele>80.0</ele><time>2026-04-19T13:18:57Z</time></trkpt><trkpt lat="43.50489841958637" lon="10.66041599919843"><ele>80.0</ele><time>2026-04-19T13:18:59Z</time></trkpt><trkpt lat="43.50489175120578" lon="10.66032920270232"><ele>80.0</ele><time>2026-04-19T13:19:01Z</time></trkpt><trkpt lat="43.504951720115606" lon="10.660243552251488"><ele>80.6</ele><time>2026-04-19T13:19:04Z</time></trkpt><trkpt lat="43.50508391549122" lon="10.660256904350026"><ele>81.2</ele><time>2026-04-19T13:19:06Z</time></trkpt><trkpt lat="43.50515648632174" lon="10.660271931089916"><ele>81.80000000000001</ele><time>2026-04-19T13:19:07Z</time></trkpt><trkpt lat="43.50524296181874" lon="10.660277149738139"><ele>82.4</ele><time>2026-04-19T13:19:08Z</time></trkpt><trkpt lat="43.50533962344212" lon="10.660281776641279"><ele>83.0</ele><time>2026-04-19T13:19:09Z</time></trkpt><trkpt lat="43.50544115930025" lon="10.66028605134852"><ele>82.4</ele><time>2026-04-19T13:19:10Z</time></trkpt><trkpt lat="43.505542398232855" lon="10.660289345828394"><ele>81.80000000000001</ele><time>2026-04-19T13:19:11Z</time></trkpt><trkpt lat="43.50564500459421" lon="10.660283479976965"><ele>81.2</ele><time>2026-04-19T13:19:12Z</time></trkpt><trkpt lat="43.505752811751044" lon="10.660264591753737"><ele>80.6</ele><time>2026-04-19T13:19:13Z</time></trkpt><trkpt lat="43.50586191265963" lon="10.66023119965632"><ele>80.0</ele><time>2026-04-19T13:19:14Z</time></trkpt><trkpt lat="43.505966185870825" lon="10.660182100560922"><ele>80.0</ele><time>2026-04-19T13:19:15Z</time></trkpt><trkpt lat="43.506062430704304" lon="10.66011162839945"><ele>80.0</ele><time>2026-04-19T13:19:16Z</time></trkpt><trkpt lat="43.50614272211591" lon="10.660026481576317"><ele>80.0</ele><time>2026-04-19T13:19:17Z</time></trkpt><trkpt lat="43.50621321476579" lon="10.659934475261322"><ele>80.0</ele><time>2026-04-19T13:19:18Z</time></trkpt><trkpt lat="43.506278575376506" lon="10.65983842234426"><ele>80.0</ele><time>2026-04-19T13:19:19Z</time></trkpt><trkpt lat="43.50634426310791" lon="10.659739726226611"><ele>79.2</ele><time>2026-04-19T13:19:20Z</time></trkpt><trkpt lat="43.506410772891" lon="10.659639706065795"><ele>78.4</ele><time>2026-04-19T13:19:21Z</time></trkpt><trkpt lat="43.5064771586871" lon="10.65953671253213"><ele>77.6</ele><time>2026-04-19T13:19:22Z</time></trkpt><trkpt lat="43.50654555973041" lon="10.659431945504496"><ele>76.8</ele><time>2026-04-19T13:19:23Z</time></trkpt><trkpt lat="43.506617477142086" lon="10.65932680769468"><ele>76.0</ele><time>2026-04-19T13:19:24Z</time></trkpt><trkpt lat="43.506694428437" lon="10.65922389055911"><ele>76.0</ele><time>2026-04-19T13:19:25Z</time></trkpt><trkpt lat="43.50677449790117" lon="10.659121202011706"><ele>76.0</ele><time>2026-04-19T13:19:26Z</time></trkpt><trkpt lat="43.50686094358126" lon="10.659024159871668"><ele>76.0</ele><time>2026-04-19T13:19:27Z</time></trkpt><trkpt lat="43.50695361637127" lon="10.65893353314838"><ele>76.0</ele><time>2026-04-19T13:19:28Z</time></trkpt><trkpt lat="43.50704985126231" lon="10.658844281616444"><ele>76.0</ele><time>2026-04-19T13:19:29Z</time></trkpt><trkpt lat="43.50714930368324" lon="10.658758410157137"><ele>76.0</ele><time>2026-04-19T13:19:30Z</time></trkpt><trkpt lat="43.507246424633124" lon="10.658665845141922"><ele>76.0</ele><time>2026-04-19T13:19:31Z</time></trkpt><trkpt lat="43.50735199075714" lon="10.658592577171635"><ele>76.0</ele><time>2026-04-19T13:19:32Z</time></trkpt><trkpt lat="43.50745418627848" lon="10.658503828548266"><ele>76.0</ele><time>2026-04-19T13:19:33Z</time></trkpt><trkpt lat="43.50756474892454" lon="10.658411006569306"><ele>76.0</ele><time>2026-04-19T13:19:34Z</time></trkpt><trkpt lat="43.50768297118896" lon="10.658308101143211"><ele>76.0</ele><time>2026-04-19T13:19:35Z</time></trkpt><trkpt lat="43.507807636275935" lon="10.65819771354438"><ele>76.0</ele><time>2026-04-19T13:19:36Z</time></trkpt><trkpt lat="43.507939567007355" lon="10.658078052531971"><ele>76.0</ele><time>2026-04-19T13:19:37Z</time></trkpt><trkpt lat="43.508077835656145" lon="10.657951597940993"><ele>76.0</ele><time>2026-04-19T13:19:38Z</time></trkpt><trkpt lat="43.50822262055639" lon="10.657819314634189"><ele>76.0</ele><time>2026-04-19T13:19:39Z</time></trkpt><trkpt lat="43.5083672364039" lon="10.657686336310965"><ele>76.0</ele><time>2026-04-19T13:19:40Z</time></trkpt><trkpt lat="43.508507689574515" lon="10.657558730520144"><ele>76.0</ele><time>2026-04-19T13:19:41Z</time></trkpt><trkpt lat="43.50864565902866" lon="10.657436932105782"><ele>76.0</ele><time>2026-04-19T13:19:42Z</time></trkpt><trkpt lat="43.508781658630284" lon="10.657318872417338"><ele>76.0</ele><time>2026-04-19T13:19:43Z</time></trkpt><trkpt lat="43.508918997435686" lon="10.657215983521024"><ele>76.0</ele><time>2026-04-19T13:19:44Z</time></trkpt><trkpt lat="43.509057159293526" lon="10.657133483529963"><ele>76.0</ele><time>2026-04-19T13:19:45Z</time></trkpt><trkpt lat="43.50919520269407" lon="10.657066962333152"><ele>76.0</ele><time>2026-04-19T13:19:46Z</time></trkpt><trkpt lat="43.509316987029145" lon="10.657020497159884"><ele>76.0</ele><time>2026-04-19T13:19:47Z</time></trkpt><trkpt lat="43.50941422457559" lon="10.656989551821438"><ele>76.0</ele><time>2026-04-19T13:19:48Z</time></trkpt><trkpt lat="43.50949401167208" lon="10.656965651911293"><ele>76.0</ele><time>2026-04-19T13:19:49Z</time></trkpt><trkpt lat="43.50955693207388" lon="10.65694884272051"><ele>76.0</ele><time>2026-04-19T13:19:50Z</time></trkpt><trkpt lat="43.509628266133994" lon="10.656927047524814"><ele>76.0</ele><time>2026-04-19T13:19:52Z</time></trkpt><trkpt lat="43.50969077882571" lon="10.656901008950886"><ele>76.0</ele><time>2026-04-19T13:19:56Z</time></trkpt><trkpt lat="43.509690214434734" lon="10.656749632568973"><ele>76.0</ele><time>2026-04-19T13:20:00Z</time></trkpt><trkpt lat="43.50960446919295" lon="10.656719351353395"><ele>76.0</ele><time>2026-04-19T13:20:02Z</time></trkpt><trkpt lat="43.5095158626294" lon="10.656684733432849"><ele>76.0</ele><time>2026-04-19T13:20:04Z</time></trkpt><trkpt lat="43.50941603859811" lon="10.656646045918603"><ele>76.0</ele><time>2026-04-19T13:20:06Z</time></trkpt><trkpt lat="43.509298079196476" lon="10.656595429907851"><ele>76.33333333333333</ele><time>2026-04-19T13:20:08Z</time></trkpt><trkpt lat="43.50920678349391" lon="10.656504881062824"><ele>76.66666666666666</ele><time>2026-04-19T13:20:10Z</time></trkpt><trkpt lat="43.5091390201949" lon="10.65637231450907"><ele>77.0</ele><time>2026-04-19T13:20:12Z</time></trkpt><trkpt lat="43.50911966833385" lon="10.656284779728873"><ele>77.33333333333333</ele><time>2026-04-19T13:20:13Z</time></trkpt><trkpt lat="43.50908523422468" lon="10.65619500528104"><ele>77.66666666666667</ele><time>2026-04-19T13:20:14Z</time></trkpt><trkpt lat="43.50906939321447" lon="10.656096709883348"><ele>78.0</ele><time>2026-04-19T13:20:15Z</time></trkpt><trkpt lat="43.509050294424675" lon="10.655999871234426"><ele>79.14285714285715</ele><time>2026-04-19T13:20:16Z</time></trkpt><trkpt lat="43.509045227908864" lon="10.655898770180858"><ele>80.28571428571428</ele><time>2026-04-19T13:20:17Z</time></trkpt><trkpt lat="43.5090208436548" lon="10.655803811359924"><ele>81.42857142857143</ele><time>2026-04-19T13:20:18Z</time></trkpt><trkpt lat="43.508991420187016" lon="10.655713095402836"><ele>82.57142857142858</ele><time>2026-04-19T13:20:19Z</time></trkpt><trkpt lat="43.5089553481403" lon="10.655630393816178"><ele>83.71428571428572</ele><time>2026-04-19T13:20:20Z</time></trkpt><trkpt lat="43.50889815738586" lon="10.655567401096546"><ele>84.85714285714286</ele><time>2026-04-19T13:20:21Z</time></trkpt><trkpt lat="43.50885149598959" lon="10.655494468948302"><ele>86.0</ele><time>2026-04-19T13:20:22Z</time></trkpt><trkpt lat="43.50881755717396" lon="10.655414915248215"><ele>87.19999999999999</ele><time>2026-04-19T13:20:23Z</time></trkpt><trkpt lat="43.50873805004842" lon="10.655308764097114"><ele>88.39999999999999</ele><time>2026-04-19T13:20:25Z</time></trkpt><trkpt lat="43.50866770859321" lon="10.655212007849766"><ele>89.6</ele><time>2026-04-19T13:20:27Z</time></trkpt><trkpt lat="43.508593153049326" lon="10.655108924062088"><ele>90.8</ele><time>2026-04-19T13:20:29Z</time></trkpt><trkpt lat="43.508506546691635" lon="10.655017247788283"><ele>92.0</ele><time>2026-04-19T13:20:31Z</time></trkpt><trkpt lat="43.508427837110034" lon="10.654903241107359"><ele>93.25</ele><time>2026-04-19T13:20:33Z</time></trkpt><trkpt lat="43.508362601278755" lon="10.65478768401508"><ele>94.5</ele><time>2026-04-19T13:20:35Z</time></trkpt><trkpt lat="43.50826456503341" lon="10.65470863646728"><ele>95.75</ele><time>2026-04-19T13:20:37Z</time></trkpt><trkpt lat="43.508143042876874" lon="10.654650870766716"><ele>97.0</ele><time>2026-04-19T13:20:39Z</time></trkpt><trkpt lat="43.50802524745328" lon="10.65460102682741"><ele>97.0</ele><time>2026-04-19T13:20:41Z</time></trkpt><trkpt lat="43.507964374138055" lon="10.654574197354428"><ele>97.0</ele><time>2026-04-19T13:20:42Z</time></trkpt><trkpt lat="43.50790297571368" lon="10.654547136512836"><ele>97.0</ele><time>2026-04-19T13:20:43Z</time></trkpt><trkpt lat="43.50784034401114" lon="10.65452053717273"><ele>97.0</ele><time>2026-04-19T13:20:44Z</time></trkpt><trkpt lat="43.50777257897975" lon="10.654515927631353"><ele>97.0</ele><time>2026-04-19T13:20:45Z</time></trkpt><trkpt lat="43.50771297712053" lon="10.65446634737056"><ele>97.0</ele><time>2026-04-19T13:20:46Z</time></trkpt><trkpt lat="43.507646099604706" lon="10.654436593920604"><ele>97.0</ele><time>2026-04-19T13:20:47Z</time></trkpt><trkpt lat="43.507577606284066" lon="10.654402042964582"><ele>98.00000000000001</ele><time>2026-04-19T13:20:48Z</time></trkpt><trkpt lat="43.50750774660905" lon="10.654356608516897"><ele>99.0</ele><time>2026-04-19T13:20:49Z</time></trkpt><trkpt lat="43.507438845270656" lon="10.654301315840788"><ele>100.0</ele><time>2026-04-19T13:20:50Z</time></trkpt><trkpt lat="43.50736756195478" lon="10.654240435725637"><ele>101.0</ele><time>2026-04-19T13:20:51Z</time></trkpt><trkpt lat="43.50730035956955" lon="10.654175873773235"><ele>102.00000000000001</ele><time>2026-04-19T13:20:52Z</time></trkpt><trkpt lat="43.507223567463" lon="10.654125346520793"><ele>103.0</ele><time>2026-04-19T13:20:53Z</time></trkpt><trkpt lat="43.50715584925432" lon="10.654057635433842"><ele>103.00000000000001</ele><time>2026-04-19T13:20:54Z</time></trkpt><trkpt lat="43.507086302415885" lon="10.65399436643547"><ele>103.0</ele><time>2026-04-19T13:20:55Z</time></trkpt><trkpt lat="43.50702574734497" lon="10.653911851794136"><ele>103.0</ele><time>2026-04-19T13:20:56Z</time></trkpt><trkpt lat="43.50696018480824" lon="10.65384215494886"><ele>103.0</ele><time>2026-04-19T13:20:57Z</time></trkpt><trkpt lat="43.506899879091506" lon="10.653769698057715"><ele>103.00000000000001</ele><time>2026-04-19T13:20:58Z</time></trkpt><trkpt lat="43.50684297576821" lon="10.653695685417597"><ele>103.0</ele><time>2026-04-19T13:20:59Z</time></trkpt><trkpt lat="43.506787081450696" lon="10.653622237532502"><ele>103.66666666666667</ele><time>2026-04-19T13:21:00Z</time></trkpt><trkpt lat="43.50672056793064" lon="10.653557816182381"><ele>104.33333333333334</ele><time>2026-04-19T13:21:01Z</time></trkpt><trkpt lat="43.506663061740234" lon="10.653472197914008"><ele>105.0</ele><time>2026-04-19T13:21:02Z</time></trkpt><trkpt lat="43.506601948941906" lon="10.653382725342862"><ele>105.66666666666666</ele><time>2026-04-19T13:21:03Z</time></trkpt><trkpt lat="43.506535094324484" lon="10.65329593362286"><ele>106.33333333333333</ele><time>2026-04-19T13:21:04Z</time></trkpt><trkpt lat="43.506479258957974" lon="10.653194154506924"><ele>107.0</ele><time>2026-04-19T13:21:05Z</time></trkpt><trkpt lat="43.50641633571741" lon="10.653101229590511"><ele>107.0</ele><time>2026-04-19T13:21:05.999Z</time></trkpt><trkpt lat="43.506355762012944" lon="10.653007576883391"><ele>106.99999999999999</ele><time>2026-04-19T13:21:06.999Z</time></trkpt><trkpt lat="43.50629748900413" lon="10.652909584568192"><ele>106.99999999999999</ele><time>2026-04-19T13:21:07.999Z</time></trkpt><trkpt lat="43.50624349741316" lon="10.652804570688263"><ele>107.0</ele><time>2026-04-19T13:21:08.999Z</time></trkpt><trkpt lat="43.50619226274708" lon="10.652694897878364"><ele>107.0</ele><time>2026-04-19T13:21:09.999Z</time></trkpt><trkpt lat="43.50613031644785" lon="10.652594488388235"><ele>106.8</ele><time>2026-04-19T13:21:11Z</time></trkpt><trkpt lat="43.50608486643066" lon="10.652482452634475"><ele>106.6</ele><time>2026-04-19T13:21:12Z</time></trkpt><trkpt lat="43.50603734486656" lon="10.652372337969712"><ele>106.39999999999999</ele><time>2026-04-19T13:21:13Z</time></trkpt><trkpt lat="43.506004166340034" lon="10.652252120905171"><ele>106.19999999999999</ele><time>2026-04-19T13:21:14Z</time></trkpt><trkpt lat="43.50594315974031" lon="10.652156333908135"><ele>106.0</ele><time>2026-04-19T13:21:15Z</time></trkpt><trkpt lat="43.50589801056668" lon="10.652048325845797"><ele>106.8</ele><time>2026-04-19T13:21:16Z</time></trkpt><trkpt lat="43.505851908569944" lon="10.651940886284876"><ele>107.6</ele><time>2026-04-19T13:21:17Z</time></trkpt><trkpt lat="43.50580462668513" lon="10.651832961635268"><ele>108.4</ele><time>2026-04-19T13:21:18Z</time></trkpt><trkpt lat="43.505756857999415" lon="10.651724261775735"><ele>109.2</ele><time>2026-04-19T13:21:19Z</time></trkpt><trkpt lat="43.50570941435632" lon="10.651613630701364"><ele>110.0</ele><time>2026-04-19T13:21:20Z</time></trkpt><trkpt lat="43.505660891621844" lon="10.651502591215424"><ele>110.0</ele><time>2026-04-19T13:21:21Z</time></trkpt><trkpt lat="43.50562636501379" lon="10.651376788852257"><ele>110.0</ele><time>2026-04-19T13:21:22Z</time></trkpt><trkpt lat="43.505573351052" lon="10.651261488737559"><ele>110.0</ele><time>2026-04-19T13:21:23Z</time></trkpt><trkpt lat="43.50550611965002" lon="10.65115691590777"><ele>110.0</ele><time>2026-04-19T13:21:24Z</time></trkpt><trkpt lat="43.505450490824906" lon="10.651041942316438"><ele>110.0</ele><time>2026-04-19T13:21:25Z</time></trkpt><trkpt lat="43.50539285678563" lon="10.650935524765108"><ele>109.66666666666666</ele><time>2026-04-19T13:21:26Z</time></trkpt><trkpt lat="43.505337769278846" lon="10.650836157059233"><ele>109.33333333333333</ele><time>2026-04-19T13:21:27Z</time></trkpt><trkpt lat="43.505284640402635" lon="10.65074432958164"><ele>109.0</ele><time>2026-04-19T13:21:28Z</time></trkpt><trkpt lat="43.50523678064312" lon="10.650656461594217"><ele>108.66666666666666</ele><time>2026-04-19T13:21:29Z</time></trkpt><trkpt lat="43.50519462662799" lon="10.6505665469374"><ele>108.33333333333333</ele><time>2026-04-19T13:21:30Z</time></trkpt><trkpt lat="43.5051531984638" lon="10.65046775281766"><ele>108.0</ele><time>2026-04-19T13:21:31Z</time></trkpt><trkpt lat="43.50511598011006" lon="10.650364238651436"><ele>108.16666666666667</ele><time>2026-04-19T13:21:32Z</time></trkpt><trkpt lat="43.50508430031224" lon="10.65026022689092"><ele>108.33333333333334</ele><time>2026-04-19T13:21:33Z</time></trkpt><trkpt lat="43.505055796301" lon="10.650156030832978"><ele>108.5</ele><time>2026-04-19T13:21:34Z</time></trkpt><trkpt lat="43.50502991022981" lon="10.650053262869525"><ele>108.66666666666667</ele><time>2026-04-19T13:21:35Z</time></trkpt><trkpt lat="43.50500918168246" lon="10.64995047967864"><ele>108.83333333333334</ele><time>2026-04-19T13:21:36Z</time></trkpt><trkpt lat="43.504994309093064" lon="10.649844580350578"><ele>109.0</ele><time>2026-04-19T13:21:37Z</time></trkpt><trkpt lat="43.504985960039306" lon="10.649734631324657"><ele>109.00000000000001</ele><time>2026-04-19T13:21:38Z</time></trkpt><trkpt lat="43.50498083922704" lon="10.649623303966836"><ele>109.0</ele><time>2026-04-19T13:21:39Z</time></trkpt><trkpt lat="43.50497803690652" lon="10.649512145566996"><ele>109.0</ele><time>2026-04-19T13:21:40Z</time></trkpt><trkpt lat="43.50497520105843" lon="10.649401272166527"><ele>109.0</ele><time>2026-04-19T13:21:41Z</time></trkpt><trkpt lat="43.50497092187031" lon="10.649291872936136"><ele>109.00000000000001</ele><time>2026-04-19T13:21:42Z</time></trkpt><trkpt lat="43.504968069240206" lon="10.649182706895068"><ele>109.0</ele><time>2026-04-19T13:21:43Z</time></trkpt><trkpt lat="43.504965516726855" lon="10.649074708650748"><ele>109.50000000000001</ele><time>2026-04-19T13:21:44Z</time></trkpt><trkpt lat="43.50496158701549" lon="10.648968530342817"><ele>110.0</ele><time>2026-04-19T13:21:45Z</time></trkpt><trkpt lat="43.5049542461177" lon="10.648864153811758"><ele>110.5</ele><time>2026-04-19T13:21:46Z</time></trkpt><trkpt lat="43.50493761087164" lon="10.648763500111272"><ele>111.0</ele><time>2026-04-19T13:21:47Z</time></trkpt><trkpt lat="43.50490775695972" lon="10.648670547173673"><ele>111.50000000000001</ele><time>2026-04-19T13:21:48Z</time></trkpt><trkpt lat="43.504868506027215" lon="10.648584901390079"><ele>112.0</ele><time>2026-04-19T13:21:49Z</time></trkpt><trkpt lat="43.504840290613444" lon="10.648487920760981"><ele>112.50000000000001</ele><time>2026-04-19T13:21:50Z</time></trkpt><trkpt lat="43.504799855142124" lon="10.648398710507028"><ele>113.0</ele><time>2026-04-19T13:21:51Z</time></trkpt><trkpt lat="43.504758146443244" lon="10.648306911407207"><ele>113.5</ele><time>2026-04-19T13:21:52Z</time></trkpt><trkpt lat="43.504720249113305" lon="10.648216041063124"><ele>114.0</ele><time>2026-04-19T13:21:53Z</time></trkpt><trkpt lat="43.50468185628176" lon="10.648124576848174"><ele>114.50000000000001</ele><time>2026-04-19T13:21:54Z</time></trkpt><trkpt lat="43.50464332132699" lon="10.648033856328139"><ele>115.0</ele><time>2026-04-19T13:21:55Z</time></trkpt><trkpt lat="43.50460439026088" lon="10.647946975979117"><ele>114.99999999999999</ele><time>2026-04-19T13:21:56Z</time></trkpt><trkpt lat="43.504554120686365" lon="10.647876471291253"><ele>115.0</ele><time>2026-04-19T13:21:57Z</time></trkpt><trkpt lat="43.50451893818688" lon="10.647801493884007"><ele>114.99999999999999</ele><time>2026-04-19T13:21:58Z</time></trkpt><trkpt lat="43.504484111365414" lon="10.647724149513433"><ele>114.99999999999999</ele><time>2026-04-19T13:21:59Z</time></trkpt><trkpt lat="43.50444882302493" lon="10.64764555850644"><ele>115.0</ele><time>2026-04-19T13:22:00Z</time></trkpt><trkpt lat="43.504413615169895" lon="10.647566804274716"><ele>114.99999999999999</ele><time>2026-04-19T13:22:01Z</time></trkpt><trkpt lat="43.504380856967494" lon="10.647488624099532"><ele>114.99999999999999</ele><time>2026-04-19T13:22:02Z</time></trkpt><trkpt lat="43.504350031788135" lon="10.647410076539144"><ele>114.99999999999999</ele><time>2026-04-19T13:22:03Z</time></trkpt><trkpt lat="43.50431696523964" lon="10.647329015124862"><ele>115.0</ele><time>2026-04-19T13:22:04Z</time></trkpt><trkpt lat="43.504285176431225" lon="10.647246408496578"><ele>114.99999999999999</ele><time>2026-04-19T13:22:05Z</time></trkpt><trkpt lat="43.504253771980004" lon="10.64716197583489"><ele>114.99999999999999</ele><time>2026-04-19T13:22:06Z</time></trkpt><trkpt lat="43.50422354342654" lon="10.647074486991789"><ele>115.0</ele><time>2026-04-19T13:22:07Z</time></trkpt><trkpt lat="43.504193262229705" lon="10.646984438439546"><ele>114.99999999999999</ele><time>2026-04-19T13:22:08Z</time></trkpt><trkpt lat="43.50416150513636" lon="10.646897424121745"><ele>114.99999999999999</ele><time>2026-04-19T13:22:09Z</time></trkpt><trkpt lat="43.504132147187306" lon="10.646820032363383"><ele>116.16666666666667</ele><time>2026-04-19T13:22:10Z</time></trkpt><trkpt lat="43.504079117125336" lon="10.646679157734585"><ele>117.33333333333334</ele><time>2026-04-19T13:22:12Z</time></trkpt><trkpt lat="43.50403365016209" lon="10.646547567602616"><ele>118.5</ele><time>2026-04-19T13:22:14Z</time></trkpt><trkpt lat="43.50400685652596" lon="10.646457601956298"><ele>119.66666666666666</ele><time>2026-04-19T13:22:16Z</time></trkpt><trkpt lat="43.50398375658849" lon="10.646373594671271"><ele>120.83333333333333</ele><time>2026-04-19T13:22:18Z</time></trkpt><trkpt lat="43.50396930671474" lon="10.646271382512499"><ele>122.0</ele><time>2026-04-19T13:22:20Z</time></trkpt><trkpt lat="43.50391829184743" lon="10.646181877808276"><ele>123.0</ele><time>2026-04-19T13:22:22Z</time></trkpt><trkpt lat="43.503842865860626" lon="10.646107680661833"><ele>123.99999999999999</ele><time>2026-04-19T13:22:24Z</time></trkpt><trkpt lat="43.5037505235562" lon="10.646024263056805"><ele>124.99999999999999</ele><time>2026-04-19T13:22:26Z</time></trkpt><trkpt lat="43.50365017538123" lon="10.645940137741368"><ele>126.0</ele><time>2026-04-19T13:22:28Z</time></trkpt><trkpt lat="43.503594946852786" lon="10.645892525913421"><ele>127.0</ele><time>2026-04-19T13:22:29Z</time></trkpt><trkpt lat="43.50353580043306" lon="10.645840701879894"><ele>127.28571428571429</ele><time>2026-04-19T13:22:30Z</time></trkpt><trkpt lat="43.503472444931816" lon="10.645785189880016"><ele>127.57142857142856</ele><time>2026-04-19T13:22:31Z</time></trkpt><trkpt lat="43.50340890203287" lon="10.64572951376668"><ele>127.85714285714285</ele><time>2026-04-19T13:22:32Z</time></trkpt><trkpt lat="43.50335686416987" lon="10.645664346208854"><ele>128.14285714285714</ele><time>2026-04-19T13:22:33Z</time></trkpt><trkpt lat="43.50331083561076" lon="10.645592125904132"><ele>128.42857142857142</ele><time>2026-04-19T13:22:34Z</time></trkpt><trkpt lat="43.50327660330807" lon="10.645513154541305"><ele>128.7142857142857</ele><time>2026-04-19T13:22:35Z</time></trkpt><trkpt lat="43.50323959316468" lon="10.645430781221963"><ele>129.0</ele><time>2026-04-19T13:22:36Z</time></trkpt><trkpt lat="43.50324177003872" lon="10.645326453832622"><ele>129.33333333333334</ele><time>2026-04-19T13:22:37Z</time></trkpt><trkpt lat="43.50323247560059" lon="10.645222809753987"><ele>129.66666666666666</ele><time>2026-04-19T13:22:38Z</time></trkpt><trkpt lat="43.50320828790958" lon="10.64511722122045"><ele>130.0</ele><time>2026-04-19T13:22:39Z</time></trkpt><trkpt lat="43.50321607847594" lon="10.645001485004073"><ele>130.33333333333331</ele><time>2026-04-19T13:22:40Z</time></trkpt><trkpt lat="43.50320687815946" lon="10.64488749254115"><ele>130.66666666666666</ele><time>2026-04-19T13:22:41Z</time></trkpt><trkpt lat="43.50318201848421" lon="10.64477333400773"><ele>131.0</ele><time>2026-04-19T13:22:42Z</time></trkpt><trkpt lat="43.50317397698453" lon="10.644655972888218"><ele>131.0</ele><time>2026-04-19T13:22:43Z</time></trkpt><trkpt lat="43.50316132424325" lon="10.644533924808972"><ele>131.0</ele><time>2026-04-19T13:22:44Z</time></trkpt><trkpt lat="43.503147732468335" lon="10.644414397608958"><ele>131.0</ele><time>2026-04-19T13:22:45Z</time></trkpt><trkpt lat="43.503135295981544" lon="10.644295592150067"><ele>131.0</ele><time>2026-04-19T13:22:46Z</time></trkpt><trkpt lat="43.50312351908126" lon="10.644177871213202"><ele>131.0</ele><time>2026-04-19T13:22:47Z</time></trkpt><trkpt lat="43.50311045505221" lon="10.644062207341213"><ele>131.0</ele><time>2026-04-19T13:22:48Z</time></trkpt><trkpt lat="43.5030914405747" lon="10.643947804614314"><ele>131.0</ele><time>2026-04-19T13:22:49Z</time></trkpt><trkpt lat="43.50306543966518" lon="10.643835572569069"><ele>131.0</ele><time>2026-04-19T13:22:50Z</time></trkpt><trkpt lat="43.50303346761664" lon="10.643726560594406"><ele>131.0</ele><time>2026-04-19T13:22:51Z</time></trkpt><trkpt lat="43.50299632269359" lon="10.643618871141559"><ele>131.0</ele><time>2026-04-19T13:22:52Z</time></trkpt><trkpt lat="43.50295947068354" lon="10.643513759573418"><ele>131.0</ele><time>2026-04-19T13:22:53Z</time></trkpt><trkpt lat="43.502939059182594" lon="10.643407971814536"><ele>131.0</ele><time>2026-04-19T13:22:54Z</time></trkpt><trkpt lat="43.50290761185331" lon="10.643317118240798"><ele>131.33333333333331</ele><time>2026-04-19T13:22:55Z</time></trkpt><trkpt lat="43.502877317189686" lon="10.643231442272256"><ele>131.66666666666666</ele><time>2026-04-19T13:22:56Z</time></trkpt><trkpt lat="43.5028450100414" lon="10.643149986177965"><ele>132.0</ele><time>2026-04-19T13:22:57Z</time></trkpt><trkpt lat="43.502810356516925" lon="10.643071123897807"><ele>132.33333333333334</ele><time>2026-04-19T13:22:58Z</time></trkpt><trkpt lat="43.50274793277032" lon="10.64292956978781"><ele>132.66666666666669</ele><time>2026-04-19T13:23:00Z</time></trkpt><trkpt lat="43.50270083763124" lon="10.642796443252731"><ele>133.0</ele><time>2026-04-19T13:23:02Z</time></trkpt><trkpt lat="43.50266184676324" lon="10.642644048042136"><ele>134.5</ele><time>2026-04-19T13:23:04Z</time></trkpt><trkpt lat="43.50263392620908" lon="10.642494232382658"><ele>136.0</ele><time>2026-04-19T13:23:06Z</time></trkpt><trkpt lat="43.50260251922942" lon="10.642339823981995"><ele>137.5</ele><time>2026-04-19T13:23:08Z</time></trkpt><trkpt lat="43.50257213975541" lon="10.64217584193014"><ele>139.0</ele><time>2026-04-19T13:23:10Z</time></trkpt><trkpt lat="43.50254729083236" lon="10.642021417185624"><ele>139.83333333333334</ele><time>2026-04-19T13:23:12Z</time></trkpt><trkpt lat="43.50253785897702" lon="10.641924201594408"><ele>140.66666666666669</ele><time>2026-04-19T13:23:14Z</time></trkpt><trkpt lat="43.502524563982384" lon="10.641812482040201"><ele>141.5</ele><time>2026-04-19T13:23:16Z</time></trkpt><trkpt lat="43.502554024888894" lon="10.641734731635943"><ele>142.33333333333334</ele><time>2026-04-19T13:23:17Z</time></trkpt><trkpt lat="43.50256205543644" lon="10.641646389690205"><ele>143.16666666666666</ele><time>2026-04-19T13:23:18Z</time></trkpt><trkpt lat="43.50257496317423" lon="10.641501204832844"><ele>144.0</ele><time>2026-04-19T13:23:20Z</time></trkpt><trkpt lat="43.502621864313554" lon="10.64139185777191"><ele>144.0</ele><time>2026-04-19T13:23:22Z</time></trkpt><trkpt lat="43.50262468814853" lon="10.64127215916805"><ele>144.0</ele><time>2026-04-19T13:23:24Z</time></trkpt><trkpt lat="43.50262380312049" lon="10.641168967909435"><ele>144.0</ele><time>2026-04-19T13:23:27Z</time></trkpt><trkpt lat="43.5025842855821" lon="10.641085963215929"><ele>144.0</ele><time>2026-04-19T13:23:31Z</time></trkpt><trkpt lat="43.50251227488394" lon="10.641029849465387"><ele>144.0</ele><time>2026-04-19T13:23:34Z</time></trkpt><trkpt lat="43.50246279760939" lon="10.640947004523307"><ele>144.0</ele><time>2026-04-19T13:23:37Z</time></trkpt><trkpt lat="43.50238757691658" lon="10.640912055675907"><ele>145.0</ele><time>2026-04-19T13:23:46Z</time></trkpt><trkpt lat="43.50231570470353" lon="10.640862551417287"><ele>146.0</ele><time>2026-04-19T13:23:50Z</time></trkpt><trkpt lat="43.50227686338041" lon="10.640793996274619"><ele>147.0</ele><time>2026-04-19T13:23:52Z</time></trkpt><trkpt lat="43.50223993812917" lon="10.640709432025181"><ele>148.0</ele><time>2026-04-19T13:23:54Z</time></trkpt><trkpt lat="43.50219992817057" lon="10.640597626146237"><ele>149.0</ele><time>2026-04-19T13:23:57Z</time></trkpt><trkpt lat="43.5021579416277" lon="10.640525434981713"><ele>150.0</ele><time>2026-04-19T13:24:00Z</time></trkpt><trkpt lat="43.50211595232052" lon="10.640433894885266"><ele>151.99999999999997</ele><time>2026-04-19T13:24:13Z</time></trkpt><trkpt lat="43.50208145888075" lon="10.640356992964447"><ele>154.0</ele><time>2026-04-19T13:24:18Z</time></trkpt><trkpt lat="43.502041540352316" lon="10.640287753893114"><ele>156.0</ele><time>2026-04-19T13:24:24Z</time></trkpt><trkpt lat="43.50201081386559" lon="10.640198777071838"><ele>158.0</ele><time>2026-04-19T13:24:40Z</time></trkpt><trkpt lat="43.50195448014982" lon="10.640149095451427"><ele>160.0</ele><time>2026-04-19T13:24:46Z</time></trkpt><trkpt lat="43.501939429168516" lon="10.640042553784623"><ele>161.99999999999997</ele><time>2026-04-19T13:24:52Z</time></trkpt><trkpt lat="43.50196851351467" lon="10.639943947125635"><ele>164.0</ele><time>2026-04-19T13:24:56Z</time></trkpt><trkpt lat="43.501971078878604" lon="10.63983672298366"><ele>165.66666666666666</ele><time>2026-04-19T13:25:01Z</time></trkpt><trkpt lat="43.50198391593154" lon="10.639730888327113"><ele>167.33333333333331</ele><time>2026-04-19T13:25:07Z</time></trkpt><trkpt lat="43.502000694759325" lon="10.639623634770086"><ele>169.0</ele><time>2026-04-19T13:25:12Z</time></trkpt><trkpt lat="43.502008397058404" lon="10.639526119079552"><ele>170.66666666666666</ele><time>2026-04-19T13:25:16Z</time></trkpt><trkpt lat="43.502019408582655" lon="10.63943608548473"><ele>172.33333333333334</ele><time>2026-04-19T13:25:19Z</time></trkpt><trkpt lat="43.502036291803286" lon="10.639348986562704"><ele>174.0</ele><time>2026-04-19T13:25:21Z</time></trkpt><trkpt lat="43.502076902402656" lon="10.639233142216838"><ele>175.66666666666666</ele><time>2026-04-19T13:25:24Z</time></trkpt><trkpt lat="43.502094795187084" lon="10.639136660336444"><ele>177.33333333333334</ele><time>2026-04-19T13:25:26Z</time></trkpt><trkpt lat="43.50209908630028" lon="10.639038516795845"><ele>179.0</ele><time>2026-04-19T13:25:28Z</time></trkpt><trkpt lat="43.50213324778965" lon="10.638923217882173"><ele>180.66666666666669</ele><time>2026-04-19T13:25:31Z</time></trkpt><trkpt lat="43.50212804641856" lon="10.63879803034551"><ele>182.33333333333334</ele><time>2026-04-19T13:25:34Z</time></trkpt><trkpt lat="43.5020834732528" lon="10.638684591061958"><ele>184.0</ele><time>2026-04-19T13:25:37Z</time></trkpt><trkpt lat="43.50202910462303" lon="10.638578011473484"><ele>184.0</ele><time>2026-04-19T13:25:40Z</time></trkpt><trkpt lat="43.50199403705929" lon="10.6384961164819"><ele>184.0</ele><time>2026-04-19T13:25:42Z</time></trkpt><trkpt lat="43.50195765710438" lon="10.638421623889176"><ele>184.0</ele><time>2026-04-19T13:25:44Z</time></trkpt><trkpt lat="43.50189651201054" lon="10.638323007531083"><ele>184.0</ele><time>2026-04-19T13:25:47Z</time></trkpt><trkpt lat="43.50185106973716" lon="10.638257364901405"><ele>184.0</ele><time>2026-04-19T13:25:49Z</time></trkpt><trkpt lat="43.50179118983049" lon="10.638180217594323"><ele>184.0</ele><time>2026-04-19T13:25:52Z</time></trkpt><trkpt lat="43.501728582971715" lon="10.638127882967167"><ele>184.0</ele><time>2026-04-19T13:25:56Z</time></trkpt><trkpt lat="43.5017119041607" lon="10.638037766108058"><ele>184.0</ele><time>2026-04-19T13:25:59Z</time></trkpt><trkpt lat="43.50175511036615" lon="10.637953749990281"><ele>184.0</ele><time>2026-04-19T13:26:01Z</time></trkpt><trkpt lat="43.501817066824785" lon="10.637884848701187"><ele>184.0</ele><time>2026-04-19T13:26:03Z</time></trkpt><trkpt lat="43.50187627140371" lon="10.63781266952389"><ele>184.0</ele><time>2026-04-19T13:26:06Z</time></trkpt><trkpt lat="43.50193212697805" lon="10.63774684177196"><ele>184.0</ele><time>2026-04-19T13:26:08Z</time></trkpt><trkpt lat="43.50203557707437" lon="10.637628910486537"><ele>184.0</ele><time>2026-04-19T13:26:10Z</time></trkpt><trkpt lat="43.50210102021119" lon="10.637554636778903"><ele>182.39999999999998</ele><time>2026-04-19T13:26:11Z</time></trkpt><trkpt lat="43.50217261251343" lon="10.637472885772585"><ele>180.8</ele><time>2026-04-19T13:26:12Z</time></trkpt><trkpt lat="43.50224832267401" lon="10.637384189227754"><ele>179.2</ele><time>2026-04-19T13:26:13Z</time></trkpt><trkpt lat="43.50232243069742" lon="10.637290268604067"><ele>177.60000000000002</ele><time>2026-04-19T13:26:14Z</time></trkpt><trkpt lat="43.50239088402931" lon="10.63718777341225"><ele>176.0</ele><time>2026-04-19T13:26:15Z</time></trkpt><trkpt lat="43.50245453872314" lon="10.637073112004328"><ele>177.0</ele><time>2026-04-19T13:26:16Z</time></trkpt><trkpt lat="43.50251218177612" lon="10.636954555297736"><ele>178.0</ele><time>2026-04-19T13:26:17Z</time></trkpt><trkpt lat="43.5025652511278" lon="10.636847882942439"><ele>179.0</ele><time>2026-04-19T13:26:18Z</time></trkpt><trkpt lat="43.50261846629691" lon="10.636764200886304"><ele>180.0</ele><time>2026-04-19T13:26:19Z</time></trkpt><trkpt lat="43.50268437794286" lon="10.63670686973882"><ele>181.0</ele><time>2026-04-19T13:26:20Z</time></trkpt><trkpt lat="43.50276048894648" lon="10.6366831313974"><ele>182.0</ele><time>2026-04-19T13:26:21Z</time></trkpt><trkpt lat="43.50284680595194" lon="10.636685552970045"><ele>180.0</ele><time>2026-04-19T13:26:22Z</time></trkpt><trkpt lat="43.50293673045666" lon="10.636689516521798"><ele>178.0</ele><time>2026-04-19T13:26:23Z</time></trkpt><trkpt lat="43.50302785503185" lon="10.63667377375986"><ele>176.0</ele><time>2026-04-19T13:26:24Z</time></trkpt><trkpt lat="43.503117422236656" lon="10.636637234782942"><ele>174.0</ele><time>2026-04-19T13:26:25Z</time></trkpt><trkpt lat="43.503201967609435" lon="10.636588639740019"><ele>172.0</ele><time>2026-04-19T13:26:26Z</time></trkpt><trkpt lat="43.5032823038774" lon="10.63653669201635"><ele>172.0</ele><time>2026-04-19T13:26:27Z</time></trkpt><trkpt lat="43.503361598093534" lon="10.63647653220412"><ele>172.0</ele><time>2026-04-19T13:26:28Z</time></trkpt><trkpt lat="43.50344717128732" lon="10.63641398250665"><ele>172.0</ele><time>2026-04-19T13:26:29Z</time></trkpt><trkpt lat="43.50353156310615" lon="10.636353883505555"><ele>172.0</ele><time>2026-04-19T13:26:30Z</time></trkpt><trkpt lat="43.503612558874416" lon="10.636294643315582"><ele>172.0</ele><time>2026-04-19T13:26:31Z</time></trkpt><trkpt lat="43.50368858859915" lon="10.636230970983222"><ele>171.0</ele><time>2026-04-19T13:26:32Z</time></trkpt><trkpt lat="43.50375787031173" lon="10.636154856941824"><ele>170.0</ele><time>2026-04-19T13:26:33Z</time></trkpt><trkpt lat="43.50381785108659" lon="10.636054739725816"><ele>169.0</ele><time>2026-04-19T13:26:34Z</time></trkpt><trkpt lat="43.50386295462859" lon="10.635939984286608"><ele>168.0</ele><time>2026-04-19T13:26:35Z</time></trkpt><trkpt lat="43.503893686596875" lon="10.63582165148215"><ele>167.0</ele><time>2026-04-19T13:26:36Z</time></trkpt><trkpt lat="43.5039179399826" lon="10.63570237088103"><ele>167.0</ele><time>2026-04-19T13:26:37Z</time></trkpt><trkpt lat="43.50393991807437" lon="10.635586548820635"><ele>167.0</ele><time>2026-04-19T13:26:38Z</time></trkpt><trkpt lat="43.50396965628915" lon="10.635478689233027"><ele>167.0</ele><time>2026-04-19T13:26:39Z</time></trkpt><trkpt lat="43.50401369232708" lon="10.635387124051716"><ele>167.0</ele><time>2026-04-19T13:26:40Z</time></trkpt><trkpt lat="43.50407172433454" lon="10.635320183854832"><ele>167.0</ele><time>2026-04-19T13:26:41Z</time></trkpt><trkpt lat="43.50413737189239" lon="10.635289633187403"><ele>167.0</ele><time>2026-04-19T13:26:42Z</time></trkpt><trkpt lat="43.50421756505469" lon="10.635288264293013"><ele>167.0</ele><time>2026-04-19T13:26:43Z</time></trkpt><trkpt lat="43.50428526819784" lon="10.63533561803434"><ele>167.0</ele><time>2026-04-19T13:26:44Z</time></trkpt><trkpt lat="43.504352109275516" lon="10.635411490763216"><ele>167.0</ele><time>2026-04-19T13:26:45Z</time></trkpt><trkpt lat="43.504420491244" lon="10.635499342377221"><ele>167.0</ele><time>2026-04-19T13:26:46Z</time></trkpt><trkpt lat="43.504491731017616" lon="10.635592687285618"><ele>167.0</ele><time>2026-04-19T13:26:47Z</time></trkpt><trkpt lat="43.50456827202819" lon="10.635686051478093"><ele>165.4</ele><time>2026-04-19T13:26:48Z</time></trkpt><trkpt lat="43.50464707203629" lon="10.635779017926222"><ele>163.79999999999998</ele><time>2026-04-19T13:26:49Z</time></trkpt><trkpt lat="43.504722628841726" lon="10.635871562731381"><ele>162.2</ele><time>2026-04-19T13:26:50Z</time></trkpt><trkpt lat="43.50479252000734" lon="10.635965179057008"><ele>160.6</ele><time>2026-04-19T13:26:51Z</time></trkpt><trkpt lat="43.504856659672384" lon="10.63606095847416"><ele>159.0</ele><time>2026-04-19T13:26:52Z</time></trkpt><trkpt lat="43.50491754990966" lon="10.636166881022147"><ele>159.0</ele><time>2026-04-19T13:26:53Z</time></trkpt><trkpt lat="43.504974108605005" lon="10.636279183236802"><ele>159.0</ele><time>2026-04-19T13:26:54Z</time></trkpt><trkpt lat="43.50502004828123" lon="10.636394015777062"><ele>159.0</ele><time>2026-04-19T13:26:55Z</time></trkpt><trkpt lat="43.50503602232851" lon="10.63652060938213"><ele>159.0</ele><time>2026-04-19T13:26:56Z</time></trkpt><trkpt lat="43.50507014115343" lon="10.636636170357196"><ele>159.0</ele><time>2026-04-19T13:26:57Z</time></trkpt><trkpt lat="43.5050999557507" lon="10.636757581916505"><ele>159.0</ele><time>2026-04-19T13:26:58Z</time></trkpt><trkpt lat="43.50515547622401" lon="10.63686373030337"><ele>159.0</ele><time>2026-04-19T13:26:59Z</time></trkpt><trkpt lat="43.50523948176175" lon="10.636918205097231"><ele>159.0</ele><time>2026-04-19T13:27:00Z</time></trkpt><trkpt lat="43.5053322218589" lon="10.636911076237636"><ele>159.0</ele><time>2026-04-19T13:27:01Z</time></trkpt><trkpt lat="43.50540882235705" lon="10.636844535494095"><ele>159.0</ele><time>2026-04-19T13:27:02Z</time></trkpt><trkpt lat="43.50545442468864" lon="10.636741308859532"><ele>159.0</ele><time>2026-04-19T13:27:03Z</time></trkpt><trkpt lat="43.50547789221545" lon="10.636627379934334"><ele>159.0</ele><time>2026-04-19T13:27:04Z</time></trkpt><trkpt lat="43.505481311392245" lon="10.636511808081137"><ele>159.0</ele><time>2026-04-19T13:27:05Z</time></trkpt><trkpt lat="43.5054538337312" lon="10.636397961610307"><ele>159.0</ele><time>2026-04-19T13:27:06Z</time></trkpt><trkpt lat="43.505408694022194" lon="10.63628557723841"><ele>159.0</ele><time>2026-04-19T13:27:07Z</time></trkpt><trkpt lat="43.50534499140471" lon="10.636184299823933"><ele>159.0</ele><time>2026-04-19T13:27:08Z</time></trkpt><trkpt lat="43.50529486472151" lon="10.636073676184994"><ele>158.6</ele><time>2026-04-19T13:27:09Z</time></trkpt><trkpt lat="43.50523053352877" lon="10.635986542696912"><ele>158.2</ele><time>2026-04-19T13:27:10Z</time></trkpt><trkpt lat="43.505203048491815" lon="10.635873272411372"><ele>157.79999999999998</ele><time>2026-04-19T13:27:11Z</time></trkpt><trkpt lat="43.505197774352254" lon="10.63575026394201"><ele>157.4</ele><time>2026-04-19T13:27:12Z</time></trkpt><trkpt lat="43.50521504068823" lon="10.635623594719156"><ele>157.0</ele><time>2026-04-19T13:27:13Z</time></trkpt><trkpt lat="43.5052462424076" lon="10.635497378313751"><ele>157.0</ele><time>2026-04-19T13:27:14Z</time></trkpt><trkpt lat="43.50527882879871" lon="10.635373693106052"><ele>157.0</ele><time>2026-04-19T13:27:15Z</time></trkpt><trkpt lat="43.505295847143536" lon="10.635243769022912"><ele>157.0</ele><time>2026-04-19T13:27:16Z</time></trkpt><trkpt lat="43.505291031484646" lon="10.635105490189712"><ele>157.0</ele><time>2026-04-19T13:27:17Z</time></trkpt><trkpt lat="43.50526614607916" lon="10.634966690154043"><ele>157.0</ele><time>2026-04-19T13:27:18Z</time></trkpt><trkpt lat="43.505225104323245" lon="10.634832023865506"><ele>156.2</ele><time>2026-04-19T13:27:19Z</time></trkpt><trkpt lat="43.50518516578809" lon="10.634694256932866"><ele>155.39999999999998</ele><time>2026-04-19T13:27:20Z</time></trkpt><trkpt lat="43.50515264737474" lon="10.634555794913567"><ele>154.60000000000002</ele><time>2026-04-19T13:27:21Z</time></trkpt><trkpt lat="43.505134032503314" lon="10.634416337300744"><ele>153.8</ele><time>2026-04-19T13:27:22Z</time></trkpt><trkpt lat="43.50513046831711" lon="10.63428072225556"><ele>153.0</ele><time>2026-04-19T13:27:23Z</time></trkpt><trkpt lat="43.50514168157741" lon="10.634162070494481"><ele>152.5</ele><time>2026-04-19T13:27:24Z</time></trkpt><trkpt lat="43.50515937778768" lon="10.634061046262696"><ele>152.0</ele><time>2026-04-19T13:27:25Z</time></trkpt><trkpt lat="43.5052010356601" lon="10.633912137452702"><ele>151.5</ele><time>2026-04-19T13:27:27Z</time></trkpt><trkpt lat="43.505211697046406" lon="10.633823959084799"><ele>151.0</ele><time>2026-04-19T13:27:29Z</time></trkpt><trkpt lat="43.50521622674117" lon="10.633723970501867"><ele>150.5</ele><time>2026-04-19T13:27:31Z</time></trkpt><trkpt lat="43.50521391802076" lon="10.633628003666288"><ele>150.0</ele><time>2026-04-19T13:27:33Z</time></trkpt><trkpt lat="43.50520654872677" lon="10.633534203568878"><ele>150.0</ele><time>2026-04-19T13:27:38Z</time></trkpt><trkpt lat="43.50519868288428" lon="10.63344701248271"><ele>150.0</ele><time>2026-04-19T13:27:41Z</time></trkpt><trkpt lat="43.50532161808935" lon="10.633425524376086"><ele>150.0</ele><time>2026-04-19T13:28:30Z</time></trkpt><trkpt lat="43.5053410212851" lon="10.633517466428662"><ele>150.0</ele><time>2026-04-19T13:28:55Z</time></trkpt><trkpt lat="43.505363270519375" lon="10.633603666883255"><ele>150.0</ele><time>2026-04-19T13:29:03Z</time></trkpt><trkpt lat="43.50537622540019" lon="10.633688964832462"><ele>150.0</ele><time>2026-04-19T13:29:09Z</time></trkpt><trkpt lat="43.50541885549977" lon="10.633776367430258"><ele>149.85714285714283</ele><time>2026-04-19T13:29:17Z</time></trkpt><trkpt lat="43.50549457845762" lon="10.633842888350367"><ele>149.71428571428572</ele><time>2026-04-19T13:29:32.999Z</time></trkpt><trkpt lat="43.50542928394073" lon="10.633846191828614"><ele>149.57142857142856</ele><time>2026-04-19T13:31:43Z</time></trkpt><trkpt lat="43.50544714809019" lon="10.633760583317562"><ele>149.42857142857142</ele><time>2026-04-19T13:31:49Z</time></trkpt><trkpt lat="43.505488840671696" lon="10.633680829793917"><ele>149.28571428571428</ele><time>2026-04-19T13:31:59Z</time></trkpt><trkpt lat="43.505411318878956" lon="10.63369378007551"><ele>149.14285714285714</ele><time>2026-04-19T14:03:31Z</time></trkpt><trkpt lat="43.50541718790619" lon="10.633783575110586"><ele>149.0</ele><time>2026-04-19T14:03:35.999Z</time></trkpt><trkpt lat="43.50539580855012" lon="10.63369331127622"><ele>149.16666666666666</ele><time>2026-04-19T14:04:08.999Z</time></trkpt><trkpt lat="43.505406446240954" lon="10.633600659621454"><ele>149.33333333333331</ele><time>2026-04-19T14:04:13.999Z</time></trkpt><trkpt lat="43.50536751972146" lon="10.633523028907929"><ele>149.5</ele><time>2026-04-19T14:04:19.999Z</time></trkpt><trkpt lat="43.505326510825086" lon="10.633447921448068"><ele>149.66666666666666</ele><time>2026-04-19T14:04:25.999Z</time></trkpt><trkpt lat="43.50526909852596" lon="10.63338918082085"><ele>149.83333333333334</ele><time>2026-04-19T14:04:33.999Z</time></trkpt><trkpt lat="43.50532508590355" lon="10.633438534180788"><ele>150.0</ele><time>2026-04-19T14:07:40Z</time></trkpt><trkpt lat="43.50533359473586" lon="10.63360706450825"><ele>150.0</ele><time>2026-04-19T14:07:48Z</time></trkpt><trkpt lat="43.50534760670018" lon="10.633707385633048"><ele>150.0</ele><time>2026-04-19T14:07:50Z</time></trkpt><trkpt lat="43.50532914377208" lon="10.633796522188065"><ele>150.0</ele><time>2026-04-19T14:08:29Z</time></trkpt><trkpt lat="43.505285023816285" lon="10.633860000390525"><ele>150.0</ele><time>2026-04-19T14:08:32Z</time></trkpt><trkpt lat="43.5052108214441" lon="10.633828530113949"><ele>150.0</ele><time>2026-04-19T14:08:38Z</time></trkpt><trkpt lat="43.505193848096404" lon="10.633690139518734"><ele>150.0</ele><time>2026-04-19T14:08:41Z</time></trkpt><trkpt lat="43.50519583009134" lon="10.633539122372442"><ele>150.0</ele><time>2026-04-19T14:08:43Z</time></trkpt><trkpt lat="43.505182090861396" lon="10.633370588082634"><ele>150.0</ele><time>2026-04-19T14:08:45Z</time></trkpt><trkpt lat="43.505166649886306" lon="10.63328477800349"><ele>150.0</ele><time>2026-04-19T14:08:46Z</time></trkpt><trkpt lat="43.50514959244303" lon="10.633192156579039"><ele>150.0</ele><time>2026-04-19T14:08:47Z</time></trkpt><trkpt lat="43.50513290191417" lon="10.633094328781462"><ele>150.0</ele><time>2026-04-19T14:08:48Z</time></trkpt><trkpt lat="43.50511793802625" lon="10.633005197880586"><ele>150.0</ele><time>2026-04-19T14:08:49Z</time></trkpt><trkpt lat="43.50510045689113" lon="10.63284038836622"><ele>149.5</ele><time>2026-04-19T14:08:51Z</time></trkpt><trkpt lat="43.50512916136245" lon="10.632680182321064"><ele>149.0</ele><time>2026-04-19T14:08:53Z</time></trkpt><trkpt lat="43.505159980079426" lon="10.632595440870654"><ele>148.5</ele><time>2026-04-19T14:08:54Z</time></trkpt><trkpt lat="43.505212074061454" lon="10.632523664392236"><ele>148.0</ele><time>2026-04-19T14:08:55Z</time></trkpt><trkpt lat="43.50527774892567" lon="10.632467583608381"><ele>147.5</ele><time>2026-04-19T14:08:56Z</time></trkpt><trkpt lat="43.505357104613694" lon="10.6324217538009"><ele>147.0</ele><time>2026-04-19T14:08:57Z</time></trkpt><trkpt lat="43.505443375536146" lon="10.63237727899759"><ele>145.6</ele><time>2026-04-19T14:08:58Z</time></trkpt><trkpt lat="43.505538418156675" lon="10.63232555582518"><ele>144.2</ele><time>2026-04-19T14:08:59Z</time></trkpt><trkpt lat="43.50563946133386" lon="10.632268726872574"><ele>142.8</ele><time>2026-04-19T14:09:00Z</time></trkpt><trkpt lat="43.505747238627514" lon="10.632211509256125"><ele>141.4</ele><time>2026-04-19T14:09:01Z</time></trkpt><trkpt lat="43.505858185904565" lon="10.63216855358481"><ele>140.0</ele><time>2026-04-19T14:09:02Z</time></trkpt><trkpt lat="43.50597507271776" lon="10.632141055128264"><ele>140.0</ele><time>2026-04-19T14:09:03Z</time></trkpt><trkpt lat="43.506096739816165" lon="10.632128931050799"><ele>140.0</ele><time>2026-04-19T14:09:04Z</time></trkpt><trkpt lat="43.50622070583141" lon="10.63213373390556"><ele>140.0</ele><time>2026-04-19T14:09:05Z</time></trkpt><trkpt lat="43.506348428059425" lon="10.632159657438594"><ele>140.0</ele><time>2026-04-19T14:09:06Z</time></trkpt><trkpt lat="43.50648167984552" lon="10.632191488937822"><ele>140.0</ele><time>2026-04-19T14:09:07Z</time></trkpt><trkpt lat="43.50661486550895" lon="10.63222229071328"><ele>140.0</ele><time>2026-04-19T14:09:08Z</time></trkpt><trkpt lat="43.506747233565775" lon="10.632257915546864"><ele>140.0</ele><time>2026-04-19T14:09:09Z</time></trkpt><trkpt lat="43.506879526094316" lon="10.63229289025637"><ele>140.0</ele><time>2026-04-19T14:09:10Z</time></trkpt><trkpt lat="43.507003284601815" lon="10.632332539289568"><ele>142.75</ele><time>2026-04-19T14:09:11Z</time></trkpt><trkpt lat="43.50711772207782" lon="10.632384026370843"><ele>145.5</ele><time>2026-04-19T14:09:12Z</time></trkpt><trkpt lat="43.507222143694555" lon="10.632455666054197"><ele>148.25</ele><time>2026-04-19T14:09:13Z</time></trkpt><trkpt lat="43.50731699504675" lon="10.63254664661605"><ele>151.0</ele><time>2026-04-19T14:09:14Z</time></trkpt><trkpt lat="43.507407321021375" lon="10.632657463244858"><ele>151.0</ele><time>2026-04-19T14:09:15Z</time></trkpt><trkpt lat="43.50748302563263" lon="10.63278880109441"><ele>151.0</ele><time>2026-04-19T14:09:16Z</time></trkpt><trkpt lat="43.50754493592846" lon="10.632928535238815"><ele>151.0</ele><time>2026-04-19T14:09:17Z</time></trkpt><trkpt lat="43.50758355614974" lon="10.633072600523176"><ele>151.0</ele><time>2026-04-19T14:09:18Z</time></trkpt><trkpt lat="43.50761236353166" lon="10.633192098970365"><ele>151.0</ele><time>2026-04-19T14:09:19Z</time></trkpt><trkpt lat="43.50764041827594" lon="10.633295519124587"><ele>149.66666666666669</ele><time>2026-04-19T14:09:20Z</time></trkpt><trkpt lat="43.50769112432752" lon="10.63336719354508"><ele>148.33333333333334</ele><time>2026-04-19T14:09:20.999Z</time></trkpt><trkpt lat="43.507755075410174" lon="10.633414962101401"><ele>147.0</ele><time>2026-04-19T14:09:21.999Z</time></trkpt><trkpt lat="43.50783303160108" lon="10.633426804270275"><ele>145.66666666666666</ele><time>2026-04-19T14:09:22.999Z</time></trkpt><trkpt lat="43.507910614749946" lon="10.633404941805045"><ele>144.33333333333331</ele><time>2026-04-19T14:09:23.999Z</time></trkpt><trkpt lat="43.50799789912656" lon="10.63332819280687"><ele>143.0</ele><time>2026-04-19T14:09:24.999Z</time></trkpt><trkpt lat="43.508074508744215" lon="10.633238563919658"><ele>143.0</ele><time>2026-04-19T14:09:25.999Z</time></trkpt><trkpt lat="43.508158763399145" lon="10.633172993003011"><ele>143.0</ele><time>2026-04-19T14:09:27.999Z</time></trkpt><trkpt lat="43.5082353444242" lon="10.633143932763769"><ele>143.0</ele><time>2026-04-19T14:09:28.999Z</time></trkpt><trkpt lat="43.50835925723892" lon="10.633172783015743"><ele>143.0</ele><time>2026-04-19T14:09:30.999Z</time></trkpt><trkpt lat="43.50841424585775" lon="10.633225399704562"><ele>143.0</ele><time>2026-04-19T14:09:31.999Z</time></trkpt><trkpt lat="43.50844564043131" lon="10.633312705136001"><ele>143.0</ele><time>2026-04-19T14:09:32.999Z</time></trkpt><trkpt lat="43.508482862919756" lon="10.63338841664162"><ele>142.99999999999997</ele><time>2026-04-19T14:09:33.999Z</time></trkpt><trkpt lat="43.50851821998976" lon="10.633463416208203"><ele>143.0</ele><time>2026-04-19T14:09:34.999Z</time></trkpt><trkpt lat="43.508566924891696" lon="10.633530778353053"><ele>143.0</ele><time>2026-04-19T14:09:35.999Z</time></trkpt><trkpt lat="43.50860462939164" lon="10.633612129568759"><ele>143.0</ele><time>2026-04-19T14:09:36.999Z</time></trkpt><trkpt lat="43.50864219416014" lon="10.633696147093376"><ele>143.0</ele><time>2026-04-19T14:09:37.999Z</time></trkpt><trkpt lat="43.508688675288745" lon="10.633787237207216"><ele>142.99999999999997</ele><time>2026-04-19T14:09:38.999Z</time></trkpt><trkpt lat="43.50874323127313" lon="10.633874743635328"><ele>143.0</ele><time>2026-04-19T14:09:39.999Z</time></trkpt><trkpt lat="43.50880609746381" lon="10.633965466353395"><ele>143.0</ele><time>2026-04-19T14:09:40.999Z</time></trkpt><trkpt lat="43.50888001012647" lon="10.634054264736362"><ele>143.0</ele><time>2026-04-19T14:09:41.999Z</time></trkpt><trkpt lat="43.50896463506087" lon="10.634138316204202"><ele>143.0</ele><time>2026-04-19T14:09:42.999Z</time></trkpt><trkpt lat="43.50905000511022" lon="10.634219998182255"><ele>143.0</ele><time>2026-04-19T14:09:43.999Z</time></trkpt><trkpt lat="43.509135465286164" lon="10.634301827358438"><ele>143.0</ele><time>2026-04-19T14:09:44.999Z</time></trkpt><trkpt lat="43.509217223608886" lon="10.634382792850792"><ele>143.0</ele><time>2026-04-19T14:09:45.999Z</time></trkpt><trkpt lat="43.50929560255367" lon="10.634458456289117"><ele>143.0</ele><time>2026-04-19T14:09:46.999Z</time></trkpt><trkpt lat="43.509371472830026" lon="10.634535814850825"><ele>143.0</ele><time>2026-04-19T14:09:47.999Z</time></trkpt><trkpt lat="43.509443821834324" lon="10.634612775470963"><ele>143.0</ele><time>2026-04-19T14:09:48.999Z</time></trkpt><trkpt lat="43.50951188755868" lon="10.634684320907501"><ele>143.0</ele><time>2026-04-19T14:09:49.999Z</time></trkpt><trkpt lat="43.50958061197057" lon="10.634753181266715"><ele>142.33333333333331</ele><time>2026-04-19T14:09:50.999Z</time></trkpt><trkpt lat="43.50965498792348" lon="10.634818593256702"><ele>141.66666666666666</ele><time>2026-04-19T14:09:51.999Z</time></trkpt><trkpt lat="43.50973355234382" lon="10.634877872750328"><ele>141.0</ele><time>2026-04-19T14:09:52.999Z</time></trkpt><trkpt lat="43.509814046528156" lon="10.634929275332878"><ele>140.33333333333334</ele><time>2026-04-19T14:09:53.999Z</time></trkpt><trkpt lat="43.509888358174656" lon="10.634989839093114"><ele>139.66666666666669</ele><time>2026-04-19T14:09:54.999Z</time></trkpt><trkpt lat="43.50996797806397" lon="10.635041885897285"><ele>139.0</ele><time>2026-04-19T14:09:55.999Z</time></trkpt><trkpt lat="43.51005007246278" lon="10.635088513791176"><ele>139.0</ele><time>2026-04-19T14:09:56.999Z</time></trkpt><trkpt lat="43.51013188966363" lon="10.63513508209908"><ele>139.0</ele><time>2026-04-19T14:09:57.999Z</time></trkpt><trkpt lat="43.510215111807156" lon="10.635175367387244"><ele>139.0</ele><time>2026-04-19T14:09:58.999Z</time></trkpt><trkpt lat="43.51030064322983" lon="10.635209470671612"><ele>139.0</ele><time>2026-04-19T14:09:59.999Z</time></trkpt><trkpt lat="43.51038857551621" lon="10.635237486760124"><ele>139.0</ele><time>2026-04-19T14:10:00.999Z</time></trkpt><trkpt lat="43.51047874760947" lon="10.635267805561597"><ele>139.0</ele><time>2026-04-19T14:10:01.999Z</time></trkpt><trkpt lat="43.51056842313973" lon="10.63529262191418"><ele>139.0</ele><time>2026-04-19T14:10:02.999Z</time></trkpt><trkpt lat="43.51065893123439" lon="10.6353094762808"><ele>139.0</ele><time>2026-04-19T14:10:03.999Z</time></trkpt><trkpt lat="43.51074969143433" lon="10.635311999366618"><ele>139.0</ele><time>2026-04-19T14:10:04.999Z</time></trkpt><trkpt lat="43.51084022809957" lon="10.635307880284381"><ele>139.0</ele><time>2026-04-19T14:10:05.999Z</time></trkpt><trkpt lat="43.510928488260504" lon="10.63528289355939"><ele>139.0</ele><time>2026-04-19T14:10:06.999Z</time></trkpt><trkpt lat="43.51101406478504" lon="10.635235199495849"><ele>138.8</ele><time>2026-04-19T14:10:07.999Z</time></trkpt><trkpt lat="43.51110140790525" lon="10.635186996292136"><ele>138.60000000000002</ele><time>2026-04-19T14:10:08.999Z</time></trkpt><trkpt lat="43.51118990484283" lon="10.635135339490787"><ele>138.4</ele><time>2026-04-19T14:10:09.999Z</time></trkpt><trkpt lat="43.5112806931665" lon="10.635081325565222"><ele>138.20000000000002</ele><time>2026-04-19T14:10:10.999Z</time></trkpt><trkpt lat="43.511366756575384" lon="10.635028802215619"><ele>138.0</ele><time>2026-04-19T14:10:11.999Z</time></trkpt><trkpt lat="43.51145006051113" lon="10.634978748542924"><ele>138.0</ele><time>2026-04-19T14:10:12.999Z</time></trkpt><trkpt lat="43.51153286350775" lon="10.634929492472882"><ele>138.0</ele><time>2026-04-19T14:10:13.999Z</time></trkpt><trkpt lat="43.51161391389598" lon="10.634864713860065"><ele>138.0</ele><time>2026-04-19T14:10:14.999Z</time></trkpt><trkpt lat="43.511683372712454" lon="10.634771133793832"><ele>138.0</ele><time>2026-04-19T14:10:15.999Z</time></trkpt><trkpt lat="43.51173746655223" lon="10.634659550820038"><ele>138.0</ele><time>2026-04-19T14:10:16.999Z</time></trkpt><trkpt lat="43.51177033802779" lon="10.634536332732926"><ele>137.4</ele><time>2026-04-19T14:10:17.999Z</time></trkpt><trkpt lat="43.511777994041935" lon="10.634406930733435"><ele>136.8</ele><time>2026-04-19T14:10:18.999Z</time></trkpt><trkpt lat="43.511761573786956" lon="10.634274735967983"><ele>136.2</ele><time>2026-04-19T14:10:19.999Z</time></trkpt><trkpt lat="43.51172030204587" lon="10.634137763585278"><ele>135.6</ele><time>2026-04-19T14:10:20.999Z</time></trkpt><trkpt lat="43.51165582058627" lon="10.634001302454092"><ele>135.0</ele><time>2026-04-19T14:10:21.999Z</time></trkpt><trkpt lat="43.511579754072635" lon="10.633870280498195"><ele>135.0</ele><time>2026-04-19T14:10:22.999Z</time></trkpt><trkpt lat="43.51150333658241" lon="10.633734485879934"><ele>135.0</ele><time>2026-04-19T14:10:24Z</time></trkpt><trkpt lat="43.51142769050677" lon="10.633598680131062"><ele>135.0</ele><time>2026-04-19T14:10:25Z</time></trkpt><trkpt lat="43.51135799960011" lon="10.633460447994187"><ele>135.0</ele><time>2026-04-19T14:10:26Z</time></trkpt><trkpt lat="43.511298166096026" lon="10.633319769022906"><ele>133.6</ele><time>2026-04-19T14:10:27Z</time></trkpt><trkpt lat="43.51125605235827" lon="10.633178449053645"><ele>132.2</ele><time>2026-04-19T14:10:28Z</time></trkpt><trkpt lat="43.5112365926781" lon="10.63303199657715"><ele>130.8</ele><time>2026-04-19T14:10:29Z</time></trkpt><trkpt lat="43.511242931378945" lon="10.632887478169435"><ele>129.4</ele><time>2026-04-19T14:10:30Z</time></trkpt><trkpt lat="43.51127523038945" lon="10.632753657147084"><ele>128.0</ele><time>2026-04-19T14:10:31Z</time></trkpt><trkpt lat="43.51133615702767" lon="10.632643658851338"><ele>128.0</ele><time>2026-04-19T14:10:32Z</time></trkpt><trkpt lat="43.511418589422036" lon="10.632551727381314"><ele>128.0</ele><time>2026-04-19T14:10:33Z</time></trkpt><trkpt lat="43.51151760703061" lon="10.632483446134671"><ele>128.0</ele><time>2026-04-19T14:10:34Z</time></trkpt><trkpt lat="43.5116187298056" lon="10.632411793189394"><ele>128.0</ele><time>2026-04-19T14:10:35Z</time></trkpt><trkpt lat="43.511714321051265" lon="10.632328198373125"><ele>128.0</ele><time>2026-04-19T14:10:36Z</time></trkpt><trkpt lat="43.511801591799646" lon="10.632231392410509"><ele>128.0</ele><time>2026-04-19T14:10:37Z</time></trkpt><trkpt lat="43.51188410619741" lon="10.632132562135997"><ele>128.0</ele><time>2026-04-19T14:10:38Z</time></trkpt><trkpt lat="43.51196212438422" lon="10.632042096294134"><ele>128.0</ele><time>2026-04-19T14:10:39Z</time></trkpt><trkpt lat="43.5120488959985" lon="10.631967046023268"><ele>128.0</ele><time>2026-04-19T14:10:40Z</time></trkpt><trkpt lat="43.51214245719261" lon="10.631910057719795"><ele>128.0</ele><time>2026-04-19T14:10:41Z</time></trkpt><trkpt lat="43.51223364187651" lon="10.631845981274365"><ele>128.6</ele><time>2026-04-19T14:10:42Z</time></trkpt><trkpt lat="43.51232424879181" lon="10.631776629761038"><ele>129.20000000000002</ele><time>2026-04-19T14:10:43Z</time></trkpt><trkpt lat="43.51240542391448" lon="10.631711394919257"><ele>129.8</ele><time>2026-04-19T14:10:44Z</time></trkpt><trkpt lat="43.512480887959605" lon="10.631655713940736"><ele>130.4</ele><time>2026-04-19T14:10:45Z</time></trkpt><trkpt lat="43.512557908430026" lon="10.631620911180146"><ele>131.0</ele><time>2026-04-19T14:10:46Z</time></trkpt><trkpt lat="43.512646210007006" lon="10.631617531555799"><ele>131.0</ele><time>2026-04-19T14:10:47Z</time></trkpt><trkpt lat="43.51273667578569" lon="10.631643577266106"><ele>131.0</ele><time>2026-04-19T14:10:48Z</time></trkpt><trkpt lat="43.512802531257115" lon="10.631732187217452"><ele>131.0</ele><time>2026-04-19T14:10:49Z</time></trkpt><trkpt lat="43.51286893001562" lon="10.63180281878612"><ele>131.0</ele><time>2026-04-19T14:10:50Z</time></trkpt><trkpt lat="43.51292194010203" lon="10.631876743281369"><ele>131.0</ele><time>2026-04-19T14:10:51Z</time></trkpt><trkpt lat="43.51298139579962" lon="10.631930467603675"><ele>131.0</ele><time>2026-04-19T14:10:52Z</time></trkpt><trkpt lat="43.5130490202418" lon="10.6319645404991"><ele>131.6</ele><time>2026-04-19T14:10:53Z</time></trkpt><trkpt lat="43.51311731186946" lon="10.631971998421328"><ele>132.2</ele><time>2026-04-19T14:10:54Z</time></trkpt><trkpt lat="43.51324732545571" lon="10.631934525031843"><ele>132.8</ele><time>2026-04-19T14:10:56Z</time></trkpt><trkpt lat="43.51332001420783" lon="10.631882709084726"><ele>133.4</ele><time>2026-04-19T14:10:57Z</time></trkpt><trkpt lat="43.51339475048529" lon="10.631818909012726"><ele>134.0</ele><time>2026-04-19T14:10:58Z</time></trkpt><trkpt lat="43.51346738397842" lon="10.631743267408433"><ele>134.0</ele><time>2026-04-19T14:10:59Z</time></trkpt><trkpt lat="43.51353457204676" lon="10.631656642346911"><ele>134.0</ele><time>2026-04-19T14:11:00Z</time></trkpt><trkpt lat="43.51360707826795" lon="10.631575129263753"><ele>134.0</ele><time>2026-04-19T14:11:01Z</time></trkpt><trkpt lat="43.513687431961" lon="10.631497918547526"><ele>134.0</ele><time>2026-04-19T14:11:02Z</time></trkpt><trkpt lat="43.51377278574881" lon="10.6314219128495"><ele>134.0</ele><time>2026-04-19T14:11:03Z</time></trkpt><trkpt lat="43.513866452628434" lon="10.631353481800883"><ele>133.6</ele><time>2026-04-19T14:11:04Z</time></trkpt><trkpt lat="43.51396553253488" lon="10.631291521990345"><ele>133.2</ele><time>2026-04-19T14:11:05Z</time></trkpt><trkpt lat="43.514070006557354" lon="10.63123545390215"><ele>132.79999999999998</ele><time>2026-04-19T14:11:06Z</time></trkpt><trkpt lat="43.51417857471697" lon="10.631184976153548"><ele>132.4</ele><time>2026-04-19T14:11:07Z</time></trkpt><trkpt lat="43.514287661531114" lon="10.631150685842671"><ele>132.0</ele><time>2026-04-19T14:11:08Z</time></trkpt><trkpt lat="43.51439473381977" lon="10.63114876099234"><ele>132.0</ele><time>2026-04-19T14:11:09Z</time></trkpt><trkpt lat="43.51449612042135" lon="10.631173073152896"><ele>132.0</ele><time>2026-04-19T14:11:10Z</time></trkpt><trkpt lat="43.51459549431954" lon="10.631223805726318"><ele>132.0</ele><time>2026-04-19T14:11:11Z</time></trkpt><trkpt lat="43.51469118830518" lon="10.631290537512077"><ele>132.0</ele><time>2026-04-19T14:11:12Z</time></trkpt><trkpt lat="43.51478954637112" lon="10.631354564504667"><ele>132.0</ele><time>2026-04-19T14:11:13Z</time></trkpt><trkpt lat="43.51489133232106" lon="10.631413813105178"><ele>133.4</ele><time>2026-04-19T14:11:14Z</time></trkpt><trkpt lat="43.51499491332795" lon="10.631453161686887"><ele>134.79999999999998</ele><time>2026-04-19T14:11:15Z</time></trkpt><trkpt lat="43.515089076588225" lon="10.631451482787314"><ele>136.2</ele><time>2026-04-19T14:11:16Z</time></trkpt><trkpt lat="43.515172879965" lon="10.63140664159121"><ele>137.6</ele><time>2026-04-19T14:11:17Z</time></trkpt><trkpt lat="43.51523962546625" lon="10.631316614645165"><ele>139.0</ele><time>2026-04-19T14:11:18Z</time></trkpt><trkpt lat="43.51527866363522" lon="10.631192451053849"><ele>139.8</ele><time>2026-04-19T14:11:19Z</time></trkpt><trkpt lat="43.5152817253587" lon="10.631054902616203"><ele>140.60000000000002</ele><time>2026-04-19T14:11:20Z</time></trkpt><trkpt lat="43.51525461479397" lon="10.63091791268381"><ele>141.4</ele><time>2026-04-19T14:11:21Z</time></trkpt><trkpt lat="43.51520645549856" lon="10.630794049532126"><ele>142.20000000000002</ele><time>2026-04-19T14:11:22Z</time></trkpt><trkpt lat="43.51516923171554" lon="10.630667194695828"><ele>143.0</ele><time>2026-04-19T14:11:23Z</time></trkpt><trkpt lat="43.51515471537454" lon="10.630533489476013"><ele>143.0</ele><time>2026-04-19T14:11:24Z</time></trkpt><trkpt lat="43.51515807080942" lon="10.630401600197583"><ele>143.0</ele><time>2026-04-19T14:11:25Z</time></trkpt><trkpt lat="43.515179677334864" lon="10.63027327649965"><ele>143.0</ele><time>2026-04-19T14:11:26Z</time></trkpt><trkpt lat="43.515228318678126" lon="10.630158300362595"><ele>143.0</ele><time>2026-04-19T14:11:26.999Z</time></trkpt><trkpt lat="43.51530963086129" lon="10.630086026828579"><ele>143.0</ele><time>2026-04-19T14:11:27.999Z</time></trkpt><trkpt lat="43.515403370121" lon="10.630069033507874"><ele>143.8</ele><time>2026-04-19T14:11:28.999Z</time></trkpt><trkpt lat="43.51549435702516" lon="10.630095871927926"><ele>144.60000000000002</ele><time>2026-04-19T14:11:29.999Z</time></trkpt><trkpt lat="43.51558844571098" lon="10.630111862956074"><ele>145.39999999999998</ele><time>2026-04-19T14:11:30.999Z</time></trkpt><trkpt lat="43.515684563576315" lon="10.630116262383071"><ele>146.2</ele><time>2026-04-19T14:11:31.999Z</time></trkpt><trkpt lat="43.51578263764425" lon="10.63009528016432"><ele>147.0</ele><time>2026-04-19T14:11:32.999Z</time></trkpt><trkpt lat="43.51587341908254" lon="10.630030009636373"><ele>147.0</ele><time>2026-04-19T14:11:33.999Z</time></trkpt><trkpt lat="43.51595010498405" lon="10.629931973383407"><ele>147.0</ele><time>2026-04-19T14:11:34.999Z</time></trkpt><trkpt lat="43.51601566819798" lon="10.629820208896131"><ele>147.0</ele><time>2026-04-19T14:11:35.999Z</time></trkpt><trkpt lat="43.51608284294341" lon="10.629710585855184"><ele>147.0</ele><time>2026-04-19T14:11:36.999Z</time></trkpt><trkpt lat="43.516147147619485" lon="10.629599377259503"><ele>147.0</ele><time>2026-04-19T14:11:37.999Z</time></trkpt><trkpt lat="43.51619388768026" lon="10.62948185216663"><ele>147.4</ele><time>2026-04-19T14:11:38.999Z</time></trkpt><trkpt lat="43.51621847177588" lon="10.629352432187405"><ele>147.79999999999998</ele><time>2026-04-19T14:11:39.999Z</time></trkpt><trkpt lat="43.51621774145664" lon="10.629215834053486"><ele>148.2</ele><time>2026-04-19T14:11:40.999Z</time></trkpt><trkpt lat="43.51621025782893" lon="10.629073225231085"><ele>148.6</ele><time>2026-04-19T14:11:41.999Z</time></trkpt><trkpt lat="43.51621078277548" lon="10.628931526880082"><ele>149.0</ele><time>2026-04-19T14:11:42.999Z</time></trkpt><trkpt lat="43.51623771631408" lon="10.62880215038298"><ele>149.0</ele><time>2026-04-19T14:11:43.999Z</time></trkpt><trkpt lat="43.51628708400864" lon="10.62868489361189"><ele>149.0</ele><time>2026-04-19T14:11:44.999Z</time></trkpt><trkpt lat="43.51635371501317" lon="10.628575950463219"><ele>149.0</ele><time>2026-04-19T14:11:45.999Z</time></trkpt><trkpt lat="43.516434421024506" lon="10.628475820416265"><ele>149.0</ele><time>2026-04-19T14:11:46.999Z</time></trkpt><trkpt lat="43.516522849196356" lon="10.628382129101908"><ele>149.0</ele><time>2026-04-19T14:11:47.999Z</time></trkpt><trkpt lat="43.51661869008271" lon="10.628298741757494"><ele>150.75</ele><time>2026-04-19T14:11:48.999Z</time></trkpt><trkpt lat="43.51671813571702" lon="10.628224238819934"><ele>152.5</ele><time>2026-04-19T14:11:49.999Z</time></trkpt><trkpt lat="43.51681668179093" lon="10.628150081398353"><ele>154.25</ele><time>2026-04-19T14:11:50.999Z</time></trkpt><trkpt lat="43.51691790041538" lon="10.628079427144845"><ele>156.0</ele><time>2026-04-19T14:11:51.999Z</time></trkpt><trkpt lat="43.51701750800902" lon="10.628007914003973"><ele>156.75</ele><time>2026-04-19T14:11:52.999Z</time></trkpt><trkpt lat="43.51711729094843" lon="10.627935544477694"><ele>157.5</ele><time>2026-04-19T14:11:53.999Z</time></trkpt><trkpt lat="43.517218518255966" lon="10.627854210225252"><ele>158.25</ele><time>2026-04-19T14:11:54.999Z</time></trkpt><trkpt lat="43.517313693136494" lon="10.627753913108315"><ele>159.0</ele><time>2026-04-19T14:11:55.999Z</time></trkpt><trkpt lat="43.51739194926699" lon="10.627630120085387"><ele>159.0</ele><time>2026-04-19T14:11:56.999Z</time></trkpt><trkpt lat="43.51745548390386" lon="10.62749541819662"><ele>159.0</ele><time>2026-04-19T14:11:57.999Z</time></trkpt><trkpt lat="43.51751588139642" lon="10.627366308538026"><ele>159.0</ele><time>2026-04-19T14:11:58.999Z</time></trkpt><trkpt lat="43.517586751885936" lon="10.627255382662094"><ele>159.0</ele><time>2026-04-19T14:11:59.999Z</time></trkpt><trkpt lat="43.51766959670188" lon="10.627167397651592"><ele>159.0</ele><time>2026-04-19T14:12:01Z</time></trkpt><trkpt lat="43.517759725795976" lon="10.627104785311028"><ele>159.0</ele><time>2026-04-19T14:12:02Z</time></trkpt><trkpt lat="43.517854442985666" lon="10.627063499452952"><ele>159.0</ele><time>2026-04-19T14:12:03Z</time></trkpt><trkpt lat="43.517950673069755" lon="10.627017972675414"><ele>159.0</ele><time>2026-04-19T14:12:04Z</time></trkpt><trkpt lat="43.51804112366238" lon="10.626941550476278"><ele>159.0</ele><time>2026-04-19T14:12:05Z</time></trkpt><trkpt lat="43.51811780079294" lon="10.62684042098045"><ele>159.0</ele><time>2026-04-19T14:12:06Z</time></trkpt><trkpt lat="43.518185090002376" lon="10.626721847169884"><ele>160.5</ele><time>2026-04-19T14:12:07Z</time></trkpt><trkpt lat="43.5182535392868" lon="10.626601561197655"><ele>162.0</ele><time>2026-04-19T14:12:08Z</time></trkpt><trkpt lat="43.51832154777692" lon="10.62647027808365"><ele>163.5</ele><time>2026-04-19T14:12:09Z</time></trkpt><trkpt lat="43.51838890341958" lon="10.626333966398768"><ele>165.0</ele><time>2026-04-19T14:12:10Z</time></trkpt><trkpt lat="43.51846138337356" lon="10.62619471481749"><ele>165.0</ele><time>2026-04-19T14:12:11Z</time></trkpt><trkpt lat="43.51852950230251" lon="10.626059305525947"><ele>165.0</ele><time>2026-04-19T14:12:12Z</time></trkpt><trkpt lat="43.51859951618981" lon="10.62592439847341"><ele>165.0</ele><time>2026-04-19T14:12:13Z</time></trkpt><trkpt lat="43.51867296405907" lon="10.625786438299091"><ele>165.0</ele><time>2026-04-19T14:12:14Z</time></trkpt><trkpt lat="43.51875418264779" lon="10.62565176141431"><ele>165.0</ele><time>2026-04-19T14:12:15Z</time></trkpt><trkpt lat="43.51884503320235" lon="10.625522917915141"><ele>165.0</ele><time>2026-04-19T14:12:16Z</time></trkpt><trkpt lat="43.518946090034646" lon="10.625406461823673"><ele>165.0</ele><time>2026-04-19T14:12:17Z</time></trkpt><trkpt lat="43.51905090401163" lon="10.62529639074299"><ele>165.0</ele><time>2026-04-19T14:12:18Z</time></trkpt><trkpt lat="43.51915310292611" lon="10.625185873066556"><ele>166.75</ele><time>2026-04-19T14:12:19Z</time></trkpt><trkpt lat="43.51925476900392" lon="10.625078011110409"><ele>168.5</ele><time>2026-04-19T14:12:20Z</time></trkpt><trkpt lat="43.51935668711737" lon="10.624969064980387"><ele>170.25</ele><time>2026-04-19T14:12:21Z</time></trkpt><trkpt lat="43.519457601444834" lon="10.62485929072285"><ele>172.0</ele><time>2026-04-19T14:12:22Z</time></trkpt><trkpt lat="43.51955698020385" lon="10.62474549935477"><ele>170.5</ele><time>2026-04-19T14:12:23Z</time></trkpt><trkpt lat="43.51965490275876" lon="10.624629586391821"><ele>169.0</ele><time>2026-04-19T14:12:24Z</time></trkpt><trkpt lat="43.51975605910215" lon="10.62450773821837"><ele>167.5</ele><time>2026-04-19T14:12:25Z</time></trkpt><trkpt lat="43.51986072173225" lon="10.624377901516075"><ele>166.0</ele><time>2026-04-19T14:12:26Z</time></trkpt><trkpt lat="43.519967616198116" lon="10.624243163650883"><ele>166.0</ele><time>2026-04-19T14:12:27Z</time></trkpt><trkpt lat="43.52007640550413" lon="10.624106153896127"><ele>166.0</ele><time>2026-04-19T14:12:28Z</time></trkpt><trkpt lat="43.52018739578038" lon="10.62396590459056"><ele>166.0</ele><time>2026-04-19T14:12:29Z</time></trkpt><trkpt lat="43.52030091645544" lon="10.62382276618369"><ele>164.0</ele><time>2026-04-19T14:12:30Z</time></trkpt><trkpt lat="43.5204172938637" lon="10.62367925747212"><ele>162.0</ele><time>2026-04-19T14:12:31Z</time></trkpt><trkpt lat="43.52053366844662" lon="10.623536887492794"><ele>160.0</ele><time>2026-04-19T14:12:32Z</time></trkpt><trkpt lat="43.52064753144879" lon="10.62339520407101"><ele>158.66666666666669</ele><time>2026-04-19T14:12:33Z</time></trkpt><trkpt lat="43.520761026669355" lon="10.623252388466796"><ele>157.33333333333334</ele><time>2026-04-19T14:12:34Z</time></trkpt><trkpt lat="43.520872910632804" lon="10.623113512550619"><ele>156.0</ele><time>2026-04-19T14:12:35Z</time></trkpt><trkpt lat="43.52098518465834" lon="10.622974896004857"><ele>156.0</ele><time>2026-04-19T14:12:36Z</time></trkpt><trkpt lat="43.52109776832178" lon="10.622836757955538"><ele>156.0</ele><time>2026-04-19T14:12:37Z</time></trkpt><trkpt lat="43.52121086603528" lon="10.622702255165164"><ele>156.0</ele><time>2026-04-19T14:12:38Z</time></trkpt><trkpt lat="43.5213257109064" lon="10.622565898194265"><ele>154.5</ele><time>2026-04-19T14:12:39Z</time></trkpt><trkpt lat="43.52143758295635" lon="10.622427607388765"><ele>153.0</ele><time>2026-04-19T14:12:40Z</time></trkpt><trkpt lat="43.521544149198405" lon="10.622281856734972"><ele>151.5</ele><time>2026-04-19T14:12:41Z</time></trkpt><trkpt lat="43.521641213051616" lon="10.622126485051567"><ele>150.0</ele><time>2026-04-19T14:12:42Z</time></trkpt><trkpt lat="43.521727060657405" lon="10.621959120872297"><ele>149.0</ele><time>2026-04-19T14:12:43Z</time></trkpt><trkpt lat="43.521795725936904" lon="10.621774819086017"><ele>148.0</ele><time>2026-04-19T14:12:44Z</time></trkpt><trkpt lat="43.52184223171825" lon="10.62157982782016"><ele>147.0</ele><time>2026-04-19T14:12:45Z</time></trkpt><trkpt lat="43.521867422504826" lon="10.62137845003278"><ele>146.0</ele><time>2026-04-19T14:12:46Z</time></trkpt><trkpt lat="43.52187168247122" lon="10.621175921808065"><ele>145.5</ele><time>2026-04-19T14:12:47Z</time></trkpt><trkpt lat="43.5218640172262" lon="10.620978115073802"><ele>145.0</ele><time>2026-04-19T14:12:48Z</time></trkpt><trkpt lat="43.52184641237473" lon="10.620782370763198"><ele>144.5</ele><time>2026-04-19T14:12:49Z</time></trkpt><trkpt lat="43.52182726701078" lon="10.620586840119943"><ele>144.0</ele><time>2026-04-19T14:12:50Z</time></trkpt><trkpt lat="43.52180895934755" lon="10.6203949751035"><ele>142.75</ele><time>2026-04-19T14:12:51Z</time></trkpt><trkpt lat="43.521793461020486" lon="10.620203287333728"><ele>141.5</ele><time>2026-04-19T14:12:52Z</time></trkpt><trkpt lat="43.52177943086425" lon="10.620014051399634"><ele>140.25</ele><time>2026-04-19T14:12:53Z</time></trkpt><trkpt lat="43.52176828808596" lon="10.619825654056017"><ele>139.0</ele><time>2026-04-19T14:12:54Z</time></trkpt><trkpt lat="43.52176602199435" lon="10.619652582177135"><ele>139.0</ele><time>2026-04-19T14:12:55Z</time></trkpt><trkpt lat="43.521779203386" lon="10.619492111820804"><ele>139.0</ele><time>2026-04-19T14:12:56Z</time></trkpt><trkpt lat="43.52181896540034" lon="10.619339839703581"><ele>139.0</ele><time>2026-04-19T14:12:57Z</time></trkpt><trkpt lat="43.52188151281031" lon="10.619203344664253"><ele>139.0</ele><time>2026-04-19T14:12:58Z</time></trkpt><trkpt lat="43.52195059616749" lon="10.61909299475321"><ele>138.0</ele><time>2026-04-19T14:12:59Z</time></trkpt><trkpt lat="43.522009883141195" lon="10.619004303326815"><ele>137.0</ele><time>2026-04-19T14:13:00Z</time></trkpt><trkpt lat="43.52206642489553" lon="10.618923611159966"><ele>136.0</ele><time>2026-04-19T14:13:01Z</time></trkpt><trkpt lat="43.52211884023235" lon="10.618857372009169"><ele>135.0</ele><time>2026-04-19T14:13:02Z</time></trkpt><trkpt lat="43.52217331206322" lon="10.618810647121695"><ele>134.0</ele><time>2026-04-19T14:13:03Z</time></trkpt><trkpt lat="43.522230710638304" lon="10.61875545076173"><ele>133.0</ele><time>2026-04-19T14:13:04Z</time></trkpt><trkpt lat="43.52229214065344" lon="10.618719924139096"><ele>132.0</ele><time>2026-04-19T14:13:05Z</time></trkpt><trkpt lat="43.52238532538805" lon="10.618839765751616"><ele>131.6</ele><time>2026-04-19T14:13:06Z</time></trkpt><trkpt lat="43.52246118125454" lon="10.618899404382192"><ele>131.2</ele><time>2026-04-19T14:13:07Z</time></trkpt><trkpt lat="43.52254520646595" lon="10.61896017622775"><ele>130.8</ele><time>2026-04-19T14:13:08Z</time></trkpt><trkpt lat="43.52263306728584" lon="10.619020260681307"><ele>130.4</ele><time>2026-04-19T14:13:09Z</time></trkpt><trkpt lat="43.52272702986018" lon="10.619080542051714"><ele>130.0</ele><time>2026-04-19T14:13:10Z</time></trkpt><trkpt lat="43.52282688631445" lon="10.619138080483014"><ele>130.4</ele><time>2026-04-19T14:13:11Z</time></trkpt><trkpt lat="43.52293084327028" lon="10.619193041621385"><ele>130.8</ele><time>2026-04-19T14:13:12Z</time></trkpt><trkpt lat="43.523033183925236" lon="10.619244831702927"><ele>131.2</ele><time>2026-04-19T14:13:13Z</time></trkpt><trkpt lat="43.52313414600144" lon="10.619294626914597"><ele>131.6</ele><time>2026-04-19T14:13:14Z</time></trkpt><trkpt lat="43.52323294055529" lon="10.619340700466006"><ele>132.0</ele><time>2026-04-19T14:13:15Z</time></trkpt><trkpt lat="43.52333118181492" lon="10.619387453740924"><ele>132.0</ele><time>2026-04-19T14:13:16Z</time></trkpt><trkpt lat="43.5234275193888" lon="10.6194339804843"><ele>132.0</ele><time>2026-04-19T14:13:17Z</time></trkpt><trkpt lat="43.52352710292496" lon="10.619483146508625"><ele>132.0</ele><time>2026-04-19T14:13:18Z</time></trkpt><trkpt lat="43.52362915476337" lon="10.619533312444485"><ele>132.0</ele><time>2026-04-19T14:13:19Z</time></trkpt><trkpt lat="43.523733202078915" lon="10.619581916623023"><ele>132.0</ele><time>2026-04-19T14:13:20Z</time></trkpt><trkpt lat="43.523839180178726" lon="10.619631405409272"><ele>130.4</ele><time>2026-04-19T14:13:21Z</time></trkpt><trkpt lat="43.52394243471179" lon="10.619686358486486"><ele>128.79999999999998</ele><time>2026-04-19T14:13:22Z</time></trkpt><trkpt lat="43.524041199566234" lon="10.619752312984666"><ele>127.2</ele><time>2026-04-19T14:13:23Z</time></trkpt><trkpt lat="43.524132184756745" lon="10.619834788558354"><ele>125.6</ele><time>2026-04-19T14:13:24Z</time></trkpt><trkpt lat="43.52420842921626" lon="10.619924637850177"><ele>124.0</ele><time>2026-04-19T14:13:25Z</time></trkpt><trkpt lat="43.52426630761651" lon="10.620007825485345"><ele>124.00000000000001</ele><time>2026-04-19T14:13:26Z</time></trkpt><trkpt lat="43.52431724508848" lon="10.620091867793644"><ele>124.0</ele><time>2026-04-19T14:13:27Z</time></trkpt><trkpt lat="43.524364772064615" lon="10.62018096834532"><ele>124.0</ele><time>2026-04-19T14:13:28Z</time></trkpt><trkpt lat="43.5244122054436" lon="10.620272556688256"><ele>124.0</ele><time>2026-04-19T14:13:29Z</time></trkpt><trkpt lat="43.524451108801586" lon="10.620344626085238"><ele>124.00000000000001</ele><time>2026-04-19T14:13:30Z</time></trkpt><trkpt lat="43.524495138917366" lon="10.62043446702613"><ele>124.0</ele><time>2026-04-19T14:13:32Z</time></trkpt><trkpt lat="43.5245404794863" lon="10.62052911389878"><ele>123.0</ele><time>2026-04-19T14:13:35.999Z</time></trkpt><trkpt lat="43.52458873230311" lon="10.620620646609499"><ele>122.0</ele><time>2026-04-19T14:13:37.999Z</time></trkpt><trkpt lat="43.52466942393695" lon="10.620759499724016"><ele>121.0</ele><time>2026-04-19T14:13:39.999Z</time></trkpt><trkpt lat="43.52471995629664" lon="10.620848086399889"><ele>120.0</ele><time>2026-04-19T14:13:40.999Z</time></trkpt><trkpt lat="43.52476953891241" lon="10.620940336655002"><ele>119.0</ele><time>2026-04-19T14:13:41.999Z</time></trkpt><trkpt lat="43.5248212821924" lon="10.62103597791201"><ele>119.0</ele><time>2026-04-19T14:13:42.999Z</time></trkpt><trkpt lat="43.52487557215567" lon="10.621131528583598"><ele>119.0</ele><time>2026-04-19T14:13:44Z</time></trkpt><trkpt lat="43.52493452044382" lon="10.621222775450528"><ele>119.0</ele><time>2026-04-19T14:13:45Z</time></trkpt><trkpt lat="43.52499933480494" lon="10.621306400716978"><ele>119.0</ele><time>2026-04-19T14:13:46Z</time></trkpt><trkpt lat="43.525073536537626" lon="10.621386090507041"><ele>119.0</ele><time>2026-04-19T14:13:47Z</time></trkpt><trkpt lat="43.52515810624347" lon="10.621455191615878"><ele>118.0</ele><time>2026-04-19T14:13:48Z</time></trkpt><trkpt lat="43.52525482709192" lon="10.621509799112985"><ele>117.0</ele><time>2026-04-19T14:13:49Z</time></trkpt><trkpt lat="43.52535381885642" lon="10.621542983596266"><ele>116.0</ele><time>2026-04-19T14:13:50Z</time></trkpt><trkpt lat="43.5254621503679" lon="10.621558050359909"><ele>115.0</ele><time>2026-04-19T14:13:51Z</time></trkpt><trkpt lat="43.525566887785" lon="10.621560046843875"><ele>114.0</ele><time>2026-04-19T14:13:52Z</time></trkpt><trkpt lat="43.525672246062065" lon="10.621558727062293"><ele>113.80000000000001</ele><time>2026-04-19T14:13:53Z</time></trkpt><trkpt lat="43.52577797044629" lon="10.621558125582158"><ele>113.60000000000001</ele><time>2026-04-19T14:13:54Z</time></trkpt><trkpt lat="43.52588104533355" lon="10.62155322297894"><ele>113.4</ele><time>2026-04-19T14:13:55Z</time></trkpt><trkpt lat="43.52598328289551" lon="10.621551037967803"><ele>113.2</ele><time>2026-04-19T14:13:56Z</time></trkpt><trkpt lat="43.52608537630346" lon="10.62155311411419"><ele>113.0</ele><time>2026-04-19T14:13:57Z</time></trkpt><trkpt lat="43.52618458130706" lon="10.621556481305495"><ele>112.4</ele><time>2026-04-19T14:13:58Z</time></trkpt><trkpt lat="43.52628381439433" lon="10.62155771189612"><ele>111.80000000000001</ele><time>2026-04-19T14:13:59Z</time></trkpt><trkpt lat="43.52638508391832" lon="10.621559286249854"><ele>111.2</ele><time>2026-04-19T14:14:00Z</time></trkpt><trkpt lat="43.526478482670505" lon="10.6215650588505"><ele>110.6</ele><time>2026-04-19T14:14:01Z</time></trkpt><trkpt lat="43.52657436984514" lon="10.621575400653548"><ele>110.0</ele><time>2026-04-19T14:14:02Z</time></trkpt><trkpt lat="43.526668718897746" lon="10.621583411186425"><ele>110.0</ele><time>2026-04-19T14:14:03Z</time></trkpt><trkpt lat="43.52676139055355" lon="10.621587579021705"><ele>110.0</ele><time>2026-04-19T14:14:04Z</time></trkpt><trkpt lat="43.5268547641323" lon="10.621591384089978"><ele>110.0</ele><time>2026-04-19T14:14:05Z</time></trkpt><trkpt lat="43.526947347103736" lon="10.621594180552156"><ele>110.0</ele><time>2026-04-19T14:14:06Z</time></trkpt><trkpt lat="43.52704466179935" lon="10.621597880862087"><ele>110.0</ele><time>2026-04-19T14:14:07Z</time></trkpt><trkpt lat="43.52713960615524" lon="10.621602749624815"><ele>109.0</ele><time>2026-04-19T14:14:08Z</time></trkpt><trkpt lat="43.52723640561062" lon="10.621605772899292"><ele>108.0</ele><time>2026-04-19T14:14:09Z</time></trkpt><trkpt lat="43.52733597940392" lon="10.621612782746546"><ele>107.0</ele><time>2026-04-19T14:14:10Z</time></trkpt><trkpt lat="43.527435438363085" lon="10.621609837110219"><ele>106.0</ele><time>2026-04-19T14:14:11Z</time></trkpt><trkpt lat="43.52753813019947" lon="10.62159004009341"><ele>105.0</ele><time>2026-04-19T14:14:12Z</time></trkpt><trkpt lat="43.52764219702225" lon="10.621552923602692"><ele>105.0</ele><time>2026-04-19T14:14:13Z</time></trkpt><trkpt lat="43.527749334964625" lon="10.621503181988967"><ele>105.0</ele><time>2026-04-19T14:14:14Z</time></trkpt><trkpt lat="43.52785997906051" lon="10.621449523998145"><ele>105.0</ele><time>2026-04-19T14:14:15Z</time></trkpt><trkpt lat="43.52797414144788" lon="10.62139115387869"><ele>105.0</ele><time>2026-04-19T14:14:16Z</time></trkpt><trkpt lat="43.528079953449435" lon="10.621335620697094"><ele>105.0</ele><time>2026-04-19T14:14:17Z</time></trkpt><trkpt lat="43.52819106851739" lon="10.621274446670226"><ele>105.0</ele><time>2026-04-19T14:14:18Z</time></trkpt><trkpt lat="43.52830007582877" lon="10.621215201463514"><ele>105.0</ele><time>2026-04-19T14:14:19Z</time></trkpt><trkpt lat="43.52841047348169" lon="10.621160836566512"><ele>105.0</ele><time>2026-04-19T14:14:20Z</time></trkpt><trkpt lat="43.52852059253265" lon="10.62111067082223"><ele>105.0</ele><time>2026-04-19T14:14:21Z</time></trkpt><trkpt lat="43.528631502072415" lon="10.621063620072835"><ele>105.0</ele><time>2026-04-19T14:14:22Z</time></trkpt><trkpt lat="43.528745822781495" lon="10.621020010339821"><ele>105.0</ele><time>2026-04-19T14:14:23Z</time></trkpt><trkpt lat="43.52885933682703" lon="10.620976410278962"><ele>105.0</ele><time>2026-04-19T14:14:24Z</time></trkpt><trkpt lat="43.528971727127484" lon="10.620936726048807"><ele>103.8</ele><time>2026-04-19T14:14:25Z</time></trkpt><trkpt lat="43.52908527728004" lon="10.62090577819449"><ele>102.6</ele><time>2026-04-19T14:14:26Z</time></trkpt><trkpt lat="43.52918258943851" lon="10.620886574174035"><ele>101.4</ele><time>2026-04-19T14:14:27Z</time></trkpt><trkpt lat="43.52926771079532" lon="10.62087888030558"><ele>100.2</ele><time>2026-04-19T14:14:28Z</time></trkpt><trkpt lat="43.52933302223098" lon="10.620877044447953"><ele>99.0</ele><time>2026-04-19T14:14:29Z</time></trkpt><trkpt lat="43.52942121950579" lon="10.620877596283593"><ele>99.0</ele><time>2026-04-19T14:14:31Z</time></trkpt><trkpt lat="43.52948563995517" lon="10.6208795319913"><ele>99.0</ele><time>2026-04-19T14:14:33Z</time></trkpt><trkpt lat="43.52957055578929" lon="10.620882957695915"><ele>99.0</ele><time>2026-04-19T14:14:35Z</time></trkpt><trkpt lat="43.52969111031518" lon="10.62089977998413"><ele>99.0</ele><time>2026-04-19T14:14:37Z</time></trkpt><trkpt lat="43.52976358070725" lon="10.620916871986381"><ele>99.0</ele><time>2026-04-19T14:14:38Z</time></trkpt><trkpt lat="43.5298387937676" lon="10.620938077153037"><ele>99.0</ele><time>2026-04-19T14:14:39Z</time></trkpt><trkpt lat="43.529917184844635" lon="10.62096118545557"><ele>98.2</ele><time>2026-04-19T14:14:40Z</time></trkpt><trkpt lat="43.52999914599008" lon="10.62098538567797"><ele>97.4</ele><time>2026-04-19T14:14:41Z</time></trkpt><trkpt lat="43.5300862696707" lon="10.621009916072055"><ele>96.6</ele><time>2026-04-19T14:14:42Z</time></trkpt><trkpt lat="43.530179923074954" lon="10.621035708006323"><ele>95.8</ele><time>2026-04-19T14:14:43Z</time></trkpt><trkpt lat="43.53028029137133" lon="10.621064491862866"><ele>95.0</ele><time>2026-04-19T14:14:44Z</time></trkpt><trkpt lat="43.53038530086641" lon="10.621093874550992"><ele>93.6</ele><time>2026-04-19T14:14:45Z</time></trkpt><trkpt lat="43.53049443782922" lon="10.62111498850102"><ele>92.2</ele><time>2026-04-19T14:14:46Z</time></trkpt><trkpt lat="43.53060694959463" lon="10.621116807113555"><ele>90.80000000000001</ele><time>2026-04-19T14:14:47Z</time></trkpt><trkpt lat="43.53071817624321" lon="10.621096857494758"><ele>89.4</ele><time>2026-04-19T14:14:48Z</time></trkpt><trkpt lat="43.530825807773525" lon="10.621051290573302"><ele>88.0</ele><time>2026-04-19T14:14:49Z</time></trkpt><trkpt lat="43.5309227333016" lon="10.620977372014828"><ele>88.0</ele><time>2026-04-19T14:14:50Z</time></trkpt><trkpt lat="43.53100543350577" lon="10.620875812021216"><ele>88.0</ele><time>2026-04-19T14:14:51Z</time></trkpt><trkpt lat="43.531064049886" lon="10.620765568225318"><ele>88.0</ele><time>2026-04-19T14:14:52Z</time></trkpt><trkpt lat="43.531108383301586" lon="10.62066214287513"><ele>88.0</ele><time>2026-04-19T14:14:53Z</time></trkpt><trkpt lat="43.53114650215353" lon="10.620568435168442"><ele>88.0</ele><time>2026-04-19T14:14:54Z</time></trkpt><trkpt lat="43.531184532668526" lon="10.620478085216149"><ele>88.0</ele><time>2026-04-19T14:14:55Z</time></trkpt><trkpt lat="43.53122111974995" lon="10.620392385609192"><ele>88.0</ele><time>2026-04-19T14:14:56Z</time></trkpt><trkpt lat="43.531256352658694" lon="10.620310492222702"><ele>88.0</ele><time>2026-04-19T14:14:57Z</time></trkpt><trkpt lat="43.53129249215795" lon="10.620224547643558"><ele>88.0</ele><time>2026-04-19T14:14:58Z</time></trkpt><trkpt lat="43.53133055527722" lon="10.620136163016944"><ele>88.0</ele><time>2026-04-19T14:14:59Z</time></trkpt><trkpt lat="43.531367695528125" lon="10.62004920619866"><ele>88.0</ele><time>2026-04-19T14:15:00Z</time></trkpt><trkpt lat="43.531405041146044" lon="10.619963755680436"><ele>88.0</ele><time>2026-04-19T14:15:01Z</time></trkpt><trkpt lat="43.5314379402009" lon="10.619888979937171"><ele>86.66666666666666</ele><time>2026-04-19T14:15:02Z</time></trkpt><trkpt lat="43.53147721755198" lon="10.619813508824762"><ele>85.33333333333333</ele><time>2026-04-19T14:15:03Z</time></trkpt><trkpt lat="43.53152319605127" lon="10.619740577889766"><ele>84.0</ele><time>2026-04-19T14:15:04Z</time></trkpt><trkpt lat="43.531574067326645" lon="10.619674741093167"><ele>82.66666666666667</ele><time>2026-04-19T14:15:05Z</time></trkpt><trkpt lat="43.531634653439426" lon="10.619608241041298"><ele>81.33333333333334</ele><time>2026-04-19T14:15:06Z</time></trkpt><trkpt lat="43.53170569845741" lon="10.61954343522642"><ele>80.0</ele><time>2026-04-19T14:15:07Z</time></trkpt><trkpt lat="43.5317892478286" lon="10.619486064853373"><ele>80.2</ele><time>2026-04-19T14:15:08Z</time></trkpt><trkpt lat="43.53188193180522" lon="10.619433717617556"><ele>80.4</ele><time>2026-04-19T14:15:09Z</time></trkpt><trkpt lat="43.531982895008404" lon="10.619393150080155"><ele>80.6</ele><time>2026-04-19T14:15:10Z</time></trkpt><trkpt lat="43.532086622530336" lon="10.619363923546413"><ele>80.8</ele><time>2026-04-19T14:15:11Z</time></trkpt><trkpt lat="43.53219439962322" lon="10.619346634173347"><ele>81.0</ele><time>2026-04-19T14:15:12Z</time></trkpt><trkpt lat="43.532303200861215" lon="10.619349242407488"><ele>79.0</ele><time>2026-04-19T14:15:13Z</time></trkpt><trkpt lat="43.532412605811935" lon="10.619366381860337"><ele>77.0</ele><time>2026-04-19T14:15:14Z</time></trkpt><trkpt lat="43.532524262533805" lon="10.61939434204829"><ele>75.0</ele><time>2026-04-19T14:15:15Z</time></trkpt><trkpt lat="43.53263594529195" lon="10.61942482864276"><ele>73.0</ele><time>2026-04-19T14:15:16Z</time></trkpt><trkpt lat="43.53274851582741" lon="10.619454609819048"><ele>72.0</ele><time>2026-04-19T14:15:17Z</time></trkpt><trkpt lat="43.532861656170844" lon="10.619485122889454"><ele>71.0</ele><time>2026-04-19T14:15:18Z</time></trkpt><trkpt lat="43.532977477320046" lon="10.619517452689635"><ele>70.0</ele><time>2026-04-19T14:15:19Z</time></trkpt><trkpt lat="43.5330942375971" lon="10.619551913113488"><ele>69.0</ele><time>2026-04-19T14:15:20Z</time></trkpt><trkpt lat="43.53321388012718" lon="10.61958818858736"><ele>69.0</ele><time>2026-04-19T14:15:21Z</time></trkpt><trkpt lat="43.53333500356464" lon="10.61962451791474"><ele>69.0</ele><time>2026-04-19T14:15:22Z</time></trkpt><trkpt lat="43.53345912253911" lon="10.619661537651094"><ele>69.0</ele><time>2026-04-19T14:15:23Z</time></trkpt><trkpt lat="43.5335838496761" lon="10.619699246782908"><ele>69.0</ele><time>2026-04-19T14:15:24Z</time></trkpt><trkpt lat="43.53371087460611" lon="10.61973809136729"><ele>68.75</ele><time>2026-04-19T14:15:25Z</time></trkpt><trkpt lat="43.53383967304235" lon="10.619776785691043"><ele>68.5</ele><time>2026-04-19T14:15:26Z</time></trkpt><trkpt lat="43.5339692874925" lon="10.619815765095948"><ele>68.25</ele><time>2026-04-19T14:15:27Z</time></trkpt><trkpt lat="43.53410070806952" lon="10.619856608441172"><ele>68.0</ele><time>2026-04-19T14:15:28Z</time></trkpt><trkpt lat="43.53423306181981" lon="10.619896477537326"><ele>68.0</ele><time>2026-04-19T14:15:29Z</time></trkpt><trkpt lat="43.53436776624965" lon="10.619926260899254"><ele>68.0</ele><time>2026-04-19T14:15:30Z</time></trkpt><trkpt lat="43.534506018705756" lon="10.619932346518853"><ele>68.0</ele><time>2026-04-19T14:15:31Z</time></trkpt><trkpt lat="43.53463995851834" lon="10.619917643882546"><ele>68.0</ele><time>2026-04-19T14:15:32Z</time></trkpt><trkpt lat="43.534769879841605" lon="10.619884982876398"><ele>67.75</ele><time>2026-04-19T14:15:33Z</time></trkpt><trkpt lat="43.53489658777812" lon="10.619851656149672"><ele>67.5</ele><time>2026-04-19T14:15:34Z</time></trkpt><trkpt lat="43.53502247105803" lon="10.619815603710764"><ele>67.25</ele><time>2026-04-19T14:15:35Z</time></trkpt><trkpt lat="43.53514716556005" lon="10.619780767084016"><ele>67.0</ele><time>2026-04-19T14:15:36Z</time></trkpt><trkpt lat="43.53526996318445" lon="10.619745281293078"><ele>66.25</ele><time>2026-04-19T14:15:37Z</time></trkpt><trkpt lat="43.53539182878531" lon="10.61971138525923"><ele>65.5</ele><time>2026-04-19T14:15:38Z</time></trkpt><trkpt lat="43.53551414692403" lon="10.619676978863591"><ele>64.75</ele><time>2026-04-19T14:15:39Z</time></trkpt><trkpt lat="43.5356320485827" lon="10.619645426206576"><ele>64.0</ele><time>2026-04-19T14:15:40Z</time></trkpt><trkpt lat="43.53574981864433" lon="10.619615679850085"><ele>64.0</ele><time>2026-04-19T14:15:41Z</time></trkpt><trkpt lat="43.535864371975975" lon="10.619587826727278"><ele>64.0</ele><time>2026-04-19T14:15:42Z</time></trkpt><trkpt lat="43.5359776033878" lon="10.61955784520901"><ele>64.0</ele><time>2026-04-19T14:15:43Z</time></trkpt><trkpt lat="43.536092610402385" lon="10.619528054836374"><ele>64.0</ele><time>2026-04-19T14:15:44Z</time></trkpt><trkpt lat="43.53620826587044" lon="10.619498187935104"><ele>64.5</ele><time>2026-04-19T14:15:45Z</time></trkpt><trkpt lat="43.53633114178684" lon="10.619465263058105"><ele>65.0</ele><time>2026-04-19T14:15:46Z</time></trkpt><trkpt lat="43.536459458794155" lon="10.61943264136667"><ele>65.5</ele><time>2026-04-19T14:15:47Z</time></trkpt><trkpt lat="43.53659283273262" lon="10.619396560956266"><ele>66.0</ele><time>2026-04-19T14:15:48Z</time></trkpt><trkpt lat="43.536731078907955" lon="10.61936363765508"><ele>66.0</ele><time>2026-04-19T14:15:49Z</time></trkpt><trkpt lat="43.53687230510006" lon="10.61933539892519"><ele>66.0</ele><time>2026-04-19T14:15:50Z</time></trkpt><trkpt lat="43.53701940674335" lon="10.619315088923639"><ele>66.0</ele><time>2026-04-19T14:15:51Z</time></trkpt><trkpt lat="43.53716925300079" lon="10.619301783314759"><ele>66.0</ele><time>2026-04-19T14:15:52Z</time></trkpt><trkpt lat="43.537323832903546" lon="10.619289496053552"><ele>65.66666666666667</ele><time>2026-04-19T14:15:53Z</time></trkpt><trkpt lat="43.5374802798114" lon="10.619277567577031"><ele>65.33333333333334</ele><time>2026-04-19T14:15:54Z</time></trkpt><trkpt lat="43.53764081351578" lon="10.61926577750612"><ele>65.0</ele><time>2026-04-19T14:15:55Z</time></trkpt><trkpt lat="43.53780274351887" lon="10.619256920201147"><ele>63.66666666666667</ele><time>2026-04-19T14:15:56Z</time></trkpt><trkpt lat="43.537966645405454" lon="10.6192480537333"><ele>62.33333333333333</ele><time>2026-04-19T14:15:57Z</time></trkpt><trkpt lat="43.53812835941841" lon="10.619240385911283"><ele>61.0</ele><time>2026-04-19T14:15:58Z</time></trkpt><trkpt lat="43.53828959332463" lon="10.619238419194776"><ele>61.0</ele><time>2026-04-19T14:15:59Z</time></trkpt><trkpt lat="43.538449685003755" lon="10.61924306743538"><ele>61.0</ele><time>2026-04-19T14:16:00Z</time></trkpt><trkpt lat="43.5386079904202" lon="10.619254683605204"><ele>61.0</ele><time>2026-04-19T14:16:01Z</time></trkpt><trkpt lat="43.5387620915486" lon="10.61927291967675"><ele>61.0</ele><time>2026-04-19T14:16:02Z</time></trkpt><trkpt lat="43.53891403951692" lon="10.619294051104637"><ele>61.0</ele><time>2026-04-19T14:16:03Z</time></trkpt><trkpt lat="43.53906529566568" lon="10.619315270221358"><ele>61.0</ele><time>2026-04-19T14:16:04Z</time></trkpt><trkpt lat="43.5392162487831" lon="10.61933605631203"><ele>61.0</ele><time>2026-04-19T14:16:05Z</time></trkpt><trkpt lat="43.53937160798558" lon="10.619353479233244"><ele>61.0</ele><time>2026-04-19T14:16:06Z</time></trkpt><trkpt lat="43.53952754067003" lon="10.619366395665981"><ele>61.0</ele><time>2026-04-19T14:16:07Z</time></trkpt><trkpt lat="43.53968667973199" lon="10.619367383831849"><ele>61.0</ele><time>2026-04-19T14:16:08Z</time></trkpt><trkpt lat="43.539848606524735" lon="10.6193527662455"><ele>61.0</ele><time>2026-04-19T14:16:09Z</time></trkpt><trkpt lat="43.54001185488953" lon="10.619328485848417"><ele>61.0</ele><time>2026-04-19T14:16:10Z</time></trkpt><trkpt lat="43.540176781480056" lon="10.619300881346595"><ele>61.0</ele><time>2026-04-19T14:16:11Z</time></trkpt><trkpt lat="43.54034160519075" lon="10.619272852209374"><ele>61.0</ele><time>2026-04-19T14:16:12Z</time></trkpt><trkpt lat="43.54050957353641" lon="10.61924395871699"><ele>61.0</ele><time>2026-04-19T14:16:13Z</time></trkpt><trkpt lat="43.540671439680736" lon="10.619216394338114"><ele>60.666666666666664</ele><time>2026-04-19T14:16:14Z</time></trkpt><trkpt lat="43.54083117155088" lon="10.619189063375362"><ele>60.33333333333333</ele><time>2026-04-19T14:16:15Z</time></trkpt><trkpt lat="43.54098760098852" lon="10.619168281899878"><ele>60.0</ele><time>2026-04-19T14:16:16Z</time></trkpt><trkpt lat="43.541140813605416" lon="10.619156908822818"><ele>59.66666666666667</ele><time>2026-04-19T14:16:17Z</time></trkpt><trkpt lat="43.5412903271432" lon="10.61915852536139"><ele>59.333333333333336</ele><time>2026-04-19T14:16:18Z</time></trkpt><trkpt lat="43.54143985128387" lon="10.619175480100767"><ele>59.0</ele><time>2026-04-19T14:16:19Z</time></trkpt><trkpt lat="43.54159040471962" lon="10.61920119124965"><ele>59.0</ele><time>2026-04-19T14:16:20Z</time></trkpt><trkpt lat="43.54174178745984" lon="10.61923228583317"><ele>59.0</ele><time>2026-04-19T14:16:21Z</time></trkpt><trkpt lat="43.541894835927046" lon="10.619272061144331"><ele>59.0</ele><time>2026-04-19T14:16:22Z</time></trkpt><trkpt lat="43.54204616558606" lon="10.61932441326761"><ele>59.0</ele><time>2026-04-19T14:16:23Z</time></trkpt><trkpt lat="43.54219716142127" lon="10.61939208554601"><ele>59.0</ele><time>2026-04-19T14:16:24Z</time></trkpt><trkpt lat="43.54234660996525" lon="10.619466760270885"><ele>59.0</ele><time>2026-04-19T14:16:25Z</time></trkpt><trkpt lat="43.54249663267044" lon="10.619546021202767"><ele>59.0</ele><time>2026-04-19T14:16:26Z</time></trkpt><trkpt lat="43.54264932189865" lon="10.6196248134207"><ele>59.0</ele><time>2026-04-19T14:16:27Z</time></trkpt><trkpt lat="43.54280519507571" lon="10.619702480467593"><ele>59.0</ele><time>2026-04-19T14:16:28Z</time></trkpt><trkpt lat="43.54296208919022" lon="10.619778552895177"><ele>58.333333333333336</ele><time>2026-04-19T14:16:29Z</time></trkpt><trkpt lat="43.54312190364448" lon="10.619857727141"><ele>57.66666666666667</ele><time>2026-04-19T14:16:30Z</time></trkpt><trkpt lat="43.54327937858542" lon="10.61993588090529"><ele>57.0</ele><time>2026-04-19T14:16:31Z</time></trkpt><trkpt lat="43.54343916833719" lon="10.620016392919661"><ele>57.0</ele><time>2026-04-19T14:16:32Z</time></trkpt><trkpt lat="43.54359825497213" lon="10.620098682945748"><ele>57.0</ele><time>2026-04-19T14:16:33Z</time></trkpt><trkpt lat="43.54375491308351" lon="10.620178179111509"><ele>57.0</ele><time>2026-04-19T14:16:34Z</time></trkpt><trkpt lat="43.543906809982154" lon="10.620255407008983"><ele>56.66666666666667</ele><time>2026-04-19T14:16:35Z</time></trkpt><trkpt lat="43.54405484818847" lon="10.62033434715746"><ele>56.333333333333336</ele><time>2026-04-19T14:16:36Z</time></trkpt><trkpt lat="43.54420115464359" lon="10.62042107751584"><ele>56.0</ele><time>2026-04-19T14:16:37Z</time></trkpt><trkpt lat="43.54434588091202" lon="10.620517674349996"><ele>56.0</ele><time>2026-04-19T14:16:38Z</time></trkpt><trkpt lat="43.544487465079584" lon="10.620617981612405"><ele>56.0</ele><time>2026-04-19T14:16:39Z</time></trkpt><trkpt lat="43.544632137586234" lon="10.620719881630883"><ele>56.0</ele><time>2026-04-19T14:16:40Z</time></trkpt><trkpt lat="43.54477631344978" lon="10.620819638758388"><ele>55.333333333333336</ele><time>2026-04-19T14:16:41Z</time></trkpt><trkpt lat="43.54492070265506" lon="10.620922856244643"><ele>54.66666666666667</ele><time>2026-04-19T14:16:42Z</time></trkpt><trkpt lat="43.54506402384132" lon="10.62103646156087"><ele>54.0</ele><time>2026-04-19T14:16:43Z</time></trkpt><trkpt lat="43.54520331635713" lon="10.621160045521478"><ele>53.33333333333333</ele><time>2026-04-19T14:16:44Z</time></trkpt><trkpt lat="43.54534513051842" lon="10.621295210584098"><ele>52.666666666666664</ele><time>2026-04-19T14:16:45Z</time></trkpt><trkpt lat="43.54548652265636" lon="10.621435245829389"><ele>52.0</ele><time>2026-04-19T14:16:46Z</time></trkpt><trkpt lat="43.54563246659083" lon="10.621575976453883"><ele>52.0</ele><time>2026-04-19T14:16:47Z</time></trkpt><trkpt lat="43.54578071880423" lon="10.621720573715105"><ele>52.0</ele><time>2026-04-19T14:16:48Z</time></trkpt><trkpt lat="43.54593011408983" lon="10.621864299266099"><ele>52.0</ele><time>2026-04-19T14:16:49Z</time></trkpt><trkpt lat="43.546083941130924" lon="10.622000711687512"><ele>51.666666666666664</ele><time>2026-04-19T14:16:50Z</time></trkpt><trkpt lat="43.546242933696966" lon="10.622114845613943"><ele>51.33333333333333</ele><time>2026-04-19T14:16:51Z</time></trkpt><trkpt lat="43.54640273946669" lon="10.622211734685594"><ele>51.0</ele><time>2026-04-19T14:16:52Z</time></trkpt><trkpt lat="43.54655788005528" lon="10.622297855425337"><ele>51.0</ele><time>2026-04-19T14:16:53Z</time></trkpt><trkpt lat="43.546707048246965" lon="10.622373468094674"><ele>51.0</ele><time>2026-04-19T14:16:54Z</time></trkpt><trkpt lat="43.54686000827416" lon="10.62244027280594"><ele>51.0</ele><time>2026-04-19T14:16:55Z</time></trkpt><trkpt lat="43.54701492971317" lon="10.622495478692874"><ele>54.0</ele><time>2026-04-19T14:16:56Z</time></trkpt><trkpt lat="43.547173836996585" lon="10.622540070621554"><ele>57.0</ele><time>2026-04-19T14:16:57Z</time></trkpt><trkpt lat="43.54733587535109" lon="10.622582158469196"><ele>60.0</ele><time>2026-04-19T14:16:58Z</time></trkpt><trkpt lat="43.54749678012005" lon="10.622631307948371"><ele>60.0</ele><time>2026-04-19T14:16:59Z</time></trkpt><trkpt lat="43.54765176858148" lon="10.62269511231002"><ele>60.0</ele><time>2026-04-19T14:17:00Z</time></trkpt><trkpt lat="43.54779918612792" lon="10.622765665728949"><ele>60.0</ele><time>2026-04-19T14:17:01Z</time></trkpt><trkpt lat="43.54793919188389" lon="10.622836997877519"><ele>59.25</ele><time>2026-04-19T14:17:02Z</time></trkpt><trkpt lat="43.5480730928286" lon="10.62290941893016"><ele>58.5</ele><time>2026-04-19T14:17:03Z</time></trkpt><trkpt lat="43.54819913146976" lon="10.622989789826969"><ele>57.75</ele><time>2026-04-19T14:17:04Z</time></trkpt><trkpt lat="43.548316210237694" lon="10.623084705771712"><ele>57.0</ele><time>2026-04-19T14:17:05Z</time></trkpt><trkpt lat="43.54841882144666" lon="10.62320297825815"><ele>57.0</ele><time>2026-04-19T14:17:06Z</time></trkpt><trkpt lat="43.54850108910274" lon="10.623341529137313"><ele>57.0</ele><time>2026-04-19T14:17:07Z</time></trkpt><trkpt lat="43.548569301099235" lon="10.623499001365104"><ele>57.0</ele><time>2026-04-19T14:17:08Z</time></trkpt><trkpt lat="43.548624272126666" lon="10.623667386070847"><ele>57.0</ele><time>2026-04-19T14:17:09Z</time></trkpt><trkpt lat="43.54867592628312" lon="10.623842144802904"><ele>57.0</ele><time>2026-04-19T14:17:10Z</time></trkpt><trkpt lat="43.548728277052234" lon="10.624022066673197"><ele>57.0</ele><time>2026-04-19T14:17:11Z</time></trkpt><trkpt lat="43.548785271261615" lon="10.624195508682748"><ele>57.0</ele><time>2026-04-19T14:17:12Z</time></trkpt><trkpt lat="43.54885342317794" lon="10.62435955416654"><ele>57.0</ele><time>2026-04-19T14:17:13Z</time></trkpt><trkpt lat="43.54893687013856" lon="10.624513562753377"><ele>57.0</ele><time>2026-04-19T14:17:14Z</time></trkpt><trkpt lat="43.54903299557556" lon="10.624653373189473"><ele>57.0</ele><time>2026-04-19T14:17:15Z</time></trkpt><trkpt lat="43.549136618269635" lon="10.624787499475357"><ele>57.0</ele><time>2026-04-19T14:17:16Z</time></trkpt><trkpt lat="43.5492415580541" lon="10.62491998774354"><ele>57.0</ele><time>2026-04-19T14:17:17Z</time></trkpt><trkpt lat="43.54934141945432" lon="10.625050275072928"><ele>57.0</ele><time>2026-04-19T14:17:18Z</time></trkpt><trkpt lat="43.549440560296205" lon="10.625174663520086"><ele>57.0</ele><time>2026-04-19T14:17:19Z</time></trkpt><trkpt lat="43.549539372160375" lon="10.625290364827467"><ele>57.0</ele><time>2026-04-19T14:17:20Z</time></trkpt><trkpt lat="43.54964198930925" lon="10.625388236507215"><ele>57.0</ele><time>2026-04-19T14:17:21Z</time></trkpt><trkpt lat="43.549752396217535" lon="10.625465742094988"><ele>56.25</ele><time>2026-04-19T14:17:22Z</time></trkpt><trkpt lat="43.54986926517628" lon="10.625520013119095"><ele>55.5</ele><time>2026-04-19T14:17:23Z</time></trkpt><trkpt lat="43.54999232315138" lon="10.625555873185554"><ele>54.75</ele><time>2026-04-19T14:17:24Z</time></trkpt><trkpt lat="43.55012173991747" lon="10.625591885363649"><ele>54.0</ele><time>2026-04-19T14:17:25Z</time></trkpt><trkpt lat="43.5502579475916" lon="10.62562929209263"><ele>53.75</ele><time>2026-04-19T14:17:26Z</time></trkpt><trkpt lat="43.550396234751275" lon="10.625666667488087"><ele>53.5</ele><time>2026-04-19T14:17:27Z</time></trkpt><trkpt lat="43.55053605451898" lon="10.625708241276824"><ele>53.25</ele><time>2026-04-19T14:17:28Z</time></trkpt><trkpt lat="43.55067677334324" lon="10.62574447780465"><ele>53.0</ele><time>2026-04-19T14:17:29Z</time></trkpt><trkpt lat="43.550818707678005" lon="10.62576858035116"><ele>53.0</ele><time>2026-04-19T14:17:30Z</time></trkpt><trkpt lat="43.550961120221515" lon="10.625776193418274"><ele>53.0</ele><time>2026-04-19T14:17:31Z</time></trkpt><trkpt lat="43.55110381990197" lon="10.625771183247913"><ele>53.0</ele><time>2026-04-19T14:17:32Z</time></trkpt><trkpt lat="43.55124822552792" lon="10.6257566893382"><ele>53.0</ele><time>2026-04-19T14:17:33Z</time></trkpt><trkpt lat="43.55139235107391" lon="10.625736521099576"><ele>52.5</ele><time>2026-04-19T14:17:34Z</time></trkpt><trkpt lat="43.55153531865092" lon="10.625715431872807"><ele>52.0</ele><time>2026-04-19T14:17:35Z</time></trkpt><trkpt lat="43.55167635173024" lon="10.625695228033578"><ele>51.5</ele><time>2026-04-19T14:17:36Z</time></trkpt><trkpt lat="43.55181567167735" lon="10.625682490108707"><ele>51.0</ele><time>2026-04-19T14:17:37Z</time></trkpt><trkpt lat="43.55195137833624" lon="10.625686329810788"><ele>51.75</ele><time>2026-04-19T14:17:38Z</time></trkpt><trkpt lat="43.55208368416704" lon="10.625711246231171"><ele>52.5</ele><time>2026-04-19T14:17:39Z</time></trkpt><trkpt lat="43.5522132672521" lon="10.62576589298809"><ele>53.25</ele><time>2026-04-19T14:17:40Z</time></trkpt><trkpt lat="43.5523381860378" lon="10.625842363183265"><ele>54.0</ele><time>2026-04-19T14:17:41Z</time></trkpt><trkpt lat="43.55246120066726" lon="10.625930582959988"><ele>54.0</ele><time>2026-04-19T14:17:42Z</time></trkpt><trkpt lat="43.55258483526248" lon="10.626026209184136"><ele>54.0</ele><time>2026-04-19T14:17:43Z</time></trkpt><trkpt lat="43.55270561760307" lon="10.626131332168613"><ele>54.0</ele><time>2026-04-19T14:17:44Z</time></trkpt><trkpt lat="43.552821428125135" lon="10.626247988106657"><ele>54.0</ele><time>2026-04-19T14:17:45Z</time></trkpt><trkpt lat="43.552935728770386" lon="10.626371947588245"><ele>54.0</ele><time>2026-04-19T14:17:46Z</time></trkpt><trkpt lat="43.55304819710992" lon="10.626492614282784"><ele>54.0</ele><time>2026-04-19T14:17:47Z</time></trkpt><trkpt lat="43.553160675733295" lon="10.626610447534778"><ele>54.0</ele><time>2026-04-19T14:17:48Z</time></trkpt><trkpt lat="43.553276036563624" lon="10.626718572743851"><ele>54.0</ele><time>2026-04-19T14:17:49Z</time></trkpt><trkpt lat="43.55339651052824" lon="10.626811472228775"><ele>54.0</ele><time>2026-04-19T14:17:50Z</time></trkpt><trkpt lat="43.55352530426657" lon="10.626879021333991"><ele>54.0</ele><time>2026-04-19T14:17:51Z</time></trkpt><trkpt lat="43.55365712990597" lon="10.626921524072836"><ele>54.0</ele><time>2026-04-19T14:17:52Z</time></trkpt><trkpt lat="43.553790682584555" lon="10.626922055537765"><ele>54.0</ele><time>2026-04-19T14:17:53Z</time></trkpt><trkpt lat="43.553920970284736" lon="10.626925746688022"><ele>55.75</ele><time>2026-04-19T14:17:54Z</time></trkpt><trkpt lat="43.554045158834526" lon="10.626959580822643"><ele>57.5</ele><time>2026-04-19T14:17:55Z</time></trkpt><trkpt lat="43.55415759910478" lon="10.627040850929244"><ele>59.25</ele><time>2026-04-19T14:17:56Z</time></trkpt><trkpt lat="43.55425700929126" lon="10.627127919329158"><ele>61.0</ele><time>2026-04-19T14:17:57Z</time></trkpt><trkpt lat="43.554366261284926" lon="10.6271906551824"><ele>57.5</ele><time>2026-04-19T14:17:58Z</time></trkpt><trkpt lat="43.55448964858172" lon="10.627229059439781"><ele>54.0</ele><time>2026-04-19T14:17:59Z</time></trkpt><trkpt lat="43.5546205811241" lon="10.627237275546994"><ele>50.5</ele><time>2026-04-19T14:18:00Z</time></trkpt><trkpt lat="43.55475453187151" lon="10.62722219282778"><ele>47.0</ele><time>2026-04-19T14:18:01Z</time></trkpt><trkpt lat="43.55489458735043" lon="10.627201727239434"><ele>47.0</ele><time>2026-04-19T14:18:02Z</time></trkpt><trkpt lat="43.55503946429269" lon="10.627164972364364"><ele>47.0</ele><time>2026-04-19T14:18:03Z</time></trkpt><trkpt lat="43.55518844643198" lon="10.627125421396935"><ele>47.0</ele><time>2026-04-19T14:18:04Z</time></trkpt><trkpt lat="43.55534034945706" lon="10.627069849632537"><ele>46.666666666666664</ele><time>2026-04-19T14:18:05Z</time></trkpt><trkpt lat="43.55548832421872" lon="10.627002027190224"><ele>46.333333333333336</ele><time>2026-04-19T14:18:06Z</time></trkpt><trkpt lat="43.55563473066545" lon="10.626934023915256"><ele>46.0</ele><time>2026-04-19T14:18:07Z</time></trkpt><trkpt lat="43.5557773248125" lon="10.626874482809637"><ele>46.0</ele><time>2026-04-19T14:18:08Z</time></trkpt><trkpt lat="43.555921705337695" lon="10.626841009436449"><ele>46.0</ele><time>2026-04-19T14:18:09Z</time></trkpt><trkpt lat="43.55606490066508" lon="10.626835453274502"><ele>46.0</ele><time>2026-04-19T14:18:10Z</time></trkpt><trkpt lat="43.55620861514137" lon="10.626855907335054"><ele>46.0</ele><time>2026-04-19T14:18:11Z</time></trkpt><trkpt lat="43.55635496592158" lon="10.62688820474974"><ele>46.0</ele><time>2026-04-19T14:18:12Z</time></trkpt><trkpt lat="43.556504340305665" lon="10.62692765397358"><ele>46.0</ele><time>2026-04-19T14:18:13Z</time></trkpt><trkpt lat="43.556655641842866" lon="10.6269691990561"><ele>46.0</ele><time>2026-04-19T14:18:14Z</time></trkpt><trkpt lat="43.55680919283576" lon="10.62700767210948"><ele>46.0</ele><time>2026-04-19T14:18:15Z</time></trkpt><trkpt lat="43.55696141440881" lon="10.627044179680219"><ele>46.0</ele><time>2026-04-19T14:18:16Z</time></trkpt><trkpt lat="43.557114520858235" lon="10.627067122880302"><ele>46.0</ele><time>2026-04-19T14:18:17Z</time></trkpt><trkpt lat="43.55726882792328" lon="10.627068746816542"><ele>46.333333333333336</ele><time>2026-04-19T14:18:18Z</time></trkpt><trkpt lat="43.557426801739844" lon="10.627063065372536"><ele>46.666666666666664</ele><time>2026-04-19T14:18:19Z</time></trkpt><trkpt lat="43.55758840505655" lon="10.627055032299184"><ele>47.0</ele><time>2026-04-19T14:18:20Z</time></trkpt><trkpt lat="43.557753638168464" lon="10.627045637887479"><ele>46.0</ele><time>2026-04-19T14:18:21Z</time></trkpt><trkpt lat="43.55792349027966" lon="10.627035468921967"><ele>45.0</ele><time>2026-04-19T14:18:22Z</time></trkpt><trkpt lat="43.55809792980033" lon="10.62703184889282"><ele>44.0</ele><time>2026-04-19T14:18:23Z</time></trkpt><trkpt lat="43.558273019263225" lon="10.627044221141224"><ele>44.0</ele><time>2026-04-19T14:18:24Z</time></trkpt><trkpt lat="43.55844738062646" lon="10.627071817967296"><ele>44.0</ele><time>2026-04-19T14:18:25Z</time></trkpt><trkpt lat="43.55861480985149" lon="10.627113839606242"><ele>44.0</ele><time>2026-04-19T14:18:26Z</time></trkpt><trkpt lat="43.55878005882783" lon="10.627156830402397"><ele>45.0</ele><time>2026-04-19T14:18:27Z</time></trkpt><trkpt lat="43.55894529846057" lon="10.627199066828993"><ele>46.0</ele><time>2026-04-19T14:18:28Z</time></trkpt><trkpt lat="43.55911305247926" lon="10.62723836952932"><ele>47.0</ele><time>2026-04-19T14:18:29Z</time></trkpt><trkpt lat="43.559281159905865" lon="10.627278481400213"><ele>47.0</ele><time>2026-04-19T14:18:30Z</time></trkpt><trkpt lat="43.55944854801743" lon="10.627316050100342"><ele>47.0</ele><time>2026-04-19T14:18:31Z</time></trkpt><trkpt lat="43.55961592580395" lon="10.627356026419907"><ele>47.0</ele><time>2026-04-19T14:18:32Z</time></trkpt><trkpt lat="43.55978665282799" lon="10.62739903305728"><ele>46.666666666666664</ele><time>2026-04-19T14:18:33Z</time></trkpt><trkpt lat="43.55995920440035" lon="10.62744530697503"><ele>46.333333333333336</ele><time>2026-04-19T14:18:34Z</time></trkpt><trkpt lat="43.56013338822907" lon="10.627490629642484"><ele>46.0</ele><time>2026-04-19T14:18:35Z</time></trkpt><trkpt lat="43.56030815340764" lon="10.627529568649896"><ele>46.333333333333336</ele><time>2026-04-19T14:18:36Z</time></trkpt><trkpt lat="43.56048257874514" lon="10.62755906798426"><ele>46.666666666666664</ele><time>2026-04-19T14:18:37Z</time></trkpt><trkpt lat="43.56065681859771" lon="10.627576936260636"><ele>47.0</ele><time>2026-04-19T14:18:38Z</time></trkpt><trkpt lat="43.560830068604794" lon="10.627577181648503"><ele>47.0</ele><time>2026-04-19T14:18:39Z</time></trkpt><trkpt lat="43.56100096823372" lon="10.627559591465776"><ele>47.0</ele><time>2026-04-19T14:18:40Z</time></trkpt><trkpt lat="43.56116554903682" lon="10.627526235475006"><ele>47.0</ele><time>2026-04-19T14:18:41Z</time></trkpt><trkpt lat="43.56132437709455" lon="10.627473771338988"><ele>45.666666666666664</ele><time>2026-04-19T14:18:42Z</time></trkpt><trkpt lat="43.561474965116794" lon="10.627405305377417"><ele>44.333333333333336</ele><time>2026-04-19T14:18:43Z</time></trkpt><trkpt lat="43.56161968284263" lon="10.627331486120966"><ele>43.0</ele><time>2026-04-19T14:18:44Z</time></trkpt><trkpt lat="43.56176713756545" lon="10.62725457133636"><ele>43.0</ele><time>2026-04-19T14:18:45Z</time></trkpt><trkpt lat="43.561916948979885" lon="10.627175065285257"><ele>43.0</ele><time>2026-04-19T14:18:46Z</time></trkpt><trkpt lat="43.5620682453245" lon="10.627094538528565"><ele>43.0</ele><time>2026-04-19T14:18:47Z</time></trkpt><trkpt lat="43.56221820614889" lon="10.627014289125487"><ele>44.333333333333336</ele><time>2026-04-19T14:18:48Z</time></trkpt><trkpt lat="43.56236619825624" lon="10.626933418312579"><ele>45.666666666666664</ele><time>2026-04-19T14:18:49Z</time></trkpt><trkpt lat="43.5625161880758" lon="10.626853513675943"><ele>47.0</ele><time>2026-04-19T14:18:50Z</time></trkpt><trkpt lat="43.56266699018112" lon="10.626780267425552"><ele>47.0</ele><time>2026-04-19T14:18:51Z</time></trkpt><trkpt lat="43.562822817074064" lon="10.62671367352776"><ele>47.0</ele><time>2026-04-19T14:18:52Z</time></trkpt><trkpt lat="43.562984051510924" lon="10.626662903372177"><ele>47.0</ele><time>2026-04-19T14:18:53Z</time></trkpt><trkpt lat="43.56314661507846" lon="10.6266326727298"><ele>45.33333333333333</ele><time>2026-04-19T14:18:54Z</time></trkpt><trkpt lat="43.56330987146262" lon="10.626622196905469"><ele>43.666666666666664</ele><time>2026-04-19T14:18:55Z</time></trkpt><trkpt lat="43.56346889044302" lon="10.626644596589431"><ele>42.0</ele><time>2026-04-19T14:18:56Z</time></trkpt><trkpt lat="43.56362069193591" lon="10.626700108405348"><ele>41.666666666666664</ele><time>2026-04-19T14:18:57Z</time></trkpt><trkpt lat="43.56376510792991" lon="10.626781951274245"><ele>41.33333333333333</ele><time>2026-04-19T14:18:58Z</time></trkpt><trkpt lat="43.56390750803765" lon="10.626873238735678"><ele>41.0</ele><time>2026-04-19T14:18:59Z</time></trkpt><trkpt lat="43.56405202595832" lon="10.626959696246907"><ele>40.666666666666664</ele><time>2026-04-19T14:19:00Z</time></trkpt><trkpt lat="43.56419883629135" lon="10.627024968832572"><ele>40.333333333333336</ele><time>2026-04-19T14:19:01Z</time></trkpt><trkpt lat="43.564346721422304" lon="10.627059438904872"><ele>40.0</ele><time>2026-04-19T14:19:02Z</time></trkpt><trkpt lat="43.56449466716635" lon="10.627057075666766"><ele>39.75</ele><time>2026-04-19T14:19:03Z</time></trkpt><trkpt lat="43.5646399101976" lon="10.627019788533733"><ele>39.5</ele><time>2026-04-19T14:19:04Z</time></trkpt><trkpt lat="43.564782441884454" lon="10.62696007804082"><ele>39.25</ele><time>2026-04-19T14:19:05Z</time></trkpt><trkpt lat="43.56492914236249" lon="10.62690537847713"><ele>39.0</ele><time>2026-04-19T14:19:06Z</time></trkpt><trkpt lat="43.56508217535876" lon="10.626874978566917"><ele>41.333333333333336</ele><time>2026-04-19T14:19:07Z</time></trkpt><trkpt lat="43.56523826586389" lon="10.626881895653886"><ele>43.66666666666667</ele><time>2026-04-19T14:19:08Z</time></trkpt><trkpt lat="43.56539402953399" lon="10.626914885433537"><ele>46.0</ele><time>2026-04-19T14:19:09Z</time></trkpt><trkpt lat="43.565547417473965" lon="10.62695101510657"><ele>43.333333333333336</ele><time>2026-04-19T14:19:10Z</time></trkpt><trkpt lat="43.56570073964296" lon="10.626978468988815"><ele>40.666666666666664</ele><time>2026-04-19T14:19:11Z</time></trkpt><trkpt lat="43.56585582989248" lon="10.626989900185702"><ele>38.0</ele><time>2026-04-19T14:19:12Z</time></trkpt><trkpt lat="43.56600957294723" lon="10.62698697180664"><ele>38.0</ele><time>2026-04-19T14:19:13Z</time></trkpt><trkpt lat="43.566161856229606" lon="10.626979054205826"><ele>38.0</ele><time>2026-04-19T14:19:14Z</time></trkpt><trkpt lat="43.56630989811699" lon="10.626968584035282"><ele>38.0</ele><time>2026-04-19T14:19:15Z</time></trkpt><trkpt lat="43.566453531706436" lon="10.626958108687166"><ele>38.0</ele><time>2026-04-19T14:19:16Z</time></trkpt><trkpt lat="43.566595630636" lon="10.626946871512905"><ele>39.25</ele><time>2026-04-19T14:19:17Z</time></trkpt><trkpt lat="43.566737259257344" lon="10.626937023058039"><ele>40.5</ele><time>2026-04-19T14:19:18Z</time></trkpt><trkpt lat="43.566877158779256" lon="10.626922189990127"><ele>41.75</ele><time>2026-04-19T14:19:19Z</time></trkpt><trkpt lat="43.56701464685933" lon="10.626889067665031"><ele>43.0</ele><time>2026-04-19T14:19:20Z</time></trkpt><trkpt lat="43.5671518960374" lon="10.626830268880852"><ele>43.0</ele><time>2026-04-19T14:19:21Z</time></trkpt><trkpt lat="43.567282766955934" lon="10.626745041090922"><ele>43.0</ele><time>2026-04-19T14:19:22Z</time></trkpt><trkpt lat="43.56740993532574" lon="10.626645942295054"><ele>43.0</ele><time>2026-04-19T14:19:23Z</time></trkpt><trkpt lat="43.56753522399342" lon="10.626536216444167"><ele>43.0</ele><time>2026-04-19T14:19:24Z</time></trkpt><trkpt lat="43.567664534112765" lon="10.626425146716878"><ele>43.0</ele><time>2026-04-19T14:19:25Z</time></trkpt><trkpt lat="43.567799640827516" lon="10.626325305855332"><ele>43.0</ele><time>2026-04-19T14:19:26Z</time></trkpt><trkpt lat="43.567943933458146" lon="10.626247098417478"><ele>43.0</ele><time>2026-04-19T14:19:27Z</time></trkpt><trkpt lat="43.568094197297604" lon="10.626197239166814"><ele>42.0</ele><time>2026-04-19T14:19:28Z</time></trkpt><trkpt lat="43.56824800268925" lon="10.626170675208298"><ele>41.0</ele><time>2026-04-19T14:19:29Z</time></trkpt><trkpt lat="43.56840475300082" lon="10.626156812424961"><ele>40.0</ele><time>2026-04-19T14:19:30Z</time></trkpt><trkpt lat="43.56856610939778" lon="10.62615479598807"><ele>38.66666666666667</ele><time>2026-04-19T14:19:31Z</time></trkpt><trkpt lat="43.568727982660405" lon="10.626169148498462"><ele>37.333333333333336</ele><time>2026-04-19T14:19:32Z</time></trkpt><trkpt lat="43.56889574912102" lon="10.626196408938071"><ele>36.0</ele><time>2026-04-19T14:19:33Z</time></trkpt><trkpt lat="43.56906252557667" lon="10.626231330009112"><ele>36.0</ele><time>2026-04-19T14:19:34Z</time></trkpt><trkpt lat="43.56922925120034" lon="10.62626852098751"><ele>36.0</ele><time>2026-04-19T14:19:35Z</time></trkpt><trkpt lat="43.56939581443942" lon="10.626306034295881"><ele>36.0</ele><time>2026-04-19T14:19:36Z</time></trkpt><trkpt lat="43.56956418124233" lon="10.626345612365359"><ele>36.333333333333336</ele><time>2026-04-19T14:19:37Z</time></trkpt><trkpt lat="43.56973550021037" lon="10.6263868753076"><ele>36.66666666666667</ele><time>2026-04-19T14:19:38Z</time></trkpt><trkpt lat="43.569906970788374" lon="10.626434912327495"><ele>37.0</ele><time>2026-04-19T14:19:39Z</time></trkpt><trkpt lat="43.57007909029709" lon="10.626488824287405"><ele>37.0</ele><time>2026-04-19T14:19:40Z</time></trkpt><trkpt lat="43.57025176202322" lon="10.626543884418147"><ele>37.0</ele><time>2026-04-19T14:19:41Z</time></trkpt><trkpt lat="43.57042544510313" lon="10.626601986027518"><ele>37.0</ele><time>2026-04-19T14:19:42Z</time></trkpt><trkpt lat="43.570598810713676" lon="10.626665785894732"><ele>36.66666666666667</ele><time>2026-04-19T14:19:43Z</time></trkpt><trkpt lat="43.57077215079074" lon="10.626738331609047"><ele>36.333333333333336</ele><time>2026-04-19T14:19:44Z</time></trkpt><trkpt lat="43.57094379514309" lon="10.626817705073407"><ele>36.0</ele><time>2026-04-19T14:19:45Z</time></trkpt><trkpt lat="43.57111436998536" lon="10.626899483703635"><ele>36.0</ele><time>2026-04-19T14:19:46Z</time></trkpt><trkpt lat="43.571283278563754" lon="10.626978319769664"><ele>36.0</ele><time>2026-04-19T14:19:47Z</time></trkpt><trkpt lat="43.5714485278519" lon="10.627054539157573"><ele>36.0</ele><time>2026-04-19T14:19:48Z</time></trkpt><trkpt lat="43.57160968217377" lon="10.627131226950258"><ele>36.0</ele><time>2026-04-19T14:19:49Z</time></trkpt><trkpt lat="43.57176760671457" lon="10.627204950527126"><ele>36.0</ele><time>2026-04-19T14:19:50Z</time></trkpt><trkpt lat="43.57192226012208" lon="10.627277088363295"><ele>36.0</ele><time>2026-04-19T14:19:51Z</time></trkpt><trkpt lat="43.572072985895986" lon="10.6273496755187"><ele>36.333333333333336</ele><time>2026-04-19T14:19:52Z</time></trkpt><trkpt lat="43.57222364433839" lon="10.627423407774565"><ele>36.66666666666667</ele><time>2026-04-19T14:19:53Z</time></trkpt><trkpt lat="43.57237552530995" lon="10.627496597228607"><ele>37.0</ele><time>2026-04-19T14:19:54Z</time></trkpt><trkpt lat="43.5725273204745" lon="10.627568511868384"><ele>37.0</ele><time>2026-04-19T14:19:55Z</time></trkpt><trkpt lat="43.57267705404303" lon="10.627637998977894"><ele>37.0</ele><time>2026-04-19T14:19:56Z</time></trkpt><trkpt lat="43.572825175996414" lon="10.627700485674978"><ele>37.0</ele><time>2026-04-19T14:19:57Z</time></trkpt><trkpt lat="43.57297714569317" lon="10.627753476524399"><ele>37.66666666666667</ele><time>2026-04-19T14:19:58Z</time></trkpt><trkpt lat="43.57313463818314" lon="10.627797482977455"><ele>38.333333333333336</ele><time>2026-04-19T14:19:59Z</time></trkpt><trkpt lat="43.573297361684844" lon="10.6278318017066"><ele>39.0</ele><time>2026-04-19T14:20:00Z</time></trkpt><trkpt lat="43.573464678282676" lon="10.6278675076781"><ele>37.333333333333336</ele><time>2026-04-19T14:20:01Z</time></trkpt><trkpt lat="43.57363479966367" lon="10.62790617039178"><ele>35.66666666666667</ele><time>2026-04-19T14:20:02Z</time></trkpt><trkpt lat="43.57380611579828" lon="10.627946334991657"><ele>34.0</ele><time>2026-04-19T14:20:03Z</time></trkpt><trkpt lat="43.5739786882244" lon="10.627983373861195"><ele>34.0</ele><time>2026-04-19T14:20:04Z</time></trkpt><trkpt lat="43.57414996655321" lon="10.628017935275725"><ele>34.0</ele><time>2026-04-19T14:20:05Z</time></trkpt><trkpt lat="43.57432059311326" lon="10.628051817693875"><ele>34.0</ele><time>2026-04-19T14:20:06Z</time></trkpt><trkpt lat="43.57448969543544" lon="10.628087643340269"><ele>34.0</ele><time>2026-04-19T14:20:07Z</time></trkpt><trkpt lat="43.574657356588894" lon="10.62812322180164"><ele>34.0</ele><time>2026-04-19T14:20:08Z</time></trkpt><trkpt lat="43.57482465389671" lon="10.628158699299583"><ele>34.0</ele><time>2026-04-19T14:20:09Z</time></trkpt><trkpt lat="43.57499220837627" lon="10.62819372676938"><ele>34.0</ele><time>2026-04-19T14:20:10Z</time></trkpt><trkpt lat="43.57516059953551" lon="10.628231988973136"><ele>34.0</ele><time>2026-04-19T14:20:11Z</time></trkpt><trkpt lat="43.575331163251555" lon="10.628269730169052"><ele>34.0</ele><time>2026-04-19T14:20:12Z</time></trkpt><trkpt lat="43.57550409422668" lon="10.628308250887498"><ele>34.0</ele><time>2026-04-19T14:20:13Z</time></trkpt><trkpt lat="43.5756780223799" lon="10.628344941951472"><ele>34.0</ele><time>2026-04-19T14:20:14Z</time></trkpt><trkpt lat="43.5758527690107" lon="10.628381529003008"><ele>34.0</ele><time>2026-04-19T14:20:15Z</time></trkpt><trkpt lat="43.57602754178718" lon="10.62841809005306"><ele>33.66666666666667</ele><time>2026-04-19T14:20:16Z</time></trkpt><trkpt lat="43.57620124437565" lon="10.628451626193074"><ele>33.333333333333336</ele><time>2026-04-19T14:20:17Z</time></trkpt><trkpt lat="43.57637312173593" lon="10.628487664103757"><ele>33.0</ele><time>2026-04-19T14:20:18Z</time></trkpt><trkpt lat="43.576545864038515" lon="10.628526037424152"><ele>33.0</ele><time>2026-04-19T14:20:19Z</time></trkpt><trkpt lat="43.57671967568258" lon="10.628565694846095"><ele>33.0</ele><time>2026-04-19T14:20:20Z</time></trkpt><trkpt lat="43.576894671257364" lon="10.628605716261152"><ele>33.0</ele><time>2026-04-19T14:20:21Z</time></trkpt><trkpt lat="43.57707085673985" lon="10.628642534974208"><ele>32.666666666666664</ele><time>2026-04-19T14:20:22Z</time></trkpt><trkpt lat="43.577247030340075" lon="10.628679328357649"><ele>32.33333333333333</ele><time>2026-04-19T14:20:23Z</time></trkpt><trkpt lat="43.57742372495079" lon="10.628718445812185"><ele>32.0</ele><time>2026-04-19T14:20:24Z</time></trkpt><trkpt lat="43.57760056170114" lon="10.628757786832496"><ele>32.0</ele><time>2026-04-19T14:20:25Z</time></trkpt><trkpt lat="43.57777914042264" lon="10.628797496613574"><ele>32.0</ele><time>2026-04-19T14:20:26Z</time></trkpt><trkpt lat="43.577958879246815" lon="10.628835935172312"><ele>32.0</ele><time>2026-04-19T14:20:27Z</time></trkpt><trkpt lat="43.57813904501881" lon="10.628875179720648"><ele>32.33333333333333</ele><time>2026-04-19T14:20:28Z</time></trkpt><trkpt lat="43.57831833228353" lon="10.628914314652151"><ele>32.666666666666664</ele><time>2026-04-19T14:20:29Z</time></trkpt><trkpt lat="43.57849759189037" lon="10.628951768572486"><ele>33.0</ele><time>2026-04-19T14:20:30Z</time></trkpt><trkpt lat="43.57867654176222" lon="10.628988358980886"><ele>33.333333333333336</ele><time>2026-04-19T14:20:31Z</time></trkpt><trkpt lat="43.57885357476539" lon="10.62902725627278"><ele>33.66666666666667</ele><time>2026-04-19T14:20:32Z</time></trkpt><trkpt lat="43.57902949483058" lon="10.629066815757641"><ele>34.0</ele><time>2026-04-19T14:20:33Z</time></trkpt><trkpt lat="43.579204841556425" lon="10.62910572835982"><ele>34.0</ele><time>2026-04-19T14:20:34Z</time></trkpt><trkpt lat="43.57937930252275" lon="10.629143323182193"><ele>34.0</ele><time>2026-04-19T14:20:35Z</time></trkpt><trkpt lat="43.579552529199944" lon="10.629182876679929"><ele>34.0</ele><time>2026-04-19T14:20:36Z</time></trkpt><trkpt lat="43.57972547192333" lon="10.6292226083232"><ele>34.0</ele><time>2026-04-19T14:20:37Z</time></trkpt><trkpt lat="43.579898189500334" lon="10.629260325085514"><ele>34.0</ele><time>2026-04-19T14:20:38Z</time></trkpt><trkpt lat="43.58006977751191" lon="10.629296207721312"><ele>34.0</ele><time>2026-04-19T14:20:39Z</time></trkpt><trkpt lat="43.58022586353743" lon="10.62933025232627"><ele>34.25</ele><time>2026-04-19T14:20:40Z</time></trkpt><trkpt lat="43.580361785155226" lon="10.629360871130231"><ele>34.5</ele><time>2026-04-19T14:20:41Z</time></trkpt><trkpt lat="43.580476243642565" lon="10.629388375179742"><ele>34.75</ele><time>2026-04-19T14:20:42Z</time></trkpt><trkpt lat="43.580575911533856" lon="10.629412976846604"><ele>35.0</ele><time>2026-04-19T14:20:43Z</time></trkpt><trkpt lat="43.580675468646604" lon="10.629437384232588"><ele>35.0</ele><time>2026-04-19T14:20:44Z</time></trkpt><trkpt lat="43.58077049930278" lon="10.629458544431465"><ele>35.0</ele><time>2026-04-19T14:20:45Z</time></trkpt><trkpt lat="43.58086336088999" lon="10.629480400070506"><ele>35.0</ele><time>2026-04-19T14:20:46Z</time></trkpt><trkpt lat="43.58095328962622" lon="10.629500980806863"><ele>35.0</ele><time>2026-04-19T14:20:47Z</time></trkpt><trkpt lat="43.58103059162425" lon="10.629521338212774"><ele>35.0</ele><time>2026-04-19T14:20:48Z</time></trkpt><trkpt lat="43.581095402992126" lon="10.62953870850393"><ele>35.0</ele><time>2026-04-19T14:20:49Z</time></trkpt><trkpt lat="43.58119348874705" lon="10.629587533674275"><ele>34.666666666666664</ele><time>2026-04-19T14:20:51Z</time></trkpt><trkpt lat="43.58127766541798" lon="10.629616324737265"><ele>34.33333333333333</ele><time>2026-04-19T14:20:53Z</time></trkpt><trkpt lat="43.581303701737156" lon="10.629717722912355"><ele>34.0</ele><time>2026-04-19T14:20:54Z</time></trkpt><trkpt lat="43.581372042082776" lon="10.629759759571689"><ele>33.666666666666664</ele><time>2026-04-19T14:20:57Z</time></trkpt><trkpt lat="43.58143714536589" lon="10.629753815182962"><ele>33.333333333333336</ele><time>2026-04-19T14:21:12Z</time></trkpt><trkpt lat="43.581508287894486" lon="10.629752453237762"><ele>33.0</ele><time>2026-04-19T14:21:16Z</time></trkpt><trkpt lat="43.58158777051423" lon="10.629763555311587"><ele>33.0</ele><time>2026-04-19T14:21:19Z</time></trkpt><trkpt lat="43.58167836512836" lon="10.629732384259588"><ele>33.0</ele><time>2026-04-19T14:21:21Z</time></trkpt><trkpt lat="43.58179448307305" lon="10.629689748411147"><ele>33.0</ele><time>2026-04-19T14:21:23Z</time></trkpt><trkpt lat="43.58186788947325" lon="10.629701694956015"><ele>33.0</ele><time>2026-04-19T14:21:24Z</time></trkpt><trkpt lat="43.58194974802049" lon="10.62971660553068"><ele>33.0</ele><time>2026-04-19T14:21:25Z</time></trkpt><trkpt lat="43.5820307647416" lon="10.62973341722457"><ele>32.857142857142854</ele><time>2026-04-19T14:21:26Z</time></trkpt><trkpt lat="43.5821103523215" lon="10.629751754582871"><ele>32.714285714285715</ele><time>2026-04-19T14:21:27Z</time></trkpt><trkpt lat="43.58218639507484" lon="10.629768486855152"><ele>32.57142857142857</ele><time>2026-04-19T14:21:28Z</time></trkpt><trkpt lat="43.58225863781073" lon="10.629783841006107"><ele>32.42857142857143</ele><time>2026-04-19T14:21:29Z</time></trkpt><trkpt lat="43.58232692536048" lon="10.629797676469535"><ele>32.285714285714285</ele><time>2026-04-19T14:21:30Z</time></trkpt><trkpt lat="43.58238991996429" lon="10.629810331190297"><ele>32.14285714285714</ele><time>2026-04-19T14:21:31Z</time></trkpt><trkpt lat="43.58245298305838" lon="10.629823956085385"><ele>32.0</ele><time>2026-04-19T14:21:32Z</time></trkpt><trkpt lat="43.58251850356927" lon="10.629838677944422"><ele>31.999999999999996</ele><time>2026-04-19T14:21:33Z</time></trkpt><trkpt lat="43.58258689090651" lon="10.629854838646084"><ele>32.0</ele><time>2026-04-19T14:21:34Z</time></trkpt><trkpt lat="43.58265889309931" lon="10.629871366514484"><ele>32.0</ele><time>2026-04-19T14:21:35Z</time></trkpt><trkpt lat="43.58273504732563" lon="10.629886134944366"><ele>32.0</ele><time>2026-04-19T14:21:36Z</time></trkpt><trkpt lat="43.58281484521409" lon="10.629901326891325"><ele>31.999999999999996</ele><time>2026-04-19T14:21:37Z</time></trkpt><trkpt lat="43.58289725201624" lon="10.629917541797036"><ele>32.0</ele><time>2026-04-19T14:21:38Z</time></trkpt><trkpt lat="43.58298126678629" lon="10.629935862265409"><ele>31.8</ele><time>2026-04-19T14:21:39Z</time></trkpt><trkpt lat="43.583068539232045" lon="10.629955112954157"><ele>31.6</ele><time>2026-04-19T14:21:40Z</time></trkpt><trkpt lat="43.583159560833586" lon="10.629974836821956"><ele>31.400000000000002</ele><time>2026-04-19T14:21:41Z</time></trkpt><trkpt lat="43.58325426369185" lon="10.629995185096517"><ele>31.200000000000003</ele><time>2026-04-19T14:21:42Z</time></trkpt><trkpt lat="43.58335463527882" lon="10.630017244657997"><ele>31.0</ele><time>2026-04-19T14:21:43Z</time></trkpt><trkpt lat="43.583459625599225" lon="10.63003950942628"><ele>31.0</ele><time>2026-04-19T14:21:44Z</time></trkpt><trkpt lat="43.58356965812771" lon="10.630062639516664"><ele>31.0</ele><time>2026-04-19T14:21:45Z</time></trkpt><trkpt lat="43.58368334518978" lon="10.630085552459414"><ele>31.0</ele><time>2026-04-19T14:21:46Z</time></trkpt><trkpt lat="43.58380158139639" lon="10.63011080820108"><ele>31.0</ele><time>2026-04-19T14:21:47Z</time></trkpt><trkpt lat="43.5839221728751" lon="10.630138020841486"><ele>31.0</ele><time>2026-04-19T14:21:48Z</time></trkpt><trkpt lat="43.584047438256924" lon="10.63016746584998"><ele>31.0</ele><time>2026-04-19T14:21:49Z</time></trkpt><trkpt lat="43.584176535142774" lon="10.63019675177816"><ele>31.0</ele><time>2026-04-19T14:21:50Z</time></trkpt><trkpt lat="43.584309371311484" lon="10.630228135162602"><ele>31.0</ele><time>2026-04-19T14:21:51Z</time></trkpt><trkpt lat="43.58444196452124" lon="10.630258398481375"><ele>31.0</ele><time>2026-04-19T14:21:52Z</time></trkpt><trkpt lat="43.584576698452864" lon="10.630289443554238"><ele>31.0</ele><time>2026-04-19T14:21:53Z</time></trkpt><trkpt lat="43.58471354579789" lon="10.63031984257283"><ele>31.0</ele><time>2026-04-19T14:21:54Z</time></trkpt><trkpt lat="43.58484941086857" lon="10.630349981635474"><ele>31.0</ele><time>2026-04-19T14:21:55Z</time></trkpt><trkpt lat="43.584985337358354" lon="10.630379996677881"><ele>31.0</ele><time>2026-04-19T14:21:56Z</time></trkpt><trkpt lat="43.58512050031054" lon="10.63040962019185"><ele>31.0</ele><time>2026-04-19T14:21:57Z</time></trkpt><trkpt lat="43.58525197516593" lon="10.6304370150656"><ele>31.0</ele><time>2026-04-19T14:21:58Z</time></trkpt><trkpt lat="43.58538639217925" lon="10.630464569457441"><ele>31.0</ele><time>2026-04-19T14:21:59Z</time></trkpt><trkpt lat="43.58552130900458" lon="10.630493639176713"><ele>30.75</ele><time>2026-04-19T14:22:00Z</time></trkpt><trkpt lat="43.585655406434086" lon="10.630522311598108"><ele>30.5</ele><time>2026-04-19T14:22:01Z</time></trkpt><trkpt lat="43.58579149252058" lon="10.630551304223218"><ele>30.25</ele><time>2026-04-19T14:22:02Z</time></trkpt><trkpt lat="43.58592840788209" lon="10.630581502623453"><ele>30.0</ele><time>2026-04-19T14:22:03Z</time></trkpt><trkpt lat="43.58606640975951" lon="10.630610043175759"><ele>30.25</ele><time>2026-04-19T14:22:04Z</time></trkpt><trkpt lat="43.586203593063445" lon="10.630640151464512"><ele>30.5</ele><time>2026-04-19T14:22:05Z</time></trkpt><trkpt lat="43.58634034725385" lon="10.63067146512244"><ele>30.75</ele><time>2026-04-19T14:22:06Z</time></trkpt><trkpt lat="43.586479290963" lon="10.630702234376159"><ele>31.0</ele><time>2026-04-19T14:22:07Z</time></trkpt><trkpt lat="43.58661746371807" lon="10.630731219922248"><ele>31.0</ele><time>2026-04-19T14:22:08Z</time></trkpt><trkpt lat="43.58675740972168" lon="10.630762889842925"><ele>31.0</ele><time>2026-04-19T14:22:09Z</time></trkpt><trkpt lat="43.5868970168136" lon="10.630794226692192"><ele>31.0</ele><time>2026-04-19T14:22:10Z</time></trkpt><trkpt lat="43.58703843102697" lon="10.630825657027968"><ele>31.0</ele><time>2026-04-19T14:22:11Z</time></trkpt><trkpt lat="43.58718037042436" lon="10.630854990032047"><ele>30.666666666666668</ele><time>2026-04-19T14:22:12Z</time></trkpt><trkpt lat="43.58732684046129" lon="10.6308813773369"><ele>30.333333333333336</ele><time>2026-04-19T14:22:13Z</time></trkpt><trkpt lat="43.58747639250189" lon="10.63090474798346"><ele>30.0</ele><time>2026-04-19T14:22:14Z</time></trkpt><trkpt lat="43.58762868177943" lon="10.630926630761838"><ele>30.0</ele><time>2026-04-19T14:22:15Z</time></trkpt><trkpt lat="43.58778420277766" lon="10.630945513241809"><ele>30.0</ele><time>2026-04-19T14:22:16Z</time></trkpt><trkpt lat="43.58793957804274" lon="10.63096181383589"><ele>30.0</ele><time>2026-04-19T14:22:17Z</time></trkpt><trkpt lat="43.58809530903895" lon="10.630977342119282"><ele>30.333333333333336</ele><time>2026-04-19T14:22:18Z</time></trkpt><trkpt lat="43.58825154618192" lon="10.630992298108387"><ele>30.666666666666668</ele><time>2026-04-19T14:22:19Z</time></trkpt><trkpt lat="43.58840714112858" lon="10.631006655605503"><ele>31.0</ele><time>2026-04-19T14:22:20Z</time></trkpt><trkpt lat="43.58855915437991" lon="10.631021714750137"><ele>30.5</ele><time>2026-04-19T14:22:21Z</time></trkpt><trkpt lat="43.5887073343294" lon="10.63103642514641"><ele>30.0</ele><time>2026-04-19T14:22:22Z</time></trkpt><trkpt lat="43.5888524007648" lon="10.631052676048206"><ele>29.5</ele><time>2026-04-19T14:22:23Z</time></trkpt><trkpt lat="43.588993040977705" lon="10.631073040505502"><ele>29.0</ele><time>2026-04-19T14:22:24Z</time></trkpt><trkpt lat="43.589130852954085" lon="10.631085205592772"><ele>29.0</ele><time>2026-04-19T14:22:25Z</time></trkpt><trkpt lat="43.58926297485598" lon="10.631095571088878"><ele>29.0</ele><time>2026-04-19T14:22:26Z</time></trkpt><trkpt lat="43.58939136306958" lon="10.63110421355596"><ele>29.0</ele><time>2026-04-19T14:22:27Z</time></trkpt><trkpt lat="43.589516959785115" lon="10.631114584006777"><ele>29.0</ele><time>2026-04-19T14:22:28Z</time></trkpt><trkpt lat="43.58963739696341" lon="10.631125192571492"><ele>29.0</ele><time>2026-04-19T14:22:29Z</time></trkpt><trkpt lat="43.58975821219072" lon="10.631137231064647"><ele>29.0</ele><time>2026-04-19T14:22:30Z</time></trkpt><trkpt lat="43.58988119409663" lon="10.631148164388534"><ele>29.0</ele><time>2026-04-19T14:22:31Z</time></trkpt><trkpt lat="43.59000505851014" lon="10.63115930648653"><ele>29.0</ele><time>2026-04-19T14:22:32Z</time></trkpt><trkpt lat="43.59012975860766" lon="10.631168902557079"><ele>29.0</ele><time>2026-04-19T14:22:33Z</time></trkpt><trkpt lat="43.59025455279531" lon="10.631182177241394"><ele>29.0</ele><time>2026-04-19T14:22:34Z</time></trkpt><trkpt lat="43.59038290011026" lon="10.631195899219865"><ele>29.0</ele><time>2026-04-19T14:22:35Z</time></trkpt><trkpt lat="43.59051455697563" lon="10.631209638868299"><ele>29.0</ele><time>2026-04-19T14:22:36Z</time></trkpt><trkpt lat="43.59064919723101" lon="10.631223093609872"><ele>29.0</ele><time>2026-04-19T14:22:37Z</time></trkpt><trkpt lat="43.590787688544395" lon="10.631236665743076"><ele>29.0</ele><time>2026-04-19T14:22:38Z</time></trkpt><trkpt lat="43.5909288702404" lon="10.631252333562442"><ele>29.0</ele><time>2026-04-19T14:22:39Z</time></trkpt><trkpt lat="43.59107286809337" lon="10.631268973230446"><ele>29.0</ele><time>2026-04-19T14:22:40Z</time></trkpt><trkpt lat="43.591219377931544" lon="10.63128546300138"><ele>29.0</ele><time>2026-04-19T14:22:41Z</time></trkpt><trkpt lat="43.59136932168728" lon="10.631304092949131"><ele>29.0</ele><time>2026-04-19T14:22:42Z</time></trkpt><trkpt lat="43.59151947543546" lon="10.631318105831859"><ele>29.0</ele><time>2026-04-19T14:22:43Z</time></trkpt><trkpt lat="43.59167223814113" lon="10.631333308991533"><ele>29.0</ele><time>2026-04-19T14:22:44Z</time></trkpt><trkpt lat="43.59182429953531" lon="10.631348780421261"><ele>29.0</ele><time>2026-04-19T14:22:45Z</time></trkpt><trkpt lat="43.59197837965187" lon="10.631364963438635"><ele>29.0</ele><time>2026-04-19T14:22:46Z</time></trkpt><trkpt lat="43.5921328559205" lon="10.631380360618682"><ele>28.333333333333332</ele><time>2026-04-19T14:22:47Z</time></trkpt><trkpt lat="43.59228845992069" lon="10.631394099468775"><ele>27.666666666666664</ele><time>2026-04-19T14:22:48Z</time></trkpt><trkpt lat="43.59244491794087" lon="10.631407456588038"><ele>27.0</ele><time>2026-04-19T14:22:49Z</time></trkpt><trkpt lat="43.59260248011101" lon="10.631421558166338"><ele>27.0</ele><time>2026-04-19T14:22:50Z</time></trkpt><trkpt lat="43.59276007543157" lon="10.63143812031314"><ele>27.0</ele><time>2026-04-19T14:22:51Z</time></trkpt><trkpt lat="43.59291802547731" lon="10.631457189924102"><ele>27.0</ele><time>2026-04-19T14:22:52Z</time></trkpt><trkpt lat="43.59307658430298" lon="10.63147600207854"><ele>26.666666666666664</ele><time>2026-04-19T14:22:53Z</time></trkpt><trkpt lat="43.59323795578317" lon="10.631494333174372"><ele>26.333333333333332</ele><time>2026-04-19T14:22:54Z</time></trkpt><trkpt lat="43.59339872082154" lon="10.631512186251921"><ele>26.0</ele><time>2026-04-19T14:22:55Z</time></trkpt><trkpt lat="43.59355998478218" lon="10.631525656762053"><ele>25.666666666666664</ele><time>2026-04-19T14:22:56Z</time></trkpt><trkpt lat="43.593721930148924" lon="10.631541071780273"><ele>25.333333333333336</ele><time>2026-04-19T14:22:57Z</time></trkpt><trkpt lat="43.59388340743778" lon="10.631556861553266"><ele>25.0</ele><time>2026-04-19T14:22:58Z</time></trkpt><trkpt lat="43.59404582259799" lon="10.631572745158852"><ele>25.0</ele><time>2026-04-19T14:22:59Z</time></trkpt><trkpt lat="43.594209149345374" lon="10.631588862243962"><ele>25.0</ele><time>2026-04-19T14:23:00Z</time></trkpt><trkpt lat="43.59437244931473" lon="10.631605948996041"><ele>25.0</ele><time>2026-04-19T14:23:01Z</time></trkpt><trkpt lat="43.59453626683766" lon="10.63162367158035"><ele>25.666666666666668</ele><time>2026-04-19T14:23:02Z</time></trkpt><trkpt lat="43.59469974826657" lon="10.63164176619784"><ele>26.333333333333336</ele><time>2026-04-19T14:23:03Z</time></trkpt><trkpt lat="43.594862910580645" lon="10.631657871481222"><ele>27.0</ele><time>2026-04-19T14:23:04Z</time></trkpt><trkpt lat="43.595026929598276" lon="10.63167243229049"><ele>27.0</ele><time>2026-04-19T14:23:05Z</time></trkpt><trkpt lat="43.595190647339685" lon="10.631688059879487"><ele>27.0</ele><time>2026-04-19T14:23:06Z</time></trkpt><trkpt lat="43.59535582462069" lon="10.631704162652893"><ele>27.0</ele><time>2026-04-19T14:23:07Z</time></trkpt><trkpt lat="43.595521161579086" lon="10.631718768663767"><ele>27.0</ele><time>2026-04-19T14:23:08Z</time></trkpt><trkpt lat="43.59568549356764" lon="10.631735930892756"><ele>27.0</ele><time>2026-04-19T14:23:09Z</time></trkpt><trkpt lat="43.595849816675596" lon="10.63175700853188"><ele>27.0</ele><time>2026-04-19T14:23:10Z</time></trkpt><trkpt lat="43.59601584168145" lon="10.631778594542038"><ele>27.0</ele><time>2026-04-19T14:23:11Z</time></trkpt><trkpt lat="43.59618215739789" lon="10.631800848824648"><ele>27.0</ele><time>2026-04-19T14:23:12Z</time></trkpt><trkpt lat="43.59634938597001" lon="10.631822379386499"><ele>27.0</ele><time>2026-04-19T14:23:13Z</time></trkpt><trkpt lat="43.596516788138224" lon="10.631844626226567"><ele>27.0</ele><time>2026-04-19T14:23:14Z</time></trkpt><trkpt lat="43.59668447033028" lon="10.631864838585997"><ele>27.0</ele><time>2026-04-19T14:23:15Z</time></trkpt><trkpt lat="43.59685202470467" lon="10.631884451879"><ele>27.0</ele><time>2026-04-19T14:23:16Z</time></trkpt><trkpt lat="43.59702058684677" lon="10.63190504890459"><ele>27.0</ele><time>2026-04-19T14:23:17Z</time></trkpt><trkpt lat="43.59718883288832" lon="10.631926926747294"><ele>27.0</ele><time>2026-04-19T14:23:18Z</time></trkpt><trkpt lat="43.597358683199644" lon="10.631949914823355"><ele>27.0</ele><time>2026-04-19T14:23:19Z</time></trkpt><trkpt lat="43.59752667668754" lon="10.631973858065953"><ele>27.0</ele><time>2026-04-19T14:23:20Z</time></trkpt><trkpt lat="43.59769540916491" lon="10.6319958893139"><ele>27.0</ele><time>2026-04-19T14:23:21Z</time></trkpt><trkpt lat="43.59786540585719" lon="10.632015980052227"><ele>27.0</ele><time>2026-04-19T14:23:22Z</time></trkpt><trkpt lat="43.59803553945227" lon="10.632037394931356"><ele>27.0</ele><time>2026-04-19T14:23:23Z</time></trkpt><trkpt lat="43.59820660998094" lon="10.6320579753639"><ele>27.0</ele><time>2026-04-19T14:23:24Z</time></trkpt><trkpt lat="43.598377968498106" lon="10.63208042370156"><ele>27.0</ele><time>2026-04-19T14:23:25Z</time></trkpt><trkpt lat="43.59854958081199" lon="10.632102738313431"><ele>26.333333333333336</ele><time>2026-04-19T14:23:26Z</time></trkpt><trkpt lat="43.598721540225725" lon="10.632125779246548"><ele>25.666666666666668</ele><time>2026-04-19T14:23:27Z</time></trkpt><trkpt lat="43.598894040564296" lon="10.632148383783486"><ele>25.0</ele><time>2026-04-19T14:23:28Z</time></trkpt><trkpt lat="43.59906542894614" lon="10.632172195045806"><ele>25.0</ele><time>2026-04-19T14:23:29Z</time></trkpt><trkpt lat="43.599235400617864" lon="10.632192651212979"><ele>25.0</ele><time>2026-04-19T14:23:30Z</time></trkpt><trkpt lat="43.59940401158716" lon="10.63221336059846"><ele>25.0</ele><time>2026-04-19T14:23:31Z</time></trkpt><trkpt lat="43.599570247239605" lon="10.632234941446335"><ele>25.333333333333336</ele><time>2026-04-19T14:23:32Z</time></trkpt><trkpt lat="43.59973481413449" lon="10.632257132405835"><ele>25.666666666666664</ele><time>2026-04-19T14:23:33Z</time></trkpt><trkpt lat="43.59989714967709" lon="10.6322785422103"><ele>26.0</ele><time>2026-04-19T14:23:34Z</time></trkpt><trkpt lat="43.60005897704999" lon="10.632299881620062"><ele>26.0</ele><time>2026-04-19T14:23:35Z</time></trkpt><trkpt lat="43.60022071978385" lon="10.632321167499276"><ele>26.0</ele><time>2026-04-19T14:23:36Z</time></trkpt><trkpt lat="43.60038001504798" lon="10.632340834936103"><ele>26.0</ele><time>2026-04-19T14:23:37Z</time></trkpt><trkpt lat="43.60053956849693" lon="10.632360062075543"><ele>26.0</ele><time>2026-04-19T14:23:38Z</time></trkpt><trkpt lat="43.6006988286414" lon="10.632378994984819"><ele>26.0</ele><time>2026-04-19T14:23:39Z</time></trkpt><trkpt lat="43.60085646167698" lon="10.632398083678387"><ele>26.0</ele><time>2026-04-19T14:23:40Z</time></trkpt><trkpt lat="43.60101083825523" lon="10.6324302985989"><ele>26.0</ele><time>2026-04-19T14:23:41Z</time></trkpt><trkpt lat="43.601163320047746" lon="10.632478862633514"><ele>26.0</ele><time>2026-04-19T14:23:42Z</time></trkpt><trkpt lat="43.60130982812362" lon="10.632548779243786"><ele>26.0</ele><time>2026-04-19T14:23:43Z</time></trkpt><trkpt lat="43.60145159036441" lon="10.632630955669981"><ele>25.666666666666664</ele><time>2026-04-19T14:23:44Z</time></trkpt><trkpt lat="43.60159220700728" lon="10.632717762813005"><ele>25.333333333333336</ele><time>2026-04-19T14:23:45Z</time></trkpt><trkpt lat="43.60173498091493" lon="10.632795075524925"><ele>25.0</ele><time>2026-04-19T14:23:46Z</time></trkpt><trkpt lat="43.60188003377283" lon="10.632863337956405"><ele>24.0</ele><time>2026-04-19T14:23:47Z</time></trkpt><trkpt lat="43.60202642725859" lon="10.632925047955009"><ele>23.0</ele><time>2026-04-19T14:23:48Z</time></trkpt><trkpt lat="43.60217604490421" lon="10.632977776149918"><ele>22.0</ele><time>2026-04-19T14:23:49Z</time></trkpt><trkpt lat="43.60232687422884" lon="10.633013631875944"><ele>22.0</ele><time>2026-04-19T14:23:50Z</time></trkpt><trkpt lat="43.60247948813085" lon="10.633028361159779"><ele>22.0</ele><time>2026-04-19T14:23:51Z</time></trkpt><trkpt lat="43.602631733299646" lon="10.633031460865144"><ele>22.0</ele><time>2026-04-19T14:23:52Z</time></trkpt><trkpt lat="43.6027841461309" lon="10.633026682650128"><ele>23.0</ele><time>2026-04-19T14:23:53Z</time></trkpt><trkpt lat="43.60293626488966" lon="10.633010124065864"><ele>24.0</ele><time>2026-04-19T14:23:54Z</time></trkpt><trkpt lat="43.60308799293018" lon="10.632983659223944"><ele>25.0</ele><time>2026-04-19T14:23:55Z</time></trkpt><trkpt lat="43.60323848802426" lon="10.6329550094793"><ele>25.0</ele><time>2026-04-19T14:23:56Z</time></trkpt><trkpt lat="43.60339076723991" lon="10.63292652488963"><ele>25.0</ele><time>2026-04-19T14:23:57Z</time></trkpt><trkpt lat="43.6035417561721" lon="10.632893898878649"><ele>25.0</ele><time>2026-04-19T14:23:58Z</time></trkpt><trkpt lat="43.60369444122129" lon="10.632865627896292"><ele>25.0</ele><time>2026-04-19T14:23:59Z</time></trkpt><trkpt lat="43.60384604662694" lon="10.632839680903311"><ele>25.0</ele><time>2026-04-19T14:24:00Z</time></trkpt><trkpt lat="43.60400178840562" lon="10.632817924900031"><ele>25.0</ele><time>2026-04-19T14:24:01Z</time></trkpt><trkpt lat="43.60415778530114" lon="10.63279973837335"><ele>25.0</ele><time>2026-04-19T14:24:02Z</time></trkpt><trkpt lat="43.604313186048266" lon="10.632784813976711"><ele>25.0</ele><time>2026-04-19T14:24:03Z</time></trkpt><trkpt lat="43.6044690512702" lon="10.632769352896867"><ele>25.0</ele><time>2026-04-19T14:24:04Z</time></trkpt><trkpt lat="43.60463309899132" lon="10.632754686394245"><ele>25.0</ele><time>2026-04-19T14:24:05Z</time></trkpt><trkpt lat="43.60480390110164" lon="10.632742319553643"><ele>25.0</ele><time>2026-04-19T14:24:06Z</time></trkpt><trkpt lat="43.604980110671384" lon="10.632730835751687"><ele>25.0</ele><time>2026-04-19T14:24:07Z</time></trkpt><trkpt lat="43.60516328307199" lon="10.632717138585223"><ele>23.666666666666668</ele><time>2026-04-19T14:24:08Z</time></trkpt><trkpt lat="43.605350521517146" lon="10.632704277990523"><ele>22.333333333333336</ele><time>2026-04-19T14:24:09Z</time></trkpt><trkpt lat="43.60554520782801" lon="10.632694899066593"><ele>21.0</ele><time>2026-04-19T14:24:10Z</time></trkpt><trkpt lat="43.605742490929536" lon="10.632690739864511"><ele>21.0</ele><time>2026-04-19T14:24:11Z</time></trkpt><trkpt lat="43.60594382532269" lon="10.632685875573946"><ele>21.0</ele><time>2026-04-19T14:24:12Z</time></trkpt><trkpt lat="43.60614005098243" lon="10.632673670459987"><ele>21.0</ele><time>2026-04-19T14:24:13Z</time></trkpt><trkpt lat="43.60633427166366" lon="10.6326521853193"><ele>22.0</ele><time>2026-04-19T14:24:14Z</time></trkpt><trkpt lat="43.60651879891634" lon="10.632630055710806"><ele>23.0</ele><time>2026-04-19T14:24:15Z</time></trkpt><trkpt lat="43.60668993160237" lon="10.632604753059312"><ele>24.0</ele><time>2026-04-19T14:24:16Z</time></trkpt><trkpt lat="43.60684053210956" lon="10.632577411650685"><ele>24.0</ele><time>2026-04-19T14:24:17Z</time></trkpt><trkpt lat="43.60697576558577" lon="10.632548310156878"><ele>24.0</ele><time>2026-04-19T14:24:18Z</time></trkpt><trkpt lat="43.60708953197596" lon="10.632517980518806"><ele>24.0</ele><time>2026-04-19T14:24:19Z</time></trkpt><trkpt lat="43.607183649823966" lon="10.63251083190822"><ele>24.0</ele><time>2026-04-19T14:24:20Z</time></trkpt><trkpt lat="43.607258998763456" lon="10.632497422246592"><ele>24.0</ele><time>2026-04-19T14:24:21Z</time></trkpt><trkpt lat="43.607245598185" lon="10.632218615683964"><ele>23.799999999999997</ele><time>2026-04-19T14:24:23Z</time></trkpt><trkpt lat="43.60724650720626" lon="10.63209062475569"><ele>23.599999999999998</ele><time>2026-04-19T14:24:24Z</time></trkpt><trkpt lat="43.60725299791639" lon="10.631951195093656"><ele>23.4</ele><time>2026-04-19T14:24:25Z</time></trkpt><trkpt lat="43.60728744421596" lon="10.631801888337433"><ele>23.2</ele><time>2026-04-19T14:24:26Z</time></trkpt><trkpt lat="43.607311638448394" lon="10.63163960690522"><ele>23.0</ele><time>2026-04-19T14:24:27Z</time></trkpt><trkpt lat="43.607347410136676" lon="10.631474317526813"><ele>23.0</ele><time>2026-04-19T14:24:28Z</time></trkpt><trkpt lat="43.60738659214963" lon="10.631303683050886"><ele>23.0</ele><time>2026-04-19T14:24:29Z</time></trkpt><trkpt lat="43.60742022201345" lon="10.631125965807826"><ele>23.0</ele><time>2026-04-19T14:24:30Z</time></trkpt><trkpt lat="43.60743078009224" lon="10.630947463343697"><ele>23.0</ele><time>2026-04-19T14:24:31Z</time></trkpt><trkpt lat="43.60740909693378" lon="10.630780507405081"><ele>23.2</ele><time>2026-04-19T14:24:32Z</time></trkpt><trkpt lat="43.60734780590923" lon="10.630640455316247"><ele>23.4</ele><time>2026-04-19T14:24:33Z</time></trkpt><trkpt lat="43.60726527953805" lon="10.63053520377581"><ele>23.599999999999998</ele><time>2026-04-19T14:24:34Z</time></trkpt><trkpt lat="43.607170077945526" lon="10.630468826016651"><ele>23.799999999999997</ele><time>2026-04-19T14:24:35Z</time></trkpt><trkpt lat="43.60707269454667" lon="10.630439775722316"><ele>24.0</ele><time>2026-04-19T14:24:36Z</time></trkpt><trkpt lat="43.6069807777807" lon="10.630422392796874"><ele>24.0</ele><time>2026-04-19T14:24:37Z</time></trkpt><trkpt lat="43.606897735380265" lon="10.630383802276995"><ele>24.0</ele><time>2026-04-19T14:24:38Z</time></trkpt><trkpt lat="43.60682674794776" lon="10.630403894009243"><ele>24.0</ele><time>2026-04-19T14:24:39Z</time></trkpt><trkpt lat="43.60677356421125" lon="10.630224222449721"><ele>24.0</ele><time>2026-04-19T14:24:40Z</time></trkpt><trkpt lat="43.60673685189542" lon="10.630113974168932"><ele>24.0</ele><time>2026-04-19T14:24:41Z</time></trkpt><trkpt lat="43.60672494975675" lon="10.63000149089039"><ele>24.0</ele><time>2026-04-19T14:24:42Z</time></trkpt><trkpt lat="43.60672741081443" lon="10.629892810472251"><ele>24.0</ele><time>2026-04-19T14:24:43Z</time></trkpt><trkpt lat="43.606723825218616" lon="10.629728107647562"><ele>24.0</ele><time>2026-04-19T14:24:45Z</time></trkpt><trkpt lat="43.60675398630801" lon="10.629567436959054"><ele>24.0</ele><time>2026-04-19T14:24:47Z</time></trkpt><trkpt lat="43.60676083852286" lon="10.62947276763892"><ele>24.0</ele><time>2026-04-19T14:24:48Z</time></trkpt><trkpt lat="43.60676733589227" lon="10.629371191089152"><ele>23.666666666666668</ele><time>2026-04-19T14:24:49Z</time></trkpt><trkpt lat="43.60677400715847" lon="10.629263267091293"><ele>23.333333333333332</ele><time>2026-04-19T14:24:50Z</time></trkpt><trkpt lat="43.606781527902214" lon="10.629152055770076"><ele>23.0</ele><time>2026-04-19T14:24:51Z</time></trkpt><trkpt lat="43.60679007616504" lon="10.629036339020853"><ele>22.666666666666664</ele><time>2026-04-19T14:24:52Z</time></trkpt><trkpt lat="43.60680037889991" lon="10.628917330926017"><ele>22.333333333333332</ele><time>2026-04-19T14:24:53Z</time></trkpt><trkpt lat="43.60681500024154" lon="10.628785527424258"><ele>22.0</ele><time>2026-04-19T14:24:54Z</time></trkpt><trkpt lat="43.606835609645785" lon="10.628643504717887"><ele>22.200000000000003</ele><time>2026-04-19T14:24:55Z</time></trkpt><trkpt lat="43.60685987343704" lon="10.62850061588832"><ele>22.4</ele><time>2026-04-19T14:24:56Z</time></trkpt><trkpt lat="43.60688871970058" lon="10.628366149948308"><ele>22.6</ele><time>2026-04-19T14:24:57Z</time></trkpt><trkpt lat="43.6069215164109" lon="10.628221960290876"><ele>22.799999999999997</ele><time>2026-04-19T14:24:58Z</time></trkpt><trkpt lat="43.6069575793284" lon="10.628073225991256"><ele>23.0</ele><time>2026-04-19T14:24:59Z</time></trkpt><trkpt lat="43.60699487706612" lon="10.62792192682876"><ele>23.0</ele><time>2026-04-19T14:25:00Z</time></trkpt><trkpt lat="43.60703489917974" lon="10.627763874932675"><ele>23.0</ele><time>2026-04-19T14:25:01Z</time></trkpt><trkpt lat="43.60707922950398" lon="10.627600857151938"><ele>23.0</ele><time>2026-04-19T14:25:02Z</time></trkpt><trkpt lat="43.6071279291378" lon="10.627433971516636"><ele>23.0</ele><time>2026-04-19T14:25:03Z</time></trkpt><trkpt lat="43.607181036741586" lon="10.627264663079625"><ele>23.0</ele><time>2026-04-19T14:25:04Z</time></trkpt><trkpt lat="43.60723968883849" lon="10.627093802181406"><ele>23.0</ele><time>2026-04-19T14:25:05Z</time></trkpt><trkpt lat="43.607302714771265" lon="10.626924475920172"><ele>23.0</ele><time>2026-04-19T14:25:06Z</time></trkpt><trkpt lat="43.60736661992628" lon="10.626762466619043"><ele>23.0</ele><time>2026-04-19T14:25:07Z</time></trkpt><trkpt lat="43.6074328512779" lon="10.626600980105753"><ele>23.75</ele><time>2026-04-19T14:25:08Z</time></trkpt><trkpt lat="43.6075024455443" lon="10.626442760226972"><ele>24.5</ele><time>2026-04-19T14:25:09Z</time></trkpt><trkpt lat="43.607574215085464" lon="10.626287329500572"><ele>25.25</ele><time>2026-04-19T14:25:10Z</time></trkpt><trkpt lat="43.607649695654665" lon="10.626132830866933"><ele>26.0</ele><time>2026-04-19T14:25:11Z</time></trkpt><trkpt lat="43.60772654776641" lon="10.625979120493705"><ele>25.75</ele><time>2026-04-19T14:25:12Z</time></trkpt><trkpt lat="43.6078040517401" lon="10.625826515901522"><ele>25.5</ele><time>2026-04-19T14:25:13Z</time></trkpt><trkpt lat="43.60788754084394" lon="10.625675461660137"><ele>25.25</ele><time>2026-04-19T14:25:14Z</time></trkpt><trkpt lat="43.607974975678474" lon="10.62552442558628"><ele>25.0</ele><time>2026-04-19T14:25:15Z</time></trkpt><trkpt lat="43.60806694914318" lon="10.625373853970412"><ele>25.25</ele><time>2026-04-19T14:25:16Z</time></trkpt><trkpt lat="43.60816273487202" lon="10.625223656726345"><ele>25.5</ele><time>2026-04-19T14:25:17Z</time></trkpt><trkpt lat="43.60826369367763" lon="10.62507534470058"><ele>25.75</ele><time>2026-04-19T14:25:18Z</time></trkpt><trkpt lat="43.60836717788869" lon="10.624930704256593"><ele>26.0</ele><time>2026-04-19T14:25:19Z</time></trkpt><trkpt lat="43.60847841890686" lon="10.624786649027262"><ele>26.0</ele><time>2026-04-19T14:25:20Z</time></trkpt><trkpt lat="43.6085888634583" lon="10.624651948808163"><ele>26.0</ele><time>2026-04-19T14:25:21Z</time></trkpt><trkpt lat="43.60870084442207" lon="10.624522019496801"><ele>26.0</ele><time>2026-04-19T14:25:22Z</time></trkpt><trkpt lat="43.608813352139336" lon="10.624394084445271"><ele>26.0</ele><time>2026-04-19T14:25:23Z</time></trkpt><trkpt lat="43.608925131900314" lon="10.624267661327336"><ele>26.5</ele><time>2026-04-19T14:25:24Z</time></trkpt><trkpt lat="43.60903695835141" lon="10.62414123027838"><ele>27.0</ele><time>2026-04-19T14:25:25Z</time></trkpt><trkpt lat="43.60914569935252" lon="10.624014986219022"><ele>27.5</ele><time>2026-04-19T14:25:26Z</time></trkpt><trkpt lat="43.60925907932826" lon="10.623890659729494"><ele>28.0</ele><time>2026-04-19T14:25:27Z</time></trkpt><trkpt lat="43.609372828530944" lon="10.623765378751266"><ele>27.25</ele><time>2026-04-19T14:25:28Z</time></trkpt><trkpt lat="43.60948875679725" lon="10.623640227135258"><ele>26.5</ele><time>2026-04-19T14:25:29Z</time></trkpt><trkpt lat="43.609602330836005" lon="10.623515891604665"><ele>25.75</ele><time>2026-04-19T14:25:30Z</time></trkpt><trkpt lat="43.609715154406764" lon="10.623391785827465"><ele>25.0</ele><time>2026-04-19T14:25:31Z</time></trkpt><trkpt lat="43.60982805374945" lon="10.62327232973244"><ele>25.0</ele><time>2026-04-19T14:25:32Z</time></trkpt><trkpt lat="43.609943033375544" lon="10.62315618695903"><ele>25.0</ele><time>2026-04-19T14:25:33Z</time></trkpt><trkpt lat="43.61005938290304" lon="10.623042013138548"><ele>25.0</ele><time>2026-04-19T14:25:34Z</time></trkpt><trkpt lat="43.610177597021995" lon="10.622929575335618"><ele>25.0</ele><time>2026-04-19T14:25:35Z</time></trkpt><trkpt lat="43.610297027579" lon="10.622816646353474"><ele>24.5</ele><time>2026-04-19T14:25:36Z</time></trkpt><trkpt lat="43.61041964117479" lon="10.622703903772873"><ele>24.0</ele><time>2026-04-19T14:25:37Z</time></trkpt><trkpt lat="43.61054204834332" lon="10.622591796313468"><ele>23.5</ele><time>2026-04-19T14:25:38Z</time></trkpt><trkpt lat="43.61066442963293" lon="10.622477997252597"><ele>23.0</ele><time>2026-04-19T14:25:39Z</time></trkpt><trkpt lat="43.61078454639089" lon="10.622361926662832"><ele>23.0</ele><time>2026-04-19T14:25:40Z</time></trkpt><trkpt lat="43.610905087863415" lon="10.622246207252275"><ele>23.0</ele><time>2026-04-19T14:25:41Z</time></trkpt><trkpt lat="43.61102390251822" lon="10.622132836848055"><ele>23.0</ele><time>2026-04-19T14:25:42Z</time></trkpt><trkpt lat="43.6111390269697" lon="10.622023246367842"><ele>23.0</ele><time>2026-04-19T14:25:43Z</time></trkpt><trkpt lat="43.61125207126343" lon="10.621915284641448"><ele>23.0</ele><time>2026-04-19T14:25:44Z</time></trkpt><trkpt lat="43.61136480202842" lon="10.621806346668349"><ele>23.0</ele><time>2026-04-19T14:25:45Z</time></trkpt><trkpt lat="43.611460530868186" lon="10.62164984123209"><ele>23.0</ele><time>2026-04-19T14:25:46Z</time></trkpt><trkpt lat="43.61158308382918" lon="10.621564643878033"><ele>23.0</ele><time>2026-04-19T14:25:47Z</time></trkpt><trkpt lat="43.6117061132051" lon="10.62147461392061"><ele>23.0</ele><time>2026-04-19T14:25:48Z</time></trkpt><trkpt lat="43.611833781175186" lon="10.621388809971942"><ele>23.0</ele><time>2026-04-19T14:25:49Z</time></trkpt><trkpt lat="43.61197995268926" lon="10.621334364749975"><ele>23.0</ele><time>2026-04-19T14:25:50Z</time></trkpt><trkpt lat="43.61212547574535" lon="10.62129500575473"><ele>23.0</ele><time>2026-04-19T14:25:51Z</time></trkpt><trkpt lat="43.61227707455663" lon="10.621284994344101"><ele>22.666666666666668</ele><time>2026-04-19T14:25:52Z</time></trkpt><trkpt lat="43.612430639257774" lon="10.621248883911433"><ele>22.333333333333332</ele><time>2026-04-19T14:25:53Z</time></trkpt><trkpt lat="43.61258326829041" lon="10.62118261718623"><ele>22.0</ele><time>2026-04-19T14:25:54Z</time></trkpt><trkpt lat="43.612737592062636" lon="10.621132414637673"><ele>22.0</ele><time>2026-04-19T14:25:55Z</time></trkpt><trkpt lat="43.612889123722304" lon="10.621074051212586"><ele>22.0</ele><time>2026-04-19T14:25:56Z</time></trkpt><trkpt lat="43.61304071011793" lon="10.621020955801429"><ele>22.0</ele><time>2026-04-19T14:25:57Z</time></trkpt><trkpt lat="43.613179422537506" lon="10.620927799621995"><ele>22.0</ele><time>2026-04-19T14:25:58Z</time></trkpt><trkpt lat="43.61331207421321" lon="10.62082122377092"><ele>22.0</ele><time>2026-04-19T14:25:59Z</time></trkpt><trkpt lat="43.61344089073025" lon="10.62070522034715"><ele>22.0</ele><time>2026-04-19T14:26:00Z</time></trkpt><trkpt lat="43.61356707793088" lon="10.620584297507841"><ele>21.333333333333332</ele><time>2026-04-19T14:26:01Z</time></trkpt><trkpt lat="43.61369491842537" lon="10.620465053036437"><ele>20.666666666666668</ele><time>2026-04-19T14:26:02Z</time></trkpt><trkpt lat="43.61381719741079" lon="10.620325763443514"><ele>20.0</ele><time>2026-04-19T14:26:03Z</time></trkpt><trkpt lat="43.61395178768274" lon="10.620206872195137"><ele>20.0</ele><time>2026-04-19T14:26:04Z</time></trkpt><trkpt lat="43.614097576004724" lon="10.620108665518313"><ele>20.0</ele><time>2026-04-19T14:26:05Z</time></trkpt><trkpt lat="43.61423595978874" lon="10.619993205320434"><ele>20.0</ele><time>2026-04-19T14:26:06Z</time></trkpt><trkpt lat="43.61437771460124" lon="10.619879751429732"><ele>19.666666666666668</ele><time>2026-04-19T14:26:07Z</time></trkpt><trkpt lat="43.61452192578331" lon="10.619770882613683"><ele>19.333333333333332</ele><time>2026-04-19T14:26:08Z</time></trkpt><trkpt lat="43.614668136271526" lon="10.61966398061166"><ele>19.0</ele><time>2026-04-19T14:26:09Z</time></trkpt><trkpt lat="43.61480408166002" lon="10.61953211962232"><ele>18.666666666666664</ele><time>2026-04-19T14:26:10Z</time></trkpt><trkpt lat="43.61496276578157" lon="10.61944874048596"><ele>18.333333333333332</ele><time>2026-04-19T14:26:11Z</time></trkpt><trkpt lat="43.61510893724884" lon="10.619337576152349"><ele>18.0</ele><time>2026-04-19T14:26:12Z</time></trkpt><trkpt lat="43.61525410940384" lon="10.619219075602556"><ele>18.333333333333332</ele><time>2026-04-19T14:26:13Z</time></trkpt><trkpt lat="43.615398931117156" lon="10.619096357203428"><ele>18.666666666666664</ele><time>2026-04-19T14:26:14Z</time></trkpt><trkpt lat="43.61554431151917" lon="10.6189737308924"><ele>19.0</ele><time>2026-04-19T14:26:15Z</time></trkpt><trkpt lat="43.61568961259697" lon="10.618850904444322"><ele>19.0</ele><time>2026-04-19T14:26:16Z</time></trkpt><trkpt lat="43.615835359881586" lon="10.618727732866935"><ele>19.0</ele><time>2026-04-19T14:26:17Z</time></trkpt><trkpt lat="43.61597721186273" lon="10.618602968782481"><ele>19.0</ele><time>2026-04-19T14:26:18Z</time></trkpt><trkpt lat="43.61611882089738" lon="10.618473940598035"><ele>18.666666666666664</ele><time>2026-04-19T14:26:19Z</time></trkpt><trkpt lat="43.61625777589777" lon="10.618340713726662"><ele>18.333333333333332</ele><time>2026-04-19T14:26:20Z</time></trkpt><trkpt lat="43.61638923687449" lon="10.618200176471033"><ele>18.0</ele><time>2026-04-19T14:26:21Z</time></trkpt><trkpt lat="43.61651934812368" lon="10.618054571699341"><ele>18.0</ele><time>2026-04-19T14:26:22Z</time></trkpt><trkpt lat="43.61664354861651" lon="10.617905765156031"><ele>18.0</ele><time>2026-04-19T14:26:23Z</time></trkpt><trkpt lat="43.61676149380449" lon="10.617753351904573"><ele>18.0</ele><time>2026-04-19T14:26:24Z</time></trkpt><trkpt lat="43.61687244587375" lon="10.617608350807359"><ele>17.75</ele><time>2026-04-19T14:26:25Z</time></trkpt><trkpt lat="43.616975046776645" lon="10.617477147181749"><ele>17.5</ele><time>2026-04-19T14:26:26Z</time></trkpt><trkpt lat="43.61706766937273" lon="10.617362591367929"><ele>17.25</ele><time>2026-04-19T14:26:27Z</time></trkpt><trkpt lat="43.6171467147808" lon="10.617267533168718"><ele>17.0</ele><time>2026-04-19T14:26:28Z</time></trkpt><trkpt lat="43.61721386542246" lon="10.617192060661322"><ele>17.333333333333336</ele><time>2026-04-19T14:26:29Z</time></trkpt><trkpt lat="43.61726999885208" lon="10.617144561981945"><ele>17.666666666666668</ele><time>2026-04-19T14:26:30Z</time></trkpt><trkpt lat="43.61733536979534" lon="10.617075625567571"><ele>18.0</ele><time>2026-04-19T14:26:32Z</time></trkpt><trkpt lat="43.61741509870686" lon="10.617085095209742"><ele>18.333333333333332</ele><time>2026-04-19T14:26:34Z</time></trkpt><trkpt lat="43.61748710481829" lon="10.617046698608132"><ele>18.666666666666664</ele><time>2026-04-19T14:26:37Z</time></trkpt><trkpt lat="43.61755648013242" lon="10.616998477287275"><ele>19.0</ele><time>2026-04-19T14:26:41Z</time></trkpt><trkpt lat="43.61767171827464" lon="10.61700002976708"><ele>19.0</ele><time>2026-04-19T14:26:44Z</time></trkpt><trkpt lat="43.617772350112624" lon="10.616994973125863"><ele>19.0</ele><time>2026-04-19T14:26:46Z</time></trkpt><trkpt lat="43.61785128325284" lon="10.617027830932434"><ele>19.0</ele><time>2026-04-19T14:26:48Z</time></trkpt><trkpt lat="43.61791999177328" lon="10.61694139166551"><ele>19.0</ele><time>2026-04-19T14:26:49Z</time></trkpt><trkpt lat="43.61787398691548" lon="10.616872741394246"><ele>19.0</ele><time>2026-04-19T14:26:50Z</time></trkpt><trkpt lat="43.61784734759833" lon="10.61677342763994"><ele>19.0</ele><time>2026-04-19T14:43:45Z</time></trkpt><trkpt lat="43.6177889286871" lon="10.616695518503112"><ele>18.8</ele><time>2026-04-19T14:43:47Z</time></trkpt><trkpt lat="43.6177610108158" lon="10.616535081691886"><ele>18.599999999999998</ele><time>2026-04-19T14:46:25Z</time></trkpt><trkpt lat="43.617745664800495" lon="10.616426427151914"><ele>18.4</ele><time>2026-04-19T14:46:27Z</time></trkpt><trkpt lat="43.61777024805321" lon="10.616323835936628"><ele>18.2</ele><time>2026-04-19T14:46:33Z</time></trkpt><trkpt lat="43.61783949491982" lon="10.616176336386205"><ele>18.0</ele><time>2026-04-19T14:46:35Z</time></trkpt><trkpt lat="43.61788629173536" lon="10.616098636262544"><ele>18.0</ele><time>2026-04-19T14:46:36Z</time></trkpt><trkpt lat="43.617940172424525" lon="10.616007203458844"><ele>18.0</ele><time>2026-04-19T14:46:37Z</time></trkpt><trkpt lat="43.61800002240431" lon="10.615897814524699"><ele>18.0</ele><time>2026-04-19T14:46:38Z</time></trkpt><trkpt lat="43.618063252246856" lon="10.615779265566417"><ele>18.0</ele><time>2026-04-19T14:46:39Z</time></trkpt><trkpt lat="43.61812720814222" lon="10.615659974599266"><ele>18.0</ele><time>2026-04-19T14:46:40Z</time></trkpt><trkpt lat="43.61819489645677" lon="10.615532817459458"><ele>18.0</ele><time>2026-04-19T14:46:41Z</time></trkpt><trkpt lat="43.61826687942951" lon="10.615397938217967"><ele>18.0</ele><time>2026-04-19T14:46:42Z</time></trkpt><trkpt lat="43.618342701480394" lon="10.615255210275905"><ele>18.0</ele><time>2026-04-19T14:46:43Z</time></trkpt><trkpt lat="43.618417405389046" lon="10.615109560126152"><ele>18.0</ele><time>2026-04-19T14:46:44Z</time></trkpt><trkpt lat="43.61849002897902" lon="10.614961062483268"><ele>18.0</ele><time>2026-04-19T14:46:45Z</time></trkpt><trkpt lat="43.618562501016186" lon="10.614807271950387"><ele>18.0</ele><time>2026-04-19T14:46:46Z</time></trkpt><trkpt lat="43.61863360659896" lon="10.614652360751354"><ele>18.0</ele><time>2026-04-19T14:46:47Z</time></trkpt><trkpt lat="43.61870354357218" lon="10.614497905524868"><ele>18.0</ele><time>2026-04-19T14:46:48Z</time></trkpt><trkpt lat="43.618772349769706" lon="10.6143420302618"><ele>18.0</ele><time>2026-04-19T14:46:49Z</time></trkpt><trkpt lat="43.618838341225285" lon="10.614184773845997"><ele>18.0</ele><time>2026-04-19T14:46:50Z</time></trkpt><trkpt lat="43.618901960629785" lon="10.614027977927687"><ele>18.0</ele><time>2026-04-19T14:46:51Z</time></trkpt><trkpt lat="43.6189616269742" lon="10.613877665838366"><ele>18.0</ele><time>2026-04-19T14:46:52Z</time></trkpt><trkpt lat="43.61901963343064" lon="10.613732460089663"><ele>18.0</ele><time>2026-04-19T14:46:53Z</time></trkpt><trkpt lat="43.61907408102749" lon="10.61359620982179"><ele>18.0</ele><time>2026-04-19T14:46:54Z</time></trkpt><trkpt lat="43.619130252894614" lon="10.613456758733053"><ele>18.0</ele><time>2026-04-19T14:46:55Z</time></trkpt><trkpt lat="43.61918798271848" lon="10.61331302671862"><ele>18.0</ele><time>2026-04-19T14:46:56Z</time></trkpt><trkpt lat="43.61924424100896" lon="10.61316585674563"><ele>18.0</ele><time>2026-04-19T14:46:57Z</time></trkpt><trkpt lat="43.6192986312625" lon="10.613019739182343"><ele>18.0</ele><time>2026-04-19T14:46:58Z</time></trkpt><trkpt lat="43.619359732000596" lon="10.612887714436717"><ele>18.0</ele><time>2026-04-19T14:46:59Z</time></trkpt><trkpt lat="43.61942834760808" lon="10.612775469711142"><ele>18.0</ele><time>2026-04-19T14:47:00Z</time></trkpt><trkpt lat="43.6195071901657" lon="10.612684389297417"><ele>18.0</ele><time>2026-04-19T14:47:01Z</time></trkpt><trkpt lat="43.619595254678615" lon="10.612611903666846"><ele>17.8</ele><time>2026-04-19T14:47:02Z</time></trkpt><trkpt lat="43.619676640199515" lon="10.612536545866508"><ele>17.6</ele><time>2026-04-19T14:47:03Z</time></trkpt><trkpt lat="43.619738283824134" lon="10.612440002433619"><ele>17.4</ele><time>2026-04-19T14:47:04Z</time></trkpt><trkpt lat="43.61977657375051" lon="10.612320876615113"><ele>17.2</ele><time>2026-04-19T14:47:05Z</time></trkpt><trkpt lat="43.619781383553594" lon="10.61218368630969"><ele>17.0</ele><time>2026-04-19T14:47:06Z</time></trkpt><trkpt lat="43.619773852116204" lon="10.612043761255872"><ele>17.0</ele><time>2026-04-19T14:47:07Z</time></trkpt><trkpt lat="43.619775348129735" lon="10.611900394097024"><ele>17.0</ele><time>2026-04-19T14:47:08Z</time></trkpt><trkpt lat="43.61979427111849" lon="10.611749215413848"><ele>17.0</ele><time>2026-04-19T14:47:09Z</time></trkpt><trkpt lat="43.619836528609476" lon="10.61159997977444"><ele>17.0</ele><time>2026-04-19T14:47:10Z</time></trkpt><trkpt lat="43.61989308510263" lon="10.611454518851609"><ele>17.0</ele><time>2026-04-19T14:47:11Z</time></trkpt><trkpt lat="43.61995531893442" lon="10.611303064859099"><ele>17.0</ele><time>2026-04-19T14:47:12Z</time></trkpt><trkpt lat="43.62001525813748" lon="10.6111483975077"><ele>17.0</ele><time>2026-04-19T14:47:13Z</time></trkpt><trkpt lat="43.62007343190856" lon="10.610995179799858"><ele>17.0</ele><time>2026-04-19T14:47:14Z</time></trkpt><trkpt lat="43.62013408734656" lon="10.610835809223513"><ele>17.0</ele><time>2026-04-19T14:47:15Z</time></trkpt><trkpt lat="43.6201958661979" lon="10.610671961223757"><ele>17.0</ele><time>2026-04-19T14:47:16Z</time></trkpt><trkpt lat="43.62025767824309" lon="10.61050629879436"><ele>17.0</ele><time>2026-04-19T14:47:17Z</time></trkpt><trkpt lat="43.62032199488766" lon="10.610338125724423"><ele>17.0</ele><time>2026-04-19T14:47:18Z</time></trkpt><trkpt lat="43.62038806934107" lon="10.610163993755256"><ele>16.75</ele><time>2026-04-19T14:47:19Z</time></trkpt><trkpt lat="43.620455938531876" lon="10.609988553739221"><ele>16.5</ele><time>2026-04-19T14:47:20Z</time></trkpt><trkpt lat="43.62052398569977" lon="10.609815700341498"><ele>16.25</ele><time>2026-04-19T14:47:21Z</time></trkpt><trkpt lat="43.62059122742812" lon="10.60964461833136"><ele>16.0</ele><time>2026-04-19T14:47:22Z</time></trkpt><trkpt lat="43.6206554534952" lon="10.60947595264763"><ele>16.5</ele><time>2026-04-19T14:47:23Z</time></trkpt><trkpt lat="43.62071668640159" lon="10.609309446978319"><ele>17.0</ele><time>2026-04-19T14:47:24Z</time></trkpt><trkpt lat="43.62078045994976" lon="10.609142543216642"><ele>17.5</ele><time>2026-04-19T14:47:25Z</time></trkpt><trkpt lat="43.62084573004691" lon="10.608974388043022"><ele>18.0</ele><time>2026-04-19T14:47:26Z</time></trkpt><trkpt lat="43.62091433792761" lon="10.608798005295869"><ele>17.5</ele><time>2026-04-19T14:47:27Z</time></trkpt><trkpt lat="43.62098490498286" lon="10.608617448694186"><ele>17.0</ele><time>2026-04-19T14:47:28Z</time></trkpt><trkpt lat="43.62105586236834" lon="10.6084363701943"><ele>16.5</ele><time>2026-04-19T14:47:29Z</time></trkpt><trkpt lat="43.62112626322857" lon="10.608254987673716"><ele>16.0</ele><time>2026-04-19T14:47:30Z</time></trkpt><trkpt lat="43.62119708773711" lon="10.608071983086269"><ele>15.666666666666666</ele><time>2026-04-19T14:47:31Z</time></trkpt><trkpt lat="43.62126930557966" lon="10.607886630742412"><ele>15.333333333333332</ele><time>2026-04-19T14:47:32Z</time></trkpt><trkpt lat="43.62134323670081" lon="10.607700877458916"><ele>15.0</ele><time>2026-04-19T14:47:33Z</time></trkpt><trkpt lat="43.6214168660389" lon="10.607516463312871"><ele>15.0</ele><time>2026-04-19T14:47:34Z</time></trkpt><trkpt lat="43.621487699366796" lon="10.607331017374033"><ele>15.0</ele><time>2026-04-19T14:47:35Z</time></trkpt><trkpt lat="43.62155488565274" lon="10.607145956692603"><ele>15.0</ele><time>2026-04-19T14:47:36Z</time></trkpt><trkpt lat="43.62162218417712" lon="10.606966841731563"><ele>15.0</ele><time>2026-04-19T14:47:37Z</time></trkpt><trkpt lat="43.62168917634379" lon="10.60679019241208"><ele>15.5</ele><time>2026-04-19T14:47:38Z</time></trkpt><trkpt lat="43.62175665203361" lon="10.606612882855673"><ele>16.0</ele><time>2026-04-19T14:47:39Z</time></trkpt><trkpt lat="43.62182632968941" lon="10.606433388788826"><ele>16.5</ele><time>2026-04-19T14:47:40Z</time></trkpt><trkpt lat="43.62189635686064" lon="10.606250967576138"><ele>17.0</ele><time>2026-04-19T14:47:41Z</time></trkpt><trkpt lat="43.62196746236972" lon="10.606068158122625"><ele>16.666666666666668</ele><time>2026-04-19T14:47:42Z</time></trkpt><trkpt lat="43.62203917684641" lon="10.605884923378557"><ele>16.333333333333332</ele><time>2026-04-19T14:47:43Z</time></trkpt><trkpt lat="43.62211197134943" lon="10.605702230469815"><ele>16.0</ele><time>2026-04-19T14:47:44Z</time></trkpt><trkpt lat="43.62218469953715" lon="10.605518512128436"><ele>16.0</ele><time>2026-04-19T14:47:45Z</time></trkpt><trkpt lat="43.622257803787285" lon="10.605332807599481"><ele>16.0</ele><time>2026-04-19T14:47:46Z</time></trkpt><trkpt lat="43.622332137391034" lon="10.605150957281888"><ele>16.0</ele><time>2026-04-19T14:47:47Z</time></trkpt><trkpt lat="43.622412376950685" lon="10.604969643153153"><ele>16.0</ele><time>2026-04-19T14:47:48Z</time></trkpt><trkpt lat="43.62249560353209" lon="10.604785752733125"><ele>16.0</ele><time>2026-04-19T14:47:49Z</time></trkpt><trkpt lat="43.62258162887006" lon="10.604600041450576"><ele>16.0</ele><time>2026-04-19T14:47:50Z</time></trkpt><trkpt lat="43.622669835048534" lon="10.604415840662877"><ele>16.0</ele><time>2026-04-19T14:47:51Z</time></trkpt><trkpt lat="43.622762504623154" lon="10.604237440187179"><ele>16.0</ele><time>2026-04-19T14:47:52Z</time></trkpt><trkpt lat="43.622859929611636" lon="10.604066945973031"><ele>16.0</ele><time>2026-04-19T14:47:53Z</time></trkpt><trkpt lat="43.622959078273084" lon="10.603905955516781"><ele>16.0</ele><time>2026-04-19T14:47:54Z</time></trkpt><trkpt lat="43.62305980955097" lon="10.60375141130353"><ele>16.0</ele><time>2026-04-19T14:47:55Z</time></trkpt><trkpt lat="43.62316443166731" lon="10.603603564635938"><ele>16.0</ele><time>2026-04-19T14:47:56Z</time></trkpt><trkpt lat="43.623275204451645" lon="10.603463143102196"><ele>16.0</ele><time>2026-04-19T14:47:57Z</time></trkpt><trkpt lat="43.623389178640416" lon="10.60333002395162"><ele>16.0</ele><time>2026-04-19T14:47:58Z</time></trkpt><trkpt lat="43.62349301664281" lon="10.603216660253826"><ele>16.0</ele><time>2026-04-19T14:47:59Z</time></trkpt><trkpt lat="43.62358586790849" lon="10.603124856119164"><ele>16.0</ele><time>2026-04-19T14:48:00Z</time></trkpt><trkpt lat="43.62367091677072" lon="10.603065263338303"><ele>15.999999999999998</ele><time>2026-04-19T14:48:01Z</time></trkpt><trkpt lat="43.623753428400256" lon="10.603029018200862"><ele>16.0</ele><time>2026-04-19T14:48:02Z</time></trkpt><trkpt lat="43.62381939447148" lon="10.602983791334582"><ele>16.0</ele><time>2026-04-19T14:48:03Z</time></trkpt><trkpt lat="43.62391981571956" lon="10.60301303329973"><ele>16.0</ele><time>2026-04-19T14:48:04Z</time></trkpt><trkpt lat="43.624000993457386" lon="10.603004723420035"><ele>15.999999999999998</ele><time>2026-04-19T14:48:05Z</time></trkpt><trkpt lat="43.624075416184304" lon="10.603009807575404"><ele>16.0</ele><time>2026-04-19T14:48:06Z</time></trkpt><trkpt lat="43.62414231711454" lon="10.602973075266123"><ele>16.0</ele><time>2026-04-19T14:48:07Z</time></trkpt><trkpt lat="43.62418990269333" lon="10.6028697089906"><ele>16.0</ele><time>2026-04-19T14:48:08Z</time></trkpt><trkpt lat="43.62423496542865" lon="10.602773949548187"><ele>16.0</ele><time>2026-04-19T14:48:09Z</time></trkpt><trkpt lat="43.624283168732525" lon="10.602669461473024"><ele>16.0</ele><time>2026-04-19T14:48:10Z</time></trkpt><trkpt lat="43.6243426420909" lon="10.602565126818666"><ele>16.0</ele><time>2026-04-19T14:48:11Z</time></trkpt><trkpt lat="43.624420147073764" lon="10.602484086691263"><ele>15.8</ele><time>2026-04-19T14:48:12Z</time></trkpt><trkpt lat="43.62451334435285" lon="10.602426938248064"><ele>15.600000000000001</ele><time>2026-04-19T14:48:13Z</time></trkpt><trkpt lat="43.62461603773526" lon="10.602386282283335"><ele>15.4</ele><time>2026-04-19T14:48:14Z</time></trkpt><trkpt lat="43.62472911741988" lon="10.602352763375876"><ele>15.2</ele><time>2026-04-19T14:48:15Z</time></trkpt><trkpt lat="43.62485101725441" lon="10.602322664301786"><ele>15.0</ele><time>2026-04-19T14:48:16Z</time></trkpt><trkpt lat="43.624970202459785" lon="10.60229957743222"><ele>15.0</ele><time>2026-04-19T14:48:17Z</time></trkpt><trkpt lat="43.62509653081176" lon="10.602280147837154"><ele>15.0</ele><time>2026-04-19T14:48:18Z</time></trkpt><trkpt lat="43.62522834206219" lon="10.602260839345494"><ele>15.0</ele><time>2026-04-19T14:48:19Z</time></trkpt><trkpt lat="43.625364964807275" lon="10.602249538832853"><ele>15.0</ele><time>2026-04-19T14:48:20Z</time></trkpt><trkpt lat="43.62550340730273" lon="10.60224391042272"><ele>15.0</ele><time>2026-04-19T14:48:21Z</time></trkpt><trkpt lat="43.625643186154655" lon="10.60224189198059"><ele>15.0</ele><time>2026-04-19T14:48:22Z</time></trkpt><trkpt lat="43.62578400378677" lon="10.60224585696258"><ele>15.0</ele><time>2026-04-19T14:48:23Z</time></trkpt><trkpt lat="43.625923692472796" lon="10.6022573773615"><ele>15.0</ele><time>2026-04-19T14:48:24Z</time></trkpt><trkpt lat="43.62606568690731" lon="10.602275233277663"><ele>14.75</ele><time>2026-04-19T14:48:25Z</time></trkpt><trkpt lat="43.626209134060815" lon="10.602300176551314"><ele>14.5</ele><time>2026-04-19T14:48:26Z</time></trkpt><trkpt lat="43.626353167667844" lon="10.602334908205524"><ele>14.25</ele><time>2026-04-19T14:48:27Z</time></trkpt><trkpt lat="43.62649961394453" lon="10.602377222862723"><ele>14.0</ele><time>2026-04-19T14:48:28Z</time></trkpt><trkpt lat="43.626647594335054" lon="10.602423067455716"><ele>14.0</ele><time>2026-04-19T14:48:29Z</time></trkpt><trkpt lat="43.62679674637638" lon="10.602472802519596"><ele>14.0</ele><time>2026-04-19T14:48:30Z</time></trkpt><trkpt lat="43.62694724189281" lon="10.602529297221446"><ele>14.0</ele><time>2026-04-19T14:48:31Z</time></trkpt><trkpt lat="43.627097823758405" lon="10.602591322791923"><ele>14.666666666666668</ele><time>2026-04-19T14:48:32Z</time></trkpt><trkpt lat="43.62724817021132" lon="10.602662249776035"><ele>15.333333333333332</ele><time>2026-04-19T14:48:33Z</time></trkpt><trkpt lat="43.62739861595926" lon="10.602739948233888"><ele>16.0</ele><time>2026-04-19T14:48:34Z</time></trkpt><trkpt lat="43.627547650764896" lon="10.60281968199664"><ele>16.0</ele><time>2026-04-19T14:48:35Z</time></trkpt><trkpt lat="43.627697885860954" lon="10.60290032561519"><ele>16.0</ele><time>2026-04-19T14:48:36Z</time></trkpt><trkpt lat="43.62784640656385" lon="10.602981053171503"><ele>16.0</ele><time>2026-04-19T14:48:37Z</time></trkpt><trkpt lat="43.627997652359184" lon="10.603065319245658"><ele>16.0</ele><time>2026-04-19T14:48:38Z</time></trkpt><trkpt lat="43.62815116686145" lon="10.60315034392076"><ele>16.0</ele><time>2026-04-19T14:48:39Z</time></trkpt><trkpt lat="43.628305905549226" lon="10.603233900080536"><ele>16.0</ele><time>2026-04-19T14:48:40Z</time></trkpt><trkpt lat="43.628459858026226" lon="10.6033175663372"><ele>16.0</ele><time>2026-04-19T14:48:41Z</time></trkpt><trkpt lat="43.62861182478927" lon="10.603399579124897"><ele>16.0</ele><time>2026-04-19T14:48:42Z</time></trkpt><trkpt lat="43.62876317529762" lon="10.603480792473245"><ele>16.0</ele><time>2026-04-19T14:48:43Z</time></trkpt><trkpt lat="43.62891304621668" lon="10.60355992226281"><ele>15.333333333333332</ele><time>2026-04-19T14:48:44Z</time></trkpt><trkpt lat="43.62906227707262" lon="10.603639733655218"><ele>14.666666666666668</ele><time>2026-04-19T14:48:45Z</time></trkpt><trkpt lat="43.62921059386697" lon="10.603720518336813"><ele>14.0</ele><time>2026-04-19T14:48:46Z</time></trkpt><trkpt lat="43.62935798960251" lon="10.603802311218129"><ele>13.666666666666668</ele><time>2026-04-19T14:48:47Z</time></trkpt><trkpt lat="43.62950703632409" lon="10.603882688066935"><ele>13.333333333333332</ele><time>2026-04-19T14:48:48Z</time></trkpt><trkpt lat="43.62965718321152" lon="10.6039653266618"><ele>13.0</ele><time>2026-04-19T14:48:49Z</time></trkpt><trkpt lat="43.62980945235444" lon="10.604048567647887"><ele>13.0</ele><time>2026-04-19T14:48:50Z</time></trkpt><trkpt lat="43.6299623643976" lon="10.604131713917797"><ele>13.0</ele><time>2026-04-19T14:48:51Z</time></trkpt><trkpt lat="43.63011515458722" lon="10.604215685835303"><ele>13.0</ele><time>2026-04-19T14:48:52Z</time></trkpt><trkpt lat="43.63026823136293" lon="10.60430095983846"><ele>13.666666666666666</ele><time>2026-04-19T14:48:53Z</time></trkpt><trkpt lat="43.63042016644723" lon="10.604386052325232"><ele>14.333333333333332</ele><time>2026-04-19T14:48:54Z</time></trkpt><trkpt lat="43.630568329816406" lon="10.604468854125312"><ele>15.0</ele><time>2026-04-19T14:48:55Z</time></trkpt><trkpt lat="43.630711511614706" lon="10.604547812472097"><ele>15.0</ele><time>2026-04-19T14:48:56Z</time></trkpt><trkpt lat="43.63084961888042" lon="10.604623039830479"><ele>15.0</ele><time>2026-04-19T14:48:57Z</time></trkpt><trkpt lat="43.63098166605486" lon="10.604694837143825"><ele>15.0</ele><time>2026-04-19T14:48:58Z</time></trkpt><trkpt lat="43.63110875543515" lon="10.604763669853845"><ele>15.0</ele><time>2026-04-19T14:48:59Z</time></trkpt><trkpt lat="43.631230247082875" lon="10.604830327059503"><ele>15.2</ele><time>2026-04-19T14:49:00Z</time></trkpt><trkpt lat="43.63134552148315" lon="10.604893225994022"><ele>15.4</ele><time>2026-04-19T14:49:01Z</time></trkpt><trkpt lat="43.63144892825686" lon="10.60494967341848"><ele>15.600000000000001</ele><time>2026-04-19T14:49:02Z</time></trkpt><trkpt lat="43.63154192595935" lon="10.605000074012"><ele>15.8</ele><time>2026-04-19T14:49:03Z</time></trkpt><trkpt lat="43.63161889249936" lon="10.605041307515432"><ele>16.0</ele><time>2026-04-19T14:49:04Z</time></trkpt><trkpt lat="43.631685038676615" lon="10.605077778907187"><ele>16.0</ele><time>2026-04-19T14:49:05Z</time></trkpt><trkpt lat="43.631750178034494" lon="10.605120072063514"><ele>16.0</ele><time>2026-04-19T14:49:07Z</time></trkpt><trkpt lat="43.63181862158496" lon="10.605180727158778"><ele>16.0</ele><time>2026-04-19T14:49:11Z</time></trkpt><trkpt lat="43.63190557441531" lon="10.605288270738713"><ele>16.0</ele><time>2026-04-19T14:49:13Z</time></trkpt><trkpt lat="43.63201409713005" lon="10.605383268921246"><ele>16.0</ele><time>2026-04-19T14:49:15Z</time></trkpt><trkpt lat="43.632082739481575" lon="10.605404689348136"><ele>15.999999999999998</ele><time>2026-04-19T14:49:16Z</time></trkpt><trkpt lat="43.63215659654017" lon="10.605420299391806"><ele>16.0</ele><time>2026-04-19T14:49:17Z</time></trkpt><trkpt lat="43.632229592235944" lon="10.605358225897199"><ele>16.0</ele><time>2026-04-19T14:49:18Z</time></trkpt><trkpt lat="43.632297097700956" lon="10.605287341149072"><ele>16.0</ele><time>2026-04-19T14:49:19Z</time></trkpt><trkpt lat="43.63236775259438" lon="10.605207744084815"><ele>15.999999999999998</ele><time>2026-04-19T14:49:20Z</time></trkpt><trkpt lat="43.63245179575393" lon="10.605145660088755"><ele>16.0</ele><time>2026-04-19T14:49:21Z</time></trkpt><trkpt lat="43.632546105018115" lon="10.605104921289474"><ele>15.75</ele><time>2026-04-19T14:49:22Z</time></trkpt><trkpt lat="43.63264910581712" lon="10.605074270729304"><ele>15.5</ele><time>2026-04-19T14:49:23Z</time></trkpt><trkpt lat="43.63276117021708" lon="10.60503751529387"><ele>15.25</ele><time>2026-04-19T14:49:24Z</time></trkpt><trkpt lat="43.63287942191862" lon="10.604995099375838"><ele>15.0</ele><time>2026-04-19T14:49:25Z</time></trkpt><trkpt lat="43.632997881808976" lon="10.604945616127484"><ele>15.5</ele><time>2026-04-19T14:49:26Z</time></trkpt><trkpt lat="43.63311016672128" lon="10.604887233484156"><ele>16.0</ele><time>2026-04-19T14:49:27Z</time></trkpt><trkpt lat="43.63321987083348" lon="10.604816289430019"><ele>16.5</ele><time>2026-04-19T14:49:28Z</time></trkpt><trkpt lat="43.633327440934565" lon="10.604728514492443"><ele>17.0</ele><time>2026-04-19T14:49:29Z</time></trkpt><trkpt lat="43.633437250732754" lon="10.604628450035234"><ele>17.0</ele><time>2026-04-19T14:49:30Z</time></trkpt><trkpt lat="43.63355211096852" lon="10.604530665014924"><ele>17.0</ele><time>2026-04-19T14:49:31Z</time></trkpt><trkpt lat="43.633674026078516" lon="10.6044414911102"><ele>17.0</ele><time>2026-04-19T14:49:32Z</time></trkpt><trkpt lat="43.63380454549068" lon="10.604377489298779"><ele>17.0</ele><time>2026-04-19T14:49:33Z</time></trkpt><trkpt lat="43.63393660344903" lon="10.604298258465564"><ele>16.5</ele><time>2026-04-19T14:49:34Z</time></trkpt><trkpt lat="43.634079779366814" lon="10.604240556260697"><ele>16.0</ele><time>2026-04-19T14:49:35Z</time></trkpt><trkpt lat="43.63421585240151" lon="10.604194744506641"><ele>15.5</ele><time>2026-04-19T14:49:36Z</time></trkpt><trkpt lat="43.63435061281381" lon="10.60414818116191"><ele>15.0</ele><time>2026-04-19T14:49:37Z</time></trkpt><trkpt lat="43.63448476789298" lon="10.604106277771765"><ele>14.75</ele><time>2026-04-19T14:49:38Z</time></trkpt><trkpt lat="43.63461901516043" lon="10.60406587339445"><ele>14.5</ele><time>2026-04-19T14:49:39Z</time></trkpt><trkpt lat="43.63474936099976" lon="10.60401742127642"><ele>14.25</ele><time>2026-04-19T14:49:40Z</time></trkpt><trkpt lat="43.63487037366231" lon="10.603953845080222"><ele>14.0</ele><time>2026-04-19T14:49:41Z</time></trkpt><trkpt lat="43.635001417760186" lon="10.603878068234106"><ele>14.0</ele><time>2026-04-19T14:49:42Z</time></trkpt><trkpt lat="43.63513091547237" lon="10.60379004139601"><ele>14.0</ele><time>2026-04-19T14:49:43Z</time></trkpt><trkpt lat="43.63525946882854" lon="10.603689881413414"><ele>14.0</ele><time>2026-04-19T14:49:44Z</time></trkpt><trkpt lat="43.63538592989094" lon="10.603577220587155"><ele>14.0</ele><time>2026-04-19T14:49:45Z</time></trkpt><trkpt lat="43.63550698606114" lon="10.603452550698403"><ele>13.5</ele><time>2026-04-19T14:49:46Z</time></trkpt><trkpt lat="43.6356189423983" lon="10.603317249810218"><ele>13.0</ele><time>2026-04-19T14:49:47Z</time></trkpt><trkpt lat="43.635721537727775" lon="10.603169214153437"><ele>12.5</ele><time>2026-04-19T14:49:48Z</time></trkpt><trkpt lat="43.635813938148914" lon="10.603013789559496"><ele>12.0</ele><time>2026-04-19T14:49:49Z</time></trkpt><trkpt lat="43.6359007727517" lon="10.602854220585856"><ele>12.0</ele><time>2026-04-19T14:49:50Z</time></trkpt><trkpt lat="43.63598421364737" lon="10.602689060472166"><ele>12.0</ele><time>2026-04-19T14:49:51Z</time></trkpt><trkpt lat="43.63606584823033" lon="10.602525393660594"><ele>12.0</ele><time>2026-04-19T14:49:52Z</time></trkpt><trkpt lat="43.63614633642117" lon="10.602358792909225"><ele>12.0</ele><time>2026-04-19T14:49:53Z</time></trkpt><trkpt lat="43.63622433093516" lon="10.602187255015158"><ele>12.0</ele><time>2026-04-19T14:49:54Z</time></trkpt><trkpt lat="43.63630251410355" lon="10.602014827297346"><ele>12.0</ele><time>2026-04-19T14:49:55Z</time></trkpt><trkpt lat="43.636382697229436" lon="10.601840416571175"><ele>12.0</ele><time>2026-04-19T14:49:56Z</time></trkpt><trkpt lat="43.63646337800849" lon="10.601666045604668"><ele>12.0</ele><time>2026-04-19T14:49:57Z</time></trkpt><trkpt lat="43.63654511725056" lon="10.601493872724625"><ele>12.5</ele><time>2026-04-19T14:49:58Z</time></trkpt><trkpt lat="43.63662545001562" lon="10.601327975579178"><ele>13.0</ele><time>2026-04-19T14:49:59Z</time></trkpt><trkpt lat="43.63670258265097" lon="10.601167070534068"><ele>13.5</ele><time>2026-04-19T14:50:00Z</time></trkpt><trkpt lat="43.636774928953905" lon="10.601012489171936"><ele>14.0</ele><time>2026-04-19T14:50:01Z</time></trkpt><trkpt lat="43.63684381088342" lon="10.6008634384729"><ele>14.0</ele><time>2026-04-19T14:50:02Z</time></trkpt><trkpt lat="43.63691569387758" lon="10.600725138817182"><ele>13.999999999999998</ele><time>2026-04-19T14:50:03Z</time></trkpt><trkpt lat="43.6369940864428" lon="10.60061362770264"><ele>13.999999999999998</ele><time>2026-04-19T14:50:04Z</time></trkpt><trkpt lat="43.63707537507318" lon="10.600527320437124"><ele>14.0</ele><time>2026-04-19T14:50:05Z</time></trkpt><trkpt lat="43.63715180503263" lon="10.600480353399783"><ele>14.0</ele><time>2026-04-19T14:50:06Z</time></trkpt><trkpt lat="43.63725009293273" lon="10.60046638287095"><ele>14.000000000000002</ele><time>2026-04-19T14:50:08Z</time></trkpt><trkpt lat="43.63732897577256" lon="10.600495572044593"><ele>14.0</ele><time>2026-04-19T14:50:10Z</time></trkpt><trkpt lat="43.63738835753706" lon="10.600582490659914"><ele>14.0</ele><time>2026-04-19T14:50:13Z</time></trkpt><trkpt lat="43.6374008416317" lon="10.600721174702727"><ele>14.0</ele><time>2026-04-19T14:50:15Z</time></trkpt><trkpt lat="43.637400295827796" lon="10.600811221934734"><ele>14.000000000000002</ele><time>2026-04-19T14:50:16Z</time></trkpt><trkpt lat="43.63739593433077" lon="10.600912439420688"><ele>14.0</ele><time>2026-04-19T14:50:17Z</time></trkpt><trkpt lat="43.6373859321681" lon="10.601020440980898"><ele>14.0</ele><time>2026-04-19T14:50:18Z</time></trkpt><trkpt lat="43.637405455038746" lon="10.601114984869277"><ele>13.999999999999998</ele><time>2026-04-19T14:50:19Z</time></trkpt><trkpt lat="43.63731165605576" lon="10.601226711771163"><ele>13.999999999999998</ele><time>2026-04-19T14:50:20Z</time></trkpt><trkpt lat="43.63724553121147" lon="10.60132918380142"><ele>14.0</ele><time>2026-04-19T14:50:21Z</time></trkpt><trkpt lat="43.637163913385535" lon="10.601430798095537"><ele>14.0</ele><time>2026-04-19T14:50:22Z</time></trkpt><trkpt lat="43.6370766668082" lon="10.601543449291537"><ele>14.0</ele><time>2026-04-19T14:50:23Z</time></trkpt><trkpt lat="43.636984415268316" lon="10.601666644980297"><ele>14.0</ele><time>2026-04-19T14:50:24Z</time></trkpt><trkpt lat="43.63689590201312" lon="10.601788289813404"><ele>14.0</ele><time>2026-04-19T14:50:25Z</time></trkpt><trkpt lat="43.63680320480439" lon="10.601918049149132"><ele>14.0</ele><time>2026-04-19T14:50:26Z</time></trkpt><trkpt lat="43.636708254648326" lon="10.602056719350491"><ele>13.5</ele><time>2026-04-19T14:50:27Z</time></trkpt><trkpt lat="43.63661066057805" lon="10.602204083239522"><ele>13.0</ele><time>2026-04-19T14:50:28Z</time></trkpt><trkpt lat="43.636508747013444" lon="10.60235556336155"><ele>12.5</ele><time>2026-04-19T14:50:29Z</time></trkpt><trkpt lat="43.63640348616741" lon="10.602511811904602"><ele>12.0</ele><time>2026-04-19T14:50:30Z</time></trkpt><trkpt lat="43.63629254049625" lon="10.602671871333008"><ele>12.0</ele><time>2026-04-19T14:50:31Z</time></trkpt><trkpt lat="43.63618144774729" lon="10.602838375554303"><ele>12.0</ele><time>2026-04-19T14:50:32Z</time></trkpt><trkpt lat="43.63606944761934" lon="10.60300445980867"><ele>12.0</ele><time>2026-04-19T14:50:33Z</time></trkpt><trkpt lat="43.63596062450766" lon="10.603168804585321"><ele>12.0</ele><time>2026-04-19T14:50:34Z</time></trkpt><trkpt lat="43.63585290245624" lon="10.60333363320131"><ele>12.0</ele><time>2026-04-19T14:50:35Z</time></trkpt><trkpt lat="43.635748609181384" lon="10.603496592614322"><ele>12.0</ele><time>2026-04-19T14:50:36Z</time></trkpt><trkpt lat="43.635645676957" lon="10.603659463864544"><ele>12.0</ele><time>2026-04-19T14:50:37Z</time></trkpt><trkpt lat="43.63554288190111" lon="10.603823334871668"><ele>12.0</ele><time>2026-04-19T14:50:38Z</time></trkpt><trkpt lat="43.635437551259734" lon="10.603988968871057"><ele>12.0</ele><time>2026-04-19T14:50:39Z</time></trkpt><trkpt lat="43.635329386289634" lon="10.604149617014297"><ele>12.666666666666668</ele><time>2026-04-19T14:50:40Z</time></trkpt><trkpt lat="43.635217193338846" lon="10.604301362860303"><ele>13.333333333333334</ele><time>2026-04-19T14:50:41Z</time></trkpt><trkpt lat="43.635095585863496" lon="10.604437117411802"><ele>14.0</ele><time>2026-04-19T14:50:42Z</time></trkpt><trkpt lat="43.63496915906147" lon="10.604558476737468"><ele>14.0</ele><time>2026-04-19T14:50:43Z</time></trkpt><trkpt lat="43.634841475643526" lon="10.604677449785926"><ele>14.0</ele><time>2026-04-19T14:50:44Z</time></trkpt><trkpt lat="43.63471421884513" lon="10.604799472663165"><ele>14.0</ele><time>2026-04-19T14:50:45Z</time></trkpt><trkpt lat="43.63458674802145" lon="10.60492468384372"><ele>14.333333333333334</ele><time>2026-04-19T14:50:46Z</time></trkpt><trkpt lat="43.634456787813576" lon="10.60504859112582"><ele>14.666666666666668</ele><time>2026-04-19T14:50:47Z</time></trkpt><trkpt lat="43.63432389576868" lon="10.605171667602551"><ele>15.0</ele><time>2026-04-19T14:50:48Z</time></trkpt><trkpt lat="43.634191257595354" lon="10.605298168135564"><ele>14.666666666666668</ele><time>2026-04-19T14:50:49Z</time></trkpt><trkpt lat="43.63405936554676" lon="10.60542614367127"><ele>14.333333333333334</ele><time>2026-04-19T14:50:50Z</time></trkpt><trkpt lat="43.63392790511079" lon="10.605551850974233"><ele>14.0</ele><time>2026-04-19T14:50:51Z</time></trkpt><trkpt lat="43.63380168517699" lon="10.605672146907478"><ele>14.0</ele><time>2026-04-19T14:50:52Z</time></trkpt><trkpt lat="43.63368401635499" lon="10.605785109799287"><ele>14.0</ele><time>2026-04-19T14:50:53Z</time></trkpt><trkpt lat="43.633570558429575" lon="10.605896856839117"><ele>14.0</ele><time>2026-04-19T14:50:54Z</time></trkpt><trkpt lat="43.63345859731123" lon="10.606003795260733"><ele>14.0</ele><time>2026-04-19T14:50:55Z</time></trkpt><trkpt lat="43.63334731773964" lon="10.606107682647131"><ele>14.25</ele><time>2026-04-19T14:50:56Z</time></trkpt><trkpt lat="43.633241841531266" lon="10.606216600970068"><ele>14.5</ele><time>2026-04-19T14:50:57Z</time></trkpt><trkpt lat="43.633152948838664" lon="10.606343388571"><ele>14.75</ele><time>2026-04-19T14:50:58Z</time></trkpt><trkpt lat="43.63308465644169" lon="10.60649258877296"><ele>15.0</ele><time>2026-04-19T14:50:59Z</time></trkpt><trkpt lat="43.63304151353675" lon="10.60665499513089"><ele>15.0</ele><time>2026-04-19T14:51:00Z</time></trkpt><trkpt lat="43.633026443748044" lon="10.606821389949381"><ele>15.0</ele><time>2026-04-19T14:51:01Z</time></trkpt><trkpt lat="43.633035011058624" lon="10.606984364930419"><ele>15.0</ele><time>2026-04-19T14:51:02Z</time></trkpt><trkpt lat="43.633066253134224" lon="10.607141083853785"><ele>15.0</ele><time>2026-04-19T14:51:03Z</time></trkpt><trkpt lat="43.63312225786858" lon="10.607282973075337"><ele>15.25</ele><time>2026-04-19T14:51:04Z</time></trkpt><trkpt lat="43.633198890551235" lon="10.607405763637958"><ele>15.5</ele><time>2026-04-19T14:51:05Z</time></trkpt><trkpt lat="43.633294832437926" lon="10.607501676360895"><ele>15.75</ele><time>2026-04-19T14:51:06Z</time></trkpt><trkpt lat="43.633404354449425" lon="10.607570461178213"><ele>16.0</ele><time>2026-04-19T14:51:07Z</time></trkpt><trkpt lat="43.633522462444176" lon="10.607608975221812"><ele>15.75</ele><time>2026-04-19T14:51:08Z</time></trkpt><trkpt lat="43.63364186732957" lon="10.607597891460967"><ele>15.5</ele><time>2026-04-19T14:51:09Z</time></trkpt><trkpt lat="43.63376213696083" lon="10.607605630196758"><ele>15.25</ele><time>2026-04-19T14:51:10Z</time></trkpt><trkpt lat="43.633880211521316" lon="10.607577008864027"><ele>15.0</ele><time>2026-04-19T14:51:11Z</time></trkpt><trkpt lat="43.633996860723485" lon="10.607550880154188"><ele>15.0</ele><time>2026-04-19T14:51:12Z</time></trkpt><trkpt lat="43.634117038137504" lon="10.607548884803895"><ele>15.0</ele><time>2026-04-19T14:51:13Z</time></trkpt><trkpt lat="43.63423537695171" lon="10.607569064175232"><ele>15.0</ele><time>2026-04-19T14:51:14Z</time></trkpt><trkpt lat="43.634351526079016" lon="10.607614492958437"><ele>15.0</ele><time>2026-04-19T14:51:15Z</time></trkpt><trkpt lat="43.63446662182507" lon="10.607683748275239"><ele>15.0</ele><time>2026-04-19T14:51:16Z</time></trkpt><trkpt lat="43.63457739088055" lon="10.6077727979176"><ele>15.0</ele><time>2026-04-19T14:51:17Z</time></trkpt><trkpt lat="43.63467942675457" lon="10.607888181853454"><ele>15.0</ele><time>2026-04-19T14:51:18Z</time></trkpt><trkpt lat="43.6347862493266" lon="10.608001936972693"><ele>15.0</ele><time>2026-04-19T14:51:19Z</time></trkpt><trkpt lat="43.634871656171036" lon="10.608175296215265"><ele>14.666666666666668</ele><time>2026-04-19T14:51:20Z</time></trkpt><trkpt lat="43.63497321452137" lon="10.608332565250622"><ele>14.333333333333334</ele><time>2026-04-19T14:51:21Z</time></trkpt><trkpt lat="43.635079546928445" lon="10.608496908385861"><ele>14.0</ele><time>2026-04-19T14:51:22Z</time></trkpt><trkpt lat="43.635187815611644" lon="10.608665494427532"><ele>14.0</ele><time>2026-04-19T14:51:23Z</time></trkpt><trkpt lat="43.635298199202246" lon="10.60883616919746"><ele>14.0</ele><time>2026-04-19T14:51:24Z</time></trkpt><trkpt lat="43.63541283632542" lon="10.609001594990648"><ele>14.0</ele><time>2026-04-19T14:51:25Z</time></trkpt><trkpt lat="43.63553473288608" lon="10.609157689359598"><ele>14.333333333333334</ele><time>2026-04-19T14:51:26Z</time></trkpt><trkpt lat="43.63565417278389" lon="10.609311927697034"><ele>14.666666666666668</ele><time>2026-04-19T14:51:27Z</time></trkpt><trkpt lat="43.6357698952666" lon="10.60947039322898"><ele>15.0</ele><time>2026-04-19T14:51:28Z</time></trkpt><trkpt lat="43.63588656825575" lon="10.609631589170437"><ele>14.666666666666668</ele><time>2026-04-19T14:51:29Z</time></trkpt><trkpt lat="43.63600552664913" lon="10.609793415463436"><ele>14.333333333333334</ele><time>2026-04-19T14:51:30Z</time></trkpt><trkpt lat="43.63612673675215" lon="10.609955575295805"><ele>14.0</ele><time>2026-04-19T14:51:31Z</time></trkpt><trkpt lat="43.636248462629645" lon="10.610118838492406"><ele>14.0</ele><time>2026-04-19T14:51:32Z</time></trkpt><trkpt lat="43.636374110552175" lon="10.610285864562522"><ele>14.0</ele><time>2026-04-19T14:51:33Z</time></trkpt><trkpt lat="43.636504572818076" lon="10.61045632147005"><ele>14.0</ele><time>2026-04-19T14:51:34Z</time></trkpt><trkpt lat="43.636636413028384" lon="10.61062892955057"><ele>14.0</ele><time>2026-04-19T14:51:35Z</time></trkpt><trkpt lat="43.636767343629245" lon="10.610802737906395"><ele>14.0</ele><time>2026-04-19T14:51:36Z</time></trkpt><trkpt lat="43.63689918424429" lon="10.610978241912541"><ele>14.0</ele><time>2026-04-19T14:51:37Z</time></trkpt><trkpt lat="43.63702931510455" lon="10.611150717346188"><ele>14.666666666666668</ele><time>2026-04-19T14:51:38Z</time></trkpt><trkpt lat="43.63716077926176" lon="10.611323076464837"><ele>15.333333333333332</ele><time>2026-04-19T14:51:39Z</time></trkpt><trkpt lat="43.637293737595904" lon="10.611499613942188"><ele>16.0</ele><time>2026-04-19T14:51:40Z</time></trkpt><trkpt lat="43.637428274106384" lon="10.611678105689425"><ele>16.0</ele><time>2026-04-19T14:51:41Z</time></trkpt><trkpt lat="43.63756646663151" lon="10.611855786730228"><ele>16.0</ele><time>2026-04-19T14:51:42Z</time></trkpt><trkpt lat="43.637705427165876" lon="10.612036106517097"><ele>16.0</ele><time>2026-04-19T14:51:43Z</time></trkpt><trkpt lat="43.637844945675425" lon="10.612220226519291"><ele>16.0</ele><time>2026-04-19T14:51:44Z</time></trkpt><trkpt lat="43.63798648883042" lon="10.612405957970974"><ele>16.0</ele><time>2026-04-19T14:51:45Z</time></trkpt><trkpt lat="43.63812953041324" lon="10.612592357633217"><ele>16.0</ele><time>2026-04-19T14:51:46Z</time></trkpt><trkpt lat="43.63827366141779" lon="10.612780661722473"><ele>16.0</ele><time>2026-04-19T14:51:47Z</time></trkpt><trkpt lat="43.638418378180646" lon="10.61297091741795"><ele>16.0</ele><time>2026-04-19T14:51:48Z</time></trkpt><trkpt lat="43.638563720810595" lon="10.613162801715546"><ele>16.0</ele><time>2026-04-19T14:51:49Z</time></trkpt><trkpt lat="43.63871158527245" lon="10.613357538007605"><ele>15.666666666666666</ele><time>2026-04-19T14:51:50Z</time></trkpt><trkpt lat="43.6388618700886" lon="10.61355405968303"><ele>15.333333333333332</ele><time>2026-04-19T14:51:51Z</time></trkpt><trkpt lat="43.63901196971662" lon="10.613751092744955"><ele>15.0</ele><time>2026-04-19T14:51:52Z</time></trkpt><trkpt lat="43.639162827337174" lon="10.613947588644955"><ele>15.0</ele><time>2026-04-19T14:51:53Z</time></trkpt><trkpt lat="43.6393119344977" lon="10.614143194881754"><ele>15.0</ele><time>2026-04-19T14:51:54Z</time></trkpt><trkpt lat="43.63946077352622" lon="10.614337710003126"><ele>15.0</ele><time>2026-04-19T14:51:55Z</time></trkpt><trkpt lat="43.63960751058553" lon="10.614531084445789"><ele>15.333333333333332</ele><time>2026-04-19T14:51:56Z</time></trkpt><trkpt lat="43.639753804301876" lon="10.614723145867288"><ele>15.666666666666666</ele><time>2026-04-19T14:51:57Z</time></trkpt><trkpt lat="43.639899075209904" lon="10.614914755643923"><ele>16.0</ele><time>2026-04-19T14:51:58Z</time></trkpt><trkpt lat="43.64004397409308" lon="10.615105794378817"><ele>16.0</ele><time>2026-04-19T14:51:59Z</time></trkpt><trkpt lat="43.64018859693889" lon="10.615297085894731"><ele>16.0</ele><time>2026-04-19T14:52:00Z</time></trkpt><trkpt lat="43.640328752344054" lon="10.615484535296373"><ele>16.0</ele><time>2026-04-19T14:52:01Z</time></trkpt><trkpt lat="43.64046528553082" lon="10.6156686848884"><ele>16.0</ele><time>2026-04-19T14:52:02Z</time></trkpt><trkpt lat="43.64059899789645" lon="10.615847170558837"><ele>16.0</ele><time>2026-04-19T14:52:03Z</time></trkpt><trkpt lat="43.64073122147005" lon="10.616021547306765"><ele>16.0</ele><time>2026-04-19T14:52:04Z</time></trkpt><trkpt lat="43.640862381309944" lon="10.616193552578029"><ele>16.0</ele><time>2026-04-19T14:52:05Z</time></trkpt><trkpt lat="43.640989662576025" lon="10.616356546694604"><ele>16.0</ele><time>2026-04-19T14:52:06Z</time></trkpt><trkpt lat="43.64111519396651" lon="10.616521633007817"><ele>16.0</ele><time>2026-04-19T14:52:07Z</time></trkpt><trkpt lat="43.64124085963978" lon="10.616688258624556"><ele>15.666666666666666</ele><time>2026-04-19T14:52:08Z</time></trkpt><trkpt lat="43.64136709851664" lon="10.61685441257503"><ele>15.333333333333332</ele><time>2026-04-19T14:52:09Z</time></trkpt><trkpt lat="43.64149428567626" lon="10.617020946238588"><ele>15.0</ele><time>2026-04-19T14:52:10Z</time></trkpt><trkpt lat="43.641622039362176" lon="10.617187160011705"><ele>15.0</ele><time>2026-04-19T14:52:11Z</time></trkpt><trkpt lat="43.6417505102827" lon="10.61735352406832"><ele>15.0</ele><time>2026-04-19T14:52:12Z</time></trkpt><trkpt lat="43.641882558598326" lon="10.617524407994171"><ele>15.0</ele><time>2026-04-19T14:52:13Z</time></trkpt><trkpt lat="43.64201606178885" lon="10.617699290298148"><ele>15.0</ele><time>2026-04-19T14:52:14Z</time></trkpt><trkpt lat="43.642149567006406" lon="10.617876510311321"><ele>15.0</ele><time>2026-04-19T14:52:15Z</time></trkpt><trkpt lat="43.642283681852454" lon="10.618057306492087"><ele>15.0</ele><time>2026-04-19T14:52:16Z</time></trkpt><trkpt lat="43.6424198053083" lon="10.618240511274763"><ele>15.0</ele><time>2026-04-19T14:52:17Z</time></trkpt><trkpt lat="43.642558275629135" lon="10.618423199739434"><ele>15.0</ele><time>2026-04-19T14:52:18Z</time></trkpt><trkpt lat="43.64269887780194" lon="10.618606364282197"><ele>15.0</ele><time>2026-04-19T14:52:19Z</time></trkpt><trkpt lat="43.642840097980155" lon="10.618791282281855"><ele>14.666666666666668</ele><time>2026-04-19T14:52:20Z</time></trkpt><trkpt lat="43.6429811891518" lon="10.618977559910876"><ele>14.333333333333334</ele><time>2026-04-19T14:52:21Z</time></trkpt><trkpt lat="43.643124298214715" lon="10.61916503609992"><ele>14.0</ele><time>2026-04-19T14:52:22Z</time></trkpt><trkpt lat="43.6432686829404" lon="10.619352700687147"><ele>14.666666666666668</ele><time>2026-04-19T14:52:23Z</time></trkpt><trkpt lat="43.643412787900445" lon="10.61954198005283"><ele>15.333333333333332</ele><time>2026-04-19T14:52:24Z</time></trkpt><trkpt lat="43.64355729406591" lon="10.619732507857847"><ele>16.0</ele><time>2026-04-19T14:52:25Z</time></trkpt><trkpt lat="43.64370330948875" lon="10.619923777298553"><ele>16.0</ele><time>2026-04-19T14:52:26Z</time></trkpt><trkpt lat="43.643849408437376" lon="10.620116141903203"><ele>16.0</ele><time>2026-04-19T14:52:27Z</time></trkpt><trkpt lat="43.64399626562789" lon="10.620308956799809"><ele>16.0</ele><time>2026-04-19T14:52:28Z</time></trkpt><trkpt lat="43.64414164467173" lon="10.620501096780416"><ele>15.666666666666666</ele><time>2026-04-19T14:52:29Z</time></trkpt><trkpt lat="43.6442873950906" lon="10.620693869565512"><ele>15.333333333333332</ele><time>2026-04-19T14:52:30Z</time></trkpt><trkpt lat="43.64443189835476" lon="10.62088215539055"><ele>15.0</ele><time>2026-04-19T14:52:31Z</time></trkpt><trkpt lat="43.64457261873549" lon="10.621068392450997"><ele>15.333333333333332</ele><time>2026-04-19T14:52:32Z</time></trkpt><trkpt lat="43.64471176523817" lon="10.621253583240843"><ele>15.666666666666666</ele><time>2026-04-19T14:52:33Z</time></trkpt><trkpt lat="43.644849607065794" lon="10.621439046061749"><ele>16.0</ele><time>2026-04-19T14:52:34Z</time></trkpt><trkpt lat="43.64498533784862" lon="10.621625756555662"><ele>16.0</ele><time>2026-04-19T14:52:35Z</time></trkpt><trkpt lat="43.64511857899752" lon="10.621814587570158"><ele>16.0</ele><time>2026-04-19T14:52:36Z</time></trkpt><trkpt lat="43.64525043131157" lon="10.622010058314531"><ele>16.0</ele><time>2026-04-19T14:52:37Z</time></trkpt><trkpt lat="43.645379143691414" lon="10.622208734804609"><ele>16.333333333333332</ele><time>2026-04-19T14:52:38Z</time></trkpt><trkpt lat="43.64550608179196" lon="10.622411058493155"><ele>16.666666666666668</ele><time>2026-04-19T14:52:39Z</time></trkpt><trkpt lat="43.64562980007166" lon="10.622618488343512"><ele>17.0</ele><time>2026-04-19T14:52:40Z</time></trkpt><trkpt lat="43.64574834835137" lon="10.622830435755992"><ele>16.333333333333336</ele><time>2026-04-19T14:52:41Z</time></trkpt><trkpt lat="43.64586415069986" lon="10.623046807317488"><ele>15.666666666666668</ele><time>2026-04-19T14:52:42Z</time></trkpt><trkpt lat="43.64597520741239" lon="10.623265952996121"><ele>15.0</ele><time>2026-04-19T14:52:43Z</time></trkpt><trkpt lat="43.64608244509159" lon="10.623490638704768"><ele>15.666666666666668</ele><time>2026-04-19T14:52:44Z</time></trkpt><trkpt lat="43.64618407446459" lon="10.623719849608634"><ele>16.333333333333336</ele><time>2026-04-19T14:52:45Z</time></trkpt><trkpt lat="43.646278443360174" lon="10.623953556707283"><ele>17.0</ele><time>2026-04-19T14:52:46Z</time></trkpt><trkpt lat="43.64636631266038" lon="10.624194366949089"><ele>17.0</ele><time>2026-04-19T14:52:47Z</time></trkpt><trkpt lat="43.646448085051034" lon="10.624439455529751"><ele>17.0</ele><time>2026-04-19T14:52:48Z</time></trkpt><trkpt lat="43.646524557106105" lon="10.624688541768814"><ele>17.0</ele><time>2026-04-19T14:52:49Z</time></trkpt><trkpt lat="43.64659696368663" lon="10.624938415134855"><ele>16.333333333333336</ele><time>2026-04-19T14:52:50Z</time></trkpt><trkpt lat="43.64666541372681" lon="10.625192169742265"><ele>15.666666666666668</ele><time>2026-04-19T14:52:51Z</time></trkpt><trkpt lat="43.64672910150068" lon="10.62544763119001"><ele>15.0</ele><time>2026-04-19T14:52:52Z</time></trkpt><trkpt lat="43.6467850410947" lon="10.625706641752402"><ele>15.0</ele><time>2026-04-19T14:52:53Z</time></trkpt><trkpt lat="43.64683542710977" lon="10.62596706446582"><ele>15.0</ele><time>2026-04-19T14:52:54Z</time></trkpt><trkpt lat="43.64687603636255" lon="10.626228530584005"><ele>15.0</ele><time>2026-04-19T14:52:55Z</time></trkpt><trkpt lat="43.64691199921769" lon="10.62649183153911"><ele>15.333333333333332</ele><time>2026-04-19T14:52:56Z</time></trkpt><trkpt lat="43.64694389128057" lon="10.62675714286534"><ele>15.666666666666666</ele><time>2026-04-19T14:52:57Z</time></trkpt><trkpt lat="43.64697082435341" lon="10.627021640070138"><ele>16.0</ele><time>2026-04-19T14:52:58Z</time></trkpt><trkpt lat="43.64698953724524" lon="10.627284353365333"><ele>16.0</ele><time>2026-04-19T14:52:59Z</time></trkpt><trkpt lat="43.64700223649743" lon="10.627547193520522"><ele>16.0</ele><time>2026-04-19T14:53:00Z</time></trkpt><trkpt lat="43.64701158284017" lon="10.627811640525003"><ele>16.0</ele><time>2026-04-19T14:53:01Z</time></trkpt><trkpt lat="43.64701752221253" lon="10.628076541792266"><ele>16.0</ele><time>2026-04-19T14:53:02Z</time></trkpt><trkpt lat="43.64702342737773" lon="10.628340395224114"><ele>16.0</ele><time>2026-04-19T14:53:03Z</time></trkpt><trkpt lat="43.64702685606768" lon="10.628603837459389"><ele>16.0</ele><time>2026-04-19T14:53:04Z</time></trkpt><trkpt lat="43.64702515961086" lon="10.628867608600258"><ele>16.333333333333332</ele><time>2026-04-19T14:53:05Z</time></trkpt><trkpt lat="43.647021255702576" lon="10.629132192008008"><ele>16.666666666666668</ele><time>2026-04-19T14:53:06Z</time></trkpt><trkpt lat="43.6470154700231" lon="10.629396572808535"><ele>17.0</ele><time>2026-04-19T14:53:07Z</time></trkpt><trkpt lat="43.647008759316826" lon="10.629661104774458"><ele>17.0</ele><time>2026-04-19T14:53:08Z</time></trkpt><trkpt lat="43.64700183156629" lon="10.6299246566012"><ele>17.0</ele><time>2026-04-19T14:53:09Z</time></trkpt><trkpt lat="43.646995841923825" lon="10.630188016454193"><ele>17.0</ele><time>2026-04-19T14:53:10Z</time></trkpt><trkpt lat="43.646991348486864" lon="10.630450172247889"><ele>17.333333333333336</ele><time>2026-04-19T14:53:11Z</time></trkpt><trkpt lat="43.64698743271184" lon="10.630712587045911"><ele>17.666666666666668</ele><time>2026-04-19T14:53:12Z</time></trkpt><trkpt lat="43.646983269778914" lon="10.630974915614377"><ele>18.0</ele><time>2026-04-19T14:53:13Z</time></trkpt><trkpt lat="43.646979343587326" lon="10.631233225778033"><ele>18.0</ele><time>2026-04-19T14:53:14Z</time></trkpt><trkpt lat="43.64697489980254" lon="10.631489861921112"><ele>18.0</ele><time>2026-04-19T14:53:15Z</time></trkpt><trkpt lat="43.64697000155426" lon="10.631742359479295"><ele>18.0</ele><time>2026-04-19T14:53:16Z</time></trkpt><trkpt lat="43.64696458659486" lon="10.631990147292479"><ele>16.666666666666668</ele><time>2026-04-19T14:53:17Z</time></trkpt><trkpt lat="43.646958802148475" lon="10.632235996101521"><ele>15.333333333333334</ele><time>2026-04-19T14:53:18Z</time></trkpt><trkpt lat="43.64695449144745" lon="10.63247944353424"><ele>14.0</ele><time>2026-04-19T14:53:19Z</time></trkpt><trkpt lat="43.64695110034699" lon="10.63272456710199"><ele>14.0</ele><time>2026-04-19T14:53:20Z</time></trkpt><trkpt lat="43.646947002354594" lon="10.63297179115638"><ele>14.0</ele><time>2026-04-19T14:53:21Z</time></trkpt><trkpt lat="43.64694385339541" lon="10.63322273929676"><ele>14.0</ele><time>2026-04-19T14:53:22Z</time></trkpt><trkpt lat="43.646939750220646" lon="10.63347988365079"><ele>15.333333333333334</ele><time>2026-04-19T14:53:23Z</time></trkpt><trkpt lat="43.64693430182518" lon="10.633738342732698"><ele>16.666666666666668</ele><time>2026-04-19T14:53:24Z</time></trkpt><trkpt lat="43.64692868189613" lon="10.63400046150837"><ele>18.0</ele><time>2026-04-19T14:53:25Z</time></trkpt><trkpt lat="43.64692301338914" lon="10.634267032284855"><ele>18.0</ele><time>2026-04-19T14:53:26Z</time></trkpt><trkpt lat="43.64691915191592" lon="10.634536547827826"><ele>18.0</ele><time>2026-04-19T14:53:27Z</time></trkpt><trkpt lat="43.64691439625513" lon="10.634809446926676"><ele>18.0</ele><time>2026-04-19T14:53:28Z</time></trkpt><trkpt lat="43.64690994527268" lon="10.635086838000785"><ele>17.333333333333332</ele><time>2026-04-19T14:53:29Z</time></trkpt><trkpt lat="43.64690545094438" lon="10.635368691171594"><ele>16.666666666666664</ele><time>2026-04-19T14:53:30Z</time></trkpt><trkpt lat="43.646900796929785" lon="10.635652530701636"><ele>16.0</ele><time>2026-04-19T14:53:31Z</time></trkpt><trkpt lat="43.646895309791276" lon="10.635940528732515"><ele>16.0</ele><time>2026-04-19T14:53:32Z</time></trkpt><trkpt lat="43.64689008134639" lon="10.636230329676259"><ele>16.0</ele><time>2026-04-19T14:53:33Z</time></trkpt><trkpt lat="43.64688447798579" lon="10.636522273134407"><ele>16.0</ele><time>2026-04-19T14:53:34Z</time></trkpt><trkpt lat="43.646879774803296" lon="10.636814060729243"><ele>15.666666666666666</ele><time>2026-04-19T14:53:35Z</time></trkpt><trkpt lat="43.64687520531689" lon="10.637106060253561"><ele>15.333333333333332</ele><time>2026-04-19T14:53:36Z</time></trkpt><trkpt lat="43.64686887223317" lon="10.63739754512864"><ele>15.0</ele><time>2026-04-19T14:53:37Z</time></trkpt><trkpt lat="43.64686160310291" lon="10.63768898315791"><ele>15.666666666666668</ele><time>2026-04-19T14:53:38Z</time></trkpt><trkpt lat="43.64685500284807" lon="10.637980554036542"><ele>16.333333333333336</ele><time>2026-04-19T14:53:39Z</time></trkpt><trkpt lat="43.64684824281688" lon="10.63827277942146"><ele>17.0</ele><time>2026-04-19T14:53:40Z</time></trkpt><trkpt lat="43.64684243434772" lon="10.638563789885488"><ele>17.0</ele><time>2026-04-19T14:53:41Z</time></trkpt><trkpt lat="43.64683757467523" lon="10.638855183917824"><ele>17.0</ele><time>2026-04-19T14:53:42Z</time></trkpt><trkpt lat="43.646831384294664" lon="10.639146036015266"><ele>17.0</ele><time>2026-04-19T14:53:43Z</time></trkpt><trkpt lat="43.6468260498794" lon="10.639434133140831"><ele>16.666666666666668</ele><time>2026-04-19T14:53:44Z</time></trkpt><trkpt lat="43.6468222586498" lon="10.639720008359696"><ele>16.333333333333332</ele><time>2026-04-19T14:53:45Z</time></trkpt><trkpt lat="43.646817551730756" lon="10.640005038979938"><ele>16.0</ele><time>2026-04-19T14:53:46Z</time></trkpt><trkpt lat="43.64681258937338" lon="10.640288797737771"><ele>16.0</ele><time>2026-04-19T14:53:47Z</time></trkpt><trkpt lat="43.64680790103933" lon="10.640573160052082"><ele>16.0</ele><time>2026-04-19T14:53:48Z</time></trkpt><trkpt lat="43.64680267299573" lon="10.640857427748069"><ele>16.0</ele><time>2026-04-19T14:53:49Z</time></trkpt><trkpt lat="43.646798063424306" lon="10.64114067290423"><ele>16.666666666666664</ele><time>2026-04-19T14:53:50Z</time></trkpt><trkpt lat="43.646793168891875" lon="10.641423942434479"><ele>17.333333333333332</ele><time>2026-04-19T14:53:51Z</time></trkpt><trkpt lat="43.64678844695955" lon="10.641707107054856"><ele>18.0</ele><time>2026-04-19T14:53:52Z</time></trkpt><trkpt lat="43.64678174991484" lon="10.641991217726266"><ele>18.333333333333332</ele><time>2026-04-19T14:53:53Z</time></trkpt><trkpt lat="43.646774982991495" lon="10.642278370005052"><ele>18.666666666666664</ele><time>2026-04-19T14:53:54Z</time></trkpt><trkpt lat="43.64676904517646" lon="10.642566617710825"><ele>19.0</ele><time>2026-04-19T14:53:55Z</time></trkpt><trkpt lat="43.6467628773811" lon="10.642855738341588"><ele>19.333333333333332</ele><time>2026-04-19T14:53:56Z</time></trkpt><trkpt lat="43.64675654663349" lon="10.64314678659038"><ele>19.666666666666668</ele><time>2026-04-19T14:53:57Z</time></trkpt><trkpt lat="43.64674889673885" lon="10.643438512722279"><ele>20.0</ele><time>2026-04-19T14:53:58Z</time></trkpt><trkpt lat="43.646741543352725" lon="10.64373218270388"><ele>20.666666666666668</ele><time>2026-04-19T14:53:59Z</time></trkpt><trkpt lat="43.646734503661186" lon="10.644027404442925"><ele>21.333333333333332</ele><time>2026-04-19T14:54:00Z</time></trkpt><trkpt lat="43.64672759061045" lon="10.644323875437461"><ele>22.0</ele><time>2026-04-19T14:54:01Z</time></trkpt><trkpt lat="43.64672422523984" lon="10.644622257462776"><ele>22.0</ele><time>2026-04-19T14:54:02Z</time></trkpt><trkpt lat="43.64672410794333" lon="10.644922070807032"><ele>22.0</ele><time>2026-04-19T14:54:03Z</time></trkpt><trkpt lat="43.646732175087244" lon="10.645218080257273"><ele>22.0</ele><time>2026-04-19T14:54:04Z</time></trkpt><trkpt lat="43.64674128920195" lon="10.64551560561195"><ele>22.0</ele><time>2026-04-19T14:54:05Z</time></trkpt><trkpt lat="43.64675414632334" lon="10.645812408343627"><ele>22.0</ele><time>2026-04-19T14:54:06Z</time></trkpt><trkpt lat="43.64676998093688" lon="10.646109650740186"><ele>22.0</ele><time>2026-04-19T14:54:07Z</time></trkpt><trkpt lat="43.64679683272909" lon="10.646406765128035"><ele>22.0</ele><time>2026-04-19T14:54:08Z</time></trkpt><trkpt lat="43.646827851261875" lon="10.646704721295675"><ele>22.0</ele><time>2026-04-19T14:54:09Z</time></trkpt><trkpt lat="43.64686660313541" lon="10.646999439080359"><ele>22.0</ele><time>2026-04-19T14:54:10Z</time></trkpt><trkpt lat="43.64691395895729" lon="10.647285090534014"><ele>21.333333333333332</ele><time>2026-04-19T14:54:11Z</time></trkpt><trkpt lat="43.646974017217325" lon="10.647573892506369"><ele>20.666666666666668</ele><time>2026-04-19T14:54:12Z</time></trkpt><trkpt lat="43.64702690787254" lon="10.647854305956335"><ele>20.0</ele><time>2026-04-19T14:54:13Z</time></trkpt><trkpt lat="43.6471048814403" lon="10.64812396851785"><ele>19.0</ele><time>2026-04-19T14:54:14Z</time></trkpt><trkpt lat="43.64717981568097" lon="10.648401336098699"><ele>18.0</ele><time>2026-04-19T14:54:15Z</time></trkpt><trkpt lat="43.64726176500063" lon="10.64866544613319"><ele>17.0</ele><time>2026-04-19T14:54:16Z</time></trkpt><trkpt lat="43.647348852721564" lon="10.648926178028923"><ele>16.0</ele><time>2026-04-19T14:54:17Z</time></trkpt><trkpt lat="43.64744016168176" lon="10.649182585842102"><ele>15.0</ele><time>2026-04-19T14:54:18Z</time></trkpt><trkpt lat="43.64753635867758" lon="10.64943680517402"><ele>14.0</ele><time>2026-04-19T14:54:19Z</time></trkpt><trkpt lat="43.64763987431621" lon="10.64968463891794"><ele>14.0</ele><time>2026-04-19T14:54:20Z</time></trkpt><trkpt lat="43.64774907918394" lon="10.649921490087502"><ele>14.0</ele><time>2026-04-19T14:54:21Z</time></trkpt><trkpt lat="43.64786110050256" lon="10.650155193959854"><ele>14.0</ele><time>2026-04-19T14:54:22Z</time></trkpt><trkpt lat="43.64797642369351" lon="10.650382203310496"><ele>14.333333333333334</ele><time>2026-04-19T14:54:23Z</time></trkpt><trkpt lat="43.64809524301903" lon="10.650601315895985"><ele>14.666666666666668</ele><time>2026-04-19T14:54:24Z</time></trkpt><trkpt lat="43.64821292787188" lon="10.65081383144689"><ele>15.0</ele><time>2026-04-19T14:54:25Z</time></trkpt><trkpt lat="43.648331238851036" lon="10.651023464262686"><ele>15.333333333333332</ele><time>2026-04-19T14:54:26Z</time></trkpt><trkpt lat="43.64844982296498" lon="10.651230197102985"><ele>15.666666666666666</ele><time>2026-04-19T14:54:27Z</time></trkpt><trkpt lat="43.648568278981664" lon="10.651434285423365"><ele>16.0</ele><time>2026-04-19T14:54:28Z</time></trkpt><trkpt lat="43.64868567224799" lon="10.651637326059502"><ele>16.333333333333332</ele><time>2026-04-19T14:54:29Z</time></trkpt><trkpt lat="43.648801192216474" lon="10.651841282203751"><ele>16.666666666666668</ele><time>2026-04-19T14:54:30Z</time></trkpt><trkpt lat="43.64891521340939" lon="10.652045922284106"><ele>17.0</ele><time>2026-04-19T14:54:31Z</time></trkpt><trkpt lat="43.649030386116074" lon="10.652250857776457"><ele>17.666666666666668</ele><time>2026-04-19T14:54:32Z</time></trkpt><trkpt lat="43.649144796324066" lon="10.652455906430289"><ele>18.333333333333332</ele><time>2026-04-19T14:54:33Z</time></trkpt><trkpt lat="43.64926104320003" lon="10.65266053941652"><ele>19.0</ele><time>2026-04-19T14:54:34Z</time></trkpt><trkpt lat="43.64937831326127" lon="10.65286503375818"><ele>19.666666666666664</ele><time>2026-04-19T14:54:35Z</time></trkpt><trkpt lat="43.6494965735753" lon="10.653068617210426"><ele>20.333333333333332</ele><time>2026-04-19T14:54:36Z</time></trkpt><trkpt lat="43.64961493237007" lon="10.653273198098361"><ele>21.0</ele><time>2026-04-19T14:54:37Z</time></trkpt><trkpt lat="43.649733564611395" lon="10.653477805676074"><ele>21.333333333333332</ele><time>2026-04-19T14:54:38Z</time></trkpt><trkpt lat="43.64985256233121" lon="10.653682873523964"><ele>21.666666666666664</ele><time>2026-04-19T14:54:39Z</time></trkpt><trkpt lat="43.64997251570614" lon="10.653890803827464"><ele>22.0</ele><time>2026-04-19T14:54:40Z</time></trkpt><trkpt lat="43.65009451200289" lon="10.654103850858931"><ele>22.0</ele><time>2026-04-19T14:54:41Z</time></trkpt><trkpt lat="43.650217888334545" lon="10.654320662183551"><ele>22.0</ele><time>2026-04-19T14:54:42Z</time></trkpt><trkpt lat="43.65034224850561" lon="10.654540533522448"><ele>22.0</ele><time>2026-04-19T14:54:43Z</time></trkpt><trkpt lat="43.650468486243945" lon="10.654762634325172"><ele>22.666666666666664</ele><time>2026-04-19T14:54:44Z</time></trkpt><trkpt lat="43.65059628724611" lon="10.654987298547182"><ele>23.333333333333332</ele><time>2026-04-19T14:54:45Z</time></trkpt><trkpt lat="43.6507247447427" lon="10.655212908133796"><ele>24.0</ele><time>2026-04-19T14:54:46Z</time></trkpt><trkpt lat="43.65085505083584" lon="10.655442345662554"><ele>24.0</ele><time>2026-04-19T14:54:47Z</time></trkpt><trkpt lat="43.650986419246046" lon="10.655673589688517"><ele>24.0</ele><time>2026-04-19T14:54:48Z</time></trkpt><trkpt lat="43.651119176802524" lon="10.655905404292222"><ele>24.0</ele><time>2026-04-19T14:54:49Z</time></trkpt><trkpt lat="43.651254125947936" lon="10.656137519961314"><ele>24.0</ele><time>2026-04-19T14:54:50Z</time></trkpt><trkpt lat="43.651390454087625" lon="10.65637101623193"><ele>24.0</ele><time>2026-04-19T14:54:51Z</time></trkpt><trkpt lat="43.65152667014267" lon="10.65660729540866"><ele>24.0</ele><time>2026-04-19T14:54:52Z</time></trkpt><trkpt lat="43.65166376935706" lon="10.656848060566025"><ele>24.333333333333336</ele><time>2026-04-19T14:54:53Z</time></trkpt><trkpt lat="43.651800516100316" lon="10.657087504036888"><ele>24.666666666666668</ele><time>2026-04-19T14:54:54Z</time></trkpt><trkpt lat="43.651933872309634" lon="10.657325461348428"><ele>25.0</ele><time>2026-04-19T14:54:55Z</time></trkpt><trkpt lat="43.652068158943145" lon="10.657561336039302"><ele>24.333333333333336</ele><time>2026-04-19T14:54:56Z</time></trkpt><trkpt lat="43.65219931882006" lon="10.657795953400692"><ele>23.666666666666668</ele><time>2026-04-19T14:54:57Z</time></trkpt><trkpt lat="43.65233225409366" lon="10.658025608192414"><ele>23.0</ele><time>2026-04-19T14:54:58Z</time></trkpt><trkpt lat="43.652463904895875" lon="10.658255058579597"><ele>23.0</ele><time>2026-04-19T14:54:59Z</time></trkpt><trkpt lat="43.652594304545275" lon="10.658482327666915"><ele>23.0</ele><time>2026-04-19T14:55:00Z</time></trkpt><trkpt lat="43.652723105867544" lon="10.658706284189698"><ele>23.0</ele><time>2026-04-19T14:55:01Z</time></trkpt><trkpt lat="43.6528512083577" lon="10.658930341970848"><ele>22.333333333333336</ele><time>2026-04-19T14:55:02Z</time></trkpt><trkpt lat="43.652977279439625" lon="10.659155587057853"><ele>21.666666666666668</ele><time>2026-04-19T14:55:03Z</time></trkpt><trkpt lat="43.653102341781775" lon="10.65938024334182"><ele>21.0</ele><time>2026-04-19T14:55:04Z</time></trkpt><trkpt lat="43.65322662366731" lon="10.659605636952573"><ele>19.666666666666668</ele><time>2026-04-19T14:55:05Z</time></trkpt><trkpt lat="43.6533507156289" lon="10.659831645894036"><ele>18.333333333333336</ele><time>2026-04-19T14:55:06Z</time></trkpt><trkpt lat="43.65347305705271" lon="10.660057899702291"><ele>17.0</ele><time>2026-04-19T14:55:07Z</time></trkpt><trkpt lat="43.65359313646497" lon="10.660285680795722"><ele>17.0</ele><time>2026-04-19T14:55:08Z</time></trkpt><trkpt lat="43.65371040524164" lon="10.660515462351173"><ele>17.0</ele><time>2026-04-19T14:55:09Z</time></trkpt><trkpt lat="43.653824464569944" lon="10.66074606473871"><ele>17.0</ele><time>2026-04-19T14:55:10Z</time></trkpt><trkpt lat="43.65393566221591" lon="10.660980881690522"><ele>17.666666666666668</ele><time>2026-04-19T14:55:11Z</time></trkpt><trkpt lat="43.65404523263022" lon="10.661218412366788"><ele>18.333333333333332</ele><time>2026-04-19T14:55:12Z</time></trkpt><trkpt lat="43.654151182116266" lon="10.661459265801557"><ele>19.0</ele><time>2026-04-19T14:55:13Z</time></trkpt><trkpt lat="43.65425386249183" lon="10.661707257986535"><ele>19.0</ele><time>2026-04-19T14:55:14Z</time></trkpt><trkpt lat="43.65434922580925" lon="10.66195770106033"><ele>19.0</ele><time>2026-04-19T14:55:15Z</time></trkpt><trkpt lat="43.65444239145314" lon="10.662211846505885"><ele>19.0</ele><time>2026-04-19T14:55:16Z</time></trkpt><trkpt lat="43.6545313849229" lon="10.662467813113066"><ele>17.666666666666664</ele><time>2026-04-19T14:55:17Z</time></trkpt><trkpt lat="43.65461638887058" lon="10.662726535544417"><ele>16.333333333333332</ele><time>2026-04-19T14:55:18Z</time></trkpt><trkpt lat="43.65469567314922" lon="10.662988593357683"><ele>15.0</ele><time>2026-04-19T14:55:19Z</time></trkpt><trkpt lat="43.65476889014471" lon="10.663253163556742"><ele>14.666666666666668</ele><time>2026-04-19T14:55:20Z</time></trkpt><trkpt lat="43.654837030403826" lon="10.66352049734308"><ele>14.333333333333334</ele><time>2026-04-19T14:55:21Z</time></trkpt><trkpt lat="43.654899521106096" lon="10.663787029312067"><ele>14.0</ele><time>2026-04-19T14:55:22Z</time></trkpt><trkpt lat="43.654957960696045" lon="10.664053156948077"><ele>13.666666666666668</ele><time>2026-04-19T14:55:23Z</time></trkpt><trkpt lat="43.655012632662284" lon="10.664322680163728"><ele>13.333333333333332</ele><time>2026-04-19T14:55:24Z</time></trkpt><trkpt lat="43.655063786209205" lon="10.664595488823135"><ele>13.0</ele><time>2026-04-19T14:55:25Z</time></trkpt><trkpt lat="43.65510903539642" lon="10.664871228517203"><ele>13.0</ele><time>2026-04-19T14:55:26Z</time></trkpt><trkpt lat="43.65514954785704" lon="10.665149055473654"><ele>13.0</ele><time>2026-04-19T14:55:27Z</time></trkpt><trkpt lat="43.65518408682188" lon="10.665429328147168"><ele>13.0</ele><time>2026-04-19T14:55:28Z</time></trkpt><trkpt lat="43.65521172999127" lon="10.66571046408546"><ele>13.666666666666666</ele><time>2026-04-19T14:55:29Z</time></trkpt><trkpt lat="43.65523237434673" lon="10.665992116652708"><ele>14.333333333333332</ele><time>2026-04-19T14:55:30Z</time></trkpt><trkpt lat="43.655248702937946" lon="10.666275663413233"><ele>15.0</ele><time>2026-04-19T14:55:31Z</time></trkpt><trkpt lat="43.65526085274611" lon="10.666559104038086"><ele>15.0</ele><time>2026-04-19T14:55:32Z</time></trkpt><trkpt lat="43.65526820536722" lon="10.666842688028048"><ele>15.0</ele><time>2026-04-19T14:55:33Z</time></trkpt><trkpt lat="43.65527077810547" lon="10.667125742441899"><ele>15.0</ele><time>2026-04-19T14:55:34Z</time></trkpt><trkpt lat="43.655268804504175" lon="10.66740918261047"><ele>16.0</ele><time>2026-04-19T14:55:35Z</time></trkpt><trkpt lat="43.65526234525941" lon="10.667692308203835"><ele>17.0</ele><time>2026-04-19T14:55:36Z</time></trkpt><trkpt lat="43.655250517571105" lon="10.66797459527588"><ele>18.0</ele><time>2026-04-19T14:55:37Z</time></trkpt><trkpt lat="43.65523212866876" lon="10.668257186250225"><ele>18.0</ele><time>2026-04-19T14:55:38Z</time></trkpt><trkpt lat="43.655207764108646" lon="10.668539358990596"><ele>18.0</ele><time>2026-04-19T14:55:39Z</time></trkpt><trkpt lat="43.6551789700305" lon="10.668820459049062"><ele>18.0</ele><time>2026-04-19T14:55:40Z</time></trkpt><trkpt lat="43.655146366377686" lon="10.669101446381015"><ele>18.0</ele><time>2026-04-19T14:55:41Z</time></trkpt><trkpt lat="43.65511032904066" lon="10.669380396656475"><ele>18.0</ele><time>2026-04-19T14:55:42Z</time></trkpt><trkpt lat="43.65507097147245" lon="10.669658245724015"><ele>18.0</ele><time>2026-04-19T14:55:43Z</time></trkpt><trkpt lat="43.65502683350666" lon="10.669935175289577"><ele>18.0</ele><time>2026-04-19T14:55:44Z</time></trkpt><trkpt lat="43.65497631099379" lon="10.67020977073893"><ele>18.0</ele><time>2026-04-19T14:55:45Z</time></trkpt><trkpt lat="43.654922928281636" lon="10.670483529450536"><ele>18.0</ele><time>2026-04-19T14:55:46Z</time></trkpt><trkpt lat="43.654866622668436" lon="10.670758606676749"><ele>18.333333333333332</ele><time>2026-04-19T14:55:47Z</time></trkpt><trkpt lat="43.65480953290657" lon="10.671032084782679"><ele>18.666666666666664</ele><time>2026-04-19T14:55:48Z</time></trkpt><trkpt lat="43.65475060674402" lon="10.671303865254668"><ele>19.0</ele><time>2026-04-19T14:55:49Z</time></trkpt><trkpt lat="43.654684545869515" lon="10.671572663866831"><ele>19.0</ele><time>2026-04-19T14:55:50Z</time></trkpt><trkpt lat="43.65461446066823" lon="10.671840903334884"><ele>19.0</ele><time>2026-04-19T14:55:51Z</time></trkpt><trkpt lat="43.65453901884605" lon="10.672106275429675"><ele>19.0</ele><time>2026-04-19T14:55:52Z</time></trkpt><trkpt lat="43.654461242546965" lon="10.672369708243227"><ele>18.333333333333332</ele><time>2026-04-19T14:55:53Z</time></trkpt><trkpt lat="43.65438529039733" lon="10.672634906399779"><ele>17.666666666666668</ele><time>2026-04-19T14:55:54Z</time></trkpt><trkpt lat="43.654314537248325" lon="10.67290157535023"><ele>17.0</ele><time>2026-04-19T14:55:55Z</time></trkpt><trkpt lat="43.654248629848915" lon="10.67316919488432"><ele>17.0</ele><time>2026-04-19T14:55:56Z</time></trkpt><trkpt lat="43.654185511694365" lon="10.673438975961183"><ele>17.0</ele><time>2026-04-19T14:55:57Z</time></trkpt><trkpt lat="43.65412398816752" lon="10.673709565633553"><ele>17.0</ele><time>2026-04-19T14:55:58Z</time></trkpt><trkpt lat="43.65406556755833" lon="10.67398233396346"><ele>17.666666666666668</ele><time>2026-04-19T14:55:59Z</time></trkpt><trkpt lat="43.65400804896306" lon="10.674257215560669"><ele>18.333333333333332</ele><time>2026-04-19T14:56:00Z</time></trkpt><trkpt lat="43.653955068136796" lon="10.674532214338077"><ele>19.0</ele><time>2026-04-19T14:56:01Z</time></trkpt><trkpt lat="43.65390806630682" lon="10.674809091106203"><ele>19.333333333333332</ele><time>2026-04-19T14:56:02Z</time></trkpt><trkpt lat="43.65386816155694" lon="10.675088993995933"><ele>19.666666666666668</ele><time>2026-04-19T14:56:03Z</time></trkpt><trkpt lat="43.65383536795684" lon="10.675370322175004"><ele>20.0</ele><time>2026-04-19T14:56:04Z</time></trkpt><trkpt lat="43.65380358496824" lon="10.675650861168048"><ele>20.0</ele><time>2026-04-19T14:56:05Z</time></trkpt><trkpt lat="43.653775192839205" lon="10.675931720452141"><ele>20.0</ele><time>2026-04-19T14:56:06Z</time></trkpt><trkpt lat="43.653752148391995" lon="10.67621366682367"><ele>20.0</ele><time>2026-04-19T14:56:07Z</time></trkpt><trkpt lat="43.65373348172276" lon="10.676497042728034"><ele>20.0</ele><time>2026-04-19T14:56:08Z</time></trkpt><trkpt lat="43.65372282051599" lon="10.676780300194038"><ele>20.0</ele><time>2026-04-19T14:56:09Z</time></trkpt><trkpt lat="43.65372013985565" lon="10.677064180632241"><ele>20.0</ele><time>2026-04-19T14:56:10Z</time></trkpt><trkpt lat="43.65372441843965" lon="10.677345833537368"><ele>20.0</ele><time>2026-04-19T14:56:11Z</time></trkpt><trkpt lat="43.65373758053331" lon="10.677627882040476"><ele>20.0</ele><time>2026-04-19T14:56:12Z</time></trkpt><trkpt lat="43.65375638444546" lon="10.67790745748077"><ele>20.0</ele><time>2026-04-19T14:56:13Z</time></trkpt><trkpt lat="43.65378096589881" lon="10.678186722393539"><ele>20.666666666666668</ele><time>2026-04-19T14:56:14Z</time></trkpt><trkpt lat="43.65380998184757" lon="10.678463828403865"><ele>21.333333333333332</ele><time>2026-04-19T14:56:15Z</time></trkpt><trkpt lat="43.65384465303443" lon="10.678743105181093"><ele>22.0</ele><time>2026-04-19T14:56:16Z</time></trkpt><trkpt lat="43.65388672036726" lon="10.679021673901325"><ele>22.0</ele><time>2026-04-19T14:56:17Z</time></trkpt><trkpt lat="43.653936725408535" lon="10.679297095324108"><ele>22.0</ele><time>2026-04-19T14:56:18Z</time></trkpt><trkpt lat="43.65399333146157" lon="10.67956989118026"><ele>22.0</ele><time>2026-04-19T14:56:19Z</time></trkpt><trkpt lat="43.65405593662523" lon="10.679840688589596"><ele>22.666666666666664</ele><time>2026-04-19T14:56:20Z</time></trkpt><trkpt lat="43.65412384899422" lon="10.680108273666864"><ele>23.333333333333332</ele><time>2026-04-19T14:56:21Z</time></trkpt><trkpt lat="43.6541978748289" lon="10.680372380475891"><ele>24.0</ele><time>2026-04-19T14:56:22Z</time></trkpt><trkpt lat="43.65427799597521" lon="10.680633722827174"><ele>24.666666666666664</ele><time>2026-04-19T14:56:23Z</time></trkpt><trkpt lat="43.65436501116823" lon="10.680891462901586"><ele>25.333333333333332</ele><time>2026-04-19T14:56:24Z</time></trkpt><trkpt lat="43.654457520126506" lon="10.681145383046859"><ele>26.0</ele><time>2026-04-19T14:56:25Z</time></trkpt><trkpt lat="43.65455318470051" lon="10.681396369994696"><ele>31.0</ele><time>2026-04-19T14:56:26Z</time></trkpt><trkpt lat="43.654656469336146" lon="10.681642839333811"><ele>36.0</ele><time>2026-04-19T14:56:27Z</time></trkpt><trkpt lat="43.65476746185301" lon="10.68188359681025"><ele>41.0</ele><time>2026-04-19T14:56:28Z</time></trkpt><trkpt lat="43.654885121980314" lon="10.68211935657954"><ele>41.0</ele><time>2026-04-19T14:56:29Z</time></trkpt><trkpt lat="43.65501005674961" lon="10.682346177869123"><ele>41.0</ele><time>2026-04-19T14:56:30Z</time></trkpt><trkpt lat="43.65514107499135" lon="10.682567033532933"><ele>41.0</ele><time>2026-04-19T14:56:31Z</time></trkpt><trkpt lat="43.65527445806879" lon="10.682786073122907"><ele>40.666666666666664</ele><time>2026-04-19T14:56:32Z</time></trkpt><trkpt lat="43.65540867945078" lon="10.683002580940798"><ele>40.333333333333336</ele><time>2026-04-19T14:56:33Z</time></trkpt><trkpt lat="43.65554836731316" lon="10.683215885484756"><ele>40.0</ele><time>2026-04-19T14:56:34Z</time></trkpt><trkpt lat="43.65568860931561" lon="10.683428950967597"><ele>41.66666666666667</ele><time>2026-04-19T14:56:35Z</time></trkpt><trkpt lat="43.655827732564106" lon="10.683639554278606"><ele>43.333333333333336</ele><time>2026-04-19T14:56:36Z</time></trkpt><trkpt lat="43.65596312889017" lon="10.683842844732919"><ele>45.0</ele><time>2026-04-19T14:56:37Z</time></trkpt><trkpt lat="43.656092693595276" lon="10.684037107678753"><ele>42.666666666666664</ele><time>2026-04-19T14:56:38Z</time></trkpt><trkpt lat="43.656219683718" lon="10.684228690367895"><ele>40.33333333333333</ele><time>2026-04-19T14:56:39Z</time></trkpt><trkpt lat="43.65634391453357" lon="10.684417650076732"><ele>38.0</ele><time>2026-04-19T14:56:40Z</time></trkpt><trkpt lat="43.65646581270104" lon="10.684604064945132"><ele>38.0</ele><time>2026-04-19T14:56:41Z</time></trkpt><trkpt lat="43.6565877506116" lon="10.684790077192377"><ele>38.0</ele><time>2026-04-19T14:56:42Z</time></trkpt><trkpt lat="43.656710657277955" lon="10.684978880650176"><ele>38.0</ele><time>2026-04-19T14:56:43Z</time></trkpt><trkpt lat="43.65683306111487" lon="10.68517282804921"><ele>34.33333333333333</ele><time>2026-04-19T14:56:44Z</time></trkpt><trkpt lat="43.656954003210124" lon="10.68537633686056"><ele>30.666666666666664</ele><time>2026-04-19T14:56:45Z</time></trkpt><trkpt lat="43.65707060355065" lon="10.68558827814593"><ele>27.0</ele><time>2026-04-19T14:56:46Z</time></trkpt><trkpt lat="43.657184182848766" lon="10.685809804206041"><ele>27.0</ele><time>2026-04-19T14:56:47Z</time></trkpt><trkpt lat="43.65729135172762" lon="10.686041529658427"><ele>27.0</ele><time>2026-04-19T14:56:48Z</time></trkpt><trkpt lat="43.65738633209572" lon="10.686278796093168"><ele>27.0</ele><time>2026-04-19T14:56:49Z</time></trkpt><trkpt lat="43.657469755430355" lon="10.68652215348999"><ele>28.0</ele><time>2026-04-19T14:56:50Z</time></trkpt><trkpt lat="43.657543258048726" lon="10.686769649192058"><ele>29.0</ele><time>2026-04-19T14:56:51Z</time></trkpt><trkpt lat="43.65760380604324" lon="10.687019777690509"><ele>30.0</ele><time>2026-04-19T14:56:52Z</time></trkpt><trkpt lat="43.657659090068776" lon="10.68727115962654"><ele>27.333333333333332</ele><time>2026-04-19T14:56:53Z</time></trkpt><trkpt lat="43.657716385577174" lon="10.687522328014868"><ele>24.666666666666664</ele><time>2026-04-19T14:56:54Z</time></trkpt><trkpt lat="43.657773613068564" lon="10.687771201591449"><ele>22.0</ele><time>2026-04-19T14:56:55Z</time></trkpt><trkpt lat="43.65782945111582" lon="10.688020857124476"><ele>21.0</ele><time>2026-04-19T14:56:56Z</time></trkpt><trkpt lat="43.657886115810165" lon="10.688272023362208"><ele>20.0</ele><time>2026-04-19T14:56:57Z</time></trkpt><trkpt lat="43.65794339804859" lon="10.688519725313855"><ele>19.0</ele><time>2026-04-19T14:56:58Z</time></trkpt><trkpt lat="43.65800096727581" lon="10.68876449115747"><ele>19.0</ele><time>2026-04-19T14:56:59Z</time></trkpt><trkpt lat="43.65805683118552" lon="10.689007224468824"><ele>19.0</ele><time>2026-04-19T14:57:00Z</time></trkpt><trkpt lat="43.658111515182846" lon="10.689246849712715"><ele>19.0</ele><time>2026-04-19T14:57:01Z</time></trkpt><trkpt lat="43.65816564400691" lon="10.689485176567182"><ele>18.666666666666664</ele><time>2026-04-19T14:57:02Z</time></trkpt><trkpt lat="43.65821913138478" lon="10.689723557983372"><ele>18.333333333333332</ele><time>2026-04-19T14:57:03Z</time></trkpt><trkpt lat="43.65827353665095" lon="10.68996214552309"><ele>18.0</ele><time>2026-04-19T14:57:04Z</time></trkpt><trkpt lat="43.6583269854413" lon="10.69020146039137"><ele>19.0</ele><time>2026-04-19T14:57:05Z</time></trkpt><trkpt lat="43.65838168475964" lon="10.69044199040986"><ele>20.0</ele><time>2026-04-19T14:57:06Z</time></trkpt><trkpt lat="43.658437522261465" lon="10.690682871806366"><ele>21.0</ele><time>2026-04-19T14:57:07Z</time></trkpt><trkpt lat="43.65849571103269" lon="10.69092390464413"><ele>22.333333333333336</ele><time>2026-04-19T14:57:08Z</time></trkpt><trkpt lat="43.658553074223605" lon="10.691165947118224"><ele>23.666666666666668</ele><time>2026-04-19T14:57:09Z</time></trkpt><trkpt lat="43.65860940860914" lon="10.691408585280971"><ele>25.0</ele><time>2026-04-19T14:57:10Z</time></trkpt><trkpt lat="43.65866422761019" lon="10.691648811118775"><ele>25.0</ele><time>2026-04-19T14:57:11Z</time></trkpt><trkpt lat="43.65872074243637" lon="10.691895195636285"><ele>25.0</ele><time>2026-04-19T14:57:12Z</time></trkpt><trkpt lat="43.65877779325719" lon="10.692141436333575"><ele>25.0</ele><time>2026-04-19T14:57:13Z</time></trkpt><trkpt lat="43.65883550743282" lon="10.6923900801758"><ele>28.0</ele><time>2026-04-19T14:57:14Z</time></trkpt><trkpt lat="43.65889536936282" lon="10.692639419065408"><ele>31.0</ele><time>2026-04-19T14:57:15Z</time></trkpt><trkpt lat="43.65895518561339" lon="10.69289125261103"><ele>34.0</ele><time>2026-04-19T14:57:16Z</time></trkpt><trkpt lat="43.65901410039291" lon="10.693145963890096"><ele>34.66666666666667</ele><time>2026-04-19T14:57:17Z</time></trkpt><trkpt lat="43.659072932113595" lon="10.693404094359522"><ele>35.333333333333336</ele><time>2026-04-19T14:57:18Z</time></trkpt><trkpt lat="43.65913115627664" lon="10.693664128910973"><ele>36.0</ele><time>2026-04-19T14:57:19Z</time></trkpt><trkpt lat="43.65918988939673" lon="10.693926419194726"><ele>37.333333333333336</ele><time>2026-04-19T14:57:20Z</time></trkpt><trkpt lat="43.65924998701606" lon="10.694189819561208"><ele>38.66666666666667</ele><time>2026-04-19T14:57:21Z</time></trkpt><trkpt lat="43.659310874656086" lon="10.694453652637188"><ele>40.0</ele><time>2026-04-19T14:57:22Z</time></trkpt><trkpt lat="43.659371581739805" lon="10.694719692933699"><ele>41.0</ele><time>2026-04-19T14:57:23Z</time></trkpt><trkpt lat="43.65943304635513" lon="10.694987298322358"><ele>42.0</ele><time>2026-04-19T14:57:24Z</time></trkpt><trkpt lat="43.6594941773158" lon="10.695253781033744"><ele>43.0</ele><time>2026-04-19T14:57:25Z</time></trkpt><trkpt lat="43.659555385172126" lon="10.695522956549823"><ele>43.0</ele><time>2026-04-19T14:57:26Z</time></trkpt><trkpt lat="43.659617942850204" lon="10.695794267537426"><ele>43.0</ele><time>2026-04-19T14:57:27Z</time></trkpt><trkpt lat="43.65968025178482" lon="10.696063384463988"><ele>43.0</ele><time>2026-04-19T14:57:28Z</time></trkpt><trkpt lat="43.659742480538235" lon="10.696336821686382"><ele>44.333333333333336</ele><time>2026-04-19T14:57:29Z</time></trkpt><trkpt lat="43.659804626778836" lon="10.696611448926411"><ele>45.666666666666664</ele><time>2026-04-19T14:57:30Z</time></trkpt><trkpt lat="43.659868433694896" lon="10.696884846703655"><ele>47.0</ele><time>2026-04-19T14:57:31Z</time></trkpt><trkpt lat="43.65993357227578" lon="10.697157457196802"><ele>48.666666666666664</ele><time>2026-04-19T14:57:32Z</time></trkpt><trkpt lat="43.65999949420392" lon="10.697430304002415"><ele>50.33333333333333</ele><time>2026-04-19T14:57:33Z</time></trkpt><trkpt lat="43.66006420829871" lon="10.697701739190393"><ele>52.0</ele><time>2026-04-19T14:57:34Z</time></trkpt><trkpt lat="43.66012822015231" lon="10.697975798736294"><ele>52.33333333333333</ele><time>2026-04-19T14:57:35Z</time></trkpt><trkpt lat="43.66019244654189" lon="10.698251623557713"><ele>52.66666666666667</ele><time>2026-04-19T14:57:36Z</time></trkpt><trkpt lat="43.66025686439389" lon="10.698528075942594"><ele>53.0</ele><time>2026-04-19T14:57:37Z</time></trkpt><trkpt lat="43.66032125643036" lon="10.698807203160525"><ele>49.66666666666667</ele><time>2026-04-19T14:57:38Z</time></trkpt><trkpt lat="43.66038372493566" lon="10.699084138602055"><ele>46.333333333333336</ele><time>2026-04-19T14:57:39Z</time></trkpt><trkpt lat="43.6604507586957" lon="10.699372889884438"><ele>43.0</ele><time>2026-04-19T14:57:40Z</time></trkpt><trkpt lat="43.66052024485439" lon="10.699658940324522"><ele>43.0</ele><time>2026-04-19T14:57:41Z</time></trkpt><trkpt lat="43.6605941704132" lon="10.699944131452554"><ele>43.0</ele><time>2026-04-19T14:57:42Z</time></trkpt><trkpt lat="43.66067405426513" lon="10.700228665269535"><ele>43.0</ele><time>2026-04-19T14:57:43Z</time></trkpt><trkpt lat="43.660761832803146" lon="10.700508508327637"><ele>43.0</ele><time>2026-04-19T14:57:44Z</time></trkpt><trkpt lat="43.66085603171309" lon="10.700785143942985"><ele>43.0</ele><time>2026-04-19T14:57:45Z</time></trkpt><trkpt lat="43.66095797838653" lon="10.701055362231134"><ele>43.0</ele><time>2026-04-19T14:57:46Z</time></trkpt><trkpt lat="43.66106429407592" lon="10.701324307840085"><ele>43.0</ele><time>2026-04-19T14:57:47Z</time></trkpt><trkpt lat="43.66117722872774" lon="10.701590535557541"><ele>43.0</ele><time>2026-04-19T14:57:48Z</time></trkpt><trkpt lat="43.66129380801054" lon="10.701852556355805"><ele>43.0</ele><time>2026-04-19T14:57:49Z</time></trkpt><trkpt lat="43.6614126933908" lon="10.702108271336709"><ele>42.66666666666667</ele><time>2026-04-19T14:57:50Z</time></trkpt><trkpt lat="43.661529793137724" lon="10.70235881343407"><ele>42.333333333333336</ele><time>2026-04-19T14:57:51Z</time></trkpt><trkpt lat="43.66165165947207" lon="10.70261300016414"><ele>42.0</ele><time>2026-04-19T14:57:52Z</time></trkpt><trkpt lat="43.66176543861407" lon="10.70286160007981"><ele>42.0</ele><time>2026-04-19T14:57:53Z</time></trkpt><trkpt lat="43.66188511129469" lon="10.703112521633189"><ele>42.0</ele><time>2026-04-19T14:57:54Z</time></trkpt><trkpt lat="43.66200334169306" lon="10.703365129548041"><ele>42.0</ele><time>2026-04-19T14:57:55Z</time></trkpt><trkpt lat="43.66212052099441" lon="10.703614249903003"><ele>37.666666666666664</ele><time>2026-04-19T14:57:56Z</time></trkpt><trkpt lat="43.66223420665824" lon="10.7038625258189"><ele>33.33333333333333</ele><time>2026-04-19T14:57:57Z</time></trkpt><trkpt lat="43.66234710865102" lon="10.704108168256589"><ele>29.0</ele><time>2026-04-19T14:57:58Z</time></trkpt><trkpt lat="43.66245741586579" lon="10.704355818713383"><ele>30.333333333333332</ele><time>2026-04-19T14:57:59Z</time></trkpt><trkpt lat="43.66256661117387" lon="10.704604306537389"><ele>31.666666666666664</ele><time>2026-04-19T14:58:00Z</time></trkpt><trkpt lat="43.66267303136831" lon="10.70485640940311"><ele>33.0</ele><time>2026-04-19T14:58:01Z</time></trkpt><trkpt lat="43.66277613543112" lon="10.705110969222208"><ele>30.666666666666664</ele><time>2026-04-19T14:58:02Z</time></trkpt><trkpt lat="43.66287993461277" lon="10.705368730120107"><ele>28.333333333333332</ele><time>2026-04-19T14:58:03Z</time></trkpt><trkpt lat="43.662981662537966" lon="10.705626807710184"><ele>26.0</ele><time>2026-04-19T14:58:04Z</time></trkpt><trkpt lat="43.66308254569775" lon="10.7058860705674"><ele>25.666666666666664</ele><time>2026-04-19T14:58:05Z</time></trkpt><trkpt lat="43.66318348025403" lon="10.706146375643435"><ele>25.333333333333336</ele><time>2026-04-19T14:58:06Z</time></trkpt><trkpt lat="43.663286006636376" lon="10.706405687354577"><ele>25.0</ele><time>2026-04-19T14:58:07Z</time></trkpt><trkpt lat="43.66338815139088" lon="10.706662650949749"><ele>25.0</ele><time>2026-04-19T14:58:08Z</time></trkpt><trkpt lat="43.66349017932403" lon="10.706919974770605"><ele>25.0</ele><time>2026-04-19T14:58:09Z</time></trkpt><trkpt lat="43.663592212662685" lon="10.707174840339945"><ele>25.0</ele><time>2026-04-19T14:58:10Z</time></trkpt><trkpt lat="43.66369496613811" lon="10.707427825859957"><ele>25.0</ele><time>2026-04-19T14:58:11Z</time></trkpt><trkpt lat="43.66380060707096" lon="10.707677253085464"><ele>25.0</ele><time>2026-04-19T14:58:12Z</time></trkpt><trkpt lat="43.66391442199959" lon="10.707921833963665"><ele>25.0</ele><time>2026-04-19T14:58:13Z</time></trkpt><trkpt lat="43.66403684974197" lon="10.708157292246868"><ele>25.0</ele><time>2026-04-19T14:58:14Z</time></trkpt><trkpt lat="43.664165056972564" lon="10.708384842454407"><ele>25.0</ele><time>2026-04-19T14:58:15Z</time></trkpt><trkpt lat="43.66429714137148" lon="10.708606217118932"><ele>25.0</ele><time>2026-04-19T14:58:16Z</time></trkpt><trkpt lat="43.66443211709102" lon="10.708821344786672"><ele>25.0</ele><time>2026-04-19T14:58:17Z</time></trkpt><trkpt lat="43.664574877592564" lon="10.709026385903881"><ele>25.0</ele><time>2026-04-19T14:58:18Z</time></trkpt><trkpt lat="43.66472220762036" lon="10.709220629922465"><ele>25.0</ele><time>2026-04-19T14:58:19Z</time></trkpt><trkpt lat="43.66487370223327" lon="10.709409075182542"><ele>25.0</ele><time>2026-04-19T14:58:20Z</time></trkpt><trkpt lat="43.66502883224127" lon="10.709589953445668"><ele>25.0</ele><time>2026-04-19T14:58:21Z</time></trkpt><trkpt lat="43.6651894680823" lon="10.709763379397884"><ele>25.0</ele><time>2026-04-19T14:58:22Z</time></trkpt><trkpt lat="43.665355862497464" lon="10.70992697427327"><ele>23.666666666666668</ele><time>2026-04-19T14:58:23Z</time></trkpt><trkpt lat="43.66552574837558" lon="10.710082540913787"><ele>22.333333333333336</ele><time>2026-04-19T14:58:24Z</time></trkpt><trkpt lat="43.66569900063913" lon="10.710232904636278"><ele>21.0</ele><time>2026-04-19T14:58:25Z</time></trkpt><trkpt lat="43.6658740927128" lon="10.710381074591515"><ele>21.0</ele><time>2026-04-19T14:58:26Z</time></trkpt><trkpt lat="43.66605270493908" lon="10.710528471726157"><ele>21.0</ele><time>2026-04-19T14:58:27Z</time></trkpt><trkpt lat="43.66623311148227" lon="10.710674164263564"><ele>21.0</ele><time>2026-04-19T14:58:28Z</time></trkpt><trkpt lat="43.666413227103966" lon="10.710818603483483"><ele>21.0</ele><time>2026-04-19T14:58:29Z</time></trkpt><trkpt lat="43.666594494882794" lon="10.710966020387028"><ele>21.0</ele><time>2026-04-19T14:58:30Z</time></trkpt><trkpt lat="43.66677422201152" lon="10.711115994548011"><ele>21.0</ele><time>2026-04-19T14:58:31Z</time></trkpt><trkpt lat="43.666953243976614" lon="10.711273046132519"><ele>20.333333333333332</ele><time>2026-04-19T14:58:32Z</time></trkpt><trkpt lat="43.66712829477747" lon="10.71143510400539"><ele>19.666666666666664</ele><time>2026-04-19T14:58:33Z</time></trkpt><trkpt lat="43.667298295184665" lon="10.711599075110177"><ele>19.0</ele><time>2026-04-19T14:58:34Z</time></trkpt><trkpt lat="43.667471137961726" lon="10.711771368159916"><ele>18.666666666666664</ele><time>2026-04-19T14:58:35Z</time></trkpt><trkpt lat="43.667642471291906" lon="10.711949592941952"><ele>18.333333333333332</ele><time>2026-04-19T14:58:36Z</time></trkpt><trkpt lat="43.667807391318966" lon="10.712134785908063"><ele>18.0</ele><time>2026-04-19T14:58:37Z</time></trkpt><trkpt lat="43.667965367111094" lon="10.712329888810146"><ele>18.666666666666668</ele><time>2026-04-19T14:58:38Z</time></trkpt><trkpt lat="43.668118625071536" lon="10.712529756429738"><ele>19.333333333333336</ele><time>2026-04-19T14:58:39Z</time></trkpt><trkpt lat="43.66826643662369" lon="10.712736749283083"><ele>20.0</ele><time>2026-04-19T14:58:40Z</time></trkpt><trkpt lat="43.66840841677582" lon="10.712950712204794"><ele>20.0</ele><time>2026-04-19T14:58:41Z</time></trkpt><trkpt lat="43.668545305628555" lon="10.713168585460746"><ele>20.0</ele><time>2026-04-19T14:58:42Z</time></trkpt><trkpt lat="43.668676269506804" lon="10.713391385877195"><ele>20.0</ele><time>2026-04-19T14:58:43Z</time></trkpt><trkpt lat="43.66880186178313" lon="10.713620086678267"><ele>19.666666666666668</ele><time>2026-04-19T14:58:44Z</time></trkpt><trkpt lat="43.66892059090088" lon="10.713852433330365"><ele>19.333333333333332</ele><time>2026-04-19T14:58:45Z</time></trkpt><trkpt lat="43.66903573040128" lon="10.714090079044029"><ele>19.0</ele><time>2026-04-19T14:58:46Z</time></trkpt><trkpt lat="43.66914119223661" lon="10.714332592844055"><ele>19.333333333333332</ele><time>2026-04-19T14:58:47Z</time></trkpt><trkpt lat="43.66923991259763" lon="10.714578290109873"><ele>19.666666666666668</ele><time>2026-04-19T14:58:48Z</time></trkpt><trkpt lat="43.66933358185578" lon="10.71482773120565"><ele>20.0</ele><time>2026-04-19T14:58:49Z</time></trkpt><trkpt lat="43.66942109570265" lon="10.715080022824905"><ele>20.0</ele><time>2026-04-19T14:58:50Z</time></trkpt><trkpt lat="43.66950386462211" lon="10.715335537793688"><ele>20.0</ele><time>2026-04-19T14:58:51Z</time></trkpt><trkpt lat="43.669581428722786" lon="10.715592539715256"><ele>20.0</ele><time>2026-04-19T14:58:52Z</time></trkpt><trkpt lat="43.669655130659685" lon="10.7158508764656"><ele>20.0</ele><time>2026-04-19T14:58:53Z</time></trkpt><trkpt lat="43.669723430366396" lon="10.716104553899896"><ele>20.0</ele><time>2026-04-19T14:58:54Z</time></trkpt><trkpt lat="43.669787958821566" lon="10.716356756961826"><ele>20.0</ele><time>2026-04-19T14:58:55Z</time></trkpt><trkpt lat="43.66984826352584" lon="10.71659928574774"><ele>20.0</ele><time>2026-04-19T14:58:56Z</time></trkpt><trkpt lat="43.669907339295634" lon="10.716836963883411"><ele>20.0</ele><time>2026-04-19T14:58:57Z</time></trkpt><trkpt lat="43.66996388463716" lon="10.717065896539617"><ele>20.0</ele><time>2026-04-19T14:58:58Z</time></trkpt><trkpt lat="43.67001756144971" lon="10.717290491527091"><ele>20.0</ele><time>2026-04-19T14:58:59Z</time></trkpt><trkpt lat="43.67007059935919" lon="10.717508645605353"><ele>20.0</ele><time>2026-04-19T14:59:00Z</time></trkpt><trkpt lat="43.67012190186122" lon="10.71771980961836"><ele>20.0</ele><time>2026-04-19T14:59:01Z</time></trkpt><trkpt lat="43.670172926764955" lon="10.71792624855032"><ele>20.0</ele><time>2026-04-19T14:59:02Z</time></trkpt><trkpt lat="43.67022205780253" lon="10.718124482643153"><ele>20.0</ele><time>2026-04-19T14:59:03Z</time></trkpt><trkpt lat="43.67027058345849" lon="10.718323306888218"><ele>20.0</ele><time>2026-04-19T14:59:04Z</time></trkpt><trkpt lat="43.67031905882066" lon="10.718525276085638"><ele>20.0</ele><time>2026-04-19T14:59:05Z</time></trkpt><trkpt lat="43.67037016716791" lon="10.718731210354772"><ele>20.0</ele><time>2026-04-19T14:59:06Z</time></trkpt><trkpt lat="43.67042137225392" lon="10.71893699365029"><ele>20.0</ele><time>2026-04-19T14:59:07Z</time></trkpt><trkpt lat="43.670472288469696" lon="10.719143509286738"><ele>20.0</ele><time>2026-04-19T14:59:08Z</time></trkpt><trkpt lat="43.67052456315762" lon="10.719352634456312"><ele>20.0</ele><time>2026-04-19T14:59:09Z</time></trkpt><trkpt lat="43.670577831650064" lon="10.719563661785257"><ele>20.0</ele><time>2026-04-19T14:59:10Z</time></trkpt><trkpt lat="43.670631221683536" lon="10.719776025707786"><ele>20.666666666666668</ele><time>2026-04-19T14:59:11Z</time></trkpt><trkpt lat="43.67068479120102" lon="10.719991552035452"><ele>21.333333333333332</ele><time>2026-04-19T14:59:12Z</time></trkpt><trkpt lat="43.6707376870862" lon="10.720209793333302"><ele>22.0</ele><time>2026-04-19T14:59:13Z</time></trkpt><trkpt lat="43.67079289540373" lon="10.720430224880257"><ele>22.0</ele><time>2026-04-19T14:59:14Z</time></trkpt><trkpt lat="43.67084820324777" lon="10.720655467745175"><ele>22.0</ele><time>2026-04-19T14:59:15Z</time></trkpt><trkpt lat="43.670901559515855" lon="10.720880511529996"><ele>22.0</ele><time>2026-04-19T14:59:16Z</time></trkpt><trkpt lat="43.67095677713376" lon="10.721104605251009"><ele>22.0</ele><time>2026-04-19T14:59:17Z</time></trkpt><trkpt lat="43.671011371831256" lon="10.721326174556218"><ele>22.0</ele><time>2026-04-19T14:59:18Z</time></trkpt><trkpt lat="43.67106780430796" lon="10.721548929435754"><ele>22.0</ele><time>2026-04-19T14:59:19Z</time></trkpt><trkpt lat="43.67112307702753" lon="10.721770460316911"><ele>21.666666666666664</ele><time>2026-04-19T14:59:20Z</time></trkpt><trkpt lat="43.67118019542341" lon="10.721997030169991"><ele>21.333333333333332</ele><time>2026-04-19T14:59:21Z</time></trkpt><trkpt lat="43.67123659910563" lon="10.722223940927451"><ele>21.0</ele><time>2026-04-19T14:59:22Z</time></trkpt><trkpt lat="43.67129052360395" lon="10.722451456114918"><ele>21.0</ele><time>2026-04-19T14:59:23Z</time></trkpt><trkpt lat="43.67134440190893" lon="10.722681058469423"><ele>21.0</ele><time>2026-04-19T14:59:24Z</time></trkpt><trkpt lat="43.67139944357451" lon="10.722914389750573"><ele>21.0</ele><time>2026-04-19T14:59:25Z</time></trkpt><trkpt lat="43.67145461492625" lon="10.723153101628153"><ele>21.0</ele><time>2026-04-19T14:59:26Z</time></trkpt><trkpt lat="43.671509741972564" lon="10.723396078409426"><ele>21.0</ele><time>2026-04-19T14:59:27Z</time></trkpt><trkpt lat="43.67156205139786" lon="10.723641827353873"><ele>21.0</ele><time>2026-04-19T14:59:28Z</time></trkpt><trkpt lat="43.671608847173665" lon="10.72389480311094"><ele>21.333333333333332</ele><time>2026-04-19T14:59:29Z</time></trkpt><trkpt lat="43.671650305961485" lon="10.724150381170837"><ele>21.666666666666664</ele><time>2026-04-19T14:59:30Z</time></trkpt><trkpt lat="43.67168603296849" lon="10.724407018583456"><ele>22.0</ele><time>2026-04-19T14:59:31Z</time></trkpt><trkpt lat="43.67171410738925" lon="10.7246663473421"><ele>22.333333333333332</ele><time>2026-04-19T14:59:32Z</time></trkpt><trkpt lat="43.67173528279829" lon="10.724928212389184"><ele>22.666666666666668</ele><time>2026-04-19T14:59:33Z</time></trkpt><trkpt lat="43.67175281885568" lon="10.725189038593822"><ele>23.0</ele><time>2026-04-19T14:59:34Z</time></trkpt><trkpt lat="43.67176799864182" lon="10.725446230988023"><ele>22.333333333333336</ele><time>2026-04-19T14:59:35Z</time></trkpt><trkpt lat="43.67177879779495" lon="10.72570164368432"><ele>21.666666666666668</ele><time>2026-04-19T14:59:36Z</time></trkpt><trkpt lat="43.67178447462371" lon="10.725951355300857"><ele>21.0</ele><time>2026-04-19T14:59:37Z</time></trkpt><trkpt lat="43.67178420426745" lon="10.726193648511048"><ele>21.0</ele><time>2026-04-19T14:59:38Z</time></trkpt><trkpt lat="43.67177778543925" lon="10.726433225792206"><ele>21.0</ele><time>2026-04-19T14:59:39Z</time></trkpt><trkpt lat="43.67176518243088" lon="10.726673574532894"><ele>21.0</ele><time>2026-04-19T14:59:40Z</time></trkpt><trkpt lat="43.671748982667886" lon="10.726914483773053"><ele>22.666666666666664</ele><time>2026-04-19T14:59:41Z</time></trkpt><trkpt lat="43.6717296776001" lon="10.727154704775673"><ele>24.333333333333332</ele><time>2026-04-19T14:59:42Z</time></trkpt><trkpt lat="43.6717077523667" lon="10.727398574033117"><ele>26.0</ele><time>2026-04-19T14:59:43Z</time></trkpt><trkpt lat="43.67168420805686" lon="10.727644675079691"><ele>26.333333333333332</ele><time>2026-04-19T14:59:44Z</time></trkpt><trkpt lat="43.67166095125229" lon="10.727892250557531"><ele>26.666666666666664</ele><time>2026-04-19T14:59:45Z</time></trkpt><trkpt lat="43.671638360758884" lon="10.728141581401376"><ele>27.0</ele><time>2026-04-19T14:59:46Z</time></trkpt><trkpt lat="43.671617394711376" lon="10.728390892570307"><ele>26.333333333333336</ele><time>2026-04-19T14:59:47Z</time></trkpt><trkpt lat="43.67159500213958" lon="10.728641214958424"><ele>25.666666666666668</ele><time>2026-04-19T14:59:48Z</time></trkpt><trkpt lat="43.67157364666594" lon="10.728891995655715"><ele>25.0</ele><time>2026-04-19T14:59:49Z</time></trkpt><trkpt lat="43.67155207854982" lon="10.72914540676022"><ele>25.0</ele><time>2026-04-19T14:59:50Z</time></trkpt><trkpt lat="43.67152952345402" lon="10.729398743056816"><ele>25.0</ele><time>2026-04-19T14:59:51Z</time></trkpt><trkpt lat="43.67150802195528" lon="10.72965310224392"><ele>25.0</ele><time>2026-04-19T14:59:52Z</time></trkpt><trkpt lat="43.6714847154454" lon="10.729909323953471"><ele>25.0</ele><time>2026-04-19T14:59:53Z</time></trkpt><trkpt lat="43.67146146153557" lon="10.730168612456955"><ele>25.0</ele><time>2026-04-19T14:59:54Z</time></trkpt><trkpt lat="43.67143790144346" lon="10.730427160841277"><ele>25.0</ele><time>2026-04-19T14:59:55Z</time></trkpt><trkpt lat="43.671414484717666" lon="10.730684915636976"><ele>24.666666666666668</ele><time>2026-04-19T14:59:56Z</time></trkpt><trkpt lat="43.67139208932142" lon="10.730941346234042"><ele>24.333333333333336</ele><time>2026-04-19T14:59:57Z</time></trkpt><trkpt lat="43.6713702833099" lon="10.731199117739273"><ele>24.0</ele><time>2026-04-19T14:59:58Z</time></trkpt><trkpt lat="43.67134896910047" lon="10.731456299824817"><ele>24.0</ele><time>2026-04-19T14:59:59Z</time></trkpt><trkpt lat="43.67132620450029" lon="10.731714056720827"><ele>24.0</ele><time>2026-04-19T15:00:00Z</time></trkpt><trkpt lat="43.67130323042284" lon="10.731974024212931"><ele>24.0</ele><time>2026-04-19T15:00:01Z</time></trkpt><trkpt lat="43.6712809955587" lon="10.732237626729722"><ele>24.0</ele><time>2026-04-19T15:00:02Z</time></trkpt><trkpt lat="43.671257167778144" lon="10.73250425520613"><ele>24.0</ele><time>2026-04-19T15:00:03Z</time></trkpt><trkpt lat="43.67123314045489" lon="10.73277379387258"><ele>24.0</ele><time>2026-04-19T15:00:04Z</time></trkpt><trkpt lat="43.671207896591376" lon="10.733043703651784"><ele>24.333333333333336</ele><time>2026-04-19T15:00:05Z</time></trkpt><trkpt lat="43.67118369915905" lon="10.733310790966318"><ele>24.666666666666668</ele><time>2026-04-19T15:00:06Z</time></trkpt><trkpt lat="43.67116050854225" lon="10.733579275076895"><ele>25.0</ele><time>2026-04-19T15:00:07Z</time></trkpt><trkpt lat="43.67113842951544" lon="10.733847328998584"><ele>25.0</ele><time>2026-04-19T15:00:08Z</time></trkpt><trkpt lat="43.67111592362341" lon="10.73411315139837"><ele>25.0</ele><time>2026-04-19T15:00:09Z</time></trkpt><trkpt lat="43.671092714832696" lon="10.734377593357166"><ele>25.0</ele><time>2026-04-19T15:00:10Z</time></trkpt><trkpt lat="43.671070543840436" lon="10.734641295900241"><ele>25.0</ele><time>2026-04-19T15:00:11Z</time></trkpt><trkpt lat="43.67104960967993" lon="10.734901023648547"><ele>25.0</ele><time>2026-04-19T15:00:12Z</time></trkpt><trkpt lat="43.67102948428651" lon="10.735162924106518"><ele>25.0</ele><time>2026-04-19T15:00:13Z</time></trkpt><trkpt lat="43.67101226889234" lon="10.73542622759232"><ele>25.0</ele><time>2026-04-19T15:00:14Z</time></trkpt><trkpt lat="43.670997694713655" lon="10.73569265398257"><ele>25.0</ele><time>2026-04-19T15:00:15Z</time></trkpt><trkpt lat="43.6709855358914" lon="10.73595998991189"><ele>25.0</ele><time>2026-04-19T15:00:16Z</time></trkpt><trkpt lat="43.670977069258164" lon="10.736229221957982"><ele>25.0</ele><time>2026-04-19T15:00:17Z</time></trkpt><trkpt lat="43.67097395527129" lon="10.736498693744222"><ele>25.0</ele><time>2026-04-19T15:00:18Z</time></trkpt><trkpt lat="43.67097684609195" lon="10.736767815166644"><ele>25.0</ele><time>2026-04-19T15:00:19Z</time></trkpt><trkpt lat="43.6709840043824" lon="10.737036952707797"><ele>25.333333333333336</ele><time>2026-04-19T15:00:20Z</time></trkpt><trkpt lat="43.67099631745842" lon="10.73730440348762"><ele>25.666666666666664</ele><time>2026-04-19T15:00:21Z</time></trkpt><trkpt lat="43.67101608414523" lon="10.737571243399945"><ele>26.0</ele><time>2026-04-19T15:00:22Z</time></trkpt><trkpt lat="43.671044670162" lon="10.737837542948462"><ele>26.333333333333332</ele><time>2026-04-19T15:00:23Z</time></trkpt><trkpt lat="43.67108097614746" lon="10.738102004525071"><ele>26.666666666666664</ele><time>2026-04-19T15:00:24Z</time></trkpt><trkpt lat="43.67112315768113" lon="10.738363508626968"><ele>27.0</ele><time>2026-04-19T15:00:25Z</time></trkpt><trkpt lat="43.671170328504424" lon="10.738623074091208"><ele>28.0</ele><time>2026-04-19T15:00:26Z</time></trkpt><trkpt lat="43.671224954075775" lon="10.73887970727875"><ele>29.0</ele><time>2026-04-19T15:00:27Z</time></trkpt><trkpt lat="43.671285182871934" lon="10.739134635291082"><ele>30.0</ele><time>2026-04-19T15:00:28Z</time></trkpt><trkpt lat="43.671353696073155" lon="10.739385354238367"><ele>30.0</ele><time>2026-04-19T15:00:29Z</time></trkpt><trkpt lat="43.67142847351666" lon="10.739631244021124"><ele>30.0</ele><time>2026-04-19T15:00:30Z</time></trkpt><trkpt lat="43.67151373467573" lon="10.73986715483126"><ele>30.0</ele><time>2026-04-19T15:00:31Z</time></trkpt><trkpt lat="43.671609680444654" lon="10.740112484538255"><ele>30.333333333333336</ele><time>2026-04-19T15:00:32Z</time></trkpt><trkpt lat="43.671701851594456" lon="10.740351159061586"><ele>30.666666666666668</ele><time>2026-04-19T15:00:33Z</time></trkpt><trkpt lat="43.671796322337016" lon="10.740575481075636"><ele>31.0</ele><time>2026-04-19T15:00:34Z</time></trkpt><trkpt lat="43.671906906860556" lon="10.740793079314182"><ele>31.0</ele><time>2026-04-19T15:00:35Z</time></trkpt><trkpt lat="43.67202013449071" lon="10.74101168380051"><ele>31.0</ele><time>2026-04-19T15:00:36Z</time></trkpt><trkpt lat="43.672136665625914" lon="10.741228253763234"><ele>31.0</ele><time>2026-04-19T15:00:37Z</time></trkpt><trkpt lat="43.67225627169078" lon="10.741441895156603"><ele>31.0</ele><time>2026-04-19T15:00:38Z</time></trkpt><trkpt lat="43.67238014220157" lon="10.741647090151472"><ele>31.0</ele><time>2026-04-19T15:00:39Z</time></trkpt><trkpt lat="43.67251116377393" lon="10.74184427275406"><ele>31.0</ele><time>2026-04-19T15:00:40Z</time></trkpt><trkpt lat="43.67264880681014" lon="10.74203397326619"><ele>32.333333333333336</ele><time>2026-04-19T15:00:41Z</time></trkpt><trkpt lat="43.67279017677472" lon="10.742220123607016"><ele>33.666666666666664</ele><time>2026-04-19T15:00:42Z</time></trkpt><trkpt lat="43.672931745773504" lon="10.742404112786199"><ele>35.0</ele><time>2026-04-19T15:00:43Z</time></trkpt><trkpt lat="43.67307155321189" lon="10.742589449309289"><ele>34.33333333333333</ele><time>2026-04-19T15:00:44Z</time></trkpt><trkpt lat="43.6732233607721" lon="10.742765058998822"><ele>33.666666666666664</ele><time>2026-04-19T15:00:45Z</time></trkpt><trkpt lat="43.67337201630049" lon="10.742939559701236"><ele>33.0</ele><time>2026-04-19T15:00:46Z</time></trkpt><trkpt lat="43.67351797599756" lon="10.74311135155811"><ele>36.0</ele><time>2026-04-19T15:00:47Z</time></trkpt><trkpt lat="43.673665249738896" lon="10.743282382425857"><ele>39.0</ele><time>2026-04-19T15:00:48Z</time></trkpt><trkpt lat="43.67381214101957" lon="10.743454105368352"><ele>42.0</ele><time>2026-04-19T15:00:49Z</time></trkpt><trkpt lat="43.673962264482434" lon="10.743623455754289"><ele>42.333333333333336</ele><time>2026-04-19T15:00:50Z</time></trkpt><trkpt lat="43.67411462551893" lon="10.743793519663022"><ele>42.66666666666667</ele><time>2026-04-19T15:00:51Z</time></trkpt><trkpt lat="43.674267764787714" lon="10.743967635232893"><ele>43.0</ele><time>2026-04-19T15:00:52Z</time></trkpt><trkpt lat="43.67442104743954" lon="10.74414101492582"><ele>44.0</ele><time>2026-04-19T15:00:53Z</time></trkpt><trkpt lat="43.67457399772199" lon="10.744313386103359"><ele>45.0</ele><time>2026-04-19T15:00:54Z</time></trkpt><trkpt lat="43.674725314849915" lon="10.74448753311336"><ele>46.0</ele><time>2026-04-19T15:00:55Z</time></trkpt><trkpt lat="43.67487457779088" lon="10.74466058666571"><ele>46.0</ele><time>2026-04-19T15:00:56Z</time></trkpt><trkpt lat="43.67502306883845" lon="10.744835624798233"><ele>46.0</ele><time>2026-04-19T15:00:57Z</time></trkpt><trkpt lat="43.6751723863839" lon="10.745007724666687"><ele>46.0</ele><time>2026-04-19T15:00:58Z</time></trkpt><trkpt lat="43.67532179502922" lon="10.745176524044053"><ele>46.66666666666667</ele><time>2026-04-19T15:00:59Z</time></trkpt><trkpt lat="43.67546974776605" lon="10.745347050416752"><ele>47.333333333333336</ele><time>2026-04-19T15:01:00Z</time></trkpt><trkpt lat="43.675621329004095" lon="10.745517751899932"><ele>48.0</ele><time>2026-04-19T15:01:01Z</time></trkpt><trkpt lat="43.67577459511136" lon="10.745690121275535"><ele>48.0</ele><time>2026-04-19T15:01:02Z</time></trkpt><trkpt lat="43.675930080142315" lon="10.745865278996538"><ele>48.0</ele><time>2026-04-19T15:01:03Z</time></trkpt><trkpt lat="43.676085744564226" lon="10.74604144585122"><ele>48.0</ele><time>2026-04-19T15:01:04Z</time></trkpt><trkpt lat="43.676241605768105" lon="10.746217576253693"><ele>45.0</ele><time>2026-04-19T15:01:05Z</time></trkpt><trkpt lat="43.6763983240416" lon="10.746394960335227"><ele>42.0</ele><time>2026-04-19T15:01:06Z</time></trkpt><trkpt lat="43.676555332654814" lon="10.746574489865665"><ele>39.0</ele><time>2026-04-19T15:01:07Z</time></trkpt><trkpt lat="43.67671260148256" lon="10.746753819727225"><ele>39.333333333333336</ele><time>2026-04-19T15:01:08Z</time></trkpt><trkpt lat="43.6768708886646" lon="10.746934052971822"><ele>39.66666666666667</ele><time>2026-04-19T15:01:09Z</time></trkpt><trkpt lat="43.67702655700852" lon="10.747121354495091"><ele>40.0</ele><time>2026-04-19T15:01:10Z</time></trkpt><trkpt lat="43.67717896705439" lon="10.747314287341977"><ele>41.66666666666667</ele><time>2026-04-19T15:01:11Z</time></trkpt><trkpt lat="43.677330178978" lon="10.747511432159085"><ele>43.333333333333336</ele><time>2026-04-19T15:01:12Z</time></trkpt><trkpt lat="43.67747804746805" lon="10.747714569754166"><ele>45.0</ele><time>2026-04-19T15:01:13Z</time></trkpt><trkpt lat="43.677624373558444" lon="10.747924291506934"><ele>44.666666666666664</ele><time>2026-04-19T15:01:14Z</time></trkpt><trkpt lat="43.67776750165695" lon="10.748139070450687"><ele>44.33333333333333</ele><time>2026-04-19T15:01:15Z</time></trkpt><trkpt lat="43.677908241285984" lon="10.74835908825436"><ele>44.0</ele><time>2026-04-19T15:01:16Z</time></trkpt><trkpt lat="43.678044161085225" lon="10.748584775159982"><ele>44.0</ele><time>2026-04-19T15:01:17Z</time></trkpt><trkpt lat="43.67817547581668" lon="10.748815320617629"><ele>44.0</ele><time>2026-04-19T15:01:18Z</time></trkpt><trkpt lat="43.678303420909224" lon="10.749050061487276"><ele>44.0</ele><time>2026-04-19T15:01:19Z</time></trkpt><trkpt lat="43.67842941409463" lon="10.749287346780305"><ele>41.0</ele><time>2026-04-19T15:01:20Z</time></trkpt><trkpt lat="43.67855281881277" lon="10.749528544072046"><ele>38.0</ele><time>2026-04-19T15:01:21Z</time></trkpt><trkpt lat="43.67867424732101" lon="10.749772314328672"><ele>35.0</ele><time>2026-04-19T15:01:22Z</time></trkpt><trkpt lat="43.67879610155899" lon="10.750017036605573"><ele>35.666666666666664</ele><time>2026-04-19T15:01:23Z</time></trkpt><trkpt lat="43.6789196405119" lon="10.750259456863626"><ele>36.333333333333336</ele><time>2026-04-19T15:01:24Z</time></trkpt><trkpt lat="43.67904228814876" lon="10.75050382773487"><ele>37.0</ele><time>2026-04-19T15:01:25Z</time></trkpt><trkpt lat="43.67916651592789" lon="10.75074522315827"><ele>37.0</ele><time>2026-04-19T15:01:26Z</time></trkpt><trkpt lat="43.679287388130426" lon="10.750980296087988"><ele>37.0</ele><time>2026-04-19T15:01:27Z</time></trkpt><trkpt lat="43.679405546681906" lon="10.751214260333912"><ele>37.0</ele><time>2026-04-19T15:01:28Z</time></trkpt><trkpt lat="43.679525042662085" lon="10.751448563892628"><ele>37.333333333333336</ele><time>2026-04-19T15:01:29Z</time></trkpt><trkpt lat="43.67964191863469" lon="10.751687920613955"><ele>37.666666666666664</ele><time>2026-04-19T15:01:30Z</time></trkpt><trkpt lat="43.67976228765639" lon="10.751923349965606"><ele>38.0</ele><time>2026-04-19T15:01:31Z</time></trkpt><trkpt lat="43.679881595664554" lon="10.752157152425221"><ele>38.0</ele><time>2026-04-19T15:01:32Z</time></trkpt><trkpt lat="43.68000202073559" lon="10.752389223842808"><ele>38.0</ele><time>2026-04-19T15:01:33Z</time></trkpt><trkpt lat="43.68012003389267" lon="10.752618104226421"><ele>38.0</ele><time>2026-04-19T15:01:34Z</time></trkpt><trkpt lat="43.68023716017109" lon="10.752845957393431"><ele>35.666666666666664</ele><time>2026-04-19T15:01:35Z</time></trkpt><trkpt lat="43.680352639694" lon="10.753071273373264"><ele>33.333333333333336</ele><time>2026-04-19T15:01:36Z</time></trkpt><trkpt lat="43.680465208430434" lon="10.75329416363258"><ele>31.0</ele><time>2026-04-19T15:01:37Z</time></trkpt><trkpt lat="43.68057644867096" lon="10.753518474252807"><ele>31.666666666666668</ele><time>2026-04-19T15:01:38Z</time></trkpt><trkpt lat="43.6806886350989" lon="10.753737953790564"><ele>32.333333333333336</ele><time>2026-04-19T15:01:39Z</time></trkpt><trkpt lat="43.68080199381773" lon="10.75395257760714"><ele>33.0</ele><time>2026-04-19T15:01:40Z</time></trkpt><trkpt lat="43.680914630640636" lon="10.754166192563284"><ele>32.666666666666664</ele><time>2026-04-19T15:01:41Z</time></trkpt><trkpt lat="43.68102300379003" lon="10.75438010820841"><ele>32.33333333333333</ele><time>2026-04-19T15:01:42Z</time></trkpt><trkpt lat="43.681127848513626" lon="10.75459543226467"><ele>32.0</ele><time>2026-04-19T15:01:43Z</time></trkpt><trkpt lat="43.68123245118677" lon="10.754808163199328"><ele>32.0</ele><time>2026-04-19T15:01:44Z</time></trkpt><trkpt lat="43.68133881988363" lon="10.755016069934186"><ele>32.0</ele><time>2026-04-19T15:01:45Z</time></trkpt><trkpt lat="43.68144867326811" lon="10.755231550802515"><ele>32.0</ele><time>2026-04-19T15:01:46Z</time></trkpt><trkpt lat="43.68156332256384" lon="10.755453106827908"><ele>31.666666666666664</ele><time>2026-04-19T15:01:47Z</time></trkpt><trkpt lat="43.6816799355071" lon="10.755677931000742"><ele>31.333333333333336</ele><time>2026-04-19T15:01:48Z</time></trkpt><trkpt lat="43.68179478242054" lon="10.755906185464331"><ele>31.0</ele><time>2026-04-19T15:01:49Z</time></trkpt><trkpt lat="43.68190639040089" lon="10.756128460784787"><ele>30.333333333333336</ele><time>2026-04-19T15:01:50Z</time></trkpt><trkpt lat="43.6820155071322" lon="10.756347888351716"><ele>29.666666666666664</ele><time>2026-04-19T15:01:51Z</time></trkpt><trkpt lat="43.68212455925741" lon="10.756568565307665"><ele>29.0</ele><time>2026-04-19T15:01:52Z</time></trkpt><trkpt lat="43.68223015708497" lon="10.756794136780137"><ele>29.666666666666664</ele><time>2026-04-19T15:01:53Z</time></trkpt><trkpt lat="43.68232956172392" lon="10.757025943871158"><ele>30.333333333333336</ele><time>2026-04-19T15:01:54Z</time></trkpt><trkpt lat="43.68242948070723" lon="10.757258328880694"><ele>31.0</ele><time>2026-04-19T15:01:55Z</time></trkpt><trkpt lat="43.68252496033172" lon="10.757494542085519"><ele>30.666666666666668</ele><time>2026-04-19T15:01:56Z</time></trkpt><trkpt lat="43.68261502796136" lon="10.757735618975795"><ele>30.333333333333336</ele><time>2026-04-19T15:01:57Z</time></trkpt><trkpt lat="43.6826998463169" lon="10.757980340615186"><ele>30.0</ele><time>2026-04-19T15:01:58Z</time></trkpt><trkpt lat="43.6827799327641" lon="10.75822958065107"><ele>31.0</ele><time>2026-04-19T15:01:59Z</time></trkpt><trkpt lat="43.68285642982964" lon="10.758482478409348"><ele>32.0</ele><time>2026-04-19T15:02:00Z</time></trkpt><trkpt lat="43.68292556215767" lon="10.758741103321027"><ele>33.0</ele><time>2026-04-19T15:02:01Z</time></trkpt><trkpt lat="43.68299205058287" lon="10.759005348783482"><ele>33.0</ele><time>2026-04-19T15:02:02Z</time></trkpt><trkpt lat="43.68305655285716" lon="10.759275613125402"><ele>33.0</ele><time>2026-04-19T15:02:03Z</time></trkpt><trkpt lat="43.683119803956785" lon="10.759552005695946"><ele>33.0</ele><time>2026-04-19T15:02:04Z</time></trkpt><trkpt lat="43.6831779985754" lon="10.759835198644286"><ele>33.666666666666664</ele><time>2026-04-19T15:02:05Z</time></trkpt><trkpt lat="43.68323467343399" lon="10.760124963190036"><ele>34.33333333333333</ele><time>2026-04-19T15:02:06Z</time></trkpt><trkpt lat="43.683289503603454" lon="10.760424044217277"><ele>35.0</ele><time>2026-04-19T15:02:07Z</time></trkpt><trkpt lat="43.68334849671326" lon="10.760723598469045"><ele>35.5</ele><time>2026-04-19T15:02:08Z</time></trkpt><trkpt lat="43.683408449588946" lon="10.761029141736616"><ele>36.0</ele><time>2026-04-19T15:02:09Z</time></trkpt><trkpt lat="43.68346908711942" lon="10.761338406764567"><ele>34.0</ele><time>2026-04-19T15:02:10Z</time></trkpt><trkpt lat="43.683530038246076" lon="10.761649673000038"><ele>32.0</ele><time>2026-04-19T15:02:11Z</time></trkpt><trkpt lat="43.68359089518909" lon="10.761962655407164"><ele>31.5</ele><time>2026-04-19T15:02:12Z</time></trkpt><trkpt lat="43.68364647827995" lon="10.762274530213153"><ele>31.0</ele><time>2026-04-19T15:02:13Z</time></trkpt><trkpt lat="43.68369528278566" lon="10.762584280909879"><ele>31.5</ele><time>2026-04-19T15:02:14Z</time></trkpt><trkpt lat="43.683741585232816" lon="10.762891768740124"><ele>32.0</ele><time>2026-04-19T15:02:15Z</time></trkpt><trkpt lat="43.683780692347426" lon="10.763196082154364"><ele>32.0</ele><time>2026-04-19T15:02:16Z</time></trkpt><trkpt lat="43.68381161810848" lon="10.763496501128131"><ele>32.0</ele><time>2026-04-19T15:02:17Z</time></trkpt><trkpt lat="43.68383657378482" lon="10.763794201226082"><ele>32.0</ele><time>2026-04-19T15:02:18Z</time></trkpt><trkpt lat="43.683858046336105" lon="10.76409233654827"><ele>32.33333333333333</ele><time>2026-04-19T15:02:19Z</time></trkpt><trkpt lat="43.68387767769441" lon="10.764388629319388"><ele>32.666666666666664</ele><time>2026-04-19T15:02:20Z</time></trkpt><trkpt lat="43.683897047010376" lon="10.764682643292089"><ele>33.0</ele><time>2026-04-19T15:02:21Z</time></trkpt><trkpt lat="43.68391367683439" lon="10.764974114840934"><ele>33.0</ele><time>2026-04-19T15:02:22Z</time></trkpt><trkpt lat="43.68392859743165" lon="10.765259158514784"><ele>33.0</ele><time>2026-04-19T15:02:23Z</time></trkpt><trkpt lat="43.68394372394627" lon="10.765537302459474"><ele>33.0</ele><time>2026-04-19T15:02:24Z</time></trkpt><trkpt lat="43.68395665865909" lon="10.765812252971788"><ele>33.333333333333336</ele><time>2026-04-19T15:02:25Z</time></trkpt><trkpt lat="43.683971083964934" lon="10.766089023157114"><ele>33.66666666666667</ele><time>2026-04-19T15:02:26Z</time></trkpt><trkpt lat="43.68398607969825" lon="10.766367585069496"><ele>34.0</ele><time>2026-04-19T15:02:27Z</time></trkpt><trkpt lat="43.684001010144954" lon="10.766647496958951"><ele>35.0</ele><time>2026-04-19T15:02:28Z</time></trkpt><trkpt lat="43.684017154375304" lon="10.766927816491092"><ele>36.0</ele><time>2026-04-19T15:02:29Z</time></trkpt><trkpt lat="43.684035590098645" lon="10.767205997653607"><ele>37.0</ele><time>2026-04-19T15:02:30Z</time></trkpt><trkpt lat="43.68405718725818" lon="10.767480588172365"><ele>36.66666666666667</ele><time>2026-04-19T15:02:31Z</time></trkpt><trkpt lat="43.68408147580776" lon="10.767753477999541"><ele>36.333333333333336</ele><time>2026-04-19T15:02:32Z</time></trkpt><trkpt lat="43.68411003222878" lon="10.768027384145284"><ele>36.0</ele><time>2026-04-19T15:02:33Z</time></trkpt><trkpt lat="43.684144816171916" lon="10.7683009069442"><ele>35.666666666666664</ele><time>2026-04-19T15:02:34Z</time></trkpt><trkpt lat="43.68418678030512" lon="10.768573648970088"><ele>35.33333333333333</ele><time>2026-04-19T15:02:35Z</time></trkpt><trkpt lat="43.68423571215428" lon="10.768846850957022"><ele>35.0</ele><time>2026-04-19T15:02:36Z</time></trkpt><trkpt lat="43.684291813181275" lon="10.76911816099552"><ele>35.33333333333333</ele><time>2026-04-19T15:02:37Z</time></trkpt><trkpt lat="43.684352950750444" lon="10.769389322740919"><ele>35.666666666666664</ele><time>2026-04-19T15:02:38Z</time></trkpt><trkpt lat="43.68441912055689" lon="10.769658453661282"><ele>36.0</ele><time>2026-04-19T15:02:39Z</time></trkpt><trkpt lat="43.68448999903918" lon="10.769927088599736"><ele>37.0</ele><time>2026-04-19T15:02:40Z</time></trkpt><trkpt lat="43.68456504596074" lon="10.770193770072018"><ele>38.0</ele><time>2026-04-19T15:02:41Z</time></trkpt><trkpt lat="43.6846457376664" lon="10.770458245661212"><ele>39.0</ele><time>2026-04-19T15:02:42Z</time></trkpt><trkpt lat="43.684732080580936" lon="10.770719573906325"><ele>39.0</ele><time>2026-04-19T15:02:43Z</time></trkpt><trkpt lat="43.6848242284939" lon="10.770978914789762"><ele>39.0</ele><time>2026-04-19T15:02:44Z</time></trkpt><trkpt lat="43.68491912467079" lon="10.771236327179457"><ele>39.0</ele><time>2026-04-19T15:02:45Z</time></trkpt><trkpt lat="43.68501547350205" lon="10.771491075270617"><ele>39.333333333333336</ele><time>2026-04-19T15:02:46Z</time></trkpt><trkpt lat="43.68511048799457" lon="10.771744910688977"><ele>39.66666666666667</ele><time>2026-04-19T15:02:47Z</time></trkpt><trkpt lat="43.68520624647735" lon="10.771998303181066"><ele>40.0</ele><time>2026-04-19T15:02:48Z</time></trkpt><trkpt lat="43.6853017541762" lon="10.772251089437226"><ele>42.0</ele><time>2026-04-19T15:02:49Z</time></trkpt><trkpt lat="43.68539774383783" lon="10.77250228173506"><ele>44.0</ele><time>2026-04-19T15:02:50Z</time></trkpt><trkpt lat="43.68549445173228" lon="10.772751737833179"><ele>46.0</ele><time>2026-04-19T15:02:51Z</time></trkpt><trkpt lat="43.68559086207737" lon="10.773000212139621"><ele>46.333333333333336</ele><time>2026-04-19T15:02:52Z</time></trkpt><trkpt lat="43.68568392504849" lon="10.7732503150987"><ele>46.666666666666664</ele><time>2026-04-19T15:02:53Z</time></trkpt><trkpt lat="43.685776132122946" lon="10.773502509604906"><ele>47.0</ele><time>2026-04-19T15:02:54Z</time></trkpt><trkpt lat="43.68586402811919" lon="10.773757054424282"><ele>48.0</ele><time>2026-04-19T15:02:55Z</time></trkpt><trkpt lat="43.685946600590704" lon="10.774017127042537"><ele>49.0</ele><time>2026-04-19T15:02:56Z</time></trkpt><trkpt lat="43.6860255984486" lon="10.774281717231093"><ele>50.0</ele><time>2026-04-19T15:02:57Z</time></trkpt><trkpt lat="43.686100784036356" lon="10.774550538218904"><ele>51.333333333333336</ele><time>2026-04-19T15:02:58Z</time></trkpt><trkpt lat="43.68617220816176" lon="10.774824479861309"><ele>52.66666666666667</ele><time>2026-04-19T15:02:59Z</time></trkpt><trkpt lat="43.68624498071452" lon="10.775100846466245"><ele>54.0</ele><time>2026-04-19T15:03:00Z</time></trkpt><trkpt lat="43.686324231365305" lon="10.775371910254695"><ele>54.33333333333333</ele><time>2026-04-19T15:03:01Z</time></trkpt><trkpt lat="43.68640754128772" lon="10.775641540356792"><ele>54.666666666666664</ele><time>2026-04-19T15:03:02Z</time></trkpt><trkpt lat="43.68649853056816" lon="10.775906090604133"><ele>55.0</ele><time>2026-04-19T15:03:03Z</time></trkpt><trkpt lat="43.68659607485226" lon="10.776164007705773"><ele>51.666666666666664</ele><time>2026-04-19T15:03:04Z</time></trkpt><trkpt lat="43.68669961648914" lon="10.776413454151465"><ele>48.33333333333333</ele><time>2026-04-19T15:03:05Z</time></trkpt><trkpt lat="43.68680136648071" lon="10.776656980182743"><ele>45.0</ele><time>2026-04-19T15:03:06Z</time></trkpt><trkpt lat="43.68692091021642" lon="10.776896802001431"><ele>43.0</ele><time>2026-04-19T15:03:07Z</time></trkpt><trkpt lat="43.68704553207232" lon="10.77712798193404"><ele>41.0</ele><time>2026-04-19T15:03:08Z</time></trkpt><trkpt lat="43.687167553914485" lon="10.77735305711074"><ele>39.0</ele><time>2026-04-19T15:03:09Z</time></trkpt><trkpt lat="43.68729175409556" lon="10.777571896352537"><ele>39.333333333333336</ele><time>2026-04-19T15:03:10Z</time></trkpt><trkpt lat="43.687417503369986" lon="10.777787076178473"><ele>39.66666666666667</ele><time>2026-04-19T15:03:11Z</time></trkpt><trkpt lat="43.68754269624466" lon="10.7779994147373"><ele>40.0</ele><time>2026-04-19T15:03:12Z</time></trkpt><trkpt lat="43.68766786889814" lon="10.778211974866139"><ele>37.0</ele><time>2026-04-19T15:03:13Z</time></trkpt><trkpt lat="43.68779092045851" lon="10.778423012298095"><ele>34.0</ele><time>2026-04-19T15:03:14Z</time></trkpt><trkpt lat="43.6879147750891" lon="10.778632489196893"><ele>31.0</ele><time>2026-04-19T15:03:15Z</time></trkpt><trkpt lat="43.68803846831539" lon="10.778840797885675"><ele>31.0</ele><time>2026-04-19T15:03:16Z</time></trkpt><trkpt lat="43.68816070322293" lon="10.779048283742585"><ele>31.0</ele><time>2026-04-19T15:03:17Z</time></trkpt><trkpt lat="43.688281897301955" lon="10.779255306133129"><ele>31.0</ele><time>2026-04-19T15:03:18Z</time></trkpt><trkpt lat="43.688402786869915" lon="10.779460251238138"><ele>30.666666666666668</ele><time>2026-04-19T15:03:19Z</time></trkpt><trkpt lat="43.68852248986329" lon="10.779663934558098"><ele>30.333333333333336</ele><time>2026-04-19T15:03:20Z</time></trkpt><trkpt lat="43.688642649906406" lon="10.779868440562282"><ele>30.0</ele><time>2026-04-19T15:03:21Z</time></trkpt><trkpt lat="43.68876373937767" lon="10.780075197771476"><ele>28.333333333333336</ele><time>2026-04-19T15:03:22Z</time></trkpt><trkpt lat="43.688885281355006" lon="10.780283505733578"><ele>26.666666666666668</ele><time>2026-04-19T15:03:23Z</time></trkpt><trkpt lat="43.6890064355564" lon="10.780493264344889"><ele>25.0</ele><time>2026-04-19T15:03:24Z</time></trkpt><trkpt lat="43.68912787167055" lon="10.78070144503407"><ele>25.0</ele><time>2026-04-19T15:03:25Z</time></trkpt><trkpt lat="43.6892476795974" lon="10.78090636933212"><ele>25.0</ele><time>2026-04-19T15:03:26Z</time></trkpt><trkpt lat="43.689365398761296" lon="10.781108143174416"><ele>25.0</ele><time>2026-04-19T15:03:27Z</time></trkpt><trkpt lat="43.68948094895328" lon="10.78130475733601"><ele>24.0</ele><time>2026-04-19T15:03:28Z</time></trkpt><trkpt lat="43.689593923912405" lon="10.781499533704011"><ele>23.0</ele><time>2026-04-19T15:03:29Z</time></trkpt><trkpt lat="43.6897051932935" lon="10.781692545842056"><ele>22.0</ele><time>2026-04-19T15:03:30Z</time></trkpt><trkpt lat="43.689814735423376" lon="10.781882978038663"><ele>22.0</ele><time>2026-04-19T15:03:31Z</time></trkpt><trkpt lat="43.68991981508502" lon="10.782073629434725"><ele>22.0</ele><time>2026-04-19T15:03:32Z</time></trkpt><trkpt lat="43.69003245887436" lon="10.782254137363964"><ele>22.0</ele><time>2026-04-19T15:03:33Z</time></trkpt><trkpt lat="43.690143708713244" lon="10.782441581288039"><ele>22.0</ele><time>2026-04-19T15:03:34Z</time></trkpt><trkpt lat="43.69024941427371" lon="10.78262573738401"><ele>22.0</ele><time>2026-04-19T15:03:35Z</time></trkpt><trkpt lat="43.69035893277475" lon="10.782809874203409"><ele>22.0</ele><time>2026-04-19T15:03:36Z</time></trkpt><trkpt lat="43.69047126902761" lon="10.782994554550708"><ele>22.333333333333332</ele><time>2026-04-19T15:03:37Z</time></trkpt><trkpt lat="43.69058129100106" lon="10.783177833892175"><ele>22.666666666666668</ele><time>2026-04-19T15:03:38Z</time></trkpt><trkpt lat="43.69068987645949" lon="10.783359897700254"><ele>23.0</ele><time>2026-04-19T15:03:39Z</time></trkpt><trkpt lat="43.69079325482139" lon="10.783541854661468"><ele>23.0</ele><time>2026-04-19T15:03:40Z</time></trkpt><trkpt lat="43.69089508657563" lon="10.783718314954692"><ele>23.0</ele><time>2026-04-19T15:03:41Z</time></trkpt><trkpt lat="43.69099773269343" lon="10.783888208183564"><ele>23.0</ele><time>2026-04-19T15:03:42Z</time></trkpt><trkpt lat="43.691099808018535" lon="10.784058917720843"><ele>23.0</ele><time>2026-04-19T15:03:43Z</time></trkpt><trkpt lat="43.6912008907986" lon="10.78423162375026"><ele>23.0</ele><time>2026-04-19T15:03:44Z</time></trkpt><trkpt lat="43.69130433366391" lon="10.78440586996164"><ele>23.0</ele><time>2026-04-19T15:03:45Z</time></trkpt><trkpt lat="43.691409387723056" lon="10.784580519741098"><ele>22.666666666666668</ele><time>2026-04-19T15:03:46Z</time></trkpt><trkpt lat="43.69151431175395" lon="10.784756627283436"><ele>22.333333333333332</ele><time>2026-04-19T15:03:47Z</time></trkpt><trkpt lat="43.691619569031985" lon="10.784938473948706"><ele>22.0</ele><time>2026-04-19T15:03:48Z</time></trkpt><trkpt lat="43.691726534673165" lon="10.785127534133476"><ele>22.333333333333332</ele><time>2026-04-19T15:03:49Z</time></trkpt><trkpt lat="43.691837709531356" lon="10.785312839239529"><ele>22.666666666666668</ele><time>2026-04-19T15:03:50Z</time></trkpt><trkpt lat="43.69194798631594" lon="10.785498942233506"><ele>23.0</ele><time>2026-04-19T15:03:51Z</time></trkpt><trkpt lat="43.692057969901484" lon="10.785686606434252"><ele>23.0</ele><time>2026-04-19T15:03:52Z</time></trkpt><trkpt lat="43.692167760782546" lon="10.785874242168711"><ele>23.0</ele><time>2026-04-19T15:03:53Z</time></trkpt><trkpt lat="43.69227855362136" lon="10.786064605357012"><ele>23.0</ele><time>2026-04-19T15:03:54Z</time></trkpt><trkpt lat="43.69239241261968" lon="10.786259146662589"><ele>22.333333333333336</ele><time>2026-04-19T15:03:55Z</time></trkpt><trkpt lat="43.692509723925134" lon="10.786458153673895"><ele>21.666666666666668</ele><time>2026-04-19T15:03:56Z</time></trkpt><trkpt lat="43.69262746013623" lon="10.786659490012939"><ele>21.0</ele><time>2026-04-19T15:03:57Z</time></trkpt><trkpt lat="43.692747221161596" lon="10.786861868270748"><ele>21.666666666666668</ele><time>2026-04-19T15:03:58Z</time></trkpt><trkpt lat="43.69286566575797" lon="10.787065163767839"><ele>22.333333333333336</ele><time>2026-04-19T15:03:59Z</time></trkpt><trkpt lat="43.69298520686521" lon="10.787268879603976"><ele>23.0</ele><time>2026-04-19T15:04:00Z</time></trkpt><trkpt lat="43.69310625399259" lon="10.787477466862425"><ele>22.666666666666668</ele><time>2026-04-19T15:04:01Z</time></trkpt><trkpt lat="43.69322989720707" lon="10.787690674994671"><ele>22.333333333333332</ele><time>2026-04-19T15:04:02Z</time></trkpt><trkpt lat="43.69335692314062" lon="10.78790444611131"><ele>22.0</ele><time>2026-04-19T15:04:03Z</time></trkpt><trkpt lat="43.693485309550994" lon="10.788123984766582"><ele>22.333333333333332</ele><time>2026-04-19T15:04:04Z</time></trkpt><trkpt lat="43.69361501439183" lon="10.788342007510963"><ele>22.666666666666668</ele><time>2026-04-19T15:04:05Z</time></trkpt><trkpt lat="43.693746441375204" lon="10.788564484665423"><ele>23.0</ele><time>2026-04-19T15:04:06Z</time></trkpt><trkpt lat="43.69387557403543" lon="10.78879475214651"><ele>23.0</ele><time>2026-04-19T15:04:07Z</time></trkpt><trkpt lat="43.69400791052682" lon="10.789020759978811"><ele>23.0</ele><time>2026-04-19T15:04:08Z</time></trkpt><trkpt lat="43.694137968115015" lon="10.789246539996173"><ele>23.0</ele><time>2026-04-19T15:04:09Z</time></trkpt><trkpt lat="43.694268280530416" lon="10.789470105669128"><ele>22.333333333333336</ele><time>2026-04-19T15:04:10Z</time></trkpt><trkpt lat="43.694401149981736" lon="10.78969395783922"><ele>21.666666666666668</ele><time>2026-04-19T15:04:11Z</time></trkpt><trkpt lat="43.69453004767453" lon="10.789918494766653"><ele>21.0</ele><time>2026-04-19T15:04:12Z</time></trkpt><trkpt lat="43.69466264742263" lon="10.790141724617406"><ele>20.666666666666668</ele><time>2026-04-19T15:04:13Z</time></trkpt><trkpt lat="43.694793924769584" lon="10.790362499627573"><ele>20.333333333333336</ele><time>2026-04-19T15:04:14Z</time></trkpt><trkpt lat="43.69492238601151" lon="10.790591109521044"><ele>20.0</ele><time>2026-04-19T15:04:15Z</time></trkpt><trkpt lat="43.69504913731359" lon="10.79082113300998"><ele>20.0</ele><time>2026-04-19T15:04:16Z</time></trkpt><trkpt lat="43.69516764744058" lon="10.791060278386825"><ele>20.0</ele><time>2026-04-19T15:04:17Z</time></trkpt><trkpt lat="43.6952844832288" lon="10.7913019047026"><ele>20.0</ele><time>2026-04-19T15:04:18Z</time></trkpt><trkpt lat="43.695397983108286" lon="10.791545309441709"><ele>20.0</ele><time>2026-04-19T15:04:19Z</time></trkpt><trkpt lat="43.69550995169149" lon="10.791787806815325"><ele>20.0</ele><time>2026-04-19T15:04:20Z</time></trkpt><trkpt lat="43.69562100756814" lon="10.792033530397651"><ele>20.0</ele><time>2026-04-19T15:04:21Z</time></trkpt><trkpt lat="43.69572930559114" lon="10.792281496507721"><ele>20.666666666666668</ele><time>2026-04-19T15:04:22Z</time></trkpt><trkpt lat="43.695830496840195" lon="10.792536537311294"><ele>21.333333333333332</ele><time>2026-04-19T15:04:23Z</time></trkpt><trkpt lat="43.69592541279739" lon="10.792796025066526"><ele>22.0</ele><time>2026-04-19T15:04:24Z</time></trkpt><trkpt lat="43.69601422007723" lon="10.793057652093815"><ele>21.333333333333332</ele><time>2026-04-19T15:04:25Z</time></trkpt><trkpt lat="43.696102163319935" lon="10.793318646872786"><ele>20.666666666666668</ele><time>2026-04-19T15:04:26Z</time></trkpt><trkpt lat="43.69618417244656" lon="10.793587863149536"><ele>20.0</ele><time>2026-04-19T15:04:27Z</time></trkpt><trkpt lat="43.69625473031914" lon="10.793859409737259"><ele>20.0</ele><time>2026-04-19T15:04:28Z</time></trkpt><trkpt lat="43.696321691461925" lon="10.79413152966101"><ele>20.0</ele><time>2026-04-19T15:04:29Z</time></trkpt><trkpt lat="43.69638767520613" lon="10.79440590226404"><ele>20.0</ele><time>2026-04-19T15:04:30Z</time></trkpt><trkpt lat="43.69645007247622" lon="10.794680996218213"><ele>20.333333333333336</ele><time>2026-04-19T15:04:31Z</time></trkpt><trkpt lat="43.69651070122978" lon="10.79495703590361"><ele>20.666666666666668</ele><time>2026-04-19T15:04:32Z</time></trkpt><trkpt lat="43.696564692133755" lon="10.795234650990292"><ele>21.0</ele><time>2026-04-19T15:04:33Z</time></trkpt><trkpt lat="43.696609621226706" lon="10.795515951686044"><ele>21.333333333333332</ele><time>2026-04-19T15:04:34Z</time></trkpt><trkpt lat="43.69665242913353" lon="10.795796828130507"><ele>21.666666666666664</ele><time>2026-04-19T15:04:35Z</time></trkpt><trkpt lat="43.69669158963268" lon="10.796078520590275"><ele>22.0</ele><time>2026-04-19T15:04:36Z</time></trkpt><trkpt lat="43.69672957403976" lon="10.796360747158328"><ele>22.0</ele><time>2026-04-19T15:04:37Z</time></trkpt><trkpt lat="43.696766238701805" lon="10.796644553449148"><ele>22.0</ele><time>2026-04-19T15:04:38Z</time></trkpt><trkpt lat="43.6968019025962" lon="10.796928262801826"><ele>22.0</ele><time>2026-04-19T15:04:39Z</time></trkpt><trkpt lat="43.69683772171296" lon="10.797213569500906"><ele>21.666666666666664</ele><time>2026-04-19T15:04:40Z</time></trkpt><trkpt lat="43.696871701850675" lon="10.79750044704805"><ele>21.333333333333332</ele><time>2026-04-19T15:04:41Z</time></trkpt><trkpt lat="43.696900848342246" lon="10.7977857061563"><ele>21.0</ele><time>2026-04-19T15:04:42Z</time></trkpt><trkpt lat="43.696940585244135" lon="10.798073439989194"><ele>21.0</ele><time>2026-04-19T15:04:43Z</time></trkpt><trkpt lat="43.69697396401668" lon="10.798359762274107"><ele>21.0</ele><time>2026-04-19T15:04:44Z</time></trkpt><trkpt lat="43.697011061399365" lon="10.79864550437651"><ele>21.0</ele><time>2026-04-19T15:04:45Z</time></trkpt><trkpt lat="43.69704775678809" lon="10.798931255312127"><ele>21.0</ele><time>2026-04-19T15:04:46Z</time></trkpt><trkpt lat="43.69708064801681" lon="10.799216252224259"><ele>21.0</ele><time>2026-04-19T15:04:47Z</time></trkpt><trkpt lat="43.697115393265086" lon="10.79950405006762"><ele>21.0</ele><time>2026-04-19T15:04:48Z</time></trkpt><trkpt lat="43.69715121099862" lon="10.799789864060044"><ele>21.0</ele><time>2026-04-19T15:04:49Z</time></trkpt><trkpt lat="43.697181419673036" lon="10.800076752331847"><ele>21.0</ele><time>2026-04-19T15:04:50Z</time></trkpt><trkpt lat="43.69721295118591" lon="10.8003625454629"><ele>21.0</ele><time>2026-04-19T15:04:51Z</time></trkpt><trkpt lat="43.69724692303493" lon="10.80064819837657"><ele>21.666666666666668</ele><time>2026-04-19T15:04:52Z</time></trkpt><trkpt lat="43.697284792000296" lon="10.800933516788795"><ele>22.333333333333336</ele><time>2026-04-19T15:04:53Z</time></trkpt><trkpt lat="43.6973172273431" lon="10.801221087178222"><ele>23.0</ele><time>2026-04-19T15:04:54Z</time></trkpt><trkpt lat="43.69734916922074" lon="10.801508878396513"><ele>23.0</ele><time>2026-04-19T15:04:55Z</time></trkpt><trkpt lat="43.697383973072824" lon="10.801793924575696"><ele>23.0</ele><time>2026-04-19T15:04:56Z</time></trkpt><trkpt lat="43.697421148535184" lon="10.802080178639939"><ele>23.0</ele><time>2026-04-19T15:04:57Z</time></trkpt><trkpt lat="43.69745803442692" lon="10.802364822977292"><ele>22.666666666666668</ele><time>2026-04-19T15:04:58Z</time></trkpt><trkpt lat="43.69749510229204" lon="10.802648861198946"><ele>22.333333333333332</ele><time>2026-04-19T15:04:59Z</time></trkpt><trkpt lat="43.69753145737333" lon="10.802934677245974"><ele>22.0</ele><time>2026-04-19T15:05:00Z</time></trkpt><trkpt lat="43.69756269144485" lon="10.803219619764233"><ele>21.666666666666664</ele><time>2026-04-19T15:05:01Z</time></trkpt><trkpt lat="43.69759591049721" lon="10.803507274072206"><ele>21.333333333333332</ele><time>2026-04-19T15:05:02Z</time></trkpt><trkpt lat="43.697630031785984" lon="10.803791568765563"><ele>21.0</ele><time>2026-04-19T15:05:03Z</time></trkpt><trkpt lat="43.69766576352878" lon="10.804075801748182"><ele>21.0</ele><time>2026-04-19T15:05:04Z</time></trkpt><trkpt lat="43.69769984084866" lon="10.80435997836941"><ele>21.0</ele><time>2026-04-19T15:05:05Z</time></trkpt><trkpt lat="43.69773476442636" lon="10.804645044022875"><ele>21.0</ele><time>2026-04-19T15:05:06Z</time></trkpt><trkpt lat="43.69776767392841" lon="10.804929545728763"><ele>21.0</ele><time>2026-04-19T15:05:07Z</time></trkpt><trkpt lat="43.69780438617547" lon="10.805213116172249"><ele>21.0</ele><time>2026-04-19T15:05:08Z</time></trkpt><trkpt lat="43.69783735759819" lon="10.805497539970654"><ele>21.0</ele><time>2026-04-19T15:05:09Z</time></trkpt><trkpt lat="43.69787170805507" lon="10.805783270910851"><ele>21.0</ele><time>2026-04-19T15:05:10Z</time></trkpt><trkpt lat="43.69790513857588" lon="10.806069853072056"><ele>21.0</ele><time>2026-04-19T15:05:11Z</time></trkpt><trkpt lat="43.69793826515609" lon="10.806353265371003"><ele>21.0</ele><time>2026-04-19T15:05:12Z</time></trkpt><trkpt lat="43.69797574527184" lon="10.806638048547345"><ele>21.0</ele><time>2026-04-19T15:05:13Z</time></trkpt><trkpt lat="43.69801085681378" lon="10.806922642273438"><ele>21.0</ele><time>2026-04-19T15:05:14Z</time></trkpt><trkpt lat="43.69804376483465" lon="10.807207774447567"><ele>21.0</ele><time>2026-04-19T15:05:15Z</time></trkpt><trkpt lat="43.69807910793506" lon="10.80749356760761"><ele>21.0</ele><time>2026-04-19T15:05:16Z</time></trkpt><trkpt lat="43.698115256342014" lon="10.80777794536345"><ele>21.0</ele><time>2026-04-19T15:05:17Z</time></trkpt><trkpt lat="43.698151591048884" lon="10.808062291612869"><ele>21.0</ele><time>2026-04-19T15:05:18Z</time></trkpt><trkpt lat="43.69818621199484" lon="10.808346572968093"><ele>21.333333333333332</ele><time>2026-04-19T15:05:19Z</time></trkpt><trkpt lat="43.69821986429984" lon="10.80863042804979"><ele>21.666666666666664</ele><time>2026-04-19T15:05:20Z</time></trkpt><trkpt lat="43.69825343785558" lon="10.808913479008648"><ele>22.0</ele><time>2026-04-19T15:05:21Z</time></trkpt><trkpt lat="43.69828672682347" lon="10.809196338255083"><ele>22.333333333333332</ele><time>2026-04-19T15:05:22Z</time></trkpt><trkpt lat="43.698320506719014" lon="10.8094801051774"><ele>22.666666666666668</ele><time>2026-04-19T15:05:23Z</time></trkpt><trkpt lat="43.69835440038913" lon="10.809764429127576"><ele>23.0</ele><time>2026-04-19T15:05:24Z</time></trkpt><trkpt lat="43.698387796978366" lon="10.810049906703902"><ele>23.333333333333336</ele><time>2026-04-19T15:05:25Z</time></trkpt><trkpt lat="43.69842066661904" lon="10.810337658673305"><ele>23.666666666666668</ele><time>2026-04-19T15:05:26Z</time></trkpt><trkpt lat="43.698455232034355" lon="10.810624299013282"><ele>24.0</ele><time>2026-04-19T15:05:27Z</time></trkpt><trkpt lat="43.69848911856719" lon="10.810911452426192"><ele>23.333333333333332</ele><time>2026-04-19T15:05:28Z</time></trkpt><trkpt lat="43.69852228724728" lon="10.811198925559102"><ele>22.666666666666664</ele><time>2026-04-19T15:05:29Z</time></trkpt><trkpt lat="43.69855706206023" lon="10.811487800999846"><ele>22.0</ele><time>2026-04-19T15:05:30Z</time></trkpt><trkpt lat="43.69859001821979" lon="10.811777509840674"><ele>22.0</ele><time>2026-04-19T15:05:31Z</time></trkpt><trkpt lat="43.698620695686074" lon="10.81206717990878"><ele>22.0</ele><time>2026-04-19T15:05:32Z</time></trkpt><trkpt lat="43.69865199883583" lon="10.812355847808465"><ele>22.0</ele><time>2026-04-19T15:05:33Z</time></trkpt><trkpt lat="43.69867866954274" lon="10.81264601525078"><ele>21.666666666666664</ele><time>2026-04-19T15:05:34Z</time></trkpt><trkpt lat="43.69870055838283" lon="10.81293818955933"><ele>21.333333333333332</ele><time>2026-04-19T15:05:35Z</time></trkpt><trkpt lat="43.69871899360791" lon="10.813229150189148"><ele>21.0</ele><time>2026-04-19T15:05:36Z</time></trkpt><trkpt lat="43.69873473212966" lon="10.8135197745588"><ele>20.666666666666668</ele><time>2026-04-19T15:05:37Z</time></trkpt><trkpt lat="43.698746065536916" lon="10.813808997716515"><ele>20.333333333333336</ele><time>2026-04-19T15:05:38Z</time></trkpt><trkpt lat="43.69875381589401" lon="10.81409789010616"><ele>20.0</ele><time>2026-04-19T15:05:39Z</time></trkpt><trkpt lat="43.698759113853825" lon="10.814385698808167"><ele>20.0</ele><time>2026-04-19T15:05:40Z</time></trkpt><trkpt lat="43.69876117237478" lon="10.814672523840688"><ele>20.0</ele><time>2026-04-19T15:05:41Z</time></trkpt><trkpt lat="43.69876216309748" lon="10.814957607930621"><ele>20.0</ele><time>2026-04-19T15:05:42Z</time></trkpt><trkpt lat="43.69875962547253" lon="10.815241859449927"><ele>20.333333333333336</ele><time>2026-04-19T15:05:43Z</time></trkpt><trkpt lat="43.69875313667946" lon="10.815527467150913"><ele>20.666666666666668</ele><time>2026-04-19T15:05:44Z</time></trkpt><trkpt lat="43.69874484597932" lon="10.815813954915676"><ele>21.0</ele><time>2026-04-19T15:05:45Z</time></trkpt><trkpt lat="43.698732021746025" lon="10.816101920680438"><ele>21.333333333333332</ele><time>2026-04-19T15:05:46Z</time></trkpt><trkpt lat="43.69871588881212" lon="10.816391424412775"><ele>21.666666666666664</ele><time>2026-04-19T15:05:47Z</time></trkpt><trkpt lat="43.698695421021284" lon="10.816680460553426"><ele>22.0</ele><time>2026-04-19T15:05:48Z</time></trkpt><trkpt lat="43.698671330207624" lon="10.816967919157271"><ele>22.0</ele><time>2026-04-19T15:05:49Z</time></trkpt><trkpt lat="43.69864435241689" lon="10.81725558914668"><ele>22.0</ele><time>2026-04-19T15:05:50Z</time></trkpt><trkpt lat="43.69861396205852" lon="10.817540461669386"><ele>22.0</ele><time>2026-04-19T15:05:51Z</time></trkpt><trkpt lat="43.6985815100532" lon="10.817818215817791"><ele>21.666666666666664</ele><time>2026-04-19T15:05:52Z</time></trkpt><trkpt lat="43.698546520812066" lon="10.818089956122606"><ele>21.333333333333332</ele><time>2026-04-19T15:05:53Z</time></trkpt><trkpt lat="43.69851059362781" lon="10.81835592789765"><ele>21.0</ele><time>2026-04-19T15:05:54Z</time></trkpt><trkpt lat="43.6984738255055" lon="10.818614529245886"><ele>20.666666666666668</ele><time>2026-04-19T15:05:55Z</time></trkpt><trkpt lat="43.69843555086177" lon="10.818866779045598"><ele>20.333333333333336</ele><time>2026-04-19T15:05:56Z</time></trkpt><trkpt lat="43.69839497522083" lon="10.819112071923788"><ele>20.0</ele><time>2026-04-19T15:05:57Z</time></trkpt><trkpt lat="43.698351719312114" lon="10.819350080274589"><ele>20.0</ele><time>2026-04-19T15:05:58Z</time></trkpt><trkpt lat="43.698306863843655" lon="10.819580244205174"><ele>20.0</ele><time>2026-04-19T15:05:59Z</time></trkpt><trkpt lat="43.69826175749673" lon="10.819805492621866"><ele>20.0</ele><time>2026-04-19T15:06:00Z</time></trkpt><trkpt lat="43.69821736333777" lon="10.820030952476241"><ele>20.0</ele><time>2026-04-19T15:06:01Z</time></trkpt><trkpt lat="43.69817366046047" lon="10.820257591265472"><ele>20.0</ele><time>2026-04-19T15:06:02Z</time></trkpt><trkpt lat="43.69812885105122" lon="10.820490488938875"><ele>20.0</ele><time>2026-04-19T15:06:03Z</time></trkpt><trkpt lat="43.69808130023372" lon="10.820729601180934"><ele>20.0</ele><time>2026-04-19T15:06:04Z</time></trkpt><trkpt lat="43.69803545224212" lon="10.820975013485326"><ele>20.0</ele><time>2026-04-19T15:06:05Z</time></trkpt><trkpt lat="43.697985406426206" lon="10.821226916672721"><ele>20.0</ele><time>2026-04-19T15:06:06Z</time></trkpt><trkpt lat="43.697932881890274" lon="10.821486524635011"><ele>20.0</ele><time>2026-04-19T15:06:07Z</time></trkpt><trkpt lat="43.697877438684436" lon="10.821756199741092"><ele>20.0</ele><time>2026-04-19T15:06:08Z</time></trkpt><trkpt lat="43.69782542716114" lon="10.822032598506333"><ele>20.0</ele><time>2026-04-19T15:06:09Z</time></trkpt><trkpt lat="43.69777151408387" lon="10.822314199492244"><ele>20.0</ele><time>2026-04-19T15:06:10Z</time></trkpt><trkpt lat="43.69772175123788" lon="10.822569563442306"><ele>20.0</ele><time>2026-04-19T15:06:11Z</time></trkpt><trkpt lat="43.69768120427714" lon="10.822783157122915"><ele>20.0</ele><time>2026-04-19T15:06:12Z</time></trkpt><trkpt lat="43.69764250679652" lon="10.822973949003863"><ele>19.75</ele><time>2026-04-19T15:06:13Z</time></trkpt><trkpt lat="43.697601437722575" lon="10.823162373989522"><ele>19.5</ele><time>2026-04-19T15:06:14Z</time></trkpt><trkpt lat="43.69756189908515" lon="10.823347051004358"><ele>19.25</ele><time>2026-04-19T15:06:15Z</time></trkpt><trkpt lat="43.69752342119061" lon="10.823544845862097"><ele>19.0</ele><time>2026-04-19T15:06:16Z</time></trkpt><trkpt lat="43.69748946656627" lon="10.823739365207192"><ele>19.0</ele><time>2026-04-19T15:06:17Z</time></trkpt><trkpt lat="43.697446776581714" lon="10.823931895101229"><ele>19.0</ele><time>2026-04-19T15:06:18Z</time></trkpt><trkpt lat="43.69740821352184" lon="10.824126232459694"><ele>19.0</ele><time>2026-04-19T15:06:19Z</time></trkpt><trkpt lat="43.6973703897568" lon="10.824325887442988"><ele>19.0</ele><time>2026-04-19T15:06:20Z</time></trkpt><trkpt lat="43.69733257058247" lon="10.82452590407637"><ele>18.666666666666664</ele><time>2026-04-19T15:06:21Z</time></trkpt><trkpt lat="43.6972935576595" lon="10.824730925299898"><ele>18.333333333333332</ele><time>2026-04-19T15:06:22Z</time></trkpt><trkpt lat="43.697254318222775" lon="10.824938837889036"><ele>18.0</ele><time>2026-04-19T15:06:23Z</time></trkpt><trkpt lat="43.69721302746728" lon="10.825149500128802"><ele>18.666666666666668</ele><time>2026-04-19T15:06:24Z</time></trkpt><trkpt lat="43.697171431410034" lon="10.825362285624504"><ele>19.333333333333336</ele><time>2026-04-19T15:06:25Z</time></trkpt><trkpt lat="43.69712745330263" lon="10.82557707361989"><ele>20.0</ele><time>2026-04-19T15:06:26Z</time></trkpt><trkpt lat="43.69708358053476" lon="10.82579461485942"><ele>20.333333333333336</ele><time>2026-04-19T15:06:27Z</time></trkpt><trkpt lat="43.69703897051068" lon="10.826013973827038"><ele>20.666666666666668</ele><time>2026-04-19T15:06:28Z</time></trkpt><trkpt lat="43.696994500305976" lon="10.826235658424872"><ele>21.0</ele><time>2026-04-19T15:06:29Z</time></trkpt><trkpt lat="43.69694962787944" lon="10.82646010424771"><ele>21.333333333333332</ele><time>2026-04-19T15:06:30Z</time></trkpt><trkpt lat="43.69690494107665" lon="10.82668563768704"><ele>21.666666666666664</ele><time>2026-04-19T15:06:31Z</time></trkpt><trkpt lat="43.696861813829734" lon="10.82691371435006"><ele>22.0</ele><time>2026-04-19T15:06:32Z</time></trkpt><trkpt lat="43.696819810631716" lon="10.827144722868676"><ele>22.0</ele><time>2026-04-19T15:06:33Z</time></trkpt><trkpt lat="43.69677836986954" lon="10.827380676438878"><ele>22.0</ele><time>2026-04-19T15:06:34Z</time></trkpt><trkpt lat="43.69674012847952" lon="10.827621532956362"><ele>22.0</ele><time>2026-04-19T15:06:35Z</time></trkpt><trkpt lat="43.696705605934355" lon="10.827867866513888"><ele>22.333333333333332</ele><time>2026-04-19T15:06:36Z</time></trkpt><trkpt lat="43.69667473754129" lon="10.828119036831927"><ele>22.666666666666668</ele><time>2026-04-19T15:06:37Z</time></trkpt><trkpt lat="43.69664796659897" lon="10.828375241785187"><ele>23.0</ele><time>2026-04-19T15:06:38Z</time></trkpt><trkpt lat="43.696627912473275" lon="10.828635765562979"><ele>23.0</ele><time>2026-04-19T15:06:39Z</time></trkpt><trkpt lat="43.69661106136004" lon="10.828900911969717"><ele>23.0</ele><time>2026-04-19T15:06:40Z</time></trkpt><trkpt lat="43.69660365058305" lon="10.829170239864046"><ele>23.0</ele><time>2026-04-19T15:06:41Z</time></trkpt><trkpt lat="43.696604563065165" lon="10.829444355071841"><ele>22.666666666666668</ele><time>2026-04-19T15:06:42Z</time></trkpt><trkpt lat="43.6966148526175" lon="10.82972148144079"><ele>22.333333333333332</ele><time>2026-04-19T15:06:43Z</time></trkpt><trkpt lat="43.69662587677859" lon="10.829999932039135"><ele>22.0</ele><time>2026-04-19T15:06:44Z</time></trkpt><trkpt lat="43.69664320899612" lon="10.830282057873735"><ele>21.666666666666664</ele><time>2026-04-19T15:06:45Z</time></trkpt><trkpt lat="43.6966638987271" lon="10.830569215709804"><ele>21.333333333333332</ele><time>2026-04-19T15:06:46Z</time></trkpt><trkpt lat="43.69669078415845" lon="10.830854570076779"><ele>21.0</ele><time>2026-04-19T15:06:47Z</time></trkpt><trkpt lat="43.69672753435469" lon="10.83114265675429"><ele>21.0</ele><time>2026-04-19T15:06:48Z</time></trkpt><trkpt lat="43.69676983682197" lon="10.831431489766384"><ele>21.0</ele><time>2026-04-19T15:06:49Z</time></trkpt><trkpt lat="43.696820225535554" lon="10.831710643564842"><ele>21.0</ele><time>2026-04-19T15:06:50Z</time></trkpt><trkpt lat="43.69687337869015" lon="10.831984933978799"><ele>21.666666666666668</ele><time>2026-04-19T15:06:51Z</time></trkpt><trkpt lat="43.69693628053996" lon="10.83225666592364"><ele>22.333333333333336</ele><time>2026-04-19T15:06:52Z</time></trkpt><trkpt lat="43.697005490768106" lon="10.83252950924936"><ele>23.0</ele><time>2026-04-19T15:06:53Z</time></trkpt><trkpt lat="43.697084276370816" lon="10.832800421584313"><ele>23.0</ele><time>2026-04-19T15:06:54Z</time></trkpt><trkpt lat="43.69717234558707" lon="10.833065837372061"><ele>23.0</ele><time>2026-04-19T15:06:55Z</time></trkpt><trkpt lat="43.69726471573286" lon="10.83332864413908"><ele>23.0</ele><time>2026-04-19T15:06:56Z</time></trkpt><trkpt lat="43.69736222743108" lon="10.833585766959432"><ele>23.0</ele><time>2026-04-19T15:06:57Z</time></trkpt><trkpt lat="43.69746634852951" lon="10.833837780173628"><ele>23.0</ele><time>2026-04-19T15:06:58Z</time></trkpt><trkpt lat="43.6975743157499" lon="10.83408520687859"><ele>23.0</ele><time>2026-04-19T15:06:59Z</time></trkpt><trkpt lat="43.69768646529993" lon="10.834329426099991"><ele>23.666666666666668</ele><time>2026-04-19T15:07:00Z</time></trkpt><trkpt lat="43.69780263734299" lon="10.834570135484729"><ele>24.333333333333336</ele><time>2026-04-19T15:07:01Z</time></trkpt><trkpt lat="43.6979231907461" lon="10.834807286986562"><ele>25.0</ele><time>2026-04-19T15:07:02Z</time></trkpt><trkpt lat="43.69804660882093" lon="10.835043454400587"><ele>24.0</ele><time>2026-04-19T15:07:03Z</time></trkpt><trkpt lat="43.69817045604305" lon="10.83527918817755"><ele>23.0</ele><time>2026-04-19T15:07:04Z</time></trkpt><trkpt lat="43.69829050737176" lon="10.835510743213904"><ele>22.0</ele><time>2026-04-19T15:07:05Z</time></trkpt><trkpt lat="43.698406741565684" lon="10.835739688284704"><ele>22.0</ele><time>2026-04-19T15:07:06Z</time></trkpt><trkpt lat="43.69852017984602" lon="10.835966101409419"><ele>22.0</ele><time>2026-04-19T15:07:07Z</time></trkpt><trkpt lat="43.69863455939227" lon="10.836192764721114"><ele>22.0</ele><time>2026-04-19T15:07:08Z</time></trkpt><trkpt lat="43.698750069924095" lon="10.836422369629977"><ele>22.0</ele><time>2026-04-19T15:07:09Z</time></trkpt><trkpt lat="43.69886615463034" lon="10.836658506148964"><ele>22.0</ele><time>2026-04-19T15:07:10Z</time></trkpt><trkpt lat="43.698984649563144" lon="10.836898392969418"><ele>22.0</ele><time>2026-04-19T15:07:11Z</time></trkpt><trkpt lat="43.6991040644429" lon="10.837139319375265"><ele>22.0</ele><time>2026-04-19T15:07:12Z</time></trkpt><trkpt lat="43.69922506625619" lon="10.837379204599713"><ele>22.0</ele><time>2026-04-19T15:07:13Z</time></trkpt><trkpt lat="43.69934757012303" lon="10.837616976150917"><ele>22.0</ele><time>2026-04-19T15:07:14Z</time></trkpt><trkpt lat="43.699469230900334" lon="10.837856476470897"><ele>22.0</ele><time>2026-04-19T15:07:15Z</time></trkpt><trkpt lat="43.69958969999573" lon="10.838096087815678"><ele>22.0</ele><time>2026-04-19T15:07:16Z</time></trkpt><trkpt lat="43.69970893830531" lon="10.838336433977377"><ele>22.0</ele><time>2026-04-19T15:07:17Z</time></trkpt><trkpt lat="43.69982759772324" lon="10.838577018544983"><ele>22.0</ele><time>2026-04-19T15:07:18Z</time></trkpt><trkpt lat="43.699945969647466" lon="10.838816278648194"><ele>22.0</ele><time>2026-04-19T15:07:19Z</time></trkpt><trkpt lat="43.70006497710335" lon="10.839054546181872"><ele>22.0</ele><time>2026-04-19T15:07:20Z</time></trkpt><trkpt lat="43.700182851936006" lon="10.839292923907946"><ele>21.333333333333332</ele><time>2026-04-19T15:07:21Z</time></trkpt><trkpt lat="43.70030134021395" lon="10.839529955354468"><ele>20.666666666666668</ele><time>2026-04-19T15:07:22Z</time></trkpt><trkpt lat="43.70041902121717" lon="10.839765905973314"><ele>20.0</ele><time>2026-04-19T15:07:23Z</time></trkpt><trkpt lat="43.70053625379633" lon="10.84000203820488"><ele>20.333333333333336</ele><time>2026-04-19T15:07:24Z</time></trkpt><trkpt lat="43.700652505839976" lon="10.840238738994461"><ele>20.666666666666668</ele><time>2026-04-19T15:07:25Z</time></trkpt><trkpt lat="43.70077064279173" lon="10.84047535787029"><ele>21.0</ele><time>2026-04-19T15:07:26Z</time></trkpt><trkpt lat="43.700890001089874" lon="10.840715755147562"><ele>21.0</ele><time>2026-04-19T15:07:27Z</time></trkpt><trkpt lat="43.70101089744524" lon="10.840962140880775"><ele>21.0</ele><time>2026-04-19T15:07:28Z</time></trkpt><trkpt lat="43.70113383710825" lon="10.841215791041021"><ele>21.0</ele><time>2026-04-19T15:07:29Z</time></trkpt><trkpt lat="43.70125458065701" lon="10.841475240103675"><ele>21.333333333333332</ele><time>2026-04-19T15:07:30Z</time></trkpt><trkpt lat="43.701371430558176" lon="10.841739301966427"><ele>21.666666666666664</ele><time>2026-04-19T15:07:31Z</time></trkpt><trkpt lat="43.70148228127932" lon="10.842005872867254"><ele>22.0</ele><time>2026-04-19T15:07:32Z</time></trkpt><trkpt lat="43.70159026585886" lon="10.842273310389942"><ele>22.0</ele><time>2026-04-19T15:07:33Z</time></trkpt><trkpt lat="43.70168815888435" lon="10.842545503557139"><ele>22.0</ele><time>2026-04-19T15:07:34Z</time></trkpt><trkpt lat="43.70177624514981" lon="10.842827230133052"><ele>22.0</ele><time>2026-04-19T15:07:35Z</time></trkpt><trkpt lat="43.70186206006712" lon="10.843117634873563"><ele>21.5</ele><time>2026-04-19T15:07:36Z</time></trkpt><trkpt lat="43.70194407788701" lon="10.843416670518364"><ele>21.0</ele><time>2026-04-19T15:07:37Z</time></trkpt><trkpt lat="43.70201575441071" lon="10.84372186053639"><ele>20.5</ele><time>2026-04-19T15:07:38Z</time></trkpt><trkpt lat="43.70207618206124" lon="10.84402945665556"><ele>20.0</ele><time>2026-04-19T15:07:39Z</time></trkpt><trkpt lat="43.70212927985128" lon="10.844338169771552"><ele>21.0</ele><time>2026-04-19T15:07:40Z</time></trkpt><trkpt lat="43.70217602579656" lon="10.844645773154229"><ele>22.0</ele><time>2026-04-19T15:07:41Z</time></trkpt><trkpt lat="43.70221871596562" lon="10.844954401782497"><ele>22.0</ele><time>2026-04-19T15:07:42Z</time></trkpt><trkpt lat="43.70225895430563" lon="10.845262751513845"><ele>22.0</ele><time>2026-04-19T15:07:43Z</time></trkpt><trkpt lat="43.70229630949443" lon="10.845572872115682"><ele>22.0</ele><time>2026-04-19T15:07:44Z</time></trkpt><trkpt lat="43.702334591958405" lon="10.845883526973903"><ele>22.0</ele><time>2026-04-19T15:07:45Z</time></trkpt><trkpt lat="43.702374221725734" lon="10.846193645601696"><ele>22.0</ele><time>2026-04-19T15:07:46Z</time></trkpt><trkpt lat="43.70241372734229" lon="10.84650427568008"><ele>22.0</ele><time>2026-04-19T15:07:47Z</time></trkpt><trkpt lat="43.70245406775863" lon="10.846813259973908"><ele>22.5</ele><time>2026-04-19T15:07:48Z</time></trkpt><trkpt lat="43.70249381852804" lon="10.847124069076314"><ele>23.0</ele><time>2026-04-19T15:07:49Z</time></trkpt><trkpt lat="43.702533847802414" lon="10.847435373278142"><ele>21.5</ele><time>2026-04-19T15:07:50Z</time></trkpt><trkpt lat="43.70257139412824" lon="10.84774592471942"><ele>20.0</ele><time>2026-04-19T15:07:51Z</time></trkpt><trkpt lat="43.70261003749589" lon="10.84805593876195"><ele>20.0</ele><time>2026-04-19T15:07:52Z</time></trkpt><trkpt lat="43.702648481078285" lon="10.848366735415642"><ele>20.0</ele><time>2026-04-19T15:07:53Z</time></trkpt><trkpt lat="43.70268786102498" lon="10.84867741531019"><ele>19.5</ele><time>2026-04-19T15:07:54Z</time></trkpt><trkpt lat="43.702725993032196" lon="10.84898755045009"><ele>19.0</ele><time>2026-04-19T15:07:55Z</time></trkpt><trkpt lat="43.702764037624284" lon="10.849297699332539"><ele>20.5</ele><time>2026-04-19T15:07:56Z</time></trkpt><trkpt lat="43.70280245144969" lon="10.84960800834431"><ele>22.0</ele><time>2026-04-19T15:07:57Z</time></trkpt><trkpt lat="43.70284230808239" lon="10.8499183118042"><ele>21.5</ele><time>2026-04-19T15:07:58Z</time></trkpt><trkpt lat="43.7028829678556" lon="10.85022874210234"><ele>21.0</ele><time>2026-04-19T15:07:59Z</time></trkpt><trkpt lat="43.70292312769154" lon="10.85053903280278"><ele>21.0</ele><time>2026-04-19T15:08:00Z</time></trkpt><trkpt lat="43.70296239611344" lon="10.850849832307881"><ele>21.0</ele><time>2026-04-19T15:08:01Z</time></trkpt><trkpt lat="43.70300158435336" lon="10.851159924696333"><ele>22.0</ele><time>2026-04-19T15:08:02Z</time></trkpt><trkpt lat="43.70304021848792" lon="10.851470361898455"><ele>23.0</ele><time>2026-04-19T15:08:03Z</time></trkpt><trkpt lat="43.70307918403959" lon="10.851781885691834"><ele>22.5</ele><time>2026-04-19T15:08:04Z</time></trkpt><trkpt lat="43.703118642046" lon="10.852091911613057"><ele>22.0</ele><time>2026-04-19T15:08:05Z</time></trkpt><trkpt lat="43.703158143665966" lon="10.852402096288879"><ele>22.0</ele><time>2026-04-19T15:08:06Z</time></trkpt><trkpt lat="43.70319797033021" lon="10.852712278352481"><ele>22.0</ele><time>2026-04-19T15:08:07Z</time></trkpt><trkpt lat="43.70323663447098" lon="10.853023224448092"><ele>22.0</ele><time>2026-04-19T15:08:08Z</time></trkpt><trkpt lat="43.703273793959774" lon="10.853333545176591"><ele>22.0</ele><time>2026-04-19T15:08:09Z</time></trkpt><trkpt lat="43.7033129812965" lon="10.853642086298011"><ele>21.0</ele><time>2026-04-19T15:08:10Z</time></trkpt><trkpt lat="43.703352187859096" lon="10.853952677747692"><ele>20.0</ele><time>2026-04-19T15:08:11Z</time></trkpt><trkpt lat="43.703391912668295" lon="10.854263513452414"><ele>21.0</ele><time>2026-04-19T15:08:12Z</time></trkpt><trkpt lat="43.7034315449683" lon="10.854573293408455"><ele>22.0</ele><time>2026-04-19T15:08:13Z</time></trkpt><trkpt lat="43.70346971298194" lon="10.854884243560354"><ele>22.5</ele><time>2026-04-19T15:08:14Z</time></trkpt><trkpt lat="43.703508115758474" lon="10.855194545563068"><ele>23.0</ele><time>2026-04-19T15:08:15Z</time></trkpt><trkpt lat="43.70354833590871" lon="10.855505377893573"><ele>22.5</ele><time>2026-04-19T15:08:16Z</time></trkpt><trkpt lat="43.70359041577859" lon="10.855815202752733"><ele>22.0</ele><time>2026-04-19T15:08:17Z</time></trkpt><trkpt lat="43.70363055214481" lon="10.85612537065172"><ele>21.5</ele><time>2026-04-19T15:08:18Z</time></trkpt><trkpt lat="43.703670976651445" lon="10.856435332831653"><ele>21.0</ele><time>2026-04-19T15:08:19Z</time></trkpt><trkpt lat="43.70371108437352" lon="10.856746008633872"><ele>21.5</ele><time>2026-04-19T15:08:20Z</time></trkpt><trkpt lat="43.70375090030468" lon="10.857055722856632"><ele>22.0</ele><time>2026-04-19T15:08:21Z</time></trkpt><trkpt lat="43.703790874651304" lon="10.85736597152561"><ele>22.0</ele><time>2026-04-19T15:08:22Z</time></trkpt><trkpt lat="43.70382979281657" lon="10.857673382279273"><ele>22.0</ele><time>2026-04-19T15:08:23Z</time></trkpt><trkpt lat="43.7038670491351" lon="10.857974430535126"><ele>22.0</ele><time>2026-04-19T15:08:24Z</time></trkpt><trkpt lat="43.70390250099644" lon="10.8582687266694"><ele>22.0</ele><time>2026-04-19T15:08:25Z</time></trkpt><trkpt lat="43.70393704440553" lon="10.858556916906116"><ele>22.0</ele><time>2026-04-19T15:08:26Z</time></trkpt><trkpt lat="43.70397248297218" lon="10.858839109996591"><ele>22.0</ele><time>2026-04-19T15:08:27Z</time></trkpt><trkpt lat="43.70400858212836" lon="10.859114498554709"><ele>21.666666666666664</ele><time>2026-04-19T15:08:28Z</time></trkpt><trkpt lat="43.704041713757206" lon="10.8593846913379"><ele>21.333333333333332</ele><time>2026-04-19T15:08:29Z</time></trkpt><trkpt lat="43.70407414870196" lon="10.859648917035551"><ele>21.0</ele><time>2026-04-19T15:08:30Z</time></trkpt><trkpt lat="43.70410403013472" lon="10.859908416746771"><ele>21.333333333333332</ele><time>2026-04-19T15:08:31Z</time></trkpt><trkpt lat="43.704131442276974" lon="10.860166371168445"><ele>21.666666666666664</ele><time>2026-04-19T15:08:32Z</time></trkpt><trkpt lat="43.70415504154718" lon="10.86042656668081"><ele>22.0</ele><time>2026-04-19T15:08:33Z</time></trkpt><trkpt lat="43.70417704473406" lon="10.8606938775908"><ele>22.0</ele><time>2026-04-19T15:08:34Z</time></trkpt><trkpt lat="43.70419599353331" lon="10.860967145810337"><ele>22.0</ele><time>2026-04-19T15:08:35Z</time></trkpt><trkpt lat="43.704211151733006" lon="10.861245152412657"><ele>22.0</ele><time>2026-04-19T15:08:36Z</time></trkpt><trkpt lat="43.704218967415024" lon="10.861516039280305"><ele>22.333333333333332</ele><time>2026-04-19T15:08:37Z</time></trkpt><trkpt lat="43.70422244938569" lon="10.861783065964756"><ele>22.666666666666668</ele><time>2026-04-19T15:08:38Z</time></trkpt><trkpt lat="43.7042235144965" lon="10.862043228104675"><ele>23.0</ele><time>2026-04-19T15:08:39Z</time></trkpt><trkpt lat="43.70422257529816" lon="10.862300900695558"><ele>23.0</ele><time>2026-04-19T15:08:40Z</time></trkpt><trkpt lat="43.7042158770596" lon="10.862562880734902"><ele>23.0</ele><time>2026-04-19T15:08:41Z</time></trkpt><trkpt lat="43.704204934543625" lon="10.862828485895559"><ele>23.0</ele><time>2026-04-19T15:08:42Z</time></trkpt><trkpt lat="43.704188026668135" lon="10.863101155302"><ele>22.666666666666668</ele><time>2026-04-19T15:08:43Z</time></trkpt><trkpt lat="43.70416606482107" lon="10.863380094476888"><ele>22.333333333333332</ele><time>2026-04-19T15:08:44Z</time></trkpt><trkpt lat="43.70413860113249" lon="10.863661631072668"><ele>22.0</ele><time>2026-04-19T15:08:45Z</time></trkpt><trkpt lat="43.70410625751452" lon="10.863934615194086"><ele>22.0</ele><time>2026-04-19T15:08:46Z</time></trkpt><trkpt lat="43.70407146061863" lon="10.864200032144511"><ele>22.0</ele><time>2026-04-19T15:08:47Z</time></trkpt><trkpt lat="43.70403589989234" lon="10.86445894387742"><ele>22.0</ele><time>2026-04-19T15:08:48Z</time></trkpt><trkpt lat="43.70400034939681" lon="10.864710875328832"><ele>22.0</ele><time>2026-04-19T15:08:49Z</time></trkpt><trkpt lat="43.703965021450145" lon="10.864958431174585"><ele>22.0</ele><time>2026-04-19T15:08:50Z</time></trkpt><trkpt lat="43.70393022706252" lon="10.86520024391284"><ele>22.0</ele><time>2026-04-19T15:08:51Z</time></trkpt><trkpt lat="43.7038949598045" lon="10.865437422858966"><ele>22.666666666666664</ele><time>2026-04-19T15:08:52Z</time></trkpt><trkpt lat="43.70385852796361" lon="10.865672937586142"><ele>23.333333333333332</ele><time>2026-04-19T15:08:53Z</time></trkpt><trkpt lat="43.70382000570323" lon="10.865911287168792"><ele>24.0</ele><time>2026-04-19T15:08:54Z</time></trkpt><trkpt lat="43.70378031279329" lon="10.866153466361197"><ele>24.0</ele><time>2026-04-19T15:08:55Z</time></trkpt><trkpt lat="43.703738781424725" lon="10.866400072404948"><ele>24.0</ele><time>2026-04-19T15:08:56Z</time></trkpt><trkpt lat="43.70369914425447" lon="10.866649758557521"><ele>24.0</ele><time>2026-04-19T15:08:57Z</time></trkpt><trkpt lat="43.70365966573359" lon="10.866899950259826"><ele>24.333333333333336</ele><time>2026-04-19T15:08:58Z</time></trkpt><trkpt lat="43.70362089483809" lon="10.867153047248337"><ele>24.666666666666668</ele><time>2026-04-19T15:08:59Z</time></trkpt><trkpt lat="43.70358359232884" lon="10.867407392956276"><ele>25.0</ele><time>2026-04-19T15:09:00Z</time></trkpt><trkpt lat="43.703547790050884" lon="10.867663911929661"><ele>24.666666666666668</ele><time>2026-04-19T15:09:01Z</time></trkpt><trkpt lat="43.703512259422126" lon="10.867922942343032"><ele>24.333333333333336</ele><time>2026-04-19T15:09:02Z</time></trkpt><trkpt lat="43.70347769666163" lon="10.868183491855106"><ele>24.0</ele><time>2026-04-19T15:09:03Z</time></trkpt><trkpt lat="43.703446571067715" lon="10.868445917207612"><ele>24.0</ele><time>2026-04-19T15:09:04Z</time></trkpt><trkpt lat="43.703422476311474" lon="10.868711058474503"><ele>24.0</ele><time>2026-04-19T15:09:05Z</time></trkpt><trkpt lat="43.70340624743075" lon="10.868977968463579"><ele>24.0</ele><time>2026-04-19T15:09:06Z</time></trkpt><trkpt lat="43.70339665604439" lon="10.869248700450335"><ele>24.333333333333336</ele><time>2026-04-19T15:09:07Z</time></trkpt><trkpt lat="43.70339300400041" lon="10.869520326746843"><ele>24.666666666666668</ele><time>2026-04-19T15:09:08Z</time></trkpt><trkpt lat="43.70339577621721" lon="10.869786572249618"><ele>25.0</ele><time>2026-04-19T15:09:09Z</time></trkpt><trkpt lat="43.70340338271634" lon="10.87004457748633"><ele>25.333333333333336</ele><time>2026-04-19T15:09:10Z</time></trkpt><trkpt lat="43.70341552171681" lon="10.87029666736424"><ele>25.666666666666664</ele><time>2026-04-19T15:09:11Z</time></trkpt><trkpt lat="43.70343422684379" lon="10.87054440551418"><ele>26.0</ele><time>2026-04-19T15:09:12Z</time></trkpt><trkpt lat="43.703456155682595" lon="10.87078648102234"><ele>25.333333333333332</ele><time>2026-04-19T15:09:13Z</time></trkpt><trkpt lat="43.70348028500959" lon="10.871024367982798"><ele>24.666666666666664</ele><time>2026-04-19T15:09:14Z</time></trkpt><trkpt lat="43.70350849338861" lon="10.87126120172807"><ele>24.0</ele><time>2026-04-19T15:09:15Z</time></trkpt><trkpt lat="43.70353762354569" lon="10.871494075832805"><ele>24.0</ele><time>2026-04-19T15:09:16Z</time></trkpt><trkpt lat="43.70356847857693" lon="10.871728205342116"><ele>24.0</ele><time>2026-04-19T15:09:17Z</time></trkpt><trkpt lat="43.70360097959244" lon="10.87196560768461"><ele>24.0</ele><time>2026-04-19T15:09:18Z</time></trkpt><trkpt lat="43.703632962158565" lon="10.872206927676787"><ele>24.333333333333336</ele><time>2026-04-19T15:09:19Z</time></trkpt><trkpt lat="43.70366494428369" lon="10.872451730559016"><ele>24.666666666666668</ele><time>2026-04-19T15:09:20Z</time></trkpt><trkpt lat="43.70369714246324" lon="10.872699836309586"><ele>25.0</ele><time>2026-04-19T15:09:21Z</time></trkpt><trkpt lat="43.70372892099956" lon="10.872949922939073"><ele>25.0</ele><time>2026-04-19T15:09:22Z</time></trkpt><trkpt lat="43.70376108201271" lon="10.873201415624044"><ele>25.0</ele><time>2026-04-19T15:09:23Z</time></trkpt><trkpt lat="43.7037947717123" lon="10.87345417577558"><ele>25.0</ele><time>2026-04-19T15:09:24Z</time></trkpt><trkpt lat="43.70382887988081" lon="10.873708973042415"><ele>24.333333333333336</ele><time>2026-04-19T15:09:25Z</time></trkpt><trkpt lat="43.703863160123596" lon="10.873965245701795"><ele>23.666666666666668</ele><time>2026-04-19T15:09:26Z</time></trkpt><trkpt lat="43.70389672476897" lon="10.874225082310595"><ele>23.0</ele><time>2026-04-19T15:09:27Z</time></trkpt><trkpt lat="43.70393030402776" lon="10.874487026921308"><ele>22.666666666666668</ele><time>2026-04-19T15:09:28Z</time></trkpt><trkpt lat="43.703963504683124" lon="10.874752634419359"><ele>22.333333333333332</ele><time>2026-04-19T15:09:29Z</time></trkpt><trkpt lat="43.70399801996283" lon="10.875018518044836"><ele>22.0</ele><time>2026-04-19T15:09:30Z</time></trkpt><trkpt lat="43.704034362279906" lon="10.875284084335183"><ele>22.333333333333332</ele><time>2026-04-19T15:09:31Z</time></trkpt><trkpt lat="43.704069147525246" lon="10.875550052798863"><ele>22.666666666666668</ele><time>2026-04-19T15:09:32Z</time></trkpt><trkpt lat="43.70410388955207" lon="10.875814521683672"><ele>23.0</ele><time>2026-04-19T15:09:33Z</time></trkpt><trkpt lat="43.70413890666355" lon="10.876081021109256"><ele>23.0</ele><time>2026-04-19T15:09:34Z</time></trkpt><trkpt lat="43.70417339385701" lon="10.876348129686342"><ele>23.0</ele><time>2026-04-19T15:09:35Z</time></trkpt><trkpt lat="43.70420821639951" lon="10.876615066972771"><ele>23.0</ele><time>2026-04-19T15:09:36Z</time></trkpt><trkpt lat="43.70424328892714" lon="10.876882810296712"><ele>23.333333333333336</ele><time>2026-04-19T15:09:37Z</time></trkpt><trkpt lat="43.704278753059654" lon="10.877150744454458"><ele>23.666666666666668</ele><time>2026-04-19T15:09:38Z</time></trkpt><trkpt lat="43.70431514025214" lon="10.877418724077785"><ele>24.0</ele><time>2026-04-19T15:09:39Z</time></trkpt><trkpt lat="43.704351187578844" lon="10.877686968155535"><ele>24.0</ele><time>2026-04-19T15:09:40Z</time></trkpt><trkpt lat="43.704385979836275" lon="10.877957793150165"><ele>24.0</ele><time>2026-04-19T15:09:41Z</time></trkpt><trkpt lat="43.70442088693377" lon="10.878230757713213"><ele>24.0</ele><time>2026-04-19T15:09:42Z</time></trkpt><trkpt lat="43.70445689356962" lon="10.878506040679955"><ele>24.0</ele><time>2026-04-19T15:09:43Z</time></trkpt><trkpt lat="43.704494161670574" lon="10.87878363639716"><ele>24.0</ele><time>2026-04-19T15:09:44Z</time></trkpt><trkpt lat="43.70453037863179" lon="10.879064837486501"><ele>24.0</ele><time>2026-04-19T15:09:45Z</time></trkpt><trkpt lat="43.704567556378066" lon="10.879350542868343"><ele>24.0</ele><time>2026-04-19T15:09:46Z</time></trkpt><trkpt lat="43.7046048616856" lon="10.879638409690694"><ele>24.0</ele><time>2026-04-19T15:09:47Z</time></trkpt><trkpt lat="43.7046419674166" lon="10.879927474010955"><ele>24.0</ele><time>2026-04-19T15:09:48Z</time></trkpt><trkpt lat="43.70467929412014" lon="10.880219522615054"><ele>24.333333333333336</ele><time>2026-04-19T15:09:49Z</time></trkpt><trkpt lat="43.70471656684562" lon="10.880513649452462"><ele>24.666666666666668</ele><time>2026-04-19T15:09:50Z</time></trkpt><trkpt lat="43.704755211258316" lon="10.880810597218503"><ele>25.0</ele><time>2026-04-19T15:09:51Z</time></trkpt><trkpt lat="43.704793528906464" lon="10.881107784225843"><ele>24.666666666666668</ele><time>2026-04-19T15:09:52Z</time></trkpt><trkpt lat="43.70483283973158" lon="10.881404569634482"><ele>24.333333333333336</ele><time>2026-04-19T15:09:53Z</time></trkpt><trkpt lat="43.704872516503016" lon="10.881701818505412"><ele>24.0</ele><time>2026-04-19T15:09:54Z</time></trkpt><trkpt lat="43.7049124652692" lon="10.881998280044707"><ele>24.0</ele><time>2026-04-19T15:09:55Z</time></trkpt><trkpt lat="43.70495199921148" lon="10.882294242288024"><ele>24.0</ele><time>2026-04-19T15:09:56Z</time></trkpt><trkpt lat="43.70499112106238" lon="10.882588782330437"><ele>24.0</ele><time>2026-04-19T15:09:57Z</time></trkpt><trkpt lat="43.705029574075645" lon="10.882882128452254"><ele>24.333333333333336</ele><time>2026-04-19T15:09:58Z</time></trkpt><trkpt lat="43.70506916901962" lon="10.883173179376483"><ele>24.666666666666668</ele><time>2026-04-19T15:09:59Z</time></trkpt><trkpt lat="43.70510909224899" lon="10.883464523016396"><ele>25.0</ele><time>2026-04-19T15:10:00Z</time></trkpt><trkpt lat="43.70514869723351" lon="10.883754270985378"><ele>25.0</ele><time>2026-04-19T15:10:01Z</time></trkpt><trkpt lat="43.70518686403928" lon="10.884044466272485"><ele>25.0</ele><time>2026-04-19T15:10:02Z</time></trkpt><trkpt lat="43.7052251746784" lon="10.884336665090252"><ele>25.0</ele><time>2026-04-19T15:10:03Z</time></trkpt><trkpt lat="43.705262887995985" lon="10.884629976947549"><ele>25.0</ele><time>2026-04-19T15:10:04Z</time></trkpt><trkpt lat="43.70530046442352" lon="10.884923131912688"><ele>25.0</ele><time>2026-04-19T15:10:05Z</time></trkpt><trkpt lat="43.70533803325109" lon="10.8852133157612"><ele>25.0</ele><time>2026-04-19T15:10:06Z</time></trkpt><trkpt lat="43.705375911291334" lon="10.885495697937603"><ele>25.333333333333336</ele><time>2026-04-19T15:10:07Z</time></trkpt><trkpt lat="43.70541618817276" lon="10.885770311070452"><ele>25.666666666666664</ele><time>2026-04-19T15:10:08Z</time></trkpt><trkpt lat="43.70546028954981" lon="10.886041178483547"><ele>26.0</ele><time>2026-04-19T15:10:09Z</time></trkpt><trkpt lat="43.7055065553934" lon="10.886308065775236"><ele>26.666666666666664</ele><time>2026-04-19T15:10:10Z</time></trkpt><trkpt lat="43.70555423425344" lon="10.886571783116944"><ele>27.333333333333336</ele><time>2026-04-19T15:10:11Z</time></trkpt><trkpt lat="43.70560223867446" lon="10.886831297488824"><ele>28.0</ele><time>2026-04-19T15:10:12Z</time></trkpt><trkpt lat="43.705652581452426" lon="10.887091200924845"><ele>28.0</ele><time>2026-04-19T15:10:13Z</time></trkpt><trkpt lat="43.70570533515874" lon="10.88735230402397"><ele>28.0</ele><time>2026-04-19T15:10:14Z</time></trkpt><trkpt lat="43.70575887770367" lon="10.887615229332807"><ele>28.0</ele><time>2026-04-19T15:10:15Z</time></trkpt><trkpt lat="43.70581338950475" lon="10.887880695224094"><ele>27.666666666666668</ele><time>2026-04-19T15:10:16Z</time></trkpt><trkpt lat="43.705870123031886" lon="10.888148494954182"><ele>27.333333333333336</ele><time>2026-04-19T15:10:17Z</time></trkpt><trkpt lat="43.70592724186289" lon="10.888416304720726"><ele>27.0</ele><time>2026-04-19T15:10:18Z</time></trkpt><trkpt lat="43.70598594418236" lon="10.888685782789558"><ele>26.666666666666664</ele><time>2026-04-19T15:10:19Z</time></trkpt><trkpt lat="43.70604736537156" lon="10.888956327173851"><ele>26.333333333333332</ele><time>2026-04-19T15:10:20Z</time></trkpt><trkpt lat="43.7061094478083" lon="10.88922666653358"><ele>26.0</ele><time>2026-04-19T15:10:21Z</time></trkpt><trkpt lat="43.70617090115199" lon="10.889495300452932"><ele>24.666666666666664</ele><time>2026-04-19T15:10:22Z</time></trkpt><trkpt lat="43.70623103298643" lon="10.889761890505353"><ele>23.333333333333332</ele><time>2026-04-19T15:10:23Z</time></trkpt><trkpt lat="43.7062906849827" lon="10.890028612494419"><ele>22.0</ele><time>2026-04-19T15:10:24Z</time></trkpt><trkpt lat="43.70634929822499" lon="10.890294067581523"><ele>22.0</ele><time>2026-04-19T15:10:25Z</time></trkpt><trkpt lat="43.706407146021874" lon="10.890555052806663"><ele>22.0</ele><time>2026-04-19T15:10:26Z</time></trkpt><trkpt lat="43.70646518846574" lon="10.890811592590179"><ele>22.0</ele><time>2026-04-19T15:10:27Z</time></trkpt><trkpt lat="43.70652186936464" lon="10.891061392089513"><ele>23.0</ele><time>2026-04-19T15:10:28Z</time></trkpt><trkpt lat="43.706578358410646" lon="10.891309184488108"><ele>24.0</ele><time>2026-04-19T15:10:29Z</time></trkpt><trkpt lat="43.70663369643908" lon="10.89155198375896"><ele>25.0</ele><time>2026-04-19T15:10:30Z</time></trkpt><trkpt lat="43.706687506583656" lon="10.89179194117545"><ele>25.333333333333336</ele><time>2026-04-19T15:10:31Z</time></trkpt><trkpt lat="43.70673950487655" lon="10.892026860998241"><ele>25.666666666666664</ele><time>2026-04-19T15:10:32Z</time></trkpt><trkpt lat="43.70679051012468" lon="10.892263844305464"><ele>26.0</ele><time>2026-04-19T15:10:33Z</time></trkpt><trkpt lat="43.70684146389369" lon="10.892504842465781"><ele>26.0</ele><time>2026-04-19T15:10:34Z</time></trkpt><trkpt lat="43.706894361020574" lon="10.892749297874161"><ele>26.0</ele><time>2026-04-19T15:10:35Z</time></trkpt><trkpt lat="43.70695036511965" lon="10.89299981470687"><ele>26.0</ele><time>2026-04-19T15:10:36Z</time></trkpt><trkpt lat="43.70700668883297" lon="10.893254817960566"><ele>26.0</ele><time>2026-04-19T15:10:37Z</time></trkpt><trkpt lat="43.707064011962146" lon="10.893514167144266"><ele>26.0</ele><time>2026-04-19T15:10:38Z</time></trkpt><trkpt lat="43.707121363770476" lon="10.893775663076699"><ele>26.0</ele><time>2026-04-19T15:10:39Z</time></trkpt><trkpt lat="43.70717938447146" lon="10.894039860135035"><ele>26.0</ele><time>2026-04-19T15:10:40Z</time></trkpt><trkpt lat="43.70723682211677" lon="10.894306820945628"><ele>26.0</ele><time>2026-04-19T15:10:41Z</time></trkpt><trkpt lat="43.707295438976885" lon="10.89457598293141"><ele>26.0</ele><time>2026-04-19T15:10:42Z</time></trkpt><trkpt lat="43.7073572614164" lon="10.894845522985785"><ele>25.333333333333332</ele><time>2026-04-19T15:10:43Z</time></trkpt><trkpt lat="43.707419315297344" lon="10.895116803282919"><ele>24.666666666666664</ele><time>2026-04-19T15:10:44Z</time></trkpt><trkpt lat="43.707480444527164" lon="10.895386896125846"><ele>24.0</ele><time>2026-04-19T15:10:45Z</time></trkpt><trkpt lat="43.707539072769364" lon="10.89565103468132"><ele>24.0</ele><time>2026-04-19T15:10:46Z</time></trkpt><trkpt lat="43.70759932975097" lon="10.895914934021281"><ele>24.0</ele><time>2026-04-19T15:10:47Z</time></trkpt><trkpt lat="43.70765739546849" lon="10.896181479820576"><ele>24.0</ele><time>2026-04-19T15:10:48Z</time></trkpt><trkpt lat="43.70771667272838" lon="10.896447130702892"><ele>24.0</ele><time>2026-04-19T15:10:49Z</time></trkpt><trkpt lat="43.707777852684714" lon="10.896713466537664"><ele>24.0</ele><time>2026-04-19T15:10:50Z</time></trkpt><trkpt lat="43.70783942759946" lon="10.896980066838497"><ele>24.0</ele><time>2026-04-19T15:10:51Z</time></trkpt><trkpt lat="43.70789995435911" lon="10.897248585495708"><ele>24.0</ele><time>2026-04-19T15:10:52Z</time></trkpt><trkpt lat="43.70795961669273" lon="10.897516071487084"><ele>24.0</ele><time>2026-04-19T15:10:53Z</time></trkpt><trkpt lat="43.70802020080166" lon="10.89778519749188"><ele>24.0</ele><time>2026-04-19T15:10:54Z</time></trkpt><trkpt lat="43.7080813475049" lon="10.898055780577051"><ele>24.0</ele><time>2026-04-19T15:10:55Z</time></trkpt><trkpt lat="43.70814167032865" lon="10.89832613519353"><ele>24.0</ele><time>2026-04-19T15:10:56Z</time></trkpt><trkpt lat="43.7081988288827" lon="10.898594304594692"><ele>24.0</ele><time>2026-04-19T15:10:57Z</time></trkpt><trkpt lat="43.708252683816596" lon="10.89886116543777"><ele>24.0</ele><time>2026-04-19T15:10:58Z</time></trkpt><trkpt lat="43.70830871620482" lon="10.899124015589392"><ele>24.0</ele><time>2026-04-19T15:10:59Z</time></trkpt><trkpt lat="43.708367314377874" lon="10.899383450764107"><ele>24.0</ele><time>2026-04-19T15:11:00Z</time></trkpt><trkpt lat="43.70842575443572" lon="10.89964167446284"><ele>24.0</ele><time>2026-04-19T15:11:01Z</time></trkpt><trkpt lat="43.70848440082265" lon="10.899901091525724"><ele>24.0</ele><time>2026-04-19T15:11:02Z</time></trkpt><trkpt lat="43.708543018858435" lon="10.900160179386573"><ele>24.0</ele><time>2026-04-19T15:11:03Z</time></trkpt><trkpt lat="43.708601482523704" lon="10.900415711772661"><ele>24.0</ele><time>2026-04-19T15:11:04Z</time></trkpt><trkpt lat="43.70865841209727" lon="10.900671740485384"><ele>24.0</ele><time>2026-04-19T15:11:05Z</time></trkpt><trkpt lat="43.70871417273598" lon="10.90092923580291"><ele>24.0</ele><time>2026-04-19T15:11:06Z</time></trkpt><trkpt lat="43.70877079749514" lon="10.901190899167396"><ele>24.0</ele><time>2026-04-19T15:11:07Z</time></trkpt><trkpt lat="43.70882756530212" lon="10.90145292293625"><ele>24.0</ele><time>2026-04-19T15:11:08Z</time></trkpt><trkpt lat="43.7088853450834" lon="10.901714552021124"><ele>24.0</ele><time>2026-04-19T15:11:09Z</time></trkpt><trkpt lat="43.70894374120125" lon="10.901977781882488"><ele>24.0</ele><time>2026-04-19T15:11:10Z</time></trkpt><trkpt lat="43.7090014845597" lon="10.902241289651982"><ele>24.0</ele><time>2026-04-19T15:11:11Z</time></trkpt><trkpt lat="43.709062198976866" lon="10.90250513141445"><ele>24.0</ele><time>2026-04-19T15:11:12Z</time></trkpt><trkpt lat="43.709121434174584" lon="10.902770780212254"><ele>24.0</ele><time>2026-04-19T15:11:13Z</time></trkpt><trkpt lat="43.70917997346797" lon="10.903038829974143"><ele>24.0</ele><time>2026-04-19T15:11:14Z</time></trkpt><trkpt lat="43.709240041220305" lon="10.903310748247145"><ele>24.0</ele><time>2026-04-19T15:11:15Z</time></trkpt><trkpt lat="43.709301775965756" lon="10.903587300865283"><ele>23.666666666666668</ele><time>2026-04-19T15:11:16Z</time></trkpt><trkpt lat="43.70936158586149" lon="10.903864383562082"><ele>23.333333333333336</ele><time>2026-04-19T15:11:17Z</time></trkpt><trkpt lat="43.70942455608795" lon="10.904144426460524"><ele>23.0</ele><time>2026-04-19T15:11:18Z</time></trkpt><trkpt lat="43.70948760031921" lon="10.904421182188095"><ele>23.0</ele><time>2026-04-19T15:11:19Z</time></trkpt><trkpt lat="43.70955143929718" lon="10.904698257841625"><ele>23.0</ele><time>2026-04-19T15:11:20Z</time></trkpt><trkpt lat="43.70961657557735" lon="10.904974963745268"><ele>23.0</ele><time>2026-04-19T15:11:21Z</time></trkpt><trkpt lat="43.709679810820596" lon="10.905252243340986"><ele>23.666666666666668</ele><time>2026-04-19T15:11:22Z</time></trkpt><trkpt lat="43.70973984219439" lon="10.905530327609211"><ele>24.333333333333336</ele><time>2026-04-19T15:11:23Z</time></trkpt><trkpt lat="43.70979530919803" lon="10.905808344247404"><ele>25.0</ele><time>2026-04-19T15:11:24Z</time></trkpt><trkpt lat="43.709856391548996" lon="10.90608135181358"><ele>25.0</ele><time>2026-04-19T15:11:25Z</time></trkpt><trkpt lat="43.70991542577614" lon="10.906350599931722"><ele>25.0</ele><time>2026-04-19T15:11:26Z</time></trkpt><trkpt lat="43.709973025234504" lon="10.906616407792598"><ele>25.0</ele><time>2026-04-19T15:11:27Z</time></trkpt><trkpt lat="43.710032652962326" lon="10.90687711413466"><ele>24.666666666666668</ele><time>2026-04-19T15:11:28Z</time></trkpt><trkpt lat="43.71009138380925" lon="10.907136859345693"><ele>24.333333333333336</ele><time>2026-04-19T15:11:29Z</time></trkpt><trkpt lat="43.71014999845319" lon="10.907393176924861"><ele>24.0</ele><time>2026-04-19T15:11:30Z</time></trkpt><trkpt lat="43.710206207736924" lon="10.907646171530427"><ele>23.666666666666668</ele><time>2026-04-19T15:11:31Z</time></trkpt><trkpt lat="43.71026220438202" lon="10.90789789699132"><ele>23.333333333333336</ele><time>2026-04-19T15:11:32Z</time></trkpt><trkpt lat="43.71031353327135" lon="10.90815244502983"><ele>23.0</ele><time>2026-04-19T15:11:33Z</time></trkpt><trkpt lat="43.71035396314847" lon="10.908410388502542"><ele>23.0</ele><time>2026-04-19T15:11:34Z</time></trkpt><trkpt lat="43.71039207135017" lon="10.908671619038714"><ele>23.0</ele><time>2026-04-19T15:11:35Z</time></trkpt><trkpt lat="43.71042112467407" lon="10.908935989316516"><ele>23.0</ele><time>2026-04-19T15:11:36Z</time></trkpt><trkpt lat="43.71044432729926" lon="10.909200843237869"><ele>23.666666666666668</ele><time>2026-04-19T15:11:37Z</time></trkpt><trkpt lat="43.71045911927465" lon="10.909467973424336"><ele>24.333333333333336</ele><time>2026-04-19T15:11:38Z</time></trkpt><trkpt lat="43.710465563765446" lon="10.90973753576988"><ele>25.0</ele><time>2026-04-19T15:11:39Z</time></trkpt><trkpt lat="43.71046605610154" lon="10.910008670556453"><ele>25.333333333333336</ele><time>2026-04-19T15:11:40Z</time></trkpt><trkpt lat="43.71046224562817" lon="10.91028012321831"><ele>25.666666666666664</ele><time>2026-04-19T15:11:41Z</time></trkpt><trkpt lat="43.71045197955774" lon="10.910553557787864"><ele>26.0</ele><time>2026-04-19T15:11:42Z</time></trkpt><trkpt lat="43.71043282307758" lon="10.910826040311466"><ele>25.666666666666664</ele><time>2026-04-19T15:11:43Z</time></trkpt><trkpt lat="43.71040390165676" lon="10.91109531128712"><ele>25.333333333333336</ele><time>2026-04-19T15:11:44Z</time></trkpt><trkpt lat="43.71036639520259" lon="10.91136629555013"><ele>25.0</ele><time>2026-04-19T15:11:45Z</time></trkpt><trkpt lat="43.710321814769415" lon="10.911635033126817"><ele>24.666666666666668</ele><time>2026-04-19T15:11:46Z</time></trkpt><trkpt lat="43.71027134150134" lon="10.911899653873624"><ele>24.333333333333336</ele><time>2026-04-19T15:11:47Z</time></trkpt><trkpt lat="43.710216229660745" lon="10.912160545238297"><ele>24.0</ele><time>2026-04-19T15:11:48Z</time></trkpt><trkpt lat="43.71015663563685" lon="10.912417212557862"><ele>24.666666666666664</ele><time>2026-04-19T15:11:49Z</time></trkpt><trkpt lat="43.71008886359445" lon="10.912670741676846"><ele>25.333333333333332</ele><time>2026-04-19T15:11:50Z</time></trkpt><trkpt lat="43.71001518664288" lon="10.912922106695163"><ele>26.0</ele><time>2026-04-19T15:11:51Z</time></trkpt><trkpt lat="43.7099327721503" lon="10.913169665747025"><ele>25.333333333333332</ele><time>2026-04-19T15:11:52Z</time></trkpt><trkpt lat="43.70984326904372" lon="10.913413040998126"><ele>24.666666666666664</ele><time>2026-04-19T15:11:53Z</time></trkpt><trkpt lat="43.70974771171694" lon="10.913641878966342"><ele>24.0</ele><time>2026-04-19T15:11:54Z</time></trkpt><trkpt lat="43.70965145512037" lon="10.913859006133631"><ele>24.0</ele><time>2026-04-19T15:11:55Z</time></trkpt><trkpt lat="43.70955886459772" lon="10.914066622874257"><ele>24.0</ele><time>2026-04-19T15:11:56Z</time></trkpt><trkpt lat="43.70947017073266" lon="10.914268488414422"><ele>24.0</ele><time>2026-04-19T15:11:57Z</time></trkpt><trkpt lat="43.70938289236943" lon="10.914463392787065"><ele>24.666666666666664</ele><time>2026-04-19T15:11:58Z</time></trkpt><trkpt lat="43.709298347877365" lon="10.914653396213113"><ele>25.333333333333332</ele><time>2026-04-19T15:11:59Z</time></trkpt><trkpt lat="43.70921453251673" lon="10.914843752603701"><ele>26.0</ele><time>2026-04-19T15:12:00Z</time></trkpt><trkpt lat="43.7091322980066" lon="10.915037095693966"><ele>25.666666666666664</ele><time>2026-04-19T15:12:01Z</time></trkpt><trkpt lat="43.709045315101505" lon="10.915236174124955"><ele>25.333333333333336</ele><time>2026-04-19T15:12:02Z</time></trkpt><trkpt lat="43.70895674479278" lon="10.91543951080517"><ele>25.0</ele><time>2026-04-19T15:12:03Z</time></trkpt><trkpt lat="43.70886477945579" lon="10.915650774338731"><ele>25.0</ele><time>2026-04-19T15:12:04Z</time></trkpt><trkpt lat="43.70876999944532" lon="10.915870005695615"><ele>25.0</ele><time>2026-04-19T15:12:05Z</time></trkpt><trkpt lat="43.70867733245538" lon="10.916087251632165"><ele>25.0</ele><time>2026-04-19T15:12:06Z</time></trkpt><trkpt lat="43.70858704083691" lon="10.916301855931074"><ele>25.0</ele><time>2026-04-19T15:12:07Z</time></trkpt><trkpt lat="43.70850353576704" lon="10.916517334627708"><ele>25.0</ele><time>2026-04-19T15:12:08Z</time></trkpt><trkpt lat="43.70842778195125" lon="10.916733290800781"><ele>25.0</ele><time>2026-04-19T15:12:09Z</time></trkpt><trkpt lat="43.708359752586325" lon="10.916953251861026"><ele>25.0</ele><time>2026-04-19T15:12:10Z</time></trkpt><trkpt lat="43.70829700984145" lon="10.917172994285261"><ele>25.0</ele><time>2026-04-19T15:12:11Z</time></trkpt><trkpt lat="43.70824032826503" lon="10.91739738735764"><ele>25.0</ele><time>2026-04-19T15:12:12Z</time></trkpt><trkpt lat="43.708192317039966" lon="10.917619817314714"><ele>24.666666666666668</ele><time>2026-04-19T15:12:13Z</time></trkpt><trkpt lat="43.708150460121146" lon="10.917842396017113"><ele>24.333333333333336</ele><time>2026-04-19T15:12:14Z</time></trkpt><trkpt lat="43.70811345805497" lon="10.91806587409308"><ele>24.0</ele><time>2026-04-19T15:12:15Z</time></trkpt><trkpt lat="43.708082313185365" lon="10.918292026382629"><ele>24.0</ele><time>2026-04-19T15:12:16Z</time></trkpt><trkpt lat="43.70805829619326" lon="10.91852214612816"><ele>24.0</ele><time>2026-04-19T15:12:17Z</time></trkpt><trkpt lat="43.70804026767158" lon="10.918757065700488"><ele>24.0</ele><time>2026-04-19T15:12:18Z</time></trkpt><trkpt lat="43.708029122212075" lon="10.918992942287796"><ele>24.0</ele><time>2026-04-19T15:12:19Z</time></trkpt><trkpt lat="43.70802525391828" lon="10.919232414010681"><ele>24.0</ele><time>2026-04-19T15:12:20Z</time></trkpt><trkpt lat="43.70802804016655" lon="10.919472197578548"><ele>24.0</ele><time>2026-04-19T15:12:21Z</time></trkpt><trkpt lat="43.708037023922635" lon="10.91971560224243"><ele>23.666666666666668</ele><time>2026-04-19T15:12:22Z</time></trkpt><trkpt lat="43.70805276633352" lon="10.919962347035947"><ele>23.333333333333336</ele><time>2026-04-19T15:12:23Z</time></trkpt><trkpt lat="43.708072878235846" lon="10.920212599544866"><ele>23.0</ele><time>2026-04-19T15:12:24Z</time></trkpt><trkpt lat="43.70809695622678" lon="10.920464798129489"><ele>23.0</ele><time>2026-04-19T15:12:25Z</time></trkpt><trkpt lat="43.708122730683975" lon="10.92071983564675"><ele>23.0</ele><time>2026-04-19T15:12:26Z</time></trkpt><trkpt lat="43.70814808066345" lon="10.920978449801765"><ele>23.0</ele><time>2026-04-19T15:12:27Z</time></trkpt><trkpt lat="43.708172343439976" lon="10.921238772999361"><ele>23.333333333333336</ele><time>2026-04-19T15:12:28Z</time></trkpt><trkpt lat="43.708197301855684" lon="10.921502244458036"><ele>23.666666666666668</ele><time>2026-04-19T15:12:29Z</time></trkpt><trkpt lat="43.70822198625162" lon="10.921767565839637"><ele>24.0</ele><time>2026-04-19T15:12:30Z</time></trkpt><trkpt lat="43.708246655419224" lon="10.922035038061388"><ele>24.0</ele><time>2026-04-19T15:12:31Z</time></trkpt><trkpt lat="43.708272946993375" lon="10.922301557417425"><ele>24.0</ele><time>2026-04-19T15:12:32Z</time></trkpt><trkpt lat="43.708297459644626" lon="10.922567908820934"><ele>24.0</ele><time>2026-04-19T15:12:33Z</time></trkpt><trkpt lat="43.70832203396408" lon="10.922833632287238"><ele>24.333333333333336</ele><time>2026-04-19T15:12:34Z</time></trkpt><trkpt lat="43.70834546212004" lon="10.923099894973957"><ele>24.666666666666668</ele><time>2026-04-19T15:12:35Z</time></trkpt><trkpt lat="43.708366325277346" lon="10.923366171177697"><ele>25.0</ele><time>2026-04-19T15:12:36Z</time></trkpt><trkpt lat="43.7083871431329" lon="10.923631328156544"><ele>25.0</ele><time>2026-04-19T15:12:37Z</time></trkpt><trkpt lat="43.70840659537496" lon="10.923898549335608"><ele>25.0</ele><time>2026-04-19T15:12:38Z</time></trkpt><trkpt lat="43.708424938181196" lon="10.924165453311826"><ele>25.0</ele><time>2026-04-19T15:12:39Z</time></trkpt><trkpt lat="43.70844040863598" lon="10.924431938002712"><ele>25.0</ele><time>2026-04-19T15:12:40Z</time></trkpt><trkpt lat="43.70845263258646" lon="10.924698566419298"><ele>25.0</ele><time>2026-04-19T15:12:41Z</time></trkpt><trkpt lat="43.70846166190665" lon="10.92496347929428"><ele>25.0</ele><time>2026-04-19T15:12:42Z</time></trkpt><trkpt lat="43.70847035745474" lon="10.925229013358711"><ele>25.0</ele><time>2026-04-19T15:12:43Z</time></trkpt><trkpt lat="43.70847644985727" lon="10.925494562234071"><ele>25.0</ele><time>2026-04-19T15:12:44Z</time></trkpt><trkpt lat="43.70848231016472" lon="10.925759356328857"><ele>25.0</ele><time>2026-04-19T15:12:45Z</time></trkpt><trkpt lat="43.70848900620094" lon="10.926020693524556"><ele>25.0</ele><time>2026-04-19T15:12:46Z</time></trkpt><trkpt lat="43.70849675311786" lon="10.926284647861504"><ele>25.0</ele><time>2026-04-19T15:12:47Z</time></trkpt><trkpt lat="43.708505143259295" lon="10.926546716347975"><ele>25.0</ele><time>2026-04-19T15:12:48Z</time></trkpt><trkpt lat="43.70851386994345" lon="10.926809395895894"><ele>25.0</ele><time>2026-04-19T15:12:49Z</time></trkpt><trkpt lat="43.70852436380776" lon="10.927071560308855"><ele>25.0</ele><time>2026-04-19T15:12:50Z</time></trkpt><trkpt lat="43.708533878137985" lon="10.927328542776923"><ele>25.0</ele><time>2026-04-19T15:12:51Z</time></trkpt><trkpt lat="43.70854417802909" lon="10.927590726580735"><ele>25.0</ele><time>2026-04-19T15:12:52Z</time></trkpt><trkpt lat="43.708552982276814" lon="10.927851961877169"><ele>25.0</ele><time>2026-04-19T15:12:53Z</time></trkpt><trkpt lat="43.70855870164027" lon="10.928112507268523"><ele>25.0</ele><time>2026-04-19T15:12:54Z</time></trkpt><trkpt lat="43.70856550105166" lon="10.928373771305848"><ele>25.0</ele><time>2026-04-19T15:12:55Z</time></trkpt><trkpt lat="43.70857402026236" lon="10.928633768153544"><ele>25.0</ele><time>2026-04-19T15:12:56Z</time></trkpt><trkpt lat="43.70858297128071" lon="10.92889360139908"><ele>25.0</ele><time>2026-04-19T15:12:57Z</time></trkpt><trkpt lat="43.70859144526298" lon="10.929151577141905"><ele>24.333333333333336</ele><time>2026-04-19T15:12:58Z</time></trkpt><trkpt lat="43.70859934082579" lon="10.929402523264176"><ele>23.666666666666668</ele><time>2026-04-19T15:12:59Z</time></trkpt><trkpt lat="43.70860672962083" lon="10.929648161460655"><ele>23.0</ele><time>2026-04-19T15:13:00Z</time></trkpt><trkpt lat="43.70861484990228" lon="10.929890474532531"><ele>23.333333333333336</ele><time>2026-04-19T15:13:01Z</time></trkpt><trkpt lat="43.70862300952846" lon="10.930128048680006"><ele>23.666666666666668</ele><time>2026-04-19T15:13:02Z</time></trkpt><trkpt lat="43.708631067577485" lon="10.930362142454022"><ele>24.0</ele><time>2026-04-19T15:13:03Z</time></trkpt><trkpt lat="43.70863999958526" lon="10.930594896206948"><ele>24.0</ele><time>2026-04-19T15:13:04Z</time></trkpt><trkpt lat="43.70864985576473" lon="10.9308270882564"><ele>24.0</ele><time>2026-04-19T15:13:05Z</time></trkpt><trkpt lat="43.708656229481434" lon="10.931061821186825"><ele>24.0</ele><time>2026-04-19T15:13:06Z</time></trkpt><trkpt lat="43.708663712411905" lon="10.931296875863785"><ele>24.0</ele><time>2026-04-19T15:13:07Z</time></trkpt><trkpt lat="43.708668698092104" lon="10.931533738724212"><ele>24.0</ele><time>2026-04-19T15:13:08Z</time></trkpt><trkpt lat="43.70867434762478" lon="10.931771686586577"><ele>24.0</ele><time>2026-04-19T15:13:09Z</time></trkpt><trkpt lat="43.70868196616374" lon="10.93201358828267"><ele>24.333333333333336</ele><time>2026-04-19T15:13:10Z</time></trkpt><trkpt lat="43.70868876207877" lon="10.932261347495448"><ele>24.666666666666668</ele><time>2026-04-19T15:13:11Z</time></trkpt><trkpt lat="43.708697443636844" lon="10.932511094520855"><ele>25.0</ele><time>2026-04-19T15:13:12Z</time></trkpt><trkpt lat="43.7087068836229" lon="10.932765660711002"><ele>25.0</ele><time>2026-04-19T15:13:13Z</time></trkpt><trkpt lat="43.70871558359478" lon="10.933022305167686"><ele>25.0</ele><time>2026-04-19T15:13:14Z</time></trkpt><trkpt lat="43.70872431365466" lon="10.933282591689032"><ele>25.0</ele><time>2026-04-19T15:13:15Z</time></trkpt><trkpt lat="43.708733474891716" lon="10.933546071624738"><ele>24.666666666666668</ele><time>2026-04-19T15:13:16Z</time></trkpt><trkpt lat="43.7087417667241" lon="10.933812299677005"><ele>24.333333333333336</ele><time>2026-04-19T15:13:17Z</time></trkpt><trkpt lat="43.70874950842153" lon="10.93407997020643"><ele>24.0</ele><time>2026-04-19T15:13:18Z</time></trkpt><trkpt lat="43.70875759932499" lon="10.934348223913219"><ele>24.0</ele><time>2026-04-19T15:13:19Z</time></trkpt><trkpt lat="43.708766195807264" lon="10.934616637509185"><ele>24.0</ele><time>2026-04-19T15:13:20Z</time></trkpt><trkpt lat="43.708776538537684" lon="10.934884918107402"><ele>24.0</ele><time>2026-04-19T15:13:21Z</time></trkpt><trkpt lat="43.70878713136031" lon="10.935151464061347"><ele>24.333333333333336</ele><time>2026-04-19T15:13:22Z</time></trkpt><trkpt lat="43.70879475856917" lon="10.935417776764673"><ele>24.666666666666668</ele><time>2026-04-19T15:13:23Z</time></trkpt><trkpt lat="43.708801804208164" lon="10.935684459116473"><ele>25.0</ele><time>2026-04-19T15:13:24Z</time></trkpt><trkpt lat="43.708810586175595" lon="10.93594452540026"><ele>25.0</ele><time>2026-04-19T15:13:25Z</time></trkpt><trkpt lat="43.70882059031204" lon="10.936203306823357"><ele>25.0</ele><time>2026-04-19T15:13:26Z</time></trkpt><trkpt lat="43.70882854585716" lon="10.936463478882423"><ele>25.0</ele><time>2026-04-19T15:13:27Z</time></trkpt><trkpt lat="43.70883701708933" lon="10.93672202518759"><ele>25.0</ele><time>2026-04-19T15:13:28Z</time></trkpt><trkpt lat="43.70884445269532" lon="10.936981214298267"><ele>25.0</ele><time>2026-04-19T15:13:29Z</time></trkpt><trkpt lat="43.70885244645288" lon="10.937240884593887"><ele>25.0</ele><time>2026-04-19T15:13:30Z</time></trkpt><trkpt lat="43.708860141622274" lon="10.937502359871132"><ele>25.0</ele><time>2026-04-19T15:13:31Z</time></trkpt><trkpt lat="43.708867035345136" lon="10.937766740685792"><ele>25.0</ele><time>2026-04-19T15:13:32Z</time></trkpt><trkpt lat="43.70887626084561" lon="10.938032247111733"><ele>25.0</ele><time>2026-04-19T15:13:33Z</time></trkpt><trkpt lat="43.708885504774265" lon="10.938299717424096"><ele>25.0</ele><time>2026-04-19T15:13:34Z</time></trkpt><trkpt lat="43.70889520072841" lon="10.938569983973293"><ele>25.0</ele><time>2026-04-19T15:13:35Z</time></trkpt><trkpt lat="43.70890539166768" lon="10.938840911660167"><ele>25.0</ele><time>2026-04-19T15:13:36Z</time></trkpt><trkpt lat="43.708915368862556" lon="10.93911235386813"><ele>25.0</ele><time>2026-04-19T15:13:37Z</time></trkpt><trkpt lat="43.708925023847954" lon="10.939383303448695"><ele>25.0</ele><time>2026-04-19T15:13:38Z</time></trkpt><trkpt lat="43.70893466623468" lon="10.939655699524272"><ele>25.0</ele><time>2026-04-19T15:13:39Z</time></trkpt><trkpt lat="43.70894416482023" lon="10.939926514278866"><ele>24.333333333333336</ele><time>2026-04-19T15:13:40Z</time></trkpt><trkpt lat="43.708953322846135" lon="10.940196467841588"><ele>23.666666666666668</ele><time>2026-04-19T15:13:41Z</time></trkpt><trkpt lat="43.70896135293875" lon="10.940467933689531"><ele>23.0</ele><time>2026-04-19T15:13:42Z</time></trkpt><trkpt lat="43.70896856197389" lon="10.940739371004339"><ele>23.333333333333336</ele><time>2026-04-19T15:13:43Z</time></trkpt><trkpt lat="43.70897758757588" lon="10.94101094592392"><ele>23.666666666666668</ele><time>2026-04-19T15:13:44Z</time></trkpt><trkpt lat="43.70898841131613" lon="10.941279773274017"><ele>24.0</ele><time>2026-04-19T15:13:45Z</time></trkpt><trkpt lat="43.708996964451686" lon="10.94154921768152"><ele>24.0</ele><time>2026-04-19T15:13:46Z</time></trkpt><trkpt lat="43.709006265898175" lon="10.941815876205476"><ele>24.0</ele><time>2026-04-19T15:13:47Z</time></trkpt><trkpt lat="43.70901552965316" lon="10.942083167024146"><ele>24.0</ele><time>2026-04-19T15:13:48Z</time></trkpt><trkpt lat="43.70902467042615" lon="10.942344119347306"><ele>24.333333333333336</ele><time>2026-04-19T15:13:49Z</time></trkpt><trkpt lat="43.709033874596436" lon="10.942608288285587"><ele>24.666666666666668</ele><time>2026-04-19T15:13:50Z</time></trkpt><trkpt lat="43.709043684459" lon="10.942875173971387"><ele>25.0</ele><time>2026-04-19T15:13:51Z</time></trkpt><trkpt lat="43.70905189689785" lon="10.943146195502441"><ele>25.666666666666668</ele><time>2026-04-19T15:13:52Z</time></trkpt><trkpt lat="43.709061518625695" lon="10.94341747873048"><ele>26.333333333333336</ele><time>2026-04-19T15:13:53Z</time></trkpt><trkpt lat="43.70907117019623" lon="10.94369192547504"><ele>27.0</ele><time>2026-04-19T15:13:54Z</time></trkpt><trkpt lat="43.70908006507659" lon="10.943966979278525"><ele>27.0</ele><time>2026-04-19T15:13:55Z</time></trkpt><trkpt lat="43.70908921761873" lon="10.944243974934391"><ele>27.0</ele><time>2026-04-19T15:13:56Z</time></trkpt><trkpt lat="43.70909977640131" lon="10.944520355387608"><ele>27.0</ele><time>2026-04-19T15:13:57Z</time></trkpt><trkpt lat="43.709111814253106" lon="10.944797010866619"><ele>27.0</ele><time>2026-04-19T15:13:58Z</time></trkpt><trkpt lat="43.70912559104353" lon="10.945074514272521"><ele>27.0</ele><time>2026-04-19T15:13:59Z</time></trkpt><trkpt lat="43.70914326662845" lon="10.945351083801278"><ele>27.0</ele><time>2026-04-19T15:14:00Z</time></trkpt><trkpt lat="43.70916017161973" lon="10.945627991471085"><ele>27.333333333333336</ele><time>2026-04-19T15:14:01Z</time></trkpt><trkpt lat="43.70917569646974" lon="10.945905409656245"><ele>27.666666666666668</ele><time>2026-04-19T15:14:02Z</time></trkpt><trkpt lat="43.70919098608605" lon="10.946182481958314"><ele>28.0</ele><time>2026-04-19T15:14:03Z</time></trkpt><trkpt lat="43.70920890029416" lon="10.946459549082167"><ele>28.333333333333336</ele><time>2026-04-19T15:14:04Z</time></trkpt><trkpt lat="43.70922595407629" lon="10.946731675338995"><ele>28.666666666666664</ele><time>2026-04-19T15:14:05Z</time></trkpt><trkpt lat="43.70924244952411" lon="10.946999972852408"><ele>29.0</ele><time>2026-04-19T15:14:06Z</time></trkpt><trkpt lat="43.70925774397987" lon="10.947264859080072"><ele>29.0</ele><time>2026-04-19T15:14:07Z</time></trkpt><trkpt lat="43.70927253034075" lon="10.94752826016874"><ele>29.0</ele><time>2026-04-19T15:14:08Z</time></trkpt><trkpt lat="43.709287162528945" lon="10.9477901222872"><ele>29.0</ele><time>2026-04-19T15:14:09Z</time></trkpt><trkpt lat="43.70930412782707" lon="10.948050809101387"><ele>28.333333333333332</ele><time>2026-04-19T15:14:10Z</time></trkpt><trkpt lat="43.70932007569444" lon="10.948311218690352"><ele>27.666666666666664</ele><time>2026-04-19T15:14:11Z</time></trkpt><trkpt lat="43.70933557295281" lon="10.948571348049853"><ele>27.0</ele><time>2026-04-19T15:14:12Z</time></trkpt><trkpt lat="43.709350588616026" lon="10.948831821355052"><ele>27.0</ele><time>2026-04-19T15:14:13Z</time></trkpt><trkpt lat="43.709366090715484" lon="10.949095406872159"><ele>27.0</ele><time>2026-04-19T15:14:14Z</time></trkpt><trkpt lat="43.70938133506668" lon="10.949359832901292"><ele>27.0</ele><time>2026-04-19T15:14:15Z</time></trkpt><trkpt lat="43.70939655239477" lon="10.949624519328529"><ele>27.0</ele><time>2026-04-19T15:14:16Z</time></trkpt><trkpt lat="43.70941194617284" lon="10.949890736601882"><ele>27.0</ele><time>2026-04-19T15:14:17Z</time></trkpt><trkpt lat="43.70942657825217" lon="10.95016001017229"><ele>27.0</ele><time>2026-04-19T15:14:18Z</time></trkpt><trkpt lat="43.709441508138724" lon="10.950428403160094"><ele>27.0</ele><time>2026-04-19T15:14:19Z</time></trkpt><trkpt lat="43.70945669307299" lon="10.950696493678443"><ele>27.0</ele><time>2026-04-19T15:14:20Z</time></trkpt><trkpt lat="43.709472860666764" lon="10.950965134481235"><ele>27.0</ele><time>2026-04-19T15:14:21Z</time></trkpt><trkpt lat="43.7094902889626" lon="10.951232875023505"><ele>27.0</ele><time>2026-04-19T15:14:22Z</time></trkpt><trkpt lat="43.70950817959213" lon="10.95149879849675"><ele>27.0</ele><time>2026-04-19T15:14:23Z</time></trkpt><trkpt lat="43.70952536280516" lon="10.951765874007116"><ele>27.0</ele><time>2026-04-19T15:14:24Z</time></trkpt><trkpt lat="43.709541149108034" lon="10.952030899567227"><ele>27.0</ele><time>2026-04-19T15:14:25Z</time></trkpt><trkpt lat="43.709555636466376" lon="10.952296603127467"><ele>27.0</ele><time>2026-04-19T15:14:26Z</time></trkpt><trkpt lat="43.70956886036665" lon="10.952560498781985"><ele>27.0</ele><time>2026-04-19T15:14:27Z</time></trkpt><trkpt lat="43.7095784723441" lon="10.952820514064094"><ele>27.0</ele><time>2026-04-19T15:14:28Z</time></trkpt><trkpt lat="43.70958361349667" lon="10.953080437268508"><ele>27.0</ele><time>2026-04-19T15:14:29Z</time></trkpt><trkpt lat="43.709579856728034" lon="10.953344452513056"><ele>27.0</ele><time>2026-04-19T15:14:30Z</time></trkpt><trkpt lat="43.709573267884245" lon="10.953614444888602"><ele>26.666666666666664</ele><time>2026-04-19T15:14:31Z</time></trkpt><trkpt lat="43.70956040028201" lon="10.953890069391742"><ele>26.333333333333332</ele><time>2026-04-19T15:14:32Z</time></trkpt><trkpt lat="43.70954318108829" lon="10.954167793284832"><ele>26.0</ele><time>2026-04-19T15:14:33Z</time></trkpt><trkpt lat="43.70952186236937" lon="10.954445076156494"><ele>26.666666666666664</ele><time>2026-04-19T15:14:34Z</time></trkpt><trkpt lat="43.70950062173223" lon="10.9547209320852"><ele>27.333333333333336</ele><time>2026-04-19T15:14:35Z</time></trkpt><trkpt lat="43.70947937592387" lon="10.954996669792486"><ele>28.0</ele><time>2026-04-19T15:14:36Z</time></trkpt><trkpt lat="43.7094569949906" lon="10.955270113995862"><ele>28.0</ele><time>2026-04-19T15:14:37Z</time></trkpt><trkpt lat="43.70943406518477" lon="10.955543152956938"><ele>28.0</ele><time>2026-04-19T15:14:38Z</time></trkpt><trkpt lat="43.709411151528705" lon="10.9558147481278"><ele>28.0</ele><time>2026-04-19T15:14:39Z</time></trkpt><trkpt lat="43.709388125284406" lon="10.95608764658491"><ele>27.666666666666668</ele><time>2026-04-19T15:14:40Z</time></trkpt><trkpt lat="43.70936543741245" lon="10.956360251871644"><ele>27.333333333333336</ele><time>2026-04-19T15:14:41Z</time></trkpt><trkpt lat="43.709342818883904" lon="10.95663384610975"><ele>27.0</ele><time>2026-04-19T15:14:42Z</time></trkpt><trkpt lat="43.709320897357514" lon="10.956907360923825"><ele>27.666666666666664</ele><time>2026-04-19T15:14:43Z</time></trkpt><trkpt lat="43.709297792020266" lon="10.957181142797287"><ele>28.333333333333332</ele><time>2026-04-19T15:14:44Z</time></trkpt><trkpt lat="43.709274403368184" lon="10.95745369284941"><ele>29.0</ele><time>2026-04-19T15:14:45Z</time></trkpt><trkpt lat="43.70925094031807" lon="10.957727260317805"><ele>29.666666666666664</ele><time>2026-04-19T15:14:46Z</time></trkpt><trkpt lat="43.70922629836944" lon="10.958000311221857"><ele>30.333333333333336</ele><time>2026-04-19T15:14:47Z</time></trkpt><trkpt lat="43.70920207290738" lon="10.958272543416271"><ele>31.0</ele><time>2026-04-19T15:14:48Z</time></trkpt><trkpt lat="43.7091778090735" lon="10.95854459122408"><ele>31.0</ele><time>2026-04-19T15:14:49Z</time></trkpt><trkpt lat="43.70915474362061" lon="10.958818425899816"><ele>31.0</ele><time>2026-04-19T15:14:50Z</time></trkpt><trkpt lat="43.709132751469596" lon="10.959092903606512"><ele>31.0</ele><time>2026-04-19T15:14:51Z</time></trkpt><trkpt lat="43.70911028363243" lon="10.959366937794112"><ele>30.666666666666668</ele><time>2026-04-19T15:14:52Z</time></trkpt><trkpt lat="43.70908812661523" lon="10.95964108445638"><ele>30.333333333333336</ele><time>2026-04-19T15:14:53Z</time></trkpt><trkpt lat="43.70906620735082" lon="10.95991442651829"><ele>30.0</ele><time>2026-04-19T15:14:54Z</time></trkpt><trkpt lat="43.70904409711653" lon="10.960190112888956"><ele>29.666666666666664</ele><time>2026-04-19T15:14:55Z</time></trkpt><trkpt lat="43.70902062186018" lon="10.960462831143712"><ele>29.333333333333332</ele><time>2026-04-19T15:14:56Z</time></trkpt><trkpt lat="43.70899715667076" lon="10.960737375527119"><ele>29.0</ele><time>2026-04-19T15:14:57Z</time></trkpt><trkpt lat="43.70897594373574" lon="10.961012122497788"><ele>29.0</ele><time>2026-04-19T15:14:58Z</time></trkpt><trkpt lat="43.70895602074724" lon="10.961286455723918"><ele>29.0</ele><time>2026-04-19T15:14:59Z</time></trkpt><trkpt lat="43.70893896086933" lon="10.961562377783123"><ele>29.0</ele><time>2026-04-19T15:15:00Z</time></trkpt><trkpt lat="43.70892993095576" lon="10.961839310466265"><ele>29.0</ele><time>2026-04-19T15:15:01Z</time></trkpt><trkpt lat="43.70893415363985" lon="10.962117014803393"><ele>29.0</ele><time>2026-04-19T15:15:02Z</time></trkpt><trkpt lat="43.70894657262296" lon="10.96239259506834"><ele>29.0</ele><time>2026-04-19T15:15:03Z</time></trkpt><trkpt lat="43.708968266993935" lon="10.962668139774843"><ele>28.666666666666664</ele><time>2026-04-19T15:15:04Z</time></trkpt><trkpt lat="43.70900020230736" lon="10.962941260490396"><ele>28.333333333333336</ele><time>2026-04-19T15:15:05Z</time></trkpt><trkpt lat="43.709037443951736" lon="10.963212125989052"><ele>28.0</ele><time>2026-04-19T15:15:06Z</time></trkpt><trkpt lat="43.709085619368174" lon="10.963479618561086"><ele>28.0</ele><time>2026-04-19T15:15:07Z</time></trkpt><trkpt lat="43.70914525731119" lon="10.963741550647201"><ele>28.0</ele><time>2026-04-19T15:15:08Z</time></trkpt><trkpt lat="43.7092127219589" lon="10.9639991478285"><ele>28.0</ele><time>2026-04-19T15:15:09Z</time></trkpt><trkpt lat="43.7092874062629" lon="10.964252873150707"><ele>28.0</ele><time>2026-04-19T15:15:10Z</time></trkpt><trkpt lat="43.709370132648665" lon="10.964500464234561"><ele>28.0</ele><time>2026-04-19T15:15:11Z</time></trkpt><trkpt lat="43.7094591568428" lon="10.964745213743239"><ele>28.0</ele><time>2026-04-19T15:15:12Z</time></trkpt><trkpt lat="43.709556094162785" lon="10.96498295011989"><ele>28.0</ele><time>2026-04-19T15:15:13Z</time></trkpt><trkpt lat="43.70966283265751" lon="10.965214183905593"><ele>28.0</ele><time>2026-04-19T15:15:14Z</time></trkpt><trkpt lat="43.709778948917894" lon="10.965435698334806"><ele>28.0</ele><time>2026-04-19T15:15:15Z</time></trkpt><trkpt lat="43.70990320700044" lon="10.965651456525677"><ele>28.0</ele><time>2026-04-19T15:15:16Z</time></trkpt><trkpt lat="43.710035590419004" lon="10.965858127412956"><ele>28.0</ele><time>2026-04-19T15:15:17Z</time></trkpt><trkpt lat="43.71017347524924" lon="10.966057053303741"><ele>28.0</ele><time>2026-04-19T15:15:18Z</time></trkpt><trkpt lat="43.710313957730094" lon="10.966252728017652"><ele>28.333333333333336</ele><time>2026-04-19T15:15:19Z</time></trkpt><trkpt lat="43.710455286100895" lon="10.96644757074913"><ele>28.666666666666664</ele><time>2026-04-19T15:15:20Z</time></trkpt><trkpt lat="43.710597272423065" lon="10.966641777666801"><ele>29.0</ele><time>2026-04-19T15:15:21Z</time></trkpt><trkpt lat="43.71074037831268" lon="10.96683714641423"><ele>29.0</ele><time>2026-04-19T15:15:22Z</time></trkpt><trkpt lat="43.7108802515533" lon="10.967034352226872"><ele>29.0</ele><time>2026-04-19T15:15:23Z</time></trkpt><trkpt lat="43.711019737559305" lon="10.967229981166275"><ele>29.0</ele><time>2026-04-19T15:15:24Z</time></trkpt><trkpt lat="43.71116023708244" lon="10.967426767709991"><ele>28.666666666666664</ele><time>2026-04-19T15:15:25Z</time></trkpt><trkpt lat="43.71130153154847" lon="10.967623252374596"><ele>28.333333333333336</ele><time>2026-04-19T15:15:26Z</time></trkpt><trkpt lat="43.71144199717702" lon="10.9678184525604"><ele>28.0</ele><time>2026-04-19T15:15:27Z</time></trkpt><trkpt lat="43.71158228233845" lon="10.968014279043121"><ele>28.0</ele><time>2026-04-19T15:15:28Z</time></trkpt><trkpt lat="43.711721414141856" lon="10.96821084530215"><ele>28.0</ele><time>2026-04-19T15:15:29Z</time></trkpt><trkpt lat="43.711862752051935" lon="10.968407370924565"><ele>28.0</ele><time>2026-04-19T15:15:30Z</time></trkpt><trkpt lat="43.712005073002764" lon="10.968602937461542"><ele>28.666666666666668</ele><time>2026-04-19T15:15:31Z</time></trkpt><trkpt lat="43.71214622245447" lon="10.968798640058656"><ele>29.333333333333336</ele><time>2026-04-19T15:15:32Z</time></trkpt><trkpt lat="43.712286737348386" lon="10.968994739586293"><ele>30.0</ele><time>2026-04-19T15:15:33Z</time></trkpt><trkpt lat="43.71242723432573" lon="10.969192259597953"><ele>30.0</ele><time>2026-04-19T15:15:34Z</time></trkpt><trkpt lat="43.7125657937594" lon="10.969381792047374"><ele>30.0</ele><time>2026-04-19T15:15:35Z</time></trkpt><trkpt lat="43.71270562551048" lon="10.969561582931483"><ele>30.0</ele><time>2026-04-19T15:15:36Z</time></trkpt><trkpt lat="43.71284390746601" lon="10.969737929367298"><ele>29.666666666666664</ele><time>2026-04-19T15:15:37Z</time></trkpt><trkpt lat="43.71298137998987" lon="10.969919558479877"><ele>29.333333333333332</ele><time>2026-04-19T15:15:38Z</time></trkpt><trkpt lat="43.71311925394052" lon="10.97010692170838"><ele>29.0</ele><time>2026-04-19T15:15:39Z</time></trkpt><trkpt lat="43.713259555857825" lon="10.970299150734434"><ele>29.0</ele><time>2026-04-19T15:15:40Z</time></trkpt><trkpt lat="43.71340115337836" lon="10.97049634684281"><ele>29.0</ele><time>2026-04-19T15:15:41Z</time></trkpt><trkpt lat="43.713542930354926" lon="10.970694701311322"><ele>29.0</ele><time>2026-04-19T15:15:42Z</time></trkpt><trkpt lat="43.713685609905305" lon="10.970893154970321"><ele>29.0</ele><time>2026-04-19T15:15:43Z</time></trkpt><trkpt lat="43.713826813267275" lon="10.971091360747906"><ele>29.0</ele><time>2026-04-19T15:15:44Z</time></trkpt><trkpt lat="43.713967212644654" lon="10.97128892801027"><ele>29.0</ele><time>2026-04-19T15:15:45Z</time></trkpt><trkpt lat="43.7141068362036" lon="10.97148552174695"><ele>29.0</ele><time>2026-04-19T15:15:46Z</time></trkpt><trkpt lat="43.714246984004106" lon="10.97168136895754"><ele>29.0</ele><time>2026-04-19T15:15:47Z</time></trkpt><trkpt lat="43.71438770244531" lon="10.971878883123908"><ele>29.0</ele><time>2026-04-19T15:15:48Z</time></trkpt><trkpt lat="43.71453095669154" lon="10.972078905015044"><ele>28.333333333333332</ele><time>2026-04-19T15:15:49Z</time></trkpt><trkpt lat="43.714678573967824" lon="10.972283379568035"><ele>27.666666666666664</ele><time>2026-04-19T15:15:50Z</time></trkpt><trkpt lat="43.714826645996" lon="10.972489209145065"><ele>27.0</ele><time>2026-04-19T15:15:51Z</time></trkpt><trkpt lat="43.71497524621851" lon="10.972694852546354"><ele>27.0</ele><time>2026-04-19T15:15:52Z</time></trkpt><trkpt lat="43.71512285200271" lon="10.972899943197612"><ele>27.0</ele><time>2026-04-19T15:15:53Z</time></trkpt><trkpt lat="43.715269601146765" lon="10.973104508353236"><ele>27.0</ele><time>2026-04-19T15:15:54Z</time></trkpt><trkpt lat="43.71541527333949" lon="10.97330738892361"><ele>27.0</ele><time>2026-04-19T15:15:55Z</time></trkpt><trkpt lat="43.71556103041109" lon="10.973508053557536"><ele>27.0</ele><time>2026-04-19T15:15:56Z</time></trkpt><trkpt lat="43.715705623408155" lon="10.97371003644859"><ele>27.0</ele><time>2026-04-19T15:15:57Z</time></trkpt><trkpt lat="43.71584959546091" lon="10.973916754237125"><ele>27.0</ele><time>2026-04-19T15:15:58Z</time></trkpt><trkpt lat="43.71599559937786" lon="10.974129967969903"><ele>27.0</ele><time>2026-04-19T15:15:59Z</time></trkpt><trkpt lat="43.71614160067448" lon="10.974348327529059"><ele>27.0</ele><time>2026-04-19T15:16:00Z</time></trkpt><trkpt lat="43.716289252992084" lon="10.97457782730805"><ele>27.0</ele><time>2026-04-19T15:16:01Z</time></trkpt><trkpt lat="43.716431367854334" lon="10.974813346873134"><ele>27.0</ele><time>2026-04-19T15:16:02Z</time></trkpt><trkpt lat="43.716567890773305" lon="10.975051716674962"><ele>27.0</ele><time>2026-04-19T15:16:03Z</time></trkpt><trkpt lat="43.71669913704582" lon="10.975295315470028"><ele>27.0</ele><time>2026-04-19T15:16:04Z</time></trkpt><trkpt lat="43.716821172473054" lon="10.975545125243166"><ele>27.0</ele><time>2026-04-19T15:16:05Z</time></trkpt><trkpt lat="43.716937092429085" lon="10.975798427753134"><ele>27.0</ele><time>2026-04-19T15:16:06Z</time></trkpt><trkpt lat="43.717047477507585" lon="10.976055979821089"><ele>26.333333333333336</ele><time>2026-04-19T15:16:07Z</time></trkpt><trkpt lat="43.71715408147349" lon="10.97631613344045"><ele>25.666666666666668</ele><time>2026-04-19T15:16:08Z</time></trkpt><trkpt lat="43.71725497154116" lon="10.97657939158767"><ele>25.0</ele><time>2026-04-19T15:16:09Z</time></trkpt><trkpt lat="43.71734913500145" lon="10.976847499982476"><ele>25.0</ele><time>2026-04-19T15:16:10Z</time></trkpt><trkpt lat="43.71743604985714" lon="10.97712127809417"><ele>25.0</ele><time>2026-04-19T15:16:11Z</time></trkpt><trkpt lat="43.717516293606565" lon="10.977398443996377"><ele>25.0</ele><time>2026-04-19T15:16:12Z</time></trkpt><trkpt lat="43.71759009728947" lon="10.977681637678137"><ele>25.0</ele><time>2026-04-19T15:16:13Z</time></trkpt><trkpt lat="43.717654479850616" lon="10.977968106310074"><ele>25.0</ele><time>2026-04-19T15:16:14Z</time></trkpt><trkpt lat="43.71771282409541" lon="10.978255219146172"><ele>25.0</ele><time>2026-04-19T15:16:15Z</time></trkpt><trkpt lat="43.717768824839844" lon="10.978544248053351"><ele>25.0</ele><time>2026-04-19T15:16:16Z</time></trkpt><trkpt lat="43.71782625544751" lon="10.978832771223159"><ele>25.0</ele><time>2026-04-19T15:16:17Z</time></trkpt><trkpt lat="43.717884842202416" lon="10.979122508976712"><ele>25.0</ele><time>2026-04-19T15:16:18Z</time></trkpt><trkpt lat="43.717943041129395" lon="10.979410944787514"><ele>25.0</ele><time>2026-04-19T15:16:19Z</time></trkpt><trkpt lat="43.7180012959234" lon="10.979699577581746"><ele>25.0</ele><time>2026-04-19T15:16:20Z</time></trkpt><trkpt lat="43.71805881594407" lon="10.979989022658337"><ele>25.0</ele><time>2026-04-19T15:16:21Z</time></trkpt><trkpt lat="43.718115953322446" lon="10.980279531195292"><ele>25.333333333333336</ele><time>2026-04-19T15:16:22Z</time></trkpt><trkpt lat="43.718174166866135" lon="10.980567014787123"><ele>25.666666666666664</ele><time>2026-04-19T15:16:23Z</time></trkpt><trkpt lat="43.71823141463796" lon="10.980854584153755"><ele>26.0</ele><time>2026-04-19T15:16:24Z</time></trkpt><trkpt lat="43.71828845333532" lon="10.981142481094444"><ele>26.0</ele><time>2026-04-19T15:16:25Z</time></trkpt><trkpt lat="43.71834530058702" lon="10.981430586805454"><ele>26.0</ele><time>2026-04-19T15:16:26Z</time></trkpt><trkpt lat="43.718401909119194" lon="10.98172117474172"><ele>26.0</ele><time>2026-04-19T15:16:27Z</time></trkpt><trkpt lat="43.718458337937534" lon="10.982012244499593"><ele>25.666666666666664</ele><time>2026-04-19T15:16:28Z</time></trkpt><trkpt lat="43.7185167274728" lon="10.982300981211681"><ele>25.333333333333336</ele><time>2026-04-19T15:16:29Z</time></trkpt><trkpt lat="43.71857448586961" lon="10.982588778671898"><ele>25.0</ele><time>2026-04-19T15:16:30Z</time></trkpt><trkpt lat="43.718630458788006" lon="10.982878939965467"><ele>25.666666666666668</ele><time>2026-04-19T15:16:31Z</time></trkpt><trkpt lat="43.71868720347815" lon="10.983167185415205"><ele>26.333333333333336</ele><time>2026-04-19T15:16:32Z</time></trkpt><trkpt lat="43.718744354853165" lon="10.983455024831473"><ele>27.0</ele><time>2026-04-19T15:16:33Z</time></trkpt><trkpt lat="43.718803222351355" lon="10.983743333305155"><ele>27.0</ele><time>2026-04-19T15:16:34Z</time></trkpt><trkpt lat="43.71886306761943" lon="10.9840307834513"><ele>27.0</ele><time>2026-04-19T15:16:35Z</time></trkpt><trkpt lat="43.71892222549388" lon="10.984318367355266"><ele>27.0</ele><time>2026-04-19T15:16:36Z</time></trkpt><trkpt lat="43.718982887810135" lon="10.98460715371975"><ele>27.0</ele><time>2026-04-19T15:16:37Z</time></trkpt><trkpt lat="43.719040677970646" lon="10.984893661646305"><ele>27.0</ele><time>2026-04-19T15:16:38Z</time></trkpt><trkpt lat="43.71909740406929" lon="10.985183345213756"><ele>27.0</ele><time>2026-04-19T15:16:39Z</time></trkpt><trkpt lat="43.719155334186794" lon="10.985472850852906"><ele>27.0</ele><time>2026-04-19T15:16:40Z</time></trkpt><trkpt lat="43.719213393852826" lon="10.98576123572167"><ele>27.0</ele><time>2026-04-19T15:16:41Z</time></trkpt><trkpt lat="43.71927169586997" lon="10.986050630901424"><ele>27.0</ele><time>2026-04-19T15:16:42Z</time></trkpt><trkpt lat="43.719329682874104" lon="10.9863386321119"><ele>26.666666666666664</ele><time>2026-04-19T15:16:43Z</time></trkpt><trkpt lat="43.71938743730363" lon="10.986627443898385"><ele>26.333333333333332</ele><time>2026-04-19T15:16:44Z</time></trkpt><trkpt lat="43.71944398409279" lon="10.986909993275871"><ele>26.0</ele><time>2026-04-19T15:16:45Z</time></trkpt><trkpt lat="43.71949907931975" lon="10.987187659995508"><ele>26.666666666666664</ele><time>2026-04-19T15:16:46Z</time></trkpt><trkpt lat="43.71955287916611" lon="10.987459136744633"><ele>27.333333333333336</ele><time>2026-04-19T15:16:47Z</time></trkpt><trkpt lat="43.719605912692515" lon="10.987721403983228"><ele>28.0</ele><time>2026-04-19T15:16:48Z</time></trkpt><trkpt lat="43.71965742060708" lon="10.987979668025979"><ele>28.0</ele><time>2026-04-19T15:16:49Z</time></trkpt><trkpt lat="43.7197072109872" lon="10.988230772757717"><ele>28.0</ele><time>2026-04-19T15:16:50Z</time></trkpt><trkpt lat="43.719755921974496" lon="10.988482351599073"><ele>28.0</ele><time>2026-04-19T15:16:51Z</time></trkpt><trkpt lat="43.71980469065379" lon="10.988736215181286"><ele>27.666666666666668</ele><time>2026-04-19T15:16:52Z</time></trkpt><trkpt lat="43.719857450661934" lon="10.98899390025575"><ele>27.333333333333336</ele><time>2026-04-19T15:16:53Z</time></trkpt><trkpt lat="43.719911848006724" lon="10.9892586409269"><ele>27.0</ele><time>2026-04-19T15:16:54Z</time></trkpt><trkpt lat="43.71996359374095" lon="10.989532251144846"><ele>27.0</ele><time>2026-04-19T15:16:55Z</time></trkpt><trkpt lat="43.72001021818769" lon="10.989815937835983"><ele>27.0</ele><time>2026-04-19T15:16:56Z</time></trkpt><trkpt lat="43.72005294414655" lon="10.990107590834693"><ele>27.0</ele><time>2026-04-19T15:16:57Z</time></trkpt><trkpt lat="43.72009397605197" lon="10.990402778485604"><ele>27.333333333333336</ele><time>2026-04-19T15:16:58Z</time></trkpt><trkpt lat="43.72013034778226" lon="10.990701052469527"><ele>27.666666666666668</ele><time>2026-04-19T15:16:59Z</time></trkpt><trkpt lat="43.7201653184265" lon="10.990998951033507"><ele>28.0</ele><time>2026-04-19T15:17:00Z</time></trkpt><trkpt lat="43.72019656925355" lon="10.991298302766607"><ele>28.0</ele><time>2026-04-19T15:17:01Z</time></trkpt><trkpt lat="43.72022499540353" lon="10.991594749529996"><ele>28.0</ele><time>2026-04-19T15:17:02Z</time></trkpt><trkpt lat="43.72025194327928" lon="10.991890749821069"><ele>28.0</ele><time>2026-04-19T15:17:03Z</time></trkpt><trkpt lat="43.720282216092606" lon="10.992185998701844"><ele>28.666666666666668</ele><time>2026-04-19T15:17:04Z</time></trkpt><trkpt lat="43.72031131088178" lon="10.992481115816847"><ele>29.333333333333336</ele><time>2026-04-19T15:17:05Z</time></trkpt><trkpt lat="43.720341393799735" lon="10.992777673668884"><ele>30.0</ele><time>2026-04-19T15:17:06Z</time></trkpt><trkpt lat="43.72037390539367" lon="10.993074261754646"><ele>29.333333333333336</ele><time>2026-04-19T15:17:07Z</time></trkpt><trkpt lat="43.72040658011011" lon="10.993370326775391"><ele>28.666666666666668</ele><time>2026-04-19T15:17:08Z</time></trkpt><trkpt lat="43.720437179089416" lon="10.993667238485601"><ele>28.0</ele><time>2026-04-19T15:17:09Z</time></trkpt><trkpt lat="43.72047034012426" lon="10.993963343961186"><ele>28.0</ele><time>2026-04-19T15:17:10Z</time></trkpt><trkpt lat="43.72050487502727" lon="10.994258954380959"><ele>28.0</ele><time>2026-04-19T15:17:11Z</time></trkpt><trkpt lat="43.72053857994486" lon="10.99455533914714"><ele>28.0</ele><time>2026-04-19T15:17:12Z</time></trkpt><trkpt lat="43.720570192570236" lon="10.99485152379298"><ele>28.333333333333336</ele><time>2026-04-19T15:17:13Z</time></trkpt><trkpt lat="43.72060103847963" lon="10.995147920872133"><ele>28.666666666666664</ele><time>2026-04-19T15:17:14Z</time></trkpt><trkpt lat="43.7206323985447" lon="10.995444570427173"><ele>29.0</ele><time>2026-04-19T15:17:15Z</time></trkpt><trkpt lat="43.720665760634006" lon="10.995739708940015"><ele>29.0</ele><time>2026-04-19T15:17:16Z</time></trkpt><trkpt lat="43.720700365917295" lon="10.996035700737206"><ele>29.0</ele><time>2026-04-19T15:17:17Z</time></trkpt><trkpt lat="43.720734230306306" lon="10.996331593195459"><ele>29.0</ele><time>2026-04-19T15:17:18Z</time></trkpt><trkpt lat="43.72076700416303" lon="10.996627312699752"><ele>28.666666666666664</ele><time>2026-04-19T15:17:19Z</time></trkpt><trkpt lat="43.720798614729745" lon="10.996924610022408"><ele>28.333333333333336</ele><time>2026-04-19T15:17:20Z</time></trkpt><trkpt lat="43.72082384026179" lon="10.997221890999745"><ele>28.0</ele><time>2026-04-19T15:17:21Z</time></trkpt><trkpt lat="43.72085794260461" lon="10.9975161439792"><ele>28.666666666666668</ele><time>2026-04-19T15:17:22Z</time></trkpt><trkpt lat="43.720892360833325" lon="10.997811277432048"><ele>29.333333333333336</ele><time>2026-04-19T15:17:23Z</time></trkpt><trkpt lat="43.72092572980775" lon="10.998109109941728"><ele>30.0</ele><time>2026-04-19T15:17:24Z</time></trkpt><trkpt lat="43.720957351487925" lon="10.998404083192158"><ele>30.0</ele><time>2026-04-19T15:17:25Z</time></trkpt><trkpt lat="43.720989101393265" lon="10.998700479136849"><ele>30.0</ele><time>2026-04-19T15:17:26Z</time></trkpt><trkpt lat="43.721022196619224" lon="10.998996699140935"><ele>30.0</ele><time>2026-04-19T15:17:27Z</time></trkpt><trkpt lat="43.72105598984077" lon="10.99929085220498"><ele>29.666666666666664</ele><time>2026-04-19T15:17:28Z</time></trkpt><trkpt lat="43.72108948789506" lon="10.999586270596813"><ele>29.333333333333332</ele><time>2026-04-19T15:17:29Z</time></trkpt><trkpt lat="43.72112335217084" lon="10.999882597875192"><ele>29.0</ele><time>2026-04-19T15:17:30Z</time></trkpt><trkpt lat="43.7211572290231" lon="11.000178588795663"><ele>29.0</ele><time>2026-04-19T15:17:31Z</time></trkpt><trkpt lat="43.7211911680123" lon="11.00047379274853"><ele>29.0</ele><time>2026-04-19T15:17:32Z</time></trkpt><trkpt lat="43.721223875608395" lon="11.0007701020486"><ele>29.0</ele><time>2026-04-19T15:17:33Z</time></trkpt><trkpt lat="43.72125623259448" lon="11.001066683839303"><ele>29.333333333333332</ele><time>2026-04-19T15:17:34Z</time></trkpt><trkpt lat="43.721290616300585" lon="11.001364061909474"><ele>29.666666666666664</ele><time>2026-04-19T15:17:35Z</time></trkpt><trkpt lat="43.72132221631864" lon="11.001658993865714"><ele>30.0</ele><time>2026-04-19T15:17:36Z</time></trkpt><trkpt lat="43.721354693496146" lon="11.00195428909406"><ele>30.333333333333336</ele><time>2026-04-19T15:17:37Z</time></trkpt><trkpt lat="43.72138571713628" lon="11.002250077947844"><ele>30.666666666666668</ele><time>2026-04-19T15:17:38Z</time></trkpt><trkpt lat="43.72141650387437" lon="11.002546927831228"><ele>31.0</ele><time>2026-04-19T15:17:39Z</time></trkpt><trkpt lat="43.72144591506963" lon="11.00284313428024"><ele>31.0</ele><time>2026-04-19T15:17:40Z</time></trkpt><trkpt lat="43.721476786710454" lon="11.00314064898318"><ele>31.0</ele><time>2026-04-19T15:17:41Z</time></trkpt><trkpt lat="43.72150781471329" lon="11.003437107381302"><ele>31.0</ele><time>2026-04-19T15:17:42Z</time></trkpt><trkpt lat="43.72154029730608" lon="11.003733252314493"><ele>31.0</ele><time>2026-04-19T15:17:43Z</time></trkpt><trkpt lat="43.72157343813171" lon="11.004028769501875"><ele>31.0</ele><time>2026-04-19T15:17:44Z</time></trkpt><trkpt lat="43.72160741576678" lon="11.004324960919162"><ele>31.0</ele><time>2026-04-19T15:17:45Z</time></trkpt><trkpt lat="43.72164140109184" lon="11.004620734290867"><ele>30.333333333333336</ele><time>2026-04-19T15:17:46Z</time></trkpt><trkpt lat="43.721675851406" lon="11.004915695659843"><ele>29.666666666666664</ele><time>2026-04-19T15:17:47Z</time></trkpt><trkpt lat="43.72171085068838" lon="11.005211868183137"><ele>29.0</ele><time>2026-04-19T15:17:48Z</time></trkpt><trkpt lat="43.72174746339405" lon="11.005506661932333"><ele>29.0</ele><time>2026-04-19T15:17:49Z</time></trkpt><trkpt lat="43.72177995994674" lon="11.005803505205597"><ele>29.0</ele><time>2026-04-19T15:17:50Z</time></trkpt><trkpt lat="43.721810163766314" lon="11.006100267249415"><ele>29.0</ele><time>2026-04-19T15:17:51Z</time></trkpt><trkpt lat="43.72184134881074" lon="11.00639621532842"><ele>29.333333333333332</ele><time>2026-04-19T15:17:52Z</time></trkpt><trkpt lat="43.7218739484096" lon="11.006691602499075"><ele>29.666666666666664</ele><time>2026-04-19T15:17:53Z</time></trkpt><trkpt lat="43.721906686885305" lon="11.00698655932116"><ele>30.0</ele><time>2026-04-19T15:17:54Z</time></trkpt><trkpt lat="43.72193777649979" lon="11.007281329405838"><ele>29.333333333333336</ele><time>2026-04-19T15:17:55Z</time></trkpt><trkpt lat="43.72196928361658" lon="11.007576458564044"><ele>28.666666666666668</ele><time>2026-04-19T15:17:56Z</time></trkpt><trkpt lat="43.72200462181643" lon="11.00786939985748"><ele>28.0</ele><time>2026-04-19T15:17:57Z</time></trkpt><trkpt lat="43.722041229995455" lon="11.00816160410489"><ele>28.333333333333336</ele><time>2026-04-19T15:17:58Z</time></trkpt><trkpt lat="43.72207951759068" lon="11.008453214856"><ele>28.666666666666664</ele><time>2026-04-19T15:17:59Z</time></trkpt><trkpt lat="43.72212599341889" lon="11.00874298283042"><ele>29.0</ele><time>2026-04-19T15:18:00Z</time></trkpt><trkpt lat="43.72218611847312" lon="11.009029342756618"><ele>29.666666666666664</ele><time>2026-04-19T15:18:01Z</time></trkpt><trkpt lat="43.72225685853476" lon="11.009311747191225"><ele>30.333333333333336</ele><time>2026-04-19T15:18:02Z</time></trkpt><trkpt lat="43.722336262264314" lon="11.009589824501896"><ele>31.0</ele><time>2026-04-19T15:18:03Z</time></trkpt><trkpt lat="43.72242134635085" lon="11.009863868965214"><ele>32.333333333333336</ele><time>2026-04-19T15:18:04Z</time></trkpt><trkpt lat="43.722516461383236" lon="11.0101303624544"><ele>33.666666666666664</ele><time>2026-04-19T15:18:05Z</time></trkpt><trkpt lat="43.722617238604" lon="11.010396061535587"><ele>35.0</ele><time>2026-04-19T15:18:06Z</time></trkpt><trkpt lat="43.722721231883675" lon="11.010658244420663"><ele>37.666666666666664</ele><time>2026-04-19T15:18:07Z</time></trkpt><trkpt lat="43.72283216910563" lon="11.010915092231889"><ele>40.333333333333336</ele><time>2026-04-19T15:18:08Z</time></trkpt><trkpt lat="43.72294555978491" lon="11.011169417332086"><ele>43.0</ele><time>2026-04-19T15:18:09Z</time></trkpt><trkpt lat="43.72306192330601" lon="11.011422647243114"><ele>46.333333333333336</ele><time>2026-04-19T15:18:10Z</time></trkpt><trkpt lat="43.72317904392372" lon="11.011676140849579"><ele>49.66666666666667</ele><time>2026-04-19T15:18:11Z</time></trkpt><trkpt lat="43.72329441593739" lon="11.011930384969387"><ele>53.0</ele><time>2026-04-19T15:18:12Z</time></trkpt><trkpt lat="43.723410453032535" lon="11.012185837041036"><ele>53.0</ele><time>2026-04-19T15:18:13Z</time></trkpt><trkpt lat="43.72352594860979" lon="11.01242777401171"><ele>53.0</ele><time>2026-04-19T15:18:14Z</time></trkpt><trkpt lat="43.72363629130548" lon="11.012660746949477"><ele>53.0</ele><time>2026-04-19T15:18:15Z</time></trkpt><trkpt lat="43.72374478773514" lon="11.012885951921675"><ele>52.66666666666667</ele><time>2026-04-19T15:18:16Z</time></trkpt><trkpt lat="43.723850790826724" lon="11.013101058662814"><ele>52.33333333333333</ele><time>2026-04-19T15:18:17Z</time></trkpt><trkpt lat="43.72395344538557" lon="11.013306315952697"><ele>52.0</ele><time>2026-04-19T15:18:18Z</time></trkpt><trkpt lat="43.72405248651375" lon="11.013505503192086"><ele>53.33333333333333</ele><time>2026-04-19T15:18:19Z</time></trkpt><trkpt lat="43.72414853475986" lon="11.013702488378208"><ele>54.66666666666667</ele><time>2026-04-19T15:18:20Z</time></trkpt><trkpt lat="43.72424512697576" lon="11.013900523543551"><ele>56.0</ele><time>2026-04-19T15:18:21Z</time></trkpt><trkpt lat="43.72434205697222" lon="11.01410124389497"><ele>55.66666666666667</ele><time>2026-04-19T15:18:22Z</time></trkpt><trkpt lat="43.72443908175406" lon="11.014311127170338"><ele>55.33333333333333</ele><time>2026-04-19T15:18:23Z</time></trkpt><trkpt lat="43.724533985585836" lon="11.014527879015482"><ele>55.0</ele><time>2026-04-19T15:18:24Z</time></trkpt><trkpt lat="43.724629273992015" lon="11.014751313443304"><ele>55.0</ele><time>2026-04-19T15:18:25Z</time></trkpt><trkpt lat="43.724724567354315" lon="11.014982212676495"><ele>55.0</ele><time>2026-04-19T15:18:26Z</time></trkpt><trkpt lat="43.724811556222086" lon="11.015224896097866"><ele>55.0</ele><time>2026-04-19T15:18:27Z</time></trkpt><trkpt lat="43.72488640421225" lon="11.015481314326884"><ele>56.33333333333333</ele><time>2026-04-19T15:18:28Z</time></trkpt><trkpt lat="43.72495199382626" lon="11.015747364173858"><ele>57.66666666666667</ele><time>2026-04-19T15:18:29Z</time></trkpt><trkpt lat="43.725011394129574" lon="11.016022775059444"><ele>59.0</ele><time>2026-04-19T15:18:30Z</time></trkpt><trkpt lat="43.72506473554244" lon="11.01630522054077"><ele>60.66666666666667</ele><time>2026-04-19T15:18:31Z</time></trkpt><trkpt lat="43.72511201938497" lon="11.01659573009298"><ele>62.33333333333333</ele><time>2026-04-19T15:18:32Z</time></trkpt><trkpt lat="43.725147449174095" lon="11.016895566109392"><ele>64.0</ele><time>2026-04-19T15:18:33Z</time></trkpt><trkpt lat="43.7251635843537" lon="11.017205347324992"><ele>74.0</ele><time>2026-04-19T15:18:34Z</time></trkpt><trkpt lat="43.725173801438594" lon="11.017518817501694"><ele>84.0</ele><time>2026-04-19T15:18:35Z</time></trkpt><trkpt lat="43.72517161823661" lon="11.017829202893843"><ele>84.0</ele><time>2026-04-19T15:18:36Z</time></trkpt><trkpt lat="43.72515750645543" lon="11.018135399964795"><ele>84.0</ele><time>2026-04-19T15:18:37Z</time></trkpt><trkpt lat="43.72513208128045" lon="11.018436804824159"><ele>84.0</ele><time>2026-04-19T15:18:38Z</time></trkpt><trkpt lat="43.72509884422154" lon="11.01873301439911"><ele>84.66666666666667</ele><time>2026-04-19T15:18:39Z</time></trkpt><trkpt lat="43.7250591522769" lon="11.019024827964303"><ele>85.33333333333334</ele><time>2026-04-19T15:18:40Z</time></trkpt><trkpt lat="43.72500535125454" lon="11.019314004435842"><ele>86.0</ele><time>2026-04-19T15:18:41Z</time></trkpt><trkpt lat="43.72494003664007" lon="11.019599948451411"><ele>83.33333333333334</ele><time>2026-04-19T15:18:42Z</time></trkpt><trkpt lat="43.72486446571896" lon="11.019882061088095"><ele>80.66666666666667</ele><time>2026-04-19T15:18:43Z</time></trkpt><trkpt lat="43.72478740152623" lon="11.020160818351243"><ele>78.0</ele><time>2026-04-19T15:18:44Z</time></trkpt><trkpt lat="43.72469584098184" lon="11.020433599433048"><ele>76.0</ele><time>2026-04-19T15:18:45Z</time></trkpt><trkpt lat="43.7245905213631" lon="11.02069840261148"><ele>74.0</ele><time>2026-04-19T15:18:46Z</time></trkpt><trkpt lat="43.724475917838134" lon="11.020954397283145"><ele>72.0</ele><time>2026-04-19T15:18:47Z</time></trkpt><trkpt lat="43.724356076212324" lon="11.021205928277114"><ele>72.0</ele><time>2026-04-19T15:18:48Z</time></trkpt><trkpt lat="43.72422856782695" lon="11.021449995164692"><ele>72.0</ele><time>2026-04-19T15:18:49Z</time></trkpt><trkpt lat="43.72409076847427" lon="11.02168429432532"><ele>72.0</ele><time>2026-04-19T15:18:50Z</time></trkpt><trkpt lat="43.72394384905717" lon="11.021906473223913"><ele>71.66666666666667</ele><time>2026-04-19T15:18:51Z</time></trkpt><trkpt lat="43.723788387276606" lon="11.022119454724084"><ele>71.33333333333334</ele><time>2026-04-19T15:18:52Z</time></trkpt><trkpt lat="43.723629904572626" lon="11.022328217100169"><ele>71.0</ele><time>2026-04-19T15:18:53Z</time></trkpt><trkpt lat="43.72346981884293" lon="11.02253258290037"><ele>71.0</ele><time>2026-04-19T15:18:54Z</time></trkpt><trkpt lat="43.72331265398208" lon="11.022743866048392"><ele>71.0</ele><time>2026-04-19T15:18:55Z</time></trkpt><trkpt lat="43.723156611739405" lon="11.022956474572194"><ele>71.0</ele><time>2026-04-19T15:18:56Z</time></trkpt><trkpt lat="43.7230000531428" lon="11.023165189677192"><ele>69.66666666666667</ele><time>2026-04-19T15:18:57Z</time></trkpt><trkpt lat="43.72284516240707" lon="11.023377577645299"><ele>68.33333333333333</ele><time>2026-04-19T15:18:58Z</time></trkpt><trkpt lat="43.722693986513285" lon="11.023592332686967"><ele>67.0</ele><time>2026-04-19T15:18:59Z</time></trkpt><trkpt lat="43.722545871392" lon="11.023809302833026"><ele>67.0</ele><time>2026-04-19T15:19:00Z</time></trkpt><trkpt lat="43.722400784199635" lon="11.024028703177681"><ele>67.0</ele><time>2026-04-19T15:19:01Z</time></trkpt><trkpt lat="43.722257650462524" lon="11.0242494292028"><ele>67.0</ele><time>2026-04-19T15:19:02Z</time></trkpt><trkpt lat="43.722116993833986" lon="11.024473509943341"><ele>66.66666666666666</ele><time>2026-04-19T15:19:03Z</time></trkpt><trkpt lat="43.72198008294125" lon="11.024700602320426"><ele>66.33333333333333</ele><time>2026-04-19T15:19:04Z</time></trkpt><trkpt lat="43.72184627429077" lon="11.02493311885472"><ele>66.0</ele><time>2026-04-19T15:19:05Z</time></trkpt><trkpt lat="43.72171673563244" lon="11.025172509378955"><ele>66.0</ele><time>2026-04-19T15:19:06Z</time></trkpt><trkpt lat="43.72158589876729" lon="11.025419508707722"><ele>66.0</ele><time>2026-04-19T15:19:07Z</time></trkpt><trkpt lat="43.721452067724854" lon="11.025673309406482"><ele>66.0</ele><time>2026-04-19T15:19:08Z</time></trkpt><trkpt lat="43.72131904613243" lon="11.02593540055086"><ele>62.5</ele><time>2026-04-19T15:19:09Z</time></trkpt><trkpt lat="43.72118338193394" lon="11.026208318384795"><ele>59.0</ele><time>2026-04-19T15:19:10Z</time></trkpt><trkpt lat="43.72104562172414" lon="11.026486005929078"><ele>65.5</ele><time>2026-04-19T15:19:11Z</time></trkpt><trkpt lat="43.72090866663721" lon="11.026765556391736"><ele>72.0</ele><time>2026-04-19T15:19:12Z</time></trkpt><trkpt lat="43.720775155178934" lon="11.027048443269925"><ele>72.0</ele><time>2026-04-19T15:19:13Z</time></trkpt><trkpt lat="43.72063950125421" lon="11.027331741363913"><ele>72.0</ele><time>2026-04-19T15:19:14Z</time></trkpt><trkpt lat="43.72050173473906" lon="11.027614837560048"><ele>70.0</ele><time>2026-04-19T15:19:15Z</time></trkpt><trkpt lat="43.720362011618654" lon="11.027898036795932"><ele>68.0</ele><time>2026-04-19T15:19:16Z</time></trkpt><trkpt lat="43.720220489472645" lon="11.028184960864621"><ele>70.5</ele><time>2026-04-19T15:19:17Z</time></trkpt><trkpt lat="43.720079105973625" lon="11.02847249618345"><ele>73.0</ele><time>2026-04-19T15:19:18Z</time></trkpt><trkpt lat="43.71993580006215" lon="11.028761301744375"><ele>73.0</ele><time>2026-04-19T15:19:19Z</time></trkpt><trkpt lat="43.71979078626988" lon="11.02905096419137"><ele>73.0</ele><time>2026-04-19T15:19:20Z</time></trkpt><trkpt lat="43.71964282495866" lon="11.029342964076184"><ele>77.0</ele><time>2026-04-19T15:19:21Z</time></trkpt><trkpt lat="43.71949187587173" lon="11.029636793955351"><ele>81.0</ele><time>2026-04-19T15:19:22Z</time></trkpt><trkpt lat="43.71934052609241" lon="11.029933912280132"><ele>74.0</ele><time>2026-04-19T15:19:23Z</time></trkpt><trkpt lat="43.71918896772978" lon="11.030237895531947"><ele>67.0</ele><time>2026-04-19T15:19:24Z</time></trkpt><trkpt lat="43.71903956151617" lon="11.030542843644433"><ele>65.0</ele><time>2026-04-19T15:19:25Z</time></trkpt><trkpt lat="43.71889064469027" lon="11.030838306928526"><ele>63.0</ele><time>2026-04-19T15:19:26Z</time></trkpt><trkpt lat="43.71874280674449" lon="11.031129121015885"><ele>63.0</ele><time>2026-04-19T15:19:27Z</time></trkpt><trkpt lat="43.7185953050852" lon="11.031411333719511"><ele>63.0</ele><time>2026-04-19T15:19:28Z</time></trkpt><trkpt lat="43.71844981616883" lon="11.031688194259456"><ele>65.0</ele><time>2026-04-19T15:19:29Z</time></trkpt><trkpt lat="43.718310345739305" lon="11.031964632534311"><ele>67.0</ele><time>2026-04-19T15:19:30Z</time></trkpt><trkpt lat="43.71817492864157" lon="11.032236668025694"><ele>63.0</ele><time>2026-04-19T15:19:31Z</time></trkpt><trkpt lat="43.7180419050296" lon="11.032503025845665"><ele>59.0</ele><time>2026-04-19T15:19:32Z</time></trkpt><trkpt lat="43.717910425645876" lon="11.032766544940385"><ele>59.0</ele><time>2026-04-19T15:19:33Z</time></trkpt><trkpt lat="43.71777997989727" lon="11.03302221759004"><ele>59.0</ele><time>2026-04-19T15:19:34Z</time></trkpt><trkpt lat="43.717653341288866" lon="11.033274426020542"><ele>59.0</ele><time>2026-04-19T15:19:35Z</time></trkpt><trkpt lat="43.71752815739959" lon="11.033522733762569"><ele>54.333333333333336</ele><time>2026-04-19T15:19:36Z</time></trkpt><trkpt lat="43.71740634126659" lon="11.033769421275721"><ele>49.66666666666667</ele><time>2026-04-19T15:19:37Z</time></trkpt><trkpt lat="43.71728379037372" lon="11.034012234781798"><ele>45.0</ele><time>2026-04-19T15:19:38Z</time></trkpt><trkpt lat="43.717162722024575" lon="11.034253558761241"><ele>45.0</ele><time>2026-04-19T15:19:39Z</time></trkpt><trkpt lat="43.71704411243701" lon="11.03449691226092"><ele>45.0</ele><time>2026-04-19T15:19:40Z</time></trkpt><trkpt lat="43.71692780379384" lon="11.034742914263484"><ele>45.0</ele><time>2026-04-19T15:19:41Z</time></trkpt><trkpt lat="43.71681989876909" lon="11.034999049120188"><ele>50.33333333333333</ele><time>2026-04-19T15:19:42Z</time></trkpt><trkpt lat="43.71671946382022" lon="11.035265467238409"><ele>55.666666666666664</ele><time>2026-04-19T15:19:43Z</time></trkpt><trkpt lat="43.71662579844831" lon="11.035536589971688"><ele>61.0</ele><time>2026-04-19T15:19:44Z</time></trkpt><trkpt lat="43.71654093484737" lon="11.035813644458056"><ele>61.0</ele><time>2026-04-19T15:19:45Z</time></trkpt><trkpt lat="43.716468196690066" lon="11.036095787859628"><ele>61.0</ele><time>2026-04-19T15:19:46Z</time></trkpt><trkpt lat="43.7164065605082" lon="11.03638214600385"><ele>61.0</ele><time>2026-04-19T15:19:47Z</time></trkpt><trkpt lat="43.716354207098945" lon="11.036672272707184"><ele>59.0</ele><time>2026-04-19T15:19:48Z</time></trkpt><trkpt lat="43.716308822005026" lon="11.036967355004105"><ele>57.0</ele><time>2026-04-19T15:19:49Z</time></trkpt><trkpt lat="43.71626251116079" lon="11.037260777464185"><ele>55.0</ele><time>2026-04-19T15:19:50Z</time></trkpt><trkpt lat="43.716215428988306" lon="11.037553522219937"><ele>52.33333333333333</ele><time>2026-04-19T15:19:51Z</time></trkpt><trkpt lat="43.7161665527282" lon="11.037846799817856"><ele>49.666666666666664</ele><time>2026-04-19T15:19:52Z</time></trkpt><trkpt lat="43.716111209592405" lon="11.038137512878667"><ele>47.0</ele><time>2026-04-19T15:19:53Z</time></trkpt><trkpt lat="43.716043248916826" lon="11.038422816612126"><ele>49.0</ele><time>2026-04-19T15:19:54Z</time></trkpt><trkpt lat="43.71596361773524" lon="11.0387021189084"><ele>51.0</ele><time>2026-04-19T15:19:55Z</time></trkpt><trkpt lat="43.715873117780376" lon="11.038975349254708"><ele>53.0</ele><time>2026-04-19T15:19:56Z</time></trkpt><trkpt lat="43.715771383629544" lon="11.039245371141513"><ele>53.0</ele><time>2026-04-19T15:19:57Z</time></trkpt><trkpt lat="43.71565969950702" lon="11.039509130982546"><ele>53.0</ele><time>2026-04-19T15:19:58Z</time></trkpt><trkpt lat="43.71554102017667" lon="11.039770573763455"><ele>53.0</ele><time>2026-04-19T15:19:59Z</time></trkpt><trkpt lat="43.71542036582346" lon="11.040027553243194"><ele>55.0</ele><time>2026-04-19T15:20:00Z</time></trkpt><trkpt lat="43.715298558567675" lon="11.040283348852144"><ele>57.0</ele><time>2026-04-19T15:20:01Z</time></trkpt><trkpt lat="43.71517491805251" lon="11.040537540252993"><ele>59.0</ele><time>2026-04-19T15:20:02Z</time></trkpt><trkpt lat="43.71504936066621" lon="11.040793595147987"><ele>55.5</ele><time>2026-04-19T15:20:03Z</time></trkpt><trkpt lat="43.71492041939899" lon="11.041053311585841"><ele>52.0</ele><time>2026-04-19T15:20:04Z</time></trkpt><trkpt lat="43.71478790702256" lon="11.04132134466829"><ele>52.0</ele><time>2026-04-19T15:20:05Z</time></trkpt><trkpt lat="43.714654686069665" lon="11.041591961910672"><ele>52.0</ele><time>2026-04-19T15:20:06Z</time></trkpt><trkpt lat="43.714518300554765" lon="11.04186519714031"><ele>51.0</ele><time>2026-04-19T15:20:07Z</time></trkpt><trkpt lat="43.71438332630423" lon="11.042137017115373"><ele>50.0</ele><time>2026-04-19T15:20:08Z</time></trkpt><trkpt lat="43.71424930017766" lon="11.042408596506059"><ele>49.5</ele><time>2026-04-19T15:20:09Z</time></trkpt><trkpt lat="43.71411596346129" lon="11.042678353495086"><ele>49.0</ele><time>2026-04-19T15:20:10Z</time></trkpt><trkpt lat="43.71398535761849" lon="11.04294834393032"><ele>49.0</ele><time>2026-04-19T15:20:11Z</time></trkpt><trkpt lat="43.7138546881193" lon="11.043217307107046"><ele>49.0</ele><time>2026-04-19T15:20:12Z</time></trkpt><trkpt lat="43.71372315006224" lon="11.04348632074763"><ele>48.0</ele><time>2026-04-19T15:20:13Z</time></trkpt><trkpt lat="43.71359162293331" lon="11.043756505685147"><ele>47.0</ele><time>2026-04-19T15:20:14Z</time></trkpt><trkpt lat="43.713460756453806" lon="11.044028804389654"><ele>48.5</ele><time>2026-04-19T15:20:15Z</time></trkpt><trkpt lat="43.713333846205195" lon="11.044302889552853"><ele>50.0</ele><time>2026-04-19T15:20:16Z</time></trkpt><trkpt lat="43.71320614588286" lon="11.044579207849946"><ele>50.0</ele><time>2026-04-19T15:20:17Z</time></trkpt><trkpt lat="43.71307886560191" lon="11.0448539433017"><ele>50.0</ele><time>2026-04-19T15:20:18Z</time></trkpt><trkpt lat="43.712949611449346" lon="11.045127611000753"><ele>47.5</ele><time>2026-04-19T15:20:19Z</time></trkpt><trkpt lat="43.71281893197616" lon="11.045398877818332"><ele>45.0</ele><time>2026-04-19T15:20:20Z</time></trkpt><trkpt lat="43.712689086907254" lon="11.045672110601416"><ele>50.0</ele><time>2026-04-19T15:20:21Z</time></trkpt><trkpt lat="43.71256044620313" lon="11.045944138860177"><ele>55.0</ele><time>2026-04-19T15:20:22Z</time></trkpt><trkpt lat="43.712434666175454" lon="11.046219755174125"><ele>55.0</ele><time>2026-04-19T15:20:23Z</time></trkpt><trkpt lat="43.71231759475311" lon="11.046503204695805"><ele>55.0</ele><time>2026-04-19T15:20:24Z</time></trkpt><trkpt lat="43.71221227637879" lon="11.046795021626929"><ele>51.5</ele><time>2026-04-19T15:20:25Z</time></trkpt><trkpt lat="43.71211759133546" lon="11.047093822276281"><ele>48.0</ele><time>2026-04-19T15:20:26Z</time></trkpt><trkpt lat="43.71203362141295" lon="11.047398661826684"><ele>45.5</ele><time>2026-04-19T15:20:27Z</time></trkpt><trkpt lat="43.71196211922833" lon="11.047708431491088"><ele>43.0</ele><time>2026-04-19T15:20:28Z</time></trkpt><trkpt lat="43.711904193833774" lon="11.048024320780444"><ele>47.5</ele><time>2026-04-19T15:20:29Z</time></trkpt><trkpt lat="43.711853467007465" lon="11.048342433990921"><ele>52.0</ele><time>2026-04-19T15:20:30Z</time></trkpt><trkpt lat="43.71180566394125" lon="11.0486610779557"><ele>52.0</ele><time>2026-04-19T15:20:31Z</time></trkpt><trkpt lat="43.71176066180655" lon="11.048981875343715"><ele>52.0</ele><time>2026-04-19T15:20:32Z</time></trkpt><trkpt lat="43.711714393790324" lon="11.049302940788406"><ele>51.5</ele><time>2026-04-19T15:20:33Z</time></trkpt><trkpt lat="43.7116665249472" lon="11.049621539490694"><ele>51.0</ele><time>2026-04-19T15:20:34Z</time></trkpt><trkpt lat="43.71161857869403" lon="11.049929134985712"><ele>50.33333333333333</ele><time>2026-04-19T15:20:35Z</time></trkpt><trkpt lat="43.71157151805171" lon="11.050232284161783"><ele>49.666666666666664</ele><time>2026-04-19T15:20:36Z</time></trkpt><trkpt lat="43.7115304848133" lon="11.050529761530639"><ele>49.0</ele><time>2026-04-19T15:20:37Z</time></trkpt><trkpt lat="43.711492373590325" lon="11.050821068740559"><ele>49.0</ele><time>2026-04-19T15:20:38Z</time></trkpt><trkpt lat="43.71145845385606" lon="11.05111341207859"><ele>49.0</ele><time>2026-04-19T15:20:39Z</time></trkpt><trkpt lat="43.71143102516217" lon="11.051405806509782"><ele>49.0</ele><time>2026-04-19T15:20:40Z</time></trkpt><trkpt lat="43.711411529505064" lon="11.051699666762307"><ele>48.666666666666664</ele><time>2026-04-19T15:20:41Z</time></trkpt><trkpt lat="43.711398926327604" lon="11.051992550555568"><ele>48.33333333333333</ele><time>2026-04-19T15:20:42Z</time></trkpt><trkpt lat="43.7113895499037" lon="11.052281540131013"><ele>48.0</ele><time>2026-04-19T15:20:43Z</time></trkpt><trkpt lat="43.71138858358808" lon="11.052567854679964"><ele>47.666666666666664</ele><time>2026-04-19T15:20:44Z</time></trkpt><trkpt lat="43.71139823085163" lon="11.052852981188343"><ele>47.33333333333333</ele><time>2026-04-19T15:20:45Z</time></trkpt><trkpt lat="43.71141424083001" lon="11.05313425836434"><ele>47.0</ele><time>2026-04-19T15:20:46Z</time></trkpt><trkpt lat="43.71143902571304" lon="11.053413482303517"><ele>47.0</ele><time>2026-04-19T15:20:47Z</time></trkpt><trkpt lat="43.71147874502989" lon="11.053695905792974"><ele>47.0</ele><time>2026-04-19T15:20:48Z</time></trkpt><trkpt lat="43.7115261058833" lon="11.053985782753625"><ele>47.0</ele><time>2026-04-19T15:20:49Z</time></trkpt><trkpt lat="43.711578014150746" lon="11.054285654948037"><ele>47.0</ele><time>2026-04-19T15:20:50Z</time></trkpt><trkpt lat="43.71163099935118" lon="11.054594288066495"><ele>47.0</ele><time>2026-04-19T15:20:51Z</time></trkpt><trkpt lat="43.71168120193524" lon="11.054910947261748"><ele>47.5</ele><time>2026-04-19T15:20:52Z</time></trkpt><trkpt lat="43.711728320962344" lon="11.055236050946993"><ele>48.0</ele><time>2026-04-19T15:20:53Z</time></trkpt><trkpt lat="43.711773182535005" lon="11.055562271211619"><ele>47.5</ele><time>2026-04-19T15:20:54Z</time></trkpt><trkpt lat="43.711817197650745" lon="11.055881679615512"><ele>47.0</ele><time>2026-04-19T15:20:55Z</time></trkpt><trkpt lat="43.71186266731885" lon="11.056193941990093"><ele>47.666666666666664</ele><time>2026-04-19T15:20:56Z</time></trkpt><trkpt lat="43.71190724548546" lon="11.056498337650465"><ele>48.33333333333333</ele><time>2026-04-19T15:20:57Z</time></trkpt><trkpt lat="43.71195248412273" lon="11.056794932152197"><ele>49.0</ele><time>2026-04-19T15:20:58Z</time></trkpt><trkpt lat="43.71199974439603" lon="11.057084553936681"><ele>49.0</ele><time>2026-04-19T15:20:59Z</time></trkpt><trkpt lat="43.7120470129024" lon="11.057368204610379"><ele>49.0</ele><time>2026-04-19T15:21:00Z</time></trkpt><trkpt lat="43.71209287104367" lon="11.057642462632387"><ele>49.0</ele><time>2026-04-19T15:21:01Z</time></trkpt><trkpt lat="43.712138143651075" lon="11.057915825278219"><ele>49.666666666666664</ele><time>2026-04-19T15:21:02Z</time></trkpt><trkpt lat="43.71218265582515" lon="11.05818857675223"><ele>50.33333333333333</ele><time>2026-04-19T15:21:03Z</time></trkpt><trkpt lat="43.712220441497095" lon="11.058467291351933"><ele>51.0</ele><time>2026-04-19T15:21:04Z</time></trkpt><trkpt lat="43.71224825649375" lon="11.058748317168064"><ele>51.0</ele><time>2026-04-19T15:21:05Z</time></trkpt><trkpt lat="43.71227200535519" lon="11.059033850102425"><ele>51.0</ele><time>2026-04-19T15:21:06Z</time></trkpt><trkpt lat="43.71229025826801" lon="11.059320532369684"><ele>51.0</ele><time>2026-04-19T15:21:07Z</time></trkpt><trkpt lat="43.7123061128486" lon="11.059607708669498"><ele>50.66666666666667</ele><time>2026-04-19T15:21:08Z</time></trkpt><trkpt lat="43.712321660092385" lon="11.059896114160361"><ele>50.333333333333336</ele><time>2026-04-19T15:21:09Z</time></trkpt><trkpt lat="43.7123315593285" lon="11.060181057986712"><ele>50.0</ele><time>2026-04-19T15:21:10Z</time></trkpt><trkpt lat="43.71233594674518" lon="11.060468004736643"><ele>50.0</ele><time>2026-04-19T15:21:11Z</time></trkpt><trkpt lat="43.712335105300895" lon="11.06075454323314"><ele>50.0</ele><time>2026-04-19T15:21:12Z</time></trkpt><trkpt lat="43.71232778597334" lon="11.061043190153573"><ele>50.0</ele><time>2026-04-19T15:21:13Z</time></trkpt><trkpt lat="43.712315740891725" lon="11.06132816189628"><ele>50.333333333333336</ele><time>2026-04-19T15:21:14Z</time></trkpt><trkpt lat="43.71230222448543" lon="11.061611511299887"><ele>50.66666666666667</ele><time>2026-04-19T15:21:15Z</time></trkpt><trkpt lat="43.71228318317296" lon="11.061896999066809"><ele>51.0</ele><time>2026-04-19T15:21:16Z</time></trkpt><trkpt lat="43.712260105650216" lon="11.062179783037616"><ele>56.0</ele><time>2026-04-19T15:21:17Z</time></trkpt><trkpt lat="43.71222973267843" lon="11.062463725198342"><ele>61.0</ele><time>2026-04-19T15:21:18Z</time></trkpt><trkpt lat="43.71219284837603" lon="11.062745037687664"><ele>66.0</ele><time>2026-04-19T15:21:19Z</time></trkpt><trkpt lat="43.7121513183993" lon="11.063026257745658"><ele>69.33333333333333</ele><time>2026-04-19T15:21:20Z</time></trkpt><trkpt lat="43.712107505366546" lon="11.063307309108433"><ele>72.66666666666666</ele><time>2026-04-19T15:21:21Z</time></trkpt><trkpt lat="43.71206491770321" lon="11.063587995697782"><ele>76.0</ele><time>2026-04-19T15:21:22Z</time></trkpt><trkpt lat="43.71202235783192" lon="11.063869441451295"><ele>78.0</ele><time>2026-04-19T15:21:23Z</time></trkpt><trkpt lat="43.71198056260992" lon="11.06415079548269"><ele>80.0</ele><time>2026-04-19T15:21:24Z</time></trkpt><trkpt lat="43.71193737149497" lon="11.0644321044005"><ele>82.0</ele><time>2026-04-19T15:21:25Z</time></trkpt><trkpt lat="43.71189269225518" lon="11.064711480938973"><ele>75.0</ele><time>2026-04-19T15:21:26Z</time></trkpt><trkpt lat="43.711848127026464" lon="11.064990144911686"><ele>68.0</ele><time>2026-04-19T15:21:27Z</time></trkpt><trkpt lat="43.71180732131279" lon="11.06526935622908"><ele>61.0</ele><time>2026-04-19T15:21:28Z</time></trkpt><trkpt lat="43.71177403177074" lon="11.065551114166164"><ele>62.33333333333333</ele><time>2026-04-19T15:21:29Z</time></trkpt><trkpt lat="43.71175203790037" lon="11.065834206381089"><ele>63.66666666666667</ele><time>2026-04-19T15:21:30Z</time></trkpt><trkpt lat="43.71174080932026" lon="11.06611970002398"><ele>65.0</ele><time>2026-04-19T15:21:31Z</time></trkpt><trkpt lat="43.711738976389896" lon="11.06640692964455"><ele>66.0</ele><time>2026-04-19T15:21:32Z</time></trkpt><trkpt lat="43.71174684618967" lon="11.06669474478554"><ele>67.0</ele><time>2026-04-19T15:21:33Z</time></trkpt><trkpt lat="43.711765713785056" lon="11.066979938508336"><ele>68.0</ele><time>2026-04-19T15:21:34Z</time></trkpt><trkpt lat="43.71179553558019" lon="11.067266206561388"><ele>68.66666666666667</ele><time>2026-04-19T15:21:35Z</time></trkpt><trkpt lat="43.71183555517034" lon="11.0675487780391"><ele>69.33333333333333</ele><time>2026-04-19T15:21:36Z</time></trkpt><trkpt lat="43.71188653724418" lon="11.06782783297804"><ele>70.0</ele><time>2026-04-19T15:21:37Z</time></trkpt><trkpt lat="43.71194814816703" lon="11.068104299718652"><ele>71.33333333333333</ele><time>2026-04-19T15:21:38Z</time></trkpt><trkpt lat="43.71201810477995" lon="11.068377221454112"><ele>72.66666666666667</ele><time>2026-04-19T15:21:39Z</time></trkpt><trkpt lat="43.712097011302156" lon="11.068643643725194"><ele>74.0</ele><time>2026-04-19T15:21:40Z</time></trkpt><trkpt lat="43.712187235575634" lon="11.068902126652995"><ele>70.0</ele><time>2026-04-19T15:21:41Z</time></trkpt><trkpt lat="43.71228702614644" lon="11.069154813601974"><ele>66.0</ele><time>2026-04-19T15:21:42Z</time></trkpt><trkpt lat="43.712394462516855" lon="11.069400240016856"><ele>62.0</ele><time>2026-04-19T15:21:43Z</time></trkpt><trkpt lat="43.712509021302054" lon="11.0696387426665"><ele>62.0</ele><time>2026-04-19T15:21:44Z</time></trkpt><trkpt lat="43.71263331950191" lon="11.069868103172322"><ele>62.0</ele><time>2026-04-19T15:21:45Z</time></trkpt><trkpt lat="43.712767581534514" lon="11.070087602349204"><ele>62.0</ele><time>2026-04-19T15:21:46Z</time></trkpt><trkpt lat="43.71290959242594" lon="11.070297403813248"><ele>62.66666666666667</ele><time>2026-04-19T15:21:47Z</time></trkpt><trkpt lat="43.7130599341782" lon="11.070496261103603"><ele>63.33333333333333</ele><time>2026-04-19T15:21:48Z</time></trkpt><trkpt lat="43.713217140479784" lon="11.070684715290062"><ele>64.0</ele><time>2026-04-19T15:21:49Z</time></trkpt><trkpt lat="43.713381031877674" lon="11.070864076162929"><ele>65.66666666666666</ele><time>2026-04-19T15:21:50Z</time></trkpt><trkpt lat="43.7135485180192" lon="11.07103783783353"><ele>67.33333333333333</ele><time>2026-04-19T15:21:51Z</time></trkpt><trkpt lat="43.71371757548892" lon="11.071206597918204"><ele>69.0</ele><time>2026-04-19T15:21:52Z</time></trkpt><trkpt lat="43.713888556114554" lon="11.071372684422078"><ele>69.0</ele><time>2026-04-19T15:21:53Z</time></trkpt><trkpt lat="43.714058737209314" lon="11.071536315918246"><ele>69.0</ele><time>2026-04-19T15:21:54Z</time></trkpt><trkpt lat="43.714230594445546" lon="11.071700552378113"><ele>69.0</ele><time>2026-04-19T15:21:55Z</time></trkpt><trkpt lat="43.71440000989269" lon="11.071867880176146"><ele>70.0</ele><time>2026-04-19T15:21:56Z</time></trkpt><trkpt lat="43.71457411524746" lon="11.072036578173801"><ele>71.0</ele><time>2026-04-19T15:21:57Z</time></trkpt><trkpt lat="43.714749827348015" lon="11.072208538774612"><ele>72.0</ele><time>2026-04-19T15:21:58Z</time></trkpt><trkpt lat="43.71492681401489" lon="11.072378801245792"><ele>72.66666666666667</ele><time>2026-04-19T15:21:59Z</time></trkpt><trkpt lat="43.715103526444345" lon="11.072547842229802"><ele>73.33333333333334</ele><time>2026-04-19T15:22:00Z</time></trkpt><trkpt lat="43.71527898742129" lon="11.07271628616271"><ele>74.0</ele><time>2026-04-19T15:22:01Z</time></trkpt><trkpt lat="43.715453325925125" lon="11.072885528203265"><ele>74.0</ele><time>2026-04-19T15:22:02Z</time></trkpt><trkpt lat="43.71562707092185" lon="11.073055174882242"><ele>74.0</ele><time>2026-04-19T15:22:03Z</time></trkpt><trkpt lat="43.71579986205616" lon="11.073223070806483"><ele>74.0</ele><time>2026-04-19T15:22:04Z</time></trkpt><trkpt lat="43.71597276515309" lon="11.073389827308175"><ele>73.0</ele><time>2026-04-19T15:22:05Z</time></trkpt><trkpt lat="43.716146606073785" lon="11.073556993163184"><ele>72.0</ele><time>2026-04-19T15:22:06Z</time></trkpt><trkpt lat="43.71632029615877" lon="11.07372585739683"><ele>71.0</ele><time>2026-04-19T15:22:07Z</time></trkpt><trkpt lat="43.71649472976289" lon="11.073897826358074"><ele>71.0</ele><time>2026-04-19T15:22:08Z</time></trkpt><trkpt lat="43.71667378416241" lon="11.074071587434773"><ele>71.0</ele><time>2026-04-19T15:22:09Z</time></trkpt><trkpt lat="43.71685778416677" lon="11.074249572908652"><ele>71.0</ele><time>2026-04-19T15:22:10Z</time></trkpt><trkpt lat="43.7170461635586" lon="11.074431322423937"><ele>73.0</ele><time>2026-04-19T15:22:11Z</time></trkpt><trkpt lat="43.71723814251359" lon="11.074617088320071"><ele>75.0</ele><time>2026-04-19T15:22:12Z</time></trkpt><trkpt lat="43.7174308352363" lon="11.074801350592727"><ele>76.5</ele><time>2026-04-19T15:22:13Z</time></trkpt><trkpt lat="43.717622302709756" lon="11.074983188946492"><ele>78.0</ele><time>2026-04-19T15:22:14Z</time></trkpt><trkpt lat="43.71781341641814" lon="11.075165828901554"><ele>78.5</ele><time>2026-04-19T15:22:15Z</time></trkpt><trkpt lat="43.7180025853157" lon="11.075348459757112"><ele>79.0</ele><time>2026-04-19T15:22:16Z</time></trkpt><trkpt lat="43.718195615438425" lon="11.075532562988307"><ele>79.0</ele><time>2026-04-19T15:22:17Z</time></trkpt><trkpt lat="43.7183892300449" lon="11.075719126283866"><ele>79.0</ele><time>2026-04-19T15:22:18Z</time></trkpt><trkpt lat="43.71858376066685" lon="11.075907481658396"><ele>79.5</ele><time>2026-04-19T15:22:19Z</time></trkpt><trkpt lat="43.71877675493061" lon="11.076093458903419"><ele>80.0</ele><time>2026-04-19T15:22:20Z</time></trkpt><trkpt lat="43.71896808088827" lon="11.07627907976337"><ele>80.0</ele><time>2026-04-19T15:22:21Z</time></trkpt><trkpt lat="43.71915824022294" lon="11.076467071408578"><ele>80.0</ele><time>2026-04-19T15:22:22Z</time></trkpt><trkpt lat="43.71934549227979" lon="11.07665941725201"><ele>81.5</ele><time>2026-04-19T15:22:23Z</time></trkpt><trkpt lat="43.71952957629168" lon="11.076858126188192"><ele>83.0</ele><time>2026-04-19T15:22:24Z</time></trkpt><trkpt lat="43.71970938046974" lon="11.077060882685672"><ele>83.0</ele><time>2026-04-19T15:22:25Z</time></trkpt><trkpt lat="43.71988250903885" lon="11.077277460923233"><ele>83.0</ele><time>2026-04-19T15:22:26Z</time></trkpt><trkpt lat="43.7200459221537" lon="11.077507505633891"><ele>84.5</ele><time>2026-04-19T15:22:27Z</time></trkpt><trkpt lat="43.72020122785694" lon="11.07774866160408"><ele>86.0</ele><time>2026-04-19T15:22:28Z</time></trkpt><trkpt lat="43.72035020990375" lon="11.07799853437218"><ele>86.0</ele><time>2026-04-19T15:22:29Z</time></trkpt><trkpt lat="43.720491023186646" lon="11.078257097320005"><ele>86.0</ele><time>2026-04-19T15:22:30Z</time></trkpt><trkpt lat="43.7206243248302" lon="11.078524117956729"><ele>87.5</ele><time>2026-04-19T15:22:31Z</time></trkpt><trkpt lat="43.72075103020204" lon="11.07879669516664"><ele>89.0</ele><time>2026-04-19T15:22:32Z</time></trkpt><trkpt lat="43.7208757350305" lon="11.079070210870267"><ele>89.0</ele><time>2026-04-19T15:22:33Z</time></trkpt><trkpt lat="43.72099956910262" lon="11.07934463105287"><ele>89.0</ele><time>2026-04-19T15:22:34Z</time></trkpt><trkpt lat="43.721121819331124" lon="11.079621396555202"><ele>89.0</ele><time>2026-04-19T15:22:35Z</time></trkpt><trkpt lat="43.72124239333259" lon="11.07989777453576"><ele>89.0</ele><time>2026-04-19T15:22:36Z</time></trkpt><trkpt lat="43.72136399696703" lon="11.08017491407696"><ele>91.0</ele><time>2026-04-19T15:22:37Z</time></trkpt><trkpt lat="43.72148946280882" lon="11.080450599702612"><ele>93.0</ele><time>2026-04-19T15:22:38Z</time></trkpt><trkpt lat="43.72161441195339" lon="11.08072506346832"><ele>98.0</ele><time>2026-04-19T15:22:39Z</time></trkpt><trkpt lat="43.72173770485018" lon="11.081000558485965"><ele>103.0</ele><time>2026-04-19T15:22:40Z</time></trkpt><trkpt lat="43.72186096226473" lon="11.081277158415078"><ele>99.0</ele><time>2026-04-19T15:22:41Z</time></trkpt><trkpt lat="43.721983771227436" lon="11.081553766621491"><ele>95.0</ele><time>2026-04-19T15:22:42Z</time></trkpt><trkpt lat="43.72210682549655" lon="11.081830361921366"><ele>95.0</ele><time>2026-04-19T15:22:43Z</time></trkpt><trkpt lat="43.722228408335404" lon="11.082105672711394"><ele>95.0</ele><time>2026-04-19T15:22:44Z</time></trkpt><trkpt lat="43.722350215982885" lon="11.08238018074003"><ele>97.66666666666667</ele><time>2026-04-19T15:22:45Z</time></trkpt><trkpt lat="43.72246830850288" lon="11.082645659559363"><ele>100.33333333333334</ele><time>2026-04-19T15:22:46Z</time></trkpt><trkpt lat="43.72258374669108" lon="11.082903979471313"><ele>103.0</ele><time>2026-04-19T15:22:47Z</time></trkpt><trkpt lat="43.72269580350773" lon="11.083155256505306"><ele>101.33333333333334</ele><time>2026-04-19T15:22:48Z</time></trkpt><trkpt lat="43.72280577814813" lon="11.083401261596405"><ele>99.66666666666666</ele><time>2026-04-19T15:22:49Z</time></trkpt><trkpt lat="43.722910967615306" lon="11.083640098294875"><ele>98.0</ele><time>2026-04-19T15:22:50Z</time></trkpt><trkpt lat="43.723013241332836" lon="11.083874108290937"><ele>99.33333333333333</ele><time>2026-04-19T15:22:51Z</time></trkpt><trkpt lat="43.7231136306031" lon="11.084104028112904"><ele>100.66666666666666</ele><time>2026-04-19T15:22:52Z</time></trkpt><trkpt lat="43.72321357083882" lon="11.08433383217377"><ele>102.0</ele><time>2026-04-19T15:22:53Z</time></trkpt><trkpt lat="43.72331778952147" lon="11.084565840856483"><ele>102.0</ele><time>2026-04-19T15:22:54Z</time></trkpt><trkpt lat="43.7234241999744" lon="11.08480103079398"><ele>102.0</ele><time>2026-04-19T15:22:55Z</time></trkpt><trkpt lat="43.72353176059619" lon="11.085046436721756"><ele>102.0</ele><time>2026-04-19T15:22:56Z</time></trkpt><trkpt lat="43.723644176975995" lon="11.085296103929567"><ele>100.0</ele><time>2026-04-19T15:22:57Z</time></trkpt><trkpt lat="43.72375905550153" lon="11.085542393087781"><ele>98.0</ele><time>2026-04-19T15:22:58Z</time></trkpt><trkpt lat="43.7238678429828" lon="11.085783080388339"><ele>96.0</ele><time>2026-04-19T15:22:59Z</time></trkpt><trkpt lat="43.723970822425756" lon="11.086017914594205"><ele>100.33333333333334</ele><time>2026-04-19T15:23:00Z</time></trkpt><trkpt lat="43.72407163001605" lon="11.086246166040867"><ele>104.66666666666667</ele><time>2026-04-19T15:23:01Z</time></trkpt><trkpt lat="43.72416993558133" lon="11.086467812197414"><ele>109.0</ele><time>2026-04-19T15:23:02Z</time></trkpt><trkpt lat="43.724264656061045" lon="11.086683737316106"><ele>108.33333333333334</ele><time>2026-04-19T15:23:03Z</time></trkpt><trkpt lat="43.7243580717035" lon="11.086895310442529"><ele>107.66666666666666</ele><time>2026-04-19T15:23:04Z</time></trkpt><trkpt lat="43.72445024751215" lon="11.087105791870627"><ele>107.0</ele><time>2026-04-19T15:23:05Z</time></trkpt><trkpt lat="43.72454379361984" lon="11.087316727923316"><ele>106.66666666666666</ele><time>2026-04-19T15:23:06Z</time></trkpt><trkpt lat="43.72463884138093" lon="11.087529700486837"><ele>106.33333333333334</ele><time>2026-04-19T15:23:07Z</time></trkpt><trkpt lat="43.724735404643" lon="11.087743830208607"><ele>106.0</ele><time>2026-04-19T15:23:08Z</time></trkpt><trkpt lat="43.72483308141256" lon="11.087958847177797"><ele>106.0</ele><time>2026-04-19T15:23:09Z</time></trkpt><trkpt lat="43.724931893311975" lon="11.088174851033061"><ele>106.0</ele><time>2026-04-19T15:23:10Z</time></trkpt><trkpt lat="43.72503019584564" lon="11.088392295677156"><ele>106.0</ele><time>2026-04-19T15:23:11Z</time></trkpt><trkpt lat="43.725127847441335" lon="11.088610090276886"><ele>105.66666666666667</ele><time>2026-04-19T15:23:12Z</time></trkpt><trkpt lat="43.725223523237446" lon="11.08882689751457"><ele>105.33333333333334</ele><time>2026-04-19T15:23:13Z</time></trkpt><trkpt lat="43.72532004499008" lon="11.089043352404367"><ele>105.0</ele><time>2026-04-19T15:23:14Z</time></trkpt><trkpt lat="43.72541590627838" lon="11.089261264014398"><ele>107.0</ele><time>2026-04-19T15:23:15Z</time></trkpt><trkpt lat="43.72551200914926" lon="11.089477211627207"><ele>109.0</ele><time>2026-04-19T15:23:16Z</time></trkpt><trkpt lat="43.725607494907784" lon="11.08969548089642"><ele>111.0</ele><time>2026-04-19T15:23:17Z</time></trkpt><trkpt lat="43.725702057598404" lon="11.089913045515138"><ele>114.66666666666666</ele><time>2026-04-19T15:23:18Z</time></trkpt><trkpt lat="43.72579665671036" lon="11.090130629879502"><ele>118.33333333333333</ele><time>2026-04-19T15:23:19Z</time></trkpt><trkpt lat="43.725892870028936" lon="11.090346901789125"><ele>122.0</ele><time>2026-04-19T15:23:20Z</time></trkpt><trkpt lat="43.725989685433014" lon="11.090563098720768"><ele>119.0</ele><time>2026-04-19T15:23:21Z</time></trkpt><trkpt lat="43.726088549824524" lon="11.0907780295857"><ele>116.0</ele><time>2026-04-19T15:23:22Z</time></trkpt><trkpt lat="43.72618644116547" lon="11.090992910099558"><ele>113.0</ele><time>2026-04-19T15:23:23Z</time></trkpt><trkpt lat="43.726283301845356" lon="11.091209522956635"><ele>113.0</ele><time>2026-04-19T15:23:24Z</time></trkpt><trkpt lat="43.72637896101397" lon="11.091428645479581"><ele>113.0</ele><time>2026-04-19T15:23:25Z</time></trkpt><trkpt lat="43.7264765553009" lon="11.091651829116772"><ele>113.0</ele><time>2026-04-19T15:23:26Z</time></trkpt><trkpt lat="43.72657572638207" lon="11.09187930298363"><ele>114.0</ele><time>2026-04-19T15:23:27Z</time></trkpt><trkpt lat="43.72667943902996" lon="11.09211064216086"><ele>115.0</ele><time>2026-04-19T15:23:28Z</time></trkpt><trkpt lat="43.72678590761292" lon="11.092344685157627"><ele>116.0</ele><time>2026-04-19T15:23:29Z</time></trkpt><trkpt lat="43.726895550067226" lon="11.092584384339151"><ele>118.0</ele><time>2026-04-19T15:23:30Z</time></trkpt><trkpt lat="43.72700482494572" lon="11.09282512734545"><ele>120.0</ele><time>2026-04-19T15:23:31Z</time></trkpt><trkpt lat="43.72711155137252" lon="11.09306625911822"><ele>122.0</ele><time>2026-04-19T15:23:32Z</time></trkpt><trkpt lat="43.72721740441508" lon="11.093306810905876"><ele>124.33333333333333</ele><time>2026-04-19T15:23:33Z</time></trkpt><trkpt lat="43.72732183366922" lon="11.093544983726531"><ele>126.66666666666666</ele><time>2026-04-19T15:23:34Z</time></trkpt><trkpt lat="43.72742644047244" lon="11.093780996802483"><ele>129.0</ele><time>2026-04-19T15:23:35Z</time></trkpt><trkpt lat="43.727530341774994" lon="11.094015945344113"><ele>127.66666666666666</ele><time>2026-04-19T15:23:36Z</time></trkpt><trkpt lat="43.72763477274401" lon="11.094251431065604"><ele>126.33333333333333</ele><time>2026-04-19T15:23:37Z</time></trkpt><trkpt lat="43.72774006992311" lon="11.094486139600095"><ele>125.0</ele><time>2026-04-19T15:23:38Z</time></trkpt><trkpt lat="43.727845383716584" lon="11.094721790491164"><ele>127.66666666666666</ele><time>2026-04-19T15:23:39Z</time></trkpt><trkpt lat="43.72795100161087" lon="11.094956856177246"><ele>130.33333333333334</ele><time>2026-04-19T15:23:40Z</time></trkpt><trkpt lat="43.72805864468789" lon="11.095192129744678"><ele>133.0</ele><time>2026-04-19T15:23:41Z</time></trkpt><trkpt lat="43.72816503367328" lon="11.095427139275436"><ele>133.0</ele><time>2026-04-19T15:23:42Z</time></trkpt><trkpt lat="43.728270343990665" lon="11.095662999643993"><ele>133.0</ele><time>2026-04-19T15:23:43Z</time></trkpt><trkpt lat="43.72837388138251" lon="11.09590043119335"><ele>133.0</ele><time>2026-04-19T15:23:44Z</time></trkpt><trkpt lat="43.72847825753559" lon="11.096136826341528"><ele>132.66666666666669</ele><time>2026-04-19T15:23:45Z</time></trkpt><trkpt lat="43.72858299900098" lon="11.096371522530001"><ele>132.33333333333334</ele><time>2026-04-19T15:23:46Z</time></trkpt><trkpt lat="43.72868931479422" lon="11.09660824946955"><ele>132.0</ele><time>2026-04-19T15:23:47Z</time></trkpt><trkpt lat="43.72879666528028" lon="11.096843875269588"><ele>134.66666666666666</ele><time>2026-04-19T15:23:48Z</time></trkpt><trkpt lat="43.72890560355583" lon="11.0970781724576"><ele>137.33333333333331</ele><time>2026-04-19T15:23:49Z</time></trkpt><trkpt lat="43.72901737481117" lon="11.097312246137161"><ele>140.0</ele><time>2026-04-19T15:23:50Z</time></trkpt><trkpt lat="43.72913293620993" lon="11.097540489280979"><ele>138.66666666666666</ele><time>2026-04-19T15:23:51Z</time></trkpt><trkpt lat="43.7292547655368" lon="11.097763351322948"><ele>137.33333333333334</ele><time>2026-04-19T15:23:52Z</time></trkpt><trkpt lat="43.72938247077813" lon="11.097980633131652"><ele>136.0</ele><time>2026-04-19T15:23:53Z</time></trkpt><trkpt lat="43.72951370776669" lon="11.098192588791024"><ele>138.66666666666669</ele><time>2026-04-19T15:23:54Z</time></trkpt><trkpt lat="43.72964916484601" lon="11.098401542281149"><ele>141.33333333333334</ele><time>2026-04-19T15:23:55Z</time></trkpt><trkpt lat="43.729785744347204" lon="11.098607116615137"><ele>144.0</ele><time>2026-04-19T15:23:56Z</time></trkpt><trkpt lat="43.72992177132101" lon="11.098813863189008"><ele>144.0</ele><time>2026-04-19T15:23:57Z</time></trkpt><trkpt lat="43.730055925632854" lon="11.099021335820305"><ele>144.0</ele><time>2026-04-19T15:23:58Z</time></trkpt><trkpt lat="43.73018806531448" lon="11.099230662781546"><ele>144.0</ele><time>2026-04-19T15:23:59Z</time></trkpt><trkpt lat="43.730320313942684" lon="11.09944229525975"><ele>145.0</ele><time>2026-04-19T15:24:00Z</time></trkpt><trkpt lat="43.730454381221826" lon="11.09965065247591"><ele>146.0</ele><time>2026-04-19T15:24:01Z</time></trkpt><trkpt lat="43.73058826529685" lon="11.099858867148898"><ele>147.0</ele><time>2026-04-19T15:24:02Z</time></trkpt><trkpt lat="43.73072120479302" lon="11.100066061095898"><ele>147.0</ele><time>2026-04-19T15:24:03Z</time></trkpt><trkpt lat="43.730853083794074" lon="11.100273419367504"><ele>147.0</ele><time>2026-04-19T15:24:04Z</time></trkpt><trkpt lat="43.730986991534714" lon="11.100480799420835"><ele>147.0</ele><time>2026-04-19T15:24:05Z</time></trkpt><trkpt lat="43.73111934459903" lon="11.100690224066884"><ele>149.0</ele><time>2026-04-19T15:24:06Z</time></trkpt><trkpt lat="43.73125083373446" lon="11.100900566995577"><ele>151.0</ele><time>2026-04-19T15:24:07Z</time></trkpt><trkpt lat="43.73137938605584" lon="11.101113650931989"><ele>153.0</ele><time>2026-04-19T15:24:08Z</time></trkpt><trkpt lat="43.731505948833316" lon="11.101328708486957"><ele>153.0</ele><time>2026-04-19T15:24:09Z</time></trkpt><trkpt lat="43.73163138245949" lon="11.101545993061485"><ele>153.0</ele><time>2026-04-19T15:24:10Z</time></trkpt><trkpt lat="43.73175342561423" lon="11.101766400051115"><ele>153.0</ele><time>2026-04-19T15:24:11Z</time></trkpt><trkpt lat="43.731873517678956" lon="11.101989168979792"><ele>155.66666666666666</ele><time>2026-04-19T15:24:12Z</time></trkpt><trkpt lat="43.731992034659065" lon="11.102212670963628"><ele>158.33333333333331</ele><time>2026-04-19T15:24:13Z</time></trkpt><trkpt lat="43.73210974956463" lon="11.10243816060704"><ele>161.0</ele><time>2026-04-19T15:24:14Z</time></trkpt><trkpt lat="43.732227091514005" lon="11.102664526092754"><ele>161.33333333333331</ele><time>2026-04-19T15:24:15Z</time></trkpt><trkpt lat="43.73234422367355" lon="11.10289239597587"><ele>161.66666666666666</ele><time>2026-04-19T15:24:16Z</time></trkpt><trkpt lat="43.73246298819703" lon="11.103118547895166"><ele>162.0</ele><time>2026-04-19T15:24:17Z</time></trkpt><trkpt lat="43.732580816420494" lon="11.103342792642673"><ele>161.33333333333334</ele><time>2026-04-19T15:24:18Z</time></trkpt><trkpt lat="43.73269748119598" lon="11.1035673705447"><ele>160.66666666666669</ele><time>2026-04-19T15:24:19Z</time></trkpt><trkpt lat="43.732813563055245" lon="11.103793496992953"><ele>160.0</ele><time>2026-04-19T15:24:20Z</time></trkpt><trkpt lat="43.732930467890206" lon="11.10401787104113"><ele>161.66666666666669</ele><time>2026-04-19T15:24:21Z</time></trkpt><trkpt lat="43.733050014129915" lon="11.104240020717702"><ele>163.33333333333334</ele><time>2026-04-19T15:24:22Z</time></trkpt><trkpt lat="43.73318099569103" lon="11.104453185091897"><ele>165.0</ele><time>2026-04-19T15:24:23Z</time></trkpt><trkpt lat="43.73331951356061" lon="11.104657133266166"><ele>165.0</ele><time>2026-04-19T15:24:24Z</time></trkpt><trkpt lat="43.73346265690754" lon="11.104855208140739"><ele>165.0</ele><time>2026-04-19T15:24:25Z</time></trkpt><trkpt lat="43.73361164662678" lon="11.105046681925359"><ele>165.0</ele><time>2026-04-19T15:24:26Z</time></trkpt><trkpt lat="43.733765428831205" lon="11.105230606634251"><ele>165.66666666666666</ele><time>2026-04-19T15:24:27Z</time></trkpt><trkpt lat="43.73392382998308" lon="11.10540611237671"><ele>166.33333333333331</ele><time>2026-04-19T15:24:28Z</time></trkpt><trkpt lat="43.7340889566017" lon="11.105570806996234"><ele>167.0</ele><time>2026-04-19T15:24:29Z</time></trkpt><trkpt lat="43.73425893740149" lon="11.1057251207345"><ele>163.66666666666666</ele><time>2026-04-19T15:24:30Z</time></trkpt><trkpt lat="43.73443309311422" lon="11.10587194206138"><ele>160.33333333333334</ele><time>2026-04-19T15:24:31Z</time></trkpt><trkpt lat="43.734609232238284" lon="11.106015642400532"><ele>157.0</ele><time>2026-04-19T15:24:32Z</time></trkpt><trkpt lat="43.734783701656774" lon="11.106159074291874"><ele>157.0</ele><time>2026-04-19T15:24:33Z</time></trkpt><trkpt lat="43.734960024821" lon="11.106300975213776"><ele>157.0</ele><time>2026-04-19T15:24:34Z</time></trkpt><trkpt lat="43.73513586974026" lon="11.106441982966446"><ele>157.0</ele><time>2026-04-19T15:24:35Z</time></trkpt><trkpt lat="43.73531167485134" lon="11.10658030288738"><ele>155.66666666666669</ele><time>2026-04-19T15:24:36Z</time></trkpt><trkpt lat="43.7354867183423" lon="11.106720108262023"><ele>154.33333333333334</ele><time>2026-04-19T15:24:37Z</time></trkpt><trkpt lat="43.73566090249753" lon="11.106857556905277"><ele>153.0</ele><time>2026-04-19T15:24:38Z</time></trkpt><trkpt lat="43.73583038474701" lon="11.107006591961612"><ele>153.0</ele><time>2026-04-19T15:24:39Z</time></trkpt><trkpt lat="43.73599536719263" lon="11.10716215786087"><ele>153.0</ele><time>2026-04-19T15:24:40Z</time></trkpt><trkpt lat="43.73615835057294" lon="11.107328062799489"><ele>153.0</ele><time>2026-04-19T15:24:41Z</time></trkpt><trkpt lat="43.73631372479591" lon="11.10750510394837"><ele>153.0</ele><time>2026-04-19T15:24:42Z</time></trkpt><trkpt lat="43.73646350403831" lon="11.107691556881047"><ele>153.0</ele><time>2026-04-19T15:24:43Z</time></trkpt><trkpt lat="43.73660648871036" lon="11.107888089630126"><ele>153.0</ele><time>2026-04-19T15:24:44Z</time></trkpt><trkpt lat="43.73674156599344" lon="11.108094937805664"><ele>152.33333333333334</ele><time>2026-04-19T15:24:45Z</time></trkpt><trkpt lat="43.7368726213303" lon="11.108308550586795"><ele>151.66666666666669</ele><time>2026-04-19T15:24:46Z</time></trkpt><trkpt lat="43.73700078301575" lon="11.10852518104894"><ele>151.0</ele><time>2026-04-19T15:24:47Z</time></trkpt><trkpt lat="43.73712910886175" lon="11.108742898503163"><ele>150.33333333333334</ele><time>2026-04-19T15:24:48Z</time></trkpt><trkpt lat="43.73725232376891" lon="11.108963181371443"><ele>149.66666666666666</ele><time>2026-04-19T15:24:49Z</time></trkpt><trkpt lat="43.7373748573772" lon="11.109185073958827"><ele>149.0</ele><time>2026-04-19T15:24:50Z</time></trkpt><trkpt lat="43.73749987389124" lon="11.10940523387793"><ele>149.0</ele><time>2026-04-19T15:24:51Z</time></trkpt><trkpt lat="43.7376254286204" lon="11.109623765600737"><ele>149.0</ele><time>2026-04-19T15:24:52Z</time></trkpt><trkpt lat="43.737750169100195" lon="11.109840281416615"><ele>149.0</ele><time>2026-04-19T15:24:53Z</time></trkpt><trkpt lat="43.737874663455585" lon="11.11005804477657"><ele>148.0</ele><time>2026-04-19T15:24:54Z</time></trkpt><trkpt lat="43.73799822852014" lon="11.110275655916036"><ele>147.0</ele><time>2026-04-19T15:24:55Z</time></trkpt><trkpt lat="43.73812051745783" lon="11.110494345283257"><ele>146.0</ele><time>2026-04-19T15:24:56Z</time></trkpt><trkpt lat="43.73808630416143" lon="11.110914217873473"><ele>146.0</ele><time>2026-04-19T15:24:57Z</time></trkpt><trkpt lat="43.73821921839001" lon="11.111111455684124"><ele>146.0</ele><time>2026-04-19T15:24:58Z</time></trkpt><trkpt lat="43.73834721797786" lon="11.111315110194479"><ele>146.0</ele><time>2026-04-19T15:24:59Z</time></trkpt><trkpt lat="43.73847903199238" lon="11.111528388854785"><ele>148.66666666666666</ele><time>2026-04-19T15:25:00Z</time></trkpt><trkpt lat="43.73861155247059" lon="11.111738432411409"><ele>151.33333333333334</ele><time>2026-04-19T15:25:01Z</time></trkpt><trkpt lat="43.738744015807086" lon="11.111948385395586"><ele>154.0</ele><time>2026-04-19T15:25:02Z</time></trkpt><trkpt lat="43.738876290793534" lon="11.112158039851403"><ele>154.0</ele><time>2026-04-19T15:25:03Z</time></trkpt><trkpt lat="43.73900065516451" lon="11.112361658442412"><ele>154.0</ele><time>2026-04-19T15:25:04Z</time></trkpt><trkpt lat="43.739121041689486" lon="11.11257927140825"><ele>154.0</ele><time>2026-04-19T15:25:05Z</time></trkpt><trkpt lat="43.7392407254854" lon="11.112802568559376"><ele>154.66666666666669</ele><time>2026-04-19T15:25:06Z</time></trkpt><trkpt lat="43.739360251266355" lon="11.11302557083001"><ele>155.33333333333334</ele><time>2026-04-19T15:25:07Z</time></trkpt><trkpt lat="43.739480375007105" lon="11.11324968847276"><ele>156.0</ele><time>2026-04-19T15:25:08Z</time></trkpt><trkpt lat="43.73960002445323" lon="11.113472921212885"><ele>156.0</ele><time>2026-04-19T15:25:09Z</time></trkpt><trkpt lat="43.739860760102744" lon="11.113554578171884"><ele>156.0</ele><time>2026-04-19T15:25:10Z</time></trkpt><trkpt lat="43.73998601700879" lon="11.113773699776718"><ele>156.0</ele><time>2026-04-19T15:25:11Z</time></trkpt><trkpt lat="43.740110846445795" lon="11.11399233336197"><ele>156.0</ele><time>2026-04-19T15:25:12Z</time></trkpt><trkpt lat="43.740237555874906" lon="11.114211662196425"><ele>156.0</ele><time>2026-04-19T15:25:13Z</time></trkpt><trkpt lat="43.74036617345482" lon="11.114431223821837"><ele>155.66666666666666</ele><time>2026-04-19T15:25:14Z</time></trkpt><trkpt lat="43.74049849087467" lon="11.114658261547547"><ele>155.33333333333331</ele><time>2026-04-19T15:25:15Z</time></trkpt><trkpt lat="43.74063124998621" lon="11.114892706930124"><ele>155.0</ele><time>2026-04-19T15:25:16Z</time></trkpt><trkpt lat="43.74076743522995" lon="11.115127757920673"><ele>155.0</ele><time>2026-04-19T15:25:17Z</time></trkpt><trkpt lat="43.74090487072276" lon="11.115359690956975"><ele>155.0</ele><time>2026-04-19T15:25:18Z</time></trkpt><trkpt lat="43.74104623595186" lon="11.115586407564221"><ele>155.0</ele><time>2026-04-19T15:25:19Z</time></trkpt><trkpt lat="43.74119230455352" lon="11.115806318053382"><ele>155.0</ele><time>2026-04-19T15:25:20Z</time></trkpt><trkpt lat="43.741343278847694" lon="11.116017098957425"><ele>155.0</ele><time>2026-04-19T15:25:21Z</time></trkpt><trkpt lat="43.74149790262646" lon="11.116222441035749"><ele>155.0</ele><time>2026-04-19T15:25:22Z</time></trkpt><trkpt lat="43.74165531100124" lon="11.11642529422064"><ele>155.0</ele><time>2026-04-19T15:25:23Z</time></trkpt><trkpt lat="43.7418134228182" lon="11.116626238831893"><ele>155.0</ele><time>2026-04-19T15:25:24Z</time></trkpt><trkpt lat="43.741971156098515" lon="11.116828195225493"><ele>155.0</ele><time>2026-04-19T15:25:25Z</time></trkpt><trkpt lat="43.742128232482145" lon="11.117031425193034"><ele>155.0</ele><time>2026-04-19T15:25:26Z</time></trkpt><trkpt lat="43.74228545663224" lon="11.11723457442711"><ele>155.0</ele><time>2026-04-19T15:25:27Z</time></trkpt><trkpt lat="43.74244192314001" lon="11.117437567114912"><ele>155.0</ele><time>2026-04-19T15:25:28Z</time></trkpt><trkpt lat="43.74259796983215" lon="11.117639327108948"><ele>154.33333333333331</ele><time>2026-04-19T15:25:29Z</time></trkpt><trkpt lat="43.74275448307722" lon="11.117841235951587"><ele>153.66666666666666</ele><time>2026-04-19T15:25:30Z</time></trkpt><trkpt lat="43.74291092744576" lon="11.11804182939988"><ele>153.0</ele><time>2026-04-19T15:25:31Z</time></trkpt><trkpt lat="43.743068044332304" lon="11.11824327283424"><ele>151.0</ele><time>2026-04-19T15:25:32Z</time></trkpt><trkpt lat="43.74322401416427" lon="11.11844467677108"><ele>149.0</ele><time>2026-04-19T15:25:33Z</time></trkpt><trkpt lat="43.74338009475065" lon="11.118641828051874"><ele>147.0</ele><time>2026-04-19T15:25:34Z</time></trkpt><trkpt lat="43.74354319655968" lon="11.118826564550675"><ele>148.33333333333334</ele><time>2026-04-19T15:25:35Z</time></trkpt><trkpt lat="43.743711905902934" lon="11.119004086638673"><ele>149.66666666666669</ele><time>2026-04-19T15:25:36Z</time></trkpt><trkpt lat="43.743882979137005" lon="11.119177256314538"><ele>151.0</ele><time>2026-04-19T15:25:37Z</time></trkpt><trkpt lat="43.744057449565574" lon="11.119345364221006"><ele>148.66666666666669</ele><time>2026-04-19T15:25:38Z</time></trkpt><trkpt lat="43.74423433633668" lon="11.119505441621518"><ele>146.33333333333334</ele><time>2026-04-19T15:25:39Z</time></trkpt><trkpt lat="43.7444151352678" lon="11.119656463220032"><ele>144.0</ele><time>2026-04-19T15:25:40Z</time></trkpt><trkpt lat="43.74460043380434" lon="11.119796548404459"><ele>140.33333333333334</ele><time>2026-04-19T15:25:41Z</time></trkpt><trkpt lat="43.74478910974322" lon="11.119927981355756"><ele>136.66666666666669</ele><time>2026-04-19T15:25:42Z</time></trkpt><trkpt lat="43.744981887854046" lon="11.120051160122108"><ele>133.0</ele><time>2026-04-19T15:25:43Z</time></trkpt><trkpt lat="43.74517566702089" lon="11.12016585213024"><ele>129.33333333333334</ele><time>2026-04-19T15:25:44Z</time></trkpt><trkpt lat="43.745372012417796" lon="11.120273223036039"><ele>125.66666666666666</ele><time>2026-04-19T15:25:45Z</time></trkpt><trkpt lat="43.74557150476289" lon="11.120369284735405"><ele>122.0</ele><time>2026-04-19T15:25:46Z</time></trkpt><trkpt lat="43.7457735697014" lon="11.120456627389837"><ele>122.0</ele><time>2026-04-19T15:25:47Z</time></trkpt><trkpt lat="43.74598019688161" lon="11.120543096341141"><ele>122.0</ele><time>2026-04-19T15:25:48Z</time></trkpt><trkpt lat="43.74618157674595" lon="11.120620928047044"><ele>122.0</ele><time>2026-04-19T15:25:49Z</time></trkpt><trkpt lat="43.74638690569982" lon="11.120697535547366"><ele>119.66666666666666</ele><time>2026-04-19T15:25:50Z</time></trkpt><trkpt lat="43.74659169074045" lon="11.120772137436342"><ele>117.33333333333334</ele><time>2026-04-19T15:25:51Z</time></trkpt><trkpt lat="43.746794006706466" lon="11.120848741624616"><ele>115.0</ele><time>2026-04-19T15:25:52Z</time></trkpt><trkpt lat="43.7469948169307" lon="11.120935414692383"><ele>119.66666666666667</ele><time>2026-04-19T15:25:53Z</time></trkpt><trkpt lat="43.747192874469825" lon="11.121026057603938"><ele>124.33333333333334</ele><time>2026-04-19T15:25:54Z</time></trkpt><trkpt lat="43.7473895067558" lon="11.121125515438763"><ele>129.0</ele><time>2026-04-19T15:25:55Z</time></trkpt><trkpt lat="43.74758367720081" lon="11.121238277519968"><ele>126.66666666666666</ele><time>2026-04-19T15:25:56Z</time></trkpt><trkpt lat="43.74777228723082" lon="11.121367440369074"><ele>124.33333333333333</ele><time>2026-04-19T15:25:57Z</time></trkpt><trkpt lat="43.74795774898964" lon="11.12150913130975"><ele>122.0</ele><time>2026-04-19T15:25:58Z</time></trkpt><trkpt lat="43.74814148585047" lon="11.121658778671462"><ele>122.0</ele><time>2026-04-19T15:25:59Z</time></trkpt><trkpt lat="43.74831844930395" lon="11.12181390001779"><ele>122.0</ele><time>2026-04-19T15:26:00Z</time></trkpt><trkpt lat="43.74848796782167" lon="11.121963813343847"><ele>122.0</ele><time>2026-04-19T15:26:01Z</time></trkpt><trkpt lat="43.748658262517345" lon="11.122117058374648"><ele>122.33333333333333</ele><time>2026-04-19T15:26:02Z</time></trkpt><trkpt lat="43.748827269204796" lon="11.122269338519514"><ele>122.66666666666666</ele><time>2026-04-19T15:26:03Z</time></trkpt><trkpt lat="43.74899611379309" lon="11.122421174714415"><ele>123.0</ele><time>2026-04-19T15:26:04Z</time></trkpt><trkpt lat="43.74916495290467" lon="11.122570362686218"><ele>119.66666666666666</ele><time>2026-04-19T15:26:05Z</time></trkpt><trkpt lat="43.74933335412459" lon="11.122717244426024"><ele>116.33333333333333</ele><time>2026-04-19T15:26:06Z</time></trkpt><trkpt lat="43.749500476715504" lon="11.122864165811766"><ele>113.0</ele><time>2026-04-19T15:26:07Z</time></trkpt><trkpt lat="43.74967042136554" lon="11.123014340064042"><ele>113.0</ele><time>2026-04-19T15:26:08Z</time></trkpt><trkpt lat="43.749843201553475" lon="11.12316604559564"><ele>113.0</ele><time>2026-04-19T15:26:09Z</time></trkpt><trkpt lat="43.750015988123856" lon="11.123321219317923"><ele>113.0</ele><time>2026-04-19T15:26:10Z</time></trkpt><trkpt lat="43.7501879043048" lon="11.123478347271893"><ele>112.0</ele><time>2026-04-19T15:26:11Z</time></trkpt><trkpt lat="43.75036086417753" lon="11.123634377020336"><ele>111.0</ele><time>2026-04-19T15:26:12Z</time></trkpt><trkpt lat="43.750535864104656" lon="11.123785621161552"><ele>110.0</ele><time>2026-04-19T15:26:13Z</time></trkpt><trkpt lat="43.75071038546823" lon="11.123936490978984"><ele>110.0</ele><time>2026-04-19T15:26:14Z</time></trkpt><trkpt lat="43.750883348402915" lon="11.124087817304055"><ele>110.0</ele><time>2026-04-19T15:26:15Z</time></trkpt><trkpt lat="43.75105529012687" lon="11.124240244777617"><ele>110.0</ele><time>2026-04-19T15:26:16Z</time></trkpt><trkpt lat="43.75122648876463" lon="11.124390973192183"><ele>110.0</ele><time>2026-04-19T15:26:17Z</time></trkpt><trkpt lat="43.751400295424176" lon="11.124535005485818"><ele>110.0</ele><time>2026-04-19T15:26:18Z</time></trkpt><trkpt lat="43.7515811484802" lon="11.124687181672824"><ele>110.0</ele><time>2026-04-19T15:26:19Z</time></trkpt><trkpt lat="43.751766986893216" lon="11.124841296065043"><ele>106.66666666666666</ele><time>2026-04-19T15:26:20Z</time></trkpt><trkpt lat="43.751956557356024" lon="11.124997710747392"><ele>103.33333333333334</ele><time>2026-04-19T15:26:21Z</time></trkpt><trkpt lat="43.75214662054885" lon="11.125160143400795"><ele>100.0</ele><time>2026-04-19T15:26:22Z</time></trkpt><trkpt lat="43.75233547182597" lon="11.125330342951939"><ele>100.0</ele><time>2026-04-19T15:26:23Z</time></trkpt><trkpt lat="43.75252852792143" lon="11.12549683437024"><ele>100.0</ele><time>2026-04-19T15:26:24Z</time></trkpt><trkpt lat="43.75272604135211" lon="11.125652625453013"><ele>97.33333333333334</ele><time>2026-04-19T15:26:25Z</time></trkpt><trkpt lat="43.75292610910676" lon="11.12579755053876"><ele>94.66666666666667</ele><time>2026-04-19T15:26:26Z</time></trkpt><trkpt lat="43.75312721802665" lon="11.125933019427848"><ele>92.0</ele><time>2026-04-19T15:26:27Z</time></trkpt><trkpt lat="43.753330051675626" lon="11.126055393128206"><ele>92.0</ele><time>2026-04-19T15:26:28Z</time></trkpt><trkpt lat="43.753536254254854" lon="11.126163725642098"><ele>92.0</ele><time>2026-04-19T15:26:29Z</time></trkpt><trkpt lat="43.753745820629256" lon="11.126257629505238"><ele>92.0</ele><time>2026-04-19T15:26:30Z</time></trkpt><trkpt lat="43.753957641741195" lon="11.126335575391442"><ele>91.66666666666667</ele><time>2026-04-19T15:26:31Z</time></trkpt><trkpt lat="43.75417087187541" lon="11.126397810960897"><ele>91.33333333333333</ele><time>2026-04-19T15:26:32Z</time></trkpt><trkpt lat="43.754383960885576" lon="11.126444873668513"><ele>91.0</ele><time>2026-04-19T15:26:33Z</time></trkpt><trkpt lat="43.75459681379884" lon="11.126476546740369"><ele>91.0</ele><time>2026-04-19T15:26:34Z</time></trkpt><trkpt lat="43.75480854632747" lon="11.126504727960654"><ele>91.0</ele><time>2026-04-19T15:26:35Z</time></trkpt><trkpt lat="43.75501913461991" lon="11.126531764505168"><ele>91.0</ele><time>2026-04-19T15:26:36Z</time></trkpt><trkpt lat="43.75522781861158" lon="11.12655870420404"><ele>85.0</ele><time>2026-04-19T15:26:37Z</time></trkpt><trkpt lat="43.75543610300978" lon="11.126584277737416"><ele>79.0</ele><time>2026-04-19T15:26:38Z</time></trkpt><trkpt lat="43.755643086887495" lon="11.126607243907442"><ele>73.0</ele><time>2026-04-19T15:26:39Z</time></trkpt><trkpt lat="43.75584943873925" lon="11.126628352577526"><ele>72.66666666666666</ele><time>2026-04-19T15:26:40Z</time></trkpt><trkpt lat="43.75605470189943" lon="11.126652533986919"><ele>72.33333333333333</ele><time>2026-04-19T15:26:41Z</time></trkpt><trkpt lat="43.75625944346019" lon="11.12667606730869"><ele>72.0</ele><time>2026-04-19T15:26:42Z</time></trkpt><trkpt lat="43.7564667351588" lon="11.126699459678568"><ele>72.0</ele><time>2026-04-19T15:26:43Z</time></trkpt><trkpt lat="43.756675784254554" lon="11.126725001131275"><ele>72.0</ele><time>2026-04-19T15:26:44Z</time></trkpt><trkpt lat="43.75688710552055" lon="11.126752832094029"><ele>72.0</ele><time>2026-04-19T15:26:45Z</time></trkpt><trkpt lat="43.75709813156103" lon="11.126786440897583"><ele>73.33333333333333</ele><time>2026-04-19T15:26:46Z</time></trkpt><trkpt lat="43.75730915382722" lon="11.126823402762755"><ele>74.66666666666666</ele><time>2026-04-19T15:26:47Z</time></trkpt><trkpt lat="43.75751843302274" lon="11.126878573469357"><ele>76.0</ele><time>2026-04-19T15:26:48Z</time></trkpt><trkpt lat="43.75772576760066" lon="11.126946328109064"><ele>76.66666666666666</ele><time>2026-04-19T15:26:49Z</time></trkpt><trkpt lat="43.75793107515456" lon="11.127027006134059"><ele>77.33333333333333</ele><time>2026-04-19T15:26:50Z</time></trkpt><trkpt lat="43.758134269898314" lon="11.12711828508538"><ele>78.0</ele><time>2026-04-19T15:26:51Z</time></trkpt><trkpt lat="43.75833486692416" lon="11.127215421463424"><ele>78.0</ele><time>2026-04-19T15:26:52Z</time></trkpt><trkpt lat="43.758534031736495" lon="11.127316700926501"><ele>78.0</ele><time>2026-04-19T15:26:53Z</time></trkpt><trkpt lat="43.758732940736195" lon="11.127413565614384"><ele>78.0</ele><time>2026-04-19T15:26:54Z</time></trkpt><trkpt lat="43.75893188626681" lon="11.127504865460537"><ele>74.0</ele><time>2026-04-19T15:26:55Z</time></trkpt><trkpt lat="43.75913127538142" lon="11.127594080112825"><ele>70.0</ele><time>2026-04-19T15:26:56Z</time></trkpt><trkpt lat="43.759332797940736" lon="11.127672627944872"><ele>66.0</ele><time>2026-04-19T15:26:57Z</time></trkpt><trkpt lat="43.75953611741019" lon="11.12774514230201"><ele>65.33333333333333</ele><time>2026-04-19T15:26:58Z</time></trkpt><trkpt lat="43.75974199422251" lon="11.127804692865471"><ele>64.66666666666666</ele><time>2026-04-19T15:26:59Z</time></trkpt><trkpt lat="43.75995011438271" lon="11.127849874201534"><ele>64.0</ele><time>2026-04-19T15:27:00Z</time></trkpt><trkpt lat="43.7601599294965" lon="11.127879759024163"><ele>62.0</ele><time>2026-04-19T15:27:01Z</time></trkpt><trkpt lat="43.76037139475767" lon="11.127890665797752"><ele>60.0</ele><time>2026-04-19T15:27:02Z</time></trkpt><trkpt lat="43.76058270460688" lon="11.127891486233786"><ele>58.0</ele><time>2026-04-19T15:27:03Z</time></trkpt><trkpt lat="43.760793965686524" lon="11.127881068346268"><ele>58.0</ele><time>2026-04-19T15:27:04Z</time></trkpt><trkpt lat="43.76100530812956" lon="11.127855671293826"><ele>58.0</ele><time>2026-04-19T15:27:05Z</time></trkpt><trkpt lat="43.76121469425253" lon="11.127815922111681"><ele>58.0</ele><time>2026-04-19T15:27:06Z</time></trkpt><trkpt lat="43.761422231780514" lon="11.127759093749805"><ele>56.33333333333333</ele><time>2026-04-19T15:27:07Z</time></trkpt><trkpt lat="43.76162562100846" lon="11.127685181533066"><ele>54.66666666666667</ele><time>2026-04-19T15:27:08Z</time></trkpt><trkpt lat="43.76182747611875" lon="11.127603186330155"><ele>53.0</ele><time>2026-04-19T15:27:09Z</time></trkpt><trkpt lat="43.762028322854135" lon="11.12751415080843"><ele>53.66666666666667</ele><time>2026-04-19T15:27:10Z</time></trkpt><trkpt lat="43.76222526312693" lon="11.127413754233096"><ele>54.33333333333333</ele><time>2026-04-19T15:27:11Z</time></trkpt><trkpt lat="43.7624201221128" lon="11.12730686496963"><ele>55.0</ele><time>2026-04-19T15:27:12Z</time></trkpt><trkpt lat="43.762612781656244" lon="11.127197246585634"><ele>53.0</ele><time>2026-04-19T15:27:13Z</time></trkpt><trkpt lat="43.762805325978405" lon="11.12708540868613"><ele>51.0</ele><time>2026-04-19T15:27:14Z</time></trkpt><trkpt lat="43.76299975161419" lon="11.126966582243075"><ele>49.0</ele><time>2026-04-19T15:27:15Z</time></trkpt><trkpt lat="43.763198391477005" lon="11.126846524943806"><ele>49.0</ele><time>2026-04-19T15:27:16Z</time></trkpt><trkpt lat="43.763401058706414" lon="11.126724231595588"><ele>49.0</ele><time>2026-04-19T15:27:17Z</time></trkpt><trkpt lat="43.76360986018009" lon="11.126600832599301"><ele>49.0</ele><time>2026-04-19T15:27:18Z</time></trkpt><trkpt lat="43.76382353142197" lon="11.1264760442524"><ele>47.0</ele><time>2026-04-19T15:27:19Z</time></trkpt><trkpt lat="43.76403913572834" lon="11.126350271463224"><ele>45.0</ele><time>2026-04-19T15:27:20Z</time></trkpt><trkpt lat="43.764254916117025" lon="11.126227163572082"><ele>43.0</ele><time>2026-04-19T15:27:21Z</time></trkpt><trkpt lat="43.76447415512244" lon="11.12611535219006"><ele>41.0</ele><time>2026-04-19T15:27:22Z</time></trkpt><trkpt lat="43.76469638474827" lon="11.126018561016924"><ele>41.0</ele><time>2026-04-19T15:27:23Z</time></trkpt><trkpt lat="43.764919543512576" lon="11.125936739795454"><ele>41.0</ele><time>2026-04-19T15:27:24Z</time></trkpt><trkpt lat="43.76514364214847" lon="11.125865986065063"><ele>40.5</ele><time>2026-04-19T15:27:25Z</time></trkpt><trkpt lat="43.765370472806346" lon="11.125813521513386"><ele>40.0</ele><time>2026-04-19T15:27:26Z</time></trkpt><trkpt lat="43.765596978945325" lon="11.125780712813906"><ele>40.0</ele><time>2026-04-19T15:27:27Z</time></trkpt><trkpt lat="43.76582464575055" lon="11.12576303974519"><ele>40.0</ele><time>2026-04-19T15:27:28Z</time></trkpt><trkpt lat="43.76605417922737" lon="11.125758149503808"><ele>40.0</ele><time>2026-04-19T15:27:29Z</time></trkpt><trkpt lat="43.766283151202956" lon="11.125768169404079"><ele>40.0</ele><time>2026-04-19T15:27:30Z</time></trkpt><trkpt lat="43.76651170683852" lon="11.125793094348307"><ele>40.0</ele><time>2026-04-19T15:27:31Z</time></trkpt><trkpt lat="43.76673988445464" lon="11.125831666355086"><ele>40.0</ele><time>2026-04-19T15:27:32Z</time></trkpt><trkpt lat="43.76696656702517" lon="11.125885010807194"><ele>38.5</ele><time>2026-04-19T15:27:33Z</time></trkpt><trkpt lat="43.76719114667215" lon="11.125949772567733"><ele>37.0</ele><time>2026-04-19T15:27:34Z</time></trkpt><trkpt lat="43.7674158533855" lon="11.126018218765042"><ele>37.0</ele><time>2026-04-19T15:27:35Z</time></trkpt><trkpt lat="43.76764031431007" lon="11.126086626706202"><ele>37.0</ele><time>2026-04-19T15:27:36Z</time></trkpt><trkpt lat="43.76786426365656" lon="11.126157397775112"><ele>36.5</ele><time>2026-04-19T15:27:37Z</time></trkpt><trkpt lat="43.76808762198512" lon="11.126223223493907"><ele>36.0</ele><time>2026-04-19T15:27:38Z</time></trkpt><trkpt lat="43.7683117249657" lon="11.126288517391181"><ele>35.5</ele><time>2026-04-19T15:27:39Z</time></trkpt><trkpt lat="43.768535605573994" lon="11.126356275713755"><ele>35.0</ele><time>2026-04-19T15:27:40Z</time></trkpt><trkpt lat="43.768759530908824" lon="11.126430190613986"><ele>35.0</ele><time>2026-04-19T15:27:41Z</time></trkpt><trkpt lat="43.76898373719801" lon="11.126500552074688"><ele>35.0</ele><time>2026-04-19T15:27:42Z</time></trkpt><trkpt lat="43.76920824344712" lon="11.126567894662191"><ele>36.5</ele><time>2026-04-19T15:27:43Z</time></trkpt><trkpt lat="43.76943293363959" lon="11.126637013110432"><ele>38.0</ele><time>2026-04-19T15:27:44Z</time></trkpt><trkpt lat="43.76965749468123" lon="11.126706957874335"><ele>38.0</ele><time>2026-04-19T15:27:45Z</time></trkpt><trkpt lat="43.76988100267512" lon="11.126784379287919"><ele>38.0</ele><time>2026-04-19T15:27:46Z</time></trkpt><trkpt lat="43.77010218882429" lon="11.126874096511216"><ele>38.5</ele><time>2026-04-19T15:27:47Z</time></trkpt><trkpt lat="43.77032042496115" lon="11.126976419960547"><ele>39.0</ele><time>2026-04-19T15:27:48Z</time></trkpt><trkpt lat="43.77053521476431" lon="11.12709218421276"><ele>39.0</ele><time>2026-04-19T15:27:49Z</time></trkpt><trkpt lat="43.770742331848005" lon="11.127230482361837"><ele>39.0</ele><time>2026-04-19T15:27:50Z</time></trkpt><trkpt lat="43.7709423081832" lon="11.127389611546132"><ele>37.5</ele><time>2026-04-19T15:27:51Z</time></trkpt><trkpt lat="43.771136652220946" lon="11.12756248685986"><ele>36.0</ele><time>2026-04-19T15:27:52Z</time></trkpt><trkpt lat="43.77132743836159" lon="11.127742525121601"><ele>36.0</ele><time>2026-04-19T15:27:53Z</time></trkpt><trkpt lat="43.771510623215555" lon="11.127936089995238"><ele>36.0</ele><time>2026-04-19T15:27:54Z</time></trkpt><trkpt lat="43.771687502760166" lon="11.128141086438088"><ele>36.0</ele><time>2026-04-19T15:27:55Z</time></trkpt><trkpt lat="43.7718567075655" lon="11.128354947320764"><ele>36.0</ele><time>2026-04-19T15:27:56Z</time></trkpt><trkpt lat="43.77201591727074" lon="11.1285815473327"><ele>36.0</ele><time>2026-04-19T15:27:57Z</time></trkpt><trkpt lat="43.77216625184688" lon="11.128818489914408"><ele>36.0</ele><time>2026-04-19T15:27:58Z</time></trkpt><trkpt lat="43.77230529942521" lon="11.129067241200929"><ele>36.0</ele><time>2026-04-19T15:27:59Z</time></trkpt><trkpt lat="43.77243583823631" lon="11.129327447110361"><ele>36.0</ele><time>2026-04-19T15:28:00Z</time></trkpt><trkpt lat="43.772557828286516" lon="11.129595446122678"><ele>36.0</ele><time>2026-04-19T15:28:01Z</time></trkpt><trkpt lat="43.77266728387629" lon="11.129873080476376"><ele>36.0</ele><time>2026-04-19T15:28:02Z</time></trkpt><trkpt lat="43.77276562223494" lon="11.13015727182689"><ele>35.333333333333336</ele><time>2026-04-19T15:28:03Z</time></trkpt><trkpt lat="43.77285393248816" lon="11.130445046787976"><ele>34.66666666666667</ele><time>2026-04-19T15:28:04Z</time></trkpt><trkpt lat="43.77293018609199" lon="11.130732178197368"><ele>34.0</ele><time>2026-04-19T15:28:05Z</time></trkpt><trkpt lat="43.77299491451239" lon="11.13102100261657"><ele>34.0</ele><time>2026-04-19T15:28:06Z</time></trkpt><trkpt lat="43.77304838069345" lon="11.131313551054271"><ele>34.0</ele><time>2026-04-19T15:28:07Z</time></trkpt><trkpt lat="43.77309419992993" lon="11.131612191526184"><ele>34.0</ele><time>2026-04-19T15:28:08Z</time></trkpt><trkpt lat="43.773132493064125" lon="11.131915622486341"><ele>34.333333333333336</ele><time>2026-04-19T15:28:09Z</time></trkpt><trkpt lat="43.77316110369674" lon="11.13222271860288"><ele>34.666666666666664</ele><time>2026-04-19T15:28:10Z</time></trkpt><trkpt lat="43.77318547133876" lon="11.132532107224163"><ele>35.0</ele><time>2026-04-19T15:28:11Z</time></trkpt><trkpt lat="43.77320878309789" lon="11.132842518216675"><ele>35.5</ele><time>2026-04-19T15:28:12Z</time></trkpt><trkpt lat="43.77323037100109" lon="11.133153751563771"><ele>36.0</ele><time>2026-04-19T15:28:13Z</time></trkpt><trkpt lat="43.77325095979619" lon="11.133463590630871"><ele>36.333333333333336</ele><time>2026-04-19T15:28:14Z</time></trkpt><trkpt lat="43.77327003741729" lon="11.133771442048925"><ele>36.66666666666667</ele><time>2026-04-19T15:28:15Z</time></trkpt><trkpt lat="43.77328773147293" lon="11.13407760370394"><ele>37.0</ele><time>2026-04-19T15:28:16Z</time></trkpt><trkpt lat="43.77331102294739" lon="11.134379391311858"><ele>37.0</ele><time>2026-04-19T15:28:17Z</time></trkpt><trkpt lat="43.77333345572727" lon="11.13467779382982"><ele>37.0</ele><time>2026-04-19T15:28:18Z</time></trkpt><trkpt lat="43.77335585847159" lon="11.134971382712036"><ele>37.0</ele><time>2026-04-19T15:28:19Z</time></trkpt><trkpt lat="43.7733789563018" lon="11.13525954859374"><ele>36.333333333333336</ele><time>2026-04-19T15:28:20Z</time></trkpt><trkpt lat="43.77340075043254" lon="11.135530839824908"><ele>35.666666666666664</ele><time>2026-04-19T15:28:21Z</time></trkpt><trkpt lat="43.773421417415946" lon="11.135778231121838"><ele>35.0</ele><time>2026-04-19T15:28:22Z</time></trkpt><trkpt lat="43.77343968509105" lon="11.136005330230022"><ele>35.0</ele><time>2026-04-19T15:28:23Z</time></trkpt><trkpt lat="43.77345540855213" lon="11.136229508252839"><ele>35.0</ele><time>2026-04-19T15:28:24Z</time></trkpt><trkpt lat="43.773468014132085" lon="11.13645286958992"><ele>35.0</ele><time>2026-04-19T15:28:25Z</time></trkpt><trkpt lat="43.77348273682921" lon="11.136675811809603"><ele>35.0</ele><time>2026-04-19T15:28:26Z</time></trkpt><trkpt lat="43.77349628638372" lon="11.13689866980736"><ele>35.0</ele><time>2026-04-19T15:28:27Z</time></trkpt><trkpt lat="43.773511069197355" lon="11.137120711045451"><ele>35.0</ele><time>2026-04-19T15:28:28Z</time></trkpt><trkpt lat="43.77352677374827" lon="11.137345790866757"><ele>35.0</ele><time>2026-04-19T15:28:29Z</time></trkpt><trkpt lat="43.773543779702706" lon="11.137572920045216"><ele>35.0</ele><time>2026-04-19T15:28:30Z</time></trkpt><trkpt lat="43.773561078436806" lon="11.137801491235358"><ele>35.0</ele><time>2026-04-19T15:28:31Z</time></trkpt><trkpt lat="43.773579730122414" lon="11.138034831136599"><ele>34.666666666666664</ele><time>2026-04-19T15:28:32Z</time></trkpt><trkpt lat="43.773599212694336" lon="11.138270237856215"><ele>34.333333333333336</ele><time>2026-04-19T15:28:33Z</time></trkpt><trkpt lat="43.773619170281364" lon="11.138505695415311"><ele>34.0</ele><time>2026-04-19T15:28:34Z</time></trkpt><trkpt lat="43.77363844589884" lon="11.138741421542466"><ele>34.0</ele><time>2026-04-19T15:28:35Z</time></trkpt><trkpt lat="43.77365546360185" lon="11.138978650466504"><ele>34.0</ele><time>2026-04-19T15:28:36Z</time></trkpt><trkpt lat="43.77367116189013" lon="11.139216744705951"><ele>34.0</ele><time>2026-04-19T15:28:37Z</time></trkpt><trkpt lat="43.773686939313386" lon="11.139454880958832"><ele>34.66666666666667</ele><time>2026-04-19T15:28:38Z</time></trkpt><trkpt lat="43.773702746726066" lon="11.139693123565829"><ele>35.333333333333336</ele><time>2026-04-19T15:28:39Z</time></trkpt><trkpt lat="43.77371898671924" lon="11.139930466406863"><ele>36.0</ele><time>2026-04-19T15:28:40Z</time></trkpt><trkpt lat="43.77373705888075" lon="11.14016627524547"><ele>36.333333333333336</ele><time>2026-04-19T15:28:41Z</time></trkpt><trkpt lat="43.77375437554253" lon="11.140395996465049"><ele>36.66666666666667</ele><time>2026-04-19T15:28:42Z</time></trkpt><trkpt lat="43.7737713289022" lon="11.140622110258855"><ele>37.0</ele><time>2026-04-19T15:28:43Z</time></trkpt><trkpt lat="43.77378618412317" lon="11.14084355094194"><ele>37.0</ele><time>2026-04-19T15:28:44Z</time></trkpt><trkpt lat="43.77380128484462" lon="11.141060937401745"><ele>37.0</ele><time>2026-04-19T15:28:45Z</time></trkpt><trkpt lat="43.773816102443384" lon="11.141274793030458"><ele>37.0</ele><time>2026-04-19T15:28:46Z</time></trkpt><trkpt lat="43.77383054049439" lon="11.14148488403023"><ele>36.66666666666667</ele><time>2026-04-19T15:28:47Z</time></trkpt><trkpt lat="43.77384442473276" lon="11.14169213459657"><ele>36.333333333333336</ele><time>2026-04-19T15:28:48Z</time></trkpt><trkpt lat="43.77385737348096" lon="11.141898313830039"><ele>36.0</ele><time>2026-04-19T15:28:49Z</time></trkpt><trkpt lat="43.77386952485011" lon="11.142106808179445"><ele>36.0</ele><time>2026-04-19T15:28:50Z</time></trkpt><trkpt lat="43.77388000180443" lon="11.142315998456604"><ele>36.0</ele><time>2026-04-19T15:28:51Z</time></trkpt><trkpt lat="43.77388901986459" lon="11.142527163153202"><ele>36.0</ele><time>2026-04-19T15:28:52Z</time></trkpt><trkpt lat="43.77389589878868" lon="11.142740359640387"><ele>36.0</ele><time>2026-04-19T15:28:53Z</time></trkpt><trkpt lat="43.77390102018619" lon="11.142954429480357"><ele>36.0</ele><time>2026-04-19T15:28:54Z</time></trkpt><trkpt lat="43.77390682392823" lon="11.143168813326124"><ele>36.0</ele><time>2026-04-19T15:28:55Z</time></trkpt><trkpt lat="43.7739127054032" lon="11.14338592057576"><ele>36.0</ele><time>2026-04-19T15:28:56Z</time></trkpt><trkpt lat="43.77391815604242" lon="11.14360324867904"><ele>36.0</ele><time>2026-04-19T15:28:57Z</time></trkpt><trkpt lat="43.7739225424426" lon="11.143821167088154"><ele>36.0</ele><time>2026-04-19T15:28:58Z</time></trkpt><trkpt lat="43.77392634174099" lon="11.144036226438296"><ele>35.666666666666664</ele><time>2026-04-19T15:28:59Z</time></trkpt><trkpt lat="43.773930081318696" lon="11.14425177398812"><ele>35.33333333333333</ele><time>2026-04-19T15:29:00Z</time></trkpt><trkpt lat="43.77393184482116" lon="11.144466960066785"><ele>35.0</ele><time>2026-04-19T15:29:01Z</time></trkpt><trkpt lat="43.77393555589791" lon="11.144683419444304"><ele>35.33333333333333</ele><time>2026-04-19T15:29:02Z</time></trkpt><trkpt lat="43.773941551876064" lon="11.144902607037153"><ele>35.666666666666664</ele><time>2026-04-19T15:29:03Z</time></trkpt><trkpt lat="43.773946133955235" lon="11.145123527008998"><ele>36.0</ele><time>2026-04-19T15:29:04Z</time></trkpt><trkpt lat="43.77394821153519" lon="11.14534496904153"><ele>36.0</ele><time>2026-04-19T15:29:05Z</time></trkpt><trkpt lat="43.77395076422337" lon="11.145567279067077"><ele>36.0</ele><time>2026-04-19T15:29:06Z</time></trkpt><trkpt lat="43.773954198303564" lon="11.145790070268841"><ele>36.0</ele><time>2026-04-19T15:29:07Z</time></trkpt><trkpt lat="43.77395769167844" lon="11.146013233985592"><ele>35.333333333333336</ele><time>2026-04-19T15:29:08Z</time></trkpt><trkpt lat="43.77396064407036" lon="11.146238176430243"><ele>34.66666666666667</ele><time>2026-04-19T15:29:09Z</time></trkpt><trkpt lat="43.773964339556514" lon="11.146464992202702"><ele>34.0</ele><time>2026-04-19T15:29:10Z</time></trkpt><trkpt lat="43.77396738848402" lon="11.146691966982498"><ele>34.0</ele><time>2026-04-19T15:29:11Z</time></trkpt><trkpt lat="43.773971854532945" lon="11.146920078680711"><ele>34.0</ele><time>2026-04-19T15:29:12Z</time></trkpt><trkpt lat="43.77397425703951" lon="11.147149159218495"><ele>34.0</ele><time>2026-04-19T15:29:13Z</time></trkpt><trkpt lat="43.77397699179635" lon="11.14737727049322"><ele>33.66666666666667</ele><time>2026-04-19T15:29:14Z</time></trkpt><trkpt lat="43.773980546484985" lon="11.147606098414474"><ele>33.333333333333336</ele><time>2026-04-19T15:29:15Z</time></trkpt><trkpt lat="43.77398441422832" lon="11.147833476735352"><ele>33.0</ele><time>2026-04-19T15:29:16Z</time></trkpt><trkpt lat="43.77398776795593" lon="11.148062231858638"><ele>33.666666666666664</ele><time>2026-04-19T15:29:17Z</time></trkpt><trkpt lat="43.773992403192814" lon="11.148290926101604"><ele>34.33333333333333</ele><time>2026-04-19T15:29:18Z</time></trkpt><trkpt lat="43.773998293756556" lon="11.148519767394827"><ele>35.0</ele><time>2026-04-19T15:29:19Z</time></trkpt><trkpt lat="43.77400316129982" lon="11.148748893436126"><ele>35.0</ele><time>2026-04-19T15:29:20Z</time></trkpt><trkpt lat="43.774005782232145" lon="11.14897804329421"><ele>35.0</ele><time>2026-04-19T15:29:21Z</time></trkpt><trkpt lat="43.77400926817747" lon="11.149206850289533"><ele>35.0</ele><time>2026-04-19T15:29:22Z</time></trkpt><trkpt lat="43.77401400318609" lon="11.149437749457103"><ele>35.0</ele><time>2026-04-19T15:29:23Z</time></trkpt><trkpt lat="43.77401949117268" lon="11.149668204919928"><ele>35.0</ele><time>2026-04-19T15:29:24Z</time></trkpt><trkpt lat="43.77402368306457" lon="11.149898866290123"><ele>35.0</ele><time>2026-04-19T15:29:25Z</time></trkpt><trkpt lat="43.774027818559865" lon="11.150131405735086"><ele>34.666666666666664</ele><time>2026-04-19T15:29:26Z</time></trkpt><trkpt lat="43.774031363742154" lon="11.150362233444964"><ele>34.333333333333336</ele><time>2026-04-19T15:29:27Z</time></trkpt><trkpt lat="43.774035338242875" lon="11.150595347267046"><ele>34.0</ele><time>2026-04-19T15:29:28Z</time></trkpt><trkpt lat="43.77403906870882" lon="11.150830493286751"><ele>34.66666666666667</ele><time>2026-04-19T15:29:29Z</time></trkpt><trkpt lat="43.77404173776367" lon="11.15106761665529"><ele>35.333333333333336</ele><time>2026-04-19T15:29:30Z</time></trkpt><trkpt lat="43.77404602264974" lon="11.1513050748027"><ele>36.0</ele><time>2026-04-19T15:29:31Z</time></trkpt><trkpt lat="43.7740513261263" lon="11.151545741765487"><ele>36.0</ele><time>2026-04-19T15:29:32Z</time></trkpt><trkpt lat="43.77405619226623" lon="11.151788796119314"><ele>36.0</ele><time>2026-04-19T15:29:33Z</time></trkpt><trkpt lat="43.77406085400508" lon="11.152033809417624"><ele>36.0</ele><time>2026-04-19T15:29:34Z</time></trkpt><trkpt lat="43.77406617150761" lon="11.152282804930113"><ele>35.666666666666664</ele><time>2026-04-19T15:29:35Z</time></trkpt><trkpt lat="43.77407109023524" lon="11.152535463814555"><ele>35.33333333333333</ele><time>2026-04-19T15:29:36Z</time></trkpt><trkpt lat="43.77407664137011" lon="11.152790924759955"><ele>35.0</ele><time>2026-04-19T15:29:37Z</time></trkpt><trkpt lat="43.774081013768715" lon="11.153050940145656"><ele>35.666666666666664</ele><time>2026-04-19T15:29:38Z</time></trkpt><trkpt lat="43.77408495326684" lon="11.153313809321478"><ele>36.333333333333336</ele><time>2026-04-19T15:29:39Z</time></trkpt><trkpt lat="43.774088861756645" lon="11.153579920377844"><ele>37.0</ele><time>2026-04-19T15:29:40Z</time></trkpt><trkpt lat="43.77409168672776" lon="11.153848672278297"><ele>36.66666666666667</ele><time>2026-04-19T15:29:41Z</time></trkpt><trkpt lat="43.774092010890904" lon="11.154118295193395"><ele>36.333333333333336</ele><time>2026-04-19T15:29:42Z</time></trkpt><trkpt lat="43.77408752727454" lon="11.154385608892618"><ele>36.0</ele><time>2026-04-19T15:29:43Z</time></trkpt><trkpt lat="43.77408013329261" lon="11.154653296192492"><ele>35.666666666666664</ele><time>2026-04-19T15:29:44Z</time></trkpt><trkpt lat="43.774072774542624" lon="11.154925080146256"><ele>35.33333333333333</ele><time>2026-04-19T15:29:45Z</time></trkpt><trkpt lat="43.77405970830485" lon="11.155195536690114"><ele>35.0</ele><time>2026-04-19T15:29:46Z</time></trkpt><trkpt lat="43.774040826337206" lon="11.155463392485723"><ele>35.33333333333333</ele><time>2026-04-19T15:29:47Z</time></trkpt><trkpt lat="43.77401931725495" lon="11.15573049511032"><ele>35.666666666666664</ele><time>2026-04-19T15:29:48Z</time></trkpt><trkpt lat="43.77399553359899" lon="11.155996968847006"><ele>36.0</ele><time>2026-04-19T15:29:49Z</time></trkpt><trkpt lat="43.773967108446236" lon="11.156262464286112"><ele>36.0</ele><time>2026-04-19T15:29:50Z</time></trkpt><trkpt lat="43.773938048177" lon="11.156523134601823"><ele>36.0</ele><time>2026-04-19T15:29:51Z</time></trkpt><trkpt lat="43.77390137453113" lon="11.156789789813441"><ele>36.0</ele><time>2026-04-19T15:29:52Z</time></trkpt><trkpt lat="43.773860817946726" lon="11.157051626304872"><ele>36.333333333333336</ele><time>2026-04-19T15:29:53Z</time></trkpt><trkpt lat="43.77381598720466" lon="11.15731088949867"><ele>36.66666666666667</ele><time>2026-04-19T15:29:54Z</time></trkpt><trkpt lat="43.773771906730175" lon="11.157570441176572"><ele>37.0</ele><time>2026-04-19T15:29:55Z</time></trkpt><trkpt lat="43.77372667266254" lon="11.157828484451384"><ele>36.333333333333336</ele><time>2026-04-19T15:29:56Z</time></trkpt><trkpt lat="43.773679255110565" lon="11.1580866116963"><ele>35.666666666666664</ele><time>2026-04-19T15:29:57Z</time></trkpt><trkpt lat="43.773630448136174" lon="11.158343416723465"><ele>35.0</ele><time>2026-04-19T15:29:58Z</time></trkpt><trkpt lat="43.77358031823483" lon="11.15859802310671"><ele>35.0</ele><time>2026-04-19T15:29:59Z</time></trkpt><trkpt lat="43.77352910401124" lon="11.158849512430093"><ele>35.0</ele><time>2026-04-19T15:30:00Z</time></trkpt><trkpt lat="43.7734774192346" lon="11.159099788168595"><ele>35.0</ele><time>2026-04-19T15:30:01Z</time></trkpt><trkpt lat="43.77342557559497" lon="11.159347066938079"><ele>35.0</ele><time>2026-04-19T15:30:02Z</time></trkpt><trkpt lat="43.773374377640124" lon="11.159591585035283"><ele>35.0</ele><time>2026-04-19T15:30:03Z</time></trkpt><trkpt lat="43.7733270665491" lon="11.159834792291067"><ele>35.0</ele><time>2026-04-19T15:30:04Z</time></trkpt><trkpt lat="43.773283474322476" lon="11.160071074988"><ele>35.33333333333333</ele><time>2026-04-19T15:30:05Z</time></trkpt><trkpt lat="43.77324090734658" lon="11.160298012202286"><ele>35.666666666666664</ele><time>2026-04-19T15:30:06Z</time></trkpt><trkpt lat="43.77320027310195" lon="11.160521821829331"><ele>36.0</ele><time>2026-04-19T15:30:07Z</time></trkpt><trkpt lat="43.773161079302746" lon="11.160739328057515"><ele>36.0</ele><time>2026-04-19T15:30:08Z</time></trkpt><trkpt lat="43.77312319636833" lon="11.160952988747065"><ele>36.0</ele><time>2026-04-19T15:30:09Z</time></trkpt><trkpt lat="43.77308409320804" lon="11.161160732910087"><ele>36.0</ele><time>2026-04-19T15:30:10Z</time></trkpt><trkpt lat="43.773044993468844" lon="11.16136910400766"><ele>35.666666666666664</ele><time>2026-04-19T15:30:11Z</time></trkpt><trkpt lat="43.773007853775255" lon="11.161573438351457"><ele>35.33333333333333</ele><time>2026-04-19T15:30:12Z</time></trkpt><trkpt lat="43.772969706870185" lon="11.161776802155453"><ele>35.0</ele><time>2026-04-19T15:30:13Z</time></trkpt><trkpt lat="43.77293163342277" lon="11.161980512140778"><ele>35.0</ele><time>2026-04-19T15:30:14Z</time></trkpt><trkpt lat="43.77289312952525" lon="11.162185660632103"><ele>35.0</ele><time>2026-04-19T15:30:15Z</time></trkpt><trkpt lat="43.77285508994585" lon="11.162390351829954"><ele>35.0</ele><time>2026-04-19T15:30:16Z</time></trkpt><trkpt lat="43.772817166645126" lon="11.16259580808461"><ele>35.0</ele><time>2026-04-19T15:30:17Z</time></trkpt><trkpt lat="43.772777855509446" lon="11.162804148244037"><ele>35.0</ele><time>2026-04-19T15:30:18Z</time></trkpt><trkpt lat="43.77273804676393" lon="11.163012839271863"><ele>35.0</ele><time>2026-04-19T15:30:19Z</time></trkpt><trkpt lat="43.772699473229004" lon="11.163224115266146"><ele>35.33333333333333</ele><time>2026-04-19T15:30:20Z</time></trkpt><trkpt lat="43.77265977996263" lon="11.16343670968352"><ele>35.666666666666664</ele><time>2026-04-19T15:30:21Z</time></trkpt><trkpt lat="43.772620037506414" lon="11.163649812256615"><ele>36.0</ele><time>2026-04-19T15:30:22Z</time></trkpt><trkpt lat="43.77258012822124" lon="11.163865474848457"><ele>35.333333333333336</ele><time>2026-04-19T15:30:23Z</time></trkpt><trkpt lat="43.772540402919105" lon="11.164083451739513"><ele>34.66666666666667</ele><time>2026-04-19T15:30:24Z</time></trkpt><trkpt lat="43.77249916332662" lon="11.164302785579535"><ele>34.0</ele><time>2026-04-19T15:30:25Z</time></trkpt><trkpt lat="43.77245863099857" lon="11.164520836876267"><ele>34.0</ele><time>2026-04-19T15:30:26Z</time></trkpt><trkpt lat="43.772417830991735" lon="11.164735430110872"><ele>34.0</ele><time>2026-04-19T15:30:27Z</time></trkpt><trkpt lat="43.7723776891605" lon="11.16494273508155"><ele>34.0</ele><time>2026-04-19T15:30:28Z</time></trkpt><trkpt lat="43.772339021569515" lon="11.165145021740916"><ele>34.0</ele><time>2026-04-19T15:30:29Z</time></trkpt><trkpt lat="43.77230161572542" lon="11.1653383627191"><ele>34.0</ele><time>2026-04-19T15:30:30Z</time></trkpt><trkpt lat="43.77226452401739" lon="11.165526523376217"><ele>34.0</ele><time>2026-04-19T15:30:31Z</time></trkpt><trkpt lat="43.77222607274965" lon="11.165706720756328"><ele>34.0</ele><time>2026-04-19T15:30:32Z</time></trkpt><trkpt lat="43.77218880076728" lon="11.165881492583681"><ele>35.0</ele><time>2026-04-19T15:30:33Z</time></trkpt><trkpt lat="43.772145189953825" lon="11.166045532588202"><ele>36.0</ele><time>2026-04-19T15:30:34Z</time></trkpt><trkpt lat="43.77208866187168" lon="11.16619477286333"><ele>37.0</ele><time>2026-04-19T15:30:35Z</time></trkpt><trkpt lat="43.77201407881374" lon="11.166318897570166"><ele>38.0</ele><time>2026-04-19T15:30:36Z</time></trkpt><trkpt lat="43.77192494157463" lon="11.166406638700215"><ele>37.25</ele><time>2026-04-19T15:30:37Z</time></trkpt><trkpt lat="43.77182209393491" lon="11.166460592528033"><ele>36.5</ele><time>2026-04-19T15:30:38Z</time></trkpt><trkpt lat="43.77171201358424" lon="11.166482124198621"><ele>35.75</ele><time>2026-04-19T15:30:39Z</time></trkpt><trkpt lat="43.77159914267769" lon="11.166463342455831"><ele>35.0</ele><time>2026-04-19T15:30:40Z</time></trkpt><trkpt lat="43.771491092544444" lon="11.16640560013601"><ele>35.0</ele><time>2026-04-19T15:30:41Z</time></trkpt><trkpt lat="43.771396676615026" lon="11.166308947494368"><ele>35.0</ele><time>2026-04-19T15:30:42Z</time></trkpt><trkpt lat="43.77132163217745" lon="11.166185843942795"><ele>35.0</ele><time>2026-04-19T15:30:43Z</time></trkpt><trkpt lat="43.77126264433486" lon="11.166045139871606"><ele>35.0</ele><time>2026-04-19T15:30:44Z</time></trkpt><trkpt lat="43.771223961063484" lon="11.165891034243723"><ele>35.0</ele><time>2026-04-19T15:30:45Z</time></trkpt><trkpt lat="43.771235335010694" lon="11.165727310793116"><ele>35.0</ele><time>2026-04-19T15:30:46Z</time></trkpt><trkpt lat="43.77123755395855" lon="11.165563082611225"><ele>35.0</ele><time>2026-04-19T15:30:47Z</time></trkpt><trkpt lat="43.77125505374351" lon="11.165405332894306"><ele>35.0</ele><time>2026-04-19T15:30:48Z</time></trkpt><trkpt lat="43.77128878632555" lon="11.165247046559978"><ele>35.25</ele><time>2026-04-19T15:30:49Z</time></trkpt><trkpt lat="43.771323375149514" lon="11.165084531587986"><ele>35.5</ele><time>2026-04-19T15:30:50Z</time></trkpt><trkpt lat="43.771391713169834" lon="11.164940927344094"><ele>35.75</ele><time>2026-04-19T15:30:51Z</time></trkpt><trkpt lat="43.771475138660236" lon="11.16480900458931"><ele>36.0</ele><time>2026-04-19T15:30:52Z</time></trkpt><trkpt lat="43.77157445320857" lon="11.164693500702457"><ele>36.5</ele><time>2026-04-19T15:30:53Z</time></trkpt><trkpt lat="43.77168700353924" lon="11.164596154104348"><ele>37.0</ele><time>2026-04-19T15:30:54Z</time></trkpt><trkpt lat="43.77181183771596" lon="11.164519176075496"><ele>37.5</ele><time>2026-04-19T15:30:55Z</time></trkpt><trkpt lat="43.77194658365629" lon="11.164466572808127"><ele>38.0</ele><time>2026-04-19T15:30:56Z</time></trkpt><trkpt lat="43.772088821329376" lon="11.1644444192477"><ele>37.5</ele><time>2026-04-19T15:30:57Z</time></trkpt><trkpt lat="43.77223573867134" lon="11.164447574249593"><ele>37.0</ele><time>2026-04-19T15:30:58Z</time></trkpt><trkpt lat="43.77238493534681" lon="11.164460753598094"><ele>36.5</ele><time>2026-04-19T15:30:59Z</time></trkpt><trkpt lat="43.77253683793474" lon="11.164472450705604"><ele>36.0</ele><time>2026-04-19T15:31:00Z</time></trkpt><trkpt lat="43.77268965943454" lon="11.164480148353675"><ele>36.0</ele><time>2026-04-19T15:31:01Z</time></trkpt><trkpt lat="43.77284612375184" lon="11.16448898800042"><ele>36.0</ele><time>2026-04-19T15:31:02Z</time></trkpt><trkpt lat="43.7730075916714" lon="11.164501665080472"><ele>36.0</ele><time>2026-04-19T15:31:03Z</time></trkpt><trkpt lat="43.773168599342306" lon="11.164518348175141"><ele>36.0</ele><time>2026-04-19T15:31:04Z</time></trkpt><trkpt lat="43.77332647139936" lon="11.164531418020394"><ele>36.0</ele><time>2026-04-19T15:31:05Z</time></trkpt><trkpt lat="43.77347756584932" lon="11.164541156375387"><ele>36.0</ele><time>2026-04-19T15:31:06Z</time></trkpt><trkpt lat="43.77361131171999" lon="11.164570688901927"><ele>36.0</ele><time>2026-04-19T15:31:07Z</time></trkpt><trkpt lat="43.77373291333124" lon="11.164575092850452"><ele>35.6</ele><time>2026-04-19T15:31:08Z</time></trkpt><trkpt lat="43.7738442059866" lon="11.164576178186515"><ele>35.2</ele><time>2026-04-19T15:31:09Z</time></trkpt><trkpt lat="43.77395196367038" lon="11.16454708200206"><ele>34.8</ele><time>2026-04-19T15:31:10Z</time></trkpt><trkpt lat="43.774060699815905" lon="11.164558453876657"><ele>34.4</ele><time>2026-04-19T15:31:11Z</time></trkpt><trkpt lat="43.77417065991725" lon="11.164577217730702"><ele>34.0</ele><time>2026-04-19T15:31:12Z</time></trkpt><trkpt lat="43.77428419430604" lon="11.164600639708633"><ele>34.0</ele><time>2026-04-19T15:31:13Z</time></trkpt><trkpt lat="43.774399057940414" lon="11.164654746251509"><ele>34.0</ele><time>2026-04-19T15:31:14Z</time></trkpt><trkpt lat="43.77452202177176" lon="11.164664372210398"><ele>34.0</ele><time>2026-04-19T15:31:15Z</time></trkpt><trkpt lat="43.774640583820364" lon="11.164722748754077"><ele>34.0</ele><time>2026-04-19T15:31:16Z</time></trkpt><trkpt lat="43.77475531170432" lon="11.164773807009347"><ele>34.0</ele><time>2026-04-19T15:31:17Z</time></trkpt><trkpt lat="43.77488057598577" lon="11.164822875680104"><ele>34.0</ele><time>2026-04-19T15:31:18Z</time></trkpt><trkpt lat="43.775009673750596" lon="11.16484324105633"><ele>34.0</ele><time>2026-04-19T15:31:19Z</time></trkpt><trkpt lat="43.77513515909112" lon="11.164846242730006"><ele>34.0</ele><time>2026-04-19T15:31:20Z</time></trkpt><trkpt lat="43.775258080661615" lon="11.164833980436006"><ele>34.2</ele><time>2026-04-19T15:31:21Z</time></trkpt><trkpt lat="43.77537023693213" lon="11.164808783704297"><ele>34.4</ele><time>2026-04-19T15:31:22Z</time></trkpt><trkpt lat="43.77546836669815" lon="11.164777438656962"><ele>34.6</ele><time>2026-04-19T15:31:23Z</time></trkpt><trkpt lat="43.77555276460332" lon="11.164747654740623"><ele>34.8</ele><time>2026-04-19T15:31:24Z</time></trkpt><trkpt lat="43.775622754609074" lon="11.164721975813572"><ele>35.0</ele><time>2026-04-19T15:31:25Z</time></trkpt><trkpt lat="43.77571222860629" lon="11.164685967820525"><ele>35.0</ele><time>2026-04-19T15:31:27Z</time></trkpt><trkpt lat="43.77578290937731" lon="11.164656096258899"><ele>35.0</ele><time>2026-04-19T15:31:29Z</time></trkpt><trkpt lat="43.77584582557302" lon="11.1646293112838"><ele>35.0</ele><time>2026-04-19T15:31:31Z</time></trkpt><trkpt lat="43.77590676763462" lon="11.164599312526631"><ele>35.0</ele><time>2026-04-19T15:31:33Z</time></trkpt><trkpt lat="43.77597906474046" lon="11.164564203471594"><ele>35.0</ele><time>2026-04-19T15:31:35Z</time></trkpt><trkpt lat="43.7760416292156" lon="11.164532435932525"><ele>35.0</ele><time>2026-04-19T15:31:41Z</time></trkpt><trkpt lat="43.77615351791852" lon="11.16446533789501"><ele>34.8</ele><time>2026-04-19T15:31:43Z</time></trkpt><trkpt lat="43.77622814978295" lon="11.164428178708278"><ele>34.6</ele><time>2026-04-19T15:31:44Z</time></trkpt><trkpt lat="43.77631317375772" lon="11.164378510644504"><ele>34.4</ele><time>2026-04-19T15:31:45Z</time></trkpt><trkpt lat="43.77640486989517" lon="11.164325819238615"><ele>34.2</ele><time>2026-04-19T15:31:46Z</time></trkpt><trkpt lat="43.77650287748645" lon="11.164255853668326"><ele>34.0</ele><time>2026-04-19T15:31:47Z</time></trkpt><trkpt lat="43.77661652930715" lon="11.164189957711764"><ele>34.0</ele><time>2026-04-19T15:31:48Z</time></trkpt><trkpt lat="43.776724750993054" lon="11.164107462533268"><ele>34.0</ele><time>2026-04-19T15:31:49Z</time></trkpt><trkpt lat="43.77683124997312" lon="11.16401091075208"><ele>34.0</ele><time>2026-04-19T15:31:50Z</time></trkpt><trkpt lat="43.776952614862005" lon="11.16390472149241"><ele>34.0</ele><time>2026-04-19T15:31:51Z</time></trkpt><trkpt lat="43.77707675100337" lon="11.163793727970923"><ele>34.0</ele><time>2026-04-19T15:31:52Z</time></trkpt><trkpt lat="43.777199432892665" lon="11.163688212479117"><ele>34.0</ele><time>2026-04-19T15:31:53Z</time></trkpt><trkpt lat="43.77732137514074" lon="11.163580640749677"><ele>34.0</ele><time>2026-04-19T15:31:54Z</time></trkpt><trkpt lat="43.7774464775227" lon="11.163473394765857"><ele>34.0</ele><time>2026-04-19T15:31:55Z</time></trkpt><trkpt lat="43.77757315932161" lon="11.163364372398222"><ele>34.0</ele><time>2026-04-19T15:31:56Z</time></trkpt><trkpt lat="43.77769999191302" lon="11.163243652941135"><ele>34.0</ele><time>2026-04-19T15:31:57Z</time></trkpt><trkpt lat="43.77781309107399" lon="11.163108671973742"><ele>34.0</ele><time>2026-04-19T15:31:58Z</time></trkpt><trkpt lat="43.77791241601772" lon="11.162966883757832"><ele>34.0</ele><time>2026-04-19T15:31:59Z</time></trkpt><trkpt lat="43.77800621287405" lon="11.162811817084648"><ele>34.0</ele><time>2026-04-19T15:32:00Z</time></trkpt><trkpt lat="43.77808848525929" lon="11.16265181975517"><ele>34.0</ele><time>2026-04-19T15:32:01Z</time></trkpt><trkpt lat="43.778167339430304" lon="11.162490301032044"><ele>34.0</ele><time>2026-04-19T15:32:02Z</time></trkpt><trkpt lat="43.77824115102283" lon="11.162333004330579"><ele>34.0</ele><time>2026-04-19T15:32:03Z</time></trkpt><trkpt lat="43.778325894708765" lon="11.162210873124542"><ele>34.0</ele><time>2026-04-19T15:32:04Z</time></trkpt><trkpt lat="43.77841589184129" lon="11.162089918404865"><ele>34.0</ele><time>2026-04-19T15:32:05Z</time></trkpt><trkpt lat="43.778506060039255" lon="11.161977604017576"><ele>34.0</ele><time>2026-04-19T15:32:06Z</time></trkpt><trkpt lat="43.778595744208786" lon="11.161864672638131"><ele>34.0</ele><time>2026-04-19T15:32:07Z</time></trkpt><trkpt lat="43.778689245161324" lon="11.161745614970304"><ele>34.0</ele><time>2026-04-19T15:32:08Z</time></trkpt><trkpt lat="43.7787930899942" lon="11.161627664435603"><ele>34.0</ele><time>2026-04-19T15:32:09Z</time></trkpt><trkpt lat="43.77890725120008" lon="11.161511521349489"><ele>34.0</ele><time>2026-04-19T15:32:10Z</time></trkpt><trkpt lat="43.77903147447234" lon="11.161399851694746"><ele>34.0</ele><time>2026-04-19T15:32:11Z</time></trkpt><trkpt lat="43.77916591590776" lon="11.161292373443606"><ele>34.66666666666667</ele><time>2026-04-19T15:32:12Z</time></trkpt><trkpt lat="43.77931194196127" lon="11.161196063674259"><ele>35.333333333333336</ele><time>2026-04-19T15:32:13Z</time></trkpt><trkpt lat="43.77946323393081" lon="11.161104390434792"><ele>36.0</ele><time>2026-04-19T15:32:14Z</time></trkpt><trkpt lat="43.77962205709308" lon="11.161022147558565"><ele>36.0</ele><time>2026-04-19T15:32:15Z</time></trkpt><trkpt lat="43.779787209343105" lon="11.160949323588545"><ele>36.0</ele><time>2026-04-19T15:32:16Z</time></trkpt><trkpt lat="43.77995867162977" lon="11.160885581635235"><ele>36.0</ele><time>2026-04-19T15:32:17Z</time></trkpt><trkpt lat="43.780122571856126" lon="11.160790486357811"><ele>36.0</ele><time>2026-04-19T15:32:18Z</time></trkpt><trkpt lat="43.78031694470948" lon="11.160775760488946"><ele>36.0</ele><time>2026-04-19T15:32:19Z</time></trkpt><trkpt lat="43.78050167422596" lon="11.160719445170878"><ele>36.0</ele><time>2026-04-19T15:32:20Z</time></trkpt><trkpt lat="43.7806891538021" lon="11.160662292582414"><ele>36.0</ele><time>2026-04-19T15:32:21Z</time></trkpt><trkpt lat="43.780882645619954" lon="11.160602990118226"><ele>36.0</ele><time>2026-04-19T15:32:22Z</time></trkpt><trkpt lat="43.78107858049814" lon="11.160544766374038"><ele>36.0</ele><time>2026-04-19T15:32:23Z</time></trkpt><trkpt lat="43.78127791057217" lon="11.160485359650304"><ele>35.666666666666664</ele><time>2026-04-19T15:32:24Z</time></trkpt><trkpt lat="43.7814805981062" lon="11.160423055464367"><ele>35.33333333333333</ele><time>2026-04-19T15:32:25Z</time></trkpt><trkpt lat="43.781687462083305" lon="11.160361778852076"><ele>35.0</ele><time>2026-04-19T15:32:26Z</time></trkpt><trkpt lat="43.78189469168762" lon="11.160300856865897"><ele>35.0</ele><time>2026-04-19T15:32:27Z</time></trkpt><trkpt lat="43.78210577634738" lon="11.1602378735015"><ele>35.0</ele><time>2026-04-19T15:32:28Z</time></trkpt><trkpt lat="43.782319615506566" lon="11.160175485261885"><ele>35.0</ele><time>2026-04-19T15:32:29Z</time></trkpt><trkpt lat="43.782534193055405" lon="11.160113517847813"><ele>35.33333333333333</ele><time>2026-04-19T15:32:30Z</time></trkpt><trkpt lat="43.782752485333766" lon="11.160051944721179"><ele>35.666666666666664</ele><time>2026-04-19T15:32:31Z</time></trkpt><trkpt lat="43.78297268244937" lon="11.159991355277782"><ele>36.0</ele><time>2026-04-19T15:32:32Z</time></trkpt><trkpt lat="43.78319602341929" lon="11.159929625606539"><ele>36.5</ele><time>2026-04-19T15:32:33Z</time></trkpt><trkpt lat="43.783420800590335" lon="11.159866175143959"><ele>37.0</ele><time>2026-04-19T15:32:34Z</time></trkpt><trkpt lat="43.78364777690844" lon="11.159801279208628"><ele>37.0</ele><time>2026-04-19T15:32:35Z</time></trkpt><trkpt lat="43.783869740890836" lon="11.159735171741476"><ele>37.0</ele><time>2026-04-19T15:32:36Z</time></trkpt><trkpt lat="43.78408784889093" lon="11.159671105414985"><ele>37.0</ele><time>2026-04-19T15:32:37Z</time></trkpt><trkpt lat="43.784310477035646" lon="11.159608910702259"><ele>37.0</ele><time>2026-04-19T15:32:38Z</time></trkpt><trkpt lat="43.78453738399303" lon="11.15954663101226"><ele>37.5</ele><time>2026-04-19T15:32:39Z</time></trkpt><trkpt lat="43.78476837874296" lon="11.15948242462182"><ele>38.0</ele><time>2026-04-19T15:32:40Z</time></trkpt><trkpt lat="43.78500153876482" lon="11.159417875142244"><ele>39.0</ele><time>2026-04-19T15:32:41Z</time></trkpt><trkpt lat="43.785237353680465" lon="11.159354127801794"><ele>40.0</ele><time>2026-04-19T15:32:42Z</time></trkpt><trkpt lat="43.78547575764035" lon="11.159290793010936"><ele>40.0</ele><time>2026-04-19T15:32:43Z</time></trkpt><trkpt lat="43.78571657864477" lon="11.159225869334003"><ele>40.0</ele><time>2026-04-19T15:32:44Z</time></trkpt><trkpt lat="43.78595851912771" lon="11.159157050605161"><ele>38.5</ele><time>2026-04-19T15:32:45Z</time></trkpt><trkpt lat="43.78620524334411" lon="11.159086578104413"><ele>37.0</ele><time>2026-04-19T15:32:46Z</time></trkpt><trkpt lat="43.78645307150661" lon="11.159016625801932"><ele>36.5</ele><time>2026-04-19T15:32:47Z</time></trkpt><trkpt lat="43.78670394643534" lon="11.158945393350148"><ele>36.0</ele><time>2026-04-19T15:32:48Z</time></trkpt><trkpt lat="43.786958194402054" lon="11.15887250273958"><ele>37.0</ele><time>2026-04-19T15:32:49Z</time></trkpt><trkpt lat="43.78721289693446" lon="11.158800715728416"><ele>38.0</ele><time>2026-04-19T15:32:50Z</time></trkpt><trkpt lat="43.78747056413205" lon="11.158727742757641"><ele>38.5</ele><time>2026-04-19T15:32:51Z</time></trkpt><trkpt lat="43.787728767268085" lon="11.15865430264651"><ele>39.0</ele><time>2026-04-19T15:32:52Z</time></trkpt><trkpt lat="43.78798695805756" lon="11.158580986043658"><ele>39.0</ele><time>2026-04-19T15:32:53Z</time></trkpt><trkpt lat="43.78824523969069" lon="11.158508677428362"><ele>39.0</ele><time>2026-04-19T15:32:54Z</time></trkpt><trkpt lat="43.78850396273732" lon="11.1584375016681"><ele>39.0</ele><time>2026-04-19T15:32:55Z</time></trkpt><trkpt lat="43.788762684808276" lon="11.158366755683277"><ele>39.0</ele><time>2026-04-19T15:32:56Z</time></trkpt><trkpt lat="43.78902309366849" lon="11.158295067180894"><ele>39.0</ele><time>2026-04-19T15:32:57Z</time></trkpt><trkpt lat="43.789282939520696" lon="11.158225168996383"><ele>39.0</ele><time>2026-04-19T15:32:58Z</time></trkpt><trkpt lat="43.789544283413235" lon="11.158153614279584"><ele>38.0</ele><time>2026-04-19T15:32:59Z</time></trkpt><trkpt lat="43.78980484187572" lon="11.158081515547554"><ele>37.0</ele><time>2026-04-19T15:33:00Z</time></trkpt><trkpt lat="43.79006654516012" lon="11.158007908905622"><ele>37.0</ele><time>2026-04-19T15:33:01Z</time></trkpt><trkpt lat="43.79032819724984" lon="11.157933160018615"><ele>37.0</ele><time>2026-04-19T15:33:02Z</time></trkpt><trkpt lat="43.7905908420699" lon="11.157858202963316"><ele>37.0</ele><time>2026-04-19T15:33:03Z</time></trkpt><trkpt lat="43.790853768800055" lon="11.157783620535577"><ele>37.0</ele><time>2026-04-19T15:33:04Z</time></trkpt><trkpt lat="43.791112582637616" lon="11.157710888215467"><ele>38.0</ele><time>2026-04-19T15:33:05Z</time></trkpt><trkpt lat="43.79136675811293" lon="11.157641083990006"><ele>39.0</ele><time>2026-04-19T15:33:06Z</time></trkpt><trkpt lat="43.791623138337094" lon="11.157570734658325"><ele>38.5</ele><time>2026-04-19T15:33:07Z</time></trkpt><trkpt lat="43.79187715922314" lon="11.157502801955902"><ele>38.0</ele><time>2026-04-19T15:33:08Z</time></trkpt><trkpt lat="43.79213359474459" lon="11.157427566146639"><ele>37.0</ele><time>2026-04-19T15:33:09Z</time></trkpt><trkpt lat="43.79238759059034" lon="11.157356826658326"><ele>36.0</ele><time>2026-04-19T15:33:10Z</time></trkpt><trkpt lat="43.79264485298773" lon="11.157287711826246"><ele>37.5</ele><time>2026-04-19T15:33:11Z</time></trkpt><trkpt lat="43.792902660303305" lon="11.157212059796773"><ele>39.0</ele><time>2026-04-19T15:33:12Z</time></trkpt><trkpt lat="43.79316368162232" lon="11.157138654015966"><ele>39.0</ele><time>2026-04-19T15:33:13Z</time></trkpt><trkpt lat="43.79342448307872" lon="11.157065760109168"><ele>39.0</ele><time>2026-04-19T15:33:14Z</time></trkpt><trkpt lat="43.7936849590573" lon="11.156993997597962"><ele>37.5</ele><time>2026-04-19T15:33:15Z</time></trkpt><trkpt lat="43.79394632316341" lon="11.156920925672882"><ele>36.0</ele><time>2026-04-19T15:33:16Z</time></trkpt><trkpt lat="43.79420744975704" lon="11.156849373143562"><ele>35.5</ele><time>2026-04-19T15:33:17Z</time></trkpt><trkpt lat="43.79446876033366" lon="11.156775740237407"><ele>35.0</ele><time>2026-04-19T15:33:18Z</time></trkpt><trkpt lat="43.794730988346416" lon="11.156703658308166"><ele>35.0</ele><time>2026-04-19T15:33:19Z</time></trkpt><trkpt lat="43.79499301868132" lon="11.156632265035228"><ele>35.0</ele><time>2026-04-19T15:33:20Z</time></trkpt><trkpt lat="43.79525722045611" lon="11.156559540665352"><ele>35.0</ele><time>2026-04-19T15:33:21Z</time></trkpt><trkpt lat="43.7955188749949" lon="11.156486882208588"><ele>35.0</ele><time>2026-04-19T15:33:22Z</time></trkpt><trkpt lat="43.79578043246843" lon="11.156414259534104"><ele>35.0</ele><time>2026-04-19T15:33:23Z</time></trkpt><trkpt lat="43.796038105547716" lon="11.156341327364824"><ele>35.0</ele><time>2026-04-19T15:33:24Z</time></trkpt><trkpt lat="43.79629529466921" lon="11.15626875996853"><ele>35.0</ele><time>2026-04-19T15:33:25Z</time></trkpt><trkpt lat="43.796547761611755" lon="11.156196707807988"><ele>35.0</ele><time>2026-04-19T15:33:26Z</time></trkpt><trkpt lat="43.79679915352362" lon="11.15612468071779"><ele>35.5</ele><time>2026-04-19T15:33:27Z</time></trkpt><trkpt lat="43.79704654133451" lon="11.15605395780877"><ele>36.0</ele><time>2026-04-19T15:33:28Z</time></trkpt><trkpt lat="43.797290348227044" lon="11.155984559319165"><ele>36.0</ele><time>2026-04-19T15:33:29Z</time></trkpt><trkpt lat="43.79753463460806" lon="11.15591572735467"><ele>36.0</ele><time>2026-04-19T15:33:30Z</time></trkpt><trkpt lat="43.79777845694112" lon="11.15584934368603"><ele>36.0</ele><time>2026-04-19T15:33:31Z</time></trkpt><trkpt lat="43.79802155649924" lon="11.155782861422693"><ele>36.0</ele><time>2026-04-19T15:33:32Z</time></trkpt><trkpt lat="43.79826719407884" lon="11.155715525220605"><ele>35.5</ele><time>2026-04-19T15:33:33Z</time></trkpt><trkpt lat="43.79851504360445" lon="11.155647063458126"><ele>35.0</ele><time>2026-04-19T15:33:34Z</time></trkpt><trkpt lat="43.79876435530278" lon="11.155579692789544"><ele>35.0</ele><time>2026-04-19T15:33:35Z</time></trkpt><trkpt lat="43.79901572476936" lon="11.155510166163648"><ele>35.0</ele><time>2026-04-19T15:33:36Z</time></trkpt><trkpt lat="43.79926869288119" lon="11.155438272756646"><ele>35.5</ele><time>2026-04-19T15:33:37Z</time></trkpt><trkpt lat="43.799523167641816" lon="11.155365184583086"><ele>36.0</ele><time>2026-04-19T15:33:38Z</time></trkpt><trkpt lat="43.79977812947259" lon="11.15529393397016"><ele>36.0</ele><time>2026-04-19T15:33:39Z</time></trkpt><trkpt lat="43.8000323921744" lon="11.155218977217475"><ele>36.0</ele><time>2026-04-19T15:33:40Z</time></trkpt><trkpt lat="43.80028759213565" lon="11.155144855804666"><ele>35.5</ele><time>2026-04-19T15:33:41Z</time></trkpt><trkpt lat="43.80054170756212" lon="11.155068387083277"><ele>35.0</ele><time>2026-04-19T15:33:42Z</time></trkpt><trkpt lat="43.8007969004756" lon="11.154996151364102"><ele>35.5</ele><time>2026-04-19T15:33:43Z</time></trkpt><trkpt lat="43.8010522691702" lon="11.154924429641515"><ele>36.0</ele><time>2026-04-19T15:33:44Z</time></trkpt><trkpt lat="43.801307743311085" lon="11.154854553325682"><ele>36.5</ele><time>2026-04-19T15:33:45Z</time></trkpt><trkpt lat="43.80156266105957" lon="11.154785168852749"><ele>37.0</ele><time>2026-04-19T15:33:46Z</time></trkpt><trkpt lat="43.80181770621831" lon="11.154715279766839"><ele>36.5</ele><time>2026-04-19T15:33:47Z</time></trkpt><trkpt lat="43.80207153941254" lon="11.15464535705117"><ele>36.0</ele><time>2026-04-19T15:33:48Z</time></trkpt><trkpt lat="43.80232488497913" lon="11.154574498834284"><ele>36.0</ele><time>2026-04-19T15:33:49Z</time></trkpt><trkpt lat="43.802577914974556" lon="11.154504258057788"><ele>36.0</ele><time>2026-04-19T15:33:50Z</time></trkpt><trkpt lat="43.8028296686157" lon="11.154434021803182"><ele>35.0</ele><time>2026-04-19T15:33:51Z</time></trkpt><trkpt lat="43.80308096652027" lon="11.154365393356736"><ele>34.0</ele><time>2026-04-19T15:33:52Z</time></trkpt><trkpt lat="43.803334754588505" lon="11.154294972740967"><ele>34.5</ele><time>2026-04-19T15:33:53Z</time></trkpt><trkpt lat="43.80358617748395" lon="11.154225742181746"><ele>35.0</ele><time>2026-04-19T15:33:54Z</time></trkpt><trkpt lat="43.80383911876253" lon="11.154156015557772"><ele>35.0</ele><time>2026-04-19T15:33:55Z</time></trkpt><trkpt lat="43.804089799748006" lon="11.154085229459444"><ele>35.0</ele><time>2026-04-19T15:33:56Z</time></trkpt><trkpt lat="43.804342778093556" lon="11.1540124322315"><ele>36.0</ele><time>2026-04-19T15:33:57Z</time></trkpt><trkpt lat="43.80459499381356" lon="11.153941945112788"><ele>37.0</ele><time>2026-04-19T15:33:58Z</time></trkpt><trkpt lat="43.80484520343775" lon="11.153871558566804"><ele>37.0</ele><time>2026-04-19T15:33:59Z</time></trkpt><trkpt lat="43.805095778409274" lon="11.153801702562452"><ele>37.0</ele><time>2026-04-19T15:34:00Z</time></trkpt><trkpt lat="43.80534649278005" lon="11.153731100828864"><ele>35.5</ele><time>2026-04-19T15:34:01Z</time></trkpt><trkpt lat="43.80559501143755" lon="11.15366394357097"><ele>34.0</ele><time>2026-04-19T15:34:02Z</time></trkpt><trkpt lat="43.805842939860014" lon="11.153596071522642"><ele>33.5</ele><time>2026-04-19T15:34:03Z</time></trkpt><trkpt lat="43.806088802049715" lon="11.153530821992915"><ele>33.0</ele><time>2026-04-19T15:34:04Z</time></trkpt><trkpt lat="43.80633044583055" lon="11.153460794318914"><ele>33.0</ele><time>2026-04-19T15:34:05Z</time></trkpt><trkpt lat="43.80657004293235" lon="11.153386393002632"><ele>33.0</ele><time>2026-04-19T15:34:06Z</time></trkpt><trkpt lat="43.806807279731885" lon="11.153317350294847"><ele>33.5</ele><time>2026-04-19T15:34:07Z</time></trkpt><trkpt lat="43.807042248997455" lon="11.1532529536416"><ele>34.0</ele><time>2026-04-19T15:34:08Z</time></trkpt><trkpt lat="43.80727856953984" lon="11.1531885343113"><ele>34.0</ele><time>2026-04-19T15:34:09Z</time></trkpt><trkpt lat="43.80751684294102" lon="11.153122524993417"><ele>34.0</ele><time>2026-04-19T15:34:10Z</time></trkpt><trkpt lat="43.80775742834812" lon="11.153056188005973"><ele>34.0</ele><time>2026-04-19T15:34:11Z</time></trkpt><trkpt lat="43.80799799180339" lon="11.152990190063809"><ele>34.0</ele><time>2026-04-19T15:34:12Z</time></trkpt><trkpt lat="43.80823920780957" lon="11.152922702385563"><ele>34.0</ele><time>2026-04-19T15:34:13Z</time></trkpt><trkpt lat="43.80848131154584" lon="11.152854632234149"><ele>34.0</ele><time>2026-04-19T15:34:14Z</time></trkpt><trkpt lat="43.80872369165038" lon="11.152787962364181"><ele>35.0</ele><time>2026-04-19T15:34:15Z</time></trkpt><trkpt lat="43.80896526668844" lon="11.152718310492842"><ele>36.0</ele><time>2026-04-19T15:34:16Z</time></trkpt><trkpt lat="43.809207231979734" lon="11.152649541669305"><ele>36.5</ele><time>2026-04-19T15:34:17Z</time></trkpt><trkpt lat="43.80945174711153" lon="11.152579853791101"><ele>37.0</ele><time>2026-04-19T15:34:18Z</time></trkpt><trkpt lat="43.8096976577594" lon="11.152511334753754"><ele>37.0</ele><time>2026-04-19T15:34:19Z</time></trkpt><trkpt lat="43.809942304284704" lon="11.152444223229631"><ele>37.0</ele><time>2026-04-19T15:34:20Z</time></trkpt><trkpt lat="43.81018858916805" lon="11.152375007310592"><ele>35.5</ele><time>2026-04-19T15:34:21Z</time></trkpt><trkpt lat="43.81043424930974" lon="11.152308430208304"><ele>34.0</ele><time>2026-04-19T15:34:22Z</time></trkpt><trkpt lat="43.810678792612165" lon="11.152241797668115"><ele>34.0</ele><time>2026-04-19T15:34:23Z</time></trkpt><trkpt lat="43.81092122874904" lon="11.152175003713284"><ele>34.0</ele><time>2026-04-19T15:34:24Z</time></trkpt><trkpt lat="43.81116277230414" lon="11.152106560627868"><ele>34.0</ele><time>2026-04-19T15:34:25Z</time></trkpt><trkpt lat="43.811403504476914" lon="11.152039793541663"><ele>34.0</ele><time>2026-04-19T15:34:26Z</time></trkpt><trkpt lat="43.811639782885585" lon="11.151973290424904"><ele>34.5</ele><time>2026-04-19T15:34:27Z</time></trkpt><trkpt lat="43.81187192671959" lon="11.151909457801695"><ele>35.0</ele><time>2026-04-19T15:34:28Z</time></trkpt><trkpt lat="43.812102849161136" lon="11.15185059319868"><ele>35.0</ele><time>2026-04-19T15:34:29Z</time></trkpt><trkpt lat="43.812332563950314" lon="11.151797048226829"><ele>35.0</ele><time>2026-04-19T15:34:30Z</time></trkpt><trkpt lat="43.81256001221577" lon="11.15175030732903"><ele>35.0</ele><time>2026-04-19T15:34:31Z</time></trkpt><trkpt lat="43.81278676611337" lon="11.15170798650785"><ele>35.0</ele><time>2026-04-19T15:34:32Z</time></trkpt><trkpt lat="43.813010500186415" lon="11.151670260239591"><ele>35.0</ele><time>2026-04-19T15:34:33Z</time></trkpt><trkpt lat="43.813237473700624" lon="11.151635857541196"><ele>35.0</ele><time>2026-04-19T15:34:34Z</time></trkpt><trkpt lat="43.81346637145847" lon="11.151606174608036"><ele>34.5</ele><time>2026-04-19T15:34:35Z</time></trkpt><trkpt lat="43.813695649393324" lon="11.151582332089358"><ele>34.0</ele><time>2026-04-19T15:34:36Z</time></trkpt><trkpt lat="43.813925407486686" lon="11.15156666692372"><ele>34.0</ele><time>2026-04-19T15:34:37Z</time></trkpt><trkpt lat="43.814156970740754" lon="11.151560452058765"><ele>34.0</ele><time>2026-04-19T15:34:38Z</time></trkpt><trkpt lat="43.81439007468898" lon="11.151557138351944"><ele>34.5</ele><time>2026-04-19T15:34:39Z</time></trkpt><trkpt lat="43.8146230404085" lon="11.151557408544994"><ele>35.0</ele><time>2026-04-19T15:34:40Z</time></trkpt><trkpt lat="43.814856061833936" lon="11.151561010211736"><ele>35.0</ele><time>2026-04-19T15:34:41Z</time></trkpt><trkpt lat="43.81508843428281" lon="11.151566398868008"><ele>35.0</ele><time>2026-04-19T15:34:42Z</time></trkpt><trkpt lat="43.815320041527066" lon="11.15157202593664"><ele>35.0</ele><time>2026-04-19T15:34:43Z</time></trkpt><trkpt lat="43.815552088234924" lon="11.151576217933966"><ele>35.0</ele><time>2026-04-19T15:34:44Z</time></trkpt><trkpt lat="43.81578226952755" lon="11.151577262285334"><ele>36.0</ele><time>2026-04-19T15:34:45Z</time></trkpt><trkpt lat="43.81601177759051" lon="11.151580779645547"><ele>37.0</ele><time>2026-04-19T15:34:46Z</time></trkpt><trkpt lat="43.816241365145835" lon="11.151584620024398"><ele>37.0</ele><time>2026-04-19T15:34:47Z</time></trkpt><trkpt lat="43.81647001342332" lon="11.151588817773174"><ele>37.0</ele><time>2026-04-19T15:34:48Z</time></trkpt><trkpt lat="43.81669828945898" lon="11.151591863415112"><ele>35.5</ele><time>2026-04-19T15:34:49Z</time></trkpt><trkpt lat="43.81692609473806" lon="11.151594037283724"><ele>34.0</ele><time>2026-04-19T15:34:50Z</time></trkpt><trkpt lat="43.81715430089421" lon="11.151597681322796"><ele>34.0</ele><time>2026-04-19T15:34:51Z</time></trkpt><trkpt lat="43.817381074664794" lon="11.151599291539263"><ele>34.0</ele><time>2026-04-19T15:34:52Z</time></trkpt><trkpt lat="43.81760906794816" lon="11.151601672333774"><ele>34.5</ele><time>2026-04-19T15:34:53Z</time></trkpt><trkpt lat="43.817836580341684" lon="11.151604301941742"><ele>35.0</ele><time>2026-04-19T15:34:54Z</time></trkpt><trkpt lat="43.818066511776884" lon="11.151606658032097"><ele>35.0</ele><time>2026-04-19T15:34:55Z</time></trkpt><trkpt lat="43.81829839866942" lon="11.15160907838214"><ele>35.0</ele><time>2026-04-19T15:34:56Z</time></trkpt><trkpt lat="43.81853150088125" lon="11.151614094514759"><ele>35.0</ele><time>2026-04-19T15:34:57Z</time></trkpt><trkpt lat="43.81876693275476" lon="11.151616222703524"><ele>35.0</ele><time>2026-04-19T15:34:58Z</time></trkpt><trkpt lat="43.81900223898899" lon="11.151619598241224"><ele>35.0</ele><time>2026-04-19T15:34:59Z</time></trkpt><trkpt lat="43.81923801857337" lon="11.151621921344823"><ele>35.0</ele><time>2026-04-19T15:35:00Z</time></trkpt><trkpt lat="43.81947290326616" lon="11.151624478202953"><ele>35.5</ele><time>2026-04-19T15:35:01Z</time></trkpt><trkpt lat="43.81970696996008" lon="11.15162800265035"><ele>36.0</ele><time>2026-04-19T15:35:02Z</time></trkpt><trkpt lat="43.819941027888056" lon="11.151633900787061"><ele>36.0</ele><time>2026-04-19T15:35:03Z</time></trkpt><trkpt lat="43.820175632358385" lon="11.151639768207515"><ele>36.0</ele><time>2026-04-19T15:35:04Z</time></trkpt><trkpt lat="43.8204112876008" lon="11.151643348061945"><ele>36.0</ele><time>2026-04-19T15:35:05Z</time></trkpt><trkpt lat="43.820648095392585" lon="11.151645210047889"><ele>36.0</ele><time>2026-04-19T15:35:06Z</time></trkpt><trkpt lat="43.820884844615776" lon="11.151648350822837"><ele>35.0</ele><time>2026-04-19T15:35:07Z</time></trkpt><trkpt lat="43.821121740237906" lon="11.151650702642302"><ele>34.0</ele><time>2026-04-19T15:35:08Z</time></trkpt><trkpt lat="43.82135868819311" lon="11.151655546537505"><ele>34.0</ele><time>2026-04-19T15:35:09Z</time></trkpt><trkpt lat="43.821595124655786" lon="11.151657301503802"><ele>34.0</ele><time>2026-04-19T15:35:10Z</time></trkpt><trkpt lat="43.82183180226644" lon="11.151658395453532"><ele>35.5</ele><time>2026-04-19T15:35:11Z</time></trkpt><trkpt lat="43.822068350403136" lon="11.151659292587341"><ele>37.0</ele><time>2026-04-19T15:35:12Z</time></trkpt><trkpt lat="43.82230479214772" lon="11.151659594064576"><ele>37.0</ele><time>2026-04-19T15:35:13Z</time></trkpt><trkpt lat="43.82254261627286" lon="11.151660546015554"><ele>37.0</ele><time>2026-04-19T15:35:14Z</time></trkpt><trkpt lat="43.82277928702393" lon="11.151665197278941"><ele>37.5</ele><time>2026-04-19T15:35:15Z</time></trkpt><trkpt lat="43.82301547285224" lon="11.151669838812133"><ele>38.0</ele><time>2026-04-19T15:35:16Z</time></trkpt><trkpt lat="43.823251130012586" lon="11.15167464833726"><ele>37.0</ele><time>2026-04-19T15:35:17Z</time></trkpt><trkpt lat="43.823486963408676" lon="11.15167890573423"><ele>36.0</ele><time>2026-04-19T15:35:18Z</time></trkpt><trkpt lat="43.82372349326207" lon="11.151682062020896"><ele>36.0</ele><time>2026-04-19T15:35:19Z</time></trkpt><trkpt lat="43.82396453032777" lon="11.151687569185096"><ele>36.0</ele><time>2026-04-19T15:35:20Z</time></trkpt><trkpt lat="43.824206325853794" lon="11.151695516310495"><ele>36.0</ele><time>2026-04-19T15:35:21Z</time></trkpt><trkpt lat="43.82444783234719" lon="11.151710390620591"><ele>36.0</ele><time>2026-04-19T15:35:22Z</time></trkpt><trkpt lat="43.82468728844292" lon="11.151731832952944"><ele>36.0</ele><time>2026-04-19T15:35:23Z</time></trkpt><trkpt lat="43.82492521854616" lon="11.151764009367486"><ele>36.0</ele><time>2026-04-19T15:35:24Z</time></trkpt><trkpt lat="43.825161634103644" lon="11.151805377270374"><ele>37.0</ele><time>2026-04-19T15:35:25Z</time></trkpt><trkpt lat="43.82539743489085" lon="11.151855748781095"><ele>38.0</ele><time>2026-04-19T15:35:26Z</time></trkpt><trkpt lat="43.825631584301824" lon="11.151917857213315"><ele>38.0</ele><time>2026-04-19T15:35:27Z</time></trkpt><trkpt lat="43.82586503604967" lon="11.151988314835226"><ele>38.0</ele><time>2026-04-19T15:35:28Z</time></trkpt><trkpt lat="43.82609781216503" lon="11.152067152826273"><ele>37.5</ele><time>2026-04-19T15:35:29Z</time></trkpt><trkpt lat="43.82632918016485" lon="11.152150469364129"><ele>37.0</ele><time>2026-04-19T15:35:30Z</time></trkpt><trkpt lat="43.826559563100766" lon="11.152241213919488"><ele>37.0</ele><time>2026-04-19T15:35:31Z</time></trkpt><trkpt lat="43.826787018717475" lon="11.152342292806349"><ele>37.0</ele><time>2026-04-19T15:35:32Z</time></trkpt><trkpt lat="43.827012405307066" lon="11.152454324451613"><ele>37.5</ele><time>2026-04-19T15:35:33Z</time></trkpt><trkpt lat="43.82723529282115" lon="11.152576365216126"><ele>38.0</ele><time>2026-04-19T15:35:34Z</time></trkpt><trkpt lat="43.827454716088155" lon="11.152707728696287"><ele>38.0</ele><time>2026-04-19T15:35:35Z</time></trkpt><trkpt lat="43.827672114488244" lon="11.152847012204173"><ele>38.0</ele><time>2026-04-19T15:35:36Z</time></trkpt><trkpt lat="43.82788646593493" lon="11.15299305169499"><ele>38.0</ele><time>2026-04-19T15:35:37Z</time></trkpt><trkpt lat="43.82809941867157" lon="11.153145959722375"><ele>38.0</ele><time>2026-04-19T15:35:38Z</time></trkpt><trkpt lat="43.828310033312896" lon="11.15330422544304"><ele>39.0</ele><time>2026-04-19T15:35:39Z</time></trkpt><trkpt lat="43.82851861276167" lon="11.153466846992636"><ele>40.0</ele><time>2026-04-19T15:35:40Z</time></trkpt><trkpt lat="43.82872490672535" lon="11.153631765394652"><ele>40.0</ele><time>2026-04-19T15:35:41Z</time></trkpt><trkpt lat="43.82893159443863" lon="11.153799391430132"><ele>40.0</ele><time>2026-04-19T15:35:42Z</time></trkpt><trkpt lat="43.82913782381257" lon="11.153967523262585"><ele>39.5</ele><time>2026-04-19T15:35:43Z</time></trkpt><trkpt lat="43.82934360079315" lon="11.154137244314299"><ele>39.0</ele><time>2026-04-19T15:35:44Z</time></trkpt><trkpt lat="43.82954849120427" lon="11.154308660292706"><ele>39.0</ele><time>2026-04-19T15:35:45Z</time></trkpt><trkpt lat="43.82975296153481" lon="11.154480674430843"><ele>39.0</ele><time>2026-04-19T15:35:46Z</time></trkpt><trkpt lat="43.82995497869346" lon="11.154658381448904"><ele>39.0</ele><time>2026-04-19T15:35:47Z</time></trkpt><trkpt lat="43.83015752681857" lon="11.15483607416573"><ele>39.0</ele><time>2026-04-19T15:35:48Z</time></trkpt><trkpt lat="43.83036012992909" lon="11.155014232497003"><ele>39.0</ele><time>2026-04-19T15:35:49Z</time></trkpt><trkpt lat="43.83056448550811" lon="11.155189511910098"><ele>39.0</ele><time>2026-04-19T15:35:50Z</time></trkpt><trkpt lat="43.83076752549324" lon="11.155366100362766"><ele>39.0</ele><time>2026-04-19T15:35:51Z</time></trkpt><trkpt lat="43.8309705599517" lon="11.155543012792084"><ele>39.0</ele><time>2026-04-19T15:35:52Z</time></trkpt><trkpt lat="43.831175261516115" lon="11.155717631513454"><ele>40.0</ele><time>2026-04-19T15:35:53Z</time></trkpt><trkpt lat="43.83137715870834" lon="11.15589533945799"><ele>41.0</ele><time>2026-04-19T15:35:54Z</time></trkpt><trkpt lat="43.83157432301873" lon="11.15607280657264"><ele>41.0</ele><time>2026-04-19T15:35:55Z</time></trkpt><trkpt lat="43.83176572023597" lon="11.156244954757366"><ele>41.0</ele><time>2026-04-19T15:35:56Z</time></trkpt><trkpt lat="43.83195234206936" lon="11.156410124874311"><ele>41.0</ele><time>2026-04-19T15:35:57Z</time></trkpt><trkpt lat="43.83213156736928" lon="11.156568293446293"><ele>41.0</ele><time>2026-04-19T15:35:58Z</time></trkpt><trkpt lat="43.83230454036946" lon="11.156720574254908"><ele>41.0</ele><time>2026-04-19T15:35:59Z</time></trkpt><trkpt lat="43.83247156714386" lon="11.156867307508202"><ele>41.0</ele><time>2026-04-19T15:36:00Z</time></trkpt><trkpt lat="43.83263295986221" lon="11.157006759742853"><ele>41.0</ele><time>2026-04-19T15:36:01Z</time></trkpt><trkpt lat="43.83278728021789" lon="11.157138499780366"><ele>41.0</ele><time>2026-04-19T15:36:02Z</time></trkpt><trkpt lat="43.83293731019786" lon="11.157264989027968"><ele>40.33333333333333</ele><time>2026-04-19T15:36:03Z</time></trkpt><trkpt lat="43.83308140178067" lon="11.157385640523135"><ele>39.666666666666664</ele><time>2026-04-19T15:36:04Z</time></trkpt><trkpt lat="43.833222592982615" lon="11.157505092876258"><ele>39.0</ele><time>2026-04-19T15:36:05Z</time></trkpt><trkpt lat="43.833362425333426" lon="11.157626061338465"><ele>39.0</ele><time>2026-04-19T15:36:06Z</time></trkpt><trkpt lat="43.833502632563714" lon="11.157745626361084"><ele>39.0</ele><time>2026-04-19T15:36:07Z</time></trkpt><trkpt lat="43.83364024042105" lon="11.15786849294876"><ele>39.0</ele><time>2026-04-19T15:36:08Z</time></trkpt><trkpt lat="43.833777734001664" lon="11.157990271082657"><ele>39.0</ele><time>2026-04-19T15:36:09Z</time></trkpt><trkpt lat="43.83391453850812" lon="11.15810837665939"><ele>39.0</ele><time>2026-04-19T15:36:10Z</time></trkpt><trkpt lat="43.83404955813408" lon="11.158225454442851"><ele>39.0</ele><time>2026-04-19T15:36:11Z</time></trkpt><trkpt lat="43.83418198143961" lon="11.158341467284174"><ele>38.5</ele><time>2026-04-19T15:36:12Z</time></trkpt><trkpt lat="43.83431171098387" lon="11.15845502434"><ele>38.0</ele><time>2026-04-19T15:36:13Z</time></trkpt><trkpt lat="43.83443470411065" lon="11.158562608139418"><ele>37.5</ele><time>2026-04-19T15:36:14Z</time></trkpt><trkpt lat="43.834544933304784" lon="11.158666328568355"><ele>37.0</ele><time>2026-04-19T15:36:15Z</time></trkpt><trkpt lat="43.83464341262863" lon="11.158771682058033"><ele>37.0</ele><time>2026-04-19T15:36:16Z</time></trkpt><trkpt lat="43.83472859063876" lon="11.158877593187137"><ele>37.0</ele><time>2026-04-19T15:36:17Z</time></trkpt><trkpt lat="43.834803584844146" lon="11.158981620803567"><ele>37.0</ele><time>2026-04-19T15:36:18Z</time></trkpt><trkpt lat="43.83487011570649" lon="11.159079789996788"><ele>37.0</ele><time>2026-04-19T15:36:19Z</time></trkpt><trkpt lat="43.83493250334889" lon="11.159165047713172"><ele>37.0</ele><time>2026-04-19T15:36:20Z</time></trkpt><trkpt lat="43.834989843005616" lon="11.159231410851286"><ele>37.0</ele><time>2026-04-19T15:36:21Z</time></trkpt><trkpt lat="43.83508439267237" lon="11.15932299637804"><ele>37.0</ele><time>2026-04-19T15:36:23Z</time></trkpt><trkpt lat="43.83514726337762" lon="11.159429203357703"><ele>37.0</ele><time>2026-04-19T15:36:25Z</time></trkpt><trkpt lat="43.83519279756143" lon="11.15954579926593"><ele>37.0</ele><time>2026-04-19T15:36:27Z</time></trkpt><trkpt lat="43.83523333570486" lon="11.159646737281479"><ele>37.0</ele><time>2026-04-19T15:36:29Z</time></trkpt><trkpt lat="43.83526523583003" lon="11.159724384772884"><ele>37.0</ele><time>2026-04-19T15:36:34Z</time></trkpt><trkpt lat="43.83520579550823" lon="11.159799551895869"><ele>37.0</ele><time>2026-04-19T15:37:03Z</time></trkpt><trkpt lat="43.835274072953105" lon="11.159838784933854"><ele>37.0</ele><time>2026-04-19T15:37:46Z</time></trkpt><trkpt lat="43.8353048974848" lon="11.15992759442502"><ele>37.0</ele><time>2026-04-19T15:37:52Z</time></trkpt><trkpt lat="43.83534112328677" lon="11.160010612778985"><ele>37.0</ele><time>2026-04-19T15:40:33Z</time></trkpt><trkpt lat="43.83540825531025" lon="11.160067805142404"><ele>37.0</ele><time>2026-04-19T15:40:57Z</time></trkpt><trkpt lat="43.83542455764952" lon="11.159933444317376"><ele>37.0</ele><time>2026-04-19T15:43:16Z</time></trkpt><trkpt lat="43.83536187344219" lon="11.159976514328635"><ele>37.0</ele><time>2026-04-19T15:43:29.001Z</time></trkpt><trkpt lat="43.83542850785258" lon="11.159963163856442"><ele>37.0</ele><time>2026-04-19T15:43:47.001Z</time></trkpt><trkpt lat="43.83532029069615" lon="11.159924419820394"><ele>37.0</ele><time>2026-04-19T15:44:31Z</time></trkpt><trkpt lat="43.835257135232254" lon="11.15994896718329"><ele>37.0</ele><time>2026-04-19T15:45:12Z</time></trkpt><trkpt lat="43.835183181692706" lon="11.159857554294884"><ele>37.0</ele><time>2026-04-19T15:45:45.001Z</time></trkpt><trkpt lat="43.83528221288066" lon="11.159839988872708"><ele>37.5</ele><time>2026-04-19T15:47:22Z</time></trkpt><trkpt lat="43.83534005610661" lon="11.15988524544078"><ele>38.0</ele><time>2026-04-19T15:47:26.001Z</time></trkpt><trkpt lat="43.83543178718668" lon="11.15993574203652"><ele>38.5</ele><time>2026-04-19T15:47:31.001Z</time></trkpt><trkpt lat="43.83551296421002" lon="11.15995279518223"><ele>39.0</ele><time>2026-04-19T15:47:35.001Z</time></trkpt><trkpt lat="43.8355815998371" lon="11.159994472709878"><ele>39.5</ele><time>2026-04-19T15:47:39.001Z</time></trkpt><trkpt lat="43.835641893658206" lon="11.16005610956447"><ele>40.0</ele><time>2026-04-19T15:47:43.001Z</time></trkpt><trkpt lat="43.83571197966332" lon="11.160107768752097"><ele>40.0</ele><time>2026-04-19T15:47:47.001Z</time></trkpt><trkpt lat="43.8357830198266" lon="11.160143861602204"><ele>40.0</ele><time>2026-04-19T15:47:51.001Z</time></trkpt><trkpt lat="43.835860005250545" lon="11.160162974967896"><ele>40.0</ele><time>2026-04-19T15:47:55.001Z</time></trkpt><trkpt lat="43.83593486769461" lon="11.160177404044113"><ele>40.0</ele><time>2026-04-19T15:47:59.001Z</time></trkpt><trkpt lat="43.83599417822001" lon="11.160212720926857"><ele>40.0</ele><time>2026-04-19T15:48:03Z</time></trkpt><trkpt lat="43.8360449607827" lon="11.160266650187035"><ele>40.0</ele><time>2026-04-19T15:48:07Z</time></trkpt><trkpt lat="43.83611751615752" lon="11.160270909460039"><ele>40.0</ele><time>2026-04-19T15:49:03Z</time></trkpt><trkpt lat="43.83618680620949" lon="11.16025455962548"><ele>40.16666666666667</ele><time>2026-04-19T15:49:05Z</time></trkpt><trkpt lat="43.836266728621396" lon="11.160254729768468"><ele>40.333333333333336</ele><time>2026-04-19T15:49:07Z</time></trkpt><trkpt lat="43.83634050815144" lon="11.160274616240727"><ele>40.5</ele><time>2026-04-19T15:49:08Z</time></trkpt><trkpt lat="43.836402302908674" lon="11.160305893688365"><ele>40.666666666666664</ele><time>2026-04-19T15:49:09Z</time></trkpt><trkpt lat="43.836464991032855" lon="11.1603466663131"><ele>40.83333333333333</ele><time>2026-04-19T15:49:10Z</time></trkpt><trkpt lat="43.836533632806876" lon="11.160398829839128"><ele>41.0</ele><time>2026-04-19T15:49:11Z</time></trkpt><trkpt lat="43.836608715799905" lon="11.160459785057622"><ele>41.0</ele><time>2026-04-19T15:49:12Z</time></trkpt><trkpt lat="43.83668949652137" lon="11.160526444404207"><ele>41.0</ele><time>2026-04-19T15:49:13Z</time></trkpt><trkpt lat="43.836774129414934" lon="11.160597303653267"><ele>41.0</ele><time>2026-04-19T15:49:14Z</time></trkpt><trkpt lat="43.83686209861596" lon="11.160674194447289"><ele>41.0</ele><time>2026-04-19T15:49:15Z</time></trkpt><trkpt lat="43.8369520903173" lon="11.160749306357983"><ele>41.0</ele><time>2026-04-19T15:49:16Z</time></trkpt><trkpt lat="43.83703935119713" lon="11.160820827403303"><ele>41.25</ele><time>2026-04-19T15:49:17Z</time></trkpt><trkpt lat="43.83712863416741" lon="11.160894594023691"><ele>41.5</ele><time>2026-04-19T15:49:18Z</time></trkpt><trkpt lat="43.83722410929601" lon="11.160972654611454"><ele>41.75</ele><time>2026-04-19T15:49:19Z</time></trkpt><trkpt lat="43.83732475492217" lon="11.161058330602145"><ele>42.0</ele><time>2026-04-19T15:49:20Z</time></trkpt><trkpt lat="43.83743324420911" lon="11.161146015205544"><ele>42.0</ele><time>2026-04-19T15:49:21Z</time></trkpt><trkpt lat="43.8375468637126" lon="11.161239703474822"><ele>42.0</ele><time>2026-04-19T15:49:22Z</time></trkpt><trkpt lat="43.83766367265178" lon="11.161335409353974"><ele>42.0</ele><time>2026-04-19T15:49:23Z</time></trkpt><trkpt lat="43.83778608787145" lon="11.161433083295904"><ele>42.0</ele><time>2026-04-19T15:49:24Z</time></trkpt><trkpt lat="43.83791569478577" lon="11.161536117803387"><ele>42.0</ele><time>2026-04-19T15:49:25Z</time></trkpt><trkpt lat="43.83804650196371" lon="11.161641743285413"><ele>42.0</ele><time>2026-04-19T15:49:26Z</time></trkpt><trkpt lat="43.83818171901564" lon="11.161753321150446"><ele>42.0</ele><time>2026-04-19T15:49:27Z</time></trkpt><trkpt lat="43.838322928053046" lon="11.161869851371234"><ele>42.0</ele><time>2026-04-19T15:49:28Z</time></trkpt><trkpt lat="43.83846855360873" lon="11.161991216160033"><ele>42.0</ele><time>2026-04-19T15:49:29.001Z</time></trkpt><trkpt lat="43.83861721218105" lon="11.162114893809404"><ele>42.0</ele><time>2026-04-19T15:49:30.001Z</time></trkpt><trkpt lat="43.838763150024675" lon="11.162235693161204"><ele>42.0</ele><time>2026-04-19T15:49:31.001Z</time></trkpt><trkpt lat="43.83890935913717" lon="11.16235795964208"><ele>42.0</ele><time>2026-04-19T15:49:32.001Z</time></trkpt><trkpt lat="43.83905935729607" lon="11.16248415725985"><ele>42.0</ele><time>2026-04-19T15:49:33.001Z</time></trkpt><trkpt lat="43.83921231217239" lon="11.1626146663993"><ele>41.666666666666664</ele><time>2026-04-19T15:49:34.001Z</time></trkpt><trkpt lat="43.83936820250859" lon="11.16274829018351"><ele>41.33333333333333</ele><time>2026-04-19T15:49:35.001Z</time></trkpt><trkpt lat="43.839526513195935" lon="11.16288611549446"><ele>41.0</ele><time>2026-04-19T15:49:36.001Z</time></trkpt><trkpt lat="43.839687226691645" lon="11.163025646296312"><ele>41.0</ele><time>2026-04-19T15:49:37.001Z</time></trkpt><trkpt lat="43.83985078305565" lon="11.163165898977123"><ele>41.0</ele><time>2026-04-19T15:49:38.001Z</time></trkpt><trkpt lat="43.84001725581007" lon="11.163308090846208"><ele>41.0</ele><time>2026-04-19T15:49:39.001Z</time></trkpt><trkpt lat="43.84018655742371" lon="11.163451556892486"><ele>41.0</ele><time>2026-04-19T15:49:40.001Z</time></trkpt><trkpt lat="43.840357937844615" lon="11.163596765538296"><ele>41.0</ele><time>2026-04-19T15:49:41.001Z</time></trkpt><trkpt lat="43.84053457081829" lon="11.163743940953049"><ele>41.0</ele><time>2026-04-19T15:49:42.001Z</time></trkpt><trkpt lat="43.840710977396995" lon="11.163889964802587"><ele>41.33333333333333</ele><time>2026-04-19T15:49:43.001Z</time></trkpt><trkpt lat="43.840886838757406" lon="11.164040010807591"><ele>41.666666666666664</ele><time>2026-04-19T15:49:44.001Z</time></trkpt><trkpt lat="43.84106349479069" lon="11.164192798789534"><ele>42.0</ele><time>2026-04-19T15:49:45.001Z</time></trkpt><trkpt lat="43.8412399727403" lon="11.164346480827028"><ele>43.0</ele><time>2026-04-19T15:49:46.001Z</time></trkpt><trkpt lat="43.84141887944377" lon="11.164500621389791"><ele>44.0</ele><time>2026-04-19T15:49:47.001Z</time></trkpt><trkpt lat="43.84159545140091" lon="11.164651117672225"><ele>45.0</ele><time>2026-04-19T15:49:48.001Z</time></trkpt><trkpt lat="43.84177292653413" lon="11.164797879649022"><ele>45.0</ele><time>2026-04-19T15:49:49.001Z</time></trkpt><trkpt lat="43.84195020982871" lon="11.164945850089893"><ele>45.0</ele><time>2026-04-19T15:49:50.001Z</time></trkpt><trkpt lat="43.84212498612044" lon="11.165098757654848"><ele>45.0</ele><time>2026-04-19T15:49:51.001Z</time></trkpt><trkpt lat="43.842301801178415" lon="11.165249808216021"><ele>45.0</ele><time>2026-04-19T15:49:52.001Z</time></trkpt><trkpt lat="43.842481210123104" lon="11.165400936995765"><ele>45.0</ele><time>2026-04-19T15:49:53.001Z</time></trkpt><trkpt lat="43.842659148246284" lon="11.165553244404206"><ele>45.0</ele><time>2026-04-19T15:49:54.001Z</time></trkpt><trkpt lat="43.84283716636057" lon="11.16570557331649"><ele>46.0</ele><time>2026-04-19T15:49:55.001Z</time></trkpt><trkpt lat="43.84301408425721" lon="11.165858715531837"><ele>47.0</ele><time>2026-04-19T15:49:56.001Z</time></trkpt><trkpt lat="43.843190534248464" lon="11.166010704104036"><ele>48.0</ele><time>2026-04-19T15:49:57.001Z</time></trkpt><trkpt lat="43.84336703128303" lon="11.166163632149262"><ele>48.0</ele><time>2026-04-19T15:49:58.001Z</time></trkpt><trkpt lat="43.84354393735677" lon="11.166315617856991"><ele>48.0</ele><time>2026-04-19T15:49:59.001Z</time></trkpt><trkpt lat="43.84372119683387" lon="11.166468448344325"><ele>48.0</ele><time>2026-04-19T15:50:00.001Z</time></trkpt><trkpt lat="43.84389858812207" lon="11.166621173395269"><ele>48.33333333333333</ele><time>2026-04-19T15:50:01.001Z</time></trkpt><trkpt lat="43.84407539714602" lon="11.166775399180931"><ele>48.666666666666664</ele><time>2026-04-19T15:50:02.001Z</time></trkpt><trkpt lat="43.844252996768475" lon="11.166928298467736"><ele>49.0</ele><time>2026-04-19T15:50:03.001Z</time></trkpt><trkpt lat="43.84442975672475" lon="11.167083016804856"><ele>49.33333333333333</ele><time>2026-04-19T15:50:04.001Z</time></trkpt><trkpt lat="43.84460780742454" lon="11.1672345107725"><ele>49.66666666666667</ele><time>2026-04-19T15:50:05.001Z</time></trkpt><trkpt lat="43.844785626408864" lon="11.167386792022876"><ele>50.0</ele><time>2026-04-19T15:50:06.001Z</time></trkpt><trkpt lat="43.84496275121896" lon="11.167539585945635"><ele>50.333333333333336</ele><time>2026-04-19T15:50:07Z</time></trkpt><trkpt lat="43.84514184172482" lon="11.167691383893548"><ele>50.66666666666667</ele><time>2026-04-19T15:50:08Z</time></trkpt><trkpt lat="43.84532024909628" lon="11.167842171539032"><ele>51.0</ele><time>2026-04-19T15:50:09Z</time></trkpt><trkpt lat="43.845499025768675" lon="11.167992787627533"><ele>51.0</ele><time>2026-04-19T15:50:10Z</time></trkpt><trkpt lat="43.84567701952879" lon="11.168144842768521"><ele>51.0</ele><time>2026-04-19T15:50:11Z</time></trkpt><trkpt lat="43.84585499380509" lon="11.168299338875409"><ele>51.0</ele><time>2026-04-19T15:50:12Z</time></trkpt><trkpt lat="43.84602990394424" lon="11.168457478379809"><ele>51.33333333333333</ele><time>2026-04-19T15:50:13Z</time></trkpt><trkpt lat="43.84620693637448" lon="11.168613838582404"><ele>51.666666666666664</ele><time>2026-04-19T15:50:14Z</time></trkpt><trkpt lat="43.84638464786145" lon="11.168767669870858"><ele>52.0</ele><time>2026-04-19T15:50:15Z</time></trkpt><trkpt lat="43.84656328452379" lon="11.168920606590993"><ele>52.666666666666664</ele><time>2026-04-19T15:50:16Z</time></trkpt><trkpt lat="43.84674086690888" lon="11.16907411258431"><ele>53.33333333333333</ele><time>2026-04-19T15:50:17Z</time></trkpt><trkpt lat="43.84691895274507" lon="11.169226842764784"><ele>54.0</ele><time>2026-04-19T15:50:18Z</time></trkpt><trkpt lat="43.8470974315305" lon="11.169378560488523"><ele>54.0</ele><time>2026-04-19T15:50:19Z</time></trkpt><trkpt lat="43.84727554690644" lon="11.16953037383641"><ele>54.0</ele><time>2026-04-19T15:50:20Z</time></trkpt><trkpt lat="43.84745451885413" lon="11.169683401075094"><ele>54.0</ele><time>2026-04-19T15:50:21Z</time></trkpt><trkpt lat="43.8476333198765" lon="11.169835782796303"><ele>55.33333333333333</ele><time>2026-04-19T15:50:22Z</time></trkpt><trkpt lat="43.847811539711415" lon="11.169987576282077"><ele>56.666666666666664</ele><time>2026-04-19T15:50:23Z</time></trkpt><trkpt lat="43.847990767748215" lon="11.170137885184639"><ele>58.0</ele><time>2026-04-19T15:50:24Z</time></trkpt><trkpt lat="43.84816912611476" lon="11.17028772695363"><ele>58.0</ele><time>2026-04-19T15:50:25Z</time></trkpt><trkpt lat="43.84834804467148" lon="11.170438510425686"><ele>58.0</ele><time>2026-04-19T15:50:26Z</time></trkpt><trkpt lat="43.84852753825211" lon="11.17059135101749"><ele>58.0</ele><time>2026-04-19T15:50:27Z</time></trkpt><trkpt lat="43.84870916488354" lon="11.170745880835305"><ele>57.666666666666664</ele><time>2026-04-19T15:50:28Z</time></trkpt><trkpt lat="43.84889491966341" lon="11.170904270982751"><ele>57.33333333333333</ele><time>2026-04-19T15:50:29Z</time></trkpt><trkpt lat="43.84908507218471" lon="11.171065817682232"><ele>57.0</ele><time>2026-04-19T15:50:30Z</time></trkpt><trkpt lat="43.84928039793931" lon="11.171231720109855"><ele>57.0</ele><time>2026-04-19T15:50:31Z</time></trkpt><trkpt lat="43.8494794731926" lon="11.171402397264341"><ele>57.0</ele><time>2026-04-19T15:50:32Z</time></trkpt><trkpt lat="43.849680907796625" lon="11.171574439084058"><ele>57.0</ele><time>2026-04-19T15:50:33Z</time></trkpt><trkpt lat="43.84988231465538" lon="11.17174575159608"><ele>57.0</ele><time>2026-04-19T15:50:34Z</time></trkpt><trkpt lat="43.850079428754555" lon="11.171914741583741"><ele>57.33333333333333</ele><time>2026-04-19T15:50:35Z</time></trkpt><trkpt lat="43.85026753630487" lon="11.172074579586209"><ele>57.666666666666664</ele><time>2026-04-19T15:50:36Z</time></trkpt><trkpt lat="43.85045136183523" lon="11.172231982931374"><ele>58.0</ele><time>2026-04-19T15:50:37Z</time></trkpt><trkpt lat="43.850629349075874" lon="11.172386091989484"><ele>58.0</ele><time>2026-04-19T15:50:38Z</time></trkpt><trkpt lat="43.85080480872167" lon="11.172535953774924"><ele>58.0</ele><time>2026-04-19T15:50:39Z</time></trkpt><trkpt lat="43.8509757328876" lon="11.172682177656588"><ele>58.0</ele><time>2026-04-19T15:50:40Z</time></trkpt><trkpt lat="43.85114302174009" lon="11.172824509709898"><ele>58.666666666666664</ele><time>2026-04-19T15:50:41Z</time></trkpt><trkpt lat="43.851306433741215" lon="11.172962382402618"><ele>59.33333333333333</ele><time>2026-04-19T15:50:42Z</time></trkpt><trkpt lat="43.851465862427574" lon="11.173096574987602"><ele>60.0</ele><time>2026-04-19T15:50:43Z</time></trkpt><trkpt lat="43.851621042356946" lon="11.173226987896099"><ele>60.0</ele><time>2026-04-19T15:50:44Z</time></trkpt><trkpt lat="43.851772459835935" lon="11.173354992732854"><ele>60.0</ele><time>2026-04-19T15:50:45Z</time></trkpt><trkpt lat="43.851920763526024" lon="11.173478884881868"><ele>60.0</ele><time>2026-04-19T15:50:46Z</time></trkpt><trkpt lat="43.85206528532825" lon="11.173600170324406"><ele>61.33333333333333</ele><time>2026-04-19T15:50:47Z</time></trkpt><trkpt lat="43.85220328564381" lon="11.173715285723091"><ele>62.666666666666664</ele><time>2026-04-19T15:50:48Z</time></trkpt><trkpt lat="43.85234010311982" lon="11.173829879372553"><ele>64.0</ele><time>2026-04-19T15:50:49Z</time></trkpt><trkpt lat="43.8524757513334" lon="11.17394621091751"><ele>64.25</ele><time>2026-04-19T15:50:50Z</time></trkpt><trkpt lat="43.85260576854507" lon="11.174060971621932"><ele>64.5</ele><time>2026-04-19T15:50:51Z</time></trkpt><trkpt lat="43.852732404456134" lon="11.174171609252907"><ele>64.75</ele><time>2026-04-19T15:50:52Z</time></trkpt><trkpt lat="43.85285486469187" lon="11.174276348978562"><ele>65.0</ele><time>2026-04-19T15:50:53Z</time></trkpt><trkpt lat="43.85297204037319" lon="11.17437760957366"><ele>64.5</ele><time>2026-04-19T15:50:54Z</time></trkpt><trkpt lat="43.8530857106173" lon="11.174475450351185"><ele>64.0</ele><time>2026-04-19T15:50:55Z</time></trkpt><trkpt lat="43.85319541741118" lon="11.17457007575112"><ele>63.5</ele><time>2026-04-19T15:50:56Z</time></trkpt><trkpt lat="43.853299966326375" lon="11.174661428040281"><ele>63.0</ele><time>2026-04-19T15:50:57Z</time></trkpt><trkpt lat="43.85340043696993" lon="11.174747618735815"><ele>63.2</ele><time>2026-04-19T15:50:58Z</time></trkpt><trkpt lat="43.85349305593157" lon="11.174826670792049"><ele>63.4</ele><time>2026-04-19T15:50:59Z</time></trkpt><trkpt lat="43.85358073261133" lon="11.174901369813654"><ele>63.60000000000001</ele><time>2026-04-19T15:51:00Z</time></trkpt><trkpt lat="43.8536613519785" lon="11.174971060124745"><ele>63.800000000000004</ele><time>2026-04-19T15:51:01Z</time></trkpt><trkpt lat="43.853737519254814" lon="11.175037454028143"><ele>64.0</ele><time>2026-04-19T15:51:02Z</time></trkpt><trkpt lat="43.85381006566679" lon="11.175098132661205"><ele>64.33333333333333</ele><time>2026-04-19T15:51:03Z</time></trkpt><trkpt lat="43.85387991741317" lon="11.175156262590336"><ele>64.66666666666666</ele><time>2026-04-19T15:51:04Z</time></trkpt><trkpt lat="43.853943284161694" lon="11.175213644562897"><ele>65.0</ele><time>2026-04-19T15:51:05Z</time></trkpt><trkpt lat="43.85400169818808" lon="11.175271769316534"><ele>65.33333333333333</ele><time>2026-04-19T15:51:06Z</time></trkpt><trkpt lat="43.854058734842745" lon="11.175325755088878"><ele>65.66666666666667</ele><time>2026-04-19T15:51:07Z</time></trkpt><trkpt lat="43.85411257186841" lon="11.175375041517285"><ele>66.0</ele><time>2026-04-19T15:51:08Z</time></trkpt><trkpt lat="43.85422062072421" lon="11.175471920273258"><ele>66.0</ele><time>2026-04-19T15:51:10Z</time></trkpt><trkpt lat="43.854281703113415" lon="11.175522549213989"><ele>66.0</ele><time>2026-04-19T15:51:11Z</time></trkpt><trkpt lat="43.854344719587246" lon="11.175575712488119"><ele>66.0</ele><time>2026-04-19T15:51:12Z</time></trkpt><trkpt lat="43.85441079783086" lon="11.175633247315922"><ele>66.0</ele><time>2026-04-19T15:51:13Z</time></trkpt><trkpt lat="43.85447996293401" lon="11.175691726165775"><ele>66.0</ele><time>2026-04-19T15:51:14Z</time></trkpt><trkpt lat="43.854551899138386" lon="11.175752121832385"><ele>66.0</ele><time>2026-04-19T15:51:15Z</time></trkpt><trkpt lat="43.85462543357654" lon="11.175814612701489"><ele>66.5</ele><time>2026-04-19T15:51:16Z</time></trkpt><trkpt lat="43.85470023089679" lon="11.175877883015636"><ele>67.0</ele><time>2026-04-19T15:51:17Z</time></trkpt><trkpt lat="43.85477169617426" lon="11.175939330455755"><ele>67.5</ele><time>2026-04-19T15:51:18Z</time></trkpt><trkpt lat="43.85484111086134" lon="11.175997567812244"><ele>68.0</ele><time>2026-04-19T15:51:19Z</time></trkpt><trkpt lat="43.854913554080134" lon="11.17605718862254"><ele>68.5</ele><time>2026-04-19T15:51:20Z</time></trkpt><trkpt lat="43.85498470714916" lon="11.17611542417818"><ele>69.0</ele><time>2026-04-19T15:51:21Z</time></trkpt><trkpt lat="43.85504994430186" lon="11.17616700270272"><ele>69.16666666666667</ele><time>2026-04-19T15:51:22Z</time></trkpt><trkpt lat="43.855140646407094" lon="11.17623551018371"><ele>69.33333333333333</ele><time>2026-04-19T15:51:24Z</time></trkpt><trkpt lat="43.85521502426005" lon="11.176291498381834"><ele>69.5</ele><time>2026-04-19T15:51:27Z</time></trkpt><trkpt lat="43.85527491108017" lon="11.176337837315812"><ele>69.66666666666666</ele><time>2026-04-19T15:51:30Z</time></trkpt><trkpt lat="43.855341706301175" lon="11.176386543723295"><ele>69.83333333333333</ele><time>2026-04-19T15:51:32.001Z</time></trkpt><trkpt lat="43.855423225840994" lon="11.176448427464514"><ele>70.0</ele><time>2026-04-19T15:51:34.001Z</time></trkpt><trkpt lat="43.855524813730526" lon="11.176524810159945"><ele>70.14285714285714</ele><time>2026-04-19T15:51:36.001Z</time></trkpt><trkpt lat="43.85558235700851" lon="11.176567818018762"><ele>70.28571428571428</ele><time>2026-04-19T15:51:37.001Z</time></trkpt><trkpt lat="43.855642622625886" lon="11.176610350514082"><ele>70.42857142857143</ele><time>2026-04-19T15:51:38.001Z</time></trkpt><trkpt lat="43.85570543217493" lon="11.17665363242618"><ele>70.57142857142857</ele><time>2026-04-19T15:51:39.001Z</time></trkpt><trkpt lat="43.85577104385869" lon="11.176697539010902"><ele>70.71428571428571</ele><time>2026-04-19T15:51:40.001Z</time></trkpt><trkpt lat="43.85584063554524" lon="11.17674259067843"><ele>70.85714285714286</ele><time>2026-04-19T15:51:41.001Z</time></trkpt><trkpt lat="43.8559137290172" lon="11.17678779498386"><ele>71.0</ele><time>2026-04-19T15:51:42.001Z</time></trkpt><trkpt lat="43.855988714286596" lon="11.176833865561719"><ele>71.16666666666667</ele><time>2026-04-19T15:51:43.001Z</time></trkpt><trkpt lat="43.856064859756906" lon="11.176879312501377"><ele>71.33333333333334</ele><time>2026-04-19T15:51:44.001Z</time></trkpt><trkpt lat="43.85614116550022" lon="11.176923836345289"><ele>71.5</ele><time>2026-04-19T15:51:45.001Z</time></trkpt><trkpt lat="43.856213752667045" lon="11.176964040048352"><ele>71.66666666666667</ele><time>2026-04-19T15:51:46.001Z</time></trkpt><trkpt lat="43.856288189388565" lon="11.177003302690796"><ele>71.83333333333333</ele><time>2026-04-19T15:51:47.001Z</time></trkpt><trkpt lat="43.856351887260246" lon="11.17703518421646"><ele>72.0</ele><time>2026-04-19T15:51:48.001Z</time></trkpt><trkpt lat="43.85642596485652" lon="11.177068591741605"><ele>72.0</ele><time>2026-04-19T15:51:50.001Z</time></trkpt><trkpt lat="43.85649624878486" lon="11.177101614307338"><ele>72.0</ele><time>2026-04-19T15:51:53.001Z</time></trkpt><trkpt lat="43.856556940924236" lon="11.177129525430162"><ele>72.0</ele><time>2026-04-19T15:51:56.001Z</time></trkpt><trkpt lat="43.856621362922326" lon="11.1771635666891"><ele>72.0</ele><time>2026-04-19T15:51:58.001Z</time></trkpt><trkpt lat="43.856702215728994" lon="11.177202561960982"><ele>72.0</ele><time>2026-04-19T15:52:00.001Z</time></trkpt><trkpt lat="43.856794918663354" lon="11.17724318727917"><ele>72.0</ele><time>2026-04-19T15:52:02.001Z</time></trkpt><trkpt lat="43.8568887167853" lon="11.177282195355174"><ele>72.33333333333333</ele><time>2026-04-19T15:52:04.001Z</time></trkpt><trkpt lat="43.85695465153955" lon="11.177309692143474"><ele>72.66666666666667</ele><time>2026-04-19T15:52:07.001Z</time></trkpt><trkpt lat="43.85702033867037" lon="11.177338269553164"><ele>73.0</ele><time>2026-04-19T15:52:12.001Z</time></trkpt><trkpt lat="43.857107545308246" lon="11.177372899288365"><ele>73.33333333333334</ele><time>2026-04-19T15:52:15Z</time></trkpt><trkpt lat="43.857178640168115" lon="11.177401337094697"><ele>73.66666666666667</ele><time>2026-04-19T15:52:17Z</time></trkpt><trkpt lat="43.85725404304729" lon="11.177430090814338"><ele>74.0</ele><time>2026-04-19T15:52:19Z</time></trkpt><trkpt lat="43.857329113952" lon="11.177457195048845"><ele>74.0</ele><time>2026-04-19T15:52:21Z</time></trkpt><trkpt lat="43.857404592304086" lon="11.177484194712978"><ele>74.0</ele><time>2026-04-19T15:52:24Z</time></trkpt><trkpt lat="43.85748081632781" lon="11.17750959110015"><ele>74.0</ele><time>2026-04-19T15:52:27Z</time></trkpt><trkpt lat="43.8575622910641" lon="11.177533748345837"><ele>74.0</ele><time>2026-04-19T15:52:30Z</time></trkpt><trkpt lat="43.85762585577794" lon="11.177553257163526"><ele>74.0</ele><time>2026-04-19T15:52:32Z</time></trkpt><trkpt lat="43.85769863255822" lon="11.177574146140373"><ele>74.0</ele><time>2026-04-19T15:52:34Z</time></trkpt><trkpt lat="43.85777342921496" lon="11.177596804718187"><ele>74.5</ele><time>2026-04-19T15:52:36Z</time></trkpt><trkpt lat="43.85784492499362" lon="11.177616272031324"><ele>75.0</ele><time>2026-04-19T15:52:38Z</time></trkpt><trkpt lat="43.85791697813531" lon="11.177634178694284"><ele>75.5</ele><time>2026-04-19T15:52:40Z</time></trkpt><trkpt lat="43.85798977828843" lon="11.177651836735304"><ele>76.0</ele><time>2026-04-19T15:52:42Z</time></trkpt><trkpt lat="43.85806551860916" lon="11.177669849914125"><ele>76.5</ele><time>2026-04-19T15:52:44Z</time></trkpt><trkpt lat="43.85814755402898" lon="11.17769032451995"><ele>77.0</ele><time>2026-04-19T15:52:46Z</time></trkpt><trkpt lat="43.85822529084282" lon="11.177706771709481"><ele>77.0</ele><time>2026-04-19T15:52:48Z</time></trkpt><trkpt lat="43.85830518839179" lon="11.177720566790006"><ele>77.0</ele><time>2026-04-19T15:52:50Z</time></trkpt><trkpt lat="43.858385469870115" lon="11.17773257809561"><ele>77.0</ele><time>2026-04-19T15:52:52Z</time></trkpt><trkpt lat="43.85846303542519" lon="11.177746810478538"><ele>77.0</ele><time>2026-04-19T15:52:54Z</time></trkpt><trkpt lat="43.85854441440598" lon="11.177759478801386"><ele>77.0</ele><time>2026-04-19T15:52:56Z</time></trkpt><trkpt lat="43.85863298555926" lon="11.17777176780993"><ele>77.0</ele><time>2026-04-19T15:52:58Z</time></trkpt><trkpt lat="43.85872488872399" lon="11.177784383982207"><ele>77.0</ele><time>2026-04-19T15:53:00Z</time></trkpt><trkpt lat="43.858816390666775" lon="11.177794699094258"><ele>77.0</ele><time>2026-04-19T15:53:02Z</time></trkpt><trkpt lat="43.85890280778986" lon="11.177801464397273"><ele>77.0</ele><time>2026-04-19T15:53:04Z</time></trkpt><trkpt lat="43.85898114281956" lon="11.177804538926951"><ele>77.0</ele><time>2026-04-19T15:53:06Z</time></trkpt><trkpt lat="43.859059188785075" lon="11.177808323672588"><ele>77.0</ele><time>2026-04-19T15:53:08Z</time></trkpt><trkpt lat="43.85913647693623" lon="11.177811971786571"><ele>77.0</ele><time>2026-04-19T15:53:10Z</time></trkpt><trkpt lat="43.85921231034551" lon="11.177815108620646"><ele>77.14285714285714</ele><time>2026-04-19T15:53:12Z</time></trkpt><trkpt lat="43.85928993532941" lon="11.177815489133575"><ele>77.28571428571428</ele><time>2026-04-19T15:53:14Z</time></trkpt><trkpt lat="43.85936155581724" lon="11.177815393150098"><ele>77.42857142857143</ele><time>2026-04-19T15:53:16Z</time></trkpt><trkpt lat="43.85943018829771" lon="11.177811481304705"><ele>77.57142857142857</ele><time>2026-04-19T15:53:22Z</time></trkpt><trkpt lat="43.85950980867513" lon="11.177810045376015"><ele>77.71428571428571</ele><time>2026-04-19T15:53:25.001Z</time></trkpt><trkpt lat="43.85957534464563" lon="11.177808042951455"><ele>77.85714285714286</ele><time>2026-04-19T15:53:27.001Z</time></trkpt><trkpt lat="43.85964191604486" lon="11.17780512733601"><ele>78.0</ele><time>2026-04-19T15:53:29.001Z</time></trkpt><trkpt lat="43.859722660718" lon="11.17779979213348"><ele>78.0</ele><time>2026-04-19T15:53:33.001Z</time></trkpt><trkpt lat="43.859794368686764" lon="11.177796024128268"><ele>78.0</ele><time>2026-04-19T15:53:36.001Z</time></trkpt><trkpt lat="43.859878610178505" lon="11.177791332408908"><ele>78.0</ele><time>2026-04-19T15:53:39.001Z</time></trkpt><trkpt lat="43.85995294632293" lon="11.177785632870442"><ele>78.0</ele><time>2026-04-19T15:53:42.001Z</time></trkpt><trkpt lat="43.86003119342964" lon="11.1777773646984"><ele>78.0</ele><time>2026-04-19T15:53:45.001Z</time></trkpt><trkpt lat="43.860101897683215" lon="11.177768311003522"><ele>78.0</ele><time>2026-04-19T15:53:48.001Z</time></trkpt><trkpt lat="43.86016938332883" lon="11.177760309497922"><ele>78.0</ele><time>2026-04-19T15:53:54.001Z</time></trkpt><trkpt lat="43.86025421782652" lon="11.177751392396166"><ele>78.33333333333333</ele><time>2026-04-19T15:53:57.001Z</time></trkpt><trkpt lat="43.860323467428856" lon="11.177740481686103"><ele>78.66666666666667</ele><time>2026-04-19T15:53:59.001Z</time></trkpt><trkpt lat="43.86039484534989" lon="11.177731309474376"><ele>79.0</ele><time>2026-04-19T15:54:01.001Z</time></trkpt><trkpt lat="43.860469376312636" lon="11.177718643839325"><ele>79.33333333333334</ele><time>2026-04-19T15:54:03.001Z</time></trkpt><trkpt lat="43.860552634457036" lon="11.177704287677287"><ele>79.66666666666667</ele><time>2026-04-19T15:54:05.001Z</time></trkpt><trkpt lat="43.860643837783556" lon="11.177686575359"><ele>80.0</ele><time>2026-04-19T15:54:07.001Z</time></trkpt><trkpt lat="43.860740487920125" lon="11.177664945203222"><ele>80.0</ele><time>2026-04-19T15:54:09.001Z</time></trkpt><trkpt lat="43.86083627947003" lon="11.177641822526423"><ele>80.0</ele><time>2026-04-19T15:54:11.001Z</time></trkpt><trkpt lat="43.86092304721877" lon="11.17762135785298"><ele>80.0</ele><time>2026-04-19T15:54:13.001Z</time></trkpt><trkpt lat="43.86100939951628" lon="11.17759907006905"><ele>80.0</ele><time>2026-04-19T15:54:15.001Z</time></trkpt><trkpt lat="43.86111333764092" lon="11.177572929566407"><ele>80.0</ele><time>2026-04-19T15:54:17.001Z</time></trkpt><trkpt lat="43.8612301604905" lon="11.177541622192317"><ele>80.33333333333334</ele><time>2026-04-19T15:54:19Z</time></trkpt><trkpt lat="43.86135638608365" lon="11.17750689963464"><ele>80.66666666666667</ele><time>2026-04-19T15:54:21Z</time></trkpt><trkpt lat="43.86142419284223" lon="11.177488193359942"><ele>81.0</ele><time>2026-04-19T15:54:22Z</time></trkpt><trkpt lat="43.86149220993949" lon="11.177466204437723"><ele>81.33333333333333</ele><time>2026-04-19T15:54:23Z</time></trkpt><trkpt lat="43.86155609907818" lon="11.17744368599241"><ele>81.66666666666666</ele><time>2026-04-19T15:54:24Z</time></trkpt><trkpt lat="43.86165247854325" lon="11.177411211622115"><ele>82.0</ele><time>2026-04-19T15:54:26Z</time></trkpt><trkpt lat="43.86173531086048" lon="11.17738399849215"><ele>81.33333333333333</ele><time>2026-04-19T15:54:28Z</time></trkpt><trkpt lat="43.86184438205819" lon="11.177347892604315"><ele>80.66666666666666</ele><time>2026-04-19T15:54:30Z</time></trkpt><trkpt lat="43.86191107175212" lon="11.177325015898989"><ele>80.0</ele><time>2026-04-19T15:54:31Z</time></trkpt><trkpt lat="43.86198554458729" lon="11.177298995748137"><ele>79.33333333333333</ele><time>2026-04-19T15:54:32Z</time></trkpt><trkpt lat="43.86206800620265" lon="11.177270550219875"><ele>78.66666666666667</ele><time>2026-04-19T15:54:33Z</time></trkpt><trkpt lat="43.8621519866444" lon="11.177240754879843"><ele>78.0</ele><time>2026-04-19T15:54:34Z</time></trkpt><trkpt lat="43.862237026576054" lon="11.177210799492677"><ele>78.0</ele><time>2026-04-19T15:54:35Z</time></trkpt><trkpt lat="43.862318071211575" lon="11.177180986504165"><ele>78.0</ele><time>2026-04-19T15:54:36Z</time></trkpt><trkpt lat="43.862401892794615" lon="11.177151043774208"><ele>78.0</ele><time>2026-04-19T15:54:37Z</time></trkpt><trkpt lat="43.86248744514273" lon="11.17711999760115"><ele>78.0</ele><time>2026-04-19T15:54:38Z</time></trkpt><trkpt lat="43.86257491925795" lon="11.177085731938256"><ele>78.0</ele><time>2026-04-19T15:54:39Z</time></trkpt><trkpt lat="43.86266325449718" lon="11.177050602006442"><ele>78.0</ele><time>2026-04-19T15:54:40Z</time></trkpt><trkpt lat="43.86274886336807" lon="11.177015519766407"><ele>78.16666666666667</ele><time>2026-04-19T15:54:41Z</time></trkpt><trkpt lat="43.862829120015796" lon="11.176982685709309"><ele>78.33333333333333</ele><time>2026-04-19T15:54:42Z</time></trkpt><trkpt lat="43.86290950180366" lon="11.176949742384279"><ele>78.5</ele><time>2026-04-19T15:54:43Z</time></trkpt><trkpt lat="43.8629898336737" lon="11.176917005953356"><ele>78.66666666666666</ele><time>2026-04-19T15:54:44Z</time></trkpt><trkpt lat="43.86307043531626" lon="11.176884709461307"><ele>78.83333333333333</ele><time>2026-04-19T15:54:45Z</time></trkpt><trkpt lat="43.86314847321384" lon="11.176853740287175"><ele>79.0</ele><time>2026-04-19T15:54:46Z</time></trkpt><trkpt lat="43.86322522419934" lon="11.176823939221109"><ele>79.0</ele><time>2026-04-19T15:54:47Z</time></trkpt><trkpt lat="43.863300500412514" lon="11.176794316272684"><ele>79.0</ele><time>2026-04-19T15:54:48Z</time></trkpt><trkpt lat="43.86337193690826" lon="11.176765109842014"><ele>79.0</ele><time>2026-04-19T15:54:49Z</time></trkpt><trkpt lat="43.863435878204264" lon="11.17673818068008"><ele>79.0</ele><time>2026-04-19T15:54:50Z</time></trkpt><trkpt lat="43.8634962966599" lon="11.17671325406383"><ele>79.0</ele><time>2026-04-19T15:54:51Z</time></trkpt><trkpt lat="43.86355702216651" lon="11.176688140096587"><ele>79.0</ele><time>2026-04-19T15:54:52Z</time></trkpt><trkpt lat="43.86367371293402" lon="11.176639179864026"><ele>79.6</ele><time>2026-04-19T15:54:54Z</time></trkpt><trkpt lat="43.863786594519375" lon="11.17659224356358"><ele>80.2</ele><time>2026-04-19T15:54:56Z</time></trkpt><trkpt lat="43.86390672634611" lon="11.176545740548724"><ele>80.8</ele><time>2026-04-19T15:54:58Z</time></trkpt><trkpt lat="43.863970429780444" lon="11.17652100580428"><ele>81.39999999999999</ele><time>2026-04-19T15:54:59Z</time></trkpt><trkpt lat="43.86403672987846" lon="11.17649573250735"><ele>82.0</ele><time>2026-04-19T15:55:00Z</time></trkpt><trkpt lat="43.86410748233221" lon="11.176469231437322"><ele>82.0</ele><time>2026-04-19T15:55:01Z</time></trkpt><trkpt lat="43.86418219406121" lon="11.176441415819603"><ele>82.0</ele><time>2026-04-19T15:55:02Z</time></trkpt><trkpt lat="43.86425992007882" lon="11.1764117509627"><ele>82.0</ele><time>2026-04-19T15:55:03Z</time></trkpt><trkpt lat="43.864341042087744" lon="11.176379563566286"><ele>82.0</ele><time>2026-04-19T15:55:04Z</time></trkpt><trkpt lat="43.86442473212748" lon="11.176344735349545"><ele>82.0</ele><time>2026-04-19T15:55:05Z</time></trkpt><trkpt lat="43.86451141376035" lon="11.176307337349098"><ele>82.0</ele><time>2026-04-19T15:55:06Z</time></trkpt><trkpt lat="43.8646022161838" lon="11.176269676714137"><ele>82.6</ele><time>2026-04-19T15:55:07Z</time></trkpt><trkpt lat="43.864697250064204" lon="11.176230748209372"><ele>83.19999999999999</ele><time>2026-04-19T15:55:08Z</time></trkpt><trkpt lat="43.86479711965846" lon="11.176190459405436"><ele>83.8</ele><time>2026-04-19T15:55:09Z</time></trkpt><trkpt lat="43.86489954277402" lon="11.176149956175438"><ele>84.4</ele><time>2026-04-19T15:55:10Z</time></trkpt><trkpt lat="43.86500021329757" lon="11.176109839757498"><ele>85.0</ele><time>2026-04-19T15:55:11Z</time></trkpt><trkpt lat="43.865096177118374" lon="11.176068813323255"><ele>86.0</ele><time>2026-04-19T15:55:12Z</time></trkpt><trkpt lat="43.865187077422185" lon="11.176029994453224"><ele>87.0</ele><time>2026-04-19T15:55:13Z</time></trkpt><trkpt lat="43.8652761282471" lon="11.175992962036727"><ele>88.0</ele><time>2026-04-19T15:55:14Z</time></trkpt><trkpt lat="43.86536355834144" lon="11.17595723985338"><ele>89.0</ele><time>2026-04-19T15:55:15Z</time></trkpt><trkpt lat="43.86544740067426" lon="11.175924089463459"><ele>90.0</ele><time>2026-04-19T15:55:16Z</time></trkpt><trkpt lat="43.865530859732296" lon="11.175893109445473"><ele>90.0</ele><time>2026-04-19T15:55:17Z</time></trkpt><trkpt lat="43.865614282741745" lon="11.175862539827405"><ele>90.0</ele><time>2026-04-19T15:55:18Z</time></trkpt><trkpt lat="43.86569749967346" lon="11.175829670224836"><ele>90.0</ele><time>2026-04-19T15:55:19Z</time></trkpt><trkpt lat="43.86578079562009" lon="11.175796485022493"><ele>90.0</ele><time>2026-04-19T15:55:20Z</time></trkpt><trkpt lat="43.8658664476592" lon="11.175761574748178"><ele>90.0</ele><time>2026-04-19T15:55:21Z</time></trkpt><trkpt lat="43.865954852616056" lon="11.17572567218148"><ele>90.0</ele><time>2026-04-19T15:55:22Z</time></trkpt><trkpt lat="43.86604823297861" lon="11.175688184287706"><ele>90.2</ele><time>2026-04-19T15:55:23Z</time></trkpt><trkpt lat="43.8661445771269" lon="11.175649378417278"><ele>90.4</ele><time>2026-04-19T15:55:24Z</time></trkpt><trkpt lat="43.86624592407418" lon="11.175608892885803"><ele>90.6</ele><time>2026-04-19T15:55:25Z</time></trkpt><trkpt lat="43.8663517239943" lon="11.175566928542509"><ele>90.8</ele><time>2026-04-19T15:55:26Z</time></trkpt><trkpt lat="43.866461724971906" lon="11.175522693615543"><ele>91.0</ele><time>2026-04-19T15:55:27Z</time></trkpt><trkpt lat="43.86657658935453" lon="11.175476215079723"><ele>91.0</ele><time>2026-04-19T15:55:28Z</time></trkpt><trkpt lat="43.86669613909937" lon="11.175428164003202"><ele>91.0</ele><time>2026-04-19T15:55:29Z</time></trkpt><trkpt lat="43.866811473880716" lon="11.175382673971532"><ele>91.0</ele><time>2026-04-19T15:55:30Z</time></trkpt><trkpt lat="43.866937926334494" lon="11.175334733090816"><ele>91.0</ele><time>2026-04-19T15:55:31Z</time></trkpt><trkpt lat="43.86707462916079" lon="11.175280302322063"><ele>93.0</ele><time>2026-04-19T15:55:32.001Z</time></trkpt><trkpt lat="43.86721686448869" lon="11.175223120356815"><ele>95.0</ele><time>2026-04-19T15:55:33.001Z</time></trkpt><trkpt lat="43.867361201170155" lon="11.175164880811698"><ele>97.0</ele><time>2026-04-19T15:55:34.001Z</time></trkpt><trkpt lat="43.86750507176868" lon="11.175105964916854"><ele>99.0</ele><time>2026-04-19T15:55:35.001Z</time></trkpt><trkpt lat="43.8676501671018" lon="11.175047691851445"><ele>102.33333333333334</ele><time>2026-04-19T15:55:36.001Z</time></trkpt><trkpt lat="43.8677952049809" lon="11.174990026020915"><ele>105.66666666666667</ele><time>2026-04-19T15:55:37.001Z</time></trkpt><trkpt lat="43.86794283407156" lon="11.174931068229517"><ele>109.0</ele><time>2026-04-19T15:55:38.001Z</time></trkpt><trkpt lat="43.8680917697079" lon="11.174871400472504"><ele>113.33333333333334</ele><time>2026-04-19T15:55:39.001Z</time></trkpt><trkpt lat="43.8682405700959" lon="11.174810496391283"><ele>117.66666666666666</ele><time>2026-04-19T15:55:40.001Z</time></trkpt><trkpt lat="43.86839131945762" lon="11.174752568601702"><ele>122.0</ele><time>2026-04-19T15:55:41.001Z</time></trkpt><trkpt lat="43.868542834762486" lon="11.174694765233447"><ele>122.0</ele><time>2026-04-19T15:55:42.001Z</time></trkpt><trkpt lat="43.86869502734472" lon="11.174635156368012"><ele>122.0</ele><time>2026-04-19T15:55:43.001Z</time></trkpt><trkpt lat="43.86884869505119" lon="11.17457624663035"><ele>122.0</ele><time>2026-04-19T15:55:44.001Z</time></trkpt><trkpt lat="43.869003238945545" lon="11.17451818018233"><ele>122.0</ele><time>2026-04-19T15:55:45.001Z</time></trkpt><trkpt lat="43.86915803612" lon="11.174460443513066"><ele>122.0</ele><time>2026-04-19T15:55:46.001Z</time></trkpt><trkpt lat="43.86931492624517" lon="11.174403422442621"><ele>122.0</ele><time>2026-04-19T15:55:47.001Z</time></trkpt><trkpt lat="43.869470173321375" lon="11.174347106250933"><ele>119.0</ele><time>2026-04-19T15:55:48.001Z</time></trkpt><trkpt lat="43.86962643826287" lon="11.17429380303499"><ele>116.0</ele><time>2026-04-19T15:55:49.001Z</time></trkpt><trkpt lat="43.86978615316022" lon="11.174242648382764"><ele>113.0</ele><time>2026-04-19T15:55:50.001Z</time></trkpt><trkpt lat="43.869924271575435" lon="11.174129769386814"><ele>113.0</ele><time>2026-04-19T15:55:51.001Z</time></trkpt><trkpt lat="43.87006535011971" lon="11.174054697165223"><ele>113.0</ele><time>2026-04-19T15:55:52.001Z</time></trkpt><trkpt lat="43.87021016019115" lon="11.173994993624056"><ele>113.0</ele><time>2026-04-19T15:55:53.001Z</time></trkpt><trkpt lat="43.870351740304066" lon="11.173934005020003"><ele>109.0</ele><time>2026-04-19T15:55:54.001Z</time></trkpt><trkpt lat="43.87049063154873" lon="11.173877059156016"><ele>105.0</ele><time>2026-04-19T15:55:55.001Z</time></trkpt><trkpt lat="43.870632162261735" lon="11.173816981136113"><ele>101.0</ele><time>2026-04-19T15:55:56.001Z</time></trkpt><trkpt lat="43.87077470993031" lon="11.173758750059186"><ele>97.0</ele><time>2026-04-19T15:55:57.001Z</time></trkpt><trkpt lat="43.870917674174336" lon="11.173702770184057"><ele>99.25</ele><time>2026-04-19T15:55:58.001Z</time></trkpt><trkpt lat="43.87106032044384" lon="11.173647105995089"><ele>101.5</ele><time>2026-04-19T15:55:59.001Z</time></trkpt><trkpt lat="43.87120493785373" lon="11.173591900403103"><ele>103.75</ele><time>2026-04-19T15:56:00.001Z</time></trkpt><trkpt lat="43.871346897509916" lon="11.173537010024734"><ele>106.0</ele><time>2026-04-19T15:56:01.001Z</time></trkpt><trkpt lat="43.87149027915307" lon="11.173484987473014"><ele>106.0</ele><time>2026-04-19T15:56:02.001Z</time></trkpt><trkpt lat="43.871634744254756" lon="11.173441322118494"><ele>106.0</ele><time>2026-04-19T15:56:03.001Z</time></trkpt><trkpt lat="43.8717811142283" lon="11.173409409170196"><ele>106.0</ele><time>2026-04-19T15:56:04.001Z</time></trkpt><trkpt lat="43.87192820064153" lon="11.173387216847855"><ele>106.0</ele><time>2026-04-19T15:56:05.001Z</time></trkpt><trkpt lat="43.87207537681705" lon="11.173371459834518"><ele>105.75</ele><time>2026-04-19T15:56:06.001Z</time></trkpt><trkpt lat="43.87222473485191" lon="11.173363333426588"><ele>105.5</ele><time>2026-04-19T15:56:07.001Z</time></trkpt><trkpt lat="43.8723739731285" lon="11.173361915658534"><ele>105.25</ele><time>2026-04-19T15:56:08.001Z</time></trkpt><trkpt lat="43.87252136950543" lon="11.173368918245277"><ele>105.0</ele><time>2026-04-19T15:56:09.001Z</time></trkpt><trkpt lat="43.87266125662956" lon="11.173382422399769"><ele>105.0</ele><time>2026-04-19T15:56:10.001Z</time></trkpt><trkpt lat="43.87279535618858" lon="11.173403512943901"><ele>105.0</ele><time>2026-04-19T15:56:11.001Z</time></trkpt><trkpt lat="43.87292389306465" lon="11.173431365156002"><ele>105.0</ele><time>2026-04-19T15:56:12.001Z</time></trkpt><trkpt lat="43.873049034710625" lon="11.173466084743744"><ele>105.0</ele><time>2026-04-19T15:56:13.001Z</time></trkpt><trkpt lat="43.873169846164714" lon="11.17350309882321"><ele>105.0</ele><time>2026-04-19T15:56:14.001Z</time></trkpt><trkpt lat="43.873284894924176" lon="11.173542919622127"><ele>105.0</ele><time>2026-04-19T15:56:15.001Z</time></trkpt><trkpt lat="43.873394474669595" lon="11.173589232483527"><ele>105.0</ele><time>2026-04-19T15:56:16.001Z</time></trkpt><trkpt lat="43.87349880800013" lon="11.173638534360379"><ele>105.0</ele><time>2026-04-19T15:56:17.001Z</time></trkpt><trkpt lat="43.87359701124788" lon="11.173691000272342"><ele>105.0</ele><time>2026-04-19T15:56:18.001Z</time></trkpt><trkpt lat="43.873690093354604" lon="11.173745036071507"><ele>106.33333333333333</ele><time>2026-04-19T15:56:19.001Z</time></trkpt><trkpt lat="43.87377908551108" lon="11.173799048852096"><ele>107.66666666666666</ele><time>2026-04-19T15:56:20.001Z</time></trkpt><trkpt lat="43.87386373970233" lon="11.17385377671576"><ele>109.0</ele><time>2026-04-19T15:56:21.001Z</time></trkpt><trkpt lat="43.873944760690385" lon="11.17390659823976"><ele>110.33333333333333</ele><time>2026-04-19T15:56:22.001Z</time></trkpt><trkpt lat="43.87402133077607" lon="11.173959104766274"><ele>111.66666666666666</ele><time>2026-04-19T15:56:23.001Z</time></trkpt><trkpt lat="43.87409543493246" lon="11.174013552666771"><ele>113.0</ele><time>2026-04-19T15:56:24.001Z</time></trkpt><trkpt lat="43.87416993234904" lon="11.174073050497759"><ele>112.99999999999999</ele><time>2026-04-19T15:56:25Z</time></trkpt><trkpt lat="43.87424328968641" lon="11.174136997643988"><ele>113.0</ele><time>2026-04-19T15:56:26Z</time></trkpt><trkpt lat="43.87431743855105" lon="11.17420565512435"><ele>113.0</ele><time>2026-04-19T15:56:27Z</time></trkpt><trkpt lat="43.874392442594576" lon="11.174275890759827"><ele>113.0</ele><time>2026-04-19T15:56:28Z</time></trkpt><trkpt lat="43.87446726773723" lon="11.174346543285084"><ele>112.99999999999999</ele><time>2026-04-19T15:56:29Z</time></trkpt><trkpt lat="43.87454353547715" lon="11.174416292899627"><ele>113.0</ele><time>2026-04-19T15:56:30Z</time></trkpt><trkpt lat="43.87462059223741" lon="11.174485309166586"><ele>113.66666666666666</ele><time>2026-04-19T15:56:31Z</time></trkpt><trkpt lat="43.87469726690237" lon="11.174553997861425"><ele>114.33333333333333</ele><time>2026-04-19T15:56:32Z</time></trkpt><trkpt lat="43.87477075616976" lon="11.174621375728833"><ele>115.0</ele><time>2026-04-19T15:56:33Z</time></trkpt><trkpt lat="43.87484139691608" lon="11.174686437361736"><ele>115.66666666666666</ele><time>2026-04-19T15:56:34Z</time></trkpt><trkpt lat="43.8749099685458" lon="11.174749283591652"><ele>116.33333333333333</ele><time>2026-04-19T15:56:35Z</time></trkpt><trkpt lat="43.87497648017679" lon="11.174809715984328"><ele>117.0</ele><time>2026-04-19T15:56:36Z</time></trkpt><trkpt lat="43.87504230219736" lon="11.174870631655061"><ele>113.83333333333333</ele><time>2026-04-19T15:56:37Z</time></trkpt><trkpt lat="43.87510878135977" lon="11.174931823892114"><ele>110.66666666666666</ele><time>2026-04-19T15:56:38Z</time></trkpt><trkpt lat="43.87517473624856" lon="11.174993793427781"><ele>107.5</ele><time>2026-04-19T15:56:39Z</time></trkpt><trkpt lat="43.87524110216121" lon="11.175055230047725"><ele>104.33333333333333</ele><time>2026-04-19T15:56:40Z</time></trkpt><trkpt lat="43.87530710894198" lon="11.175116241666737"><ele>101.16666666666666</ele><time>2026-04-19T15:56:41Z</time></trkpt><trkpt lat="43.875371667710596" lon="11.17517645784678"><ele>98.0</ele><time>2026-04-19T15:56:42Z</time></trkpt><trkpt lat="43.87543213980937" lon="11.175234471468421"><ele>97.99999999999999</ele><time>2026-04-19T15:56:43Z</time></trkpt><trkpt lat="43.875493105395876" lon="11.175292208579561"><ele>98.0</ele><time>2026-04-19T15:56:44Z</time></trkpt><trkpt lat="43.875555842052606" lon="11.17535207649912"><ele>98.0</ele><time>2026-04-19T15:56:45Z</time></trkpt><trkpt lat="43.875622508152006" lon="11.175414528802728"><ele>98.0</ele><time>2026-04-19T15:56:46Z</time></trkpt><trkpt lat="43.87569297248655" lon="11.175480515443708"><ele>97.99999999999999</ele><time>2026-04-19T15:56:47Z</time></trkpt><trkpt lat="43.87576860670374" lon="11.175548247365926"><ele>98.0</ele><time>2026-04-19T15:56:48Z</time></trkpt><trkpt lat="43.875849518307064" lon="11.175620086029081"><ele>98.60000000000001</ele><time>2026-04-19T15:56:49Z</time></trkpt><trkpt lat="43.87593306293228" lon="11.175695537402303"><ele>99.2</ele><time>2026-04-19T15:56:50Z</time></trkpt><trkpt lat="43.876017277383035" lon="11.17577515862331"><ele>99.8</ele><time>2026-04-19T15:56:51Z</time></trkpt><trkpt lat="43.876101707802434" lon="11.175856144939852"><ele>100.4</ele><time>2026-04-19T15:56:52Z</time></trkpt><trkpt lat="43.876178072807924" lon="11.175928729585936"><ele>101.0</ele><time>2026-04-19T15:56:53Z</time></trkpt><trkpt lat="43.87623803606735" lon="11.175983746004222"><ele>101.0</ele><time>2026-04-19T15:56:54Z</time></trkpt><trkpt lat="43.87634000387577" lon="11.176074489830468"><ele>101.0</ele><time>2026-04-19T15:56:56Z</time></trkpt><trkpt lat="43.876428581508485" lon="11.17615682147929"><ele>101.0</ele><time>2026-04-19T15:56:58Z</time></trkpt><trkpt lat="43.87648964610271" lon="11.176214869507696"><ele>101.0</ele><time>2026-04-19T15:57:00Z</time></trkpt><trkpt lat="43.876547918172534" lon="11.176272698843084"><ele>101.0</ele><time>2026-04-19T15:57:06Z</time></trkpt><trkpt lat="43.87662226347036" lon="11.176334361761374"><ele>100.99999999999999</ele><time>2026-04-19T15:57:09Z</time></trkpt><trkpt lat="43.87667903769203" lon="11.176386228852465"><ele>101.0</ele><time>2026-04-19T15:57:17Z</time></trkpt><trkpt lat="43.876757458308276" lon="11.17646276068044"><ele>101.0</ele><time>2026-04-19T15:57:20Z</time></trkpt><trkpt lat="43.87682389072686" lon="11.176524964212614"><ele>101.0</ele><time>2026-04-19T15:57:22Z</time></trkpt><trkpt lat="43.87689330876622" lon="11.17658981201437"><ele>100.99999999999999</ele><time>2026-04-19T15:57:24Z</time></trkpt><trkpt lat="43.87696561675014" lon="11.176659396072969"><ele>101.0</ele><time>2026-04-19T15:57:26Z</time></trkpt><trkpt lat="43.877044601573935" lon="11.176732323071576"><ele>100.19999999999999</ele><time>2026-04-19T15:57:28.001Z</time></trkpt><trkpt lat="43.87713100703888" lon="11.176809112663626"><ele>99.39999999999999</ele><time>2026-04-19T15:57:30.001Z</time></trkpt><trkpt lat="43.87722144914818" lon="11.176896194394573"><ele>98.6</ele><time>2026-04-19T15:57:32.001Z</time></trkpt><trkpt lat="43.87731283019886" lon="11.176989056242466"><ele>97.8</ele><time>2026-04-19T15:57:34.001Z</time></trkpt><trkpt lat="43.87741123930728" lon="11.177090172494967"><ele>97.0</ele><time>2026-04-19T15:57:36.001Z</time></trkpt><trkpt lat="43.877465122280164" lon="11.177145154540003"><ele>97.0</ele><time>2026-04-19T15:57:37.001Z</time></trkpt><trkpt lat="43.877517974622776" lon="11.177200117905155"><ele>97.0</ele><time>2026-04-19T15:57:38.001Z</time></trkpt><trkpt lat="43.8775714146938" lon="11.177256862747361"><ele>97.0</ele><time>2026-04-19T15:57:39.001Z</time></trkpt><trkpt lat="43.877623941235875" lon="11.177314702035932"><ele>97.0</ele><time>2026-04-19T15:57:40.001Z</time></trkpt><trkpt lat="43.8776760378967" lon="11.17737431378701"><ele>97.0</ele><time>2026-04-19T15:57:41.001Z</time></trkpt><trkpt lat="43.87772764887236" lon="11.177434844628783"><ele>97.0</ele><time>2026-04-19T15:57:42.001Z</time></trkpt><trkpt lat="43.87777945604423" lon="11.177496928059805"><ele>97.0</ele><time>2026-04-19T15:57:43.001Z</time></trkpt><trkpt lat="43.87783122924494" lon="11.177559681185697"><ele>97.33333333333334</ele><time>2026-04-19T15:57:44.001Z</time></trkpt><trkpt lat="43.877882429603204" lon="11.177624168936259"><ele>97.66666666666667</ele><time>2026-04-19T15:57:45.001Z</time></trkpt><trkpt lat="43.87793491502648" lon="11.177689203996609"><ele>98.0</ele><time>2026-04-19T15:57:46.001Z</time></trkpt><trkpt lat="43.87798682990409" lon="11.177754098923748"><ele>98.33333333333334</ele><time>2026-04-19T15:57:47.001Z</time></trkpt><trkpt lat="43.87803411367692" lon="11.177814524980636"><ele>98.66666666666667</ele><time>2026-04-19T15:57:48.001Z</time></trkpt><trkpt lat="43.878120359689284" lon="11.177927372574558"><ele>99.0</ele><time>2026-04-19T15:57:50.001Z</time></trkpt><trkpt lat="43.87820114961061" lon="11.178037152055118"><ele>99.0</ele><time>2026-04-19T15:57:52.001Z</time></trkpt><trkpt lat="43.87828748961886" lon="11.178157753799436"><ele>99.0</ele><time>2026-04-19T15:57:54.001Z</time></trkpt><trkpt lat="43.87833300725573" lon="11.178223910073719"><ele>99.0</ele><time>2026-04-19T15:57:55.001Z</time></trkpt><trkpt lat="43.87837992396459" lon="11.178296199477742"><ele>99.0</ele><time>2026-04-19T15:57:56.001Z</time></trkpt><trkpt lat="43.87842822818554" lon="11.178372070883515"><ele>99.0</ele><time>2026-04-19T15:57:57.001Z</time></trkpt><trkpt lat="43.8784780569652" lon="11.178452823009637"><ele>99.0</ele><time>2026-04-19T15:57:58.001Z</time></trkpt><trkpt lat="43.87852993066006" lon="11.178536062559425"><ele>99.0</ele><time>2026-04-19T15:57:59.001Z</time></trkpt><trkpt lat="43.87858284709084" lon="11.178622223023568"><ele>99.0</ele><time>2026-04-19T15:58:00.001Z</time></trkpt><trkpt lat="43.87863661184844" lon="11.178710351127656"><ele>99.0</ele><time>2026-04-19T15:58:01.001Z</time></trkpt><trkpt lat="43.87869094312926" lon="11.178801329115196"><ele>99.0</ele><time>2026-04-19T15:58:02.001Z</time></trkpt><trkpt lat="43.878743615347375" lon="11.17889431011257"><ele>99.0</ele><time>2026-04-19T15:58:03.001Z</time></trkpt><trkpt lat="43.87879606142189" lon="11.178989280210724"><ele>99.0</ele><time>2026-04-19T15:58:04.001Z</time></trkpt><trkpt lat="43.878848668026244" lon="11.179085692753747"><ele>101.6</ele><time>2026-04-19T15:58:05.001Z</time></trkpt><trkpt lat="43.878902932870986" lon="11.17918468931341"><ele>104.2</ele><time>2026-04-19T15:58:06.001Z</time></trkpt><trkpt lat="43.87895712229193" lon="11.179286727999305"><ele>106.79999999999998</ele><time>2026-04-19T15:58:07.001Z</time></trkpt><trkpt lat="43.87901144205952" lon="11.179390909406736"><ele>109.39999999999999</ele><time>2026-04-19T15:58:08.001Z</time></trkpt><trkpt lat="43.879065742236385" lon="11.179496127057018"><ele>112.0</ele><time>2026-04-19T15:58:09.001Z</time></trkpt><trkpt lat="43.87911971707269" lon="11.179603681563062"><ele>112.0</ele><time>2026-04-19T15:58:10.001Z</time></trkpt><trkpt lat="43.879175916785954" lon="11.179711994561634"><ele>111.99999999999999</ele><time>2026-04-19T15:58:11.001Z</time></trkpt><trkpt lat="43.87923232642923" lon="11.179822519082819"><ele>111.99999999999999</ele><time>2026-04-19T15:58:12.001Z</time></trkpt><trkpt lat="43.879290202851315" lon="11.179936115126829"><ele>112.0</ele><time>2026-04-19T15:58:13.001Z</time></trkpt><trkpt lat="43.87934994697435" lon="11.180050018666746"><ele>112.0</ele><time>2026-04-19T15:58:14.001Z</time></trkpt><trkpt lat="43.87941039693847" lon="11.180166360829766"><ele>111.39999999999999</ele><time>2026-04-19T15:58:15.001Z</time></trkpt><trkpt lat="43.87947223903662" lon="11.180282971971003"><ele>110.79999999999998</ele><time>2026-04-19T15:58:16.001Z</time></trkpt><trkpt lat="43.87953159472098" lon="11.18039751321298"><ele>110.2</ele><time>2026-04-19T15:58:17.001Z</time></trkpt><trkpt lat="43.87959054595716" lon="11.180515098015968"><ele>109.6</ele><time>2026-04-19T15:58:18.001Z</time></trkpt><trkpt lat="43.87965449124787" lon="11.180636926047919"><ele>109.0</ele><time>2026-04-19T15:58:19.001Z</time></trkpt><trkpt lat="43.879721294165385" lon="11.180763605422943"><ele>109.0</ele><time>2026-04-19T15:58:20.001Z</time></trkpt><trkpt lat="43.87979294990973" lon="11.18089135902083"><ele>109.0</ele><time>2026-04-19T15:58:21.001Z</time></trkpt><trkpt lat="43.87986804958919" lon="11.181023584796952"><ele>109.0</ele><time>2026-04-19T15:58:22.001Z</time></trkpt><trkpt lat="43.879945006033424" lon="11.181158442063076"><ele>109.0</ele><time>2026-04-19T15:58:23.001Z</time></trkpt><trkpt lat="43.880024538665005" lon="11.181291876849086"><ele>107.5</ele><time>2026-04-19T15:58:24.001Z</time></trkpt><trkpt lat="43.88010594054865" lon="11.181424300509049"><ele>106.0</ele><time>2026-04-19T15:58:25.001Z</time></trkpt><trkpt lat="43.880189061753725" lon="11.181551827184014"><ele>104.5</ele><time>2026-04-19T15:58:26.001Z</time></trkpt><trkpt lat="43.88027117715096" lon="11.181668695968725"><ele>103.0</ele><time>2026-04-19T15:58:27.001Z</time></trkpt><trkpt lat="43.88035117132406" lon="11.181779332243298"><ele>103.0</ele><time>2026-04-19T15:58:28.001Z</time></trkpt><trkpt lat="43.88042785696075" lon="11.18188333071348"><ele>103.0</ele><time>2026-04-19T15:58:29.001Z</time></trkpt><trkpt lat="43.88050130314716" lon="11.181982951437014"><ele>103.0</ele><time>2026-04-19T15:58:30.001Z</time></trkpt><trkpt lat="43.88057163801243" lon="11.18207461974367"><ele>103.0</ele><time>2026-04-19T15:58:31Z</time></trkpt><trkpt lat="43.880637036703966" lon="11.182154999148098"><ele>103.0</ele><time>2026-04-19T15:58:32Z</time></trkpt><trkpt lat="43.880698719958914" lon="11.182227739594675"><ele>102.99999999999999</ele><time>2026-04-19T15:58:33Z</time></trkpt><trkpt lat="43.88075718600688" lon="11.182294888991292"><ele>103.0</ele><time>2026-04-19T15:58:34Z</time></trkpt><trkpt lat="43.880812856566024" lon="11.182357465596683"><ele>103.0</ele><time>2026-04-19T15:58:35Z</time></trkpt><trkpt lat="43.88086541367547" lon="11.182415440654754"><ele>103.0</ele><time>2026-04-19T15:58:36Z</time></trkpt><trkpt lat="43.8809167330471" lon="11.182474224105695"><ele>103.0</ele><time>2026-04-19T15:58:37Z</time></trkpt><trkpt lat="43.88096800371007" lon="11.18253280015413"><ele>102.99999999999999</ele><time>2026-04-19T15:58:38Z</time></trkpt><trkpt lat="43.88101940367718" lon="11.182591390063125"><ele>103.0</ele><time>2026-04-19T15:58:39Z</time></trkpt><trkpt lat="43.8810694568989" lon="11.182646032237152"><ele>105.4</ele><time>2026-04-19T15:58:40Z</time></trkpt><trkpt lat="43.88116082894049" lon="11.182744011684035"><ele>107.80000000000001</ele><time>2026-04-19T15:58:42Z</time></trkpt><trkpt lat="43.88123003363529" lon="11.182817988927127"><ele>110.2</ele><time>2026-04-19T15:58:44Z</time></trkpt><trkpt lat="43.88129005409639" lon="11.182881156196775"><ele>112.6</ele><time>2026-04-19T15:58:46Z</time></trkpt><trkpt lat="43.88136071559233" lon="11.182955683105952"><ele>115.0</ele><time>2026-04-19T15:58:48Z</time></trkpt><trkpt lat="43.881446479800196" lon="11.18305285125693"><ele>114.99999999999999</ele><time>2026-04-19T15:58:50Z</time></trkpt><trkpt lat="43.881496043557156" lon="11.183107555668894"><ele>115.0</ele><time>2026-04-19T15:58:51Z</time></trkpt><trkpt lat="43.88154924422827" lon="11.183165253715359"><ele>114.99999999999999</ele><time>2026-04-19T15:58:52Z</time></trkpt><trkpt lat="43.88160524125353" lon="11.183226066304348"><ele>114.99999999999999</ele><time>2026-04-19T15:58:53Z</time></trkpt><trkpt lat="43.88166388436184" lon="11.183289141388656"><ele>115.0</ele><time>2026-04-19T15:58:54Z</time></trkpt><trkpt lat="43.88172475127552" lon="11.183354552664909"><ele>114.99999999999999</ele><time>2026-04-19T15:58:55Z</time></trkpt><trkpt lat="43.881788155635995" lon="11.18342111496933"><ele>114.99999999999999</ele><time>2026-04-19T15:58:56Z</time></trkpt><trkpt lat="43.88185392467325" lon="11.183489243249488"><ele>114.50000000000001</ele><time>2026-04-19T15:58:57Z</time></trkpt><trkpt lat="43.881920629317" lon="11.183561361454247"><ele>114.0</ele><time>2026-04-19T15:58:58Z</time></trkpt><trkpt lat="43.881988651725656" lon="11.183636538001652"><ele>113.5</ele><time>2026-04-19T15:58:59Z</time></trkpt><trkpt lat="43.88205799177189" lon="11.183713400179023"><ele>113.0</ele><time>2026-04-19T15:59:00Z</time></trkpt><trkpt lat="43.88212980028309" lon="11.183790329600827"><ele>112.50000000000001</ele><time>2026-04-19T15:59:01Z</time></trkpt><trkpt lat="43.88220438117011" lon="11.183866484103964"><ele>112.0</ele><time>2026-04-19T15:59:02Z</time></trkpt><trkpt lat="43.882281246601075" lon="11.1839430471496"><ele>112.8</ele><time>2026-04-19T15:59:03Z</time></trkpt><trkpt lat="43.88236025610673" lon="11.184018027509895"><ele>113.6</ele><time>2026-04-19T15:59:04Z</time></trkpt><trkpt lat="43.88244165992739" lon="11.184092675556663"><ele>114.39999999999999</ele><time>2026-04-19T15:59:05Z</time></trkpt><trkpt lat="43.88252540671144" lon="11.184165096788846"><ele>115.19999999999999</ele><time>2026-04-19T15:59:06Z</time></trkpt><trkpt lat="43.882612487342925" lon="11.184235113790777"><ele>116.0</ele><time>2026-04-19T15:59:07Z</time></trkpt><trkpt lat="43.88270301231168" lon="11.184300242763943"><ele>113.19999999999999</ele><time>2026-04-19T15:59:08Z</time></trkpt><trkpt lat="43.88279460007039" lon="11.18436440816725"><ele>110.39999999999999</ele><time>2026-04-19T15:59:09Z</time></trkpt><trkpt lat="43.88288840023735" lon="11.184425947444176"><ele>107.6</ele><time>2026-04-19T15:59:10Z</time></trkpt><trkpt lat="43.882983984248064" lon="11.184486588522127"><ele>104.8</ele><time>2026-04-19T15:59:11Z</time></trkpt><trkpt lat="43.88308102552497" lon="11.184544323360159"><ele>102.0</ele><time>2026-04-19T15:59:12Z</time></trkpt><trkpt lat="43.8831790017025" lon="11.184602900806828"><ele>102.0</ele><time>2026-04-19T15:59:13Z</time></trkpt><trkpt lat="43.883278726676984" lon="11.184658199772025"><ele>102.0</ele><time>2026-04-19T15:59:14Z</time></trkpt><trkpt lat="43.88338066938463" lon="11.184706928898402"><ele>102.0</ele><time>2026-04-19T15:59:15Z</time></trkpt><trkpt lat="43.8834876933492" lon="11.184755548696215"><ele>102.0</ele><time>2026-04-19T15:59:16Z</time></trkpt><trkpt lat="43.883603828962755" lon="11.18480505331824"><ele>102.0</ele><time>2026-04-19T15:59:17Z</time></trkpt><trkpt lat="43.883729234507236" lon="11.184855526185084"><ele>102.0</ele><time>2026-04-19T15:59:18Z</time></trkpt><trkpt lat="43.88385857128316" lon="11.184898653110546"><ele>102.0</ele><time>2026-04-19T15:59:19Z</time></trkpt><trkpt lat="43.8839865148478" lon="11.184936340271113"><ele>102.0</ele><time>2026-04-19T15:59:20.001Z</time></trkpt><trkpt lat="43.884122465401454" lon="11.184965998158454"><ele>102.0</ele><time>2026-04-19T15:59:21.001Z</time></trkpt><trkpt lat="43.88426352743791" lon="11.184993043592593"><ele>100.75</ele><time>2026-04-19T15:59:22.001Z</time></trkpt><trkpt lat="43.8844100636611" lon="11.185016314658228"><ele>99.5</ele><time>2026-04-19T15:59:23.001Z</time></trkpt><trkpt lat="43.88455823467486" lon="11.185032334174345"><ele>98.25</ele><time>2026-04-19T15:59:24.001Z</time></trkpt><trkpt lat="43.884705053529665" lon="11.185043332906607"><ele>97.0</ele><time>2026-04-19T15:59:25.001Z</time></trkpt><trkpt lat="43.8848453693215" lon="11.185047080237293"><ele>97.0</ele><time>2026-04-19T15:59:26.001Z</time></trkpt><trkpt lat="43.88498230127969" lon="11.185044675035314"><ele>97.0</ele><time>2026-04-19T15:59:27.001Z</time></trkpt><trkpt lat="43.885118411843656" lon="11.185037806838983"><ele>97.0</ele><time>2026-04-19T15:59:28.001Z</time></trkpt><trkpt lat="43.885253033164105" lon="11.185022168243794"><ele>97.0</ele><time>2026-04-19T15:59:29.001Z</time></trkpt><trkpt lat="43.88538869924491" lon="11.185003534578755"><ele>97.5</ele><time>2026-04-19T15:59:30.001Z</time></trkpt><trkpt lat="43.885525985690506" lon="11.184979615091308"><ele>98.0</ele><time>2026-04-19T15:59:31.001Z</time></trkpt><trkpt lat="43.88566400185339" lon="11.184948251576541"><ele>98.5</ele><time>2026-04-19T15:59:32.001Z</time></trkpt><trkpt lat="43.88580343773568" lon="11.184908954114762"><ele>99.0</ele><time>2026-04-19T15:59:33.001Z</time></trkpt><trkpt lat="43.88594255221164" lon="11.184865138086174"><ele>103.75</ele><time>2026-04-19T15:59:34.001Z</time></trkpt><trkpt lat="43.886083647163495" lon="11.184819472060864"><ele>108.5</ele><time>2026-04-19T15:59:35.001Z</time></trkpt><trkpt lat="43.88622703296511" lon="11.18477154107807"><ele>113.25</ele><time>2026-04-19T15:59:36.001Z</time></trkpt><trkpt lat="43.88637217075825" lon="11.184722936297364"><ele>118.0</ele><time>2026-04-19T15:59:37.001Z</time></trkpt><trkpt lat="43.88651790472597" lon="11.184673955641076"><ele>118.0</ele><time>2026-04-19T15:59:38.001Z</time></trkpt><trkpt lat="43.8866644432766" lon="11.184624909529965"><ele>118.0</ele><time>2026-04-19T15:59:39.001Z</time></trkpt><trkpt lat="43.88681141700099" lon="11.184577849626221"><ele>118.0</ele><time>2026-04-19T15:59:40.001Z</time></trkpt><trkpt lat="43.8869584198969" lon="11.184531338113437"><ele>120.25</ele><time>2026-04-19T15:59:41.001Z</time></trkpt><trkpt lat="43.88710343729376" lon="11.184487213187241"><ele>122.5</ele><time>2026-04-19T15:59:42.001Z</time></trkpt><trkpt lat="43.88724424199631" lon="11.184444592919911"><ele>124.75</ele><time>2026-04-19T15:59:43.001Z</time></trkpt><trkpt lat="43.88738461696635" lon="11.184403371860995"><ele>127.0</ele><time>2026-04-19T15:59:44.001Z</time></trkpt><trkpt lat="43.88752755986693" lon="11.184367888421157"><ele>128.25</ele><time>2026-04-19T15:59:45.001Z</time></trkpt><trkpt lat="43.88767114699481" lon="11.184338808408503"><ele>129.5</ele><time>2026-04-19T15:59:46.001Z</time></trkpt><trkpt lat="43.8878165168215" lon="11.184316143174996"><ele>130.75</ele><time>2026-04-19T15:59:47.001Z</time></trkpt><trkpt lat="43.887962710177774" lon="11.184296592412597"><ele>132.0</ele><time>2026-04-19T15:59:48.001Z</time></trkpt><trkpt lat="43.88810933424063" lon="11.18428260803097"><ele>132.0</ele><time>2026-04-19T15:59:49.001Z</time></trkpt><trkpt lat="43.88825680177095" lon="11.184275017998262"><ele>132.0</ele><time>2026-04-19T15:59:50.001Z</time></trkpt><trkpt lat="43.88840467939117" lon="11.184272682690274"><ele>132.0</ele><time>2026-04-19T15:59:51.001Z</time></trkpt><trkpt lat="43.88855348700063" lon="11.184277362899318"><ele>132.0</ele><time>2026-04-19T15:59:52.001Z</time></trkpt><trkpt lat="43.888702996819504" lon="11.184285353022663"><ele>132.25</ele><time>2026-04-19T15:59:53.001Z</time></trkpt><trkpt lat="43.888851590265915" lon="11.18429798081806"><ele>132.5</ele><time>2026-04-19T15:59:54.001Z</time></trkpt><trkpt lat="43.889000799111194" lon="11.184314764772529"><ele>132.75</ele><time>2026-04-19T15:59:55.001Z</time></trkpt><trkpt lat="43.88914978886736" lon="11.184339069130887"><ele>133.0</ele><time>2026-04-19T15:59:56.001Z</time></trkpt><trkpt lat="43.889298180662756" lon="11.184367108610106"><ele>131.5</ele><time>2026-04-19T15:59:57.001Z</time></trkpt><trkpt lat="43.88944447354415" lon="11.184399545813422"><ele>130.0</ele><time>2026-04-19T15:59:58.001Z</time></trkpt><trkpt lat="43.889582778514686" lon="11.18443747135315"><ele>128.5</ele><time>2026-04-19T15:59:59.001Z</time></trkpt><trkpt lat="43.889713898551" lon="11.18447832817145"><ele>127.0</ele><time>2026-04-19T16:00:00.001Z</time></trkpt><trkpt lat="43.88983915459678" lon="11.184519412482272"><ele>127.0</ele><time>2026-04-19T16:00:01.001Z</time></trkpt><trkpt lat="43.88996266325767" lon="11.184562158603654"><ele>127.0</ele><time>2026-04-19T16:00:02.001Z</time></trkpt><trkpt lat="43.890083544403204" lon="11.1846094353892"><ele>127.0</ele><time>2026-04-19T16:00:03.001Z</time></trkpt><trkpt lat="43.89020033871901" lon="11.184658846535616"><ele>127.0</ele><time>2026-04-19T16:00:04.001Z</time></trkpt><trkpt lat="43.890312461993894" lon="11.184712630863851"><ele>127.6</ele><time>2026-04-19T16:00:05.001Z</time></trkpt><trkpt lat="43.89041886094353" lon="11.184767738837943"><ele>128.2</ele><time>2026-04-19T16:00:06.001Z</time></trkpt><trkpt lat="43.89052007752426" lon="11.184823414704688"><ele>128.8</ele><time>2026-04-19T16:00:07.001Z</time></trkpt><trkpt lat="43.89061674605106" lon="11.184877100482648"><ele>129.4</ele><time>2026-04-19T16:00:08.001Z</time></trkpt><trkpt lat="43.89070581883212" lon="11.18492672478343"><ele>130.0</ele><time>2026-04-19T16:00:09.001Z</time></trkpt><trkpt lat="43.89078749299952" lon="11.184974232605748"><ele>132.2</ele><time>2026-04-19T16:00:10.001Z</time></trkpt><trkpt lat="43.89086323080311" lon="11.185020012457867"><ele>134.4</ele><time>2026-04-19T16:00:11.001Z</time></trkpt><trkpt lat="43.89093262645604" lon="11.185064555678583"><ele>136.6</ele><time>2026-04-19T16:00:12.001Z</time></trkpt><trkpt lat="43.89099583119638" lon="11.1851058394686"><ele>138.8</ele><time>2026-04-19T16:00:13.001Z</time></trkpt><trkpt lat="43.8911064561779" lon="11.185179297644938"><ele>141.0</ele><time>2026-04-19T16:00:15.001Z</time></trkpt><trkpt lat="43.89121458673077" lon="11.18525560843809"><ele>141.0</ele><time>2026-04-19T16:00:17.001Z</time></trkpt><trkpt lat="43.891316165776544" lon="11.18533164164937"><ele>141.0</ele><time>2026-04-19T16:00:19.001Z</time></trkpt><trkpt lat="43.89140458389208" lon="11.185404497271147"><ele>141.0</ele><time>2026-04-19T16:00:21.001Z</time></trkpt><trkpt lat="43.89149954253349" lon="11.185485625755168"><ele>141.0</ele><time>2026-04-19T16:00:23.001Z</time></trkpt><trkpt lat="43.891606019283" lon="11.185580185882554"><ele>141.0</ele><time>2026-04-19T16:00:25.001Z</time></trkpt><trkpt lat="43.89166232469853" lon="11.185633738992747"><ele>141.0</ele><time>2026-04-19T16:00:26.001Z</time></trkpt><trkpt lat="43.89171797615686" lon="11.185688104640764"><ele>141.0</ele><time>2026-04-19T16:00:27.001Z</time></trkpt><trkpt lat="43.891770437155756" lon="11.185739509882978"><ele>141.0</ele><time>2026-04-19T16:00:28.001Z</time></trkpt><trkpt lat="43.891863123968946" lon="11.185833860371254"><ele>141.0</ele><time>2026-04-19T16:00:30.001Z</time></trkpt><trkpt lat="43.891956441652354" lon="11.185930407157507"><ele>141.0</ele><time>2026-04-19T16:00:32.001Z</time></trkpt><trkpt lat="43.89203313910344" lon="11.186011517838473"><ele>142.6</ele><time>2026-04-19T16:00:34.001Z</time></trkpt><trkpt lat="43.892096820096796" lon="11.186079550172803"><ele>144.2</ele><time>2026-04-19T16:00:36.001Z</time></trkpt><trkpt lat="43.89215861690578" lon="11.186147029314368"><ele>145.8</ele><time>2026-04-19T16:00:38Z</time></trkpt><trkpt lat="43.89222529194988" lon="11.186220081467278"><ele>147.4</ele><time>2026-04-19T16:00:40Z</time></trkpt><trkpt lat="43.89230001302975" lon="11.186302145389412"><ele>149.0</ele><time>2026-04-19T16:00:42Z</time></trkpt><trkpt lat="43.89239976135932" lon="11.186410784406515"><ele>149.0</ele><time>2026-04-19T16:00:44Z</time></trkpt><trkpt lat="43.89245839697732" lon="11.186473538369476"><ele>149.0</ele><time>2026-04-19T16:00:45Z</time></trkpt><trkpt lat="43.89251864362673" lon="11.186538181600213"><ele>149.0</ele><time>2026-04-19T16:00:46Z</time></trkpt><trkpt lat="43.89257822376104" lon="11.186604513203607"><ele>149.0</ele><time>2026-04-19T16:00:47Z</time></trkpt><trkpt lat="43.892636610382056" lon="11.186669304534288"><ele>149.0</ele><time>2026-04-19T16:00:48Z</time></trkpt><trkpt lat="43.89269528987723" lon="11.186733902734058"><ele>149.0</ele><time>2026-04-19T16:00:49Z</time></trkpt><trkpt lat="43.89275464380712" lon="11.186799284639045"><ele>148.33333333333331</ele><time>2026-04-19T16:00:50Z</time></trkpt><trkpt lat="43.89281531527182" lon="11.186866168428061"><ele>147.66666666666666</ele><time>2026-04-19T16:00:51Z</time></trkpt><trkpt lat="43.89287747134447" lon="11.186934268343855"><ele>147.0</ele><time>2026-04-19T16:00:52Z</time></trkpt><trkpt lat="43.89294087603177" lon="11.18700394653052"><ele>146.33333333333334</ele><time>2026-04-19T16:00:53Z</time></trkpt><trkpt lat="43.893005412055764" lon="11.187075348398022"><ele>145.66666666666669</ele><time>2026-04-19T16:00:54Z</time></trkpt><trkpt lat="43.89307255032914" lon="11.187149943704517"><ele>145.0</ele><time>2026-04-19T16:00:55Z</time></trkpt><trkpt lat="43.89314375678812" lon="11.187227616625322"><ele>145.0</ele><time>2026-04-19T16:00:56Z</time></trkpt><trkpt lat="43.89321948246799" lon="11.187309439904636"><ele>145.0</ele><time>2026-04-19T16:00:57Z</time></trkpt><trkpt lat="43.893298089103915" lon="11.187395765460138"><ele>145.0</ele><time>2026-04-19T16:00:58Z</time></trkpt><trkpt lat="43.89337945733274" lon="11.187485184834223"><ele>145.0</ele><time>2026-04-19T16:00:59Z</time></trkpt><trkpt lat="43.89346264967761" lon="11.18757648144006"><ele>145.0</ele><time>2026-04-19T16:01:00Z</time></trkpt><trkpt lat="43.8935466670822" lon="11.187668423111443"><ele>146.0</ele><time>2026-04-19T16:01:01Z</time></trkpt><trkpt lat="43.89362941251999" lon="11.18775844040074"><ele>147.0</ele><time>2026-04-19T16:01:02Z</time></trkpt><trkpt lat="43.89371106523793" lon="11.187847280855285"><ele>148.0</ele><time>2026-04-19T16:01:03Z</time></trkpt><trkpt lat="43.893793092501575" lon="11.187936414699411"><ele>149.0</ele><time>2026-04-19T16:01:04Z</time></trkpt><trkpt lat="43.893877026620146" lon="11.188028022061276"><ele>150.0</ele><time>2026-04-19T16:01:05Z</time></trkpt><trkpt lat="43.89396343357212" lon="11.188122293848402"><ele>151.0</ele><time>2026-04-19T16:01:06Z</time></trkpt><trkpt lat="43.894053352910845" lon="11.188221382823253"><ele>152.0</ele><time>2026-04-19T16:01:07Z</time></trkpt><trkpt lat="43.894141515531395" lon="11.18831921434872"><ele>153.0</ele><time>2026-04-19T16:01:08Z</time></trkpt><trkpt lat="43.89422871114584" lon="11.18841427552164"><ele>154.0</ele><time>2026-04-19T16:01:09Z</time></trkpt><trkpt lat="43.89431989249898" lon="11.188514206095107"><ele>154.0</ele><time>2026-04-19T16:01:10Z</time></trkpt><trkpt lat="43.89441408237009" lon="11.188619014864218"><ele>154.0</ele><time>2026-04-19T16:01:11Z</time></trkpt><trkpt lat="43.894511689459286" lon="11.188726727704335"><ele>154.0</ele><time>2026-04-19T16:01:12Z</time></trkpt><trkpt lat="43.89461325256704" lon="11.188837002774463"><ele>154.0</ele><time>2026-04-19T16:01:13Z</time></trkpt><trkpt lat="43.894718015586626" lon="11.188951177832813"><ele>154.5</ele><time>2026-04-19T16:01:14Z</time></trkpt><trkpt lat="43.89482577127761" lon="11.189068827828452"><ele>155.0</ele><time>2026-04-19T16:01:15.001Z</time></trkpt><trkpt lat="43.894935953223104" lon="11.189189207182073"><ele>155.5</ele><time>2026-04-19T16:01:16.001Z</time></trkpt><trkpt lat="43.895047545385246" lon="11.189309933939102"><ele>156.0</ele><time>2026-04-19T16:01:17.001Z</time></trkpt><trkpt lat="43.89515965631449" lon="11.189431600358956"><ele>156.0</ele><time>2026-04-19T16:01:18.001Z</time></trkpt><trkpt lat="43.89527100042575" lon="11.189554594641507"><ele>156.0</ele><time>2026-04-19T16:01:19.001Z</time></trkpt><trkpt lat="43.89538330747312" lon="11.189678205861942"><ele>156.0</ele><time>2026-04-19T16:01:20.001Z</time></trkpt><trkpt lat="43.895495716030204" lon="11.189802074482506"><ele>156.0</ele><time>2026-04-19T16:01:21.001Z</time></trkpt><trkpt lat="43.895608765573165" lon="11.189926288131065"><ele>158.75</ele><time>2026-04-19T16:01:22.001Z</time></trkpt><trkpt lat="43.895721611831235" lon="11.19005045907755"><ele>161.5</ele><time>2026-04-19T16:01:23.001Z</time></trkpt><trkpt lat="43.89583294747595" lon="11.190171361996343"><ele>164.25</ele><time>2026-04-19T16:01:24.001Z</time></trkpt><trkpt lat="43.89594243121845" lon="11.190289653275029"><ele>167.0</ele><time>2026-04-19T16:01:25.001Z</time></trkpt><trkpt lat="43.896050389142665" lon="11.190404387050078"><ele>169.25</ele><time>2026-04-19T16:01:26.001Z</time></trkpt><trkpt lat="43.896157578650524" lon="11.19051655846117"><ele>171.5</ele><time>2026-04-19T16:01:27.001Z</time></trkpt><trkpt lat="43.896263820138415" lon="11.190627644707781"><ele>173.75</ele><time>2026-04-19T16:01:28.001Z</time></trkpt><trkpt lat="43.896370253192686" lon="11.19073917181652"><ele>176.0</ele><time>2026-04-19T16:01:29.001Z</time></trkpt><trkpt lat="43.8964767438538" lon="11.190851162116626"><ele>178.25</ele><time>2026-04-19T16:01:30.001Z</time></trkpt><trkpt lat="43.89658581868624" lon="11.190960474791712"><ele>180.5</ele><time>2026-04-19T16:01:31.001Z</time></trkpt><trkpt lat="43.89669942081874" lon="11.191063422591466"><ele>182.75</ele><time>2026-04-19T16:01:32.001Z</time></trkpt><trkpt lat="43.89681404898302" lon="11.191163875275992"><ele>185.0</ele><time>2026-04-19T16:01:33.001Z</time></trkpt><trkpt lat="43.896931561777286" lon="11.191260859426938"><ele>185.5</ele><time>2026-04-19T16:01:34.001Z</time></trkpt><trkpt lat="43.897051155927" lon="11.191354299865003"><ele>186.0</ele><time>2026-04-19T16:01:35.001Z</time></trkpt><trkpt lat="43.897171865322726" lon="11.191443403937269"><ele>186.5</ele><time>2026-04-19T16:01:36.001Z</time></trkpt><trkpt lat="43.897288415789696" lon="11.191523435016599"><ele>187.0</ele><time>2026-04-19T16:01:37.001Z</time></trkpt><trkpt lat="43.897402296711405" lon="11.191596549825992"><ele>187.8</ele><time>2026-04-19T16:01:38.001Z</time></trkpt><trkpt lat="43.89751164502693" lon="11.191661541028243"><ele>188.6</ele><time>2026-04-19T16:01:39.001Z</time></trkpt><trkpt lat="43.89761284229426" lon="11.191716480035167"><ele>189.4</ele><time>2026-04-19T16:01:40.001Z</time></trkpt><trkpt lat="43.897712610624026" lon="11.191815363570248"><ele>190.20000000000002</ele><time>2026-04-19T16:01:41.001Z</time></trkpt><trkpt lat="43.89779772140591" lon="11.191859425634496"><ele>191.0</ele><time>2026-04-19T16:01:42.001Z</time></trkpt><trkpt lat="43.89789073890172" lon="11.191915023544002"><ele>187.4</ele><time>2026-04-19T16:01:43.001Z</time></trkpt><trkpt lat="43.89798701108122" lon="11.191972989662387"><ele>183.8</ele><time>2026-04-19T16:01:44.001Z</time></trkpt><trkpt lat="43.89808852468232" lon="11.19202699686695"><ele>180.20000000000002</ele><time>2026-04-19T16:01:45.001Z</time></trkpt><trkpt lat="43.89818904949525" lon="11.19208159843347"><ele>176.60000000000002</ele><time>2026-04-19T16:01:46.001Z</time></trkpt><trkpt lat="43.89828946523229" lon="11.192137082558112"><ele>173.0</ele><time>2026-04-19T16:01:47.001Z</time></trkpt><trkpt lat="43.898389732801775" lon="11.19219229059564"><ele>174.2</ele><time>2026-04-19T16:01:48.001Z</time></trkpt><trkpt lat="43.89849071518843" lon="11.19224729381073"><ele>175.4</ele><time>2026-04-19T16:01:49.001Z</time></trkpt><trkpt lat="43.89859322548465" lon="11.192303711889327"><ele>176.6</ele><time>2026-04-19T16:01:50.001Z</time></trkpt><trkpt lat="43.89869394723353" lon="11.192359911073662"><ele>177.79999999999998</ele><time>2026-04-19T16:01:51.001Z</time></trkpt><trkpt lat="43.89879414045074" lon="11.192414113947693"><ele>179.0</ele><time>2026-04-19T16:01:52.001Z</time></trkpt><trkpt lat="43.89889374420254" lon="11.19246701353818"><ele>177.79999999999998</ele><time>2026-04-19T16:01:53.001Z</time></trkpt><trkpt lat="43.8989941547826" lon="11.192519877522564"><ele>176.6</ele><time>2026-04-19T16:01:54.001Z</time></trkpt><trkpt lat="43.89909467450726" lon="11.192572280442688"><ele>175.4</ele><time>2026-04-19T16:01:55.001Z</time></trkpt><trkpt lat="43.89919634589494" lon="11.192625089629288"><ele>174.2</ele><time>2026-04-19T16:01:56.001Z</time></trkpt><trkpt lat="43.89930030282224" lon="11.192679270013024"><ele>173.0</ele><time>2026-04-19T16:01:57.001Z</time></trkpt><trkpt lat="43.89940146874608" lon="11.192728119073312"><ele>173.0</ele><time>2026-04-19T16:01:58.001Z</time></trkpt><trkpt lat="43.899497743140245" lon="11.192779839970688"><ele>173.0</ele><time>2026-04-19T16:01:59.001Z</time></trkpt><trkpt lat="43.899590944046494" lon="11.192816006558097"><ele>173.0</ele><time>2026-04-19T16:02:00.001Z</time></trkpt><trkpt lat="43.89967604685801" lon="11.19285251236259"><ele>173.0</ele><time>2026-04-19T16:02:01.001Z</time></trkpt><trkpt lat="43.899755813616785" lon="11.192885772381132"><ele>173.0</ele><time>2026-04-19T16:02:02.001Z</time></trkpt><trkpt lat="43.899829781618244" lon="11.192917711769056"><ele>173.0</ele><time>2026-04-19T16:02:03.001Z</time></trkpt><trkpt lat="43.89989663901134" lon="11.192946220784993"><ele>173.0</ele><time>2026-04-19T16:02:04.001Z</time></trkpt><trkpt lat="43.899959276045614" lon="11.192971746040037"><ele>173.0</ele><time>2026-04-19T16:02:05.001Z</time></trkpt><trkpt lat="43.90002139438372" lon="11.192997327333968"><ele>173.0</ele><time>2026-04-19T16:02:06.001Z</time></trkpt><trkpt lat="43.90008401482848" lon="11.193023567358376"><ele>173.0</ele><time>2026-04-19T16:02:07.001Z</time></trkpt><trkpt lat="43.90014785768815" lon="11.19304748991205"><ele>173.0</ele><time>2026-04-19T16:02:08.001Z</time></trkpt><trkpt lat="43.90021157111713" lon="11.193071809548377"><ele>173.0</ele><time>2026-04-19T16:02:09.001Z</time></trkpt><trkpt lat="43.900273080643274" lon="11.193096381469061"><ele>171.75</ele><time>2026-04-19T16:02:10.001Z</time></trkpt><trkpt lat="43.90038276334191" lon="11.19313716109231"><ele>170.5</ele><time>2026-04-19T16:02:12.001Z</time></trkpt><trkpt lat="43.900491177793775" lon="11.193174183326184"><ele>169.25</ele><time>2026-04-19T16:02:14.001Z</time></trkpt><trkpt lat="43.90060486756106" lon="11.193215906938532"><ele>168.0</ele><time>2026-04-19T16:02:16.001Z</time></trkpt><trkpt lat="43.90072514319857" lon="11.193260317549763"><ele>168.0</ele><time>2026-04-19T16:02:18.001Z</time></trkpt><trkpt lat="43.90078796226418" lon="11.19328357782027"><ele>168.0</ele><time>2026-04-19T16:02:19.001Z</time></trkpt><trkpt lat="43.900852100434804" lon="11.193306533123756"><ele>168.0</ele><time>2026-04-19T16:02:20.001Z</time></trkpt><trkpt lat="43.900916880080096" lon="11.193329421889523"><ele>168.0</ele><time>2026-04-19T16:02:21.001Z</time></trkpt><trkpt lat="43.900982994357705" lon="11.193353764411718"><ele>168.0</ele><time>2026-04-19T16:02:22.001Z</time></trkpt><trkpt lat="43.90104960081164" lon="11.193378117716287"><ele>168.0</ele><time>2026-04-19T16:02:23.001Z</time></trkpt><trkpt lat="43.901118023743805" lon="11.193402155888794"><ele>168.0</ele><time>2026-04-19T16:02:24.001Z</time></trkpt><trkpt lat="43.90118638529305" lon="11.193425909166873"><ele>170.16666666666666</ele><time>2026-04-19T16:02:25.001Z</time></trkpt><trkpt lat="43.90125626828524" lon="11.19345066869631"><ele>172.33333333333334</ele><time>2026-04-19T16:02:26.001Z</time></trkpt><trkpt lat="43.90132668096813" lon="11.193476003621447"><ele>174.5</ele><time>2026-04-19T16:02:27.001Z</time></trkpt><trkpt lat="43.901398682700815" lon="11.1935001027517"><ele>176.66666666666669</ele><time>2026-04-19T16:02:28.001Z</time></trkpt><trkpt lat="43.901473776552834" lon="11.19352648110977"><ele>178.83333333333334</ele><time>2026-04-19T16:02:29.001Z</time></trkpt><trkpt lat="43.901552619947424" lon="11.193552822886678"><ele>181.0</ele><time>2026-04-19T16:02:30.001Z</time></trkpt><trkpt lat="43.90163334580444" lon="11.19357925471085"><ele>181.0</ele><time>2026-04-19T16:02:31.001Z</time></trkpt><trkpt lat="43.90171588146299" lon="11.193604987954899"><ele>181.0</ele><time>2026-04-19T16:02:32.001Z</time></trkpt><trkpt lat="43.90180136774306" lon="11.193632799871335"><ele>181.0</ele><time>2026-04-19T16:02:33.001Z</time></trkpt><trkpt lat="43.90188991576326" lon="11.193661489332865"><ele>181.0</ele><time>2026-04-19T16:02:34.001Z</time></trkpt><trkpt lat="43.90198142515532" lon="11.19369373553545"><ele>181.0</ele><time>2026-04-19T16:02:35.001Z</time></trkpt><trkpt lat="43.9020766788408" lon="11.193730498546342"><ele>183.0</ele><time>2026-04-19T16:02:36.001Z</time></trkpt><trkpt lat="43.90217575458039" lon="11.193773466787224"><ele>185.0</ele><time>2026-04-19T16:02:37.001Z</time></trkpt><trkpt lat="43.90228132036807" lon="11.193820124866473"><ele>187.0</ele><time>2026-04-19T16:02:38.001Z</time></trkpt><trkpt lat="43.90239316849629" lon="11.193868472122052"><ele>189.0</ele><time>2026-04-19T16:02:39.001Z</time></trkpt><trkpt lat="43.902511752784356" lon="11.19391894441315"><ele>187.25</ele><time>2026-04-19T16:02:40.001Z</time></trkpt><trkpt lat="43.902636675817455" lon="11.193969228483498"><ele>185.5</ele><time>2026-04-19T16:02:41.001Z</time></trkpt><trkpt lat="43.90276545381574" lon="11.194018142421196"><ele>183.75</ele><time>2026-04-19T16:02:42.001Z</time></trkpt><trkpt lat="43.90289673747504" lon="11.19406690039681"><ele>182.0</ele><time>2026-04-19T16:02:43.001Z</time></trkpt><trkpt lat="43.90302901765661" lon="11.19411487212517"><ele>185.0</ele><time>2026-04-19T16:02:44.001Z</time></trkpt><trkpt lat="43.903163962297896" lon="11.194163933616554"><ele>188.0</ele><time>2026-04-19T16:02:45.001Z</time></trkpt><trkpt lat="43.90329841385167" lon="11.194211391182462"><ele>191.0</ele><time>2026-04-19T16:02:46.001Z</time></trkpt><trkpt lat="43.9034341902358" lon="11.194257741378625"><ele>194.0</ele><time>2026-04-19T16:02:47.001Z</time></trkpt><trkpt lat="43.90357167692327" lon="11.19430181656077"><ele>194.0</ele><time>2026-04-19T16:02:48.001Z</time></trkpt><trkpt lat="43.90371130990043" lon="11.194345296599884"><ele>194.0</ele><time>2026-04-19T16:02:49.001Z</time></trkpt><trkpt lat="43.90385181545794" lon="11.194387254447513"><ele>194.0</ele><time>2026-04-19T16:02:50Z</time></trkpt><trkpt lat="43.903994087596935" lon="11.194428782656763"><ele>194.0</ele><time>2026-04-19T16:02:51.001Z</time></trkpt><trkpt lat="43.90413706601316" lon="11.194470943173517"><ele>192.0</ele><time>2026-04-19T16:02:52Z</time></trkpt><trkpt lat="43.90428084605146" lon="11.194511803014878"><ele>190.0</ele><time>2026-04-19T16:02:53Z</time></trkpt><trkpt lat="43.90442455603298" lon="11.194549899084747"><ele>188.0</ele><time>2026-04-19T16:02:54Z</time></trkpt><trkpt lat="43.90456926869026" lon="11.194584487973538"><ele>186.0</ele><time>2026-04-19T16:02:55Z</time></trkpt><trkpt lat="43.90471588824394" lon="11.194616549587396"><ele>186.0</ele><time>2026-04-19T16:02:56Z</time></trkpt><trkpt lat="43.90486299707834" lon="11.194644894596484"><ele>186.0</ele><time>2026-04-19T16:02:57Z</time></trkpt><trkpt lat="43.905010996993816" lon="11.1946704387002"><ele>186.0</ele><time>2026-04-19T16:02:58Z</time></trkpt><trkpt lat="43.905156818662654" lon="11.194695518409679"><ele>186.0</ele><time>2026-04-19T16:02:59Z</time></trkpt><trkpt lat="43.90530645043926" lon="11.194719892698531"><ele>186.66666666666666</ele><time>2026-04-19T16:03:00Z</time></trkpt><trkpt lat="43.90545817092331" lon="11.19474196844362"><ele>187.33333333333331</ele><time>2026-04-19T16:03:01Z</time></trkpt><trkpt lat="43.905611997222856" lon="11.194761018888576"><ele>188.0</ele><time>2026-04-19T16:03:02Z</time></trkpt><trkpt lat="43.90576669166921" lon="11.194777730875023"><ele>190.66666666666666</ele><time>2026-04-19T16:03:03Z</time></trkpt><trkpt lat="43.90592249061974" lon="11.19479348180082"><ele>193.33333333333331</ele><time>2026-04-19T16:03:04Z</time></trkpt><trkpt lat="43.90607926510866" lon="11.194804379901898"><ele>196.0</ele><time>2026-04-19T16:03:05Z</time></trkpt><trkpt lat="43.906237428643735" lon="11.194814042902744"><ele>196.0</ele><time>2026-04-19T16:03:06Z</time></trkpt><trkpt lat="43.906397810620305" lon="11.194823244792135"><ele>196.0</ele><time>2026-04-19T16:03:07Z</time></trkpt><trkpt lat="43.906561135667445" lon="11.19483093744821"><ele>196.0</ele><time>2026-04-19T16:03:08Z</time></trkpt><trkpt lat="43.90673054507739" lon="11.194834579510871"><ele>191.33333333333331</ele><time>2026-04-19T16:03:09Z</time></trkpt><trkpt lat="43.90690460657721" lon="11.19483378923189"><ele>186.66666666666666</ele><time>2026-04-19T16:03:10Z</time></trkpt><trkpt lat="43.90707277410935" lon="11.194827232372653"><ele>182.0</ele><time>2026-04-19T16:03:11Z</time></trkpt><trkpt lat="43.907242390487816" lon="11.194823718749666"><ele>182.0</ele><time>2026-04-19T16:03:12Z</time></trkpt><trkpt lat="43.90741562981158" lon="11.194819863424256"><ele>182.0</ele><time>2026-04-19T16:03:13Z</time></trkpt><trkpt lat="43.90759192064886" lon="11.194815030106511"><ele>182.0</ele><time>2026-04-19T16:03:14Z</time></trkpt><trkpt lat="43.90777021479454" lon="11.194810613299548"><ele>185.0</ele><time>2026-04-19T16:03:15Z</time></trkpt><trkpt lat="43.90795121634481" lon="11.19480562175211"><ele>188.0</ele><time>2026-04-19T16:03:16Z</time></trkpt><trkpt lat="43.908134992835265" lon="11.194801492954744"><ele>191.0</ele><time>2026-04-19T16:03:17Z</time></trkpt><trkpt lat="43.90831983579443" lon="11.194799415511927"><ele>194.66666666666666</ele><time>2026-04-19T16:03:18Z</time></trkpt><trkpt lat="43.90850732413664" lon="11.194794849723603"><ele>198.33333333333331</ele><time>2026-04-19T16:03:19.001Z</time></trkpt><trkpt lat="43.908696655690015" lon="11.194791713115615"><ele>202.0</ele><time>2026-04-19T16:03:20.001Z</time></trkpt><trkpt lat="43.90888534095742" lon="11.194787680969684"><ele>202.0</ele><time>2026-04-19T16:03:21.001Z</time></trkpt><trkpt lat="43.909074441551496" lon="11.194784633717365"><ele>202.0</ele><time>2026-04-19T16:03:22.001Z</time></trkpt><trkpt lat="43.90926534038019" lon="11.194787253982426"><ele>202.0</ele><time>2026-04-19T16:03:23.001Z</time></trkpt><trkpt lat="43.90945787561103" lon="11.194799247751206"><ele>202.0</ele><time>2026-04-19T16:03:24.001Z</time></trkpt><trkpt lat="43.9096514871359" lon="11.194824432584316"><ele>202.0</ele><time>2026-04-19T16:03:25.001Z</time></trkpt><trkpt lat="43.9098448380373" lon="11.194864270342308"><ele>202.0</ele><time>2026-04-19T16:03:26.001Z</time></trkpt><trkpt lat="43.910038832356" lon="11.194915361407825"><ele>207.0</ele><time>2026-04-19T16:03:27.001Z</time></trkpt><trkpt lat="43.91023458450066" lon="11.194977518087889"><ele>212.0</ele><time>2026-04-19T16:03:28.001Z</time></trkpt><trkpt lat="43.910429303377526" lon="11.195053906931928"><ele>217.0</ele><time>2026-04-19T16:03:29.001Z</time></trkpt><trkpt lat="43.91062371409041" lon="11.195144801461302"><ele>217.0</ele><time>2026-04-19T16:03:30.001Z</time></trkpt><trkpt lat="43.91081587553724" lon="11.195249429381022"><ele>217.0</ele><time>2026-04-19T16:03:31.001Z</time></trkpt><trkpt lat="43.91100659739572" lon="11.195367048260211"><ele>217.0</ele><time>2026-04-19T16:03:32.001Z</time></trkpt><trkpt lat="43.91119548667296" lon="11.195495372600034"><ele>219.33333333333331</ele><time>2026-04-19T16:03:33.001Z</time></trkpt><trkpt lat="43.91138121072602" lon="11.195639776185836"><ele>221.66666666666669</ele><time>2026-04-19T16:03:34.001Z</time></trkpt><trkpt lat="43.91156289021431" lon="11.195796897170185"><ele>224.0</ele><time>2026-04-19T16:03:35.001Z</time></trkpt><trkpt lat="43.911738542120695" lon="11.195964848082966"><ele>224.0</ele><time>2026-04-19T16:03:36.001Z</time></trkpt><trkpt lat="43.91190633211274" lon="11.196143128826371"><ele>224.0</ele><time>2026-04-19T16:03:37.001Z</time></trkpt><trkpt lat="43.9120691571002" lon="11.196330133393628"><ele>224.0</ele><time>2026-04-19T16:03:38.001Z</time></trkpt><trkpt lat="43.91223090630127" lon="11.196520153708107"><ele>224.0</ele><time>2026-04-19T16:03:39.001Z</time></trkpt><trkpt lat="43.91239487250938" lon="11.19670786761096"><ele>224.0</ele><time>2026-04-19T16:03:40.001Z</time></trkpt><trkpt lat="43.912558994506654" lon="11.196892833082286"><ele>224.0</ele><time>2026-04-19T16:03:41.001Z</time></trkpt><trkpt lat="43.91272173425908" lon="11.197078030347477"><ele>226.0</ele><time>2026-04-19T16:03:42.001Z</time></trkpt><trkpt lat="43.912883760220204" lon="11.197262481311991"><ele>228.0</ele><time>2026-04-19T16:03:43.001Z</time></trkpt><trkpt lat="43.91304526286932" lon="11.197448740020562"><ele>230.0</ele><time>2026-04-19T16:03:44.001Z</time></trkpt><trkpt lat="43.913209674728186" lon="11.197634048991294"><ele>230.0</ele><time>2026-04-19T16:03:45.001Z</time></trkpt><trkpt lat="43.91337783233802" lon="11.197812821042726"><ele>230.0</ele><time>2026-04-19T16:03:46.001Z</time></trkpt><trkpt lat="43.91354899466132" lon="11.19798392018348"><ele>230.0</ele><time>2026-04-19T16:03:47.001Z</time></trkpt><trkpt lat="43.91372224413702" lon="11.198146448540369"><ele>225.33333333333334</ele><time>2026-04-19T16:03:48.001Z</time></trkpt><trkpt lat="43.91389595992704" lon="11.198299769493975"><ele>220.66666666666669</ele><time>2026-04-19T16:03:49.001Z</time></trkpt><trkpt lat="43.91406819683337" lon="11.198441343865628"><ele>216.0</ele><time>2026-04-19T16:03:50.001Z</time></trkpt><trkpt lat="43.914236132721506" lon="11.198570707751959"><ele>210.66666666666669</ele><time>2026-04-19T16:03:51.001Z</time></trkpt><trkpt lat="43.91440092037313" lon="11.19868948328454"><ele>205.33333333333334</ele><time>2026-04-19T16:03:52.001Z</time></trkpt><trkpt lat="43.914560723852546" lon="11.198797339073211"><ele>200.0</ele><time>2026-04-19T16:03:53.001Z</time></trkpt><trkpt lat="43.91471182693016" lon="11.198892484931575"><ele>200.0</ele><time>2026-04-19T16:03:54.001Z</time></trkpt><trkpt lat="43.91485391671528" lon="11.198978005395897"><ele>200.0</ele><time>2026-04-19T16:03:55.001Z</time></trkpt><trkpt lat="43.91499244781647" lon="11.199057607241496"><ele>200.0</ele><time>2026-04-19T16:03:56.001Z</time></trkpt><trkpt lat="43.91513151082801" lon="11.199132325173178"><ele>208.25</ele><time>2026-04-19T16:03:57.001Z</time></trkpt><trkpt lat="43.91527014905984" lon="11.199206322843247"><ele>216.5</ele><time>2026-04-19T16:03:58.001Z</time></trkpt><trkpt lat="43.91540679084843" lon="11.199277957106585"><ele>224.75</ele><time>2026-04-19T16:03:59.001Z</time></trkpt><trkpt lat="43.91553678977972" lon="11.199343438933088"><ele>233.0</ele><time>2026-04-19T16:04:00.001Z</time></trkpt><trkpt lat="43.91566069595594" lon="11.199404899092121"><ele>233.0</ele><time>2026-04-19T16:04:01.001Z</time></trkpt><trkpt lat="43.915779700924624" lon="11.199463886175586"><ele>233.0</ele><time>2026-04-19T16:04:02.001Z</time></trkpt><trkpt lat="43.91589326210762" lon="11.199523082197377"><ele>233.0</ele><time>2026-04-19T16:04:03.001Z</time></trkpt><trkpt lat="43.91600185808503" lon="11.199579520674773"><ele>233.0</ele><time>2026-04-19T16:04:04.001Z</time></trkpt><trkpt lat="43.916105496430134" lon="11.199636182994439"><ele>231.2</ele><time>2026-04-19T16:04:05.001Z</time></trkpt><trkpt lat="43.916204434328705" lon="11.199691807958315"><ele>229.4</ele><time>2026-04-19T16:04:06.001Z</time></trkpt><trkpt lat="43.916298092875245" lon="11.199747325291936"><ele>227.59999999999997</ele><time>2026-04-19T16:04:07.001Z</time></trkpt><trkpt lat="43.91638803628001" lon="11.199801582930727"><ele>225.79999999999998</ele><time>2026-04-19T16:04:08.001Z</time></trkpt><trkpt lat="43.91647365230329" lon="11.199854036305961"><ele>224.0</ele><time>2026-04-19T16:04:09.001Z</time></trkpt><trkpt lat="43.91655396051953" lon="11.199906881407143"><ele>226.33333333333334</ele><time>2026-04-19T16:04:10.001Z</time></trkpt><trkpt lat="43.916629068681274" lon="11.199959851746986"><ele>228.66666666666669</ele><time>2026-04-19T16:04:11.001Z</time></trkpt><trkpt lat="43.916700273574065" lon="11.200013116453878"><ele>231.0</ele><time>2026-04-19T16:04:12.001Z</time></trkpt><trkpt lat="43.916767347205855" lon="11.200067167167882"><ele>233.33333333333331</ele><time>2026-04-19T16:04:13.001Z</time></trkpt><trkpt lat="43.91683103847771" lon="11.200121089980417"><ele>235.66666666666666</ele><time>2026-04-19T16:04:14.001Z</time></trkpt><trkpt lat="43.91689466911592" lon="11.200178156865034"><ele>238.0</ele><time>2026-04-19T16:04:15.001Z</time></trkpt><trkpt lat="43.91695980236042" lon="11.200240277057057"><ele>237.99999999999997</ele><time>2026-04-19T16:04:16.001Z</time></trkpt><trkpt lat="43.91702580207797" lon="11.200304614120009"><ele>238.0</ele><time>2026-04-19T16:04:17.001Z</time></trkpt><trkpt lat="43.91709029824075" lon="11.200371379892747"><ele>238.0</ele><time>2026-04-19T16:04:18.001Z</time></trkpt><trkpt lat="43.91715744827607" lon="11.200439146833972"><ele>238.0</ele><time>2026-04-19T16:04:19.001Z</time></trkpt><trkpt lat="43.91722978975233" lon="11.200511633101298"><ele>237.99999999999997</ele><time>2026-04-19T16:04:20.001Z</time></trkpt><trkpt lat="43.9173041494623" lon="11.200589376271472"><ele>238.0</ele><time>2026-04-19T16:04:21.001Z</time></trkpt><trkpt lat="43.91737743311385" lon="11.200671121613585"><ele>236.8</ele><time>2026-04-19T16:04:22.001Z</time></trkpt><trkpt lat="43.917448529451775" lon="11.200756515902267"><ele>235.60000000000002</ele><time>2026-04-19T16:04:23.001Z</time></trkpt><trkpt lat="43.91751615609711" lon="11.200844977420397"><ele>234.39999999999998</ele><time>2026-04-19T16:04:24.001Z</time></trkpt><trkpt lat="43.917583458317935" lon="11.200933956437128"><ele>233.2</ele><time>2026-04-19T16:04:25.001Z</time></trkpt><trkpt lat="43.917648859013276" lon="11.201023991502117"><ele>232.0</ele><time>2026-04-19T16:04:26.001Z</time></trkpt><trkpt lat="43.91771311786026" lon="11.20111240387898"><ele>232.0</ele><time>2026-04-19T16:04:27.001Z</time></trkpt><trkpt lat="43.91777639799306" lon="11.201202594287942"><ele>232.0</ele><time>2026-04-19T16:04:28.001Z</time></trkpt><trkpt lat="43.917837841032735" lon="11.201294716998815"><ele>232.0</ele><time>2026-04-19T16:04:29.001Z</time></trkpt><trkpt lat="43.91789747106779" lon="11.201390162727554"><ele>232.0</ele><time>2026-04-19T16:04:30.001Z</time></trkpt><trkpt lat="43.91795517484012" lon="11.201486597214389"><ele>232.0</ele><time>2026-04-19T16:04:31.001Z</time></trkpt><trkpt lat="43.91801102853771" lon="11.201584301402958"><ele>234.66666666666666</ele><time>2026-04-19T16:04:32.001Z</time></trkpt><trkpt lat="43.918065081283444" lon="11.201684568143248"><ele>237.33333333333331</ele><time>2026-04-19T16:04:33.001Z</time></trkpt><trkpt lat="43.91811574663082" lon="11.201783896289836"><ele>240.0</ele><time>2026-04-19T16:04:34.001Z</time></trkpt><trkpt lat="43.9181642460549" lon="11.201884034316379"><ele>242.66666666666669</ele><time>2026-04-19T16:04:35.001Z</time></trkpt><trkpt lat="43.91821263041998" lon="11.201987345349291"><ele>245.33333333333334</ele><time>2026-04-19T16:04:36.001Z</time></trkpt><trkpt lat="43.91826308169225" lon="11.20209617492829"><ele>248.0</ele><time>2026-04-19T16:04:37.001Z</time></trkpt><trkpt lat="43.9183130352786" lon="11.20220704699546"><ele>248.0</ele><time>2026-04-19T16:04:38.001Z</time></trkpt><trkpt lat="43.918361802462464" lon="11.20232162818664"><ele>248.0</ele><time>2026-04-19T16:04:39.001Z</time></trkpt><trkpt lat="43.91840983003237" lon="11.202442679871291"><ele>248.0</ele><time>2026-04-19T16:04:40.001Z</time></trkpt><trkpt lat="43.918457098271396" lon="11.2025673584165"><ele>248.0</ele><time>2026-04-19T16:04:41.001Z</time></trkpt><trkpt lat="43.918502285624264" lon="11.202691577797113"><ele>248.0</ele><time>2026-04-19T16:04:42.001Z</time></trkpt><trkpt lat="43.918545566554975" lon="11.202816134506696"><ele>247.4</ele><time>2026-04-19T16:04:43.001Z</time></trkpt><trkpt lat="43.918585439233375" lon="11.20294295165713"><ele>246.8</ele><time>2026-04-19T16:04:44.001Z</time></trkpt><trkpt lat="43.91862502306199" lon="11.203075086752145"><ele>246.2</ele><time>2026-04-19T16:04:45.001Z</time></trkpt><trkpt lat="43.918662837703344" lon="11.203212806248171"><ele>245.6</ele><time>2026-04-19T16:04:46.001Z</time></trkpt><trkpt lat="43.91869832877155" lon="11.20335177481948"><ele>245.0</ele><time>2026-04-19T16:04:47.001Z</time></trkpt><trkpt lat="43.91873106825835" lon="11.203489289173012"><ele>245.0</ele><time>2026-04-19T16:04:48.001Z</time></trkpt><trkpt lat="43.9187613207365" lon="11.203627213441047"><ele>245.0</ele><time>2026-04-19T16:04:49Z</time></trkpt><trkpt lat="43.9187892843559" lon="11.20376459999514"><ele>245.0</ele><time>2026-04-19T16:04:50Z</time></trkpt><trkpt lat="43.91881625909907" lon="11.203901669059066"><ele>245.0</ele><time>2026-04-19T16:04:51Z</time></trkpt><trkpt lat="43.91884055856028" lon="11.204041607046312"><ele>245.0</ele><time>2026-04-19T16:04:52Z</time></trkpt><trkpt lat="43.91886546394675" lon="11.20418679400843"><ele>247.0</ele><time>2026-04-19T16:04:53Z</time></trkpt><trkpt lat="43.918891505642094" lon="11.204336037527323"><ele>249.0</ele><time>2026-04-19T16:04:54Z</time></trkpt><trkpt lat="43.91891590659574" lon="11.204486951780988"><ele>251.0</ele><time>2026-04-19T16:04:55Z</time></trkpt><trkpt lat="43.91894045982292" lon="11.204634763444467"><ele>253.0</ele><time>2026-04-19T16:04:56Z</time></trkpt><trkpt lat="43.91896445483416" lon="11.204776453462742"><ele>255.0</ele><time>2026-04-19T16:04:57Z</time></trkpt><trkpt lat="43.918986492967285" lon="11.204904124101047"><ele>256.6</ele><time>2026-04-19T16:04:58Z</time></trkpt><trkpt lat="43.91900882007122" lon="11.205029053700322"><ele>258.2</ele><time>2026-04-19T16:04:59Z</time></trkpt><trkpt lat="43.91903162196504" lon="11.205154260699908"><ele>259.8</ele><time>2026-04-19T16:05:00Z</time></trkpt><trkpt lat="43.9190545842754" lon="11.20527965139125"><ele>261.4</ele><time>2026-04-19T16:05:01Z</time></trkpt><trkpt lat="43.91907660621188" lon="11.205403855319855"><ele>263.0</ele><time>2026-04-19T16:05:02Z</time></trkpt><trkpt lat="43.919097819759514" lon="11.205526267447894"><ele>263.0</ele><time>2026-04-19T16:05:03Z</time></trkpt><trkpt lat="43.91911923172294" lon="11.205650262176023"><ele>263.0</ele><time>2026-04-19T16:05:04Z</time></trkpt><trkpt lat="43.91914059477781" lon="11.205775146987646"><ele>263.0</ele><time>2026-04-19T16:05:05Z</time></trkpt><trkpt lat="43.91916174160144" lon="11.20590149102154"><ele>263.0</ele><time>2026-04-19T16:05:06Z</time></trkpt><trkpt lat="43.91918378903263" lon="11.20603110243231"><ele>263.0</ele><time>2026-04-19T16:05:07Z</time></trkpt><trkpt lat="43.91920646658647" lon="11.206165415691462"><ele>264.0</ele><time>2026-04-19T16:05:08Z</time></trkpt><trkpt lat="43.919230333392846" lon="11.206303762243438"><ele>265.0</ele><time>2026-04-19T16:05:09Z</time></trkpt><trkpt lat="43.919254867600635" lon="11.20644657013354"><ele>266.0</ele><time>2026-04-19T16:05:10Z</time></trkpt><trkpt lat="43.9192796937657" lon="11.2065948413417"><ele>267.0</ele><time>2026-04-19T16:05:11Z</time></trkpt><trkpt lat="43.919305389366116" lon="11.206749345860416"><ele>268.0</ele><time>2026-04-19T16:05:12Z</time></trkpt><trkpt lat="43.91933210576124" lon="11.206906468313889"><ele>265.75</ele><time>2026-04-19T16:05:13Z</time></trkpt><trkpt lat="43.91935816837664" lon="11.207063423114201"><ele>263.5</ele><time>2026-04-19T16:05:14Z</time></trkpt><trkpt lat="43.919383303215255" lon="11.207217570558527"><ele>261.25</ele><time>2026-04-19T16:05:15Z</time></trkpt><trkpt lat="43.91940847942699" lon="11.207368852332737"><ele>259.0</ele><time>2026-04-19T16:05:16Z</time></trkpt><trkpt lat="43.91943464367461" lon="11.207518241168934"><ele>259.0</ele><time>2026-04-19T16:05:17Z</time></trkpt><trkpt lat="43.91946068777905" lon="11.207668902861993"><ele>259.0</ele><time>2026-04-19T16:05:18Z</time></trkpt><trkpt lat="43.919488625862606" lon="11.20782079748507"><ele>259.0</ele><time>2026-04-19T16:05:19Z</time></trkpt><trkpt lat="43.919518119569645" lon="11.207969614006982"><ele>259.0</ele><time>2026-04-19T16:05:20Z</time></trkpt><trkpt lat="43.919547440775716" lon="11.208108091004279"><ele>259.0</ele><time>2026-04-19T16:05:21Z</time></trkpt><trkpt lat="43.919577456523136" lon="11.208240407703808"><ele>260.4</ele><time>2026-04-19T16:05:22Z</time></trkpt><trkpt lat="43.91960889907624" lon="11.208373120489842"><ele>261.79999999999995</ele><time>2026-04-19T16:05:23Z</time></trkpt><trkpt lat="43.919641563723154" lon="11.208505256700084"><ele>263.20000000000005</ele><time>2026-04-19T16:05:24Z</time></trkpt><trkpt lat="43.91967550432817" lon="11.20863670686355"><ele>264.6</ele><time>2026-04-19T16:05:25Z</time></trkpt><trkpt lat="43.91971192422305" lon="11.208768272625711"><ele>266.0</ele><time>2026-04-19T16:05:26Z</time></trkpt><trkpt lat="43.919751141754304" lon="11.208904424649008"><ele>267.0</ele><time>2026-04-19T16:05:27Z</time></trkpt><trkpt lat="43.91979315747899" lon="11.20904305563185"><ele>268.0</ele><time>2026-04-19T16:05:28Z</time></trkpt><trkpt lat="43.91983656076286" lon="11.209183115581428"><ele>269.0</ele><time>2026-04-19T16:05:29Z</time></trkpt><trkpt lat="43.91987923482381" lon="11.209319580654723"><ele>270.0</ele><time>2026-04-19T16:05:30.001Z</time></trkpt><trkpt lat="43.91992096555827" lon="11.209446400760362"><ele>271.0</ele><time>2026-04-19T16:05:31.001Z</time></trkpt><trkpt lat="43.91996071560954" lon="11.209564727023274"><ele>271.0</ele><time>2026-04-19T16:05:32.001Z</time></trkpt><trkpt lat="43.920001574957816" lon="11.209681112821633"><ele>271.0</ele><time>2026-04-19T16:05:33.001Z</time></trkpt><trkpt lat="43.92004531377423" lon="11.20979856812497"><ele>271.0</ele><time>2026-04-19T16:05:34.001Z</time></trkpt><trkpt lat="43.9200892236838" lon="11.20991392997753"><ele>271.0</ele><time>2026-04-19T16:05:35.001Z</time></trkpt><trkpt lat="43.92013485527506" lon="11.210033974506075"><ele>271.0</ele><time>2026-04-19T16:05:36.001Z</time></trkpt><trkpt lat="43.920183422158146" lon="11.210156085437493"><ele>271.0</ele><time>2026-04-19T16:05:37.001Z</time></trkpt><trkpt lat="43.9202351954919" lon="11.210281026349293"><ele>271.0</ele><time>2026-04-19T16:05:38.001Z</time></trkpt><trkpt lat="43.92028580674773" lon="11.21039645410729"><ele>271.0</ele><time>2026-04-19T16:05:39.001Z</time></trkpt><trkpt lat="43.920333429687346" lon="11.210501304299289"><ele>271.0</ele><time>2026-04-19T16:05:40.001Z</time></trkpt><trkpt lat="43.92038010972949" lon="11.210601717105163"><ele>271.0</ele><time>2026-04-19T16:05:41.001Z</time></trkpt><trkpt lat="43.92042664284785" lon="11.210699933877105"><ele>272.3333333333333</ele><time>2026-04-19T16:05:42.001Z</time></trkpt><trkpt lat="43.92047243587128" lon="11.210796968438135"><ele>273.66666666666663</ele><time>2026-04-19T16:05:43.001Z</time></trkpt><trkpt lat="43.92051815833228" lon="11.210893590823316"><ele>275.0</ele><time>2026-04-19T16:05:44.001Z</time></trkpt><trkpt lat="43.920565394508614" lon="11.210988941351506"><ele>276.3333333333333</ele><time>2026-04-19T16:05:45.001Z</time></trkpt><trkpt lat="43.92061275824573" lon="11.211083874012479"><ele>277.6666666666667</ele><time>2026-04-19T16:05:46.001Z</time></trkpt><trkpt lat="43.92066023278429" lon="11.211172857628315"><ele>279.0</ele><time>2026-04-19T16:05:47.001Z</time></trkpt><trkpt lat="43.92070566460878" lon="11.21125664740243"><ele>278.99999999999994</ele><time>2026-04-19T16:05:48.001Z</time></trkpt><trkpt lat="43.92074883051458" lon="11.211335925008742"><ele>279.0</ele><time>2026-04-19T16:05:49.001Z</time></trkpt><trkpt lat="43.92079146675973" lon="11.211409893073483"><ele>279.0</ele><time>2026-04-19T16:05:50.001Z</time></trkpt><trkpt lat="43.92083229467382" lon="11.211480981654232"><ele>279.0</ele><time>2026-04-19T16:05:51.001Z</time></trkpt><trkpt lat="43.920873573913" lon="11.211548250800382"><ele>279.0</ele><time>2026-04-19T16:05:52.001Z</time></trkpt><trkpt lat="43.92091568397277" lon="11.211616254809709"><ele>278.99999999999994</ele><time>2026-04-19T16:05:53.001Z</time></trkpt><trkpt lat="43.92096206187671" lon="11.211691215143528"><ele>279.0</ele><time>2026-04-19T16:05:54.001Z</time></trkpt><trkpt lat="43.92101315639137" lon="11.21177300603283"><ele>276.8</ele><time>2026-04-19T16:05:55.001Z</time></trkpt><trkpt lat="43.92106803947029" lon="11.211862133053009"><ele>274.59999999999997</ele><time>2026-04-19T16:05:56.001Z</time></trkpt><trkpt lat="43.921127915240184" lon="11.211955713937328"><ele>272.4</ele><time>2026-04-19T16:05:57.001Z</time></trkpt><trkpt lat="43.92118896735958" lon="11.212046417777495"><ele>270.2</ele><time>2026-04-19T16:05:58.001Z</time></trkpt><trkpt lat="43.92125155712643" lon="11.21213553718865"><ele>268.0</ele><time>2026-04-19T16:05:59.001Z</time></trkpt><trkpt lat="43.9213206389048" lon="11.21222918231833"><ele>269.2</ele><time>2026-04-19T16:06:00.001Z</time></trkpt><trkpt lat="43.92139456312709" lon="11.212327327603512"><ele>270.4</ele><time>2026-04-19T16:06:01.001Z</time></trkpt><trkpt lat="43.92147225557889" lon="11.212426042390124"><ele>271.59999999999997</ele><time>2026-04-19T16:06:02.001Z</time></trkpt><trkpt lat="43.92155102233863" lon="11.212523289057588"><ele>272.8</ele><time>2026-04-19T16:06:03.001Z</time></trkpt><trkpt lat="43.92162932920844" lon="11.212618574348053"><ele>274.0</ele><time>2026-04-19T16:06:04.001Z</time></trkpt><trkpt lat="43.92170762447643" lon="11.212712034085934"><ele>270.0</ele><time>2026-04-19T16:06:05.001Z</time></trkpt><trkpt lat="43.92178471230115" lon="11.212803798293553"><ele>266.0</ele><time>2026-04-19T16:06:06.001Z</time></trkpt><trkpt lat="43.92186113279261" lon="11.212893715502798"><ele>262.0</ele><time>2026-04-19T16:06:07.001Z</time></trkpt><trkpt lat="43.92193738661366" lon="11.212981605572027"><ele>258.0</ele><time>2026-04-19T16:06:08.001Z</time></trkpt><trkpt lat="43.922013971840286" lon="11.213066189197459"><ele>254.0</ele><time>2026-04-19T16:06:09.001Z</time></trkpt><trkpt lat="43.922091399264474" lon="11.213148776484926"><ele>256.4</ele><time>2026-04-19T16:06:10.001Z</time></trkpt><trkpt lat="43.92217081697734" lon="11.213231381005238"><ele>258.79999999999995</ele><time>2026-04-19T16:06:11.001Z</time></trkpt><trkpt lat="43.92225392989085" lon="11.213317320584371"><ele>261.20000000000005</ele><time>2026-04-19T16:06:12.001Z</time></trkpt><trkpt lat="43.922348855718006" lon="11.213412209276957"><ele>263.6</ele><time>2026-04-19T16:06:13.001Z</time></trkpt><trkpt lat="43.92245378654514" lon="11.213517740191783"><ele>266.0</ele><time>2026-04-19T16:06:14.001Z</time></trkpt><trkpt lat="43.922566713456185" lon="11.213630786618419"><ele>266.0</ele><time>2026-04-19T16:06:15.001Z</time></trkpt><trkpt lat="43.922687095074295" lon="11.213752181236137"><ele>266.0</ele><time>2026-04-19T16:06:16.001Z</time></trkpt><trkpt lat="43.92280603004571" lon="11.213871328188535"><ele>266.0</ele><time>2026-04-19T16:06:17.001Z</time></trkpt><trkpt lat="43.9229267431943" lon="11.2139920478338"><ele>266.0</ele><time>2026-04-19T16:06:18.001Z</time></trkpt><trkpt lat="43.92305199507855" lon="11.214119375332439"><ele>260.33333333333337</ele><time>2026-04-19T16:06:19.001Z</time></trkpt><trkpt lat="43.92318310640268" lon="11.214255812029108"><ele>254.66666666666669</ele><time>2026-04-19T16:06:20.001Z</time></trkpt><trkpt lat="43.923320338750756" lon="11.214399682308757"><ele>249.0</ele><time>2026-04-19T16:06:21.001Z</time></trkpt><trkpt lat="43.92346315783639" lon="11.214548562229743"><ele>249.0</ele><time>2026-04-19T16:06:22.001Z</time></trkpt><trkpt lat="43.92360711519796" lon="11.214697790153988"><ele>249.0</ele><time>2026-04-19T16:06:23.001Z</time></trkpt><trkpt lat="43.92375260693129" lon="11.214846275552775"><ele>249.0</ele><time>2026-04-19T16:06:24.001Z</time></trkpt><trkpt lat="43.92389779926538" lon="11.214995718059477"><ele>250.0</ele><time>2026-04-19T16:06:25.001Z</time></trkpt><trkpt lat="43.92403710739492" lon="11.215138224075005"><ele>251.0</ele><time>2026-04-19T16:06:26.001Z</time></trkpt><trkpt lat="43.924169700400434" lon="11.215274306857575"><ele>252.0</ele><time>2026-04-19T16:06:27.001Z</time></trkpt><trkpt lat="43.92428453088445" lon="11.215390469197441"><ele>252.0</ele><time>2026-04-19T16:06:28.001Z</time></trkpt><trkpt lat="43.924387830931735" lon="11.215494794820339"><ele>252.0</ele><time>2026-04-19T16:06:29.001Z</time></trkpt><trkpt lat="43.924486675358935" lon="11.215596521539693"><ele>252.0</ele><time>2026-04-19T16:06:30.001Z</time></trkpt><trkpt lat="43.92458137172" lon="11.215695412365067"><ele>252.0</ele><time>2026-04-19T16:06:31.001Z</time></trkpt><trkpt lat="43.92467297562031" lon="11.215791306907064"><ele>253.0</ele><time>2026-04-19T16:06:32.001Z</time></trkpt><trkpt lat="43.924759689105585" lon="11.215879735603794"><ele>254.0</ele><time>2026-04-19T16:06:33.001Z</time></trkpt><trkpt lat="43.924841593804594" lon="11.215962648024432"><ele>255.0</ele><time>2026-04-19T16:06:34.001Z</time></trkpt><trkpt lat="43.924919246821666" lon="11.216041914491543"><ele>256.0</ele><time>2026-04-19T16:06:35.001Z</time></trkpt><trkpt lat="43.92498355312449" lon="11.216107392883185"><ele>257.0</ele><time>2026-04-19T16:06:36.001Z</time></trkpt><trkpt lat="43.92507116037647" lon="11.216196636468819"><ele>257.0</ele><time>2026-04-19T16:06:38.001Z</time></trkpt><trkpt lat="43.925128994571104" lon="11.21625560294587"><ele>257.0</ele><time>2026-04-19T16:06:40.001Z</time></trkpt><trkpt lat="43.92519520689704" lon="11.216321919490875"><ele>257.0</ele><time>2026-04-19T16:06:44.001Z</time></trkpt><trkpt lat="43.925274464722065" lon="11.216404543139491"><ele>257.0</ele><time>2026-04-19T16:06:47.001Z</time></trkpt><trkpt lat="43.925337275177675" lon="11.21647111768405"><ele>257.0</ele><time>2026-04-19T16:06:49.001Z</time></trkpt><trkpt lat="43.925413192287685" lon="11.216550363411244"><ele>257.0</ele><time>2026-04-19T16:06:51.001Z</time></trkpt><trkpt lat="43.92550352804041" lon="11.216645050170612"><ele>262.83333333333337</ele><time>2026-04-19T16:06:53.001Z</time></trkpt><trkpt lat="43.92559657902401" lon="11.216741692403792"><ele>268.6666666666667</ele><time>2026-04-19T16:06:55Z</time></trkpt><trkpt lat="43.9256491614185" lon="11.216796796408708"><ele>274.5</ele><time>2026-04-19T16:06:56Z</time></trkpt><trkpt lat="43.92570705462644" lon="11.21685572817475"><ele>280.3333333333333</ele><time>2026-04-19T16:06:57Z</time></trkpt><trkpt lat="43.92576728161492" lon="11.216917311309745"><ele>286.16666666666663</ele><time>2026-04-19T16:06:58Z</time></trkpt><trkpt lat="43.925830503342134" lon="11.216980425759534"><ele>292.0</ele><time>2026-04-19T16:06:59Z</time></trkpt><trkpt lat="43.92589049780393" lon="11.217041206236969"><ele>292.8</ele><time>2026-04-19T16:07:00Z</time></trkpt><trkpt lat="43.92594419670524" lon="11.21709595189632"><ele>293.6</ele><time>2026-04-19T16:07:01Z</time></trkpt><trkpt lat="43.926036807212654" lon="11.217190319450683"><ele>294.40000000000003</ele><time>2026-04-19T16:07:03Z</time></trkpt><trkpt lat="43.92612160679434" lon="11.217270138131145"><ele>295.2</ele><time>2026-04-19T16:07:05Z</time></trkpt><trkpt lat="43.92620787876699" lon="11.217347181149604"><ele>296.0</ele><time>2026-04-19T16:07:07Z</time></trkpt><trkpt lat="43.9262773020783" lon="11.21740486610578"><ele>296.0</ele><time>2026-04-19T16:07:09Z</time></trkpt><trkpt lat="43.9263349182501" lon="11.217450280376255"><ele>296.0</ele><time>2026-04-19T16:07:11Z</time></trkpt><trkpt lat="43.92639002843785" lon="11.217493699289882"><ele>296.0</ele><time>2026-04-19T16:07:13Z</time></trkpt><trkpt lat="43.92644917048028" lon="11.217538652926372"><ele>296.0</ele><time>2026-04-19T16:07:15Z</time></trkpt><trkpt lat="43.92650879797805" lon="11.217583952752314"><ele>296.0</ele><time>2026-04-19T16:07:17Z</time></trkpt><trkpt lat="43.92656904280117" lon="11.217627116128488"><ele>296.0</ele><time>2026-04-19T16:07:19Z</time></trkpt><trkpt lat="43.92663104379559" lon="11.217670968994641"><ele>296.0</ele><time>2026-04-19T16:07:21Z</time></trkpt><trkpt lat="43.92669953689721" lon="11.217713868525193"><ele>293.40000000000003</ele><time>2026-04-19T16:07:23Z</time></trkpt><trkpt lat="43.92677990086804" lon="11.217763658693798"><ele>290.8</ele><time>2026-04-19T16:07:25Z</time></trkpt><trkpt lat="43.926868673610024" lon="11.21781603080421"><ele>288.20000000000005</ele><time>2026-04-19T16:07:27Z</time></trkpt><trkpt lat="43.92696689440459" lon="11.217869682148853"><ele>285.6</ele><time>2026-04-19T16:07:29Z</time></trkpt><trkpt lat="43.927075201832636" lon="11.217925055168829"><ele>283.0</ele><time>2026-04-19T16:07:31Z</time></trkpt><trkpt lat="43.92719467510761" lon="11.217982395719426"><ele>283.0</ele><time>2026-04-19T16:07:33Z</time></trkpt><trkpt lat="43.927256765454494" lon="11.218010401199361"><ele>283.0</ele><time>2026-04-19T16:07:34.001Z</time></trkpt><trkpt lat="43.9273215514027" lon="11.218037466969404"><ele>283.0</ele><time>2026-04-19T16:07:35.001Z</time></trkpt><trkpt lat="43.92738748504037" lon="11.218063811991154"><ele>283.0</ele><time>2026-04-19T16:07:36.001Z</time></trkpt><trkpt lat="43.92745544731058" lon="11.218089523614315"><ele>283.0</ele><time>2026-04-19T16:07:37.001Z</time></trkpt><trkpt lat="43.92752445505063" lon="11.218113933913875"><ele>283.0</ele><time>2026-04-19T16:07:38.001Z</time></trkpt><trkpt lat="43.9275951083548" lon="11.218136689153653"><ele>283.0</ele><time>2026-04-19T16:07:39.001Z</time></trkpt><trkpt lat="43.92766643195073" lon="11.218158882656573"><ele>288.8333333333333</ele><time>2026-04-19T16:07:40.001Z</time></trkpt><trkpt lat="43.92773796456368" lon="11.218180278766726"><ele>294.66666666666663</ele><time>2026-04-19T16:07:41.001Z</time></trkpt><trkpt lat="43.927809709116644" lon="11.218201479048687"><ele>300.5</ele><time>2026-04-19T16:07:42.001Z</time></trkpt><trkpt lat="43.92787989919359" lon="11.218220261306524"><ele>306.3333333333333</ele><time>2026-04-19T16:07:43.001Z</time></trkpt><trkpt lat="43.92797550963386" lon="11.218243849969783"><ele>312.1666666666667</ele><time>2026-04-19T16:07:45.001Z</time></trkpt><trkpt lat="43.928055051337786" lon="11.218262223651854"><ele>318.0</ele><time>2026-04-19T16:07:48.001Z</time></trkpt><trkpt lat="43.92814709122733" lon="11.21828665317705"><ele>318.0</ele><time>2026-04-19T16:07:51.001Z</time></trkpt><trkpt lat="43.928217130641485" lon="11.218306068196673"><ele>318.0</ele><time>2026-04-19T16:07:53.001Z</time></trkpt><trkpt lat="43.92828576789913" lon="11.218324941447582"><ele>318.0</ele><time>2026-04-19T16:07:55.001Z</time></trkpt><trkpt lat="43.92835338571708" lon="11.218343241775086"><ele>318.0</ele><time>2026-04-19T16:07:57.001Z</time></trkpt><trkpt lat="43.92843795302492" lon="11.218367629392777"><ele>318.0</ele><time>2026-04-19T16:08:11.001Z</time></trkpt><trkpt lat="43.92850209311841" lon="11.218386084178702"><ele>318.0</ele><time>2026-04-19T16:08:13.001Z</time></trkpt><trkpt lat="43.928574905606915" lon="11.218405825230558"><ele>318.0</ele><time>2026-04-19T16:08:15.001Z</time></trkpt><trkpt lat="43.928652334098565" lon="11.218426920050556"><ele>316.0</ele><time>2026-04-19T16:08:17.001Z</time></trkpt><trkpt lat="43.9287306500647" lon="11.218447578981415"><ele>314.0</ele><time>2026-04-19T16:08:19.001Z</time></trkpt><trkpt lat="43.92879337126309" lon="11.218463458683738"><ele>312.0</ele><time>2026-04-19T16:08:21.001Z</time></trkpt><trkpt lat="43.92885963006342" lon="11.218481367164188"><ele>310.0</ele><time>2026-04-19T16:08:24.001Z</time></trkpt><trkpt lat="43.92895753750091" lon="11.218508407631655"><ele>308.0</ele><time>2026-04-19T16:08:27.001Z</time></trkpt><trkpt lat="43.92904712184024" lon="11.218534038642563"><ele>306.0</ele><time>2026-04-19T16:08:29.001Z</time></trkpt><trkpt lat="43.92913206825717" lon="11.21855599085998"><ele>306.0</ele><time>2026-04-19T16:08:31.001Z</time></trkpt><trkpt lat="43.92920010065216" lon="11.218572726445352"><ele>306.0</ele><time>2026-04-19T16:08:33.001Z</time></trkpt><trkpt lat="43.92927569649308" lon="11.218589104813757"><ele>306.0</ele><time>2026-04-19T16:08:37.001Z</time></trkpt><trkpt lat="43.929345719900006" lon="11.218604722969106"><ele>306.0</ele><time>2026-04-19T16:08:40.001Z</time></trkpt><trkpt lat="43.92941430024183" lon="11.218620728464511"><ele>306.0</ele><time>2026-04-19T16:08:43.001Z</time></trkpt><trkpt lat="43.929485184531266" lon="11.21863440432352"><ele>306.0</ele><time>2026-04-19T16:08:53.001Z</time></trkpt><trkpt lat="43.92955958593963" lon="11.218651610891838"><ele>306.0</ele><time>2026-04-19T16:08:57.001Z</time></trkpt><trkpt lat="43.929648991122" lon="11.21867058761405"><ele>305.5</ele><time>2026-04-19T16:09:00.001Z</time></trkpt><trkpt lat="43.929724297957385" lon="11.218691540437453"><ele>305.0</ele><time>2026-04-19T16:09:35Z</time></trkpt><trkpt lat="43.929808693301844" lon="11.218715520362773"><ele>304.5</ele><time>2026-04-19T16:09:39.001Z</time></trkpt><trkpt lat="43.9298864119438" lon="11.218739622748318"><ele>304.0</ele><time>2026-04-19T16:09:42.001Z</time></trkpt><trkpt lat="43.929969042045315" lon="11.218760275607282"><ele>303.5</ele><time>2026-04-19T16:09:46.001Z</time></trkpt><trkpt lat="43.930048417850706" lon="11.218776193351205"><ele>303.0</ele><time>2026-04-19T16:09:49.001Z</time></trkpt><trkpt lat="43.930117008103515" lon="11.21879104767098"><ele>302.6666666666667</ele><time>2026-04-19T16:11:03.001Z</time></trkpt><trkpt lat="43.93020445135967" lon="11.218810597757468"><ele>302.3333333333333</ele><time>2026-04-19T16:11:06.001Z</time></trkpt><trkpt lat="43.93027576026722" lon="11.21882401697148"><ele>302.0</ele><time>2026-04-19T16:11:09.001Z</time></trkpt><trkpt lat="43.93035812891889" lon="11.218840566274467"><ele>301.66666666666663</ele><time>2026-04-19T16:11:14Z</time></trkpt><trkpt lat="43.930434415057086" lon="11.218867620133052"><ele>301.3333333333333</ele><time>2026-04-19T16:12:44.001Z</time></trkpt><trkpt lat="43.930506059979656" lon="11.218884444544164"><ele>301.0</ele><time>2026-04-19T16:12:48.001Z</time></trkpt><trkpt lat="43.93058080912938" lon="11.21890437908505"><ele>301.0</ele><time>2026-04-19T16:12:52.001Z</time></trkpt><trkpt lat="43.930656806360076" lon="11.218925274569754"><ele>301.0</ele><time>2026-04-19T16:12:57.001Z</time></trkpt><trkpt lat="43.930735208187976" lon="11.218934738315204"><ele>301.0</ele><time>2026-04-19T16:13:02.001Z</time></trkpt><trkpt lat="43.93080750617909" lon="11.218946244061433"><ele>301.0</ele><time>2026-04-19T16:13:07.001Z</time></trkpt><trkpt lat="43.930875088727696" lon="11.218961494466297"><ele>301.0</ele><time>2026-04-19T16:13:14Z</time></trkpt><trkpt lat="43.93094589556358" lon="11.218981539502723"><ele>301.0</ele><time>2026-04-19T16:13:19Z</time></trkpt><trkpt lat="43.931020036201694" lon="11.218998689527824"><ele>301.0</ele><time>2026-04-19T16:13:23Z</time></trkpt><trkpt lat="43.93108860181639" lon="11.219013598835284"><ele>304.0</ele><time>2026-04-19T16:13:27Z</time></trkpt><trkpt lat="43.93116841345604" lon="11.219030356851945"><ele>307.0</ele><time>2026-04-19T16:13:31Z</time></trkpt><trkpt lat="43.931250779665" lon="11.219048038610788"><ele>310.0</ele><time>2026-04-19T16:13:34Z</time></trkpt><trkpt lat="43.931318093209846" lon="11.219061713252547"><ele>313.0</ele><time>2026-04-19T16:13:37Z</time></trkpt><trkpt lat="43.93139882088288" lon="11.219079145739483"><ele>316.0</ele><time>2026-04-19T16:13:40Z</time></trkpt><trkpt lat="43.93146680121798" lon="11.219092881063103"><ele>319.0</ele><time>2026-04-19T16:13:43Z</time></trkpt><trkpt lat="43.93153164322635" lon="11.219107500171422"><ele>322.0</ele><time>2026-04-19T16:13:46Z</time></trkpt><trkpt lat="43.93160758727268" lon="11.219126023463883"><ele>322.0</ele><time>2026-04-19T16:13:50Z</time></trkpt><trkpt lat="43.931670847258495" lon="11.219140313586164"><ele>322.0</ele><time>2026-04-19T16:13:53Z</time></trkpt><trkpt lat="43.93173509658494" lon="11.219155241866238"><ele>322.0</ele><time>2026-04-19T16:13:56Z</time></trkpt><trkpt lat="43.93182046776226" lon="11.21917560694523"><ele>322.0</ele><time>2026-04-19T16:14:00.001Z</time></trkpt><trkpt lat="43.93190151715542" lon="11.21920081532036"><ele>322.0</ele><time>2026-04-19T16:14:03.001Z</time></trkpt><trkpt lat="43.93199146006335" lon="11.219228985242124"><ele>322.0</ele><time>2026-04-19T16:14:06.001Z</time></trkpt><trkpt lat="43.932062312544225" lon="11.219252122205877"><ele>322.5</ele><time>2026-04-19T16:14:09.001Z</time></trkpt><trkpt lat="43.932130122280505" lon="11.2192770418634"><ele>323.0</ele><time>2026-04-19T16:14:12.001Z</time></trkpt><trkpt lat="43.932217363753" lon="11.219308537578287"><ele>323.5</ele><time>2026-04-19T16:14:15.001Z</time></trkpt><trkpt lat="43.932294710930066" lon="11.21933748506094"><ele>324.0</ele><time>2026-04-19T16:14:18.001Z</time></trkpt><trkpt lat="43.93237467982883" lon="11.219369652943069"><ele>324.5</ele><time>2026-04-19T16:14:21.001Z</time></trkpt><trkpt lat="43.93244242560521" lon="11.219397728156443"><ele>325.0</ele><time>2026-04-19T16:14:23.001Z</time></trkpt><trkpt lat="43.93251621651763" lon="11.219436127751381"><ele>324.5</ele><time>2026-04-19T16:14:25.001Z</time></trkpt><trkpt lat="43.932595533813725" lon="11.219478561961202"><ele>324.0</ele><time>2026-04-19T16:14:27.001Z</time></trkpt><trkpt lat="43.93267039604452" lon="11.219525067570322"><ele>323.5</ele><time>2026-04-19T16:14:30.001Z</time></trkpt><trkpt lat="43.93274584444826" lon="11.219570762340384"><ele>323.0</ele><time>2026-04-19T16:14:33.001Z</time></trkpt><trkpt lat="43.932808124000516" lon="11.21960706256942"><ele>322.5</ele><time>2026-04-19T16:14:35.001Z</time></trkpt><trkpt lat="43.93287854743825" lon="11.219648415738224"><ele>322.0</ele><time>2026-04-19T16:14:37.001Z</time></trkpt><trkpt lat="43.93295123671535" lon="11.219695922984823"><ele>322.0</ele><time>2026-04-19T16:14:39.001Z</time></trkpt><trkpt lat="43.933019675656325" lon="11.21974390354964"><ele>322.0</ele><time>2026-04-19T16:14:41.001Z</time></trkpt><trkpt lat="43.93309757147719" lon="11.219796745758611"><ele>322.0</ele><time>2026-04-19T16:14:44.001Z</time></trkpt><trkpt lat="43.93315996200745" lon="11.21984207211146"><ele>322.0</ele><time>2026-04-19T16:14:47.001Z</time></trkpt><trkpt lat="43.93324146699758" lon="11.219900821634017"><ele>322.0</ele><time>2026-04-19T16:14:50.001Z</time></trkpt><trkpt lat="43.93330348570866" lon="11.219951799027257"><ele>322.0</ele><time>2026-04-19T16:14:52.001Z</time></trkpt><trkpt lat="43.93336693630195" lon="11.220004299299234"><ele>322.2857142857143</ele><time>2026-04-19T16:14:54.001Z</time></trkpt><trkpt lat="43.933436345622184" lon="11.220063733621021"><ele>322.57142857142856</ele><time>2026-04-19T16:14:58.001Z</time></trkpt><trkpt lat="43.93350163973868" lon="11.220123078134723"><ele>322.8571428571429</ele><time>2026-04-19T16:15:02.001Z</time></trkpt><trkpt lat="43.93355534513315" lon="11.220172707968393"><ele>323.1428571428571</ele><time>2026-04-19T16:15:05.001Z</time></trkpt><trkpt lat="43.933609738708874" lon="11.220226584622624"><ele>323.42857142857144</ele><time>2026-04-19T16:15:08.001Z</time></trkpt><trkpt lat="43.93368028867057" lon="11.22029747117082"><ele>323.7142857142857</ele><time>2026-04-19T16:15:11.001Z</time></trkpt><trkpt lat="43.933730999428036" lon="11.220350193539208"><ele>324.0</ele><time>2026-04-19T16:15:13.001Z</time></trkpt><trkpt lat="43.93380462413202" lon="11.220425965775066"><ele>324.0</ele><time>2026-04-19T16:15:16.001Z</time></trkpt><trkpt lat="43.93388054380004" lon="11.220502419662044"><ele>324.0</ele><time>2026-04-19T16:15:19Z</time></trkpt><trkpt lat="43.93393395805999" lon="11.220554060747647"><ele>324.0</ele><time>2026-04-19T16:15:21Z</time></trkpt><trkpt lat="43.9340016819443" lon="11.220619669225684"><ele>324.0</ele><time>2026-04-19T16:15:25Z</time></trkpt><trkpt lat="43.934062313841956" lon="11.22068213252932"><ele>324.0</ele><time>2026-04-19T16:15:29Z</time></trkpt><trkpt lat="43.93413162228841" lon="11.220753769732926"><ele>324.0</ele><time>2026-04-19T16:15:33Z</time></trkpt><trkpt lat="43.93418345728731" lon="11.22080629156386"><ele>324.0</ele><time>2026-04-19T16:15:35Z</time></trkpt><trkpt lat="43.93424262917334" lon="11.220868328176346"><ele>324.0</ele><time>2026-04-19T16:15:37Z</time></trkpt><trkpt lat="43.93430426549332" lon="11.220932464205367"><ele>324.0</ele><time>2026-04-19T16:15:39Z</time></trkpt><trkpt lat="43.934366642505765" lon="11.220997033172722"><ele>324.0</ele><time>2026-04-19T16:15:41Z</time></trkpt><trkpt lat="43.934422873323264" lon="11.221051838433748"><ele>324.0</ele><time>2026-04-19T16:15:43Z</time></trkpt><trkpt lat="43.93447623085899" lon="11.221100938479857"><ele>324.0</ele><time>2026-04-19T16:15:46Z</time></trkpt><trkpt lat="43.93454092656669" lon="11.221161114052482"><ele>324.0</ele><time>2026-04-19T16:15:50Z</time></trkpt><trkpt lat="43.93459637902674" lon="11.22120751384656"><ele>324.0</ele><time>2026-04-19T16:15:53Z</time></trkpt><trkpt lat="43.93466371048452" lon="11.22126544098574"><ele>324.0</ele><time>2026-04-19T16:15:56Z</time></trkpt><trkpt lat="43.93472916696069" lon="11.221320043496734"><ele>324.0</ele><time>2026-04-19T16:15:58Z</time></trkpt><trkpt lat="43.934803428470026" lon="11.221377045140052"><ele>324.0</ele><time>2026-04-19T16:16:00Z</time></trkpt><trkpt lat="43.9348746191638" lon="11.22142639297539"><ele>324.0</ele><time>2026-04-19T16:16:03Z</time></trkpt><trkpt lat="43.93494767257163" lon="11.221466116518194"><ele>324.0</ele><time>2026-04-19T16:16:07Z</time></trkpt><trkpt lat="43.93501288859834" lon="11.221502636451017"><ele>324.2857142857143</ele><time>2026-04-19T16:16:11Z</time></trkpt><trkpt lat="43.93507514231667" lon="11.221542532895787"><ele>324.57142857142856</ele><time>2026-04-19T16:16:15.001Z</time></trkpt><trkpt lat="43.93513858273256" lon="11.221581860034586"><ele>324.8571428571429</ele><time>2026-04-19T16:16:20.001Z</time></trkpt><trkpt lat="43.93520216056602" lon="11.221617199750556"><ele>325.1428571428571</ele><time>2026-04-19T16:16:24.001Z</time></trkpt><trkpt lat="43.935261868293715" lon="11.221646888327385"><ele>325.4285714285714</ele><time>2026-04-19T16:16:28.001Z</time></trkpt><trkpt lat="43.93532554978762" lon="11.221679039256838"><ele>325.7142857142857</ele><time>2026-04-19T16:16:32.001Z</time></trkpt><trkpt lat="43.93538982137023" lon="11.221709154099418"><ele>326.0</ele><time>2026-04-19T16:16:36.001Z</time></trkpt><trkpt lat="43.93545600901222" lon="11.221737127669979"><ele>326.0</ele><time>2026-04-19T16:16:40.001Z</time></trkpt><trkpt lat="43.935521861472026" lon="11.221763442260325"><ele>326.0</ele><time>2026-04-19T16:16:44.001Z</time></trkpt><trkpt lat="43.93559546816352" lon="11.2217795960028"><ele>326.0</ele><time>2026-04-19T16:16:54.001Z</time></trkpt><trkpt lat="43.9356635065587" lon="11.221807226519067"><ele>326.0</ele><time>2026-04-19T16:16:58.001Z</time></trkpt><trkpt lat="43.93573671508861" lon="11.221834344019948"><ele>326.0</ele><time>2026-04-19T16:17:02.001Z</time></trkpt><trkpt lat="43.93580326902305" lon="11.221856895587042"><ele>326.0</ele><time>2026-04-19T16:17:06.001Z</time></trkpt><trkpt lat="43.93586729038139" lon="11.22187541807665"><ele>326.0</ele><time>2026-04-19T16:17:10.001Z</time></trkpt><trkpt lat="43.93593271524837" lon="11.221892856996938"><ele>327.0</ele><time>2026-04-19T16:17:14.001Z</time></trkpt><trkpt lat="43.93599748468757" lon="11.221909394867462"><ele>328.0</ele><time>2026-04-19T16:17:18.001Z</time></trkpt><trkpt lat="43.93607721366081" lon="11.22192818716384"><ele>329.0</ele><time>2026-04-19T16:17:21.001Z</time></trkpt><trkpt lat="43.93614082107949" lon="11.221941757316895"><ele>330.0</ele><time>2026-04-19T16:17:23.001Z</time></trkpt><trkpt lat="43.93620515003379" lon="11.221954637512791"><ele>331.0</ele><time>2026-04-19T16:17:25Z</time></trkpt><trkpt lat="43.936270247085794" lon="11.221966181700735"><ele>332.0</ele><time>2026-04-19T16:17:27Z</time></trkpt><trkpt lat="43.93634790217806" lon="11.221978459650659"><ele>333.0</ele><time>2026-04-19T16:17:29Z</time></trkpt><trkpt lat="43.936426792497336" lon="11.221987970152723"><ele>333.0</ele><time>2026-04-19T16:17:31Z</time></trkpt><trkpt lat="43.93649688001701" lon="11.22199381780013"><ele>333.0</ele><time>2026-04-19T16:17:33Z</time></trkpt><trkpt lat="43.93656248599899" lon="11.221997807663707"><ele>333.0</ele><time>2026-04-19T16:17:35Z</time></trkpt><trkpt lat="43.936631957112084" lon="11.222000748066602"><ele>333.0</ele><time>2026-04-19T16:17:37Z</time></trkpt><trkpt lat="43.93671531271418" lon="11.222000528429772"><ele>333.0</ele><time>2026-04-19T16:17:39Z</time></trkpt><trkpt lat="43.93681040638333" lon="11.22199714089291"><ele>333.0</ele><time>2026-04-19T16:17:41Z</time></trkpt><trkpt lat="43.93691398595325" lon="11.221991677422073"><ele>335.6666666666667</ele><time>2026-04-19T16:17:43Z</time></trkpt><trkpt lat="43.93700739120184" lon="11.22198407924664"><ele>338.3333333333333</ele><time>2026-04-19T16:17:45Z</time></trkpt><trkpt lat="43.937082895323236" lon="11.22197622455721"><ele>341.0</ele><time>2026-04-19T16:17:48Z</time></trkpt><trkpt lat="43.9371464505129" lon="11.221969105372018"><ele>343.66666666666663</ele><time>2026-04-19T16:17:52Z</time></trkpt><trkpt lat="43.93721688843274" lon="11.221962390579488"><ele>346.3333333333333</ele><time>2026-04-19T16:17:56Z</time></trkpt><trkpt lat="43.937298792736826" lon="11.221956928739324"><ele>349.0</ele><time>2026-04-19T16:17:59Z</time></trkpt><trkpt lat="43.937363724436814" lon="11.221951018847243"><ele>348.99999999999994</ele><time>2026-04-19T16:18:01Z</time></trkpt><trkpt lat="43.93744922666527" lon="11.221943853247472"><ele>349.0</ele><time>2026-04-19T16:18:04Z</time></trkpt><trkpt lat="43.937512653861866" lon="11.221938807200027"><ele>349.0</ele><time>2026-04-19T16:18:08Z</time></trkpt><trkpt lat="43.93758753064697" lon="11.221934593919395"><ele>349.0</ele><time>2026-04-19T16:18:14Z</time></trkpt><trkpt lat="43.93766295782318" lon="11.221931215695854"><ele>349.0</ele><time>2026-04-19T16:18:17Z</time></trkpt><trkpt lat="43.937730823704186" lon="11.221929435242275"><ele>348.99999999999994</ele><time>2026-04-19T16:18:20Z</time></trkpt><trkpt lat="43.93779440123528" lon="11.221929353653325"><ele>349.0</ele><time>2026-04-19T16:18:27Z</time></trkpt><trkpt lat="43.93787384480828" lon="11.221928188350715"><ele>348.0</ele><time>2026-04-19T16:18:31.001Z</time></trkpt><trkpt lat="43.93794642073484" lon="11.221927261515244"><ele>347.0</ele><time>2026-04-19T16:18:34.001Z</time></trkpt><trkpt lat="43.93801822855221" lon="11.221922728998477"><ele>346.0</ele><time>2026-04-19T16:18:37.001Z</time></trkpt><trkpt lat="43.93811298189903" lon="11.22191562265208"><ele>345.0</ele><time>2026-04-19T16:18:40.001Z</time></trkpt><trkpt lat="43.938190710504166" lon="11.221910919111972"><ele>344.0</ele><time>2026-04-19T16:18:42.001Z</time></trkpt><trkpt lat="43.938275583636646" lon="11.221905620932484"><ele>343.0</ele><time>2026-04-19T16:18:44.001Z</time></trkpt><trkpt lat="43.938384315197446" lon="11.221898171900522"><ele>342.0</ele><time>2026-04-19T16:18:46.001Z</time></trkpt><trkpt lat="43.938477163506484" lon="11.221890331874103"><ele>341.0</ele><time>2026-04-19T16:18:48.001Z</time></trkpt><trkpt lat="43.93854358416872" lon="11.221884721954902"><ele>340.0</ele><time>2026-04-19T16:18:50.001Z</time></trkpt><trkpt lat="43.938631158391836" lon="11.221876739242225"><ele>339.0</ele><time>2026-04-19T16:18:53.001Z</time></trkpt><trkpt lat="43.93871943846633" lon="11.221868023481665"><ele>338.0</ele><time>2026-04-19T16:18:56.001Z</time></trkpt><trkpt lat="43.93878530885801" lon="11.22186192071465"><ele>337.0</ele><time>2026-04-19T16:18:58.001Z</time></trkpt><trkpt lat="43.93884936724529" lon="11.221853578758202"><ele>337.0</ele><time>2026-04-19T16:19:01.001Z</time></trkpt><trkpt lat="43.938914484567235" lon="11.221847340777206"><ele>337.0</ele><time>2026-04-19T16:19:09.001Z</time></trkpt><trkpt lat="43.93898206143999" lon="11.22184298838589"><ele>337.0</ele><time>2026-04-19T16:19:14.001Z</time></trkpt><trkpt lat="43.93906832239417" lon="11.221838274551395"><ele>337.0</ele><time>2026-04-19T16:19:18.001Z</time></trkpt><trkpt lat="43.9391570230327" lon="11.221829875087067"><ele>337.0</ele><time>2026-04-19T16:19:21.001Z</time></trkpt><trkpt lat="43.93922829856399" lon="11.221822606509681"><ele>337.0</ele><time>2026-04-19T16:19:23.001Z</time></trkpt><trkpt lat="43.939303912948105" lon="11.221813090102453"><ele>339.0</ele><time>2026-04-19T16:19:25.001Z</time></trkpt><trkpt lat="43.93938685082367" lon="11.221804420457062"><ele>341.0</ele><time>2026-04-19T16:19:27.001Z</time></trkpt><trkpt lat="43.93946918027966" lon="11.221794343813768"><ele>343.0</ele><time>2026-04-19T16:19:29.001Z</time></trkpt><trkpt lat="43.939555647811154" lon="11.221780394472495"><ele>345.0</ele><time>2026-04-19T16:19:31Z</time></trkpt><trkpt lat="43.93964927754653" lon="11.221762931591092"><ele>347.0</ele><time>2026-04-19T16:19:33Z</time></trkpt><trkpt lat="43.93974713078909" lon="11.221739567903278"><ele>349.0</ele><time>2026-04-19T16:19:35Z</time></trkpt><trkpt lat="43.93984912315485" lon="11.221711561479"><ele>349.0</ele><time>2026-04-19T16:19:37Z</time></trkpt><trkpt lat="43.93995665448976" lon="11.221677237548715"><ele>349.0</ele><time>2026-04-19T16:19:39Z</time></trkpt><trkpt lat="43.94008443079406" lon="11.221629783910807"><ele>349.0</ele><time>2026-04-19T16:19:41Z</time></trkpt><trkpt lat="43.94015141318635" lon="11.221603020694472"><ele>349.0</ele><time>2026-04-19T16:19:42Z</time></trkpt><trkpt lat="43.940215498106745" lon="11.221576385760331"><ele>349.0</ele><time>2026-04-19T16:19:43Z</time></trkpt><trkpt lat="43.94028301761815" lon="11.221545408681319"><ele>350.8333333333333</ele><time>2026-04-19T16:19:44Z</time></trkpt><trkpt lat="43.940353712882995" lon="11.221511707422316"><ele>352.66666666666663</ele><time>2026-04-19T16:19:45Z</time></trkpt><trkpt lat="43.9404273534372" lon="11.221474617430694"><ele>354.5</ele><time>2026-04-19T16:19:46Z</time></trkpt><trkpt lat="43.940504205342684" lon="11.221432675195087"><ele>356.3333333333333</ele><time>2026-04-19T16:19:47Z</time></trkpt><trkpt lat="43.94058486147556" lon="11.221385341970569"><ele>358.1666666666667</ele><time>2026-04-19T16:19:48Z</time></trkpt><trkpt lat="43.94066966707478" lon="11.221333306040199"><ele>360.0</ele><time>2026-04-19T16:19:49Z</time></trkpt><trkpt lat="43.9407586874295" lon="11.22127492590261"><ele>360.2</ele><time>2026-04-19T16:19:50Z</time></trkpt><trkpt lat="43.940851018007095" lon="11.22121218757739"><ele>360.4</ele><time>2026-04-19T16:19:51Z</time></trkpt><trkpt lat="43.940946009030235" lon="11.221140331224992"><ele>360.6</ele><time>2026-04-19T16:19:52Z</time></trkpt><trkpt lat="43.94104394719354" lon="11.221059794507516"><ele>360.8</ele><time>2026-04-19T16:19:53Z</time></trkpt><trkpt lat="43.94114542177382" lon="11.22097199581469"><ele>361.0</ele><time>2026-04-19T16:19:54Z</time></trkpt><trkpt lat="43.94125348420559" lon="11.220869489687358"><ele>366.25</ele><time>2026-04-19T16:19:55Z</time></trkpt><trkpt lat="43.941367153179876" lon="11.220760152431286"><ele>371.5</ele><time>2026-04-19T16:19:56Z</time></trkpt><trkpt lat="43.94148171746542" lon="11.220640195350287"><ele>376.75</ele><time>2026-04-19T16:19:57Z</time></trkpt><trkpt lat="43.94160051934743" lon="11.22050945509966"><ele>382.0</ele><time>2026-04-19T16:19:58Z</time></trkpt><trkpt lat="43.941722575777206" lon="11.2203719707433"><ele>396.66666666666663</ele><time>2026-04-19T16:19:59Z</time></trkpt><trkpt lat="43.94184943080444" lon="11.220228676438143"><ele>411.3333333333333</ele><time>2026-04-19T16:20:00Z</time></trkpt><trkpt lat="43.941980871474584" lon="11.220079303465916"><ele>426.0</ele><time>2026-04-19T16:20:01Z</time></trkpt><trkpt lat="43.94211659038828" lon="11.219924162762672"><ele>431.0</ele><time>2026-04-19T16:20:02Z</time></trkpt><trkpt lat="43.94225482079501" lon="11.2197661644676"><ele>436.0</ele><time>2026-04-19T16:20:03Z</time></trkpt><trkpt lat="43.94239730946308" lon="11.219603939382381"><ele>441.0</ele><time>2026-04-19T16:20:04Z</time></trkpt><trkpt lat="43.94253962830215" lon="11.21943949237287"><ele>441.66666666666663</ele><time>2026-04-19T16:20:05Z</time></trkpt><trkpt lat="43.94267718721482" lon="11.219276891744704"><ele>442.3333333333333</ele><time>2026-04-19T16:20:06Z</time></trkpt><trkpt lat="43.94282084925594" lon="11.219109089410011"><ele>443.0</ele><time>2026-04-19T16:20:07Z</time></trkpt><trkpt lat="43.94297091464341" lon="11.218938417360969"><ele>443.0</ele><time>2026-04-19T16:20:08Z</time></trkpt><trkpt lat="43.943097174829035" lon="11.218744580257887"><ele>443.0</ele><time>2026-04-19T16:20:09Z</time></trkpt><trkpt lat="43.94323757490152" lon="11.218583008200913"><ele>443.0</ele><time>2026-04-19T16:20:10Z</time></trkpt><trkpt lat="43.9433778211329" lon="11.218419243828613"><ele>443.66666666666663</ele><time>2026-04-19T16:20:11Z</time></trkpt><trkpt lat="43.94351315728688" lon="11.218260008102689"><ele>444.33333333333337</ele><time>2026-04-19T16:20:12Z</time></trkpt><trkpt lat="43.94364854916641" lon="11.218102130655474"><ele>445.0</ele><time>2026-04-19T16:20:13Z</time></trkpt><trkpt lat="43.943781924401605" lon="11.21794686456494"><ele>445.0</ele><time>2026-04-19T16:20:14Z</time></trkpt><trkpt lat="43.94391495519347" lon="11.21778768011488"><ele>445.0</ele><time>2026-04-19T16:20:15Z</time></trkpt><trkpt lat="43.94404607426144" lon="11.217629907676065"><ele>445.0</ele><time>2026-04-19T16:20:16Z</time></trkpt><trkpt lat="43.944177227428234" lon="11.21747399244927"><ele>445.6666666666667</ele><time>2026-04-19T16:20:17Z</time></trkpt><trkpt lat="43.94431079646933" lon="11.21731831515877"><ele>446.33333333333337</ele><time>2026-04-19T16:20:18Z</time></trkpt><trkpt lat="43.944444313309724" lon="11.217159157212606"><ele>447.0</ele><time>2026-04-19T16:20:19Z</time></trkpt><trkpt lat="43.94457736470286" lon="11.217000082896215"><ele>447.0</ele><time>2026-04-19T16:20:20Z</time></trkpt><trkpt lat="43.94471143461686" lon="11.216838204839393"><ele>447.0</ele><time>2026-04-19T16:20:21Z</time></trkpt><trkpt lat="43.94484826484652" lon="11.216681165331556"><ele>447.0</ele><time>2026-04-19T16:20:22Z</time></trkpt><trkpt lat="43.94498384151928" lon="11.216518872148452"><ele>446.0</ele><time>2026-04-19T16:20:23Z</time></trkpt><trkpt lat="43.945119149168754" lon="11.21635786229299"><ele>445.0</ele><time>2026-04-19T16:20:24Z</time></trkpt><trkpt lat="43.94525439076763" lon="11.21619603854358"><ele>444.0</ele><time>2026-04-19T16:20:25Z</time></trkpt><trkpt lat="43.94539352177758" lon="11.216035938339365"><ele>444.0</ele><time>2026-04-19T16:20:26Z</time></trkpt><trkpt lat="43.945529876929804" lon="11.215877182911065"><ele>444.0</ele><time>2026-04-19T16:20:27Z</time></trkpt><trkpt lat="43.94565768898582" lon="11.215724992624057"><ele>444.0</ele><time>2026-04-19T16:20:28Z</time></trkpt><trkpt lat="43.945781667063" lon="11.215574255911703"><ele>434.33333333333337</ele><time>2026-04-19T16:20:29Z</time></trkpt><trkpt lat="43.945904347119566" lon="11.21542186832222"><ele>424.6666666666667</ele><time>2026-04-19T16:20:30Z</time></trkpt><trkpt lat="43.94603007130572" lon="11.215271453409434"><ele>415.0</ele><time>2026-04-19T16:20:31Z</time></trkpt><trkpt lat="43.94615585825259" lon="11.215123173942148"><ele>415.0</ele><time>2026-04-19T16:20:32Z</time></trkpt><trkpt lat="43.94628366614414" lon="11.214975510768472"><ele>415.0</ele><time>2026-04-19T16:20:33Z</time></trkpt><trkpt lat="43.94640470176512" lon="11.214844713724306"><ele>415.0</ele><time>2026-04-19T16:20:34Z</time></trkpt><trkpt lat="43.946557464511464" lon="11.21469980202901"><ele>409.6666666666667</ele><time>2026-04-19T16:20:35Z</time></trkpt><trkpt lat="43.94673295927534" lon="11.214546147292713"><ele>404.33333333333337</ele><time>2026-04-19T16:20:36Z</time></trkpt><trkpt lat="43.94691976237216" lon="11.214400771320005"><ele>399.0</ele><time>2026-04-19T16:20:37Z</time></trkpt><trkpt lat="43.94710228600098" lon="11.214284399342011"><ele>399.0</ele><time>2026-04-19T16:20:38Z</time></trkpt><trkpt lat="43.94728648548412" lon="11.214182894524647"><ele>399.0</ele><time>2026-04-19T16:20:39Z</time></trkpt><trkpt lat="43.947542171189006" lon="11.213990668018992"><ele>395.33333333333337</ele><time>2026-04-19T16:20:40Z</time></trkpt><trkpt lat="43.947804716290634" lon="11.21393763895236"><ele>391.6666666666667</ele><time>2026-04-19T16:20:41.001Z</time></trkpt><trkpt lat="43.94798403822249" lon="11.213892571071268"><ele>388.0</ele><time>2026-04-19T16:20:42.001Z</time></trkpt><trkpt lat="43.94816692700643" lon="11.213879722994417"><ele>388.0</ele><time>2026-04-19T16:20:43.001Z</time></trkpt><trkpt lat="43.94835088626337" lon="11.213877859979181"><ele>388.0</ele><time>2026-04-19T16:20:44.001Z</time></trkpt><trkpt lat="43.948517763163615" lon="11.213862917909394"><ele>388.0</ele><time>2026-04-19T16:20:45.001Z</time></trkpt><trkpt lat="43.94870245193522" lon="11.213849225276926"><ele>386.33333333333337</ele><time>2026-04-19T16:20:46.001Z</time></trkpt><trkpt lat="43.94888640567257" lon="11.213834590814937"><ele>384.6666666666667</ele><time>2026-04-19T16:20:47.001Z</time></trkpt><trkpt lat="43.94907240019194" lon="11.213818390823153"><ele>383.0</ele><time>2026-04-19T16:20:48.001Z</time></trkpt><trkpt lat="43.949258431938915" lon="11.213802623754432"><ele>382.0</ele><time>2026-04-19T16:20:49.001Z</time></trkpt><trkpt lat="43.94944824682396" lon="11.21378854703932"><ele>381.0</ele><time>2026-04-19T16:20:50.001Z</time></trkpt><trkpt lat="43.94963830502266" lon="11.213773040469063"><ele>380.0</ele><time>2026-04-19T16:20:51.001Z</time></trkpt><trkpt lat="43.949829142486585" lon="11.213757523594921"><ele>380.0</ele><time>2026-04-19T16:20:52.001Z</time></trkpt><trkpt lat="43.95002447488386" lon="11.21374440804567"><ele>380.0</ele><time>2026-04-19T16:20:53.001Z</time></trkpt><trkpt lat="43.95021962913336" lon="11.21372907413308"><ele>380.0</ele><time>2026-04-19T16:20:54.001Z</time></trkpt><trkpt lat="43.950414326691046" lon="11.21370891634254"><ele>380.33333333333337</ele><time>2026-04-19T16:20:55.001Z</time></trkpt><trkpt lat="43.95060960898201" lon="11.213681922523602"><ele>380.6666666666667</ele><time>2026-04-19T16:20:56.001Z</time></trkpt><trkpt lat="43.95080544928027" lon="11.213641817064504"><ele>381.0</ele><time>2026-04-19T16:20:57.001Z</time></trkpt><trkpt lat="43.95099710543097" lon="11.21358412362937"><ele>379.3333333333333</ele><time>2026-04-19T16:20:58.001Z</time></trkpt><trkpt lat="43.95118811024358" lon="11.213513901563687"><ele>377.66666666666663</ele><time>2026-04-19T16:20:59.001Z</time></trkpt><trkpt lat="43.95137766166051" lon="11.213431955767147"><ele>376.0</ele><time>2026-04-19T16:21:00.001Z</time></trkpt><trkpt lat="43.95156216634366" lon="11.213334894982545"><ele>376.0</ele><time>2026-04-19T16:21:01.001Z</time></trkpt><trkpt lat="43.95174382189256" lon="11.213227875637815"><ele>376.0</ele><time>2026-04-19T16:21:02.001Z</time></trkpt><trkpt lat="43.95192491165261" lon="11.213112692069238"><ele>376.0</ele><time>2026-04-19T16:21:03.001Z</time></trkpt><trkpt lat="43.95209864609257" lon="11.212982179469314"><ele>379.66666666666663</ele><time>2026-04-19T16:21:04.001Z</time></trkpt><trkpt lat="43.952264509055695" lon="11.21283586595685"><ele>383.3333333333333</ele><time>2026-04-19T16:21:05.001Z</time></trkpt><trkpt lat="43.952426936664835" lon="11.212678820529526"><ele>387.0</ele><time>2026-04-19T16:21:06.001Z</time></trkpt><trkpt lat="43.95258791137457" lon="11.212515147648363"><ele>389.33333333333337</ele><time>2026-04-19T16:21:07.001Z</time></trkpt><trkpt lat="43.95274689992343" lon="11.212350477837578"><ele>391.6666666666667</ele><time>2026-04-19T16:21:08.001Z</time></trkpt><trkpt lat="43.95290567494604" lon="11.212184489591243"><ele>394.0</ele><time>2026-04-19T16:21:09.001Z</time></trkpt><trkpt lat="43.953062313003144" lon="11.212016056565117"><ele>397.6666666666667</ele><time>2026-04-19T16:21:10.001Z</time></trkpt><trkpt lat="43.953220381102724" lon="11.211849295770207"><ele>401.33333333333337</ele><time>2026-04-19T16:21:11.001Z</time></trkpt><trkpt lat="43.9533774309746" lon="11.21168241814253"><ele>405.0</ele><time>2026-04-19T16:21:12.001Z</time></trkpt><trkpt lat="43.95353264252036" lon="11.211511734315721"><ele>393.3333333333333</ele><time>2026-04-19T16:21:13.001Z</time></trkpt><trkpt lat="43.95368933286986" lon="11.211340836989573"><ele>381.66666666666663</ele><time>2026-04-19T16:21:14.001Z</time></trkpt><trkpt lat="43.95384770924427" lon="11.211168743942011"><ele>370.0</ele><time>2026-04-19T16:21:15.001Z</time></trkpt><trkpt lat="43.954007759824044" lon="11.210995312214807"><ele>370.0</ele><time>2026-04-19T16:21:16.001Z</time></trkpt><trkpt lat="43.95418330465286" lon="11.210840728033093"><ele>370.0</ele><time>2026-04-19T16:21:17.001Z</time></trkpt><trkpt lat="43.954353443093574" lon="11.210673876730526"><ele>370.0</ele><time>2026-04-19T16:21:18.001Z</time></trkpt><trkpt lat="43.95452563408888" lon="11.210503561577879"><ele>361.66666666666663</ele><time>2026-04-19T16:21:19.001Z</time></trkpt><trkpt lat="43.95469627144945" lon="11.210328200735162"><ele>353.3333333333333</ele><time>2026-04-19T16:21:20.001Z</time></trkpt><trkpt lat="43.954874837817144" lon="11.210158161467909"><ele>345.0</ele><time>2026-04-19T16:21:21.001Z</time></trkpt><trkpt lat="43.955057558263064" lon="11.209992493826404"><ele>345.6666666666667</ele><time>2026-04-19T16:21:22.001Z</time></trkpt><trkpt lat="43.95524712279352" lon="11.209839247157745"><ele>346.33333333333337</ele><time>2026-04-19T16:21:23.001Z</time></trkpt><trkpt lat="43.955439679483305" lon="11.209694507099654"><ele>347.0</ele><time>2026-04-19T16:21:24.001Z</time></trkpt><trkpt lat="43.955638164861" lon="11.20955800592273"><ele>347.0</ele><time>2026-04-19T16:21:25.001Z</time></trkpt><trkpt lat="43.955841868225185" lon="11.209430476115077"><ele>347.0</ele><time>2026-04-19T16:21:26.001Z</time></trkpt><trkpt lat="43.95605074547502" lon="11.209315885671021"><ele>347.0</ele><time>2026-04-19T16:21:27.001Z</time></trkpt><trkpt lat="43.956264832095584" lon="11.209214944105966"><ele>345.5</ele><time>2026-04-19T16:21:28.001Z</time></trkpt><trkpt lat="43.95648289637271" lon="11.209126033424068"><ele>344.0</ele><time>2026-04-19T16:21:29.001Z</time></trkpt><trkpt lat="43.95670576159814" lon="11.209049820309774"><ele>348.5</ele><time>2026-04-19T16:21:30.001Z</time></trkpt><trkpt lat="43.95693153990982" lon="11.20898790191973"><ele>353.0</ele><time>2026-04-19T16:21:31.001Z</time></trkpt><trkpt lat="43.95715746321468" lon="11.208938787163923"><ele>353.0</ele><time>2026-04-19T16:21:32.001Z</time></trkpt><trkpt lat="43.95738221401874" lon="11.208901795128195"><ele>353.0</ele><time>2026-04-19T16:21:33.001Z</time></trkpt><trkpt lat="43.95760675758306" lon="11.20887924991194"><ele>350.6666666666667</ele><time>2026-04-19T16:21:34.001Z</time></trkpt><trkpt lat="43.95782623698031" lon="11.208869631530233"><ele>348.3333333333333</ele><time>2026-04-19T16:21:35.001Z</time></trkpt><trkpt lat="43.95802460048617" lon="11.208869579985812"><ele>346.0</ele><time>2026-04-19T16:21:36.001Z</time></trkpt><trkpt lat="43.958208149086445" lon="11.208879287246956"><ele>346.66666666666663</ele><time>2026-04-19T16:21:37Z</time></trkpt><trkpt lat="43.9583775654996" lon="11.208899747529376"><ele>347.3333333333333</ele><time>2026-04-19T16:21:38Z</time></trkpt><trkpt lat="43.95853658790343" lon="11.208921318448992"><ele>348.0</ele><time>2026-04-19T16:21:39Z</time></trkpt><trkpt lat="43.95868365394822" lon="11.2089478693942"><ele>348.0</ele><time>2026-04-19T16:21:40Z</time></trkpt><trkpt lat="43.958829427867855" lon="11.208978258227459"><ele>348.0</ele><time>2026-04-19T16:21:41Z</time></trkpt><trkpt lat="43.958972455566894" lon="11.209013782398968"><ele>348.0</ele><time>2026-04-19T16:21:42Z</time></trkpt><trkpt lat="43.95911243417452" lon="11.209055521970225"><ele>348.0</ele><time>2026-04-19T16:21:43Z</time></trkpt><trkpt lat="43.95925212711591" lon="11.209102892577254"><ele>349.5</ele><time>2026-04-19T16:21:44Z</time></trkpt><trkpt lat="43.9593921174551" lon="11.209156510937582"><ele>351.0</ele><time>2026-04-19T16:21:45Z</time></trkpt><trkpt lat="43.95953225152214" lon="11.209216815511668"><ele>352.5</ele><time>2026-04-19T16:21:46Z</time></trkpt><trkpt lat="43.959671808227455" lon="11.209282576836724"><ele>354.0</ele><time>2026-04-19T16:21:47Z</time></trkpt><trkpt lat="43.959811003640574" lon="11.209351729178254"><ele>354.0</ele><time>2026-04-19T16:21:48Z</time></trkpt><trkpt lat="43.95995342016644" lon="11.209421522344062"><ele>354.0</ele><time>2026-04-19T16:21:49Z</time></trkpt><trkpt lat="43.96009517251728" lon="11.209488177279084"><ele>354.0</ele><time>2026-04-19T16:21:50Z</time></trkpt><trkpt lat="43.960237100337984" lon="11.209554416190041"><ele>353.5</ele><time>2026-04-19T16:21:51Z</time></trkpt><trkpt lat="43.96037622372898" lon="11.209624704544341"><ele>353.0</ele><time>2026-04-19T16:21:52Z</time></trkpt><trkpt lat="43.9605163490435" lon="11.209694464071282"><ele>352.5</ele><time>2026-04-19T16:21:53Z</time></trkpt><trkpt lat="43.96065651150035" lon="11.209767405393603"><ele>352.0</ele><time>2026-04-19T16:21:54Z</time></trkpt><trkpt lat="43.96079988545708" lon="11.209841249410934"><ele>349.75</ele><time>2026-04-19T16:21:55Z</time></trkpt><trkpt lat="43.960944708843684" lon="11.20991936510939"><ele>347.5</ele><time>2026-04-19T16:21:56Z</time></trkpt><trkpt lat="43.961066146536254" lon="11.209982558034561"><ele>345.25</ele><time>2026-04-19T16:21:57Z</time></trkpt><trkpt lat="43.96120866728253" lon="11.210049508731029"><ele>343.0</ele><time>2026-04-19T16:21:58Z</time></trkpt><trkpt lat="43.96134797561662" lon="11.21012758920675"><ele>343.0</ele><time>2026-04-19T16:21:59Z</time></trkpt><trkpt lat="43.96149422619879" lon="11.210208143738926"><ele>343.0</ele><time>2026-04-19T16:22:00Z</time></trkpt><trkpt lat="43.961647463098416" lon="11.210289488120035"><ele>343.0</ele><time>2026-04-19T16:22:01Z</time></trkpt><trkpt lat="43.96180281694381" lon="11.210368234648428"><ele>340.66666666666663</ele><time>2026-04-19T16:22:02Z</time></trkpt><trkpt lat="43.96196018121484" lon="11.2104454971885"><ele>338.3333333333333</ele><time>2026-04-19T16:22:03Z</time></trkpt><trkpt lat="43.96212037516058" lon="11.210525394416543"><ele>336.0</ele><time>2026-04-19T16:22:04Z</time></trkpt><trkpt lat="43.96228562643522" lon="11.210604210741222"><ele>337.6666666666667</ele><time>2026-04-19T16:22:05Z</time></trkpt><trkpt lat="43.962456021578866" lon="11.210681235242715"><ele>339.33333333333337</ele><time>2026-04-19T16:22:06Z</time></trkpt><trkpt lat="43.962630511239716" lon="11.21075590122689"><ele>341.0</ele><time>2026-04-19T16:22:07Z</time></trkpt><trkpt lat="43.96281068880374" lon="11.210829072562097"><ele>341.0</ele><time>2026-04-19T16:22:08Z</time></trkpt><trkpt lat="43.962995245317074" lon="11.210899951421114"><ele>341.0</ele><time>2026-04-19T16:22:09Z</time></trkpt><trkpt lat="43.963184864822196" lon="11.210967853835195"><ele>341.0</ele><time>2026-04-19T16:22:10Z</time></trkpt><trkpt lat="43.963377399155895" lon="11.211033183878603"><ele>343.6666666666667</ele><time>2026-04-19T16:22:11Z</time></trkpt><trkpt lat="43.96357391845892" lon="11.211095290272025"><ele>346.3333333333333</ele><time>2026-04-19T16:22:12Z</time></trkpt><trkpt lat="43.9637736724232" lon="11.211155926589942"><ele>349.0</ele><time>2026-04-19T16:22:13Z</time></trkpt><trkpt lat="43.963977410570905" lon="11.211212516850365"><ele>349.0</ele><time>2026-04-19T16:22:14Z</time></trkpt><trkpt lat="43.96418447429052" lon="11.211267183494625"><ele>349.0</ele><time>2026-04-19T16:22:15Z</time></trkpt><trkpt lat="43.96439490286125" lon="11.211318838298233"><ele>349.0</ele><time>2026-04-19T16:22:16Z</time></trkpt><trkpt lat="43.96460943156351" lon="11.211365555576041"><ele>348.3333333333333</ele><time>2026-04-19T16:22:17Z</time></trkpt><trkpt lat="43.964826401363105" lon="11.211407850286514"><ele>347.6666666666667</ele><time>2026-04-19T16:22:18Z</time></trkpt><trkpt lat="43.96504669886207" lon="11.21145004490186"><ele>347.0</ele><time>2026-04-19T16:22:19Z</time></trkpt><trkpt lat="43.96526952436246" lon="11.211486349598031"><ele>344.0</ele><time>2026-04-19T16:22:20Z</time></trkpt><trkpt lat="43.96549528946288" lon="11.211515981140227"><ele>341.0</ele><time>2026-04-19T16:22:21Z</time></trkpt><trkpt lat="43.96572402861694" lon="11.211541139040822"><ele>341.5</ele><time>2026-04-19T16:22:22Z</time></trkpt><trkpt lat="43.96595535427569" lon="11.211561500809275"><ele>342.0</ele><time>2026-04-19T16:22:23Z</time></trkpt><trkpt lat="43.96618935738682" lon="11.211577838543198"><ele>342.0</ele><time>2026-04-19T16:22:24Z</time></trkpt><trkpt lat="43.966428382410555" lon="11.211590480289948"><ele>342.0</ele><time>2026-04-19T16:22:25Z</time></trkpt><trkpt lat="43.96667140990304" lon="11.21159748356188"><ele>343.5</ele><time>2026-04-19T16:22:26Z</time></trkpt><trkpt lat="43.96691739193065" lon="11.211599460998222"><ele>345.0</ele><time>2026-04-19T16:22:27Z</time></trkpt><trkpt lat="43.96716804613873" lon="11.211596459171284"><ele>345.0</ele><time>2026-04-19T16:22:28Z</time></trkpt><trkpt lat="43.96742266729887" lon="11.211592193352937"><ele>345.0</ele><time>2026-04-19T16:22:29Z</time></trkpt><trkpt lat="43.96767426692999" lon="11.211588059239173"><ele>344.5</ele><time>2026-04-19T16:22:30Z</time></trkpt><trkpt lat="43.967922433299094" lon="11.211584843619855"><ele>344.0</ele><time>2026-04-19T16:22:31Z</time></trkpt><trkpt lat="43.9681670431784" lon="11.211582205061227"><ele>343.5</ele><time>2026-04-19T16:22:32Z</time></trkpt><trkpt lat="43.968407003604625" lon="11.211575886071733"><ele>343.0</ele><time>2026-04-19T16:22:33Z</time></trkpt><trkpt lat="43.96864469793361" lon="11.211572878180649"><ele>343.0</ele><time>2026-04-19T16:22:34Z</time></trkpt><trkpt lat="43.96888336419699" lon="11.211570296967588"><ele>343.0</ele><time>2026-04-19T16:22:35Z</time></trkpt><trkpt lat="43.96912250783376" lon="11.211568187020559"><ele>343.5</ele><time>2026-04-19T16:22:36Z</time></trkpt><trkpt lat="43.96936355436571" lon="11.211570000290376"><ele>344.0</ele><time>2026-04-19T16:22:37Z</time></trkpt><trkpt lat="43.96960625691116" lon="11.211570666779243"><ele>344.0</ele><time>2026-04-19T16:22:38Z</time></trkpt><trkpt lat="43.9698488295639" lon="11.21157487091918"><ele>344.0</ele><time>2026-04-19T16:22:39Z</time></trkpt><trkpt lat="43.970092713059465" lon="11.211576160511532"><ele>342.5</ele><time>2026-04-19T16:22:40Z</time></trkpt><trkpt lat="43.970336610291284" lon="11.211578550402972"><ele>341.0</ele><time>2026-04-19T16:22:41Z</time></trkpt><trkpt lat="43.97057789150643" lon="11.211578657025209"><ele>341.0</ele><time>2026-04-19T16:22:42Z</time></trkpt><trkpt lat="43.970817680736126" lon="11.211577534949615"><ele>341.0</ele><time>2026-04-19T16:22:43Z</time></trkpt><trkpt lat="43.971054210344654" lon="11.211573750722568"><ele>339.0</ele><time>2026-04-19T16:22:44Z</time></trkpt><trkpt lat="43.97128888483001" lon="11.211568856621769"><ele>337.0</ele><time>2026-04-19T16:22:45Z</time></trkpt><trkpt lat="43.971522720923765" lon="11.211563275719183"><ele>333.0</ele><time>2026-04-19T16:22:46Z</time></trkpt><trkpt lat="43.971752983778934" lon="11.211557820487569"><ele>329.0</ele><time>2026-04-19T16:22:47Z</time></trkpt><trkpt lat="43.971981928863705" lon="11.211553595424785"><ele>329.0</ele><time>2026-04-19T16:22:48Z</time></trkpt><trkpt lat="43.97220992130266" lon="11.211549259674538"><ele>329.0</ele><time>2026-04-19T16:22:49.001Z</time></trkpt><trkpt lat="43.97243675791665" lon="11.211543940747475"><ele>323.5</ele><time>2026-04-19T16:22:50.001Z</time></trkpt><trkpt lat="43.972670838874215" lon="11.211534868805272"><ele>318.0</ele><time>2026-04-19T16:22:51.001Z</time></trkpt><trkpt lat="43.97291227757727" lon="11.211526372090255"><ele>318.0</ele><time>2026-04-19T16:22:52.001Z</time></trkpt><trkpt lat="43.973159542472516" lon="11.211522794721635"><ele>318.0</ele><time>2026-04-19T16:22:53.001Z</time></trkpt><trkpt lat="43.973411794727575" lon="11.211514756453363"><ele>316.0</ele><time>2026-04-19T16:22:54.001Z</time></trkpt><trkpt lat="43.97366727932814" lon="11.211506160987676"><ele>314.0</ele><time>2026-04-19T16:22:55.001Z</time></trkpt><trkpt lat="43.97392577374482" lon="11.211495750375622"><ele>309.5</ele><time>2026-04-19T16:22:56.001Z</time></trkpt><trkpt lat="43.9741861205095" lon="11.211486165965894"><ele>305.0</ele><time>2026-04-19T16:22:57.001Z</time></trkpt><trkpt lat="43.97444594149669" lon="11.211475181430998"><ele>305.0</ele><time>2026-04-19T16:22:58.001Z</time></trkpt><trkpt lat="43.974707720971665" lon="11.211461013829942"><ele>305.0</ele><time>2026-04-19T16:22:59.001Z</time></trkpt><trkpt lat="43.974969161835055" lon="11.21144454055707"><ele>297.5</ele><time>2026-04-19T16:23:00.001Z</time></trkpt><trkpt lat="43.975229475185266" lon="11.211433209057533"><ele>290.0</ele><time>2026-04-19T16:23:01.001Z</time></trkpt><trkpt lat="43.97548765559928" lon="11.211425740611551"><ele>290.0</ele><time>2026-04-19T16:23:02.001Z</time></trkpt><trkpt lat="43.975741463048514" lon="11.21142341682847"><ele>290.0</ele><time>2026-04-19T16:23:03.001Z</time></trkpt><trkpt lat="43.97599307537813" lon="11.211421765756139"><ele>300.0</ele><time>2026-04-19T16:23:04.001Z</time></trkpt><trkpt lat="43.97624374798899" lon="11.211421333653332"><ele>310.0</ele><time>2026-04-19T16:23:05.001Z</time></trkpt><trkpt lat="43.976494676059474" lon="11.21141793293197"><ele>315.5</ele><time>2026-04-19T16:23:06.001Z</time></trkpt><trkpt lat="43.97674355686989" lon="11.211415755798173"><ele>321.0</ele><time>2026-04-19T16:23:07.001Z</time></trkpt><trkpt lat="43.97699226022369" lon="11.21141420388061"><ele>321.0</ele><time>2026-04-19T16:23:08.001Z</time></trkpt><trkpt lat="43.97724162079761" lon="11.211411063811715"><ele>321.0</ele><time>2026-04-19T16:23:09.001Z</time></trkpt><trkpt lat="43.97749226152021" lon="11.211407069646532"><ele>319.0</ele><time>2026-04-19T16:23:10.001Z</time></trkpt><trkpt lat="43.97774452404144" lon="11.211402270190804"><ele>317.0</ele><time>2026-04-19T16:23:11.001Z</time></trkpt><trkpt lat="43.97799705846302" lon="11.211399472060853"><ele>317.0</ele><time>2026-04-19T16:23:12.001Z</time></trkpt><trkpt lat="43.97824879907182" lon="11.211398473341271"><ele>317.0</ele><time>2026-04-19T16:23:13.001Z</time></trkpt><trkpt lat="43.97849637723199" lon="11.211398728565149"><ele>315.5</ele><time>2026-04-19T16:23:14.001Z</time></trkpt><trkpt lat="43.978741521438074" lon="11.211399358188237"><ele>314.0</ele><time>2026-04-19T16:23:15.001Z</time></trkpt><trkpt lat="43.9789848095914" lon="11.211398366322419"><ele>313.5</ele><time>2026-04-19T16:23:16.001Z</time></trkpt><trkpt lat="43.979225345349136" lon="11.211396353880982"><ele>313.0</ele><time>2026-04-19T16:23:17.001Z</time></trkpt><trkpt lat="43.97946320354191" lon="11.211396277521317"><ele>313.0</ele><time>2026-04-19T16:23:18.001Z</time></trkpt><trkpt lat="43.97970417435345" lon="11.211394885381797"><ele>313.0</ele><time>2026-04-19T16:23:19.001Z</time></trkpt><trkpt lat="43.97994678210995" lon="11.211390250181397"><ele>307.0</ele><time>2026-04-19T16:23:20.001Z</time></trkpt><trkpt lat="43.98019181973633" lon="11.211386852736739"><ele>301.0</ele><time>2026-04-19T16:23:21.001Z</time></trkpt><trkpt lat="43.98043911643832" lon="11.211381443185616"><ele>301.0</ele><time>2026-04-19T16:23:22.001Z</time></trkpt><trkpt lat="43.98068861971109" lon="11.211376266517503"><ele>301.0</ele><time>2026-04-19T16:23:23.001Z</time></trkpt><trkpt lat="43.980939729449666" lon="11.211372866167993"><ele>293.5</ele><time>2026-04-19T16:23:24.001Z</time></trkpt><trkpt lat="43.98119120778137" lon="11.211369847098853"><ele>286.0</ele><time>2026-04-19T16:23:25.001Z</time></trkpt><trkpt lat="43.98144264200937" lon="11.211369734719806"><ele>289.5</ele><time>2026-04-19T16:23:26.001Z</time></trkpt><trkpt lat="43.98169551648967" lon="11.211366809011022"><ele>293.0</ele><time>2026-04-19T16:23:27.001Z</time></trkpt><trkpt lat="43.98194995780883" lon="11.211359984947403"><ele>293.0</ele><time>2026-04-19T16:23:28.001Z</time></trkpt><trkpt lat="43.98220212126149" lon="11.21135251669461"><ele>293.0</ele><time>2026-04-19T16:23:29.001Z</time></trkpt><trkpt lat="43.98245678056021" lon="11.21134781714989"><ele>293.0</ele><time>2026-04-19T16:23:30.001Z</time></trkpt><trkpt lat="43.98270702049513" lon="11.211341304312716"><ele>293.0</ele><time>2026-04-19T16:23:31.001Z</time></trkpt><trkpt lat="43.982953660401584" lon="11.211336044949388"><ele>293.0</ele><time>2026-04-19T16:23:32.001Z</time></trkpt><trkpt lat="43.98319853662412" lon="11.211330486874004"><ele>293.0</ele><time>2026-04-19T16:23:33.001Z</time></trkpt><trkpt lat="43.983440661784655" lon="11.211325210478854"><ele>291.5</ele><time>2026-04-19T16:23:34.001Z</time></trkpt><trkpt lat="43.983680726886334" lon="11.21132131205444"><ele>290.0</ele><time>2026-04-19T16:23:35.001Z</time></trkpt><trkpt lat="43.98391635698701" lon="11.211315285813544"><ele>290.0</ele><time>2026-04-19T16:23:36.001Z</time></trkpt><trkpt lat="43.98414894785799" lon="11.211313046623623"><ele>290.0</ele><time>2026-04-19T16:23:37.001Z</time></trkpt><trkpt lat="43.98437963910803" lon="11.211310737819591"><ele>288.0</ele><time>2026-04-19T16:23:38.001Z</time></trkpt><trkpt lat="43.98461054853941" lon="11.211306865356294"><ele>286.0</ele><time>2026-04-19T16:23:39.001Z</time></trkpt><trkpt lat="43.98483988217914" lon="11.21130632821482"><ele>284.5</ele><time>2026-04-19T16:23:40.001Z</time></trkpt><trkpt lat="43.98506885340261" lon="11.21130696403005"><ele>283.0</ele><time>2026-04-19T16:23:41.001Z</time></trkpt><trkpt lat="43.985297753966066" lon="11.211312015222228"><ele>283.0</ele><time>2026-04-19T16:23:42.001Z</time></trkpt><trkpt lat="43.98552744054499" lon="11.211326058190389"><ele>283.0</ele><time>2026-04-19T16:23:43Z</time></trkpt><trkpt lat="43.98575682729728" lon="11.211350613435807"><ele>281.0</ele><time>2026-04-19T16:23:44Z</time></trkpt><trkpt lat="43.98598559924235" lon="11.211385715956045"><ele>279.0</ele><time>2026-04-19T16:23:45Z</time></trkpt><trkpt lat="43.98621362203161" lon="11.211435836089116"><ele>278.5</ele><time>2026-04-19T16:23:46Z</time></trkpt><trkpt lat="43.98644387531437" lon="11.211497459454613"><ele>278.0</ele><time>2026-04-19T16:23:47Z</time></trkpt><trkpt lat="43.986674595505235" lon="11.211578403693062"><ele>278.0</ele><time>2026-04-19T16:23:48Z</time></trkpt><trkpt lat="43.98690347943896" lon="11.211678887182277"><ele>278.0</ele><time>2026-04-19T16:23:49Z</time></trkpt><trkpt lat="43.98713025085755" lon="11.211796333110698"><ele>278.0</ele><time>2026-04-19T16:23:50Z</time></trkpt><trkpt lat="43.987354390365354" lon="11.211924698076846"><ele>278.0</ele><time>2026-04-19T16:23:51Z</time></trkpt><trkpt lat="43.98757469657407" lon="11.2120664194988"><ele>278.0</ele><time>2026-04-19T16:23:52Z</time></trkpt><trkpt lat="43.98779033221356" lon="11.212221129805124"><ele>278.0</ele><time>2026-04-19T16:23:53Z</time></trkpt><trkpt lat="43.98799791443026" lon="11.212388136731828"><ele>280.0</ele><time>2026-04-19T16:23:54Z</time></trkpt><trkpt lat="43.988202553434114" lon="11.212593772415607"><ele>282.0</ele><time>2026-04-19T16:23:55Z</time></trkpt><trkpt lat="43.98839508964956" lon="11.21276253175695"><ele>286.0</ele><time>2026-04-19T16:23:56Z</time></trkpt><trkpt lat="43.98858344791905" lon="11.212931619995329"><ele>290.0</ele><time>2026-04-19T16:23:57Z</time></trkpt><trkpt lat="43.98875660257465" lon="11.213146081415744"><ele>291.33333333333337</ele><time>2026-04-19T16:23:58Z</time></trkpt><trkpt lat="43.98892537915956" lon="11.21335358900992"><ele>292.6666666666667</ele><time>2026-04-19T16:23:59Z</time></trkpt><trkpt lat="43.98907358750575" lon="11.213577262346236"><ele>294.0</ele><time>2026-04-19T16:24:00Z</time></trkpt><trkpt lat="43.98921879408293" lon="11.213795586715714"><ele>295.6666666666667</ele><time>2026-04-19T16:24:01Z</time></trkpt><trkpt lat="43.989357781326056" lon="11.214018617046474"><ele>297.33333333333337</ele><time>2026-04-19T16:24:02Z</time></trkpt><trkpt lat="43.98948889200276" lon="11.214247935949262"><ele>299.0</ele><time>2026-04-19T16:24:03Z</time></trkpt><trkpt lat="43.98961258078159" lon="11.214479262603463"><ele>299.0</ele><time>2026-04-19T16:24:04Z</time></trkpt><trkpt lat="43.98973421413439" lon="11.214708308722171"><ele>299.0</ele><time>2026-04-19T16:24:05Z</time></trkpt><trkpt lat="43.989853639893894" lon="11.214933123606897"><ele>299.0</ele><time>2026-04-19T16:24:06Z</time></trkpt><trkpt lat="43.98996972643896" lon="11.21515456631356"><ele>300.0</ele><time>2026-04-19T16:24:07Z</time></trkpt><trkpt lat="43.990088957893754" lon="11.215373642874626"><ele>301.0</ele><time>2026-04-19T16:24:08Z</time></trkpt><trkpt lat="43.990205310722764" lon="11.215593873299877"><ele>302.0</ele><time>2026-04-19T16:24:09Z</time></trkpt><trkpt lat="43.990323737121095" lon="11.215814242791172"><ele>302.0</ele><time>2026-04-19T16:24:10Z</time></trkpt><trkpt lat="43.990440935034734" lon="11.216037000897451"><ele>302.0</ele><time>2026-04-19T16:24:11Z</time></trkpt><trkpt lat="43.990558814234" lon="11.216260183708535"><ele>302.0</ele><time>2026-04-19T16:24:12Z</time></trkpt><trkpt lat="43.99067939576612" lon="11.216480941432636"><ele>302.33333333333337</ele><time>2026-04-19T16:24:13Z</time></trkpt><trkpt lat="43.99079942750596" lon="11.216701906638484"><ele>302.6666666666667</ele><time>2026-04-19T16:24:14Z</time></trkpt><trkpt lat="43.990919708268606" lon="11.216922763953265"><ele>303.0</ele><time>2026-04-19T16:24:15Z</time></trkpt><trkpt lat="43.991038921646435" lon="11.217143929350133"><ele>307.6666666666667</ele><time>2026-04-19T16:24:16Z</time></trkpt><trkpt lat="43.99115685549452" lon="11.217366144281442"><ele>312.33333333333337</ele><time>2026-04-19T16:24:17Z</time></trkpt><trkpt lat="43.991274315770966" lon="11.21758803790485"><ele>317.0</ele><time>2026-04-19T16:24:18Z</time></trkpt><trkpt lat="43.99139355687095" lon="11.217809458848215"><ele>317.0</ele><time>2026-04-19T16:24:19Z</time></trkpt><trkpt lat="43.99151076876706" lon="11.21803576729068"><ele>317.0</ele><time>2026-04-19T16:24:20Z</time></trkpt><trkpt lat="43.991629568057554" lon="11.2182585601167"><ele>317.0</ele><time>2026-04-19T16:24:21Z</time></trkpt><trkpt lat="43.991749523232755" lon="11.218484535294287"><ele>318.33333333333337</ele><time>2026-04-19T16:24:22Z</time></trkpt><trkpt lat="43.99186960153909" lon="11.218709992621848"><ele>319.6666666666667</ele><time>2026-04-19T16:24:23Z</time></trkpt><trkpt lat="43.991990670181806" lon="11.218935293571201"><ele>321.0</ele><time>2026-04-19T16:24:24Z</time></trkpt><trkpt lat="43.99211030707122" lon="11.219159627117213"><ele>321.0</ele><time>2026-04-19T16:24:25Z</time></trkpt><trkpt lat="43.99223040424548" lon="11.219381471177037"><ele>321.0</ele><time>2026-04-19T16:24:26Z</time></trkpt><trkpt lat="43.99235172126516" lon="11.219600006102958"><ele>321.0</ele><time>2026-04-19T16:24:27Z</time></trkpt><trkpt lat="43.99247451815118" lon="11.219810277737938"><ele>320.3333333333333</ele><time>2026-04-19T16:24:28Z</time></trkpt><trkpt lat="43.992604926342686" lon="11.22000770706114"><ele>319.66666666666663</ele><time>2026-04-19T16:24:29Z</time></trkpt><trkpt lat="43.99274641697838" lon="11.22019770324893"><ele>319.0</ele><time>2026-04-19T16:24:30Z</time></trkpt><trkpt lat="43.99290441239681" lon="11.220369011258942"><ele>319.0</ele><time>2026-04-19T16:24:31Z</time></trkpt><trkpt lat="43.99307427050719" lon="11.220514254450237"><ele>319.0</ele><time>2026-04-19T16:24:32Z</time></trkpt><trkpt lat="43.99324468216936" lon="11.220675124842915"><ele>319.0</ele><time>2026-04-19T16:24:33Z</time></trkpt><trkpt lat="43.99342658267899" lon="11.22081003112553"><ele>319.0</ele><time>2026-04-19T16:24:34Z</time></trkpt><trkpt lat="43.993615873338456" lon="11.22092729497783"><ele>319.0</ele><time>2026-04-19T16:24:35Z</time></trkpt><trkpt lat="43.993811891098616" lon="11.221018515914146"><ele>319.0</ele><time>2026-04-19T16:24:36Z</time></trkpt><trkpt lat="43.99401996024626" lon="11.221088590339262"><ele>319.3333333333333</ele><time>2026-04-19T16:24:37Z</time></trkpt><trkpt lat="43.99423041996375" lon="11.221136223886127"><ele>319.6666666666667</ele><time>2026-04-19T16:24:38Z</time></trkpt><trkpt lat="43.99443991701027" lon="11.221164863928514"><ele>320.0</ele><time>2026-04-19T16:24:39Z</time></trkpt><trkpt lat="43.99465276447579" lon="11.221168053880128"><ele>320.0</ele><time>2026-04-19T16:24:40Z</time></trkpt><trkpt lat="43.9948674697463" lon="11.221149883148776"><ele>320.0</ele><time>2026-04-19T16:24:41Z</time></trkpt><trkpt lat="43.99507943601391" lon="11.221106434290142"><ele>320.0</ele><time>2026-04-19T16:24:42Z</time></trkpt><trkpt lat="43.995289934231614" lon="11.22103713148138"><ele>318.6666666666667</ele><time>2026-04-19T16:24:43Z</time></trkpt><trkpt lat="43.99549681679644" lon="11.220947006152999"><ele>317.3333333333333</ele><time>2026-04-19T16:24:44Z</time></trkpt><trkpt lat="43.99570048865055" lon="11.220844218456833"><ele>316.0</ele><time>2026-04-19T16:24:45Z</time></trkpt><trkpt lat="43.9959060022773" lon="11.220744329157242"><ele>319.66666666666663</ele><time>2026-04-19T16:24:46Z</time></trkpt><trkpt lat="43.99611377444156" lon="11.220643891511697"><ele>323.3333333333333</ele><time>2026-04-19T16:24:47Z</time></trkpt><trkpt lat="43.99632279938723" lon="11.22054206791797"><ele>327.0</ele><time>2026-04-19T16:24:48Z</time></trkpt><trkpt lat="43.99653369609613" lon="11.220440285232002"><ele>324.6666666666667</ele><time>2026-04-19T16:24:49Z</time></trkpt><trkpt lat="43.99674578247708" lon="11.220339404874963"><ele>322.33333333333337</ele><time>2026-04-19T16:24:50Z</time></trkpt><trkpt lat="43.996958320520285" lon="11.220236770153644"><ele>320.0</ele><time>2026-04-19T16:24:51Z</time></trkpt><trkpt lat="43.99717201138725" lon="11.220132968333875"><ele>320.0</ele><time>2026-04-19T16:24:52Z</time></trkpt><trkpt lat="43.997386752877304" lon="11.220030509860644"><ele>320.0</ele><time>2026-04-19T16:24:53Z</time></trkpt><trkpt lat="43.9976027221435" lon="11.219930677649218"><ele>318.5</ele><time>2026-04-19T16:24:54Z</time></trkpt><trkpt lat="43.99781831095459" lon="11.219830015882502"><ele>317.0</ele><time>2026-04-19T16:24:55Z</time></trkpt><trkpt lat="43.99803477416935" lon="11.219724797847233"><ele>320.0</ele><time>2026-04-19T16:24:56Z</time></trkpt><trkpt lat="43.99825196919285" lon="11.219619882014568"><ele>323.0</ele><time>2026-04-19T16:24:57Z</time></trkpt><trkpt lat="43.99846763453617" lon="11.219515733810693"><ele>325.0</ele><time>2026-04-19T16:24:58Z</time></trkpt><trkpt lat="43.99868520819299" lon="11.21941254157649"><ele>327.0</ele><time>2026-04-19T16:24:59Z</time></trkpt><trkpt lat="43.99890213283626" lon="11.219311995954298"><ele>327.0</ele><time>2026-04-19T16:25:00Z</time></trkpt><trkpt lat="43.99911576181244" lon="11.21920954413926"><ele>327.0</ele><time>2026-04-19T16:25:01Z</time></trkpt><trkpt lat="43.999330551838405" lon="11.21911019131517"><ele>329.0</ele><time>2026-04-19T16:25:02Z</time></trkpt><trkpt lat="43.9995441328658" lon="11.219009639562435"><ele>331.0</ele><time>2026-04-19T16:25:03.001Z</time></trkpt><trkpt lat="43.999758145641145" lon="11.218909073127831"><ele>331.0</ele><time>2026-04-19T16:25:04.001Z</time></trkpt><trkpt lat="43.99997280482291" lon="11.218812542834304"><ele>331.0</ele><time>2026-04-19T16:25:05.001Z</time></trkpt><trkpt lat="44.00018919029094" lon="11.218725626912041"><ele>331.0</ele><time>2026-04-19T16:25:06.001Z</time></trkpt><trkpt lat="44.000407411315614" lon="11.2186503664355"><ele>331.0</ele><time>2026-04-19T16:25:07.001Z</time></trkpt><trkpt lat="44.00062809106711" lon="11.218592304207506"><ele>331.0</ele><time>2026-04-19T16:25:08.001Z</time></trkpt><trkpt lat="44.00085162251083" lon="11.218551757686114"><ele>333.3333333333333</ele><time>2026-04-19T16:25:09.001Z</time></trkpt><trkpt lat="44.0010731942792" lon="11.218527262724017"><ele>335.6666666666667</ele><time>2026-04-19T16:25:10.001Z</time></trkpt><trkpt lat="44.001296233416106" lon="11.218518001257939"><ele>338.0</ele><time>2026-04-19T16:25:11.001Z</time></trkpt><trkpt lat="44.00151868980795" lon="11.218526520350201"><ele>340.33333333333337</ele><time>2026-04-19T16:25:12.001Z</time></trkpt><trkpt lat="44.00173991900094" lon="11.218548795371184"><ele>342.6666666666667</ele><time>2026-04-19T16:25:13.001Z</time></trkpt><trkpt lat="44.00195957047048" lon="11.218588988219402"><ele>345.0</ele><time>2026-04-19T16:25:14.001Z</time></trkpt><trkpt lat="44.00217749950976" lon="11.218641277060751"><ele>345.0</ele><time>2026-04-19T16:25:15.001Z</time></trkpt><trkpt lat="44.00239295664459" lon="11.21870969537554"><ele>345.0</ele><time>2026-04-19T16:25:16.001Z</time></trkpt><trkpt lat="44.00260739124254" lon="11.218794089820413"><ele>345.0</ele><time>2026-04-19T16:25:17.001Z</time></trkpt><trkpt lat="44.00281707383807" lon="11.218889937747266"><ele>340.0</ele><time>2026-04-19T16:25:18.001Z</time></trkpt><trkpt lat="44.00302710881629" lon="11.218992831727613"><ele>335.0</ele><time>2026-04-19T16:25:19.001Z</time></trkpt><trkpt lat="44.00323710267219" lon="11.219093028096914"><ele>330.0</ele><time>2026-04-19T16:25:20.001Z</time></trkpt><trkpt lat="44.003448721084226" lon="11.219190124098917"><ele>330.0</ele><time>2026-04-19T16:25:21.001Z</time></trkpt><trkpt lat="44.00366111085487" lon="11.219283557992746"><ele>330.0</ele><time>2026-04-19T16:25:22.001Z</time></trkpt><trkpt lat="44.00387499877257" lon="11.219374248799097"><ele>330.0</ele><time>2026-04-19T16:25:23.001Z</time></trkpt><trkpt lat="44.00408978340196" lon="11.219455426288091"><ele>334.3333333333333</ele><time>2026-04-19T16:25:24.001Z</time></trkpt><trkpt lat="44.004305197879745" lon="11.219516191609886"><ele>338.66666666666663</ele><time>2026-04-19T16:25:25.001Z</time></trkpt><trkpt lat="44.00451577875016" lon="11.219562792693663"><ele>343.0</ele><time>2026-04-19T16:25:26.001Z</time></trkpt><trkpt lat="44.004724632404105" lon="11.21958599771434"><ele>343.0</ele><time>2026-04-19T16:25:27.001Z</time></trkpt><trkpt lat="44.004936435851306" lon="11.219595165482358"><ele>343.0</ele><time>2026-04-19T16:25:28.001Z</time></trkpt><trkpt lat="44.005146239096995" lon="11.219592875606287"><ele>343.0</ele><time>2026-04-19T16:25:29.001Z</time></trkpt><trkpt lat="44.0053581347824" lon="11.219572111652232"><ele>342.66666666666663</ele><time>2026-04-19T16:25:30.001Z</time></trkpt><trkpt lat="44.00557030525587" lon="11.219535631361548"><ele>342.3333333333333</ele><time>2026-04-19T16:25:31.001Z</time></trkpt><trkpt lat="44.0057807832974" lon="11.219483697079388"><ele>342.0</ele><time>2026-04-19T16:25:32.001Z</time></trkpt><trkpt lat="44.005991877403076" lon="11.219409219039639"><ele>342.0</ele><time>2026-04-19T16:25:33.001Z</time></trkpt><trkpt lat="44.00619755619789" lon="11.219321403730216"><ele>342.0</ele><time>2026-04-19T16:25:34.001Z</time></trkpt><trkpt lat="44.006393182177796" lon="11.219217782070379"><ele>342.0</ele><time>2026-04-19T16:25:35.001Z</time></trkpt><trkpt lat="44.00657714070064" lon="11.219114329606674"><ele>342.0</ele><time>2026-04-19T16:25:36.001Z</time></trkpt><trkpt lat="44.00676698632408" lon="11.219018702948565"><ele>342.0</ele><time>2026-04-19T16:25:37.001Z</time></trkpt><trkpt lat="44.00695921315364" lon="11.218920525417408"><ele>342.0</ele><time>2026-04-19T16:25:38.001Z</time></trkpt><trkpt lat="44.00715503959851" lon="11.21882638764612"><ele>344.3333333333333</ele><time>2026-04-19T16:25:39.001Z</time></trkpt><trkpt lat="44.00735508139052" lon="11.218739621149417"><ele>346.66666666666663</ele><time>2026-04-19T16:25:40.001Z</time></trkpt><trkpt lat="44.00756104639111" lon="11.218681022607026"><ele>349.0</ele><time>2026-04-19T16:25:41.001Z</time></trkpt><trkpt lat="44.007771713474106" lon="11.218638965179537"><ele>349.0</ele><time>2026-04-19T16:25:42.001Z</time></trkpt><trkpt lat="44.007985407199456" lon="11.2186163802924"><ele>349.0</ele><time>2026-04-19T16:25:43.001Z</time></trkpt><trkpt lat="44.00820101892153" lon="11.218616940586717"><ele>349.0</ele><time>2026-04-19T16:25:44.001Z</time></trkpt><trkpt lat="44.0084165705379" lon="11.218642113761982"><ele>349.3333333333333</ele><time>2026-04-19T16:25:45.001Z</time></trkpt><trkpt lat="44.00862833953752" lon="11.218698975807651"><ele>349.6666666666667</ele><time>2026-04-19T16:25:46.001Z</time></trkpt><trkpt lat="44.008834354558445" lon="11.218771746080648"><ele>350.0</ele><time>2026-04-19T16:25:47.001Z</time></trkpt><trkpt lat="44.00903468548292" lon="11.218863236104474"><ele>352.6666666666667</ele><time>2026-04-19T16:25:48.001Z</time></trkpt><trkpt lat="44.00922745374912" lon="11.21897172822973"><ele>355.3333333333333</ele><time>2026-04-19T16:25:49Z</time></trkpt><trkpt lat="44.00941258737304" lon="11.219096983369036"><ele>358.0</ele><time>2026-04-19T16:25:50Z</time></trkpt><trkpt lat="44.009596114038615" lon="11.219220838601316"><ele>350.3333333333333</ele><time>2026-04-19T16:25:51Z</time></trkpt><trkpt lat="44.00978147727897" lon="11.21934465977695"><ele>342.6666666666667</ele><time>2026-04-19T16:25:52Z</time></trkpt><trkpt lat="44.009969088190374" lon="11.219469635517878"><ele>335.0</ele><time>2026-04-19T16:25:53Z</time></trkpt><trkpt lat="44.01015803704324" lon="11.219594842401689"><ele>331.0</ele><time>2026-04-19T16:25:54Z</time></trkpt><trkpt lat="44.01034831317542" lon="11.21972189764695"><ele>327.0</ele><time>2026-04-19T16:25:55Z</time></trkpt><trkpt lat="44.010539692696426" lon="11.219849046794023"><ele>323.0</ele><time>2026-04-19T16:25:56Z</time></trkpt><trkpt lat="44.01073165526911" lon="11.219977725338932"><ele>326.33333333333337</ele><time>2026-04-19T16:25:57Z</time></trkpt><trkpt lat="44.01092501071172" lon="11.220105908398116"><ele>329.6666666666667</ele><time>2026-04-19T16:25:58Z</time></trkpt><trkpt lat="44.011118972925324" lon="11.220234696461628"><ele>333.0</ele><time>2026-04-19T16:25:59Z</time></trkpt><trkpt lat="44.01131383357135" lon="11.220365926483828"><ele>333.0</ele><time>2026-04-19T16:26:00Z</time></trkpt><trkpt lat="44.011514032146046" lon="11.220492811650178"><ele>333.0</ele><time>2026-04-19T16:26:01Z</time></trkpt><trkpt lat="44.011709003050655" lon="11.220622285826973"><ele>333.0</ele><time>2026-04-19T16:26:02Z</time></trkpt><trkpt lat="44.01190012665732" lon="11.220751342185432"><ele>344.3333333333333</ele><time>2026-04-19T16:26:03Z</time></trkpt><trkpt lat="44.012093546304364" lon="11.220876988343607"><ele>355.66666666666663</ele><time>2026-04-19T16:26:04Z</time></trkpt><trkpt lat="44.01228458446339" lon="11.221005137536464"><ele>367.0</ele><time>2026-04-19T16:26:05Z</time></trkpt><trkpt lat="44.01247721600784" lon="11.221141228656164"><ele>366.66666666666663</ele><time>2026-04-19T16:26:06Z</time></trkpt><trkpt lat="44.01267382375881" lon="11.221280274232948"><ele>366.3333333333333</ele><time>2026-04-19T16:26:07Z</time></trkpt><trkpt lat="44.012865929796476" lon="11.221413754787909"><ele>366.0</ele><time>2026-04-19T16:26:08Z</time></trkpt><trkpt lat="44.013064609943285" lon="11.221532038257267"><ele>366.0</ele><time>2026-04-19T16:26:09Z</time></trkpt><trkpt lat="44.01325906298878" lon="11.221662146911749"><ele>366.0</ele><time>2026-04-19T16:26:10Z</time></trkpt><trkpt lat="44.01345483780731" lon="11.221790574767706"><ele>366.0</ele><time>2026-04-19T16:26:11Z</time></trkpt><trkpt lat="44.01365003263826" lon="11.221919427041803"><ele>365.3333333333333</ele><time>2026-04-19T16:26:12Z</time></trkpt><trkpt lat="44.01384612030241" lon="11.222049005203552"><ele>364.66666666666663</ele><time>2026-04-19T16:26:13Z</time></trkpt><trkpt lat="44.01403999519069" lon="11.222182188634322"><ele>364.0</ele><time>2026-04-19T16:26:14Z</time></trkpt><trkpt lat="44.014234464718896" lon="11.222312168798458"><ele>362.66666666666663</ele><time>2026-04-19T16:26:15Z</time></trkpt><trkpt lat="44.01443033343611" lon="11.222439677070053"><ele>361.3333333333333</ele><time>2026-04-19T16:26:16Z</time></trkpt><trkpt lat="44.014624533424225" lon="11.222570863063096"><ele>360.0</ele><time>2026-04-19T16:26:17Z</time></trkpt><trkpt lat="44.014818808564854" lon="11.222699928048382"><ele>356.6666666666667</ele><time>2026-04-19T16:26:18Z</time></trkpt><trkpt lat="44.015012320705516" lon="11.222829209771769"><ele>353.33333333333337</ele><time>2026-04-19T16:26:19Z</time></trkpt><trkpt lat="44.01520516113137" lon="11.222959223004095"><ele>350.0</ele><time>2026-04-19T16:26:20Z</time></trkpt><trkpt lat="44.01539941883792" lon="11.223085240223766"><ele>348.6666666666667</ele><time>2026-04-19T16:26:21Z</time></trkpt><trkpt lat="44.01559276438509" lon="11.22321193403194"><ele>347.3333333333333</ele><time>2026-04-19T16:26:22Z</time></trkpt><trkpt lat="44.01578385136565" lon="11.223335643843729"><ele>346.0</ele><time>2026-04-19T16:26:23Z</time></trkpt><trkpt lat="44.015975087062294" lon="11.223454009838877"><ele>352.3333333333333</ele><time>2026-04-19T16:26:24Z</time></trkpt><trkpt lat="44.01616370025242" lon="11.22357548074359"><ele>358.6666666666667</ele><time>2026-04-19T16:26:25Z</time></trkpt><trkpt lat="44.01635226321606" lon="11.223697216900462"><ele>365.0</ele><time>2026-04-19T16:26:26Z</time></trkpt><trkpt lat="44.01653852773588" lon="11.22382063813421"><ele>366.6666666666667</ele><time>2026-04-19T16:26:27Z</time></trkpt><trkpt lat="44.01672345925434" lon="11.223947402835641"><ele>368.3333333333333</ele><time>2026-04-19T16:26:28Z</time></trkpt><trkpt lat="44.0169074479018" lon="11.224069786889217"><ele>370.0</ele><time>2026-04-19T16:26:29Z</time></trkpt><trkpt lat="44.01709249619027" lon="11.22418386979569"><ele>370.0</ele><time>2026-04-19T16:26:30Z</time></trkpt><trkpt lat="44.0172803929921" lon="11.224285837262812"><ele>370.0</ele><time>2026-04-19T16:26:31Z</time></trkpt><trkpt lat="44.01746964149619" lon="11.224372273892241"><ele>370.0</ele><time>2026-04-19T16:26:32Z</time></trkpt><trkpt lat="44.0176626608289" lon="11.224444955842705"><ele>371.3333333333333</ele><time>2026-04-19T16:26:33Z</time></trkpt><trkpt lat="44.017858304134506" lon="11.224501092347099"><ele>372.6666666666667</ele><time>2026-04-19T16:26:34Z</time></trkpt><trkpt lat="44.018057120315966" lon="11.224542049197686"><ele>374.0</ele><time>2026-04-19T16:26:35Z</time></trkpt><trkpt lat="44.01825722720321" lon="11.2245714471288"><ele>374.0</ele><time>2026-04-19T16:26:36Z</time></trkpt><trkpt lat="44.01845766615025" lon="11.224585200757128"><ele>374.0</ele><time>2026-04-19T16:26:37Z</time></trkpt><trkpt lat="44.01865906020912" lon="11.224585106028531"><ele>374.0</ele><time>2026-04-19T16:26:38Z</time></trkpt><trkpt lat="44.018860653217175" lon="11.224568009262457"><ele>374.0</ele><time>2026-04-19T16:26:39Z</time></trkpt><trkpt lat="44.01906196360893" lon="11.22453515051769"><ele>374.0</ele><time>2026-04-19T16:26:40Z</time></trkpt><trkpt lat="44.01926376057494" lon="11.224487179770145"><ele>374.0</ele><time>2026-04-19T16:26:41Z</time></trkpt><trkpt lat="44.01946327582128" lon="11.224421476946233"><ele>374.6666666666667</ele><time>2026-04-19T16:26:42Z</time></trkpt><trkpt lat="44.01966103052266" lon="11.22434025714823"><ele>375.3333333333333</ele><time>2026-04-19T16:26:43Z</time></trkpt><trkpt lat="44.01985606285322" lon="11.224246305884487"><ele>376.0</ele><time>2026-04-19T16:26:44Z</time></trkpt><trkpt lat="44.02004910836355" lon="11.224142939091143"><ele>376.0</ele><time>2026-04-19T16:26:45Z</time></trkpt><trkpt lat="44.02024048937359" lon="11.224035395523817"><ele>376.0</ele><time>2026-04-19T16:26:46Z</time></trkpt><trkpt lat="44.02043157035136" lon="11.223925901244229"><ele>376.0</ele><time>2026-04-19T16:26:47Z</time></trkpt><trkpt lat="44.02062334379922" lon="11.223819960342116"><ele>379.66666666666663</ele><time>2026-04-19T16:26:48Z</time></trkpt><trkpt lat="44.02081156290813" lon="11.223712847849153"><ele>383.3333333333333</ele><time>2026-04-19T16:26:49Z</time></trkpt><trkpt lat="44.021002444212954" lon="11.2236080386646"><ele>387.0</ele><time>2026-04-19T16:26:50Z</time></trkpt><trkpt lat="44.021193697880705" lon="11.223504425324137"><ele>387.0</ele><time>2026-04-19T16:26:51Z</time></trkpt><trkpt lat="44.021384923332775" lon="11.22339912249974"><ele>387.0</ele><time>2026-04-19T16:26:52Z</time></trkpt><trkpt lat="44.021576970114104" lon="11.223295118137512"><ele>387.0</ele><time>2026-04-19T16:26:53Z</time></trkpt><trkpt lat="44.02176909900722" lon="11.223190622071614"><ele>392.33333333333337</ele><time>2026-04-19T16:26:54Z</time></trkpt><trkpt lat="44.02196081447661" lon="11.223086345924006"><ele>397.6666666666667</ele><time>2026-04-19T16:26:55Z</time></trkpt><trkpt lat="44.02215332083413" lon="11.22298097578812"><ele>403.0</ele><time>2026-04-19T16:26:56Z</time></trkpt><trkpt lat="44.022344220756054" lon="11.222873049133453"><ele>397.6666666666667</ele><time>2026-04-19T16:26:57Z</time></trkpt><trkpt lat="44.02253582989053" lon="11.222763351497969"><ele>392.33333333333337</ele><time>2026-04-19T16:26:58Z</time></trkpt><trkpt lat="44.02272763889175" lon="11.222656134995786"><ele>387.0</ele><time>2026-04-19T16:26:59Z</time></trkpt><trkpt lat="44.02291951081829" lon="11.222548909906708"><ele>387.0</ele><time>2026-04-19T16:27:00Z</time></trkpt><trkpt lat="44.02311078497277" lon="11.22244491384111"><ele>387.0</ele><time>2026-04-19T16:27:01Z</time></trkpt><trkpt lat="44.02330284399093" lon="11.222340871170047"><ele>387.0</ele><time>2026-04-19T16:27:02Z</time></trkpt><trkpt lat="44.02349437722668" lon="11.222239116235516"><ele>395.33333333333337</ele><time>2026-04-19T16:27:03Z</time></trkpt><trkpt lat="44.02368814298387" lon="11.222145361878336"><ele>403.6666666666667</ele><time>2026-04-19T16:27:04Z</time></trkpt><trkpt lat="44.023884871026056" lon="11.222067301673713"><ele>412.0</ele><time>2026-04-19T16:27:05Z</time></trkpt><trkpt lat="44.024085304488196" lon="11.222002084953248"><ele>409.33333333333337</ele><time>2026-04-19T16:27:06Z</time></trkpt><trkpt lat="44.02428823925545" lon="11.221953359366212"><ele>406.66666666666663</ele><time>2026-04-19T16:27:07Z</time></trkpt><trkpt lat="44.02448981795025" lon="11.221925836077782"><ele>404.0</ele><time>2026-04-19T16:27:08Z</time></trkpt><trkpt lat="44.0246936998802" lon="11.221917724421047"><ele>404.0</ele><time>2026-04-19T16:27:09Z</time></trkpt><trkpt lat="44.024896662786276" lon="11.221929856575908"><ele>404.0</ele><time>2026-04-19T16:27:10Z</time></trkpt><trkpt lat="44.025098405448745" lon="11.22196093842238"><ele>404.0</ele><time>2026-04-19T16:27:11Z</time></trkpt><trkpt lat="44.02529807318711" lon="11.222012107942424"><ele>403.0</ele><time>2026-04-19T16:27:12Z</time></trkpt><trkpt lat="44.0254951947635" lon="11.222080592776702"><ele>402.0</ele><time>2026-04-19T16:27:13Z</time></trkpt><trkpt lat="44.025688285122605" lon="11.22216599383661"><ele>401.0</ele><time>2026-04-19T16:27:14Z</time></trkpt><trkpt lat="44.025876944854176" lon="11.22226986794435"><ele>395.3333333333333</ele><time>2026-04-19T16:27:15Z</time></trkpt><trkpt lat="44.02605999167613" lon="11.22238786211793"><ele>389.66666666666663</ele><time>2026-04-19T16:27:16Z</time></trkpt><trkpt lat="44.0262378424169" lon="11.2225212365053"><ele>384.0</ele><time>2026-04-19T16:27:17Z</time></trkpt><trkpt lat="44.02640890809889" lon="11.22266899838331"><ele>384.0</ele><time>2026-04-19T16:27:18Z</time></trkpt><trkpt lat="44.02657486738309" lon="11.222829743799258"><ele>384.0</ele><time>2026-04-19T16:27:19Z</time></trkpt><trkpt lat="44.02673807944795" lon="11.222992831593523"><ele>384.0</ele><time>2026-04-19T16:27:20.001Z</time></trkpt><trkpt lat="44.02690325449097" lon="11.223156127192784"><ele>379.0</ele><time>2026-04-19T16:27:21.001Z</time></trkpt><trkpt lat="44.0270689177739" lon="11.223318112801126"><ele>374.0</ele><time>2026-04-19T16:27:22.001Z</time></trkpt><trkpt lat="44.02723537936076" lon="11.223480119719518"><ele>369.0</ele><time>2026-04-19T16:27:23.001Z</time></trkpt><trkpt lat="44.02740159229341" lon="11.223644660180915"><ele>364.3333333333333</ele><time>2026-04-19T16:27:24.001Z</time></trkpt><trkpt lat="44.02756898855546" lon="11.223809011205477"><ele>359.66666666666663</ele><time>2026-04-19T16:27:25.001Z</time></trkpt><trkpt lat="44.02773765533903" lon="11.223975293262365"><ele>355.0</ele><time>2026-04-19T16:27:26.001Z</time></trkpt><trkpt lat="44.02790709125826" lon="11.224143052452616"><ele>355.3333333333333</ele><time>2026-04-19T16:27:27.001Z</time></trkpt><trkpt lat="44.02807790729042" lon="11.224311619541925"><ele>355.6666666666667</ele><time>2026-04-19T16:27:28.001Z</time></trkpt><trkpt lat="44.028249311075285" lon="11.224482395301129"><ele>356.0</ele><time>2026-04-19T16:27:29.001Z</time></trkpt><trkpt lat="44.02842100816509" lon="11.22465263196712"><ele>365.33333333333337</ele><time>2026-04-19T16:27:30.001Z</time></trkpt><trkpt lat="44.028593315024935" lon="11.22482330414792"><ele>374.6666666666667</ele><time>2026-04-19T16:27:31.001Z</time></trkpt><trkpt lat="44.02876574109936" lon="11.224992531829784"><ele>384.0</ele><time>2026-04-19T16:27:32.001Z</time></trkpt><trkpt lat="44.02893953138494" lon="11.225156180120981"><ele>384.0</ele><time>2026-04-19T16:27:33.001Z</time></trkpt><trkpt lat="44.02911924371148" lon="11.225308080579353"><ele>384.0</ele><time>2026-04-19T16:27:34.001Z</time></trkpt><trkpt lat="44.02930409418866" lon="11.225446985879268"><ele>384.0</ele><time>2026-04-19T16:27:35.001Z</time></trkpt><trkpt lat="44.02949181150492" lon="11.225577133587356"><ele>392.66666666666663</ele><time>2026-04-19T16:27:36.001Z</time></trkpt><trkpt lat="44.029682753870695" lon="11.225698474217374"><ele>401.3333333333333</ele><time>2026-04-19T16:27:37.001Z</time></trkpt><trkpt lat="44.029874330854476" lon="11.225814452025599"><ele>410.0</ele><time>2026-04-19T16:27:38.001Z</time></trkpt><trkpt lat="44.03006977910979" lon="11.22591911946932"><ele>411.0</ele><time>2026-04-19T16:27:39.001Z</time></trkpt><trkpt lat="44.03026858314045" lon="11.226012061138315"><ele>412.0</ele><time>2026-04-19T16:27:40.001Z</time></trkpt><trkpt lat="44.030471383461304" lon="11.22609613044044"><ele>413.0</ele><time>2026-04-19T16:27:41.001Z</time></trkpt><trkpt lat="44.03067704451102" lon="11.226165037521012"><ele>414.66666666666663</ele><time>2026-04-19T16:27:42.001Z</time></trkpt><trkpt lat="44.03088561984652" lon="11.226220481013433"><ele>416.33333333333337</ele><time>2026-04-19T16:27:43.001Z</time></trkpt><trkpt lat="44.03109682922537" lon="11.226265954171513"><ele>418.0</ele><time>2026-04-19T16:27:44.001Z</time></trkpt><trkpt lat="44.03130926391861" lon="11.226299410052242"><ele>418.0</ele><time>2026-04-19T16:27:45.001Z</time></trkpt><trkpt lat="44.031521000352" lon="11.226323794049636"><ele>418.0</ele><time>2026-04-19T16:27:46.001Z</time></trkpt><trkpt lat="44.03173383085269" lon="11.226339473116075"><ele>418.0</ele><time>2026-04-19T16:27:47.001Z</time></trkpt><trkpt lat="44.031948031257286" lon="11.226348705976518"><ele>418.0</ele><time>2026-04-19T16:27:48.001Z</time></trkpt><trkpt lat="44.03216275057668" lon="11.226354658600258"><ele>418.0</ele><time>2026-04-19T16:27:49.001Z</time></trkpt><trkpt lat="44.03237770560551" lon="11.226361837914883"><ele>418.0</ele><time>2026-04-19T16:27:50.001Z</time></trkpt><trkpt lat="44.03259373978166" lon="11.226367730712022"><ele>418.0</ele><time>2026-04-19T16:27:51.001Z</time></trkpt><trkpt lat="44.03281049619886" lon="11.226374250934018"><ele>418.0</ele><time>2026-04-19T16:27:52.001Z</time></trkpt><trkpt lat="44.033030253580876" lon="11.226377830810897"><ele>418.0</ele><time>2026-04-19T16:27:53.001Z</time></trkpt><trkpt lat="44.03325132981468" lon="11.226382773565744"><ele>414.33333333333337</ele><time>2026-04-19T16:27:54.001Z</time></trkpt><trkpt lat="44.03347454331789" lon="11.226386177418963"><ele>410.66666666666663</ele><time>2026-04-19T16:27:55Z</time></trkpt><trkpt lat="44.03370078463391" lon="11.226392824251791"><ele>407.0</ele><time>2026-04-19T16:27:56Z</time></trkpt><trkpt lat="44.03392946333768" lon="11.226398090744736"><ele>407.5</ele><time>2026-04-19T16:27:57Z</time></trkpt><trkpt lat="44.034160774947935" lon="11.226407329684054"><ele>408.0</ele><time>2026-04-19T16:27:58Z</time></trkpt><trkpt lat="44.03439485201652" lon="11.226416950964886"><ele>408.0</ele><time>2026-04-19T16:27:59Z</time></trkpt><trkpt lat="44.03463143701132" lon="11.226427999249022"><ele>408.0</ele><time>2026-04-19T16:28:00Z</time></trkpt><trkpt lat="44.03486989794477" lon="11.226445298749223"><ele>408.0</ele><time>2026-04-19T16:28:01Z</time></trkpt><trkpt lat="44.0351085450317" lon="11.226471870577697"><ele>408.0</ele><time>2026-04-19T16:28:02Z</time></trkpt><trkpt lat="44.0353469122315" lon="11.226509974630277"><ele>403.5</ele><time>2026-04-19T16:28:03Z</time></trkpt><trkpt lat="44.035584481532524" lon="11.226559685434207"><ele>399.0</ele><time>2026-04-19T16:28:04Z</time></trkpt><trkpt lat="44.03582156970557" lon="11.226620778213753"><ele>395.0</ele><time>2026-04-19T16:28:05Z</time></trkpt><trkpt lat="44.03605819806536" lon="11.226695173062653"><ele>391.0</ele><time>2026-04-19T16:28:06Z</time></trkpt><trkpt lat="44.03629426488306" lon="11.226780724660214"><ele>391.0</ele><time>2026-04-19T16:28:07Z</time></trkpt><trkpt lat="44.03652974494614" lon="11.226876528175875"><ele>391.0</ele><time>2026-04-19T16:28:08Z</time></trkpt><trkpt lat="44.03676277529324" lon="11.226984237158467"><ele>390.0</ele><time>2026-04-19T16:28:09Z</time></trkpt><trkpt lat="44.03699222928179" lon="11.227101731603709"><ele>389.0</ele><time>2026-04-19T16:28:10Z</time></trkpt><trkpt lat="44.03721878453976" lon="11.227231657864778"><ele>390.5</ele><time>2026-04-19T16:28:11Z</time></trkpt><trkpt lat="44.03744108596622" lon="11.227371253989594"><ele>392.0</ele><time>2026-04-19T16:28:12Z</time></trkpt><trkpt lat="44.037659282227594" lon="11.227521961482278"><ele>392.0</ele><time>2026-04-19T16:28:13Z</time></trkpt><trkpt lat="44.03787409190551" lon="11.227680049881286"><ele>392.0</ele><time>2026-04-19T16:28:14Z</time></trkpt><trkpt lat="44.03808419871316" lon="11.227848364584416"><ele>392.0</ele><time>2026-04-19T16:28:15Z</time></trkpt><trkpt lat="44.038289805269756" lon="11.228025182838117"><ele>392.0</ele><time>2026-04-19T16:28:16Z</time></trkpt><trkpt lat="44.03848930233725" lon="11.228209670786798"><ele>407.5</ele><time>2026-04-19T16:28:17Z</time></trkpt><trkpt lat="44.038683437084366" lon="11.228399082809036"><ele>423.0</ele><time>2026-04-19T16:28:18Z</time></trkpt><trkpt lat="44.03886786459913" lon="11.228598084046885"><ele>423.0</ele><time>2026-04-19T16:28:19Z</time></trkpt><trkpt lat="44.03904608296514" lon="11.228802235674278"><ele>423.0</ele><time>2026-04-19T16:28:20Z</time></trkpt><trkpt lat="44.03921645354071" lon="11.229014805933806"><ele>436.33333333333337</ele><time>2026-04-19T16:28:21Z</time></trkpt><trkpt lat="44.03938092250622" lon="11.229230812037821"><ele>449.6666666666667</ele><time>2026-04-19T16:28:22Z</time></trkpt><trkpt lat="44.03953636600967" lon="11.229449434955683"><ele>463.0</ele><time>2026-04-19T16:28:23Z</time></trkpt><trkpt lat="44.039683477895935" lon="11.229669945639715"><ele>467.33333333333337</ele><time>2026-04-19T16:28:24Z</time></trkpt><trkpt lat="44.03982485919398" lon="11.229896107227102"><ele>471.66666666666663</ele><time>2026-04-19T16:28:25Z</time></trkpt><trkpt lat="44.03995980409633" lon="11.230130678794671"><ele>476.0</ele><time>2026-04-19T16:28:26Z</time></trkpt><trkpt lat="44.0400916422858" lon="11.230368074923188"><ele>483.66666666666663</ele><time>2026-04-19T16:28:27Z</time></trkpt><trkpt lat="44.04022110889351" lon="11.230608106096598"><ele>491.33333333333337</ele><time>2026-04-19T16:28:28Z</time></trkpt><trkpt lat="44.04034979407731" lon="11.230848382156429"><ele>499.0</ele><time>2026-04-19T16:28:29Z</time></trkpt><trkpt lat="44.04047621211134" lon="11.231091920501504"><ele>499.0</ele><time>2026-04-19T16:28:30Z</time></trkpt><trkpt lat="44.040592122640504" lon="11.231310727579043"><ele>499.0</ele><time>2026-04-19T16:28:31Z</time></trkpt><trkpt lat="44.04071766419302" lon="11.231556343456951"><ele>499.0</ele><time>2026-04-19T16:28:32Z</time></trkpt><trkpt lat="44.04084322612302" lon="11.231801563479468"><ele>494.0</ele><time>2026-04-19T16:28:33Z</time></trkpt><trkpt lat="44.040968577708114" lon="11.232048082886736"><ele>489.0</ele><time>2026-04-19T16:28:34Z</time></trkpt><trkpt lat="44.04109567986641" lon="11.232297586533935"><ele>484.0</ele><time>2026-04-19T16:28:35Z</time></trkpt><trkpt lat="44.04122164608428" lon="11.232549088898574"><ele>480.33333333333337</ele><time>2026-04-19T16:28:36Z</time></trkpt><trkpt lat="44.04134716383514" lon="11.232800828767159"><ele>476.66666666666663</ele><time>2026-04-19T16:28:37Z</time></trkpt><trkpt lat="44.04147468565898" lon="11.233055179372116"><ele>473.0</ele><time>2026-04-19T16:28:38Z</time></trkpt><trkpt lat="44.0416037730621" lon="11.233311302684621"><ele>463.5</ele><time>2026-04-19T16:28:39Z</time></trkpt><trkpt lat="44.04173319357044" lon="11.23356726086289"><ele>454.0</ele><time>2026-04-19T16:28:40Z</time></trkpt><trkpt lat="44.04186470383623" lon="11.23382248015833"><ele>449.0</ele><time>2026-04-19T16:28:41Z</time></trkpt><trkpt lat="44.04199897986135" lon="11.234077726242687"><ele>444.0</ele><time>2026-04-19T16:28:42Z</time></trkpt><trkpt lat="44.04213576490974" lon="11.234332285488456"><ele>444.0</ele><time>2026-04-19T16:28:43Z</time></trkpt><trkpt lat="44.04227782387246" lon="11.23458340250536"><ele>444.0</ele><time>2026-04-19T16:28:44Z</time></trkpt><trkpt lat="44.042426041292316" lon="11.234832600685653"><ele>440.5</ele><time>2026-04-19T16:28:45Z</time></trkpt><trkpt lat="44.04257923288353" lon="11.235077987397787"><ele>437.0</ele><time>2026-04-19T16:28:46Z</time></trkpt><trkpt lat="44.04283037563031" lon="11.235602777871128"><ele>432.5</ele><time>2026-04-19T16:28:47Z</time></trkpt><trkpt lat="44.04303047790398" lon="11.235867310622004"><ele>428.0</ele><time>2026-04-19T16:28:48Z</time></trkpt><trkpt lat="44.04320330681721" lon="11.236112869916537"><ele>419.0</ele><time>2026-04-19T16:28:49Z</time></trkpt><trkpt lat="44.04338968777674" lon="11.236350527807394"><ele>410.0</ele><time>2026-04-19T16:28:50Z</time></trkpt><trkpt lat="44.04357379686838" lon="11.23658167664613"><ele>398.0</ele><time>2026-04-19T16:28:51Z</time></trkpt><trkpt lat="44.04376401849896" lon="11.23681015857744"><ele>386.0</ele><time>2026-04-19T16:28:52Z</time></trkpt><trkpt lat="44.0439555581003" lon="11.23703335578096"><ele>387.0</ele><time>2026-04-19T16:28:53Z</time></trkpt><trkpt lat="44.04415073610081" lon="11.237252123939223"><ele>388.0</ele><time>2026-04-19T16:28:54Z</time></trkpt><trkpt lat="44.04435038551769" lon="11.237465007117107"><ele>392.5</ele><time>2026-04-19T16:28:55Z</time></trkpt><trkpt lat="44.04455373424523" lon="11.23766993021601"><ele>397.0</ele><time>2026-04-19T16:28:56Z</time></trkpt><trkpt lat="44.044762159413764" lon="11.237870825223512"><ele>408.5</ele><time>2026-04-19T16:28:57Z</time></trkpt><trkpt lat="44.04497264686184" lon="11.238064636529826"><ele>420.0</ele><time>2026-04-19T16:28:58Z</time></trkpt><trkpt lat="44.04518642254963" lon="11.238251953888625"><ele>424.0</ele><time>2026-04-19T16:28:59Z</time></trkpt><trkpt lat="44.04539679545003" lon="11.238427150793356"><ele>428.0</ele><time>2026-04-19T16:29:00Z</time></trkpt><trkpt lat="44.04560605991935" lon="11.238596520920174"><ele>435.0</ele><time>2026-04-19T16:29:01Z</time></trkpt><trkpt lat="44.04582069062423" lon="11.238756451133927"><ele>442.0</ele><time>2026-04-19T16:29:02Z</time></trkpt><trkpt lat="44.04603843740486" lon="11.23891115121248"><ele>445.0</ele><time>2026-04-19T16:29:03Z</time></trkpt><trkpt lat="44.04625858558611" lon="11.2390594509304"><ele>448.0</ele><time>2026-04-19T16:29:04Z</time></trkpt><trkpt lat="44.046480273736535" lon="11.239204884472862"><ele>452.5</ele><time>2026-04-19T16:29:05Z</time></trkpt><trkpt lat="44.04670372213641" lon="11.23934629892379"><ele>457.0</ele><time>2026-04-19T16:29:06Z</time></trkpt><trkpt lat="44.04692924459915" lon="11.23948540094691"><ele>457.0</ele><time>2026-04-19T16:29:07Z</time></trkpt><trkpt lat="44.04715339674124" lon="11.2396242927901"><ele>457.0</ele><time>2026-04-19T16:29:08Z</time></trkpt><trkpt lat="44.047381076343406" lon="11.239760102814136"><ele>466.5</ele><time>2026-04-19T16:29:09Z</time></trkpt><trkpt lat="44.04760735363788" lon="11.239898146394658"><ele>476.0</ele><time>2026-04-19T16:29:10Z</time></trkpt><trkpt lat="44.04783125682676" lon="11.240039516097442"><ele>476.0</ele><time>2026-04-19T16:29:11Z</time></trkpt><trkpt lat="44.04805604789441" lon="11.240178172255668"><ele>476.0</ele><time>2026-04-19T16:29:12Z</time></trkpt><trkpt lat="44.0482819735799" lon="11.240313602079674"><ele>476.0</ele><time>2026-04-19T16:29:13Z</time></trkpt><trkpt lat="44.048515351933716" lon="11.240456527590128"><ele>476.0</ele><time>2026-04-19T16:29:14.058Z</time></trkpt><trkpt lat="44.049863427954534" lon="11.241148569603151"><ele>456.5</ele><time>2026-04-19T16:29:20Z</time></trkpt><trkpt lat="44.05006389388272" lon="11.241261249870073"><ele>437.0</ele><time>2026-04-19T16:29:21Z</time></trkpt><trkpt lat="44.050284542903" lon="11.24137923382844"><ele>433.0</ele><time>2026-04-19T16:29:22Z</time></trkpt><trkpt lat="44.05050361724787" lon="11.241492168146475"><ele>429.0</ele><time>2026-04-19T16:29:23Z</time></trkpt><trkpt lat="44.05071971587858" lon="11.241600647102967"><ele>429.5</ele><time>2026-04-19T16:29:24Z</time></trkpt><trkpt lat="44.05093436297873" lon="11.241705506613139"><ele>430.0</ele><time>2026-04-19T16:29:25Z</time></trkpt><trkpt lat="44.05114888236556" lon="11.24180897167228"><ele>430.0</ele><time>2026-04-19T16:29:26Z</time></trkpt><trkpt lat="44.05136055966946" lon="11.241908527182034"><ele>430.0</ele><time>2026-04-19T16:29:27Z</time></trkpt><trkpt lat="44.051571269260634" lon="11.242007812100471"><ele>430.0</ele><time>2026-04-19T16:29:28Z</time></trkpt><trkpt lat="44.051779514972154" lon="11.242108620292974"><ele>428.6666666666667</ele><time>2026-04-19T16:29:29Z</time></trkpt><trkpt lat="44.05198650573789" lon="11.242203341844798"><ele>427.33333333333337</ele><time>2026-04-19T16:29:30Z</time></trkpt><trkpt lat="44.052194369491474" lon="11.242294082498484"><ele>426.0</ele><time>2026-04-19T16:29:31Z</time></trkpt><trkpt lat="44.05240050471777" lon="11.242385423843453"><ele>425.66666666666663</ele><time>2026-04-19T16:29:32Z</time></trkpt><trkpt lat="44.05260723763374" lon="11.242476345190278"><ele>425.3333333333333</ele><time>2026-04-19T16:29:33Z</time></trkpt><trkpt lat="44.05281559175303" lon="11.242566902504501"><ele>425.0</ele><time>2026-04-19T16:29:34Z</time></trkpt><trkpt lat="44.05302558830568" lon="11.242655983063708"><ele>425.0</ele><time>2026-04-19T16:29:35Z</time></trkpt><trkpt lat="44.05323547345971" lon="11.242744932624786"><ele>425.0</ele><time>2026-04-19T16:29:36Z</time></trkpt><trkpt lat="44.05344594224128" lon="11.242838955363524"><ele>425.0</ele><time>2026-04-19T16:29:37Z</time></trkpt><trkpt lat="44.05365857619955" lon="11.242926893892339"><ele>424.3333333333333</ele><time>2026-04-19T16:29:38Z</time></trkpt><trkpt lat="44.053870680593775" lon="11.243014439025567"><ele>423.66666666666663</ele><time>2026-04-19T16:29:39Z</time></trkpt><trkpt lat="44.05408343722321" lon="11.243104279968323"><ele>423.0</ele><time>2026-04-19T16:29:40Z</time></trkpt><trkpt lat="44.05429472355766" lon="11.243196967892999"><ele>423.0</ele><time>2026-04-19T16:29:41Z</time></trkpt><trkpt lat="44.05450709346913" lon="11.24328949405045"><ele>423.0</ele><time>2026-04-19T16:29:42Z</time></trkpt><trkpt lat="44.05471923166266" lon="11.243379865195903"><ele>423.0</ele><time>2026-04-19T16:29:43Z</time></trkpt><trkpt lat="44.05493300271794" lon="11.243471194236827"><ele>423.33333333333337</ele><time>2026-04-19T16:29:44Z</time></trkpt><trkpt lat="44.05514682054366" lon="11.243560616674207"><ele>423.6666666666667</ele><time>2026-04-19T16:29:45Z</time></trkpt><trkpt lat="44.055361929883674" lon="11.243647388621383"><ele>424.0</ele><time>2026-04-19T16:29:46Z</time></trkpt><trkpt lat="44.05557643134292" lon="11.243738557938697"><ele>433.0</ele><time>2026-04-19T16:29:47Z</time></trkpt><trkpt lat="44.055790305071085" lon="11.243834058786394"><ele>442.0</ele><time>2026-04-19T16:29:48.001Z</time></trkpt><trkpt lat="44.05600533896223" lon="11.243927180608798"><ele>440.0</ele><time>2026-04-19T16:29:49.001Z</time></trkpt><trkpt lat="44.05622091741101" lon="11.244020365698137"><ele>438.0</ele><time>2026-04-19T16:29:50.001Z</time></trkpt><trkpt lat="44.05643731075874" lon="11.244112110082618"><ele>450.5</ele><time>2026-04-19T16:29:51.001Z</time></trkpt><trkpt lat="44.0566525688023" lon="11.24420407433863"><ele>463.0</ele><time>2026-04-19T16:29:52.001Z</time></trkpt><trkpt lat="44.05686723031333" lon="11.244296654460832"><ele>463.0</ele><time>2026-04-19T16:29:53.001Z</time></trkpt><trkpt lat="44.057082579106655" lon="11.244387579579737"><ele>463.0</ele><time>2026-04-19T16:29:54.001Z</time></trkpt><trkpt lat="44.057296558049295" lon="11.244478981037918"><ele>463.0</ele><time>2026-04-19T16:29:55.001Z</time></trkpt><trkpt lat="44.057511073528595" lon="11.24456271929905"><ele>468.0</ele><time>2026-04-19T16:29:56.001Z</time></trkpt><trkpt lat="44.05772727783887" lon="11.24464091392016"><ele>473.0</ele><time>2026-04-19T16:29:57.001Z</time></trkpt><trkpt lat="44.057946170932766" lon="11.244728586691783"><ele>473.0</ele><time>2026-04-19T16:29:58.001Z</time></trkpt><trkpt lat="44.058168958893894" lon="11.244788506349417"><ele>473.0</ele><time>2026-04-19T16:29:59.001Z</time></trkpt><trkpt lat="44.05839331312572" lon="11.244844837620617"><ele>464.0</ele><time>2026-04-19T16:30:00.001Z</time></trkpt><trkpt lat="44.05861622857026" lon="11.244898170512123"><ele>455.0</ele><time>2026-04-19T16:30:01Z</time></trkpt><trkpt lat="44.05884269179279" lon="11.244944660918957"><ele>455.0</ele><time>2026-04-19T16:30:02Z</time></trkpt><trkpt lat="44.05906927640899" lon="11.244986787724715"><ele>455.0</ele><time>2026-04-19T16:30:03Z</time></trkpt><trkpt lat="44.05929709902796" lon="11.24502249155478"><ele>458.5</ele><time>2026-04-19T16:30:04Z</time></trkpt><trkpt lat="44.0595256504793" lon="11.245050613948242"><ele>462.0</ele><time>2026-04-19T16:30:05Z</time></trkpt><trkpt lat="44.05975555354137" lon="11.245074077149297"><ele>465.0</ele><time>2026-04-19T16:30:06Z</time></trkpt><trkpt lat="44.05998628324942" lon="11.2450931149854"><ele>468.0</ele><time>2026-04-19T16:30:07Z</time></trkpt><trkpt lat="44.06021832405424" lon="11.245104778759561"><ele>468.0</ele><time>2026-04-19T16:30:08Z</time></trkpt><trkpt lat="44.0604510435571" lon="11.245110729495275"><ele>468.0</ele><time>2026-04-19T16:30:09Z</time></trkpt><trkpt lat="44.06068177162915" lon="11.245104700241788"><ele>471.5</ele><time>2026-04-19T16:30:10Z</time></trkpt><trkpt lat="44.06091281481814" lon="11.245090586243482"><ele>475.0</ele><time>2026-04-19T16:30:11Z</time></trkpt><trkpt lat="44.06114195208329" lon="11.24507140385202"><ele>475.0</ele><time>2026-04-19T16:30:12Z</time></trkpt><trkpt lat="44.061374363797945" lon="11.245047249551137"><ele>475.0</ele><time>2026-04-19T16:30:13Z</time></trkpt><trkpt lat="44.06160793386917" lon="11.245013810930693"><ele>476.0</ele><time>2026-04-19T16:30:14Z</time></trkpt><trkpt lat="44.06183922614391" lon="11.24497288173634"><ele>477.0</ele><time>2026-04-19T16:30:15Z</time></trkpt><trkpt lat="44.06207085090807" lon="11.244923427166157"><ele>477.0</ele><time>2026-04-19T16:30:16Z</time></trkpt><trkpt lat="44.06230247577974" lon="11.244868010180891"><ele>477.0</ele><time>2026-04-19T16:30:17Z</time></trkpt><trkpt lat="44.06254647822721" lon="11.24485133963505"><ele>479.33333333333337</ele><time>2026-04-19T16:30:18Z</time></trkpt><trkpt lat="44.06274436771646" lon="11.244762408720145"><ele>481.6666666666667</ele><time>2026-04-19T16:30:19Z</time></trkpt><trkpt lat="44.062969682560336" lon="11.244683474357508"><ele>484.0</ele><time>2026-04-19T16:30:20Z</time></trkpt><trkpt lat="44.06319268240292" lon="11.244604841389364"><ele>482.0</ele><time>2026-04-19T16:30:21Z</time></trkpt><trkpt lat="44.06341546205143" lon="11.244519393303401"><ele>480.0</ele><time>2026-04-19T16:30:22Z</time></trkpt><trkpt lat="44.063636857653705" lon="11.244426027866334"><ele>480.0</ele><time>2026-04-19T16:30:23Z</time></trkpt><trkpt lat="44.06385915927918" lon="11.244329229602771"><ele>480.0</ele><time>2026-04-19T16:30:24Z</time></trkpt><trkpt lat="44.0640819591589" lon="11.244225460121077"><ele>477.0</ele><time>2026-04-19T16:30:25Z</time></trkpt><trkpt lat="44.0643016291413" lon="11.244119176066988"><ele>474.0</ele><time>2026-04-19T16:30:26Z</time></trkpt><trkpt lat="44.06452347866338" lon="11.244010658788092"><ele>475.5</ele><time>2026-04-19T16:30:27Z</time></trkpt><trkpt lat="44.06474284547869" lon="11.243900933270895"><ele>477.0</ele><time>2026-04-19T16:30:28Z</time></trkpt><trkpt lat="44.06496251998977" lon="11.243784031928552"><ele>470.5</ele><time>2026-04-19T16:30:29Z</time></trkpt><trkpt lat="44.06518169823296" lon="11.243668139973078"><ele>464.0</ele><time>2026-04-19T16:30:30Z</time></trkpt><trkpt lat="44.06540180909771" lon="11.243552659687882"><ele>464.0</ele><time>2026-04-19T16:30:31Z</time></trkpt><trkpt lat="44.065620269314046" lon="11.243429380802395"><ele>464.0</ele><time>2026-04-19T16:30:32Z</time></trkpt><trkpt lat="44.065838639780004" lon="11.24330815482155"><ele>463.5</ele><time>2026-04-19T16:30:33Z</time></trkpt><trkpt lat="44.06606107001049" lon="11.24318901883214"><ele>463.0</ele><time>2026-04-19T16:30:34Z</time></trkpt><trkpt lat="44.06628045935728" lon="11.243063116188734"><ele>463.0</ele><time>2026-04-19T16:30:35Z</time></trkpt><trkpt lat="44.06650318674917" lon="11.242940986178754"><ele>463.0</ele><time>2026-04-19T16:30:36Z</time></trkpt><trkpt lat="44.066724599035126" lon="11.2428176708487"><ele>453.0</ele><time>2026-04-19T16:30:37Z</time></trkpt><trkpt lat="44.066945588136946" lon="11.24269099171568"><ele>443.0</ele><time>2026-04-19T16:30:38Z</time></trkpt><trkpt lat="44.067166627988065" lon="11.24256252227787"><ele>443.0</ele><time>2026-04-19T16:30:39Z</time></trkpt><trkpt lat="44.0673884113868" lon="11.242431865544347"><ele>443.0</ele><time>2026-04-19T16:30:40Z</time></trkpt><trkpt lat="44.06761018033535" lon="11.242300981567654"><ele>445.5</ele><time>2026-04-19T16:30:41Z</time></trkpt><trkpt lat="44.06783102599696" lon="11.242168835396505"><ele>448.0</ele><time>2026-04-19T16:30:42Z</time></trkpt><trkpt lat="44.06805406877583" lon="11.242036049074477"><ele>448.0</ele><time>2026-04-19T16:30:43Z</time></trkpt><trkpt lat="44.06827215376236" lon="11.241900632657904"><ele>448.0</ele><time>2026-04-19T16:30:44Z</time></trkpt><trkpt lat="44.068491934782095" lon="11.24176519637283"><ele>449.0</ele><time>2026-04-19T16:30:45Z</time></trkpt><trkpt lat="44.068712129160296" lon="11.24163323989578"><ele>450.0</ele><time>2026-04-19T16:30:46Z</time></trkpt><trkpt lat="44.06892738486675" lon="11.241496388406041"><ele>453.0</ele><time>2026-04-19T16:30:47Z</time></trkpt><trkpt lat="44.06914423854634" lon="11.241364924039171"><ele>456.0</ele><time>2026-04-19T16:30:48Z</time></trkpt><trkpt lat="44.069358069652615" lon="11.241231515263491"><ele>456.0</ele><time>2026-04-19T16:30:49Z</time></trkpt><trkpt lat="44.06957067837525" lon="11.241097398752517"><ele>456.0</ele><time>2026-04-19T16:30:50Z</time></trkpt><trkpt lat="44.06978281801048" lon="11.240960268013248"><ele>459.0</ele><time>2026-04-19T16:30:51Z</time></trkpt><trkpt lat="44.06999461580655" lon="11.240826191167438"><ele>462.0</ele><time>2026-04-19T16:30:52Z</time></trkpt><trkpt lat="44.0702065165612" lon="11.240695056563835"><ele>463.0</ele><time>2026-04-19T16:30:53Z</time></trkpt><trkpt lat="44.070419707872176" lon="11.240558800963234"><ele>464.0</ele><time>2026-04-19T16:30:54Z</time></trkpt><trkpt lat="44.07062914970278" lon="11.240427125257222"><ele>467.0</ele><time>2026-04-19T16:30:55Z</time></trkpt><trkpt lat="44.0708444157971" lon="11.240294983098662"><ele>470.0</ele><time>2026-04-19T16:30:56Z</time></trkpt><trkpt lat="44.071056805300884" lon="11.240161772767769"><ele>470.0</ele><time>2026-04-19T16:30:57Z</time></trkpt><trkpt lat="44.071269296756114" lon="11.240025105119368"><ele>470.0</ele><time>2026-04-19T16:30:58Z</time></trkpt><trkpt lat="44.071482609020975" lon="11.239885876444674"><ele>474.5</ele><time>2026-04-19T16:30:59Z</time></trkpt><trkpt lat="44.07169800237194" lon="11.239748272905688"><ele>479.0</ele><time>2026-04-19T16:31:00Z</time></trkpt><trkpt lat="44.07191476996487" lon="11.239611456658013"><ele>479.0</ele><time>2026-04-19T16:31:01Z</time></trkpt><trkpt lat="44.07213138740612" lon="11.239473978693995"><ele>479.0</ele><time>2026-04-19T16:31:02Z</time></trkpt><trkpt lat="44.072345851456966" lon="11.239327581623234"><ele>483.5</ele><time>2026-04-19T16:31:03Z</time></trkpt><trkpt lat="44.07256104842014" lon="11.239181647886767"><ele>488.0</ele><time>2026-04-19T16:31:04Z</time></trkpt><trkpt lat="44.072778191525245" lon="11.239038074602133"><ele>484.5</ele><time>2026-04-19T16:31:05Z</time></trkpt><trkpt lat="44.07299671772635" lon="11.238894077606112"><ele>481.0</ele><time>2026-04-19T16:31:06Z</time></trkpt><trkpt lat="44.07321558024722" lon="11.238751290545906"><ele>486.0</ele><time>2026-04-19T16:31:07Z</time></trkpt><trkpt lat="44.0734368537445" lon="11.238611189285216"><ele>491.0</ele><time>2026-04-19T16:31:08Z</time></trkpt><trkpt lat="44.07365875527015" lon="11.23847194786501"><ele>491.0</ele><time>2026-04-19T16:31:09Z</time></trkpt><trkpt lat="44.073881659059396" lon="11.238332749633955"><ele>491.0</ele><time>2026-04-19T16:31:10Z</time></trkpt><trkpt lat="44.07410448690136" lon="11.238188557598267"><ele>494.5</ele><time>2026-04-19T16:31:11Z</time></trkpt><trkpt lat="44.07432921287251" lon="11.238046656010882"><ele>498.0</ele><time>2026-04-19T16:31:12Z</time></trkpt><trkpt lat="44.07455622708222" lon="11.237908573723843"><ele>498.0</ele><time>2026-04-19T16:31:13Z</time></trkpt><trkpt lat="44.074784518272466" lon="11.237769131914229"><ele>498.0</ele><time>2026-04-19T16:31:14Z</time></trkpt><trkpt lat="44.07501593337201" lon="11.23762844003204"><ele>503.0</ele><time>2026-04-19T16:31:15Z</time></trkpt><trkpt lat="44.07526661393636" lon="11.237478320791"><ele>508.0</ele><time>2026-04-19T16:31:16.054Z</time></trkpt><trkpt lat="44.07551052535312" lon="11.237334276497977"><ele>511.5</ele><time>2026-04-19T16:31:17.053Z</time></trkpt><trkpt lat="44.07575387443363" lon="11.237191298034896"><ele>515.0</ele><time>2026-04-19T16:31:18.053Z</time></trkpt><trkpt lat="44.075993729864145" lon="11.237051321803596"><ele>505.0</ele><time>2026-04-19T16:31:19.053Z</time></trkpt><trkpt lat="44.14342730837458" lon="11.192749221094077"><ele>505.0</ele><time>2026-04-19T16:36:39.003Z</time></trkpt><trkpt lat="44.143649107362975" lon="11.192779940797937"><ele>505.0</ele><time>2026-04-19T16:36:40.003Z</time></trkpt><trkpt lat="44.14387513406301" lon="11.192820854382752"><ele>523.3333333333334</ele><time>2026-04-19T16:36:41.003Z</time></trkpt><trkpt lat="44.144098107000104" lon="11.192852705821911"><ele>541.6666666666666</ele><time>2026-04-19T16:36:42.003Z</time></trkpt><trkpt lat="44.14431722260783" lon="11.192888086035754"><ele>560.0</ele><time>2026-04-19T16:36:43.003Z</time></trkpt><trkpt lat="44.1445383643033" lon="11.192928535601428"><ele>560.0</ele><time>2026-04-19T16:36:44.003Z</time></trkpt><trkpt lat="44.14477097076089" lon="11.192976197490086"><ele>560.0</ele><time>2026-04-19T16:36:45.057Z</time></trkpt><trkpt lat="44.144991304694386" lon="11.193028915640774"><ele>553.5</ele><time>2026-04-19T16:36:46.058Z</time></trkpt><trkpt lat="44.145229407726184" lon="11.193115454769014"><ele>547.0</ele><time>2026-04-19T16:36:47.055Z</time></trkpt><trkpt lat="44.14545127781314" lon="11.193182574128897"><ele>532.0</ele><time>2026-04-19T16:36:48.055Z</time></trkpt><trkpt lat="44.145674666640254" lon="11.193211593357958"><ele>517.0</ele><time>2026-04-19T16:36:49.055Z</time></trkpt><trkpt lat="44.14616002286236" lon="11.193259713905299"><ele>501.33333333333337</ele><time>2026-04-19T16:36:51Z</time></trkpt><trkpt lat="44.14639689728606" lon="11.19329794757199"><ele>485.66666666666663</ele><time>2026-04-19T16:36:52Z</time></trkpt><trkpt lat="44.14659333090712" lon="11.193348568476432"><ele>470.0</ele><time>2026-04-19T16:36:53Z</time></trkpt><trkpt lat="44.14678770955508" lon="11.193366585345432"><ele>467.3333333333333</ele><time>2026-04-19T16:36:54Z</time></trkpt><trkpt lat="44.146982123765696" lon="11.1934200233905"><ele>464.66666666666663</ele><time>2026-04-19T16:36:55Z</time></trkpt><trkpt lat="44.147199171961326" lon="11.193454376427125"><ele>462.0</ele><time>2026-04-19T16:36:56Z</time></trkpt><trkpt lat="44.14741964844012" lon="11.193483757926737"><ele>460.0</ele><time>2026-04-19T16:36:57Z</time></trkpt><trkpt lat="44.147641027881164" lon="11.193538459215926"><ele>458.0</ele><time>2026-04-19T16:36:58Z</time></trkpt><trkpt lat="44.14786511100881" lon="11.193586508688899"><ele>458.0</ele><time>2026-04-19T16:36:59Z</time></trkpt><trkpt lat="44.14808867370814" lon="11.193633204209092"><ele>458.0</ele><time>2026-04-19T16:37:00Z</time></trkpt><trkpt lat="44.14831163704215" lon="11.193682430922896"><ele>457.5</ele><time>2026-04-19T16:37:01Z</time></trkpt><trkpt lat="44.148534135213495" lon="11.193730264882536"><ele>457.0</ele><time>2026-04-19T16:37:02Z</time></trkpt><trkpt lat="44.148755926879524" lon="11.193778444617031"><ele>457.0</ele><time>2026-04-19T16:37:03Z</time></trkpt><trkpt lat="44.14897698258909" lon="11.193827944826078"><ele>457.0</ele><time>2026-04-19T16:37:04Z</time></trkpt><trkpt lat="44.14919975663357" lon="11.193876319554219"><ele>457.0</ele><time>2026-04-19T16:37:05Z</time></trkpt><trkpt lat="44.14941930856502" lon="11.193935029304438"><ele>457.0</ele><time>2026-04-19T16:37:06Z</time></trkpt><trkpt lat="44.149647847944706" lon="11.19397633006233"><ele>457.0</ele><time>2026-04-19T16:37:07Z</time></trkpt><trkpt lat="44.14987604032099" lon="11.194031192943688"><ele>453.5</ele><time>2026-04-19T16:37:08Z</time></trkpt><trkpt lat="44.15010458511067" lon="11.194096237688349"><ele>450.0</ele><time>2026-04-19T16:37:09Z</time></trkpt><trkpt lat="44.15033353888204" lon="11.194155287976205"><ele>450.0</ele><time>2026-04-19T16:37:10Z</time></trkpt><trkpt lat="44.15056143821675" lon="11.194215591729774"><ele>450.0</ele><time>2026-04-19T16:37:11Z</time></trkpt><trkpt lat="44.15078939996404" lon="11.19427523479237"><ele>448.5</ele><time>2026-04-19T16:37:12Z</time></trkpt><trkpt lat="44.15101779135492" lon="11.194330911491493"><ele>447.0</ele><time>2026-04-19T16:37:13Z</time></trkpt><trkpt lat="44.15124621353656" lon="11.194389174438081"><ele>447.0</ele><time>2026-04-19T16:37:14Z</time></trkpt><trkpt lat="44.151477310506095" lon="11.194452937444403"><ele>447.0</ele><time>2026-04-19T16:37:15Z</time></trkpt><trkpt lat="44.151711062709964" lon="11.194512005129559"><ele>447.0</ele><time>2026-04-19T16:37:16Z</time></trkpt><trkpt lat="44.151946644660306" lon="11.194570920013287"><ele>447.0</ele><time>2026-04-19T16:37:17Z</time></trkpt><trkpt lat="44.152182378215706" lon="11.194630029522624"><ele>445.5</ele><time>2026-04-19T16:37:18Z</time></trkpt><trkpt lat="44.15241790228162" lon="11.194690712384968"><ele>444.0</ele><time>2026-04-19T16:37:19Z</time></trkpt><trkpt lat="44.15265301070654" lon="11.194754695697641"><ele>444.0</ele><time>2026-04-19T16:37:20Z</time></trkpt><trkpt lat="44.15289034802566" lon="11.19481740082427"><ele>444.0</ele><time>2026-04-19T16:37:21Z</time></trkpt><trkpt lat="44.15312593139995" lon="11.19487875790931"><ele>441.0</ele><time>2026-04-19T16:37:22Z</time></trkpt><trkpt lat="44.153360890197696" lon="11.194942432217308"><ele>438.0</ele><time>2026-04-19T16:37:23Z</time></trkpt><trkpt lat="44.153596728006704" lon="11.195005696828902"><ele>438.0</ele><time>2026-04-19T16:37:24Z</time></trkpt><trkpt lat="44.15383453890386" lon="11.195071778491357"><ele>438.0</ele><time>2026-04-19T16:37:25Z</time></trkpt><trkpt lat="44.15407296450194" lon="11.195141497549995"><ele>439.5</ele><time>2026-04-19T16:37:26Z</time></trkpt><trkpt lat="44.15431241566001" lon="11.195209789792305"><ele>441.0</ele><time>2026-04-19T16:37:27Z</time></trkpt><trkpt lat="44.154550305981026" lon="11.195281494191052"><ele>441.0</ele><time>2026-04-19T16:37:28Z</time></trkpt><trkpt lat="44.15478910594831" lon="11.195353348849649"><ele>441.0</ele><time>2026-04-19T16:37:29Z</time></trkpt><trkpt lat="44.1550258774318" lon="11.19542214410225"><ele>443.0</ele><time>2026-04-19T16:37:30Z</time></trkpt><trkpt lat="44.155259376066944" lon="11.19548861902935"><ele>445.0</ele><time>2026-04-19T16:37:31Z</time></trkpt><trkpt lat="44.15548989792105" lon="11.195554815275363"><ele>444.0</ele><time>2026-04-19T16:37:32Z</time></trkpt><trkpt lat="44.155718342755065" lon="11.195623324709125"><ele>443.0</ele><time>2026-04-19T16:37:33Z</time></trkpt><trkpt lat="44.15594696477009" lon="11.195692162301963"><ele>443.0</ele><time>2026-04-19T16:37:34Z</time></trkpt><trkpt lat="44.15617397991188" lon="11.195777104078523"><ele>443.0</ele><time>2026-04-19T16:37:35Z</time></trkpt><trkpt lat="44.15641451173147" lon="11.19583443094112"><ele>444.0</ele><time>2026-04-19T16:37:36Z</time></trkpt><trkpt lat="44.156651917103225" lon="11.195894430475226"><ele>445.0</ele><time>2026-04-19T16:37:37Z</time></trkpt><trkpt lat="44.15689012533853" lon="11.195971268920452"><ele>445.0</ele><time>2026-04-19T16:37:38Z</time></trkpt><trkpt lat="44.15712894455762" lon="11.196043785534815"><ele>445.0</ele><time>2026-04-19T16:37:39Z</time></trkpt><trkpt lat="44.15736648031429" lon="11.196130320558385"><ele>445.5</ele><time>2026-04-19T16:37:40Z</time></trkpt><trkpt lat="44.15760547590793" lon="11.19620794929974"><ele>446.0</ele><time>2026-04-19T16:37:41Z</time></trkpt><trkpt lat="44.15784297585934" lon="11.196286536147813"><ele>446.0</ele><time>2026-04-19T16:37:42Z</time></trkpt><trkpt lat="44.15808014751685" lon="11.196365929298075"><ele>446.0</ele><time>2026-04-19T16:37:43Z</time></trkpt><trkpt lat="44.15831826775129" lon="11.196444207815073"><ele>442.0</ele><time>2026-04-19T16:37:44.001Z</time></trkpt><trkpt lat="44.158555100362804" lon="11.196518111789002"><ele>438.0</ele><time>2026-04-19T16:37:45.001Z</time></trkpt><trkpt lat="44.15879224876564" lon="11.196593945182562"><ele>438.0</ele><time>2026-04-19T16:37:46.001Z</time></trkpt><trkpt lat="44.15902871722999" lon="11.196667285441077"><ele>438.0</ele><time>2026-04-19T16:37:47.001Z</time></trkpt><trkpt lat="44.1592668002899" lon="11.196738976666136"><ele>437.5</ele><time>2026-04-19T16:37:48.001Z</time></trkpt><trkpt lat="44.15950354409165" lon="11.19681049897079"><ele>437.0</ele><time>2026-04-19T16:37:49.001Z</time></trkpt><trkpt lat="44.15974228823057" lon="11.196877411028616"><ele>436.0</ele><time>2026-04-19T16:37:50.001Z</time></trkpt><trkpt lat="44.159980600914224" lon="11.196942857930646"><ele>435.0</ele><time>2026-04-19T16:37:51.001Z</time></trkpt><trkpt lat="44.16022013353259" lon="11.197005285713777"><ele>435.0</ele><time>2026-04-19T16:37:52.001Z</time></trkpt><trkpt lat="44.16045988736323" lon="11.197066806271538"><ele>435.0</ele><time>2026-04-19T16:37:53.001Z</time></trkpt><trkpt lat="44.16070099258967" lon="11.197120963635289"><ele>432.5</ele><time>2026-04-19T16:37:54.001Z</time></trkpt><trkpt lat="44.16094131564296" lon="11.19716753559256"><ele>430.0</ele><time>2026-04-19T16:37:55.001Z</time></trkpt><trkpt lat="44.16118310532141" lon="11.197212499249027"><ele>430.0</ele><time>2026-04-19T16:37:56.001Z</time></trkpt><trkpt lat="44.16142432823391" lon="11.197250328175672"><ele>430.0</ele><time>2026-04-19T16:37:57.001Z</time></trkpt><trkpt lat="44.16166736178576" lon="11.197281729380938"><ele>428.5</ele><time>2026-04-19T16:37:58.001Z</time></trkpt><trkpt lat="44.16191038221979" lon="11.197307243774471"><ele>427.0</ele><time>2026-04-19T16:37:59.001Z</time></trkpt><trkpt lat="44.16215413041391" lon="11.197325715739936"><ele>429.5</ele><time>2026-04-19T16:38:00.001Z</time></trkpt><trkpt lat="44.16239769677687" lon="11.197341681609645"><ele>432.0</ele><time>2026-04-19T16:38:01.001Z</time></trkpt><trkpt lat="44.162642065586674" lon="11.197350860637846"><ele>432.0</ele><time>2026-04-19T16:38:02.001Z</time></trkpt><trkpt lat="44.16288525068776" lon="11.197356319551725"><ele>432.0</ele><time>2026-04-19T16:38:03.001Z</time></trkpt><trkpt lat="44.16312964821847" lon="11.197356353692475"><ele>430.0</ele><time>2026-04-19T16:38:04.001Z</time></trkpt><trkpt lat="44.16337327478168" lon="11.197351528858654"><ele>428.0</ele><time>2026-04-19T16:38:05.001Z</time></trkpt><trkpt lat="44.16361674907029" lon="11.197340509827823"><ele>429.5</ele><time>2026-04-19T16:38:06.001Z</time></trkpt><trkpt lat="44.163860201436236" lon="11.197325411322241"><ele>431.0</ele><time>2026-04-19T16:38:07.001Z</time></trkpt><trkpt lat="44.16410420819488" lon="11.197306356782997"><ele>431.0</ele><time>2026-04-19T16:38:08.001Z</time></trkpt><trkpt lat="44.16434731551914" lon="11.197278625800347"><ele>431.0</ele><time>2026-04-19T16:38:09.001Z</time></trkpt><trkpt lat="44.164589158477106" lon="11.197246769095447"><ele>431.0</ele><time>2026-04-19T16:38:10.001Z</time></trkpt><trkpt lat="44.164831500841835" lon="11.197208700738615"><ele>431.0</ele><time>2026-04-19T16:38:11.001Z</time></trkpt><trkpt lat="44.16507354444548" lon="11.19716427081476"><ele>440.5</ele><time>2026-04-19T16:38:12.001Z</time></trkpt><trkpt lat="44.165314360206054" lon="11.197113583684212"><ele>450.0</ele><time>2026-04-19T16:38:13.001Z</time></trkpt><trkpt lat="44.16555375246794" lon="11.197058895109611"><ele>450.0</ele><time>2026-04-19T16:38:14.001Z</time></trkpt><trkpt lat="44.165793492266694" lon="11.196995446097121"><ele>450.0</ele><time>2026-04-19T16:38:15.001Z</time></trkpt><trkpt lat="44.16603218832221" lon="11.196928432649537"><ele>450.0</ele><time>2026-04-19T16:38:16.001Z</time></trkpt><trkpt lat="44.166270152428424" lon="11.196854251770338"><ele>450.0</ele><time>2026-04-19T16:38:17.001Z</time></trkpt><trkpt lat="44.16650764438051" lon="11.196776192106848"><ele>449.0</ele><time>2026-04-19T16:38:18.001Z</time></trkpt><trkpt lat="44.16674359308328" lon="11.196692975184877"><ele>448.0</ele><time>2026-04-19T16:38:19.001Z</time></trkpt><trkpt lat="44.16697874484096" lon="11.196608267411264"><ele>448.0</ele><time>2026-04-19T16:38:20.001Z</time></trkpt><trkpt lat="44.1672122761552" lon="11.196519127764923"><ele>448.0</ele><time>2026-04-19T16:38:21.001Z</time></trkpt><trkpt lat="44.16744545805034" lon="11.196422239798226"><ele>456.5</ele><time>2026-04-19T16:38:22.001Z</time></trkpt><trkpt lat="44.16767725432173" lon="11.196318888269088"><ele>465.0</ele><time>2026-04-19T16:38:23.001Z</time></trkpt><trkpt lat="44.167907491342916" lon="11.196210710608433"><ele>465.0</ele><time>2026-04-19T16:38:24.001Z</time></trkpt><trkpt lat="44.16815099469696" lon="11.19608995024337"><ele>465.0</ele><time>2026-04-19T16:38:25.067Z</time></trkpt><trkpt lat="44.16837549524268" lon="11.195980155500159"><ele>469.0</ele><time>2026-04-19T16:38:26.055Z</time></trkpt><trkpt lat="44.16859888233974" lon="11.195859103267178"><ele>473.0</ele><time>2026-04-19T16:38:27.053Z</time></trkpt><trkpt lat="44.1709538644221" lon="11.194673855032013"><ele>396.0</ele><time>2026-04-19T16:38:38.307Z</time></trkpt><trkpt lat="44.18891500510941" lon="11.199763870097748"><ele>392.5</ele><time>2026-04-19T16:39:52.001Z</time></trkpt><trkpt lat="44.18915302274023" lon="11.199821477250772"><ele>389.0</ele><time>2026-04-19T16:39:53.001Z</time></trkpt><trkpt lat="44.18944191456668" lon="11.19983097057594"><ele>381.5</ele><time>2026-04-19T16:39:54.001Z</time></trkpt><trkpt lat="44.18967625222431" lon="11.199874276954825"><ele>374.0</ele><time>2026-04-19T16:39:55.001Z</time></trkpt><trkpt lat="44.189920890976936" lon="11.199899141546906"><ele>371.5</ele><time>2026-04-19T16:39:56.001Z</time></trkpt><trkpt lat="44.1901676190275" lon="11.199951810688649"><ele>369.0</ele><time>2026-04-19T16:39:57.001Z</time></trkpt><trkpt lat="44.19041418699038" lon="11.200002745003104"><ele>369.0</ele><time>2026-04-19T16:39:58.001Z</time></trkpt><trkpt lat="44.19066445811262" lon="11.200070815322189"><ele>369.0</ele><time>2026-04-19T16:39:59.001Z</time></trkpt><trkpt lat="44.19091050789052" lon="11.200093549665315"><ele>366.5</ele><time>2026-04-19T16:40:00.001Z</time></trkpt><trkpt lat="44.191157498766344" lon="11.200156921020827"><ele>364.0</ele><time>2026-04-19T16:40:01.001Z</time></trkpt><trkpt lat="44.19140103337135" lon="11.200180528708861"><ele>363.5</ele><time>2026-04-19T16:40:02.001Z</time></trkpt><trkpt lat="44.19165280714033" lon="11.20023293166367"><ele>363.0</ele><time>2026-04-19T16:40:03.001Z</time></trkpt><trkpt lat="44.191900570658014" lon="11.200264152231627"><ele>363.0</ele><time>2026-04-19T16:40:04.001Z</time></trkpt><trkpt lat="44.192151375816174" lon="11.200291035301628"><ele>363.0</ele><time>2026-04-19T16:40:05.001Z</time></trkpt><trkpt lat="44.192403330553205" lon="11.200316544192066"><ele>362.5</ele><time>2026-04-19T16:40:06.001Z</time></trkpt><trkpt lat="44.192656503298956" lon="11.20034717393529"><ele>362.0</ele><time>2026-04-19T16:40:07.001Z</time></trkpt><trkpt lat="44.192907863746434" lon="11.200376151343754"><ele>362.0</ele><time>2026-04-19T16:40:08.001Z</time></trkpt><trkpt lat="44.1931598296352" lon="11.200397517119994"><ele>362.0</ele><time>2026-04-19T16:40:09.001Z</time></trkpt><trkpt lat="44.19341241433264" lon="11.200420416959307"><ele>361.0</ele><time>2026-04-19T16:40:10.001Z</time></trkpt><trkpt lat="44.19366293774744" lon="11.200442908848666"><ele>360.0</ele><time>2026-04-19T16:40:11.001Z</time></trkpt><trkpt lat="44.1939128076883" lon="11.200454250820036"><ele>360.0</ele><time>2026-04-19T16:40:12.001Z</time></trkpt><trkpt lat="44.19416407234531" lon="11.200487479325444"><ele>360.0</ele><time>2026-04-19T16:40:13.001Z</time></trkpt><trkpt lat="44.194414837449" lon="11.200506907000436"><ele>360.0</ele><time>2026-04-19T16:40:14.001Z</time></trkpt><trkpt lat="44.194664405888545" lon="11.200532506274723"><ele>360.0</ele><time>2026-04-19T16:40:15.001Z</time></trkpt><trkpt lat="44.19491521349937" lon="11.200560273455695"><ele>370.5</ele><time>2026-04-19T16:40:16.001Z</time></trkpt><trkpt lat="44.195164205719365" lon="11.200581787901438"><ele>381.0</ele><time>2026-04-19T16:40:17.001Z</time></trkpt><trkpt lat="44.195412930972225" lon="11.200605021656077"><ele>381.0</ele><time>2026-04-19T16:40:18.001Z</time></trkpt><trkpt lat="44.19566210251398" lon="11.200626448801847"><ele>381.0</ele><time>2026-04-19T16:40:19.001Z</time></trkpt><trkpt lat="44.19591087094979" lon="11.200648293486193"><ele>398.0</ele><time>2026-04-19T16:40:20.001Z</time></trkpt><trkpt lat="44.19616053314412" lon="11.200670925618441"><ele>415.0</ele><time>2026-04-19T16:40:21.001Z</time></trkpt><trkpt lat="44.19642186843065" lon="11.20069069994411"><ele>424.5</ele><time>2026-04-19T16:40:22.051Z</time></trkpt><trkpt lat="44.196671135301926" lon="11.20071244924576"><ele>434.0</ele><time>2026-04-19T16:40:23.055Z</time></trkpt><trkpt lat="44.19691932073188" lon="11.200735201476194"><ele>434.0</ele><time>2026-04-19T16:40:24.056Z</time></trkpt><trkpt lat="44.19716710182773" lon="11.20076101850982"><ele>434.0</ele><time>2026-04-19T16:40:25.052Z</time></trkpt><trkpt lat="44.19741520825264" lon="11.200781222721552"><ele>433.0</ele><time>2026-04-19T16:40:26.045Z</time></trkpt><trkpt lat="44.20042423373221" lon="11.200889107862944"><ele>445.0</ele><time>2026-04-19T16:40:30.587Z</time></trkpt><trkpt lat="44.20141060298696" lon="11.200874693409514"><ele>464.0</ele><time>2026-04-19T16:40:31.584Z</time></trkpt><trkpt lat="44.20239926823818" lon="11.200827236348548"><ele>462.0</ele><time>2026-04-19T16:40:32.583Z</time></trkpt><trkpt lat="44.20338857207848" lon="11.200718209375687"><ele>446.0</ele><time>2026-04-19T16:40:33.586Z</time></trkpt><trkpt lat="44.204372388220136" lon="11.200563362927896"><ele>448.0</ele><time>2026-04-19T16:40:34.586Z</time></trkpt><trkpt lat="44.205353179865114" lon="11.200364691439681"><ele>451.0</ele><time>2026-04-19T16:40:35.587Z</time></trkpt><trkpt lat="44.205835" lon="11.2002483"><ele>291.0</ele><time>2026-04-19T16:40:36.587Z</time></trkpt><trkpt lat="44.22710627092145" lon="11.18469295751613"><ele>288.0</ele><time>2026-04-19T16:42:40.001Z</time></trkpt><trkpt lat="44.2273222676931" lon="11.184585708576948"><ele>285.0</ele><time>2026-04-19T16:42:41.001Z</time></trkpt><trkpt lat="44.22755748621457" lon="11.184491752543606"><ele>285.0</ele><time>2026-04-19T16:42:42.001Z</time></trkpt><trkpt lat="44.22777556504915" lon="11.184410794845133"><ele>285.0</ele><time>2026-04-19T16:42:43.001Z</time></trkpt><trkpt lat="44.22797553150742" lon="11.184348592699493"><ele>285.0</ele><time>2026-04-19T16:42:44.001Z</time></trkpt><trkpt lat="44.22819552777332" lon="11.184279113400219"><ele>284.0</ele><time>2026-04-19T16:42:45.001Z</time></trkpt><trkpt lat="44.22842491769641" lon="11.18421135148697"><ele>283.0</ele><time>2026-04-19T16:42:46.001Z</time></trkpt><trkpt lat="44.22865011563611" lon="11.184145580361083"><ele>283.0</ele><time>2026-04-19T16:42:47.001Z</time></trkpt><trkpt lat="44.22886803634151" lon="11.18408661528676"><ele>283.0</ele><time>2026-04-19T16:42:48.001Z</time></trkpt><trkpt lat="44.22909652789" lon="11.184043645367838"><ele>280.5</ele><time>2026-04-19T16:42:49.001Z</time></trkpt><trkpt lat="44.229325493908426" lon="11.184003499116386"><ele>278.0</ele><time>2026-04-19T16:42:50.001Z</time></trkpt><trkpt lat="44.22956067390201" lon="11.183965917161624"><ele>278.0</ele><time>2026-04-19T16:42:51.001Z</time></trkpt><trkpt lat="44.229801532320636" lon="11.183942043018623"><ele>278.0</ele><time>2026-04-19T16:42:52.001Z</time></trkpt><trkpt lat="44.23005327281567" lon="11.183923404787704"><ele>279.0</ele><time>2026-04-19T16:42:53.001Z</time></trkpt><trkpt lat="44.23030345630377" lon="11.183916699045731"><ele>280.0</ele><time>2026-04-19T16:42:54.001Z</time></trkpt><trkpt lat="44.23055259476513" lon="11.183921716069165"><ele>280.0</ele><time>2026-04-19T16:42:55.001Z</time></trkpt><trkpt lat="44.23080469978349" lon="11.183923188427661"><ele>280.0</ele><time>2026-04-19T16:42:56.001Z</time></trkpt><trkpt lat="44.23105150465563" lon="11.183936579953054"><ele>280.0</ele><time>2026-04-19T16:42:57.001Z</time></trkpt><trkpt lat="44.231294108821" lon="11.183955127532"><ele>280.0</ele><time>2026-04-19T16:42:58.001Z</time></trkpt><trkpt lat="44.23153051152993" lon="11.183984979009688"><ele>285.5</ele><time>2026-04-19T16:42:59.001Z</time></trkpt><trkpt lat="44.23177043912859" lon="11.18401927072049"><ele>291.0</ele><time>2026-04-19T16:43:00.001Z</time></trkpt><trkpt lat="44.23201065162435" lon="11.184057765795009"><ele>291.0</ele><time>2026-04-19T16:43:01.001Z</time></trkpt><trkpt lat="44.23224990450521" lon="11.184113736201871"><ele>291.0</ele><time>2026-04-19T16:43:02.001Z</time></trkpt><trkpt lat="44.23248824077359" lon="11.184166493978346"><ele>285.5</ele><time>2026-04-19T16:43:03.001Z</time></trkpt><trkpt lat="44.232728596773356" lon="11.184225505887413"><ele>280.0</ele><time>2026-04-19T16:43:04.001Z</time></trkpt><trkpt lat="44.23297468508826" lon="11.184290315894216"><ele>278.0</ele><time>2026-04-19T16:43:05.001Z</time></trkpt><trkpt lat="44.23322864318999" lon="11.184350389062335"><ele>276.0</ele><time>2026-04-19T16:43:06.001Z</time></trkpt><trkpt lat="44.233485731523665" lon="11.184424072121645"><ele>276.0</ele><time>2026-04-19T16:43:07.001Z</time></trkpt><trkpt lat="44.23374847172162" lon="11.184502834160066"><ele>276.0</ele><time>2026-04-19T16:43:08.001Z</time></trkpt><trkpt lat="44.23401430629903" lon="11.184590354734848"><ele>274.5</ele><time>2026-04-19T16:43:09.001Z</time></trkpt><trkpt lat="44.23429750172585" lon="11.184696200253162"><ele>273.0</ele><time>2026-04-19T16:43:10.001Z</time></trkpt><trkpt lat="44.23457328901506" lon="11.184794831924995"><ele>276.5</ele><time>2026-04-19T16:43:11.001Z</time></trkpt><trkpt lat="44.23484797040436" lon="11.184898751350284"><ele>280.0</ele><time>2026-04-19T16:43:12.001Z</time></trkpt><trkpt lat="44.23512064028771" lon="11.18500570923289"><ele>280.0</ele><time>2026-04-19T16:43:13.001Z</time></trkpt><trkpt lat="44.23539408788706" lon="11.185118678380658"><ele>280.0</ele><time>2026-04-19T16:43:14.001Z</time></trkpt><trkpt lat="44.23566374000835" lon="11.185233718422229"><ele>277.5</ele><time>2026-04-19T16:43:15.001Z</time></trkpt><trkpt lat="44.23593318190916" lon="11.185352434271676"><ele>275.0</ele><time>2026-04-19T16:43:16.001Z</time></trkpt><trkpt lat="44.236201022171564" lon="11.185469076796075"><ele>275.0</ele><time>2026-04-19T16:43:17.001Z</time></trkpt><trkpt lat="44.23646947306921" lon="11.185584614766974"><ele>275.0</ele><time>2026-04-19T16:43:18.001Z</time></trkpt><trkpt lat="44.236737673200835" lon="11.185700118485974"><ele>280.0</ele><time>2026-04-19T16:43:19.001Z</time></trkpt><trkpt lat="44.23700128361264" lon="11.185814934958957"><ele>285.0</ele><time>2026-04-19T16:43:20.001Z</time></trkpt><trkpt lat="44.23726271793993" lon="11.185935743089622"><ele>282.0</ele><time>2026-04-19T16:43:21.001Z</time></trkpt><trkpt lat="44.237519590080375" lon="11.18606131554458"><ele>279.0</ele><time>2026-04-19T16:43:22.001Z</time></trkpt><trkpt lat="44.23777477669552" lon="11.186198792990542"><ele>279.0</ele><time>2026-04-19T16:43:23.001Z</time></trkpt><trkpt lat="44.23802515144412" lon="11.18634356039077"><ele>279.0</ele><time>2026-04-19T16:43:24.001Z</time></trkpt><trkpt lat="44.23827155518671" lon="11.186495403644013"><ele>279.0</ele><time>2026-04-19T16:43:25.001Z</time></trkpt><trkpt lat="44.238509244998994" lon="11.186661634991063"><ele>279.0</ele><time>2026-04-19T16:43:26.001Z</time></trkpt><trkpt lat="44.23874313937486" lon="11.186834524526878"><ele>273.0</ele><time>2026-04-19T16:43:27.001Z</time></trkpt><trkpt lat="44.23897376837192" lon="11.187020600592843"><ele>267.0</ele><time>2026-04-19T16:43:28.001Z</time></trkpt><trkpt lat="44.23919500087296" lon="11.187206792523423"><ele>273.0</ele><time>2026-04-19T16:43:29.001Z</time></trkpt><trkpt lat="44.23941346719243" lon="11.18740347444867"><ele>279.0</ele><time>2026-04-19T16:43:30.001Z</time></trkpt><trkpt lat="44.23962842120058" lon="11.187606813252046"><ele>275.0</ele><time>2026-04-19T16:43:31.001Z</time></trkpt><trkpt lat="44.2398415963594" lon="11.1878133345151"><ele>271.0</ele><time>2026-04-19T16:43:32.001Z</time></trkpt><trkpt lat="44.240052192965145" lon="11.188029889839232"><ele>279.5</ele><time>2026-04-19T16:43:33.001Z</time></trkpt><trkpt lat="44.240256268844846" lon="11.188242262286305"><ele>288.0</ele><time>2026-04-19T16:43:34.001Z</time></trkpt><trkpt lat="44.240462305832054" lon="11.188459475824091"><ele>286.5</ele><time>2026-04-19T16:43:35.001Z</time></trkpt><trkpt lat="44.24066792067482" lon="11.188673885342215"><ele>285.0</ele><time>2026-04-19T16:43:36.001Z</time></trkpt><trkpt lat="44.24087455522373" lon="11.188890815542196"><ele>297.0</ele><time>2026-04-19T16:43:37.001Z</time></trkpt><trkpt lat="44.241077721035126" lon="11.189114652090945"><ele>309.0</ele><time>2026-04-19T16:43:38.001Z</time></trkpt><trkpt lat="44.2412850350785" lon="11.18933220959128"><ele>309.0</ele><time>2026-04-19T16:43:39.001Z</time></trkpt><trkpt lat="44.241502258954235" lon="11.189561313951236"><ele>309.0</ele><time>2026-04-19T16:43:40.056Z</time></trkpt><trkpt lat="44.24170870298229" lon="11.189777521337465"><ele>317.5</ele><time>2026-04-19T16:43:41.057Z</time></trkpt><trkpt lat="44.241909869959734" lon="11.189993056205749"><ele>326.0</ele><time>2026-04-19T16:43:42.06Z</time></trkpt><trkpt lat="44.2421110793783" lon="11.190202176920499"><ele>321.5</ele><time>2026-04-19T16:43:43.052Z</time></trkpt><trkpt lat="44.24231148649633" lon="11.19040867428834"><ele>317.0</ele><time>2026-04-19T16:43:44.028Z</time></trkpt><trkpt lat="44.24396861932444" lon="11.19202009635007"><ele>338.0</ele><time>2026-04-19T16:43:47.588Z</time></trkpt><trkpt lat="44.244852832142605" lon="11.192638563649018"><ele>339.0</ele><time>2026-04-19T16:43:48.588Z</time></trkpt><trkpt lat="44.245769125067476" lon="11.19315941352376"><ele>353.0</ele><time>2026-04-19T16:43:49.588Z</time></trkpt><trkpt lat="44.24671095617843" lon="11.19356422383987"><ele>345.0</ele><time>2026-04-19T16:43:50.584Z</time></trkpt><trkpt lat="44.24768141693774" lon="11.193860329300245"><ele>361.0</ele><time>2026-04-19T16:43:51.588Z</time></trkpt><trkpt lat="44.24865810292268" lon="11.194037461204779"><ele>365.0</ele><time>2026-04-19T16:43:52.583Z</time></trkpt><trkpt lat="44.24965024076745" lon="11.194099641882065"><ele>366.0</ele><time>2026-04-19T16:43:53.587Z</time></trkpt><trkpt lat="44.25064000614146" lon="11.194056101781221"><ele>357.0</ele><time>2026-04-19T16:43:54.588Z</time></trkpt><trkpt lat="44.251622080496155" lon="11.193886269104517"><ele>341.0</ele><time>2026-04-19T16:43:55.588Z</time></trkpt><trkpt lat="44.25259182073618" lon="11.193608398707724"><ele>328.0</ele><time>2026-04-19T16:43:56.588Z</time></trkpt><trkpt lat="44.253538460764005" lon="11.193212838867723"><ele>320.0</ele><time>2026-04-19T16:43:57.587Z</time></trkpt><trkpt lat="44.254466295430696" lon="11.192728006007943"><ele>310.0</ele><time>2026-04-19T16:43:58.588Z</time></trkpt><trkpt lat="44.255374100081575" lon="11.192178875657088"><ele>303.0</ele><time>2026-04-19T16:43:59.588Z</time></trkpt><trkpt lat="44.25627055985224" lon="11.191595736848178"><ele>293.0</ele><time>2026-04-19T16:44:00.588Z</time></trkpt><trkpt lat="44.2571655247547" lon="11.191005954404126"><ele>276.0</ele><time>2026-04-19T16:44:01.588Z</time></trkpt><trkpt lat="44.25806030447527" lon="11.190416696651846"><ele>243.0</ele><time>2026-04-19T16:44:02.588Z</time></trkpt><trkpt lat="44.25945581373368" lon="11.189579909459795"><ele>243.0</ele><time>2026-04-19T16:44:54.001Z</time></trkpt><trkpt lat="44.25970142025673" lon="11.18941963384938"><ele>243.0</ele><time>2026-04-19T16:44:55.001Z</time></trkpt><trkpt lat="44.25989956180385" lon="11.189271996105127"><ele>241.5</ele><time>2026-04-19T16:44:56.001Z</time></trkpt><trkpt lat="44.26013747516609" lon="11.189099017822913"><ele>240.0</ele><time>2026-04-19T16:44:57.001Z</time></trkpt><trkpt lat="44.26037896989599" lon="11.188933624043619"><ele>239.0</ele><time>2026-04-19T16:44:58.001Z</time></trkpt><trkpt lat="44.26062276787921" lon="11.188787877216104"><ele>238.0</ele><time>2026-04-19T16:44:59.001Z</time></trkpt><trkpt lat="44.26086265864995" lon="11.188648683494243"><ele>238.0</ele><time>2026-04-19T16:45:00.001Z</time></trkpt><trkpt lat="44.26110446015614" lon="11.188508125721693"><ele>238.0</ele><time>2026-04-19T16:45:01.001Z</time></trkpt><trkpt lat="44.26134648125744" lon="11.188371958575518"><ele>237.5</ele><time>2026-04-19T16:45:02.001Z</time></trkpt><trkpt lat="44.26158816046426" lon="11.188233510132223"><ele>237.0</ele><time>2026-04-19T16:45:03.001Z</time></trkpt><trkpt lat="44.261833820397975" lon="11.188110386467052"><ele>237.0</ele><time>2026-04-19T16:45:04.001Z</time></trkpt><trkpt lat="44.26208081657771" lon="11.187986140729313"><ele>237.0</ele><time>2026-04-19T16:45:05.001Z</time></trkpt><trkpt lat="44.262327392887606" lon="11.187862345498743"><ele>235.5</ele><time>2026-04-19T16:45:06.001Z</time></trkpt><trkpt lat="44.26257908016431" lon="11.18777134980226"><ele>234.0</ele><time>2026-04-19T16:45:07.001Z</time></trkpt><trkpt lat="44.262834148053194" lon="11.187681621237674"><ele>234.0</ele><time>2026-04-19T16:45:08.001Z</time></trkpt><trkpt lat="44.26308907084844" lon="11.187595677725687"><ele>234.0</ele><time>2026-04-19T16:45:09.001Z</time></trkpt><trkpt lat="44.26334047688766" lon="11.187525151193011"><ele>233.5</ele><time>2026-04-19T16:45:10.001Z</time></trkpt><trkpt lat="44.26359082984894" lon="11.187450288666748"><ele>233.0</ele><time>2026-04-19T16:45:11.001Z</time></trkpt><trkpt lat="44.263852233159845" lon="11.18738648576815"><ele>233.5</ele><time>2026-04-19T16:45:12.001Z</time></trkpt><trkpt lat="44.26410742133445" lon="11.187342399671174"><ele>234.0</ele><time>2026-04-19T16:45:13.001Z</time></trkpt><trkpt lat="44.26437152892496" lon="11.187313027470557"><ele>234.0</ele><time>2026-04-19T16:45:14.001Z</time></trkpt><trkpt lat="44.26463131878464" lon="11.187280200589523"><ele>234.0</ele><time>2026-04-19T16:45:15.001Z</time></trkpt><trkpt lat="44.2648922873025" lon="11.187287489510098"><ele>235.0</ele><time>2026-04-19T16:45:16.001Z</time></trkpt><trkpt lat="44.26515424225573" lon="11.187282619651969"><ele>236.0</ele><time>2026-04-19T16:45:17.001Z</time></trkpt><trkpt lat="44.26541622775785" lon="11.18729355293827"><ele>237.5</ele><time>2026-04-19T16:45:18.001Z</time></trkpt><trkpt lat="44.265674579279256" lon="11.187337079037572"><ele>239.0</ele><time>2026-04-19T16:45:19.001Z</time></trkpt><trkpt lat="44.26593601838104" lon="11.18736627611292"><ele>235.5</ele><time>2026-04-19T16:45:20.001Z</time></trkpt><trkpt lat="44.266194996511494" lon="11.18741109913794"><ele>232.0</ele><time>2026-04-19T16:45:21.001Z</time></trkpt><trkpt lat="44.266454798765196" lon="11.187468500460175"><ele>232.0</ele><time>2026-04-19T16:45:22.001Z</time></trkpt><trkpt lat="44.266710658047366" lon="11.18753715041948"><ele>232.0</ele><time>2026-04-19T16:45:23.001Z</time></trkpt><trkpt lat="44.26696598050668" lon="11.187612533756884"><ele>232.0</ele><time>2026-04-19T16:45:24.001Z</time></trkpt><trkpt lat="44.267219066208135" lon="11.187699040799556"><ele>232.0</ele><time>2026-04-19T16:45:25.001Z</time></trkpt><trkpt lat="44.26747257306318" lon="11.187793077581938"><ele>232.0</ele><time>2026-04-19T16:45:26.001Z</time></trkpt><trkpt lat="44.26772245529158" lon="11.187898829183945"><ele>232.0</ele><time>2026-04-19T16:45:27.001Z</time></trkpt><trkpt lat="44.26797079838862" lon="11.188013217668466"><ele>231.5</ele><time>2026-04-19T16:45:28.001Z</time></trkpt><trkpt lat="44.268215685807995" lon="11.188139229301111"><ele>231.0</ele><time>2026-04-19T16:45:29.001Z</time></trkpt><trkpt lat="44.26845725434306" lon="11.188282251700281"><ele>231.0</ele><time>2026-04-19T16:45:30.001Z</time></trkpt><trkpt lat="44.26869772705611" lon="11.188428391056672"><ele>231.0</ele><time>2026-04-19T16:45:31.001Z</time></trkpt><trkpt lat="44.26893177836171" lon="11.188588523200917"><ele>234.5</ele><time>2026-04-19T16:45:32.001Z</time></trkpt><trkpt lat="44.26916344461201" lon="11.18875685271998"><ele>238.0</ele><time>2026-04-19T16:45:33.001Z</time></trkpt><trkpt lat="44.26939209911899" lon="11.188933383059576"><ele>236.5</ele><time>2026-04-19T16:45:34.001Z</time></trkpt><trkpt lat="44.26961902228488" lon="11.189120491963699"><ele>235.0</ele><time>2026-04-19T16:45:35.001Z</time></trkpt><trkpt lat="44.26984185989146" lon="11.189308902242702"><ele>235.0</ele><time>2026-04-19T16:45:36.001Z</time></trkpt><trkpt lat="44.27006051701236" lon="11.189505507492575"><ele>235.0</ele><time>2026-04-19T16:45:37.001Z</time></trkpt><trkpt lat="44.27027770011657" lon="11.189710866618698"><ele>233.0</ele><time>2026-04-19T16:45:38.001Z</time></trkpt><trkpt lat="44.27049217346713" lon="11.189919577399026"><ele>231.0</ele><time>2026-04-19T16:45:39.001Z</time></trkpt><trkpt lat="44.27070303008165" lon="11.190134991989293"><ele>231.0</ele><time>2026-04-19T16:45:40.001Z</time></trkpt><trkpt lat="44.270912318255455" lon="11.190353494618263"><ele>231.0</ele><time>2026-04-19T16:45:41.001Z</time></trkpt><trkpt lat="44.27112160748596" lon="11.190574358242026"><ele>230.5</ele><time>2026-04-19T16:45:42.001Z</time></trkpt><trkpt lat="44.27132923464304" lon="11.190793530925804"><ele>230.0</ele><time>2026-04-19T16:45:43.001Z</time></trkpt><trkpt lat="44.27153622109597" lon="11.191017865381614"><ele>231.5</ele><time>2026-04-19T16:45:44.001Z</time></trkpt><trkpt lat="44.27173825411118" lon="11.19124727480486"><ele>233.0</ele><time>2026-04-19T16:45:45.001Z</time></trkpt><trkpt lat="44.27194321791663" lon="11.19147232027393"><ele>235.0</ele><time>2026-04-19T16:45:46.001Z</time></trkpt><trkpt lat="44.27214712553074" lon="11.19170336981551"><ele>237.0</ele><time>2026-04-19T16:45:47.001Z</time></trkpt><trkpt lat="44.27234820217759" lon="11.191935150144001"><ele>237.0</ele><time>2026-04-19T16:45:48.001Z</time></trkpt><trkpt lat="44.27254860428224" lon="11.192168702443272"><ele>237.0</ele><time>2026-04-19T16:45:49.001Z</time></trkpt><trkpt lat="44.27275070292361" lon="11.192400888917357"><ele>237.0</ele><time>2026-04-19T16:45:50.001Z</time></trkpt><trkpt lat="44.27295218244257" lon="11.192632358024355"><ele>237.0</ele><time>2026-04-19T16:45:51.001Z</time></trkpt><trkpt lat="44.27315384044687" lon="11.192864331310554"><ele>237.0</ele><time>2026-04-19T16:45:52.001Z</time></trkpt><trkpt lat="44.27335718716188" lon="11.193093103380122"><ele>237.0</ele><time>2026-04-19T16:45:53.001Z</time></trkpt><trkpt lat="44.27356252668993" lon="11.1933200596667"><ele>232.0</ele><time>2026-04-19T16:45:54.001Z</time></trkpt><trkpt lat="44.27376750780174" lon="11.193544408887435"><ele>227.0</ele><time>2026-04-19T16:45:55.001Z</time></trkpt><trkpt lat="44.27397878713689" lon="11.193760481755437"><ele>232.0</ele><time>2026-04-19T16:45:56.001Z</time></trkpt><trkpt lat="44.27419260774885" lon="11.193972929722715"><ele>237.0</ele><time>2026-04-19T16:45:57.001Z</time></trkpt><trkpt lat="44.274408335906806" lon="11.19418127247048"><ele>237.0</ele><time>2026-04-19T16:45:58.001Z</time></trkpt><trkpt lat="44.27462865780752" lon="11.194372329610985"><ele>237.0</ele><time>2026-04-19T16:45:59.001Z</time></trkpt><trkpt lat="44.2748595537086" lon="11.194555330655406"><ele>242.0</ele><time>2026-04-19T16:46:00.001Z</time></trkpt><trkpt lat="44.27508557575002" lon="11.194743699515174"><ele>247.0</ele><time>2026-04-19T16:46:01.001Z</time></trkpt><trkpt lat="44.275311477800884" lon="11.194940887112146"><ele>247.0</ele><time>2026-04-19T16:46:02.001Z</time></trkpt><trkpt lat="44.27553973539653" lon="11.195129273686522"><ele>247.0</ele><time>2026-04-19T16:46:03.001Z</time></trkpt><trkpt lat="44.275770537817195" lon="11.195314630215664"><ele>248.5</ele><time>2026-04-19T16:46:04.001Z</time></trkpt><trkpt lat="44.276014130616495" lon="11.195513975238454"><ele>250.0</ele><time>2026-04-19T16:46:05.066Z</time></trkpt><trkpt lat="44.27624050631015" lon="11.195707670681438"><ele>244.0</ele><time>2026-04-19T16:46:06.06Z</time></trkpt><trkpt lat="44.27643216569856" lon="11.195870933109031"><ele>238.0</ele><time>2026-04-19T16:46:07.001Z</time></trkpt><trkpt lat="44.27673095975399" lon="11.195832227897004"><ele>238.0</ele><time>2026-04-19T16:46:08.001Z</time></trkpt><trkpt lat="44.27697559205153" lon="11.195961254243745"><ele>238.0</ele><time>2026-04-19T16:46:09.001Z</time></trkpt><trkpt lat="44.27722377619069" lon="11.196066771875657"><ele>239.0</ele><time>2026-04-19T16:46:10.001Z</time></trkpt><trkpt lat="44.27747496458469" lon="11.196180550583815"><ele>240.0</ele><time>2026-04-19T16:46:11.001Z</time></trkpt><trkpt lat="44.27772978108697" lon="11.196288700755776"><ele>240.0</ele><time>2026-04-19T16:46:12.001Z</time></trkpt><trkpt lat="44.27798084666905" lon="11.196397998821231"><ele>240.0</ele><time>2026-04-19T16:46:13.001Z</time></trkpt><trkpt lat="44.27823087264754" lon="11.196506155129505"><ele>233.5</ele><time>2026-04-19T16:46:14.001Z</time></trkpt><trkpt lat="44.27847339707352" lon="11.196615647803199"><ele>227.0</ele><time>2026-04-19T16:46:15.001Z</time></trkpt><trkpt lat="44.27871207681156" lon="11.196725370867885"><ele>230.5</ele><time>2026-04-19T16:46:16.001Z</time></trkpt><trkpt lat="44.278947460332624" lon="11.196838185014272"><ele>234.0</ele><time>2026-04-19T16:46:17.001Z</time></trkpt><trkpt lat="44.27918351250715" lon="11.19695140217188"><ele>234.0</ele><time>2026-04-19T16:46:18.001Z</time></trkpt><trkpt lat="44.27942199795699" lon="11.197066512194"><ele>234.0</ele><time>2026-04-19T16:46:19.001Z</time></trkpt><trkpt lat="44.279660653069776" lon="11.197187079789877"><ele>236.5</ele><time>2026-04-19T16:46:20.001Z</time></trkpt><trkpt lat="44.27989312206575" lon="11.197307663540947"><ele>239.0</ele><time>2026-04-19T16:46:21.001Z</time></trkpt><trkpt lat="44.28013508221361" lon="11.197436591506206"><ele>232.5</ele><time>2026-04-19T16:46:22.001Z</time></trkpt><trkpt lat="44.280367122253956" lon="11.197578655124701"><ele>226.0</ele><time>2026-04-19T16:46:23.001Z</time></trkpt><trkpt lat="44.280599007768586" lon="11.197725971393385"><ele>229.5</ele><time>2026-04-19T16:46:24.001Z</time></trkpt><trkpt lat="44.28082721829369" lon="11.19788095384216"><ele>233.0</ele><time>2026-04-19T16:46:25.001Z</time></trkpt><trkpt lat="44.28105264624589" lon="11.198044832126435"><ele>235.0</ele><time>2026-04-19T16:46:26.001Z</time></trkpt><trkpt lat="44.281274758956634" lon="11.19821730768903"><ele>237.0</ele><time>2026-04-19T16:46:27.001Z</time></trkpt><trkpt lat="44.281491125753256" lon="11.198401643317695"><ele>237.0</ele><time>2026-04-19T16:46:28.001Z</time></trkpt><trkpt lat="44.28170353571032" lon="11.19859406009382"><ele>237.0</ele><time>2026-04-19T16:46:29.001Z</time></trkpt><trkpt lat="44.28191430950383" lon="11.198791824416052"><ele>237.0</ele><time>2026-04-19T16:46:30.001Z</time></trkpt><trkpt lat="44.282121060337936" lon="11.198983520743543"><ele>237.0</ele><time>2026-04-19T16:46:31.001Z</time></trkpt><trkpt lat="44.28233321603011" lon="11.199193571351486"><ele>235.0</ele><time>2026-04-19T16:46:32.001Z</time></trkpt><trkpt lat="44.28253214729907" lon="11.19942287911885"><ele>233.0</ele><time>2026-04-19T16:46:33.001Z</time></trkpt><trkpt lat="44.28273395076908" lon="11.199626786871065"><ele>230.0</ele><time>2026-04-19T16:46:34.001Z</time></trkpt><trkpt lat="44.282932766940334" lon="11.199844450338189"><ele>227.0</ele><time>2026-04-19T16:46:35.001Z</time></trkpt><trkpt lat="44.283131299548955" lon="11.200082091483706"><ele>237.0</ele><time>2026-04-19T16:46:36.001Z</time></trkpt><trkpt lat="44.283326993528135" lon="11.200317525471382"><ele>247.0</ele><time>2026-04-19T16:46:37.001Z</time></trkpt><trkpt lat="44.283521813342794" lon="11.200552451977744"><ele>243.0</ele><time>2026-04-19T16:46:38.001Z</time></trkpt><trkpt lat="44.28371698377664" lon="11.200790480013655"><ele>239.0</ele><time>2026-04-19T16:46:39.001Z</time></trkpt><trkpt lat="44.28390400123248" lon="11.201017305729914"><ele>242.0</ele><time>2026-04-19T16:46:40.001Z</time></trkpt><trkpt lat="44.28409704495495" lon="11.201255847586927"><ele>245.0</ele><time>2026-04-19T16:46:41.001Z</time></trkpt><trkpt lat="44.284291422459404" lon="11.201492105209624"><ele>239.0</ele><time>2026-04-19T16:46:42.001Z</time></trkpt><trkpt lat="44.28448466091745" lon="11.201728779529958"><ele>233.0</ele><time>2026-04-19T16:46:43.001Z</time></trkpt><trkpt lat="44.28467565430657" lon="11.201967658073277"><ele>235.0</ele><time>2026-04-19T16:46:44.001Z</time></trkpt><trkpt lat="44.28486539561637" lon="11.202206486728054"><ele>237.0</ele><time>2026-04-19T16:46:45.001Z</time></trkpt><trkpt lat="44.28507892401938" lon="11.202200334919235"><ele>235.0</ele><time>2026-04-19T16:46:46.001Z</time></trkpt><trkpt lat="44.2852747827555" lon="11.20241223661517"><ele>233.0</ele><time>2026-04-19T16:46:47.001Z</time></trkpt><trkpt lat="44.28578525555797" lon="11.202910693033372"><ele>233.0</ele><time>2026-04-19T16:46:48.001Z</time></trkpt><trkpt lat="44.28600520186768" lon="11.20314149722666"><ele>233.0</ele><time>2026-04-19T16:46:49.001Z</time></trkpt><trkpt lat="44.28588240887466" lon="11.20310284745725"><ele>233.0</ele><time>2026-04-19T16:46:50.001Z</time></trkpt><trkpt lat="44.28608399139054" lon="11.20333285655191"><ele>233.5</ele><time>2026-04-19T16:46:51.001Z</time></trkpt><trkpt lat="44.28628136949937" lon="11.20355892641125"><ele>234.0</ele><time>2026-04-19T16:46:52.001Z</time></trkpt><trkpt lat="44.28647831616016" lon="11.203777850639396"><ele>225.5</ele><time>2026-04-19T16:46:53.001Z</time></trkpt><trkpt lat="44.28667523375934" lon="11.203997218947084"><ele>217.0</ele><time>2026-04-19T16:46:54.001Z</time></trkpt><trkpt lat="44.28687327519371" lon="11.204212652080885"><ele>217.0</ele><time>2026-04-19T16:46:55.001Z</time></trkpt><trkpt lat="44.287071625097504" lon="11.204428744352658"><ele>217.0</ele><time>2026-04-19T16:46:56.001Z</time></trkpt><trkpt lat="44.28726788589827" lon="11.204650490137753"><ele>218.5</ele><time>2026-04-19T16:46:57.001Z</time></trkpt><trkpt lat="44.28746288296036" lon="11.204877776318634"><ele>220.0</ele><time>2026-04-19T16:46:58.001Z</time></trkpt><trkpt lat="44.28764656215763" lon="11.205127131621264"><ele>220.0</ele><time>2026-04-19T16:46:59.001Z</time></trkpt><trkpt lat="44.287817943254936" lon="11.20539311085817"><ele>220.0</ele><time>2026-04-19T16:47:00.001Z</time></trkpt><trkpt lat="44.28800338398609" lon="11.205675486882697"><ele>225.5</ele><time>2026-04-19T16:47:01.001Z</time></trkpt><trkpt lat="44.288156749593995" lon="11.205959639612026"><ele>231.0</ele><time>2026-04-19T16:47:02.001Z</time></trkpt><trkpt lat="44.288297388807145" lon="11.206254555892686"><ele>222.5</ele><time>2026-04-19T16:47:03.001Z</time></trkpt><trkpt lat="44.288421704902206" lon="11.206559429961528"><ele>214.0</ele><time>2026-04-19T16:47:04.001Z</time></trkpt><trkpt lat="44.28853973760126" lon="11.206874950777454"><ele>214.0</ele><time>2026-04-19T16:47:05.001Z</time></trkpt><trkpt lat="44.28865551314417" lon="11.20718655207658"><ele>214.0</ele><time>2026-04-19T16:47:06.001Z</time></trkpt><trkpt lat="44.28877167960794" lon="11.207499727579153"><ele>211.0</ele><time>2026-04-19T16:47:07.001Z</time></trkpt><trkpt lat="44.288883810524375" lon="11.207812083668744"><ele>208.0</ele><time>2026-04-19T16:47:08.001Z</time></trkpt><trkpt lat="44.28900025311392" lon="11.208133997328842"><ele>210.0</ele><time>2026-04-19T16:47:09.001Z</time></trkpt><trkpt lat="44.28914912609731" lon="11.208415309805272"><ele>212.0</ele><time>2026-04-19T16:47:10.001Z</time></trkpt><trkpt lat="44.289305502767974" lon="11.208697157656706"><ele>212.0</ele><time>2026-04-19T16:47:11.001Z</time></trkpt><trkpt lat="44.289464205248954" lon="11.208973361231706"><ele>212.0</ele><time>2026-04-19T16:47:12.001Z</time></trkpt><trkpt lat="44.2896420189078" lon="11.209237073576963"><ele>207.5</ele><time>2026-04-19T16:47:13.001Z</time></trkpt><trkpt lat="44.28983122522372" lon="11.209475544294332"><ele>203.0</ele><time>2026-04-19T16:47:14.001Z</time></trkpt><trkpt lat="44.29002926622046" lon="11.209700524763049"><ele>202.0</ele><time>2026-04-19T16:47:15.001Z</time></trkpt><trkpt lat="44.29023357901871" lon="11.209907905442723"><ele>201.0</ele><time>2026-04-19T16:47:16.001Z</time></trkpt><trkpt lat="44.29044373595364" lon="11.210104769109739"><ele>203.5</ele><time>2026-04-19T16:47:17.001Z</time></trkpt><trkpt lat="44.290650282418476" lon="11.210307154417832"><ele>206.0</ele><time>2026-04-19T16:47:18.001Z</time></trkpt><trkpt lat="44.290858369197096" lon="11.210512186693997"><ele>205.5</ele><time>2026-04-19T16:47:19.001Z</time></trkpt><trkpt lat="44.291065276701474" lon="11.210718831725403"><ele>205.0</ele><time>2026-04-19T16:47:20.001Z</time></trkpt><trkpt lat="44.29126875034363" lon="11.21092889480302"><ele>205.5</ele><time>2026-04-19T16:47:21.001Z</time></trkpt><trkpt lat="44.291467985717986" lon="11.21114598408636"><ele>206.0</ele><time>2026-04-19T16:47:22.001Z</time></trkpt><trkpt lat="44.291662271320305" lon="11.21137032466669"><ele>203.5</ele><time>2026-04-19T16:47:23.001Z</time></trkpt><trkpt lat="44.29185008944362" lon="11.211605731135117"><ele>201.0</ele><time>2026-04-19T16:47:24.001Z</time></trkpt><trkpt lat="44.29203201060005" lon="11.211851039442141"><ele>201.0</ele><time>2026-04-19T16:47:25.001Z</time></trkpt><trkpt lat="44.2922069538621" lon="11.212107212002417"><ele>201.0</ele><time>2026-04-19T16:47:26.001Z</time></trkpt><trkpt lat="44.29236752663831" lon="11.21238047681438"><ele>204.5</ele><time>2026-04-19T16:47:27.001Z</time></trkpt><trkpt lat="44.29252435720424" lon="11.212659134879747"><ele>208.0</ele><time>2026-04-19T16:47:28.001Z</time></trkpt><trkpt lat="44.292672673003544" lon="11.212947624125063"><ele>204.0</ele><time>2026-04-19T16:47:29.001Z</time></trkpt><trkpt lat="44.29281246014931" lon="11.213244058818756"><ele>200.0</ele><time>2026-04-19T16:47:30.001Z</time></trkpt><trkpt lat="44.29294181353424" lon="11.213550016992176"><ele>200.0</ele><time>2026-04-19T16:47:31.001Z</time></trkpt><trkpt lat="44.29305951741781" lon="11.213865537726212"><ele>200.0</ele><time>2026-04-19T16:47:32.001Z</time></trkpt><trkpt lat="44.29316842191508" lon="11.214184975090838"><ele>202.5</ele><time>2026-04-19T16:47:33.001Z</time></trkpt><trkpt lat="44.2932701354497" lon="11.214508977934559"><ele>205.0</ele><time>2026-04-19T16:47:34.001Z</time></trkpt><trkpt lat="44.29336795908358" lon="11.214835999719563"><ele>205.0</ele><time>2026-04-19T16:47:35.001Z</time></trkpt><trkpt lat="44.293459630641316" lon="11.21516608368771"><ele>205.0</ele><time>2026-04-19T16:47:36.001Z</time></trkpt><trkpt lat="44.29354716964645" lon="11.215497084443921"><ele>203.5</ele><time>2026-04-19T16:47:37.001Z</time></trkpt><trkpt lat="44.2936342497049" lon="11.215828049816407"><ele>202.0</ele><time>2026-04-19T16:47:38.001Z</time></trkpt><trkpt lat="44.29371873156325" lon="11.21616065799489"><ele>200.0</ele><time>2026-04-19T16:47:39.001Z</time></trkpt><trkpt lat="44.293803073539806" lon="11.216493808363731"><ele>198.0</ele><time>2026-04-19T16:47:40.001Z</time></trkpt><trkpt lat="44.293886324689765" lon="11.216825896379035"><ele>201.0</ele><time>2026-04-19T16:47:41.001Z</time></trkpt><trkpt lat="44.29396991018581" lon="11.217157335557507"><ele>204.0</ele><time>2026-04-19T16:47:42.001Z</time></trkpt><trkpt lat="44.29405434032109" lon="11.217488545791895"><ele>204.0</ele><time>2026-04-19T16:47:43.001Z</time></trkpt><trkpt lat="44.29413815070275" lon="11.217819591744576"><ele>204.0</ele><time>2026-04-19T16:47:44.001Z</time></trkpt><trkpt lat="44.294223091671114" lon="11.218150670916023"><ele>203.0</ele><time>2026-04-19T16:47:45.001Z</time></trkpt><trkpt lat="44.29430856919477" lon="11.21848217294567"><ele>202.0</ele><time>2026-04-19T16:47:46.001Z</time></trkpt><trkpt lat="44.29439517851298" lon="11.218814525201338"><ele>198.5</ele><time>2026-04-19T16:47:47.001Z</time></trkpt><trkpt lat="44.29448113324762" lon="11.219146197056208"><ele>195.0</ele><time>2026-04-19T16:47:48.001Z</time></trkpt><trkpt lat="44.29456829044607" lon="11.219478251712554"><ele>195.0</ele><time>2026-04-19T16:47:49.001Z</time></trkpt><trkpt lat="44.29465388326217" lon="11.219808666737912"><ele>195.0</ele><time>2026-04-19T16:47:50.001Z</time></trkpt><trkpt lat="44.29473694067942" lon="11.220144602074395"><ele>198.5</ele><time>2026-04-19T16:47:51.001Z</time></trkpt><trkpt lat="44.294821435787476" lon="11.220475706337737"><ele>202.0</ele><time>2026-04-19T16:47:52.001Z</time></trkpt><trkpt lat="44.294905495317245" lon="11.220808405107798"><ele>203.0</ele><time>2026-04-19T16:47:53.001Z</time></trkpt><trkpt lat="44.29499025360143" lon="11.221141917836514"><ele>204.0</ele><time>2026-04-19T16:47:54.001Z</time></trkpt><trkpt lat="44.295072793051446" lon="11.221475981812008"><ele>204.0</ele><time>2026-04-19T16:47:55.001Z</time></trkpt><trkpt lat="44.29515756067758" lon="11.221808008322585"><ele>204.0</ele><time>2026-04-19T16:47:56.001Z</time></trkpt><trkpt lat="44.295238297100404" lon="11.222143816069647"><ele>202.5</ele><time>2026-04-19T16:47:57.001Z</time></trkpt><trkpt lat="44.295318719733864" lon="11.222478476787607"><ele>201.0</ele><time>2026-04-19T16:47:58.001Z</time></trkpt><trkpt lat="44.29539402073212" lon="11.222814419962369"><ele>198.0</ele><time>2026-04-19T16:47:59.001Z</time></trkpt><trkpt lat="44.295470104820424" lon="11.223150380616202"><ele>195.0</ele><time>2026-04-19T16:48:00.001Z</time></trkpt><trkpt lat="44.295547493013906" lon="11.223487758806376"><ele>201.0</ele><time>2026-04-19T16:48:01.001Z</time></trkpt><trkpt lat="44.29562468968213" lon="11.22382448889413"><ele>207.0</ele><time>2026-04-19T16:48:02.001Z</time></trkpt><trkpt lat="44.29570168789833" lon="11.224160060733064"><ele>207.0</ele><time>2026-04-19T16:48:03.001Z</time></trkpt><trkpt lat="44.295779397330165" lon="11.22449579570061"><ele>207.0</ele><time>2026-04-19T16:48:04.001Z</time></trkpt><trkpt lat="44.295855867425075" lon="11.22483106552143"><ele>204.5</ele><time>2026-04-19T16:48:05.001Z</time></trkpt><trkpt lat="44.29593265758983" lon="11.225167568520808"><ele>202.0</ele><time>2026-04-19T16:48:06.001Z</time></trkpt><trkpt lat="44.29601071359945" lon="11.225502861471526"><ele>200.0</ele><time>2026-04-19T16:48:07.001Z</time></trkpt><trkpt lat="44.296090405291736" lon="11.225837350961868"><ele>198.0</ele><time>2026-04-19T16:48:08.001Z</time></trkpt><trkpt lat="44.29617245702257" lon="11.226173203373893"><ele>197.5</ele><time>2026-04-19T16:48:09.001Z</time></trkpt><trkpt lat="44.29625560966364" lon="11.22650498357574"><ele>197.0</ele><time>2026-04-19T16:48:10.001Z</time></trkpt><trkpt lat="44.29633813753489" lon="11.226838703794252"><ele>201.0</ele><time>2026-04-19T16:48:11.001Z</time></trkpt><trkpt lat="44.29642010631786" lon="11.227172378675434"><ele>205.0</ele><time>2026-04-19T16:48:12.001Z</time></trkpt><trkpt lat="44.296500395758315" lon="11.227507155555005"><ele>205.0</ele><time>2026-04-19T16:48:13.001Z</time></trkpt><trkpt lat="44.29658293194826" lon="11.227845995959635"><ele>205.0</ele><time>2026-04-19T16:48:14.001Z</time></trkpt><trkpt lat="44.29666303431068" lon="11.228187349931746"><ele>201.0</ele><time>2026-04-19T16:48:15.001Z</time></trkpt><trkpt lat="44.29674475229046" lon="11.228527440673114"><ele>197.0</ele><time>2026-04-19T16:48:16.001Z</time></trkpt><trkpt lat="44.296825346721725" lon="11.228867760517907"><ele>195.0</ele><time>2026-04-19T16:48:17.001Z</time></trkpt><trkpt lat="44.2969042975478" lon="11.229206374952344"><ele>193.0</ele><time>2026-04-19T16:48:18.001Z</time></trkpt><trkpt lat="44.296982277838445" lon="11.229545378187774"><ele>192.0</ele><time>2026-04-19T16:48:19.001Z</time></trkpt><trkpt lat="44.29706001032358" lon="11.229884189874419"><ele>191.0</ele><time>2026-04-19T16:48:20.001Z</time></trkpt><trkpt lat="44.29713548129695" lon="11.23022387802796"><ele>191.0</ele><time>2026-04-19T16:48:21.001Z</time></trkpt><trkpt lat="44.2972107602596" lon="11.230564032174428"><ele>191.0</ele><time>2026-04-19T16:48:22.001Z</time></trkpt><trkpt lat="44.29728396855083" lon="11.230904953248073"><ele>196.5</ele><time>2026-04-19T16:48:23.001Z</time></trkpt><trkpt lat="44.29735481459568" lon="11.231248451361699"><ele>202.0</ele><time>2026-04-19T16:48:24.001Z</time></trkpt><trkpt lat="44.297423542824454" lon="11.231592012845692"><ele>202.0</ele><time>2026-04-19T16:48:25.001Z</time></trkpt><trkpt lat="44.29748825248504" lon="11.231938638151762"><ele>202.0</ele><time>2026-04-19T16:48:26.001Z</time></trkpt><trkpt lat="44.297552123537606" lon="11.23228501164619"><ele>199.5</ele><time>2026-04-19T16:48:27.001Z</time></trkpt><trkpt lat="44.297612690757525" lon="11.23263382255947"><ele>197.0</ele><time>2026-04-19T16:48:28.001Z</time></trkpt><trkpt lat="44.29766985600288" lon="11.232982772876742"><ele>196.5</ele><time>2026-04-19T16:48:29.001Z</time></trkpt><trkpt lat="44.297724900442695" lon="11.233332714056088"><ele>196.0</ele><time>2026-04-19T16:48:30.001Z</time></trkpt><trkpt lat="44.29778013326465" lon="11.23368189574469"><ele>196.5</ele><time>2026-04-19T16:48:31.001Z</time></trkpt><trkpt lat="44.2978353900218" lon="11.234031841983972"><ele>197.0</ele><time>2026-04-19T16:48:32.001Z</time></trkpt><trkpt lat="44.29788957902896" lon="11.234383273141798"><ele>197.0</ele><time>2026-04-19T16:48:33.001Z</time></trkpt><trkpt lat="44.297944695916776" lon="11.23473259553883"><ele>197.0</ele><time>2026-04-19T16:48:34.001Z</time></trkpt><trkpt lat="44.29799992439776" lon="11.235083290765484"><ele>197.0</ele><time>2026-04-19T16:48:35.001Z</time></trkpt><trkpt lat="44.29805396654553" lon="11.235434130624272"><ele>197.0</ele><time>2026-04-19T16:48:36.001Z</time></trkpt><trkpt lat="44.2981085093134" lon="11.235787019446748"><ele>198.0</ele><time>2026-04-19T16:48:37.001Z</time></trkpt><trkpt lat="44.298163341232446" lon="11.236140258513169"><ele>199.0</ele><time>2026-04-19T16:48:38.001Z</time></trkpt><trkpt lat="44.298217977273666" lon="11.236494864289508"><ele>199.0</ele><time>2026-04-19T16:48:39.001Z</time></trkpt><trkpt lat="44.29826063139451" lon="11.23684543688452"><ele>199.0</ele><time>2026-04-19T16:48:40.001Z</time></trkpt><trkpt lat="44.298308513386566" lon="11.237200007483912"><ele>197.5</ele><time>2026-04-19T16:48:41.001Z</time></trkpt><trkpt lat="44.29835991865505" lon="11.237555882483491"><ele>196.0</ele><time>2026-04-19T16:48:42.001Z</time></trkpt><trkpt lat="44.29840971076618" lon="11.237913729609796"><ele>193.0</ele><time>2026-04-19T16:48:43.001Z</time></trkpt><trkpt lat="44.29864794301698" lon="11.238191054832397"><ele>190.0</ele><time>2026-04-19T16:48:44.001Z</time></trkpt><trkpt lat="44.298765205632066" lon="11.238512210880124"><ele>190.0</ele><time>2026-04-19T16:48:45.001Z</time></trkpt><trkpt lat="44.298889593094465" lon="11.238828757195753"><ele>190.0</ele><time>2026-04-19T16:48:46.001Z</time></trkpt><trkpt lat="44.29902460057879" lon="11.239138751087733"><ele>193.5</ele><time>2026-04-19T16:48:47.001Z</time></trkpt><trkpt lat="44.29917292843414" lon="11.239439172155612"><ele>197.0</ele><time>2026-04-19T16:48:48.001Z</time></trkpt><trkpt lat="44.29934019448306" lon="11.239738262999895"><ele>194.0</ele><time>2026-04-19T16:48:49.001Z</time></trkpt><trkpt lat="44.299524675263804" lon="11.240037787601931"><ele>191.0</ele><time>2026-04-19T16:48:50.001Z</time></trkpt><trkpt lat="44.29971843963285" lon="11.240323272241016"><ele>193.0</ele><time>2026-04-19T16:48:51.001Z</time></trkpt><trkpt lat="44.299920906522715" lon="11.240597598479633"><ele>195.0</ele><time>2026-04-19T16:48:52.001Z</time></trkpt><trkpt lat="44.30013805063225" lon="11.240868373668137"><ele>195.0</ele><time>2026-04-19T16:48:53.001Z</time></trkpt><trkpt lat="44.300364635829354" lon="11.241128637942237"><ele>195.0</ele><time>2026-04-19T16:48:54.001Z</time></trkpt><trkpt lat="44.300592019624666" lon="11.241374229528157"><ele>192.5</ele><time>2026-04-19T16:48:55.001Z</time></trkpt><trkpt lat="44.300817460629915" lon="11.241611014209624"><ele>190.0</ele><time>2026-04-19T16:48:56.001Z</time></trkpt><trkpt lat="44.30103766612359" lon="11.241843917317741"><ele>190.0</ele><time>2026-04-19T16:48:57.001Z</time></trkpt><trkpt lat="44.301252998178306" lon="11.242066144932664"><ele>190.0</ele><time>2026-04-19T16:48:58.001Z</time></trkpt><trkpt lat="44.30147238678216" lon="11.242288234556607"><ele>187.5</ele><time>2026-04-19T16:48:59.001Z</time></trkpt><trkpt lat="44.30167920635474" lon="11.242505794804593"><ele>185.0</ele><time>2026-04-19T16:49:00.001Z</time></trkpt><trkpt lat="44.30188181560058" lon="11.24272719928397"><ele>185.0</ele><time>2026-04-19T16:49:01.001Z</time></trkpt><trkpt lat="44.30208511309724" lon="11.242949166218935"><ele>185.0</ele><time>2026-04-19T16:49:02.001Z</time></trkpt><trkpt lat="44.30229143876581" lon="11.243171495791097"><ele>183.5</ele><time>2026-04-19T16:49:03.001Z</time></trkpt><trkpt lat="44.302491571285515" lon="11.243387170652882"><ele>182.0</ele><time>2026-04-19T16:49:04.001Z</time></trkpt><trkpt lat="44.30279723028834" lon="11.243615716764811"><ele>182.0</ele><time>2026-04-19T16:49:05.001Z</time></trkpt><trkpt lat="44.302984741099735" lon="11.243810770458156"><ele>182.0</ele><time>2026-04-19T16:49:06.001Z</time></trkpt><trkpt lat="44.30318448659465" lon="11.24402309650698"><ele>181.5</ele><time>2026-04-19T16:49:07.001Z</time></trkpt><trkpt lat="44.303379863521144" lon="11.244221998994758"><ele>181.0</ele><time>2026-04-19T16:49:08.001Z</time></trkpt><trkpt lat="44.30357055343394" lon="11.24441061400903"><ele>181.0</ele><time>2026-04-19T16:49:09.001Z</time></trkpt><trkpt lat="44.30376547543245" lon="11.244620571018121"><ele>181.0</ele><time>2026-04-19T16:49:10.001Z</time></trkpt><trkpt lat="44.303971506151335" lon="11.244829360508966"><ele>178.0</ele><time>2026-04-19T16:49:11.001Z</time></trkpt><trkpt lat="44.304174966938135" lon="11.24504324727648"><ele>175.0</ele><time>2026-04-19T16:49:12.001Z</time></trkpt><trkpt lat="44.304383346504494" lon="11.245258788227545"><ele>175.0</ele><time>2026-04-19T16:49:13.001Z</time></trkpt><trkpt lat="44.304588442952046" lon="11.245472000647787"><ele>175.0</ele><time>2026-04-19T16:49:14.001Z</time></trkpt><trkpt lat="44.30478062899129" lon="11.245671327080757"><ele>173.5</ele><time>2026-04-19T16:49:15.001Z</time></trkpt><trkpt lat="44.304972143339185" lon="11.245878437378915"><ele>172.0</ele><time>2026-04-19T16:49:16.001Z</time></trkpt><trkpt lat="44.30515389747706" lon="11.246076708605582"><ele>172.0</ele><time>2026-04-19T16:49:17.001Z</time></trkpt><trkpt lat="44.30532989692598" lon="11.24627689455267"><ele>172.0</ele><time>2026-04-19T16:49:18.001Z</time></trkpt><trkpt lat="44.305512446209256" lon="11.24647367124786"><ele>172.5</ele><time>2026-04-19T16:49:19.001Z</time></trkpt><trkpt lat="44.305693754833314" lon="11.246671947176196"><ele>173.0</ele><time>2026-04-19T16:49:20.001Z</time></trkpt><trkpt lat="44.3058773915204" lon="11.246870863492864"><ele>173.0</ele><time>2026-04-19T16:49:21.001Z</time></trkpt><trkpt lat="44.306059989711244" lon="11.247071586235165"><ele>173.0</ele><time>2026-04-19T16:49:22.001Z</time></trkpt><trkpt lat="44.306243559645424" lon="11.247273742410341"><ele>173.0</ele><time>2026-04-19T16:49:23.001Z</time></trkpt><trkpt lat="44.30644025539554" lon="11.247482598987435"><ele>173.0</ele><time>2026-04-19T16:49:24.001Z</time></trkpt><trkpt lat="44.306623459453256" lon="11.24768770236265"><ele>173.0</ele><time>2026-04-19T16:49:25.001Z</time></trkpt><trkpt lat="44.30679810710136" lon="11.247879733532118"><ele>173.0</ele><time>2026-04-19T16:49:26.001Z</time></trkpt><trkpt lat="44.3069672141072" lon="11.248070474165889"><ele>173.0</ele><time>2026-04-19T16:49:27.001Z</time></trkpt><trkpt lat="44.30714069787662" lon="11.248251375484452"><ele>179.0</ele><time>2026-04-19T16:49:28.001Z</time></trkpt><trkpt lat="44.307314064980176" lon="11.248432943029465"><ele>185.0</ele><time>2026-04-19T16:49:29.001Z</time></trkpt><trkpt lat="44.307491977623805" lon="11.248611174592561"><ele>191.0</ele><time>2026-04-19T16:49:30.001Z</time></trkpt><trkpt lat="44.30767184086929" lon="11.248787325774687"><ele>190.0</ele><time>2026-04-19T16:49:31.001Z</time></trkpt><trkpt lat="44.307843758478285" lon="11.248966643966375"><ele>189.0</ele><time>2026-04-19T16:49:32.001Z</time></trkpt><trkpt lat="44.30802356206912" lon="11.249138711336126"><ele>188.0</ele><time>2026-04-19T16:49:33.001Z</time></trkpt><trkpt lat="44.30820101569964" lon="11.24931638540611"><ele>193.33333333333331</ele><time>2026-04-19T16:49:34.001Z</time></trkpt><trkpt lat="44.30837882484178" lon="11.249490328829369"><ele>198.66666666666666</ele><time>2026-04-19T16:49:35.001Z</time></trkpt><trkpt lat="44.30856399930783" lon="11.249638083027524"><ele>204.0</ele><time>2026-04-19T16:49:36.001Z</time></trkpt><trkpt lat="44.30874907992947" lon="11.249772642513644"><ele>201.33333333333331</ele><time>2026-04-19T16:49:37.001Z</time></trkpt><trkpt lat="44.3089362526215" lon="11.249901561826139"><ele>198.66666666666666</ele><time>2026-04-19T16:49:38.001Z</time></trkpt><trkpt lat="44.30912440129268" lon="11.250025528427479"><ele>196.0</ele><time>2026-04-19T16:49:39.001Z</time></trkpt><trkpt lat="44.309339796589384" lon="11.250155088557937"><ele>196.0</ele><time>2026-04-19T16:49:40.001Z</time></trkpt><trkpt lat="44.30959941110105" lon="11.250175697042545"><ele>196.0</ele><time>2026-04-19T16:49:41.001Z</time></trkpt><trkpt lat="44.309804557118284" lon="11.250298208770248"><ele>197.5</ele><time>2026-04-19T16:49:42.001Z</time></trkpt><trkpt lat="44.310018758896724" lon="11.25040251760596"><ele>199.0</ele><time>2026-04-19T16:49:43.001Z</time></trkpt><trkpt lat="44.31023709016344" lon="11.250494103046055"><ele>199.0</ele><time>2026-04-19T16:49:44.001Z</time></trkpt><trkpt lat="44.31045510260608" lon="11.250577382281078"><ele>199.0</ele><time>2026-04-19T16:49:45.001Z</time></trkpt><trkpt lat="44.31067317763181" lon="11.250645122180174"><ele>199.0</ele><time>2026-04-19T16:49:46.001Z</time></trkpt><trkpt lat="44.31089762114489" lon="11.250699084193908"><ele>184.5</ele><time>2026-04-19T16:49:47.001Z</time></trkpt><trkpt lat="44.31112854368739" lon="11.250742127390403"><ele>170.0</ele><time>2026-04-19T16:49:48.001Z</time></trkpt><trkpt lat="44.311359430177895" lon="11.25078231849263"><ele>173.5</ele><time>2026-04-19T16:49:49.001Z</time></trkpt><trkpt lat="44.31159840095471" lon="11.250807963853987"><ele>177.0</ele><time>2026-04-19T16:49:50.001Z</time></trkpt><trkpt lat="44.31183889389801" lon="11.250830337667495"><ele>177.0</ele><time>2026-04-19T16:49:51.001Z</time></trkpt><trkpt lat="44.31208610697783" lon="11.250844864557159"><ele>177.0</ele><time>2026-04-19T16:49:52.001Z</time></trkpt><trkpt lat="44.312335104222086" lon="11.2508548615443"><ele>187.5</ele><time>2026-04-19T16:49:53.001Z</time></trkpt><trkpt lat="44.312590106696646" lon="11.250858003344398"><ele>198.0</ele><time>2026-04-19T16:49:54.001Z</time></trkpt><trkpt lat="44.312846705753515" lon="11.250862967351003"><ele>211.5</ele><time>2026-04-19T16:49:55.001Z</time></trkpt><trkpt lat="44.3131037807699" lon="11.250871566225676"><ele>225.0</ele><time>2026-04-19T16:49:56.001Z</time></trkpt><trkpt lat="44.31336086666452" lon="11.250880582381646"><ele>225.0</ele><time>2026-04-19T16:49:57.001Z</time></trkpt><trkpt lat="44.313618654897496" lon="11.250890913712265"><ele>225.0</ele><time>2026-04-19T16:49:58.001Z</time></trkpt><trkpt lat="44.3138765132824" lon="11.25089788198438"><ele>231.5</ele><time>2026-04-19T16:49:59.001Z</time></trkpt><trkpt lat="44.314136640689235" lon="11.250901593304427"><ele>238.0</ele><time>2026-04-19T16:50:00.001Z</time></trkpt><trkpt lat="44.31439667199951" lon="11.250911868891851"><ele>238.0</ele><time>2026-04-19T16:50:01.001Z</time></trkpt><trkpt lat="44.31465621080133" lon="11.250922626060413"><ele>238.0</ele><time>2026-04-19T16:50:02.001Z</time></trkpt><trkpt lat="44.315020869126315" lon="11.250848562480256"><ele>240.0</ele><time>2026-04-19T16:50:03.001Z</time></trkpt><trkpt lat="44.3153061258663" lon="11.250860782195373"><ele>242.0</ele><time>2026-04-19T16:50:04.001Z</time></trkpt><trkpt lat="44.315597362081355" lon="11.250878607628898"><ele>246.5</ele><time>2026-04-19T16:50:05.001Z</time></trkpt><trkpt lat="44.315891513255785" lon="11.250906813025702"><ele>251.0</ele><time>2026-04-19T16:50:06.001Z</time></trkpt><trkpt lat="44.316184014027336" lon="11.250949398975282"><ele>251.5</ele><time>2026-04-19T16:50:07.001Z</time></trkpt><trkpt lat="44.31647851292199" lon="11.250988648667285"><ele>252.0</ele><time>2026-04-19T16:50:08.001Z</time></trkpt><trkpt lat="44.316773601650524" lon="11.251052820095701"><ele>252.0</ele><time>2026-04-19T16:50:09.001Z</time></trkpt><trkpt lat="44.317066559474554" lon="11.251136349992828"><ele>252.0</ele><time>2026-04-19T16:50:10.001Z</time></trkpt><trkpt lat="44.31735814944067" lon="11.251234694006845"><ele>253.0</ele><time>2026-04-19T16:50:11.001Z</time></trkpt><trkpt lat="44.31765137765541" lon="11.251340800151837"><ele>254.0</ele><time>2026-04-19T16:50:12.001Z</time></trkpt><trkpt lat="44.317943753622245" lon="11.25145602083312"><ele>239.5</ele><time>2026-04-19T16:50:13.001Z</time></trkpt><trkpt lat="44.318229080159874" lon="11.251583470931054"><ele>225.0</ele><time>2026-04-19T16:50:14.001Z</time></trkpt><trkpt lat="44.318512257618444" lon="11.251719708124941"><ele>225.0</ele><time>2026-04-19T16:50:15.001Z</time></trkpt><trkpt lat="44.3187871917725" lon="11.25186126426845"><ele>225.0</ele><time>2026-04-19T16:50:16.001Z</time></trkpt><trkpt lat="44.319052777944556" lon="11.25200568058988"><ele>219.5</ele><time>2026-04-19T16:50:17.001Z</time></trkpt><trkpt lat="44.31930960498064" lon="11.252150242206474"><ele>214.0</ele><time>2026-04-19T16:50:18.001Z</time></trkpt><trkpt lat="44.31956775287796" lon="11.25230242843416"><ele>242.0</ele><time>2026-04-19T16:50:19.001Z</time></trkpt><trkpt lat="44.31981511313353" lon="11.252456065039674"><ele>270.0</ele><time>2026-04-19T16:50:20.001Z</time></trkpt><trkpt lat="44.32005615639677" lon="11.25261068695099"><ele>270.0</ele><time>2026-04-19T16:50:21.001Z</time></trkpt><trkpt lat="44.32028605406261" lon="11.252765162221403"><ele>270.0</ele><time>2026-04-19T16:50:22.001Z</time></trkpt><trkpt lat="44.320519893268724" lon="11.252923847060103"><ele>267.0</ele><time>2026-04-19T16:50:23.001Z</time></trkpt><trkpt lat="44.320742585717134" lon="11.253076675957296"><ele>264.0</ele><time>2026-04-19T16:50:24.001Z</time></trkpt><trkpt lat="44.32096067285829" lon="11.253225640281038"><ele>253.5</ele><time>2026-04-19T16:50:25.001Z</time></trkpt><trkpt lat="44.32117861470696" lon="11.253373143722706"><ele>243.0</ele><time>2026-04-19T16:50:26.001Z</time></trkpt><trkpt lat="44.321409161667695" lon="11.25352416663513"><ele>225.0</ele><time>2026-04-19T16:50:27.001Z</time></trkpt><trkpt lat="44.321635612717145" lon="11.253671928834459"><ele>207.0</ele><time>2026-04-19T16:50:28.001Z</time></trkpt><trkpt lat="44.321867752642234" lon="11.253823176637283"><ele>206.5</ele><time>2026-04-19T16:50:29.001Z</time></trkpt><trkpt lat="44.32210768321484" lon="11.253975256955545"><ele>206.0</ele><time>2026-04-19T16:50:30.001Z</time></trkpt><trkpt lat="44.32234281583481" lon="11.254126580177983"><ele>192.5</ele><time>2026-04-19T16:50:31.001Z</time></trkpt><trkpt lat="44.322574255578864" lon="11.254276342724825"><ele>179.0</ele><time>2026-04-19T16:50:32.001Z</time></trkpt><trkpt lat="44.3228776961051" lon="11.254709445609327"><ele>173.0</ele><time>2026-04-19T16:50:33.001Z</time></trkpt><trkpt lat="44.32311023654951" lon="11.25483142385027"><ele>167.0</ele><time>2026-04-19T16:50:34.001Z</time></trkpt><trkpt lat="44.32337251514271" lon="11.254934709136892"><ele>167.0</ele><time>2026-04-19T16:50:35.001Z</time></trkpt><trkpt lat="44.32361431012265" lon="11.25506346041347"><ele>167.0</ele><time>2026-04-19T16:50:36.001Z</time></trkpt><trkpt lat="44.32387160513729" lon="11.255200710774556"><ele>177.0</ele><time>2026-04-19T16:50:37.001Z</time></trkpt><trkpt lat="44.32413820702724" lon="11.255336610264113"><ele>187.0</ele><time>2026-04-19T16:50:38.001Z</time></trkpt><trkpt lat="44.32440272955353" lon="11.255470258174224"><ele>187.0</ele><time>2026-04-19T16:50:39.001Z</time></trkpt><trkpt lat="44.32467009250803" lon="11.255602377839148"><ele>187.0</ele><time>2026-04-19T16:50:40.001Z</time></trkpt><trkpt lat="44.32494421639789" lon="11.25573423531831"><ele>188.5</ele><time>2026-04-19T16:50:41.001Z</time></trkpt><trkpt lat="44.325225934962816" lon="11.255862598430934"><ele>190.0</ele><time>2026-04-19T16:50:42.001Z</time></trkpt><trkpt lat="44.32549611786764" lon="11.256046714670592"><ele>196.0</ele><time>2026-04-19T16:50:43.001Z</time></trkpt><trkpt lat="44.32576667158916" lon="11.256186247336162"><ele>202.0</ele><time>2026-04-19T16:50:44.001Z</time></trkpt><trkpt lat="44.32607573263396" lon="11.256229370237577"><ele>202.0</ele><time>2026-04-19T16:50:45.001Z</time></trkpt><trkpt lat="44.32636472506382" lon="11.256353001206358"><ele>202.0</ele><time>2026-04-19T16:50:46.001Z</time></trkpt><trkpt lat="44.326653697391976" lon="11.256478144477688"><ele>205.0</ele><time>2026-04-19T16:50:47.001Z</time></trkpt><trkpt lat="44.32694297542155" lon="11.256603237137393"><ele>208.0</ele><time>2026-04-19T16:50:48.001Z</time></trkpt><trkpt lat="44.32723803333067" lon="11.256731144937168"><ele>226.0</ele><time>2026-04-19T16:50:49.001Z</time></trkpt><trkpt lat="44.32753722449483" lon="11.25686078774124"><ele>244.0</ele><time>2026-04-19T16:50:50.001Z</time></trkpt><trkpt lat="44.32783374315144" lon="11.256994688710336"><ele>269.5</ele><time>2026-04-19T16:50:51.001Z</time></trkpt><trkpt lat="44.328127058137355" lon="11.257137169631628"><ele>295.0</ele><time>2026-04-19T16:50:52.001Z</time></trkpt><trkpt lat="44.328415898752176" lon="11.257282897224188"><ele>297.0</ele><time>2026-04-19T16:50:53.001Z</time></trkpt><trkpt lat="44.32868807935346" lon="11.257426387815853"><ele>299.0</ele><time>2026-04-19T16:50:54.001Z</time></trkpt><trkpt lat="44.32896735262427" lon="11.257574430485512"><ele>299.0</ele><time>2026-04-19T16:50:55.001Z</time></trkpt><trkpt lat="44.329235149409" lon="11.257723444256458"><ele>299.0</ele><time>2026-04-19T16:50:56.001Z</time></trkpt><trkpt lat="44.329495793038724" lon="11.257874011211676"><ele>292.0</ele><time>2026-04-19T16:50:57.001Z</time></trkpt><trkpt lat="44.329744857153244" lon="11.258024769803484"><ele>285.0</ele><time>2026-04-19T16:50:58.001Z</time></trkpt><trkpt lat="44.32999547854909" lon="11.258180725597295"><ele>285.0</ele><time>2026-04-19T16:50:59.001Z</time></trkpt><trkpt lat="44.330231711264936" lon="11.258340116427087"><ele>285.0</ele><time>2026-04-19T16:51:00.001Z</time></trkpt><trkpt lat="44.330461352189026" lon="11.258498146604571"><ele>288.5</ele><time>2026-04-19T16:51:01.001Z</time></trkpt><trkpt lat="44.330671255018174" lon="11.258649989602421"><ele>292.0</ele><time>2026-04-19T16:51:02.001Z</time></trkpt><trkpt lat="44.33089151071699" lon="11.258813361505624"><ele>288.0</ele><time>2026-04-19T16:51:03.001Z</time></trkpt><trkpt lat="44.33110057583778" lon="11.258976387918146"><ele>284.0</ele><time>2026-04-19T16:51:04.001Z</time></trkpt><trkpt lat="44.331308193830225" lon="11.259131143389402"><ele>281.6666666666667</ele><time>2026-04-19T16:51:05.001Z</time></trkpt><trkpt lat="44.3314831269611" lon="11.259267026825068"><ele>279.3333333333333</ele><time>2026-04-19T16:51:06.001Z</time></trkpt><trkpt lat="44.33166524437494" lon="11.259416507508433"><ele>277.0</ele><time>2026-04-19T16:51:07.001Z</time></trkpt><trkpt lat="44.331830201454515" lon="11.259559410472555"><ele>277.0</ele><time>2026-04-19T16:51:08.001Z</time></trkpt><trkpt lat="44.3320085133285" lon="11.259711504459506"><ele>277.0</ele><time>2026-04-19T16:51:09.001Z</time></trkpt><trkpt lat="44.332197165649546" lon="11.259872886880746"><ele>277.0</ele><time>2026-04-19T16:51:10.001Z</time></trkpt><trkpt lat="44.33236885407752" lon="11.260035192271234"><ele>271.0</ele><time>2026-04-19T16:51:11.001Z</time></trkpt><trkpt lat="44.33255086081161" lon="11.260205456678001"><ele>265.0</ele><time>2026-04-19T16:51:12.001Z</time></trkpt><trkpt lat="44.3327317390195" lon="11.260368400072895"><ele>259.0</ele><time>2026-04-19T16:51:13.001Z</time></trkpt><trkpt lat="44.33291930532143" lon="11.260540532645654"><ele>139.0</ele><time>2026-04-19T16:51:14.013Z</time></trkpt><trkpt lat="44.337740349327206" lon="11.265855857451088"><ele>134.0</ele><time>2026-04-19T16:51:37.001Z</time></trkpt><trkpt lat="44.33792593431022" lon="11.266846474743486"><ele>134.0</ele><time>2026-04-19T16:51:38.001Z</time></trkpt><trkpt lat="44.33811983570034" lon="11.26700876647536"><ele>134.0</ele><time>2026-04-19T16:51:39.001Z</time></trkpt><trkpt lat="44.33831789241829" lon="11.267065617523546"><ele>134.0</ele><time>2026-04-19T16:51:40.001Z</time></trkpt><trkpt lat="44.33847390122815" lon="11.267165050925719"><ele>135.0</ele><time>2026-04-19T16:51:41.001Z</time></trkpt><trkpt lat="44.338670932635175" lon="11.267289999926573"><ele>136.0</ele><time>2026-04-19T16:51:42.001Z</time></trkpt><trkpt lat="44.338859251016785" lon="11.267386383719051"><ele>137.0</ele><time>2026-04-19T16:51:43.001Z</time></trkpt><trkpt lat="44.339052648081676" lon="11.267455524919653"><ele>137.0</ele><time>2026-04-19T16:51:44.001Z</time></trkpt><trkpt lat="44.33931983209887" lon="11.267397357793326"><ele>137.0</ele><time>2026-04-19T16:51:45.001Z</time></trkpt><trkpt lat="44.339516100773636" lon="11.26753556117831"><ele>137.0</ele><time>2026-04-19T16:51:46.001Z</time></trkpt><trkpt lat="44.33971305217709" lon="11.267663915602165"><ele>137.0</ele><time>2026-04-19T16:51:47.001Z</time></trkpt><trkpt lat="44.33991140845681" lon="11.267784105269161"><ele>137.0</ele><time>2026-04-19T16:51:48.001Z</time></trkpt><trkpt lat="44.34011332504245" lon="11.267893404832586"><ele>136.33333333333331</ele><time>2026-04-19T16:51:49.001Z</time></trkpt><trkpt lat="44.34032489643595" lon="11.26799986873595"><ele>135.66666666666666</ele><time>2026-04-19T16:51:50.001Z</time></trkpt><trkpt lat="44.340540216054386" lon="11.2680849120422"><ele>135.0</ele><time>2026-04-19T16:51:51.001Z</time></trkpt><trkpt lat="44.34075489092372" lon="11.268174019957243"><ele>134.66666666666666</ele><time>2026-04-19T16:51:52Z</time></trkpt><trkpt lat="44.340968620053644" lon="11.26824904522084"><ele>134.33333333333331</ele><time>2026-04-19T16:51:53Z</time></trkpt><trkpt lat="44.34118171078752" lon="11.26831226005758"><ele>134.0</ele><time>2026-04-19T16:51:54Z</time></trkpt><trkpt lat="44.34139606552934" lon="11.26837004163735"><ele>133.0</ele><time>2026-04-19T16:51:55Z</time></trkpt><trkpt lat="44.34161180738611" lon="11.26842074820579"><ele>132.0</ele><time>2026-04-19T16:51:56Z</time></trkpt><trkpt lat="44.3418276667403" lon="11.26846148894552"><ele>131.0</ele><time>2026-04-19T16:51:57Z</time></trkpt><trkpt lat="44.34204483886544" lon="11.268493703523509"><ele>131.0</ele><time>2026-04-19T16:51:58Z</time></trkpt><trkpt lat="44.342263323065325" lon="11.26851808220463"><ele>131.0</ele><time>2026-04-19T16:51:59Z</time></trkpt><trkpt lat="44.3424806068295" lon="11.268533388828578"><ele>131.0</ele><time>2026-04-19T16:52:00Z</time></trkpt><trkpt lat="44.342701358975205" lon="11.26854162739466"><ele>131.0</ele><time>2026-04-19T16:52:01Z</time></trkpt><trkpt lat="44.34292463287995" lon="11.268539766907914"><ele>131.0</ele><time>2026-04-19T16:52:02Z</time></trkpt><trkpt lat="44.343148935339144" lon="11.268527838701235"><ele>131.0</ele><time>2026-04-19T16:52:03Z</time></trkpt><trkpt lat="44.343375267739404" lon="11.268503932312768"><ele>130.5</ele><time>2026-04-19T16:52:04Z</time></trkpt><trkpt lat="44.34360440034168" lon="11.268472435349905"><ele>130.0</ele><time>2026-04-19T16:52:05Z</time></trkpt><trkpt lat="44.34383453375926" lon="11.268432276187175"><ele>130.0</ele><time>2026-04-19T16:52:06Z</time></trkpt><trkpt lat="44.34406383595801" lon="11.268377968188359"><ele>130.0</ele><time>2026-04-19T16:52:07Z</time></trkpt><trkpt lat="44.344289114593124" lon="11.268314495234234"><ele>130.0</ele><time>2026-04-19T16:52:08Z</time></trkpt><trkpt lat="44.34450923013071" lon="11.268251492115844"><ele>130.0</ele><time>2026-04-19T16:52:09Z</time></trkpt><trkpt lat="44.344729818935015" lon="11.268178874566818"><ele>128.5</ele><time>2026-04-19T16:52:10Z</time></trkpt><trkpt lat="44.34495051427836" lon="11.268099359133565"><ele>127.0</ele><time>2026-04-19T16:52:11Z</time></trkpt><trkpt lat="44.34517146060549" lon="11.26801893452289"><ele>127.0</ele><time>2026-04-19T16:52:12Z</time></trkpt><trkpt lat="44.345393010795476" lon="11.267926066553933"><ele>127.0</ele><time>2026-04-19T16:52:13Z</time></trkpt><trkpt lat="44.34561492908345" lon="11.267828018194727"><ele>128.0</ele><time>2026-04-19T16:52:14Z</time></trkpt><trkpt lat="44.34583861125933" lon="11.267727892805981"><ele>129.0</ele><time>2026-04-19T16:52:15Z</time></trkpt><trkpt lat="44.34606362395733" lon="11.267628314946133"><ele>129.0</ele><time>2026-04-19T16:52:16Z</time></trkpt><trkpt lat="44.346290400714096" lon="11.267529683133395"><ele>129.0</ele><time>2026-04-19T16:52:17Z</time></trkpt><trkpt lat="44.34651856758863" lon="11.267430778046675"><ele>128.5</ele><time>2026-04-19T16:52:18Z</time></trkpt><trkpt lat="44.34674810657184" lon="11.267328749739185"><ele>128.0</ele><time>2026-04-19T16:52:19Z</time></trkpt><trkpt lat="44.346977920212495" lon="11.267226214585113"><ele>127.0</ele><time>2026-04-19T16:52:20Z</time></trkpt><trkpt lat="44.34720664662195" lon="11.267121768682921"><ele>126.0</ele><time>2026-04-19T16:52:21Z</time></trkpt><trkpt lat="44.34743503431627" lon="11.267019351961466"><ele>125.5</ele><time>2026-04-19T16:52:22Z</time></trkpt><trkpt lat="44.347659148750765" lon="11.266918906319644"><ele>125.0</ele><time>2026-04-19T16:52:23Z</time></trkpt><trkpt lat="44.347883738348855" lon="11.2668167224755"><ele>126.5</ele><time>2026-04-19T16:52:24Z</time></trkpt><trkpt lat="44.348107564009666" lon="11.266715698448854"><ele>128.0</ele><time>2026-04-19T16:52:25Z</time></trkpt><trkpt lat="44.34833165409452" lon="11.266614759051873"><ele>128.0</ele><time>2026-04-19T16:52:26Z</time></trkpt><trkpt lat="44.34855549592421" lon="11.266512606992437"><ele>128.0</ele><time>2026-04-19T16:52:27Z</time></trkpt><trkpt lat="44.34877944689977" lon="11.266410698292388"><ele>128.0</ele><time>2026-04-19T16:52:28Z</time></trkpt><trkpt lat="44.34900391390945" lon="11.26630763637619"><ele>128.0</ele><time>2026-04-19T16:52:29Z</time></trkpt><trkpt lat="44.34922976694615" lon="11.266204871702046"><ele>128.0</ele><time>2026-04-19T16:52:30Z</time></trkpt><trkpt lat="44.34945792443553" lon="11.266103273848888"><ele>128.0</ele><time>2026-04-19T16:52:31Z</time></trkpt><trkpt lat="44.34968845285476" lon="11.265999564415589"><ele>127.0</ele><time>2026-04-19T16:52:32Z</time></trkpt><trkpt lat="44.34991736539056" lon="11.265896930623857"><ele>126.0</ele><time>2026-04-19T16:52:33Z</time></trkpt><trkpt lat="44.35014602207442" lon="11.265796795721835"><ele>126.0</ele><time>2026-04-19T16:52:34Z</time></trkpt><trkpt lat="44.35037407187572" lon="11.265695511659265"><ele>126.0</ele><time>2026-04-19T16:52:35Z</time></trkpt><trkpt lat="44.35060209145336" lon="11.265590715953122"><ele>124.5</ele><time>2026-04-19T16:52:36Z</time></trkpt><trkpt lat="44.35083125134018" lon="11.265487921914872"><ele>123.0</ele><time>2026-04-19T16:52:37Z</time></trkpt><trkpt lat="44.35106079465926" lon="11.265383410369816"><ele>123.0</ele><time>2026-04-19T16:52:38Z</time></trkpt><trkpt lat="44.35129321169071" lon="11.265282801327176"><ele>123.0</ele><time>2026-04-19T16:52:39Z</time></trkpt><trkpt lat="44.35152523718644" lon="11.265182469544277"><ele>123.5</ele><time>2026-04-19T16:52:40Z</time></trkpt><trkpt lat="44.35175599495537" lon="11.265079557788878"><ele>124.0</ele><time>2026-04-19T16:52:41Z</time></trkpt><trkpt lat="44.35198648095956" lon="11.264973666140776"><ele>123.5</ele><time>2026-04-19T16:52:42Z</time></trkpt><trkpt lat="44.352217292070456" lon="11.26487035505973"><ele>123.0</ele><time>2026-04-19T16:52:43Z</time></trkpt><trkpt lat="44.352447526711735" lon="11.264764827609833"><ele>122.5</ele><time>2026-04-19T16:52:44Z</time></trkpt><trkpt lat="44.35267732304507" lon="11.264660637366301"><ele>122.0</ele><time>2026-04-19T16:52:45Z</time></trkpt><trkpt lat="44.35290853517277" lon="11.26456131512053"><ele>121.5</ele><time>2026-04-19T16:52:46Z</time></trkpt><trkpt lat="44.35313875200726" lon="11.26446220171385"><ele>121.0</ele><time>2026-04-19T16:52:47Z</time></trkpt><trkpt lat="44.35336852973934" lon="11.264358814580438"><ele>121.0</ele><time>2026-04-19T16:52:48Z</time></trkpt><trkpt lat="44.35359766625027" lon="11.264253547953512"><ele>121.0</ele><time>2026-04-19T16:52:49Z</time></trkpt><trkpt lat="44.35382681757394" lon="11.264145330890633"><ele>120.5</ele><time>2026-04-19T16:52:50Z</time></trkpt><trkpt lat="44.35405654570658" lon="11.264041442060902"><ele>120.0</ele><time>2026-04-19T16:52:51Z</time></trkpt><trkpt lat="44.35428667819916" lon="11.26393863042899"><ele>120.0</ele><time>2026-04-19T16:52:52Z</time></trkpt><trkpt lat="44.35451705478889" lon="11.263836058134297"><ele>120.0</ele><time>2026-04-19T16:52:53Z</time></trkpt><trkpt lat="44.354747773217866" lon="11.263733184566133"><ele>118.5</ele><time>2026-04-19T16:52:54.001Z</time></trkpt><trkpt lat="44.35497845900716" lon="11.263630921878141"><ele>117.0</ele><time>2026-04-19T16:52:55.001Z</time></trkpt><trkpt lat="44.35520931881715" lon="11.263526979157492"><ele>117.0</ele><time>2026-04-19T16:52:56.001Z</time></trkpt><trkpt lat="44.35543902987116" lon="11.26342388676734"><ele>117.0</ele><time>2026-04-19T16:52:57.001Z</time></trkpt><trkpt lat="44.355668796042046" lon="11.263319741279066"><ele>118.0</ele><time>2026-04-19T16:52:58.001Z</time></trkpt><trkpt lat="44.35589944958335" lon="11.263217983756203"><ele>119.0</ele><time>2026-04-19T16:52:59.001Z</time></trkpt><trkpt lat="44.356129532252716" lon="11.26311553925566"><ele>119.0</ele><time>2026-04-19T16:53:00.001Z</time></trkpt><trkpt lat="44.35635946676171" lon="11.263014324638329"><ele>119.0</ele><time>2026-04-19T16:53:01.001Z</time></trkpt><trkpt lat="44.356589440337345" lon="11.262912200508076"><ele>118.5</ele><time>2026-04-19T16:53:02.001Z</time></trkpt><trkpt lat="44.3568191373266" lon="11.26280790985859"><ele>118.0</ele><time>2026-04-19T16:53:03.001Z</time></trkpt><trkpt lat="44.35704822234257" lon="11.262704162870508"><ele>117.5</ele><time>2026-04-19T16:53:04.001Z</time></trkpt><trkpt lat="44.35727783720031" lon="11.262601105914534"><ele>117.0</ele><time>2026-04-19T16:53:05.001Z</time></trkpt><trkpt lat="44.35750856198472" lon="11.262502555600227"><ele>117.0</ele><time>2026-04-19T16:53:06.001Z</time></trkpt><trkpt lat="44.35773990141098" lon="11.262405678428017"><ele>117.0</ele><time>2026-04-19T16:53:07.001Z</time></trkpt><trkpt lat="44.357969843334644" lon="11.262303409088146"><ele>117.0</ele><time>2026-04-19T16:53:08.001Z</time></trkpt><trkpt lat="44.35819990975491" lon="11.26219954000413"><ele>117.0</ele><time>2026-04-19T16:53:09.001Z</time></trkpt><trkpt lat="44.35843019571686" lon="11.262097356301114"><ele>117.0</ele><time>2026-04-19T16:53:10.001Z</time></trkpt><trkpt lat="44.35865985908337" lon="11.261993672709407"><ele>117.0</ele><time>2026-04-19T16:53:11.001Z</time></trkpt><trkpt lat="44.358889376588344" lon="11.261893230204588"><ele>116.5</ele><time>2026-04-19T16:53:12.001Z</time></trkpt><trkpt lat="44.35911920483234" lon="11.261791912581966"><ele>116.0</ele><time>2026-04-19T16:53:13.001Z</time></trkpt><trkpt lat="44.35934856694421" lon="11.261687778759184"><ele>116.0</ele><time>2026-04-19T16:53:14.001Z</time></trkpt><trkpt lat="44.35957901795606" lon="11.261584554590485"><ele>116.0</ele><time>2026-04-19T16:53:15.001Z</time></trkpt><trkpt lat="44.359809732119665" lon="11.261482247875023"><ele>117.0</ele><time>2026-04-19T16:53:16.001Z</time></trkpt><trkpt lat="44.360039388809675" lon="11.261376094551006"><ele>118.0</ele><time>2026-04-19T16:53:17.001Z</time></trkpt><trkpt lat="44.36026962008002" lon="11.261269481875324"><ele>118.0</ele><time>2026-04-19T16:53:18.001Z</time></trkpt><trkpt lat="44.36049917791193" lon="11.261163562592134"><ele>118.0</ele><time>2026-04-19T16:53:19.001Z</time></trkpt><trkpt lat="44.36072987116411" lon="11.261059113656048"><ele>116.5</ele><time>2026-04-19T16:53:20.001Z</time></trkpt><trkpt lat="44.36096034615017" lon="11.260958588152555"><ele>115.0</ele><time>2026-04-19T16:53:21.001Z</time></trkpt><trkpt lat="44.36119132574945" lon="11.260860825420652"><ele>114.0</ele><time>2026-04-19T16:53:22.001Z</time></trkpt><trkpt lat="44.361423032502344" lon="11.260764505401538"><ele>113.0</ele><time>2026-04-19T16:53:23.001Z</time></trkpt><trkpt lat="44.36165354457651" lon="11.260662491347187"><ele>113.0</ele><time>2026-04-19T16:53:24.001Z</time></trkpt><trkpt lat="44.36188402685693" lon="11.260561210400077"><ele>113.0</ele><time>2026-04-19T16:53:25.001Z</time></trkpt><trkpt lat="44.36211401454017" lon="11.26045925821281"><ele>111.5</ele><time>2026-04-19T16:53:26.001Z</time></trkpt><trkpt lat="44.362343627949954" lon="11.260355076998056"><ele>110.0</ele><time>2026-04-19T16:53:27.001Z</time></trkpt><trkpt lat="44.362573333647525" lon="11.260250167112371"><ele>110.0</ele><time>2026-04-19T16:53:28.001Z</time></trkpt><trkpt lat="44.36280187499346" lon="11.260143882069833"><ele>110.0</ele><time>2026-04-19T16:53:29.001Z</time></trkpt><trkpt lat="44.363031177443396" lon="11.260038780275304"><ele>112.0</ele><time>2026-04-19T16:53:30.001Z</time></trkpt><trkpt lat="44.36326028223946" lon="11.259934538668272"><ele>114.0</ele><time>2026-04-19T16:53:31.001Z</time></trkpt><trkpt lat="44.363490485758625" lon="11.259834120950085"><ele>113.5</ele><time>2026-04-19T16:53:32.001Z</time></trkpt><trkpt lat="44.36372021811817" lon="11.259733126047504"><ele>113.0</ele><time>2026-04-19T16:53:33.001Z</time></trkpt><trkpt lat="44.36395087875234" lon="11.259634673889586"><ele>112.5</ele><time>2026-04-19T16:53:34.001Z</time></trkpt><trkpt lat="44.36418174318464" lon="11.259534974554"><ele>112.0</ele><time>2026-04-19T16:53:35.001Z</time></trkpt><trkpt lat="44.364411811130275" lon="11.259436093473784"><ele>112.0</ele><time>2026-04-19T16:53:36.001Z</time></trkpt><trkpt lat="44.36464039251171" lon="11.259335173820832"><ele>112.0</ele><time>2026-04-19T16:53:37.001Z</time></trkpt><trkpt lat="44.36487049917175" lon="11.259236361594475"><ele>111.5</ele><time>2026-04-19T16:53:38.001Z</time></trkpt><trkpt lat="44.3651010817493" lon="11.259138363431262"><ele>111.0</ele><time>2026-04-19T16:53:39.001Z</time></trkpt><trkpt lat="44.36533226567637" lon="11.259042388710338"><ele>110.5</ele><time>2026-04-19T16:53:40.001Z</time></trkpt><trkpt lat="44.36556459823896" lon="11.258948771733522"><ele>110.0</ele><time>2026-04-19T16:53:41.001Z</time></trkpt><trkpt lat="44.365797156541994" lon="11.258858323714938"><ele>110.0</ele><time>2026-04-19T16:53:42.001Z</time></trkpt><trkpt lat="44.366030123923736" lon="11.258769867711694"><ele>110.0</ele><time>2026-04-19T16:53:43.001Z</time></trkpt><trkpt lat="44.36626355280489" lon="11.258683471126167"><ele>110.5</ele><time>2026-04-19T16:53:44.001Z</time></trkpt><trkpt lat="44.36649785938684" lon="11.258601806264512"><ele>111.0</ele><time>2026-04-19T16:53:45Z</time></trkpt><trkpt lat="44.366733058573644" lon="11.258524628346791"><ele>111.0</ele><time>2026-04-19T16:53:46Z</time></trkpt><trkpt lat="44.36696878331779" lon="11.258450644028878"><ele>111.0</ele><time>2026-04-19T16:53:47Z</time></trkpt><trkpt lat="44.36720467753049" lon="11.258377026754212"><ele>111.5</ele><time>2026-04-19T16:53:48Z</time></trkpt><trkpt lat="44.36744154023909" lon="11.258308990479115"><ele>112.0</ele><time>2026-04-19T16:53:49Z</time></trkpt><trkpt lat="44.367678226871156" lon="11.25824612119297"><ele>112.0</ele><time>2026-04-19T16:53:50Z</time></trkpt><trkpt lat="44.36791523038088" lon="11.258186127106656"><ele>112.0</ele><time>2026-04-19T16:53:51Z</time></trkpt><trkpt lat="44.368153082334" lon="11.258129763391468"><ele>111.0</ele><time>2026-04-19T16:53:52Z</time></trkpt><trkpt lat="44.368391629962126" lon="11.258077884640485"><ele>110.0</ele><time>2026-04-19T16:53:53Z</time></trkpt><trkpt lat="44.36863091107622" lon="11.258031533402793"><ele>112.0</ele><time>2026-04-19T16:53:54Z</time></trkpt><trkpt lat="44.36887027924004" lon="11.257988048497808"><ele>114.0</ele><time>2026-04-19T16:53:55Z</time></trkpt><trkpt lat="44.369110076939585" lon="11.257950038060413"><ele>114.0</ele><time>2026-04-19T16:53:56Z</time></trkpt><trkpt lat="44.369350115123446" lon="11.257916013355636"><ele>114.0</ele><time>2026-04-19T16:53:57Z</time></trkpt><trkpt lat="44.369591200782075" lon="11.257886407380266"><ele>117.5</ele><time>2026-04-19T16:53:58Z</time></trkpt><trkpt lat="44.369833040363815" lon="11.257860597243566"><ele>121.0</ele><time>2026-04-19T16:53:59Z</time></trkpt><trkpt lat="44.37007424529104" lon="11.257841565561337"><ele>121.0</ele><time>2026-04-19T16:54:00Z</time></trkpt><trkpt lat="44.37031673042462" lon="11.25782690581955"><ele>121.0</ele><time>2026-04-19T16:54:01Z</time></trkpt><trkpt lat="44.37055892230199" lon="11.257817565596891"><ele>131.0</ele><time>2026-04-19T16:54:02Z</time></trkpt><trkpt lat="44.37080108131914" lon="11.257813910707922"><ele>141.0</ele><time>2026-04-19T16:54:03Z</time></trkpt><trkpt lat="44.371042570197915" lon="11.257813291129066"><ele>141.0</ele><time>2026-04-19T16:54:04Z</time></trkpt><trkpt lat="44.37128485367875" lon="11.2578148274476"><ele>141.0</ele><time>2026-04-19T16:54:05Z</time></trkpt><trkpt lat="44.37152672183238" lon="11.257819512204993"><ele>145.0</ele><time>2026-04-19T16:54:06Z</time></trkpt><trkpt lat="44.37176857807402" lon="11.257826144999093"><ele>149.0</ele><time>2026-04-19T16:54:07Z</time></trkpt><trkpt lat="44.37200411999044" lon="11.257822484685049"><ele>155.5</ele><time>2026-04-19T16:54:08Z</time></trkpt><trkpt lat="44.37224545732126" lon="11.25784032329007"><ele>162.0</ele><time>2026-04-19T16:54:09Z</time></trkpt><trkpt lat="44.37248636023345" lon="11.257863956020373"><ele>162.0</ele><time>2026-04-19T16:54:10Z</time></trkpt><trkpt lat="44.37272668205978" lon="11.257895643715555"><ele>162.0</ele><time>2026-04-19T16:54:11Z</time></trkpt><trkpt lat="44.37296618986076" lon="11.257934534307593"><ele>169.5</ele><time>2026-04-19T16:54:12Z</time></trkpt><trkpt lat="44.37320625533673" lon="11.257969116284386"><ele>177.0</ele><time>2026-04-19T16:54:13Z</time></trkpt><trkpt lat="44.37344520589396" lon="11.25800964182615"><ele>177.0</ele><time>2026-04-19T16:54:14Z</time></trkpt><trkpt lat="44.3736838827082" lon="11.258053453914616"><ele>177.0</ele><time>2026-04-19T16:54:15Z</time></trkpt><trkpt lat="44.37392133447578" lon="11.25810698135772"><ele>185.5</ele><time>2026-04-19T16:54:16Z</time></trkpt><trkpt lat="44.37415854635205" lon="11.258164424485418"><ele>194.0</ele><time>2026-04-19T16:54:17Z</time></trkpt><trkpt lat="44.37439651937581" lon="11.25822050586103"><ele>194.0</ele><time>2026-04-19T16:54:18Z</time></trkpt><trkpt lat="44.374634328313654" lon="11.25828104632129"><ele>194.0</ele><time>2026-04-19T16:54:19Z</time></trkpt><trkpt lat="44.37487101799515" lon="11.258346728040548"><ele>200.5</ele><time>2026-04-19T16:54:20Z</time></trkpt><trkpt lat="44.37510846529282" lon="11.25841740162779"><ele>207.0</ele><time>2026-04-19T16:54:21Z</time></trkpt><trkpt lat="44.37534465954541" lon="11.25849106765097"><ele>217.0</ele><time>2026-04-19T16:54:22Z</time></trkpt><trkpt lat="44.375580386982826" lon="11.25856985721606"><ele>227.0</ele><time>2026-04-19T16:54:23Z</time></trkpt><trkpt lat="44.37581459013739" lon="11.258652547307694"><ele>227.0</ele><time>2026-04-19T16:54:24Z</time></trkpt><trkpt lat="44.37605082951597" lon="11.258735974754686"><ele>227.0</ele><time>2026-04-19T16:54:25Z</time></trkpt><trkpt lat="44.376285633505915" lon="11.258820286689488"><ele>232.5</ele><time>2026-04-19T16:54:26Z</time></trkpt><trkpt lat="44.376518183596964" lon="11.258911992048226"><ele>238.0</ele><time>2026-04-19T16:54:27Z</time></trkpt><trkpt lat="44.37675192156959" lon="11.258996954490293"><ele>245.0</ele><time>2026-04-19T16:54:28Z</time></trkpt><trkpt lat="44.376985310747216" lon="11.259086464375816"><ele>252.0</ele><time>2026-04-19T16:54:29Z</time></trkpt><trkpt lat="44.3772168286637" lon="11.259179669968603"><ele>256.5</ele><time>2026-04-19T16:54:30Z</time></trkpt><trkpt lat="44.37745098286193" lon="11.25927025703879"><ele>261.0</ele><time>2026-04-19T16:54:31Z</time></trkpt><trkpt lat="44.377684572669196" lon="11.259363376711809"><ele>261.0</ele><time>2026-04-19T16:54:32Z</time></trkpt><trkpt lat="44.37792059488551" lon="11.259455223976195"><ele>261.0</ele><time>2026-04-19T16:54:33Z</time></trkpt><trkpt lat="44.37815620680807" lon="11.259544556912344"><ele>273.0</ele><time>2026-04-19T16:54:34Z</time></trkpt><trkpt lat="44.37841132696903" lon="11.25961552148831"><ele>285.0</ele><time>2026-04-19T16:54:35Z</time></trkpt><trkpt lat="44.37866055752798" lon="11.259706698364413"><ele>308.5</ele><time>2026-04-19T16:54:36Z</time></trkpt><trkpt lat="44.37887245264308" lon="11.259782912464772"><ele>332.0</ele><time>2026-04-19T16:54:37Z</time></trkpt><trkpt lat="44.379110595735646" lon="11.259872057166882"><ele>110.0</ele><time>2026-04-19T16:54:38.014Z</time></trkpt><trkpt lat="44.39123328398778" lon="11.259627918008336"><ele>107.0</ele><time>2026-04-19T16:55:25Z</time></trkpt><trkpt lat="44.3915100841326" lon="11.259547060606627"><ele>104.0</ele><time>2026-04-19T16:55:26Z</time></trkpt><trkpt lat="44.391761894394875" lon="11.25949363222016"><ele>104.0</ele><time>2026-04-19T16:55:27Z</time></trkpt><trkpt lat="44.392021342581295" lon="11.25944618024939"><ele>104.0</ele><time>2026-04-19T16:55:28Z</time></trkpt><trkpt lat="44.3922835298005" lon="11.259397987724666"><ele>101.5</ele><time>2026-04-19T16:55:29Z</time></trkpt><trkpt lat="44.39254602309987" lon="11.259353426070907"><ele>99.0</ele><time>2026-04-19T16:55:30Z</time></trkpt><trkpt lat="44.39281021801557" lon="11.259312091988434"><ele>93.5</ele><time>2026-04-19T16:55:31Z</time></trkpt><trkpt lat="44.39307441135854" lon="11.259280079981359"><ele>88.0</ele><time>2026-04-19T16:55:32.001Z</time></trkpt><trkpt lat="44.39333937379982" lon="11.259255880423677"><ele>88.0</ele><time>2026-04-19T16:55:33.001Z</time></trkpt><trkpt lat="44.393605484976284" lon="11.259241882871772"><ele>88.0</ele><time>2026-04-19T16:55:34.001Z</time></trkpt><trkpt lat="44.39386788185831" lon="11.259228577266699"><ele>87.5</ele><time>2026-04-19T16:55:35.001Z</time></trkpt><trkpt lat="44.394134151835566" lon="11.259248887781036"><ele>87.0</ele><time>2026-04-19T16:55:36.001Z</time></trkpt><trkpt lat="44.39439907237751" lon="11.259258907145464"><ele>87.0</ele><time>2026-04-19T16:55:37.001Z</time></trkpt><trkpt lat="44.394663541702435" lon="11.259278985003306"><ele>87.0</ele><time>2026-04-19T16:55:38.001Z</time></trkpt><trkpt lat="44.394927531084306" lon="11.259299257384543"><ele>90.0</ele><time>2026-04-19T16:55:39.001Z</time></trkpt><trkpt lat="44.395190363031" lon="11.259329073502501"><ele>93.0</ele><time>2026-04-19T16:55:40.001Z</time></trkpt><trkpt lat="44.39545293382917" lon="11.259367638367683"><ele>93.5</ele><time>2026-04-19T16:55:41.001Z</time></trkpt><trkpt lat="44.39571398098704" lon="11.259415654746936"><ele>94.0</ele><time>2026-04-19T16:55:42.001Z</time></trkpt><trkpt lat="44.39597410609262" lon="11.259471045155225"><ele>94.0</ele><time>2026-04-19T16:55:43.001Z</time></trkpt><trkpt lat="44.396233126982395" lon="11.259534758098857"><ele>94.0</ele><time>2026-04-19T16:55:44.001Z</time></trkpt><trkpt lat="44.39649153712376" lon="11.259605541326117"><ele>92.5</ele><time>2026-04-19T16:55:45.001Z</time></trkpt><trkpt lat="44.396748543123145" lon="11.259684084307267"><ele>91.0</ele><time>2026-04-19T16:55:46.001Z</time></trkpt><trkpt lat="44.39700414972942" lon="11.259773234350108"><ele>92.0</ele><time>2026-04-19T16:55:47.001Z</time></trkpt><trkpt lat="44.397258697243736" lon="11.259868641402118"><ele>93.0</ele><time>2026-04-19T16:55:48.001Z</time></trkpt><trkpt lat="44.39751240619005" lon="11.259969515113529"><ele>93.0</ele><time>2026-04-19T16:55:49.001Z</time></trkpt><trkpt lat="44.39776389311241" lon="11.260079093506423"><ele>93.0</ele><time>2026-04-19T16:55:50.001Z</time></trkpt><trkpt lat="44.39801432074848" lon="11.260195072184944"><ele>95.0</ele><time>2026-04-19T16:55:51Z</time></trkpt><trkpt lat="44.398261879903124" lon="11.260316953162627"><ele>97.0</ele><time>2026-04-19T16:55:52Z</time></trkpt><trkpt lat="44.39850809601429" lon="11.260448967752883"><ele>97.0</ele><time>2026-04-19T16:55:53Z</time></trkpt><trkpt lat="44.39875130867565" lon="11.260587829816878"><ele>97.0</ele><time>2026-04-19T16:55:54Z</time></trkpt><trkpt lat="44.398991543815235" lon="11.260735592657277"><ele>99.0</ele><time>2026-04-19T16:55:55Z</time></trkpt><trkpt lat="44.39923113988929" lon="11.260885674172918"><ele>101.0</ele><time>2026-04-19T16:55:56Z</time></trkpt><trkpt lat="44.399467753287546" lon="11.261046823440553"><ele>100.5</ele><time>2026-04-19T16:55:57Z</time></trkpt><trkpt lat="44.399701885914936" lon="11.261214400986427"><ele>100.0</ele><time>2026-04-19T16:55:58Z</time></trkpt><trkpt lat="44.39993305348621" lon="11.261389759118174"><ele>101.0</ele><time>2026-04-19T16:55:59Z</time></trkpt><trkpt lat="44.40016153707979" lon="11.261572715593882"><ele>102.0</ele><time>2026-04-19T16:56:00Z</time></trkpt><trkpt lat="44.400387690225095" lon="11.261761039204892"><ele>101.5</ele><time>2026-04-19T16:56:01Z</time></trkpt><trkpt lat="44.40061314594689" lon="11.26195015125508"><ele>101.0</ele><time>2026-04-19T16:56:02Z</time></trkpt><trkpt lat="44.40083709825602" lon="11.262143146812473"><ele>100.0</ele><time>2026-04-19T16:56:03Z</time></trkpt><trkpt lat="44.40106327743702" lon="11.262330423790598"><ele>99.0</ele><time>2026-04-19T16:56:04Z</time></trkpt><trkpt lat="44.401290009323255" lon="11.262517390260996"><ele>99.0</ele><time>2026-04-19T16:56:05Z</time></trkpt><trkpt lat="44.401518208555665" lon="11.262701312707266"><ele>99.0</ele><time>2026-04-19T16:56:06Z</time></trkpt><trkpt lat="44.40174713580685" lon="11.262884481224251"><ele>99.0</ele><time>2026-04-19T16:56:07Z</time></trkpt><trkpt lat="44.401979707650305" lon="11.263061769337655"><ele>99.0</ele><time>2026-04-19T16:56:08Z</time></trkpt><trkpt lat="44.40221430651275" lon="11.263230460303074"><ele>99.0</ele><time>2026-04-19T16:56:09Z</time></trkpt><trkpt lat="44.402449407794606" lon="11.263396068069321"><ele>99.0</ele><time>2026-04-19T16:56:10Z</time></trkpt><trkpt lat="44.40268802742969" lon="11.26355315706103"><ele>99.0</ele><time>2026-04-19T16:56:11Z</time></trkpt><trkpt lat="44.402929685413056" lon="11.263700136765499"><ele>99.0</ele><time>2026-04-19T16:56:12Z</time></trkpt><trkpt lat="44.40317212796762" lon="11.263841268116506"><ele>99.0</ele><time>2026-04-19T16:56:13Z</time></trkpt><trkpt lat="44.403418025746014" lon="11.263969947549288"><ele>99.0</ele><time>2026-04-19T16:56:14Z</time></trkpt><trkpt lat="44.403668629508715" lon="11.264089879437378"><ele>100.0</ele><time>2026-04-19T16:56:15Z</time></trkpt><trkpt lat="44.40392012407924" lon="11.264200711442905"><ele>101.0</ele><time>2026-04-19T16:56:16Z</time></trkpt><trkpt lat="44.40417302181682" lon="11.26430325364357"><ele>101.0</ele><time>2026-04-19T16:56:17Z</time></trkpt><trkpt lat="44.4044272993129" lon="11.264398206299523"><ele>101.0</ele><time>2026-04-19T16:56:18Z</time></trkpt><trkpt lat="44.40468262773381" lon="11.264488861577883"><ele>100.5</ele><time>2026-04-19T16:56:19Z</time></trkpt><trkpt lat="44.404938231131446" lon="11.26457930976521"><ele>100.0</ele><time>2026-04-19T16:56:20Z</time></trkpt><trkpt lat="44.40519416591634" lon="11.264668940192621"><ele>100.0</ele><time>2026-04-19T16:56:21Z</time></trkpt><trkpt lat="44.405450012477644" lon="11.264757420911263"><ele>100.0</ele><time>2026-04-19T16:56:22Z</time></trkpt><trkpt lat="44.40570553183512" lon="11.264846527448505"><ele>98.5</ele><time>2026-04-19T16:56:23Z</time></trkpt><trkpt lat="44.40596109522088" lon="11.264935051869582"><ele>97.0</ele><time>2026-04-19T16:56:24Z</time></trkpt><trkpt lat="44.406217285680796" lon="11.26502150976465"><ele>97.5</ele><time>2026-04-19T16:56:25Z</time></trkpt><trkpt lat="44.40647355121612" lon="11.265110279614891"><ele>98.0</ele><time>2026-04-19T16:56:26Z</time></trkpt><trkpt lat="44.40673061417212" lon="11.265198406955463"><ele>98.0</ele><time>2026-04-19T16:56:27Z</time></trkpt><trkpt lat="44.40698587712938" lon="11.265286182640383"><ele>98.0</ele><time>2026-04-19T16:56:28Z</time></trkpt><trkpt lat="44.40724189342831" lon="11.265376086605158"><ele>98.0</ele><time>2026-04-19T16:56:29Z</time></trkpt><trkpt lat="44.4074976354171" lon="11.265467135108905"><ele>98.0</ele><time>2026-04-19T16:56:30Z</time></trkpt><trkpt lat="44.40775416237991" lon="11.265554074921786"><ele>97.5</ele><time>2026-04-19T16:56:31Z</time></trkpt><trkpt lat="44.40801134567651" lon="11.265638909252022"><ele>97.0</ele><time>2026-04-19T16:56:32Z</time></trkpt><trkpt lat="44.40826775108991" lon="11.265722797441462"><ele>97.0</ele><time>2026-04-19T16:56:33Z</time></trkpt><trkpt lat="44.40852468302557" lon="11.265807509843349"><ele>97.0</ele><time>2026-04-19T16:56:34Z</time></trkpt><trkpt lat="44.40878393048399" lon="11.265893233865517"><ele>99.0</ele><time>2026-04-19T16:56:35Z</time></trkpt><trkpt lat="44.40904322802296" lon="11.26598043872982"><ele>101.0</ele><time>2026-04-19T16:56:36Z</time></trkpt><trkpt lat="44.40930136111499" lon="11.266066952745497"><ele>101.0</ele><time>2026-04-19T16:56:37Z</time></trkpt><trkpt lat="44.409561455312335" lon="11.266147820212778"><ele>101.0</ele><time>2026-04-19T16:56:38Z</time></trkpt><trkpt lat="44.40982012956199" lon="11.266233651377405"><ele>101.5</ele><time>2026-04-19T16:56:39Z</time></trkpt><trkpt lat="44.41007706584626" lon="11.266320482358276"><ele>102.0</ele><time>2026-04-19T16:56:40Z</time></trkpt><trkpt lat="44.41033444792171" lon="11.266407023678477"><ele>101.5</ele><time>2026-04-19T16:56:41Z</time></trkpt><trkpt lat="44.41059110709829" lon="11.266493958068187"><ele>101.0</ele><time>2026-04-19T16:56:42Z</time></trkpt><trkpt lat="44.41084869908819" lon="11.266579134780715"><ele>101.0</ele><time>2026-04-19T16:56:43Z</time></trkpt><trkpt lat="44.41110613473433" lon="11.266666731402506"><ele>101.0</ele><time>2026-04-19T16:56:44Z</time></trkpt><trkpt lat="44.41136266121385" lon="11.2667533366235"><ele>100.0</ele><time>2026-04-19T16:56:45Z</time></trkpt><trkpt lat="44.41161929539553" lon="11.26684327830973"><ele>99.0</ele><time>2026-04-19T16:56:46Z</time></trkpt><trkpt lat="44.4118747440598" lon="11.266932447304333"><ele>99.0</ele><time>2026-04-19T16:56:47Z</time></trkpt><trkpt lat="44.41213194827216" lon="11.267020702628995"><ele>99.0</ele><time>2026-04-19T16:56:48Z</time></trkpt><trkpt lat="44.41238920741446" lon="11.2671089037754"><ele>99.0</ele><time>2026-04-19T16:56:49Z</time></trkpt><trkpt lat="44.41264643429421" lon="11.267197094999219"><ele>99.0</ele><time>2026-04-19T16:56:50Z</time></trkpt><trkpt lat="44.41290389594588" lon="11.267286091349504"><ele>97.0</ele><time>2026-04-19T16:56:51Z</time></trkpt><trkpt lat="44.4131607269268" lon="11.267375688137706"><ele>95.0</ele><time>2026-04-19T16:56:52Z</time></trkpt><trkpt lat="44.4134177022812" lon="11.26746913735901"><ele>95.0</ele><time>2026-04-19T16:56:53Z</time></trkpt><trkpt lat="44.413673694403165" lon="11.267565277785437"><ele>95.0</ele><time>2026-04-19T16:56:54Z</time></trkpt><trkpt lat="44.41393059149849" lon="11.267663829074706"><ele>93.5</ele><time>2026-04-19T16:56:55Z</time></trkpt><trkpt lat="44.414186233280894" lon="11.267764286794831"><ele>92.0</ele><time>2026-04-19T16:56:56Z</time></trkpt><trkpt lat="44.41444187028899" lon="11.267861190879502"><ele>93.5</ele><time>2026-04-19T16:56:57Z</time></trkpt><trkpt lat="44.41469839128158" lon="11.267953533504253"><ele>95.0</ele><time>2026-04-19T16:56:58Z</time></trkpt><trkpt lat="44.41495468045293" lon="11.268041923569312"><ele>92.5</ele><time>2026-04-19T16:56:59Z</time></trkpt><trkpt lat="44.41521134640121" lon="11.268131376993937"><ele>90.0</ele><time>2026-04-19T16:57:00Z</time></trkpt><trkpt lat="44.41546667407325" lon="11.268221957520428"><ele>90.5</ele><time>2026-04-19T16:57:01Z</time></trkpt><trkpt lat="44.41572191734516" lon="11.268309121041868"><ele>91.0</ele><time>2026-04-19T16:57:02Z</time></trkpt><trkpt lat="44.41597762629678" lon="11.268399275921825"><ele>91.0</ele><time>2026-04-19T16:57:03Z</time></trkpt><trkpt lat="44.416233126282165" lon="11.26849608148909"><ele>91.0</ele><time>2026-04-19T16:57:04Z</time></trkpt><trkpt lat="44.416486705986756" lon="11.268600184327603"><ele>93.0</ele><time>2026-04-19T16:57:05Z</time></trkpt><trkpt lat="44.41673982943422" lon="11.268710722789308"><ele>95.0</ele><time>2026-04-19T16:57:06Z</time></trkpt><trkpt lat="44.41699105573974" lon="11.26882660310241"><ele>93.0</ele><time>2026-04-19T16:57:07Z</time></trkpt><trkpt lat="44.4172405435054" lon="11.268950340221586"><ele>91.0</ele><time>2026-04-19T16:57:08Z</time></trkpt><trkpt lat="44.4174894738701" lon="11.269077434592463"><ele>91.0</ele><time>2026-04-19T16:57:09Z</time></trkpt><trkpt lat="44.417734976957355" lon="11.269212524281942"><ele>91.0</ele><time>2026-04-19T16:57:10Z</time></trkpt><trkpt lat="44.417979756235496" lon="11.269352892905465"><ele>91.5</ele><time>2026-04-19T16:57:11Z</time></trkpt><trkpt lat="44.41822430488437" lon="11.269492396789715"><ele>92.0</ele><time>2026-04-19T16:57:12Z</time></trkpt><trkpt lat="44.418469327277634" lon="11.269629643006267"><ele>92.0</ele><time>2026-04-19T16:57:13Z</time></trkpt><trkpt lat="44.4187150423263" lon="11.26976847862331"><ele>92.0</ele><time>2026-04-19T16:57:14Z</time></trkpt><trkpt lat="44.41896054751168" lon="11.26990690370635"><ele>91.0</ele><time>2026-04-19T16:57:15Z</time></trkpt><trkpt lat="44.4192061983946" lon="11.270046558988238"><ele>90.0</ele><time>2026-04-19T16:57:16Z</time></trkpt><trkpt lat="44.419451187724455" lon="11.270184566529991"><ele>89.5</ele><time>2026-04-19T16:57:17Z</time></trkpt><trkpt lat="44.41969671038864" lon="11.270323632898343"><ele>89.0</ele><time>2026-04-19T16:57:18Z</time></trkpt><trkpt lat="44.419941176172316" lon="11.270462349895713"><ele>89.0</ele><time>2026-04-19T16:57:19Z</time></trkpt><trkpt lat="44.420185886038304" lon="11.270602508746727"><ele>89.0</ele><time>2026-04-19T16:57:20Z</time></trkpt><trkpt lat="44.42043145901563" lon="11.270740501041898"><ele>89.0</ele><time>2026-04-19T16:57:21Z</time></trkpt><trkpt lat="44.420676913272814" lon="11.270877246400747"><ele>89.0</ele><time>2026-04-19T16:57:22Z</time></trkpt><trkpt lat="44.42092281627987" lon="11.27101547650108"><ele>89.0</ele><time>2026-04-19T16:57:23Z</time></trkpt><trkpt lat="44.42116827457261" lon="11.271154671447386"><ele>89.0</ele><time>2026-04-19T16:57:24Z</time></trkpt><trkpt lat="44.421413644378816" lon="11.27129438348649"><ele>89.5</ele><time>2026-04-19T16:57:25Z</time></trkpt><trkpt lat="44.42165874003365" lon="11.27143289036007"><ele>90.0</ele><time>2026-04-19T16:57:26Z</time></trkpt><trkpt lat="44.42190455753894" lon="11.271572567548626"><ele>90.0</ele><time>2026-04-19T16:57:27Z</time></trkpt><trkpt lat="44.422149507101885" lon="11.271708580209694"><ele>90.0</ele><time>2026-04-19T16:57:28Z</time></trkpt><trkpt lat="44.42239427477183" lon="11.271847901133812"><ele>90.0</ele><time>2026-04-19T16:57:29Z</time></trkpt><trkpt lat="44.422640785904264" lon="11.271985297499272"><ele>90.0</ele><time>2026-04-19T16:57:30Z</time></trkpt><trkpt lat="44.422886467212976" lon="11.272123383864313"><ele>89.0</ele><time>2026-04-19T16:57:31Z</time></trkpt><trkpt lat="44.42313303170398" lon="11.272261990910215"><ele>88.0</ele><time>2026-04-19T16:57:32Z</time></trkpt><trkpt lat="44.423379139848386" lon="11.272400327524316"><ele>86.5</ele><time>2026-04-19T16:57:33Z</time></trkpt><trkpt lat="44.42362463207554" lon="11.272538601783959"><ele>85.0</ele><time>2026-04-19T16:57:34Z</time></trkpt><trkpt lat="44.423870687816795" lon="11.272677896119626"><ele>84.5</ele><time>2026-04-19T16:57:35Z</time></trkpt><trkpt lat="44.42411604432106" lon="11.272817572885618"><ele>84.0</ele><time>2026-04-19T16:57:36Z</time></trkpt><trkpt lat="44.4243613891449" lon="11.272958789129003"><ele>84.0</ele><time>2026-04-19T16:57:37Z</time></trkpt><trkpt lat="44.42460610138429" lon="11.273100188276635"><ele>84.0</ele><time>2026-04-19T16:57:38Z</time></trkpt><trkpt lat="44.42485050250306" lon="11.273242168628231"><ele>84.5</ele><time>2026-04-19T16:57:39Z</time></trkpt><trkpt lat="44.42509496360266" lon="11.273384263330602"><ele>85.0</ele><time>2026-04-19T16:57:40Z</time></trkpt><trkpt lat="44.42533882376594" lon="11.27352913302496"><ele>85.0</ele><time>2026-04-19T16:57:41Z</time></trkpt><trkpt lat="44.42558202971734" lon="11.273675541743781"><ele>85.0</ele><time>2026-04-19T16:57:42Z</time></trkpt><trkpt lat="44.42582468729647" lon="11.273822509577299"><ele>83.0</ele><time>2026-04-19T16:57:43Z</time></trkpt><trkpt lat="44.426067792330436" lon="11.273968911623413"><ele>81.0</ele><time>2026-04-19T16:57:44Z</time></trkpt><trkpt lat="44.42631062932875" lon="11.274113720089439"><ele>79.0</ele><time>2026-04-19T16:57:45Z</time></trkpt><trkpt lat="44.426553833430546" lon="11.274257767367073"><ele>77.0</ele><time>2026-04-19T16:57:46Z</time></trkpt><trkpt lat="44.42679682465166" lon="11.274403591866818"><ele>77.0</ele><time>2026-04-19T16:57:47Z</time></trkpt><trkpt lat="44.42703942519672" lon="11.27454827423828"><ele>77.0</ele><time>2026-04-19T16:57:48Z</time></trkpt><trkpt lat="44.42728105613211" lon="11.274695398153343"><ele>76.5</ele><time>2026-04-19T16:57:49Z</time></trkpt><trkpt lat="44.42752329092872" lon="11.27484045828671"><ele>76.0</ele><time>2026-04-19T16:57:50Z</time></trkpt><trkpt lat="44.42776643686206" lon="11.27498210760237"><ele>75.0</ele><time>2026-04-19T16:57:51Z</time></trkpt><trkpt lat="44.42801143539634" lon="11.275120100482516"><ele>74.0</ele><time>2026-04-19T16:57:52Z</time></trkpt><trkpt lat="44.42825884921689" lon="11.27525153290011"><ele>74.0</ele><time>2026-04-19T16:57:53Z</time></trkpt><trkpt lat="44.428508125510845" lon="11.2753791903566"><ele>74.0</ele><time>2026-04-19T16:57:54Z</time></trkpt><trkpt lat="44.428758432894966" lon="11.27550183220172"><ele>74.0</ele><time>2026-04-19T16:57:55Z</time></trkpt><trkpt lat="44.42900891443462" lon="11.275618901954363"><ele>74.0</ele><time>2026-04-19T16:57:56Z</time></trkpt><trkpt lat="44.42926120719263" lon="11.275729071754203"><ele>74.0</ele><time>2026-04-19T16:57:57Z</time></trkpt><trkpt lat="44.42951443646947" lon="11.275831516742844"><ele>74.0</ele><time>2026-04-19T16:57:58Z</time></trkpt><trkpt lat="44.42976933012075" lon="11.27592812360355"><ele>74.5</ele><time>2026-04-19T16:57:59Z</time></trkpt><trkpt lat="44.430026084525664" lon="11.276018064816924"><ele>75.0</ele><time>2026-04-19T16:58:00Z</time></trkpt><trkpt lat="44.430283415380096" lon="11.27610241645681"><ele>75.5</ele><time>2026-04-19T16:58:01Z</time></trkpt><trkpt lat="44.43054179028673" lon="11.276182453133224"><ele>76.0</ele><time>2026-04-19T16:58:02Z</time></trkpt><trkpt lat="44.4308010057158" lon="11.276253377714232"><ele>76.0</ele><time>2026-04-19T16:58:03Z</time></trkpt><trkpt lat="44.43106079561748" lon="11.27631943213626"><ele>76.0</ele><time>2026-04-19T16:58:04Z</time></trkpt><trkpt lat="44.43132087532641" lon="11.276380699483019"><ele>76.0</ele><time>2026-04-19T16:58:05Z</time></trkpt><trkpt lat="44.43157867771542" lon="11.276441804572977"><ele>76.0</ele><time>2026-04-19T16:58:06Z</time></trkpt><trkpt lat="44.43184075077577" lon="11.276497993075951"><ele>76.0</ele><time>2026-04-19T16:58:07Z</time></trkpt><trkpt lat="44.432100601784995" lon="11.27655861663563"><ele>76.0</ele><time>2026-04-19T16:58:08Z</time></trkpt><trkpt lat="44.43236083421484" lon="11.276618882916704"><ele>74.5</ele><time>2026-04-19T16:58:09Z</time></trkpt><trkpt lat="44.43262076526433" lon="11.276677414600798"><ele>73.0</ele><time>2026-04-19T16:58:10Z</time></trkpt><trkpt lat="44.43288072644759" lon="11.27673573204313"><ele>72.0</ele><time>2026-04-19T16:58:11Z</time></trkpt><trkpt lat="44.433141282746746" lon="11.276792527820968"><ele>71.0</ele><time>2026-04-19T16:58:12Z</time></trkpt><trkpt lat="44.43340259788643" lon="11.276849878193064"><ele>71.0</ele><time>2026-04-19T16:58:13Z</time></trkpt><trkpt lat="44.433663616219164" lon="11.276905485123667"><ele>71.0</ele><time>2026-04-19T16:58:14Z</time></trkpt><trkpt lat="44.43392547250966" lon="11.27696148241714"><ele>71.5</ele><time>2026-04-19T16:58:15Z</time></trkpt><trkpt lat="44.434187254364176" lon="11.277020385368298"><ele>72.0</ele><time>2026-04-19T16:58:16Z</time></trkpt><trkpt lat="44.43444853402835" lon="11.277081378115385"><ele>72.0</ele><time>2026-04-19T16:58:17Z</time></trkpt><trkpt lat="44.43471074171315" lon="11.277141575143357"><ele>72.0</ele><time>2026-04-19T16:58:18Z</time></trkpt><trkpt lat="44.434971741209765" lon="11.27720447100209"><ele>72.0</ele><time>2026-04-19T16:58:19Z</time></trkpt><trkpt lat="44.43523366582481" lon="11.277263014702651"><ele>72.0</ele><time>2026-04-19T16:58:20Z</time></trkpt><trkpt lat="44.43549447869364" lon="11.277321894365977"><ele>71.5</ele><time>2026-04-19T16:58:21Z</time></trkpt><trkpt lat="44.43575328147869" lon="11.277379705119644"><ele>71.0</ele><time>2026-04-19T16:58:22Z</time></trkpt><trkpt lat="44.436006625395066" lon="11.277436941052773"><ele>71.0</ele><time>2026-04-19T16:58:23Z</time></trkpt><trkpt lat="44.436257325009095" lon="11.277494345922765"><ele>71.0</ele><time>2026-04-19T16:58:24Z</time></trkpt><trkpt lat="44.43650615845332" lon="11.277553024100598"><ele>71.5</ele><time>2026-04-19T16:58:25Z</time></trkpt><trkpt lat="44.436756138357794" lon="11.277609616704304"><ele>72.0</ele><time>2026-04-19T16:58:26Z</time></trkpt><trkpt lat="44.43700815230202" lon="11.27766777125231"><ele>73.0</ele><time>2026-04-19T16:58:27Z</time></trkpt><trkpt lat="44.437259874662715" lon="11.277726124970075"><ele>74.0</ele><time>2026-04-19T16:58:28Z</time></trkpt><trkpt lat="44.43751304555783" lon="11.277785174452013"><ele>74.0</ele><time>2026-04-19T16:58:29Z</time></trkpt><trkpt lat="44.43776755159421" lon="11.27784062972783"><ele>74.0</ele><time>2026-04-19T16:58:30Z</time></trkpt><trkpt lat="44.43802125368338" lon="11.277896348230684"><ele>73.5</ele><time>2026-04-19T16:58:31Z</time></trkpt><trkpt lat="44.43827322994668" lon="11.277953244003399"><ele>73.0</ele><time>2026-04-19T16:58:32Z</time></trkpt><trkpt lat="44.438526857798216" lon="11.2780112775228"><ele>73.0</ele><time>2026-04-19T16:58:33Z</time></trkpt><trkpt lat="44.43878040121659" lon="11.278069019260005"><ele>73.0</ele><time>2026-04-19T16:58:34Z</time></trkpt><trkpt lat="44.43903315226845" lon="11.278127216765869"><ele>71.5</ele><time>2026-04-19T16:58:35Z</time></trkpt><trkpt lat="44.43928606528189" lon="11.278184780662324"><ele>70.0</ele><time>2026-04-19T16:58:36Z</time></trkpt><trkpt lat="44.43953893263245" lon="11.278242901405028"><ele>70.0</ele><time>2026-04-19T16:58:37Z</time></trkpt><trkpt lat="44.439791412092745" lon="11.27830107040047"><ele>70.0</ele><time>2026-04-19T16:58:38Z</time></trkpt><trkpt lat="44.44004454279927" lon="11.278360441119052"><ele>70.0</ele><time>2026-04-19T16:58:39Z</time></trkpt><trkpt lat="44.44029752936683" lon="11.278420008127695"><ele>70.0</ele><time>2026-04-19T16:58:40Z</time></trkpt><trkpt lat="44.440550836687656" lon="11.278478894286764"><ele>70.5</ele><time>2026-04-19T16:58:41Z</time></trkpt><trkpt lat="44.440804603639876" lon="11.278535694772906"><ele>71.0</ele><time>2026-04-19T16:58:42Z</time></trkpt><trkpt lat="44.44105801762403" lon="11.278591063717545"><ele>71.0</ele><time>2026-04-19T16:58:43Z</time></trkpt><trkpt lat="44.44131179985496" lon="11.278646865260859"><ele>71.0</ele><time>2026-04-19T16:58:44Z</time></trkpt><trkpt lat="44.441565485930454" lon="11.278700400929338"><ele>71.0</ele><time>2026-04-19T16:58:45Z</time></trkpt><trkpt lat="44.44181928308657" lon="11.278755680965146"><ele>71.0</ele><time>2026-04-19T16:58:46Z</time></trkpt><trkpt lat="44.44207337443097" lon="11.27881144055322"><ele>71.0</ele><time>2026-04-19T16:58:47Z</time></trkpt><trkpt lat="44.44232678609396" lon="11.27886943989082"><ele>71.0</ele><time>2026-04-19T16:58:48Z</time></trkpt><trkpt lat="44.44258030131277" lon="11.278927314593917"><ele>70.5</ele><time>2026-04-19T16:58:49Z</time></trkpt><trkpt lat="44.442833892093496" lon="11.278986151683462"><ele>70.0</ele><time>2026-04-19T16:58:50Z</time></trkpt><trkpt lat="44.443087304736345" lon="11.279041894389609"><ele>70.0</ele><time>2026-04-19T16:58:51Z</time></trkpt><trkpt lat="44.44334060402801" lon="11.279097674237052"><ele>70.0</ele><time>2026-04-19T16:58:52Z</time></trkpt><trkpt lat="44.44359427574574" lon="11.279151379365967"><ele>71.5</ele><time>2026-04-19T16:58:53Z</time></trkpt><trkpt lat="44.44384807664206" lon="11.279206351755136"><ele>73.0</ele><time>2026-04-19T16:58:54Z</time></trkpt><trkpt lat="44.44410078850218" lon="11.279265285319601"><ele>73.0</ele><time>2026-04-19T16:58:55Z</time></trkpt><trkpt lat="44.44435449861745" lon="11.279321465111424"><ele>73.0</ele><time>2026-04-19T16:58:56Z</time></trkpt><trkpt lat="44.44460760805675" lon="11.279378537602408"><ele>73.5</ele><time>2026-04-19T16:58:57Z</time></trkpt><trkpt lat="44.444860680220316" lon="11.279437755365107"><ele>74.0</ele><time>2026-04-19T16:58:58Z</time></trkpt><trkpt lat="44.445113670902664" lon="11.27949472690289"><ele>74.0</ele><time>2026-04-19T16:58:59Z</time></trkpt><trkpt lat="44.4453668918524" lon="11.279552086112663"><ele>74.0</ele><time>2026-04-19T16:59:00Z</time></trkpt><trkpt lat="44.4456203968724" lon="11.27960768532555"><ele>72.0</ele><time>2026-04-19T16:59:01Z</time></trkpt><trkpt lat="44.44587283012912" lon="11.2796669643361"><ele>70.0</ele><time>2026-04-19T16:59:02Z</time></trkpt><trkpt lat="44.44612587952387" lon="11.27972430790399"><ele>68.0</ele><time>2026-04-19T16:59:03Z</time></trkpt><trkpt lat="44.446378336265624" lon="11.27978482632096"><ele>66.0</ele><time>2026-04-19T16:59:04Z</time></trkpt><trkpt lat="44.44663114903859" lon="11.279844182276058"><ele>66.0</ele><time>2026-04-19T16:59:05Z</time></trkpt><trkpt lat="44.44688297217146" lon="11.27990488929352"><ele>66.0</ele><time>2026-04-19T16:59:06Z</time></trkpt><trkpt lat="44.44713571566307" lon="11.279958769360833"><ele>67.0</ele><time>2026-04-19T16:59:07Z</time></trkpt><trkpt lat="44.4473884528894" lon="11.280014778345752"><ele>68.0</ele><time>2026-04-19T16:59:08Z</time></trkpt><trkpt lat="44.44764056552235" lon="11.280072166641602"><ele>68.0</ele><time>2026-04-19T16:59:09Z</time></trkpt><trkpt lat="44.44789529271266" lon="11.280126520603519"><ele>68.0</ele><time>2026-04-19T16:59:10Z</time></trkpt><trkpt lat="44.448150183278656" lon="11.280181872910166"><ele>68.0</ele><time>2026-04-19T16:59:11Z</time></trkpt><trkpt lat="44.44840246245747" lon="11.28023930721314"><ele>68.0</ele><time>2026-04-19T16:59:12Z</time></trkpt><trkpt lat="44.448655007762056" lon="11.280296733099506"><ele>67.5</ele><time>2026-04-19T16:59:13Z</time></trkpt><trkpt lat="44.448907972837084" lon="11.280353110746388"><ele>67.0</ele><time>2026-04-19T16:59:14Z</time></trkpt><trkpt lat="44.449161591113246" lon="11.280408627185928"><ele>67.0</ele><time>2026-04-19T16:59:15Z</time></trkpt><trkpt lat="44.44941407963715" lon="11.280465884152445"><ele>67.0</ele><time>2026-04-19T16:59:16Z</time></trkpt><trkpt lat="44.449666867865304" lon="11.280522578847615"><ele>67.0</ele><time>2026-04-19T16:59:17Z</time></trkpt><trkpt lat="44.449919631208445" lon="11.280579514411691"><ele>67.0</ele><time>2026-04-19T16:59:18Z</time></trkpt><trkpt lat="44.45017290520271" lon="11.28064043430643"><ele>67.0</ele><time>2026-04-19T16:59:19Z</time></trkpt><trkpt lat="44.450416798715665" lon="11.280696490299812"><ele>67.0</ele><time>2026-04-19T16:59:20Z</time></trkpt><trkpt lat="44.45065100074901" lon="11.280749487646775"><ele>67.0</ele><time>2026-04-19T16:59:21Z</time></trkpt><trkpt lat="44.4508740019528" lon="11.280800545113838"><ele>67.0</ele><time>2026-04-19T16:59:22Z</time></trkpt><trkpt lat="44.45109376382983" lon="11.280849754797543"><ele>67.0</ele><time>2026-04-19T16:59:23Z</time></trkpt><trkpt lat="44.45130865629227" lon="11.28089787295448"><ele>67.33333333333333</ele><time>2026-04-19T16:59:24Z</time></trkpt><trkpt lat="44.45151905606058" lon="11.28094540311965"><ele>67.66666666666667</ele><time>2026-04-19T16:59:25Z</time></trkpt><trkpt lat="44.45172625952847" lon="11.280993035302746"><ele>68.0</ele><time>2026-04-19T16:59:26Z</time></trkpt><trkpt lat="44.451933777462365" lon="11.281041137374196"><ele>67.66666666666667</ele><time>2026-04-19T16:59:27Z</time></trkpt><trkpt lat="44.4521400665618" lon="11.281087561532491"><ele>67.33333333333333</ele><time>2026-04-19T16:59:28Z</time></trkpt><trkpt lat="44.4523496805337" lon="11.281136295778783"><ele>67.0</ele><time>2026-04-19T16:59:29Z</time></trkpt><trkpt lat="44.452560246911816" lon="11.281182306057538"><ele>67.0</ele><time>2026-04-19T16:59:30Z</time></trkpt><trkpt lat="44.45277130523256" lon="11.281224799039407"><ele>67.0</ele><time>2026-04-19T16:59:31Z</time></trkpt><trkpt lat="44.452983923983766" lon="11.281262898503826"><ele>67.0</ele><time>2026-04-19T16:59:32Z</time></trkpt><trkpt lat="44.453197299565254" lon="11.281293571194066"><ele>67.33333333333333</ele><time>2026-04-19T16:59:33Z</time></trkpt><trkpt lat="44.45341039324029" lon="11.281313474948565"><ele>67.66666666666667</ele><time>2026-04-19T16:59:34Z</time></trkpt><trkpt lat="44.45362057259399" lon="11.28132397002836"><ele>68.0</ele><time>2026-04-19T16:59:35Z</time></trkpt><trkpt lat="44.45383061717008" lon="11.281324772593953"><ele>68.33333333333334</ele><time>2026-04-19T16:59:36Z</time></trkpt><trkpt lat="44.45404124001747" lon="11.281314343640814"><ele>68.66666666666667</ele><time>2026-04-19T16:59:37Z</time></trkpt><trkpt lat="44.454253131053534" lon="11.281292454516343"><ele>69.0</ele><time>2026-04-19T16:59:38Z</time></trkpt><trkpt lat="44.45446307354199" lon="11.281260261281222"><ele>70.33333333333333</ele><time>2026-04-19T16:59:39Z</time></trkpt><trkpt lat="44.45467351835763" lon="11.281214390214906"><ele>71.66666666666666</ele><time>2026-04-19T16:59:40Z</time></trkpt><trkpt lat="44.45488179663017" lon="11.281159429977848"><ele>73.0</ele><time>2026-04-19T16:59:41Z</time></trkpt><trkpt lat="44.45508802400929" lon="11.281091929860805"><ele>73.0</ele><time>2026-04-19T16:59:42Z</time></trkpt><trkpt lat="44.45529219399295" lon="11.281011031820238"><ele>73.0</ele><time>2026-04-19T16:59:43Z</time></trkpt><trkpt lat="44.45549362906799" lon="11.280919351849612"><ele>73.0</ele><time>2026-04-19T16:59:44Z</time></trkpt><trkpt lat="44.45569180144701" lon="11.280816744937423"><ele>73.66666666666666</ele><time>2026-04-19T16:59:45Z</time></trkpt><trkpt lat="44.45588713893269" lon="11.280702944754072"><ele>74.33333333333333</ele><time>2026-04-19T16:59:46Z</time></trkpt><trkpt lat="44.45608011137124" lon="11.280581237185388"><ele>75.0</ele><time>2026-04-19T16:59:47Z</time></trkpt><trkpt lat="44.456272262892206" lon="11.280447991919408"><ele>75.33333333333333</ele><time>2026-04-19T16:59:48Z</time></trkpt><trkpt lat="44.45646275864204" lon="11.280308540070301"><ele>75.66666666666666</ele><time>2026-04-19T16:59:49Z</time></trkpt><trkpt lat="44.456644447070424" lon="11.280162354407109"><ele>76.0</ele><time>2026-04-19T16:59:50Z</time></trkpt><trkpt lat="44.456822013892086" lon="11.280001574189779"><ele>76.0</ele><time>2026-04-19T16:59:51Z</time></trkpt><trkpt lat="44.45699000995386" lon="11.27983607756817"><ele>76.0</ele><time>2026-04-19T16:59:52Z</time></trkpt><trkpt lat="44.457148463578235" lon="11.27966834205749"><ele>76.0</ele><time>2026-04-19T16:59:53Z</time></trkpt><trkpt lat="44.457298651391326" lon="11.279497322533219"><ele>76.0</ele><time>2026-04-19T16:59:54Z</time></trkpt><trkpt lat="44.45744280025867" lon="11.279321664141346"><ele>76.0</ele><time>2026-04-19T16:59:55Z</time></trkpt><trkpt lat="44.457585318072965" lon="11.279136333874005"><ele>76.0</ele><time>2026-04-19T16:59:56Z</time></trkpt><trkpt lat="44.457725707024586" lon="11.278943212100211"><ele>76.0</ele><time>2026-04-19T16:59:57Z</time></trkpt><trkpt lat="44.45786168241566" lon="11.27874888653545"><ele>76.0</ele><time>2026-04-19T16:59:58Z</time></trkpt><trkpt lat="44.45799086043055" lon="11.278545607401556"><ele>76.0</ele><time>2026-04-19T16:59:59Z</time></trkpt><trkpt lat="44.458121272238344" lon="11.278354457026037"><ele>76.0</ele><time>2026-04-19T17:00:00Z</time></trkpt><trkpt lat="44.45824401779565" lon="11.278170219937074"><ele>76.0</ele><time>2026-04-19T17:00:01Z</time></trkpt><trkpt lat="44.45836884096877" lon="11.277984669816215"><ele>76.0</ele><time>2026-04-19T17:00:02Z</time></trkpt><trkpt lat="44.45849268701072" lon="11.277786754048245"><ele>76.0</ele><time>2026-04-19T17:00:03Z</time></trkpt><trkpt lat="44.45862058770441" lon="11.277579076373412"><ele>76.0</ele><time>2026-04-19T17:00:04Z</time></trkpt><trkpt lat="44.458756416883524" lon="11.277365502291415"><ele>76.0</ele><time>2026-04-19T17:00:05Z</time></trkpt><trkpt lat="44.458902773219705" lon="11.277151245772343"><ele>76.0</ele><time>2026-04-19T17:00:06Z</time></trkpt><trkpt lat="44.45906063441605" lon="11.27693978928722"><ele>76.0</ele><time>2026-04-19T17:00:07Z</time></trkpt><trkpt lat="44.459227671490005" lon="11.276737107794569"><ele>76.0</ele><time>2026-04-19T17:00:08Z</time></trkpt><trkpt lat="44.45940567549407" lon="11.276545088973776"><ele>76.5</ele><time>2026-04-19T17:00:09Z</time></trkpt><trkpt lat="44.45958963944163" lon="11.276360874216255"><ele>77.0</ele><time>2026-04-19T17:00:10Z</time></trkpt><trkpt lat="44.45978208708877" lon="11.276185972177185"><ele>76.0</ele><time>2026-04-19T17:00:11Z</time></trkpt><trkpt lat="44.459983015286326" lon="11.276023149833673"><ele>75.0</ele><time>2026-04-19T17:00:12Z</time></trkpt><trkpt lat="44.4601918961009" lon="11.275874575404194"><ele>75.0</ele><time>2026-04-19T17:00:13Z</time></trkpt><trkpt lat="44.46040817667392" lon="11.275736235415678"><ele>75.0</ele><time>2026-04-19T17:00:14Z</time></trkpt><trkpt lat="44.46063150858541" lon="11.27561074424316"><ele>77.0</ele><time>2026-04-19T17:00:15Z</time></trkpt><trkpt lat="44.460860463995104" lon="11.275497709192994"><ele>79.0</ele><time>2026-04-19T17:00:16Z</time></trkpt><trkpt lat="44.4610926226484" lon="11.275398306944185"><ele>78.0</ele><time>2026-04-19T17:00:17Z</time></trkpt><trkpt lat="44.461328101120245" lon="11.275311964624155"><ele>77.0</ele><time>2026-04-19T17:00:18Z</time></trkpt><trkpt lat="44.461567026522054" lon="11.275237498624762"><ele>77.0</ele><time>2026-04-19T17:00:19Z</time></trkpt><trkpt lat="44.46180923880301" lon="11.27517653233607"><ele>77.0</ele><time>2026-04-19T17:00:20Z</time></trkpt><trkpt lat="44.46205470279755" lon="11.275128936036559"><ele>75.0</ele><time>2026-04-19T17:00:21Z</time></trkpt><trkpt lat="44.46230182396913" lon="11.27509224435431"><ele>73.0</ele><time>2026-04-19T17:00:22Z</time></trkpt><trkpt lat="44.46255012577711" lon="11.275065125203952"><ele>73.0</ele><time>2026-04-19T17:00:23Z</time></trkpt><trkpt lat="44.46279621287784" lon="11.275041142629455"><ele>73.0</ele><time>2026-04-19T17:00:24Z</time></trkpt><trkpt lat="44.46303901388359" lon="11.275019880274568"><ele>72.0</ele><time>2026-04-19T17:00:25Z</time></trkpt><trkpt lat="44.4632787445961" lon="11.275001383726106"><ele>71.0</ele><time>2026-04-19T17:00:26Z</time></trkpt><trkpt lat="44.4635174154236" lon="11.274981819091657"><ele>71.0</ele><time>2026-04-19T17:00:27Z</time></trkpt><trkpt lat="44.46375271247733" lon="11.274963291338892"><ele>71.0</ele><time>2026-04-19T17:00:28Z</time></trkpt><trkpt lat="44.46398706378896" lon="11.274943231690195"><ele>71.0</ele><time>2026-04-19T17:00:29Z</time></trkpt><trkpt lat="44.46421864714838" lon="11.274923662921788"><ele>71.0</ele><time>2026-04-19T17:00:30Z</time></trkpt><trkpt lat="44.4644501630709" lon="11.274904591450838"><ele>72.0</ele><time>2026-04-19T17:00:31Z</time></trkpt><trkpt lat="44.46468209153239" lon="11.274884634767027"><ele>73.0</ele><time>2026-04-19T17:00:32Z</time></trkpt><trkpt lat="44.46491293463542" lon="11.274864654753236"><ele>73.0</ele><time>2026-04-19T17:00:33Z</time></trkpt><trkpt lat="44.46514445585547" lon="11.27484240107206"><ele>73.0</ele><time>2026-04-19T17:00:34Z</time></trkpt><trkpt lat="44.46537657175876" lon="11.27482046227833"><ele>74.0</ele><time>2026-04-19T17:00:35Z</time></trkpt><trkpt lat="44.465608458511554" lon="11.274798815762448"><ele>75.0</ele><time>2026-04-19T17:00:36Z</time></trkpt><trkpt lat="44.465839540905854" lon="11.274779154530185"><ele>76.5</ele><time>2026-04-19T17:00:37Z</time></trkpt><trkpt lat="44.466068588279214" lon="11.274759998891374"><ele>78.0</ele><time>2026-04-19T17:00:38Z</time></trkpt><trkpt lat="44.46629605818014" lon="11.274741141056811"><ele>78.0</ele><time>2026-04-19T17:00:39Z</time></trkpt><trkpt lat="44.46652219945618" lon="11.274722506304728"><ele>78.0</ele><time>2026-04-19T17:00:40Z</time></trkpt><trkpt lat="44.46674628238958" lon="11.27470309908517"><ele>78.0</ele><time>2026-04-19T17:00:41Z</time></trkpt><trkpt lat="44.466964281810924" lon="11.274683891691812"><ele>78.0</ele><time>2026-04-19T17:00:42Z</time></trkpt><trkpt lat="44.46717468830819" lon="11.274663065935437"><ele>78.0</ele><time>2026-04-19T17:00:43Z</time></trkpt><trkpt lat="44.46738122066432" lon="11.274639585107607"><ele>78.0</ele><time>2026-04-19T17:00:44Z</time></trkpt><trkpt lat="44.467588331302224" lon="11.274608371875772"><ele>78.0</ele><time>2026-04-19T17:00:45Z</time></trkpt><trkpt lat="44.4677948159024" lon="11.274568767012873"><ele>78.0</ele><time>2026-04-19T17:00:46Z</time></trkpt><trkpt lat="44.467999353261" lon="11.274524454145457"><ele>77.33333333333333</ele><time>2026-04-19T17:00:47Z</time></trkpt><trkpt lat="44.46820276330823" lon="11.274471607726866"><ele>76.66666666666666</ele><time>2026-04-19T17:00:48Z</time></trkpt><trkpt lat="44.46840317575429" lon="11.274405465839024"><ele>76.0</ele><time>2026-04-19T17:00:49Z</time></trkpt><trkpt lat="44.46860275956647" lon="11.274328913778493"><ele>77.0</ele><time>2026-04-19T17:00:50Z</time></trkpt><trkpt lat="44.46880073556566" lon="11.274243596872385"><ele>78.0</ele><time>2026-04-19T17:00:51Z</time></trkpt><trkpt lat="44.46899758862379" lon="11.274147633938778"><ele>79.0</ele><time>2026-04-19T17:00:52Z</time></trkpt><trkpt lat="44.46919308289285" lon="11.274039512723231"><ele>78.66666666666666</ele><time>2026-04-19T17:00:53Z</time></trkpt><trkpt lat="44.46938494432675" lon="11.273924827142157"><ele>78.33333333333333</ele><time>2026-04-19T17:00:54Z</time></trkpt><trkpt lat="44.46957255786362" lon="11.27379874145314"><ele>78.0</ele><time>2026-04-19T17:00:55Z</time></trkpt><trkpt lat="44.46975490075418" lon="11.273661448808804"><ele>78.66666666666667</ele><time>2026-04-19T17:00:56Z</time></trkpt><trkpt lat="44.46993319785393" lon="11.273517034030121"><ele>79.33333333333334</ele><time>2026-04-19T17:00:57Z</time></trkpt><trkpt lat="44.47010817960101" lon="11.273364765569486"><ele>80.0</ele><time>2026-04-19T17:00:58Z</time></trkpt><trkpt lat="44.47027972068781" lon="11.273205378474579"><ele>79.0</ele><time>2026-04-19T17:00:59Z</time></trkpt><trkpt lat="44.470447022929" lon="11.273037410055439"><ele>78.0</ele><time>2026-04-19T17:01:00Z</time></trkpt><trkpt lat="44.47061346614451" lon="11.272866696220323"><ele>77.0</ele><time>2026-04-19T17:01:01Z</time></trkpt><trkpt lat="44.47077871345956" lon="11.2726924089063"><ele>77.0</ele><time>2026-04-19T17:01:02Z</time></trkpt><trkpt lat="44.47094146614315" lon="11.272514148999711"><ele>77.0</ele><time>2026-04-19T17:01:03Z</time></trkpt><trkpt lat="44.47110172775761" lon="11.272332102120844"><ele>77.0</ele><time>2026-04-19T17:01:04Z</time></trkpt><trkpt lat="44.471261807663765" lon="11.27214979078452"><ele>79.0</ele><time>2026-04-19T17:01:05Z</time></trkpt><trkpt lat="44.47142190396718" lon="11.27196747745166"><ele>81.0</ele><time>2026-04-19T17:01:06Z</time></trkpt><trkpt lat="44.47158331584968" lon="11.271785176891198"><ele>83.0</ele><time>2026-04-19T17:01:07Z</time></trkpt><trkpt lat="44.47174480425838" lon="11.271602721287108"><ele>83.66666666666667</ele><time>2026-04-19T17:01:08Z</time></trkpt><trkpt lat="44.47190619074149" lon="11.271419027408816"><ele>84.33333333333333</ele><time>2026-04-19T17:01:09Z</time></trkpt><trkpt lat="44.47206950630331" lon="11.271235097839586"><ele>85.0</ele><time>2026-04-19T17:01:10Z</time></trkpt><trkpt lat="44.47223207853788" lon="11.271050168648534"><ele>85.0</ele><time>2026-04-19T17:01:11Z</time></trkpt><trkpt lat="44.47239615180578" lon="11.270862920349618"><ele>85.0</ele><time>2026-04-19T17:01:12Z</time></trkpt><trkpt lat="44.472562532353194" lon="11.270674758015165"><ele>85.0</ele><time>2026-04-19T17:01:13Z</time></trkpt><trkpt lat="44.47272857161774" lon="11.27048665633617"><ele>86.33333333333333</ele><time>2026-04-19T17:01:14Z</time></trkpt><trkpt lat="44.47289836191613" lon="11.270300644995668"><ele>87.66666666666667</ele><time>2026-04-19T17:01:15Z</time></trkpt><trkpt lat="44.47307004144448" lon="11.270118253025744"><ele>89.0</ele><time>2026-04-19T17:01:16Z</time></trkpt><trkpt lat="44.47324582162557" lon="11.269941105327923"><ele>90.66666666666667</ele><time>2026-04-19T17:01:17Z</time></trkpt><trkpt lat="44.473424455722565" lon="11.26976634432668"><ele>92.33333333333333</ele><time>2026-04-19T17:01:18Z</time></trkpt><trkpt lat="44.47360595929046" lon="11.269592362822925"><ele>94.0</ele><time>2026-04-19T17:01:19Z</time></trkpt><trkpt lat="44.47378889887391" lon="11.269420771622443"><ele>94.0</ele><time>2026-04-19T17:01:20Z</time></trkpt><trkpt lat="44.47397315176975" lon="11.269246657631964"><ele>94.0</ele><time>2026-04-19T17:01:21Z</time></trkpt><trkpt lat="44.474158444214574" lon="11.269070782559705"><ele>94.0</ele><time>2026-04-19T17:01:22Z</time></trkpt><trkpt lat="44.47434696231404" lon="11.268893966546335"><ele>95.0</ele><time>2026-04-19T17:01:23Z</time></trkpt><trkpt lat="44.47453594846565" lon="11.268717203570318"><ele>96.0</ele><time>2026-04-19T17:01:24Z</time></trkpt><trkpt lat="44.47472562318148" lon="11.268536182268353"><ele>96.0</ele><time>2026-04-19T17:01:25Z</time></trkpt><trkpt lat="44.474918157234654" lon="11.268353545454291"><ele>96.0</ele><time>2026-04-19T17:01:26Z</time></trkpt><trkpt lat="44.47511097928404" lon="11.268166941734982"><ele>92.5</ele><time>2026-04-19T17:01:27Z</time></trkpt><trkpt lat="44.475306187660415" lon="11.267981197379784"><ele>89.0</ele><time>2026-04-19T17:01:28Z</time></trkpt><trkpt lat="44.47550218564494" lon="11.267794235525875"><ele>89.0</ele><time>2026-04-19T17:01:29Z</time></trkpt><trkpt lat="44.47570019524986" lon="11.267610359275203"><ele>89.0</ele><time>2026-04-19T17:01:30Z</time></trkpt><trkpt lat="44.475892477342896" lon="11.267431131657911"><ele>86.5</ele><time>2026-04-19T17:01:31Z</time></trkpt><trkpt lat="44.476081973264" lon="11.267253611139584"><ele>84.0</ele><time>2026-04-19T17:01:32Z</time></trkpt><trkpt lat="44.47627036107194" lon="11.267077453012483"><ele>84.0</ele><time>2026-04-19T17:01:33Z</time></trkpt><trkpt lat="44.4764578835647" lon="11.266899576039021"><ele>84.0</ele><time>2026-04-19T17:01:34Z</time></trkpt><trkpt lat="44.47664718077475" lon="11.266721063904773"><ele>84.0</ele><time>2026-04-19T17:01:35Z</time></trkpt><trkpt lat="44.47683614916484" lon="11.266542856100019"><ele>84.0</ele><time>2026-04-19T17:01:36Z</time></trkpt><trkpt lat="44.477027295540914" lon="11.266364089993806"><ele>83.0</ele><time>2026-04-19T17:01:37Z</time></trkpt><trkpt lat="44.477218552933586" lon="11.26618359412182"><ele>82.0</ele><time>2026-04-19T17:01:38Z</time></trkpt><trkpt lat="44.47740881446323" lon="11.266002256112907"><ele>82.0</ele><time>2026-04-19T17:01:39Z</time></trkpt><trkpt lat="44.477602263359266" lon="11.265822232840566"><ele>82.0</ele><time>2026-04-19T17:01:40Z</time></trkpt><trkpt lat="44.47779632073305" lon="11.265638025249293"><ele>82.0</ele><time>2026-04-19T17:01:41Z</time></trkpt><trkpt lat="44.47799185414535" lon="11.26545901408925"><ele>82.0</ele><time>2026-04-19T17:01:42Z</time></trkpt><trkpt lat="44.4781857513898" lon="11.265276098800353"><ele>82.0</ele><time>2026-04-19T17:01:43Z</time></trkpt><trkpt lat="44.478379961387475" lon="11.26508815549306"><ele>82.0</ele><time>2026-04-19T17:01:44Z</time></trkpt><trkpt lat="44.47857323154974" lon="11.264896562070259"><ele>82.5</ele><time>2026-04-19T17:01:45Z</time></trkpt><trkpt lat="44.478766587202266" lon="11.26470443390482"><ele>83.0</ele><time>2026-04-19T17:01:46Z</time></trkpt><trkpt lat="44.47896374549826" lon="11.264512042453388"><ele>81.5</ele><time>2026-04-19T17:01:47Z</time></trkpt><trkpt lat="44.4791620967252" lon="11.264317898794605"><ele>80.0</ele><time>2026-04-19T17:01:48Z</time></trkpt><trkpt lat="44.47936260320933" lon="11.264123721364584"><ele>80.0</ele><time>2026-04-19T17:01:49Z</time></trkpt><trkpt lat="44.47956672715115" lon="11.263930735789792"><ele>80.0</ele><time>2026-04-19T17:01:50Z</time></trkpt><trkpt lat="44.47977350022901" lon="11.263737004071547"><ele>80.0</ele><time>2026-04-19T17:01:51Z</time></trkpt><trkpt lat="44.47998250627604" lon="11.26353885934938"><ele>80.0</ele><time>2026-04-19T17:01:52Z</time></trkpt><trkpt lat="44.48019428887646" lon="11.26334182105092"><ele>80.0</ele><time>2026-04-19T17:01:53Z</time></trkpt><trkpt lat="44.48040555632776" lon="11.263143701426714"><ele>80.0</ele><time>2026-04-19T17:01:54Z</time></trkpt><trkpt lat="44.48061759363188" lon="11.262944366661978"><ele>79.5</ele><time>2026-04-19T17:01:55Z</time></trkpt><trkpt lat="44.480829363353955" lon="11.26274214794309"><ele>79.0</ele><time>2026-04-19T17:01:56Z</time></trkpt><trkpt lat="44.48104314434064" lon="11.262542358168558"><ele>79.0</ele><time>2026-04-19T17:01:57Z</time></trkpt><trkpt lat="44.481256011883744" lon="11.262338004382595"><ele>79.0</ele><time>2026-04-19T17:01:58Z</time></trkpt><trkpt lat="44.48147091508202" lon="11.26213512303384"><ele>79.0</ele><time>2026-04-19T17:01:59Z</time></trkpt><trkpt lat="44.48168590901297" lon="11.261932938873596"><ele>79.0</ele><time>2026-04-19T17:02:00Z</time></trkpt><trkpt lat="44.48190265542116" lon="11.261735524237956"><ele>77.0</ele><time>2026-04-19T17:02:01Z</time></trkpt><trkpt lat="44.48211374576392" lon="11.261550643887343"><ele>75.0</ele><time>2026-04-19T17:02:02Z</time></trkpt><trkpt lat="44.48232663162123" lon="11.261367705568777"><ele>75.0</ele><time>2026-04-19T17:02:03Z</time></trkpt><trkpt lat="44.48256041796246" lon="11.261184965341185"><ele>75.0</ele><time>2026-04-19T17:02:04Z</time></trkpt><trkpt lat="44.48277474097722" lon="11.260993340716375"><ele>72.5</ele><time>2026-04-19T17:02:05Z</time></trkpt><trkpt lat="44.48298633941272" lon="11.260796808003127"><ele>70.0</ele><time>2026-04-19T17:02:06Z</time></trkpt><trkpt lat="44.48319082298282" lon="11.260595074281264"><ele>69.5</ele><time>2026-04-19T17:02:07Z</time></trkpt><trkpt lat="44.48339388086697" lon="11.260396062108898"><ele>69.0</ele><time>2026-04-19T17:02:08Z</time></trkpt><trkpt lat="44.483591830183066" lon="11.260195363751707"><ele>68.5</ele><time>2026-04-19T17:02:09Z</time></trkpt><trkpt lat="44.48378476152405" lon="11.259996714506961"><ele>68.0</ele><time>2026-04-19T17:02:10Z</time></trkpt><trkpt lat="44.48397140273033" lon="11.259795366431396"><ele>69.0</ele><time>2026-04-19T17:02:11Z</time></trkpt><trkpt lat="44.4841583874294" lon="11.259592875520118"><ele>70.0</ele><time>2026-04-19T17:02:12Z</time></trkpt><trkpt lat="44.484341387822596" lon="11.2593868233849"><ele>70.0</ele><time>2026-04-19T17:02:13Z</time></trkpt><trkpt lat="44.48452174388918" lon="11.259174699506719"><ele>70.0</ele><time>2026-04-19T17:02:14Z</time></trkpt><trkpt lat="44.48470365307487" lon="11.258963482893632"><ele>67.5</ele><time>2026-04-19T17:02:15Z</time></trkpt><trkpt lat="44.48488326182969" lon="11.258750940411081"><ele>65.0</ele><time>2026-04-19T17:02:16Z</time></trkpt><trkpt lat="44.485064214964304" lon="11.258532860534858"><ele>65.0</ele><time>2026-04-19T17:02:17Z</time></trkpt><trkpt lat="44.48524408176454" lon="11.258311809191998"><ele>65.0</ele><time>2026-04-19T17:02:18Z</time></trkpt><trkpt lat="44.48541994150046" lon="11.258081096609727"><ele>65.0</ele><time>2026-04-19T17:02:19Z</time></trkpt><trkpt lat="44.485594954015625" lon="11.257847182759493"><ele>65.0</ele><time>2026-04-19T17:02:20Z</time></trkpt><trkpt lat="44.48577041793875" lon="11.257609965536322"><ele>65.0</ele><time>2026-04-19T17:02:21Z</time></trkpt><trkpt lat="44.485946692341685" lon="11.25737032198845"><ele>65.0</ele><time>2026-04-19T17:02:22Z</time></trkpt><trkpt lat="44.48612272953845" lon="11.25712753345556"><ele>64.5</ele><time>2026-04-19T17:02:23Z</time></trkpt><trkpt lat="44.48629800782361" lon="11.256879094430074"><ele>64.0</ele><time>2026-04-19T17:02:24Z</time></trkpt><trkpt lat="44.48646897446665" lon="11.256628448865262"><ele>65.0</ele><time>2026-04-19T17:02:25Z</time></trkpt><trkpt lat="44.48663562041256" lon="11.256374050713804"><ele>66.0</ele><time>2026-04-19T17:02:26Z</time></trkpt><trkpt lat="44.486799868713106" lon="11.256118540401229"><ele>66.0</ele><time>2026-04-19T17:02:27Z</time></trkpt><trkpt lat="44.48696251199904" lon="11.255862119407194"><ele>66.0</ele><time>2026-04-19T17:02:28Z</time></trkpt><trkpt lat="44.48711988161869" lon="11.255602588331334"><ele>65.5</ele><time>2026-04-19T17:02:29Z</time></trkpt><trkpt lat="44.487275137782156" lon="11.25534079578743"><ele>65.0</ele><time>2026-04-19T17:02:30Z</time></trkpt><trkpt lat="44.48742528485504" lon="11.255073175404503"><ele>65.0</ele><time>2026-04-19T17:02:31Z</time></trkpt><trkpt lat="44.487574520435686" lon="11.25480351746437"><ele>65.0</ele><time>2026-04-19T17:02:32Z</time></trkpt><trkpt lat="44.48771922838983" lon="11.254533147153438"><ele>65.0</ele><time>2026-04-19T17:02:33Z</time></trkpt><trkpt lat="44.48786208538356" lon="11.2542563279606"><ele>65.0</ele><time>2026-04-19T17:02:34Z</time></trkpt><trkpt lat="44.4880076437137" lon="11.253982439538555"><ele>65.0</ele><time>2026-04-19T17:02:35Z</time></trkpt><trkpt lat="44.48814942440047" lon="11.253708758396868"><ele>65.0</ele><time>2026-04-19T17:02:36Z</time></trkpt><trkpt lat="44.48828849684295" lon="11.25343289191115"><ele>65.0</ele><time>2026-04-19T17:02:37Z</time></trkpt><trkpt lat="44.48842339513658" lon="11.25315562587263"><ele>65.0</ele><time>2026-04-19T17:02:38Z</time></trkpt><trkpt lat="44.48855334131082" lon="11.252875190238452"><ele>65.5</ele><time>2026-04-19T17:02:39Z</time></trkpt><trkpt lat="44.48868139958618" lon="11.252592132757101"><ele>66.0</ele><time>2026-04-19T17:02:40Z</time></trkpt><trkpt lat="44.4888073255681" lon="11.252309025844365"><ele>67.0</ele><time>2026-04-19T17:02:41Z</time></trkpt><trkpt lat="44.488929559845495" lon="11.2520245418781"><ele>68.0</ele><time>2026-04-19T17:02:42Z</time></trkpt><trkpt lat="44.489050446844686" lon="11.251740406121097"><ele>67.5</ele><time>2026-04-19T17:02:43Z</time></trkpt><trkpt lat="44.48916618564327" lon="11.251454061451684"><ele>67.0</ele><time>2026-04-19T17:02:44Z</time></trkpt><trkpt lat="44.48928092429423" lon="11.25116673543593"><ele>67.0</ele><time>2026-04-19T17:02:45Z</time></trkpt><trkpt lat="44.48939260581132" lon="11.250880137380445"><ele>67.0</ele><time>2026-04-19T17:02:46Z</time></trkpt><trkpt lat="44.489501722663576" lon="11.250591160750753"><ele>66.5</ele><time>2026-04-19T17:02:47Z</time></trkpt><trkpt lat="44.48960663220655" lon="11.250302718822596"><ele>66.0</ele><time>2026-04-19T17:02:48Z</time></trkpt><trkpt lat="44.48970897800301" lon="11.250013535314075"><ele>66.0</ele><time>2026-04-19T17:02:49Z</time></trkpt><trkpt lat="44.48981170118611" lon="11.249724976689478"><ele>66.0</ele><time>2026-04-19T17:02:50Z</time></trkpt><trkpt lat="44.48991486508461" lon="11.24943573093584"><ele>66.0</ele><time>2026-04-19T17:02:51Z</time></trkpt><trkpt lat="44.49001775237317" lon="11.249144008143025"><ele>66.0</ele><time>2026-04-19T17:02:52Z</time></trkpt><trkpt lat="44.49012286096713" lon="11.248855951393756"><ele>66.5</ele><time>2026-04-19T17:02:53Z</time></trkpt><trkpt lat="44.49022805780092" lon="11.248566929848955"><ele>67.0</ele><time>2026-04-19T17:02:54Z</time></trkpt><trkpt lat="44.49033178124458" lon="11.24827503480399"><ele>65.5</ele><time>2026-04-19T17:02:55Z</time></trkpt><trkpt lat="44.490436664259065" lon="11.247983890839473"><ele>64.0</ele><time>2026-04-19T17:02:56Z</time></trkpt><trkpt lat="44.49054139259689" lon="11.247691433559293"><ele>64.0</ele><time>2026-04-19T17:02:57Z</time></trkpt><trkpt lat="44.490647816372736" lon="11.247399583899156"><ele>64.0</ele><time>2026-04-19T17:02:58Z</time></trkpt><trkpt lat="44.49075446620403" lon="11.247108805216355"><ele>64.5</ele><time>2026-04-19T17:02:59Z</time></trkpt><trkpt lat="44.49086129750484" lon="11.24681800214527"><ele>65.0</ele><time>2026-04-19T17:03:00Z</time></trkpt><trkpt lat="44.490967592215625" lon="11.246525890464998"><ele>66.0</ele><time>2026-04-19T17:03:01Z</time></trkpt><trkpt lat="44.49107236826429" lon="11.246233053809014"><ele>67.0</ele><time>2026-04-19T17:03:02Z</time></trkpt><trkpt lat="44.491175169617236" lon="11.245944389780899"><ele>66.0</ele><time>2026-04-19T17:03:03Z</time></trkpt><trkpt lat="44.491277813976616" lon="11.245653964227952"><ele>65.0</ele><time>2026-04-19T17:03:04Z</time></trkpt><trkpt lat="44.4913869698628" lon="11.245360368452529"><ele>65.0</ele><time>2026-04-19T17:03:05Z</time></trkpt><trkpt lat="44.491494335235245" lon="11.24506682892813"><ele>65.0</ele><time>2026-04-19T17:03:06Z</time></trkpt><trkpt lat="44.491597678156204" lon="11.244772160307747"><ele>64.0</ele><time>2026-04-19T17:03:07Z</time></trkpt><trkpt lat="44.49170314374652" lon="11.24448010528105"><ele>63.0</ele><time>2026-04-19T17:03:08Z</time></trkpt><trkpt lat="44.49180928884251" lon="11.244187015949375"><ele>64.0</ele><time>2026-04-19T17:03:09Z</time></trkpt><trkpt lat="44.491915644666065" lon="11.24389163795949"><ele>65.0</ele><time>2026-04-19T17:03:10Z</time></trkpt><trkpt lat="44.49202322277625" lon="11.243597847805237"><ele>66.0</ele><time>2026-04-19T17:03:11Z</time></trkpt><trkpt lat="44.492130376001526" lon="11.243299660071491"><ele>67.0</ele><time>2026-04-19T17:03:12Z</time></trkpt><trkpt lat="44.492238425463334" lon="11.243003563129522"><ele>67.0</ele><time>2026-04-19T17:03:13Z</time></trkpt><trkpt lat="44.49234616618818" lon="11.242705252623814"><ele>67.0</ele><time>2026-04-19T17:03:14Z</time></trkpt><trkpt lat="44.49245358249694" lon="11.242405882815698"><ele>67.0</ele><time>2026-04-19T17:03:15Z</time></trkpt><trkpt lat="44.49256120150056" lon="11.242104824448953"><ele>67.0</ele><time>2026-04-19T17:03:16Z</time></trkpt><trkpt lat="44.492668952600795" lon="11.241803204778373"><ele>67.0</ele><time>2026-04-19T17:03:17Z</time></trkpt><trkpt lat="44.49277906875671" lon="11.241500766000968"><ele>67.0</ele><time>2026-04-19T17:03:18Z</time></trkpt><trkpt lat="44.49288707716524" lon="11.241197161272405"><ele>67.0</ele><time>2026-04-19T17:03:19Z</time></trkpt><trkpt lat="44.49299494445986" lon="11.240892367949266"><ele>67.0</ele><time>2026-04-19T17:03:20Z</time></trkpt><trkpt lat="44.49310495617019" lon="11.240589764232402"><ele>67.5</ele><time>2026-04-19T17:03:21Z</time></trkpt><trkpt lat="44.49321628374964" lon="11.240286502841727"><ele>68.0</ele><time>2026-04-19T17:03:22Z</time></trkpt><trkpt lat="44.493327701113074" lon="11.239981701228173"><ele>68.5</ele><time>2026-04-19T17:03:23Z</time></trkpt><trkpt lat="44.49344036610615" lon="11.239677549447713"><ele>69.0</ele><time>2026-04-19T17:03:24Z</time></trkpt><trkpt lat="44.49354945172908" lon="11.23936970753571"><ele>69.0</ele><time>2026-04-19T17:03:25Z</time></trkpt><trkpt lat="44.49366317967239" lon="11.239062989436023"><ele>69.0</ele><time>2026-04-19T17:03:26Z</time></trkpt><trkpt lat="44.4937755019445" lon="11.238753496130387"><ele>69.5</ele><time>2026-04-19T17:03:27Z</time></trkpt><trkpt lat="44.49388659767054" lon="11.238442975793712"><ele>70.0</ele><time>2026-04-19T17:03:28Z</time></trkpt><trkpt lat="44.493999974889874" lon="11.238133528249906"><ele>70.0</ele><time>2026-04-19T17:03:29Z</time></trkpt><trkpt lat="44.4941136634547" lon="11.237820513991732"><ele>70.0</ele><time>2026-04-19T17:03:30Z</time></trkpt><trkpt lat="44.49422542329921" lon="11.237506138486225"><ele>68.5</ele><time>2026-04-19T17:03:31Z</time></trkpt><trkpt lat="44.49433950704554" lon="11.237192260033341"><ele>67.0</ele><time>2026-04-19T17:03:32Z</time></trkpt><trkpt lat="44.49445397371721" lon="11.236874202298399"><ele>67.0</ele><time>2026-04-19T17:03:33Z</time></trkpt><trkpt lat="44.49456652756101" lon="11.236556082347178"><ele>67.0</ele><time>2026-04-19T17:03:34Z</time></trkpt><trkpt lat="44.494684392850395" lon="11.23623644876227"><ele>67.5</ele><time>2026-04-19T17:03:35Z</time></trkpt><trkpt lat="44.494801690485914" lon="11.235918276975626"><ele>68.0</ele><time>2026-04-19T17:03:36Z</time></trkpt><trkpt lat="44.4949184250425" lon="11.235596073515694"><ele>68.5</ele><time>2026-04-19T17:03:37Z</time></trkpt><trkpt lat="44.495035685883984" lon="11.235273985944186"><ele>69.0</ele><time>2026-04-19T17:03:38Z</time></trkpt><trkpt lat="44.495153464805924" lon="11.234954395684273"><ele>69.0</ele><time>2026-04-19T17:03:39Z</time></trkpt><trkpt lat="44.49526692455152" lon="11.234633263800362"><ele>69.0</ele><time>2026-04-19T17:03:40Z</time></trkpt><trkpt lat="44.49538330125288" lon="11.234314404119262"><ele>67.0</ele><time>2026-04-19T17:03:41Z</time></trkpt><trkpt lat="44.495499002581255" lon="11.23399523207713"><ele>65.0</ele><time>2026-04-19T17:03:42Z</time></trkpt><trkpt lat="44.49561545388408" lon="11.233673275345126"><ele>65.0</ele><time>2026-04-19T17:03:43Z</time></trkpt><trkpt lat="44.49573132345155" lon="11.23335107629175"><ele>65.0</ele><time>2026-04-19T17:03:44Z</time></trkpt><trkpt lat="44.495848070174105" lon="11.233029478000319"><ele>66.0</ele><time>2026-04-19T17:03:45Z</time></trkpt><trkpt lat="44.49596358152368" lon="11.23270593044743"><ele>67.0</ele><time>2026-04-19T17:03:46Z</time></trkpt><trkpt lat="44.49607940236098" lon="11.23238229571709"><ele>67.0</ele><time>2026-04-19T17:03:47Z</time></trkpt><trkpt lat="44.496196261121916" lon="11.232060163666938"><ele>67.0</ele><time>2026-04-19T17:03:48Z</time></trkpt><trkpt lat="44.49631303457849" lon="11.231737285078315"><ele>68.5</ele><time>2026-04-19T17:03:49Z</time></trkpt><trkpt lat="44.49642893981716" lon="11.23141452109465"><ele>70.0</ele><time>2026-04-19T17:03:50Z</time></trkpt><trkpt lat="44.49654625496872" lon="11.231092728603773"><ele>70.0</ele><time>2026-04-19T17:03:51Z</time></trkpt><trkpt lat="44.49666210608653" lon="11.230770904241677"><ele>70.0</ele><time>2026-04-19T17:03:52Z</time></trkpt><trkpt lat="44.49677739328603" lon="11.230447392047898"><ele>69.5</ele><time>2026-04-19T17:03:53Z</time></trkpt><trkpt lat="44.49689344617856" lon="11.230123906373588"><ele>69.0</ele><time>2026-04-19T17:03:54Z</time></trkpt><trkpt lat="44.497008546618325" lon="11.229801672016155"><ele>67.0</ele><time>2026-04-19T17:03:55Z</time></trkpt><trkpt lat="44.4971219215105" lon="11.229478399808052"><ele>65.0</ele><time>2026-04-19T17:03:56Z</time></trkpt><trkpt lat="44.49723737652049" lon="11.229157371586979"><ele>64.5</ele><time>2026-04-19T17:03:57Z</time></trkpt><trkpt lat="44.497353678241325" lon="11.228833621719492"><ele>64.0</ele><time>2026-04-19T17:03:58Z</time></trkpt><trkpt lat="44.49747130087056" lon="11.228512396935068"><ele>64.0</ele><time>2026-04-19T17:03:59Z</time></trkpt><trkpt lat="44.49758936386984" lon="11.228192151771609"><ele>64.0</ele><time>2026-04-19T17:04:00Z</time></trkpt><trkpt lat="44.4977063819803" lon="11.227870702907815"><ele>64.5</ele><time>2026-04-19T17:04:01Z</time></trkpt><trkpt lat="44.497822060059065" lon="11.227549925821615"><ele>65.0</ele><time>2026-04-19T17:04:02Z</time></trkpt><trkpt lat="44.49793817518348" lon="11.227228372684058"><ele>65.0</ele><time>2026-04-19T17:04:03Z</time></trkpt><trkpt lat="44.49805332918173" lon="11.226905871725837"><ele>65.0</ele><time>2026-04-19T17:04:04Z</time></trkpt><trkpt lat="44.49816874662707" lon="11.226583288967847"><ele>64.5</ele><time>2026-04-19T17:04:05Z</time></trkpt><trkpt lat="44.498286030736594" lon="11.226260360110025"><ele>64.0</ele><time>2026-04-19T17:04:06Z</time></trkpt><trkpt lat="44.49840252382114" lon="11.22593736580062"><ele>64.0</ele><time>2026-04-19T17:04:07Z</time></trkpt><trkpt lat="44.49851919609368" lon="11.22561276896602"><ele>64.0</ele><time>2026-04-19T17:04:08Z</time></trkpt><trkpt lat="44.498630937710004" lon="11.225288368275292"><ele>64.0</ele><time>2026-04-19T17:04:09Z</time></trkpt><trkpt lat="44.49874378934388" lon="11.22496431326109"><ele>64.0</ele><time>2026-04-19T17:04:10Z</time></trkpt><trkpt lat="44.4988603631217" lon="11.224640778054422"><ele>64.5</ele><time>2026-04-19T17:04:11Z</time></trkpt><trkpt lat="44.498976807930354" lon="11.224316048886452"><ele>65.0</ele><time>2026-04-19T17:04:12Z</time></trkpt><trkpt lat="44.499096924174054" lon="11.223994180311605"><ele>65.5</ele><time>2026-04-19T17:04:13Z</time></trkpt><trkpt lat="44.49921596271695" lon="11.223671081824785"><ele>66.0</ele><time>2026-04-19T17:04:14Z</time></trkpt><trkpt lat="44.499332175764664" lon="11.223347355149672"><ele>65.5</ele><time>2026-04-19T17:04:15Z</time></trkpt><trkpt lat="44.49944805994619" lon="11.223022983814156"><ele>65.0</ele><time>2026-04-19T17:04:16Z</time></trkpt><trkpt lat="44.49956197617919" lon="11.222698948874932"><ele>63.5</ele><time>2026-04-19T17:04:17Z</time></trkpt><trkpt lat="44.499677248873645" lon="11.222376306966646"><ele>62.0</ele><time>2026-04-19T17:04:18Z</time></trkpt><trkpt lat="44.4997930358199" lon="11.222054081791313"><ele>61.5</ele><time>2026-04-19T17:04:19Z</time></trkpt><trkpt lat="44.49990889595377" lon="11.221732969256058"><ele>61.0</ele><time>2026-04-19T17:04:20Z</time></trkpt><trkpt lat="44.50002541470448" lon="11.221411568390844"><ele>62.0</ele><time>2026-04-19T17:04:21Z</time></trkpt><trkpt lat="44.500141544896344" lon="11.221089560635821"><ele>63.0</ele><time>2026-04-19T17:04:22Z</time></trkpt><trkpt lat="44.500260128481024" lon="11.220768775078424"><ele>63.0</ele><time>2026-04-19T17:04:23Z</time></trkpt><trkpt lat="44.5003774988314" lon="11.220446947409625"><ele>63.0</ele><time>2026-04-19T17:04:24Z</time></trkpt><trkpt lat="44.50049487459326" lon="11.220125772975672"><ele>63.5</ele><time>2026-04-19T17:04:25Z</time></trkpt><trkpt lat="44.500611592901606" lon="11.219804020402874"><ele>64.0</ele><time>2026-04-19T17:04:26Z</time></trkpt><trkpt lat="44.50072943762066" lon="11.219483334934656"><ele>64.0</ele><time>2026-04-19T17:04:27Z</time></trkpt><trkpt lat="44.50084568206684" lon="11.219162221608938"><ele>64.0</ele><time>2026-04-19T17:04:28Z</time></trkpt><trkpt lat="44.500963155219786" lon="11.218840694864513"><ele>63.5</ele><time>2026-04-19T17:04:29Z</time></trkpt><trkpt lat="44.50107967510894" lon="11.218517166798334"><ele>63.0</ele><time>2026-04-19T17:04:30Z</time></trkpt><trkpt lat="44.501196737272465" lon="11.218195299540858"><ele>62.5</ele><time>2026-04-19T17:04:31Z</time></trkpt><trkpt lat="44.50131291662357" lon="11.217872441564303"><ele>62.0</ele><time>2026-04-19T17:04:32Z</time></trkpt><trkpt lat="44.50142860728484" lon="11.217548874128429"><ele>61.5</ele><time>2026-04-19T17:04:33Z</time></trkpt><trkpt lat="44.501546353261666" lon="11.217225936190845"><ele>61.0</ele><time>2026-04-19T17:04:34Z</time></trkpt><trkpt lat="44.50166229954577" lon="11.216903280250023"><ele>61.0</ele><time>2026-04-19T17:04:35Z</time></trkpt><trkpt lat="44.50177761358522" lon="11.216580427101173"><ele>61.0</ele><time>2026-04-19T17:04:36Z</time></trkpt><trkpt lat="44.5018930457172" lon="11.216258349698741"><ele>61.5</ele><time>2026-04-19T17:04:37Z</time></trkpt><trkpt lat="44.502008553856065" lon="11.215935524510922"><ele>62.0</ele><time>2026-04-19T17:04:38Z</time></trkpt><trkpt lat="44.50212561777071" lon="11.215613751671476"><ele>60.5</ele><time>2026-04-19T17:04:39Z</time></trkpt><trkpt lat="44.50224280758488" lon="11.215291403259693"><ele>59.0</ele><time>2026-04-19T17:04:40Z</time></trkpt><trkpt lat="44.502359567083325" lon="11.214969980319959"><ele>59.5</ele><time>2026-04-19T17:04:41Z</time></trkpt><trkpt lat="44.5024768423882" lon="11.21464655764332"><ele>60.0</ele><time>2026-04-19T17:04:42Z</time></trkpt><trkpt lat="44.502593605341254" lon="11.214325144642048"><ele>60.0</ele><time>2026-04-19T17:04:43Z</time></trkpt><trkpt lat="44.50270954053265" lon="11.21400232135579"><ele>60.0</ele><time>2026-04-19T17:04:44Z</time></trkpt><trkpt lat="44.50282604944406" lon="11.213679008510468"><ele>60.0</ele><time>2026-04-19T17:04:45Z</time></trkpt><trkpt lat="44.50294043293854" lon="11.213355116442818"><ele>60.0</ele><time>2026-04-19T17:04:46Z</time></trkpt><trkpt lat="44.50305626301456" lon="11.213032475543582"><ele>60.0</ele><time>2026-04-19T17:04:47Z</time></trkpt><trkpt lat="44.503171560089655" lon="11.212710177777858"><ele>60.0</ele><time>2026-04-19T17:04:48Z</time></trkpt><trkpt lat="44.503286654538115" lon="11.212386932705247"><ele>59.5</ele><time>2026-04-19T17:04:49Z</time></trkpt><trkpt lat="44.503401790242485" lon="11.2120649919833"><ele>59.0</ele><time>2026-04-19T17:04:50Z</time></trkpt><trkpt lat="44.50351789486965" lon="11.211742351068667"><ele>59.0</ele><time>2026-04-19T17:04:51Z</time></trkpt><trkpt lat="44.50363436307301" lon="11.211419918427206"><ele>59.0</ele><time>2026-04-19T17:04:52Z</time></trkpt><trkpt lat="44.50375244592733" lon="11.211098392494911"><ele>59.0</ele><time>2026-04-19T17:04:53Z</time></trkpt><trkpt lat="44.50386899953359" lon="11.210776356672683"><ele>59.0</ele><time>2026-04-19T17:04:54Z</time></trkpt><trkpt lat="44.503985091136855" lon="11.210453582339317"><ele>58.5</ele><time>2026-04-19T17:04:55Z</time></trkpt><trkpt lat="44.504101110462734" lon="11.21013093748388"><ele>58.0</ele><time>2026-04-19T17:04:56Z</time></trkpt><trkpt lat="44.50421680703859" lon="11.209808457356019"><ele>58.0</ele><time>2026-04-19T17:04:57Z</time></trkpt><trkpt lat="44.50433199076867" lon="11.209485899607062"><ele>58.0</ele><time>2026-04-19T17:04:58Z</time></trkpt><trkpt lat="44.50444875931508" lon="11.209162765518075"><ele>58.0</ele><time>2026-04-19T17:04:59Z</time></trkpt><trkpt lat="44.504565943478354" lon="11.208842367617448"><ele>58.0</ele><time>2026-04-19T17:05:00Z</time></trkpt><trkpt lat="44.504681316136576" lon="11.20851957459889"><ele>58.0</ele><time>2026-04-19T17:05:01Z</time></trkpt><trkpt lat="44.50479742720271" lon="11.208196849855902"><ele>58.0</ele><time>2026-04-19T17:05:02Z</time></trkpt><trkpt lat="44.50491314485987" lon="11.207873465892403"><ele>58.0</ele><time>2026-04-19T17:05:03Z</time></trkpt><trkpt lat="44.505029461897315" lon="11.207551245557717"><ele>58.0</ele><time>2026-04-19T17:05:04Z</time></trkpt><trkpt lat="44.505146610576894" lon="11.207228394459477"><ele>57.0</ele><time>2026-04-19T17:05:05Z</time></trkpt><trkpt lat="44.50526246441738" lon="11.206907297564976"><ele>56.0</ele><time>2026-04-19T17:05:06Z</time></trkpt><trkpt lat="44.505376039139236" lon="11.206593928541295"><ele>55.5</ele><time>2026-04-19T17:05:07Z</time></trkpt><trkpt lat="44.50548758441981" lon="11.206287028520313"><ele>55.0</ele><time>2026-04-19T17:05:08Z</time></trkpt><trkpt lat="44.505599437940944" lon="11.205988944930604"><ele>55.0</ele><time>2026-04-19T17:05:09Z</time></trkpt><trkpt lat="44.505705113451356" lon="11.205696750358557"><ele>55.0</ele><time>2026-04-19T17:05:10Z</time></trkpt><trkpt lat="44.50580688602875" lon="11.205409073760004"><ele>55.0</ele><time>2026-04-19T17:05:11Z</time></trkpt><trkpt lat="44.5059056580079" lon="11.205132263375864"><ele>55.0</ele><time>2026-04-19T17:05:12Z</time></trkpt><trkpt lat="44.506008574157114" lon="11.204857229466926"><ele>55.0</ele><time>2026-04-19T17:05:13Z</time></trkpt><trkpt lat="44.50610477701463" lon="11.204588709659799"><ele>55.0</ele><time>2026-04-19T17:05:14Z</time></trkpt><trkpt lat="44.50620410954518" lon="11.204317058336885"><ele>55.0</ele><time>2026-04-19T17:05:15Z</time></trkpt><trkpt lat="44.50630572380837" lon="11.204042058172604"><ele>55.0</ele><time>2026-04-19T17:05:16Z</time></trkpt><trkpt lat="44.50640236513324" lon="11.203751884797994"><ele>55.0</ele><time>2026-04-19T17:05:17Z</time></trkpt><trkpt lat="44.5065102839619" lon="11.203454321125404"><ele>55.0</ele><time>2026-04-19T17:05:18Z</time></trkpt><trkpt lat="44.50662150678062" lon="11.203152642028687"><ele>56.0</ele><time>2026-04-19T17:05:19Z</time></trkpt><trkpt lat="44.50672714566555" lon="11.202856917203382"><ele>57.0</ele><time>2026-04-19T17:05:20Z</time></trkpt><trkpt lat="44.50683684927832" lon="11.20254837551089"><ele>57.5</ele><time>2026-04-19T17:05:21Z</time></trkpt><trkpt lat="44.506951793004816" lon="11.202230113499837"><ele>58.0</ele><time>2026-04-19T17:05:22Z</time></trkpt><trkpt lat="44.50706886681614" lon="11.201907131034371"><ele>58.5</ele><time>2026-04-19T17:05:23Z</time></trkpt><trkpt lat="44.50718444360073" lon="11.20159038414858"><ele>59.0</ele><time>2026-04-19T17:05:24Z</time></trkpt><trkpt lat="44.50729443976184" lon="11.201283118129071"><ele>58.0</ele><time>2026-04-19T17:05:25Z</time></trkpt><trkpt lat="44.50740417006645" lon="11.200985600234972"><ele>57.0</ele><time>2026-04-19T17:05:26Z</time></trkpt><trkpt lat="44.507510358801376" lon="11.200681648975674"><ele>56.5</ele><time>2026-04-19T17:05:27Z</time></trkpt><trkpt lat="44.50761910806141" lon="11.200381929723429"><ele>56.0</ele><time>2026-04-19T17:05:28Z</time></trkpt><trkpt lat="44.50772674387397" lon="11.200080959724831"><ele>56.0</ele><time>2026-04-19T17:05:29Z</time></trkpt><trkpt lat="44.50783575326353" lon="11.199781114813637"><ele>56.0</ele><time>2026-04-19T17:05:30Z</time></trkpt><trkpt lat="44.507946019726006" lon="11.199480643264192"><ele>56.0</ele><time>2026-04-19T17:05:31Z</time></trkpt><trkpt lat="44.50805630070313" lon="11.199177846411969"><ele>56.0</ele><time>2026-04-19T17:05:32Z</time></trkpt><trkpt lat="44.50816606741767" lon="11.198875365963417"><ele>56.5</ele><time>2026-04-19T17:05:33Z</time></trkpt><trkpt lat="44.50827634202136" lon="11.198570671792318"><ele>57.0</ele><time>2026-04-19T17:05:34Z</time></trkpt><trkpt lat="44.50838516408067" lon="11.198263506919163"><ele>57.0</ele><time>2026-04-19T17:05:35Z</time></trkpt><trkpt lat="44.50849324323781" lon="11.19795730780998"><ele>57.0</ele><time>2026-04-19T17:05:36Z</time></trkpt><trkpt lat="44.508602540746104" lon="11.197653283595104"><ele>57.0</ele><time>2026-04-19T17:05:37Z</time></trkpt><trkpt lat="44.50871046333501" lon="11.197348089844446"><ele>57.0</ele><time>2026-04-19T17:05:38Z</time></trkpt><trkpt lat="44.50881860701056" lon="11.197046047807984"><ele>56.5</ele><time>2026-04-19T17:05:39Z</time></trkpt><trkpt lat="44.50893024307045" lon="11.196745963118417"><ele>56.0</ele><time>2026-04-19T17:05:40Z</time></trkpt><trkpt lat="44.50903787618531" lon="11.196452844337571"><ele>54.5</ele><time>2026-04-19T17:05:41Z</time></trkpt><trkpt lat="44.50914293587569" lon="11.19616561742916"><ele>53.0</ele><time>2026-04-19T17:05:42Z</time></trkpt><trkpt lat="44.50924762420111" lon="11.195874936390684"><ele>53.5</ele><time>2026-04-19T17:05:43Z</time></trkpt><trkpt lat="44.509352632509426" lon="11.19558474653239"><ele>54.0</ele><time>2026-04-19T17:05:44Z</time></trkpt><trkpt lat="44.50945489102416" lon="11.195294112711094"><ele>54.0</ele><time>2026-04-19T17:05:45Z</time></trkpt><trkpt lat="44.509558636672786" lon="11.195004164815828"><ele>54.0</ele><time>2026-04-19T17:05:46Z</time></trkpt><trkpt lat="44.50966386061556" lon="11.194716264230122"><ele>54.5</ele><time>2026-04-19T17:05:47Z</time></trkpt><trkpt lat="44.509769479667945" lon="11.19442555001824"><ele>55.0</ele><time>2026-04-19T17:05:48Z</time></trkpt><trkpt lat="44.50987644491813" lon="11.194133987490064"><ele>56.0</ele><time>2026-04-19T17:05:49Z</time></trkpt><trkpt lat="44.509983908643996" lon="11.19384338389388"><ele>57.0</ele><time>2026-04-19T17:05:50Z</time></trkpt><trkpt lat="44.510087052720806" lon="11.193550906684168"><ele>57.0</ele><time>2026-04-19T17:05:51Z</time></trkpt><trkpt lat="44.51018896763409" lon="11.193259766114315"><ele>57.0</ele><time>2026-04-19T17:05:52Z</time></trkpt><trkpt lat="44.5102896216554" lon="11.192966529817665"><ele>57.0</ele><time>2026-04-19T17:05:53Z</time></trkpt><trkpt lat="44.51039282527953" lon="11.192674206252516"><ele>57.0</ele><time>2026-04-19T17:05:54Z</time></trkpt><trkpt lat="44.51049959406577" lon="11.192385599156994"><ele>54.5</ele><time>2026-04-19T17:05:55Z</time></trkpt><trkpt lat="44.51060722944954" lon="11.192096785492083"><ele>52.0</ele><time>2026-04-19T17:05:56Z</time></trkpt><trkpt lat="44.510714907221015" lon="11.191802399845834"><ele>52.0</ele><time>2026-04-19T17:05:57Z</time></trkpt><trkpt lat="44.510820542029805" lon="11.19150752998075"><ele>52.0</ele><time>2026-04-19T17:05:58Z</time></trkpt><trkpt lat="44.51092612921509" lon="11.19121256722786"><ele>52.5</ele><time>2026-04-19T17:05:59Z</time></trkpt><trkpt lat="44.5110322528837" lon="11.190916412216211"><ele>53.0</ele><time>2026-04-19T17:06:00Z</time></trkpt><trkpt lat="44.51113960976916" lon="11.190619464216173"><ele>53.0</ele><time>2026-04-19T17:06:01Z</time></trkpt><trkpt lat="44.511247714017735" lon="11.190322871071475"><ele>53.0</ele><time>2026-04-19T17:06:02Z</time></trkpt><trkpt lat="44.51135468393748" lon="11.190021475120759"><ele>53.0</ele><time>2026-04-19T17:06:03Z</time></trkpt><trkpt lat="44.5114607247413" lon="11.189719576234767"><ele>53.0</ele><time>2026-04-19T17:06:04Z</time></trkpt><trkpt lat="44.511568340255714" lon="11.189419628431109"><ele>53.0</ele><time>2026-04-19T17:06:05Z</time></trkpt><trkpt lat="44.51167486200004" lon="11.189120839572887"><ele>53.0</ele><time>2026-04-19T17:06:06Z</time></trkpt><trkpt lat="44.51178555875655" lon="11.18881326864734"><ele>53.0</ele><time>2026-04-19T17:06:07Z</time></trkpt><trkpt lat="44.51189142187208" lon="11.188519963982358"><ele>53.0</ele><time>2026-04-19T17:06:08Z</time></trkpt><trkpt lat="44.51200345875519" lon="11.188220054521533"><ele>53.0</ele><time>2026-04-19T17:06:09Z</time></trkpt><trkpt lat="44.512112866219915" lon="11.187919198973379"><ele>53.0</ele><time>2026-04-19T17:06:10Z</time></trkpt><trkpt lat="44.51222247589524" lon="11.1876148103961"><ele>52.5</ele><time>2026-04-19T17:06:11Z</time></trkpt><trkpt lat="44.512322894886026" lon="11.187312705937684"><ele>52.0</ele><time>2026-04-19T17:06:12Z</time></trkpt><trkpt lat="44.51243271009591" lon="11.187007707173773"><ele>52.0</ele><time>2026-04-19T17:06:13Z</time></trkpt><trkpt lat="44.51253890174589" lon="11.186707125579975"><ele>52.0</ele><time>2026-04-19T17:06:14Z</time></trkpt><trkpt lat="44.51264544202688" lon="11.186403607398564"><ele>50.5</ele><time>2026-04-19T17:06:15Z</time></trkpt><trkpt lat="44.51275140372166" lon="11.186102407350244"><ele>49.0</ele><time>2026-04-19T17:06:16Z</time></trkpt><trkpt lat="44.51285856327979" lon="11.185801076380857"><ele>49.5</ele><time>2026-04-19T17:06:17Z</time></trkpt><trkpt lat="44.51296389907438" lon="11.185504454679759"><ele>50.0</ele><time>2026-04-19T17:06:18Z</time></trkpt><trkpt lat="44.51307765754654" lon="11.185207656934379"><ele>50.0</ele><time>2026-04-19T17:06:19Z</time></trkpt><trkpt lat="44.51318837975192" lon="11.184912561998376"><ele>50.0</ele><time>2026-04-19T17:06:20Z</time></trkpt><trkpt lat="44.51329433665397" lon="11.184614736306079"><ele>49.0</ele><time>2026-04-19T17:06:21Z</time></trkpt><trkpt lat="44.513396098909574" lon="11.184305712694675"><ele>48.0</ele><time>2026-04-19T17:06:22Z</time></trkpt><trkpt lat="44.51350019633807" lon="11.184014224877517"><ele>49.5</ele><time>2026-04-19T17:06:23Z</time></trkpt><trkpt lat="44.51360306456494" lon="11.183721309528078"><ele>51.0</ele><time>2026-04-19T17:06:24Z</time></trkpt><trkpt lat="44.513712989280485" lon="11.18342751187799"><ele>50.0</ele><time>2026-04-19T17:06:25Z</time></trkpt><trkpt lat="44.513821262753716" lon="11.183134106289002"><ele>49.0</ele><time>2026-04-19T17:06:26Z</time></trkpt><trkpt lat="44.513925132065125" lon="11.182840773498048"><ele>49.0</ele><time>2026-04-19T17:06:27Z</time></trkpt><trkpt lat="44.514029421130935" lon="11.18255013537467"><ele>49.0</ele><time>2026-04-19T17:06:28Z</time></trkpt><trkpt lat="44.51413757236416" lon="11.182264704763178"><ele>49.5</ele><time>2026-04-19T17:06:29Z</time></trkpt><trkpt lat="44.51424410624553" lon="11.18196638563122"><ele>50.0</ele><time>2026-04-19T17:06:30Z</time></trkpt><trkpt lat="44.514351676196306" lon="11.18167140340611"><ele>50.0</ele><time>2026-04-19T17:06:31Z</time></trkpt><trkpt lat="44.514457739704" lon="11.181372305109727"><ele>50.0</ele><time>2026-04-19T17:06:32Z</time></trkpt><trkpt lat="44.51456761942605" lon="11.181072799102997"><ele>48.5</ele><time>2026-04-19T17:06:33Z</time></trkpt><trkpt lat="44.51467840951688" lon="11.180769581327423"><ele>47.0</ele><time>2026-04-19T17:06:34Z</time></trkpt><trkpt lat="44.514789413781195" lon="11.180464365150694"><ele>47.0</ele><time>2026-04-19T17:06:35Z</time></trkpt><trkpt lat="44.51490107962042" lon="11.180155877259114"><ele>47.0</ele><time>2026-04-19T17:06:36Z</time></trkpt><trkpt lat="44.515011474450624" lon="11.179843346103098"><ele>48.0</ele><time>2026-04-19T17:06:37Z</time></trkpt><trkpt lat="44.51512202598208" lon="11.17953051497791"><ele>49.0</ele><time>2026-04-19T17:06:38Z</time></trkpt><trkpt lat="44.51523268675085" lon="11.17921470419431"><ele>47.5</ele><time>2026-04-19T17:06:39Z</time></trkpt><trkpt lat="44.51534705161185" lon="11.178900960244398"><ele>46.0</ele><time>2026-04-19T17:06:40Z</time></trkpt><trkpt lat="44.51546257298038" lon="11.178583724334098"><ele>46.0</ele><time>2026-04-19T17:06:41Z</time></trkpt><trkpt lat="44.51557851610821" lon="11.178265734009125"><ele>46.0</ele><time>2026-04-19T17:06:42Z</time></trkpt><trkpt lat="44.51569513407775" lon="11.177945156026329"><ele>47.0</ele><time>2026-04-19T17:06:43Z</time></trkpt><trkpt lat="44.51581244417109" lon="11.177624734984324"><ele>48.0</ele><time>2026-04-19T17:06:44Z</time></trkpt><trkpt lat="44.51593049933763" lon="11.177303203102849"><ele>48.5</ele><time>2026-04-19T17:06:45Z</time></trkpt><trkpt lat="44.51604762975245" lon="11.176978092971378"><ele>49.0</ele><time>2026-04-19T17:06:46Z</time></trkpt><trkpt lat="44.516165125760324" lon="11.176652343677471"><ele>49.5</ele><time>2026-04-19T17:06:47Z</time></trkpt><trkpt lat="44.51628228500559" lon="11.17632618561106"><ele>50.0</ele><time>2026-04-19T17:06:48Z</time></trkpt><trkpt lat="44.51639969872292" lon="11.175998257829592"><ele>52.0</ele><time>2026-04-19T17:06:49Z</time></trkpt><trkpt lat="44.51651908255371" lon="11.17567169909218"><ele>54.0</ele><time>2026-04-19T17:06:50Z</time></trkpt><trkpt lat="44.516636379198694" lon="11.175342213059858"><ele>54.0</ele><time>2026-04-19T17:06:51Z</time></trkpt><trkpt lat="44.516754627086" lon="11.175011409744108"><ele>54.0</ele><time>2026-04-19T17:06:52Z</time></trkpt><trkpt lat="44.51687317782985" lon="11.17467960570014"><ele>53.0</ele><time>2026-04-19T17:06:53Z</time></trkpt><trkpt lat="44.51699172703204" lon="11.174345774208843"><ele>52.0</ele><time>2026-04-19T17:06:54Z</time></trkpt><trkpt lat="44.51711086775974" lon="11.17401211370061"><ele>52.0</ele><time>2026-04-19T17:06:55Z</time></trkpt><trkpt lat="44.51723087334748" lon="11.173678802540534"><ele>52.0</ele><time>2026-04-19T17:06:56Z</time></trkpt><trkpt lat="44.51735149510926" lon="11.17334505340477"><ele>51.0</ele><time>2026-04-19T17:06:57Z</time></trkpt><trkpt lat="44.51747265712698" lon="11.173010880815443"><ele>50.0</ele><time>2026-04-19T17:06:58Z</time></trkpt><trkpt lat="44.51759407854921" lon="11.172677619030717"><ele>51.0</ele><time>2026-04-19T17:06:59Z</time></trkpt><trkpt lat="44.517717045467926" lon="11.172345702566519"><ele>52.0</ele><time>2026-04-19T17:07:00Z</time></trkpt><trkpt lat="44.51784157846301" lon="11.172007183417943"><ele>51.5</ele><time>2026-04-19T17:07:01Z</time></trkpt><trkpt lat="44.517964967098855" lon="11.171668950351252"><ele>51.0</ele><time>2026-04-19T17:07:02Z</time></trkpt><trkpt lat="44.518087000212674" lon="11.171327502149937"><ele>51.0</ele><time>2026-04-19T17:07:03Z</time></trkpt><trkpt lat="44.51820869975758" lon="11.170984586259122"><ele>51.0</ele><time>2026-04-19T17:07:04Z</time></trkpt><trkpt lat="44.518330408013654" lon="11.170643914234018"><ele>50.5</ele><time>2026-04-19T17:07:05Z</time></trkpt><trkpt lat="44.5184503440524" lon="11.170302261941762"><ele>50.0</ele><time>2026-04-19T17:07:06Z</time></trkpt><trkpt lat="44.51856898799408" lon="11.16996267006629"><ele>50.5</ele><time>2026-04-19T17:07:07Z</time></trkpt><trkpt lat="44.518687025316034" lon="11.16962077181893"><ele>51.0</ele><time>2026-04-19T17:07:08Z</time></trkpt><trkpt lat="44.518802352081735" lon="11.169277821335085"><ele>52.0</ele><time>2026-04-19T17:07:09Z</time></trkpt><trkpt lat="44.51891746754887" lon="11.16893623679076"><ele>53.0</ele><time>2026-04-19T17:07:10Z</time></trkpt><trkpt lat="44.519031796652925" lon="11.168590572191121"><ele>53.0</ele><time>2026-04-19T17:07:11Z</time></trkpt><trkpt lat="44.519147928959654" lon="11.168247462317966"><ele>53.0</ele><time>2026-04-19T17:07:12Z</time></trkpt><trkpt lat="44.519265887012985" lon="11.167902947233165"><ele>53.0</ele><time>2026-04-19T17:07:13Z</time></trkpt><trkpt lat="44.519382350151695" lon="11.167556006083787"><ele>53.0</ele><time>2026-04-19T17:07:14Z</time></trkpt><trkpt lat="44.51949901821354" lon="11.16721010874471"><ele>52.0</ele><time>2026-04-19T17:07:15Z</time></trkpt><trkpt lat="44.519614351044126" lon="11.16686605822804"><ele>51.0</ele><time>2026-04-19T17:07:16Z</time></trkpt><trkpt lat="44.51973350622865" lon="11.166524744875197"><ele>51.0</ele><time>2026-04-19T17:07:17Z</time></trkpt><trkpt lat="44.51985268027706" lon="11.166183002167395"><ele>51.0</ele><time>2026-04-19T17:07:18Z</time></trkpt><trkpt lat="44.519967478575275" lon="11.165838114976493"><ele>51.0</ele><time>2026-04-19T17:07:19Z</time></trkpt><trkpt lat="44.52008109733581" lon="11.165493994375025"><ele>51.0</ele><time>2026-04-19T17:07:20Z</time></trkpt><trkpt lat="44.520199888686975" lon="11.16515007579019"><ele>50.5</ele><time>2026-04-19T17:07:21Z</time></trkpt><trkpt lat="44.52031953421178" lon="11.164806358207674"><ele>50.0</ele><time>2026-04-19T17:07:22Z</time></trkpt><trkpt lat="44.5204387821846" lon="11.164459925710673"><ele>50.0</ele><time>2026-04-19T17:07:23Z</time></trkpt><trkpt lat="44.52055792416713" lon="11.164113560301544"><ele>50.0</ele><time>2026-04-19T17:07:24Z</time></trkpt><trkpt lat="44.520678727830855" lon="11.163763369722965"><ele>49.5</ele><time>2026-04-19T17:07:25Z</time></trkpt><trkpt lat="44.52079989751256" lon="11.163411778483713"><ele>49.0</ele><time>2026-04-19T17:07:26Z</time></trkpt><trkpt lat="44.52092466855672" lon="11.16306043579137"><ele>50.0</ele><time>2026-04-19T17:07:27Z</time></trkpt><trkpt lat="44.521051037943295" lon="11.162711517291887"><ele>51.0</ele><time>2026-04-19T17:07:28Z</time></trkpt><trkpt lat="44.521177471961906" lon="11.162368419888516"><ele>51.0</ele><time>2026-04-19T17:07:29Z</time></trkpt><trkpt lat="44.52129256074961" lon="11.162036837235197"><ele>51.0</ele><time>2026-04-19T17:07:30Z</time></trkpt><trkpt lat="44.52140617170363" lon="11.161705710127755"><ele>52.0</ele><time>2026-04-19T17:07:31Z</time></trkpt><trkpt lat="44.521518773626" lon="11.161387317543594"><ele>53.0</ele><time>2026-04-19T17:07:32Z</time></trkpt><trkpt lat="44.52162952336801" lon="11.161064410263707"><ele>53.0</ele><time>2026-04-19T17:07:33Z</time></trkpt><trkpt lat="44.521742656901196" lon="11.160750882526084"><ele>53.0</ele><time>2026-04-19T17:07:34Z</time></trkpt><trkpt lat="44.521850860136674" lon="11.160441525698774"><ele>53.0</ele><time>2026-04-19T17:07:35Z</time></trkpt><trkpt lat="44.521957146526226" lon="11.160137855972021"><ele>53.0</ele><time>2026-04-19T17:07:36Z</time></trkpt><trkpt lat="44.52205877395729" lon="11.159838495125562"><ele>52.5</ele><time>2026-04-19T17:07:37Z</time></trkpt><trkpt lat="44.52216327370474" lon="11.15954217525683"><ele>52.0</ele><time>2026-04-19T17:07:38Z</time></trkpt><trkpt lat="44.522264803022985" lon="11.159244926006448"><ele>51.0</ele><time>2026-04-19T17:07:39Z</time></trkpt><trkpt lat="44.52236586959707" lon="11.158949652600903"><ele>50.0</ele><time>2026-04-19T17:07:40Z</time></trkpt><trkpt lat="44.52247099375282" lon="11.158648521864922"><ele>50.0</ele><time>2026-04-19T17:07:41Z</time></trkpt><trkpt lat="44.52257793142472" lon="11.15834603966674"><ele>50.0</ele><time>2026-04-19T17:07:42Z</time></trkpt><trkpt lat="44.52268323264514" lon="11.15804017595179"><ele>50.0</ele><time>2026-04-19T17:07:43Z</time></trkpt><trkpt lat="44.52278976860321" lon="11.157734933197187"><ele>50.0</ele><time>2026-04-19T17:07:44Z</time></trkpt><trkpt lat="44.52289423632022" lon="11.157423590337919"><ele>50.0</ele><time>2026-04-19T17:07:45Z</time></trkpt><trkpt lat="44.52299978499943" lon="11.157110188542706"><ele>50.0</ele><time>2026-04-19T17:07:46Z</time></trkpt><trkpt lat="44.52310825611946" lon="11.156795894788456"><ele>50.0</ele><time>2026-04-19T17:07:47Z</time></trkpt><trkpt lat="44.52321707332501" lon="11.156482416488675"><ele>50.0</ele><time>2026-04-19T17:07:48Z</time></trkpt><trkpt lat="44.52332402594868" lon="11.15616887650016"><ele>50.0</ele><time>2026-04-19T17:07:49Z</time></trkpt><trkpt lat="44.52343072493614" lon="11.155856556176605"><ele>50.0</ele><time>2026-04-19T17:07:50Z</time></trkpt><trkpt lat="44.52353766518362" lon="11.1555447763785"><ele>50.5</ele><time>2026-04-19T17:07:51Z</time></trkpt><trkpt lat="44.52364416432817" lon="11.155231972464364"><ele>51.0</ele><time>2026-04-19T17:07:52Z</time></trkpt><trkpt lat="44.523748877454814" lon="11.154919439752037"><ele>50.5</ele><time>2026-04-19T17:07:53Z</time></trkpt><trkpt lat="44.523852158933884" lon="11.154605942110702"><ele>50.0</ele><time>2026-04-19T17:07:54Z</time></trkpt><trkpt lat="44.52395794218081" lon="11.154291225373541"><ele>50.0</ele><time>2026-04-19T17:07:55Z</time></trkpt><trkpt lat="44.524064897899244" lon="11.153975484727422"><ele>50.0</ele><time>2026-04-19T17:07:56Z</time></trkpt><trkpt lat="44.52417381081416" lon="11.153659591742617"><ele>50.0</ele><time>2026-04-19T17:07:57Z</time></trkpt><trkpt lat="44.52428222079815" lon="11.153344063206545"><ele>50.0</ele><time>2026-04-19T17:07:58Z</time></trkpt><trkpt lat="44.52438998232362" lon="11.153029163779838"><ele>51.0</ele><time>2026-04-19T17:07:59Z</time></trkpt><trkpt lat="44.524496631594765" lon="11.152716749725077"><ele>52.0</ele><time>2026-04-19T17:08:00Z</time></trkpt><trkpt lat="44.52460102179565" lon="11.152409851979318"><ele>53.0</ele><time>2026-04-19T17:08:01Z</time></trkpt><trkpt lat="44.5247054891858" lon="11.152099452331308"><ele>54.0</ele><time>2026-04-19T17:08:02Z</time></trkpt><trkpt lat="44.52481218869776" lon="11.151787117356719"><ele>53.5</ele><time>2026-04-19T17:08:03Z</time></trkpt><trkpt lat="44.52491865295925" lon="11.151469543294496"><ele>53.0</ele><time>2026-04-19T17:08:04Z</time></trkpt><trkpt lat="44.525023921757914" lon="11.151157237082318"><ele>53.0</ele><time>2026-04-19T17:08:05Z</time></trkpt><trkpt lat="44.52512939506749" lon="11.150841932322734"><ele>53.0</ele><time>2026-04-19T17:08:06Z</time></trkpt><trkpt lat="44.5252353100104" lon="11.150532016019202"><ele>53.0</ele><time>2026-04-19T17:08:07Z</time></trkpt><trkpt lat="44.52534306496323" lon="11.150226610538272"><ele>53.0</ele><time>2026-04-19T17:08:08Z</time></trkpt><trkpt lat="44.52545033998402" lon="11.149923284536294"><ele>52.5</ele><time>2026-04-19T17:08:09Z</time></trkpt><trkpt lat="44.52555521694108" lon="11.14961583154288"><ele>52.0</ele><time>2026-04-19T17:08:10Z</time></trkpt><trkpt lat="44.52565617095783" lon="11.149305929675482"><ele>52.0</ele><time>2026-04-19T17:08:11Z</time></trkpt><trkpt lat="44.525759990783556" lon="11.148997406781145"><ele>52.0</ele><time>2026-04-19T17:08:12Z</time></trkpt><trkpt lat="44.525865834359266" lon="11.148688625603967"><ele>52.0</ele><time>2026-04-19T17:08:13Z</time></trkpt><trkpt lat="44.5259725897013" lon="11.148378323530965"><ele>52.0</ele><time>2026-04-19T17:08:14Z</time></trkpt><trkpt lat="44.526078106489756" lon="11.148069209928732"><ele>52.0</ele><time>2026-04-19T17:08:15Z</time></trkpt><trkpt lat="44.526187462953594" lon="11.147750463883085"><ele>52.0</ele><time>2026-04-19T17:08:16Z</time></trkpt><trkpt lat="44.52629606495501" lon="11.147435324304055"><ele>51.0</ele><time>2026-04-19T17:08:17Z</time></trkpt><trkpt lat="44.52640437061527" lon="11.147113732967453"><ele>50.0</ele><time>2026-04-19T17:08:18Z</time></trkpt><trkpt lat="44.5265130989463" lon="11.146793444242718"><ele>51.0</ele><time>2026-04-19T17:08:19Z</time></trkpt><trkpt lat="44.526621192856595" lon="11.146470869288137"><ele>52.0</ele><time>2026-04-19T17:08:20Z</time></trkpt><trkpt lat="44.52673004178731" lon="11.146146538362435"><ele>52.0</ele><time>2026-04-19T17:08:21Z</time></trkpt><trkpt lat="44.52685084539508" lon="11.145809499723326"><ele>52.0</ele><time>2026-04-19T17:08:22Z</time></trkpt><trkpt lat="44.52694933496701" lon="11.145493035028222"><ele>52.5</ele><time>2026-04-19T17:08:23Z</time></trkpt><trkpt lat="44.52706016662229" lon="11.145166634783216"><ele>53.0</ele><time>2026-04-19T17:08:24Z</time></trkpt><trkpt lat="44.52717145949447" lon="11.144836900518166"><ele>51.5</ele><time>2026-04-19T17:08:25Z</time></trkpt><trkpt lat="44.52728303192876" lon="11.14450700246212"><ele>50.0</ele><time>2026-04-19T17:08:26Z</time></trkpt><trkpt lat="44.52739402552959" lon="11.144179673879131"><ele>50.5</ele><time>2026-04-19T17:08:27Z</time></trkpt><trkpt lat="44.52750874577789" lon="11.143854876652858"><ele>51.0</ele><time>2026-04-19T17:08:28Z</time></trkpt><trkpt lat="44.52762043464968" lon="11.14353549303998"><ele>52.0</ele><time>2026-04-19T17:08:29Z</time></trkpt><trkpt lat="44.52773026520254" lon="11.143207871296893"><ele>53.0</ele><time>2026-04-19T17:08:30Z</time></trkpt><trkpt lat="44.527836814411714" lon="11.142892964526498"><ele>53.5</ele><time>2026-04-19T17:08:31Z</time></trkpt><trkpt lat="44.52794946453371" lon="11.142573893352967"><ele>54.0</ele><time>2026-04-19T17:08:32Z</time></trkpt><trkpt lat="44.52805536102278" lon="11.142247981966257"><ele>55.0</ele><time>2026-04-19T17:08:33Z</time></trkpt><trkpt lat="44.5281643015341" lon="11.141926067416943"><ele>56.0</ele><time>2026-04-19T17:08:34Z</time></trkpt><trkpt lat="44.52827197779316" lon="11.141608951866294"><ele>55.5</ele><time>2026-04-19T17:08:35Z</time></trkpt><trkpt lat="44.52837965659614" lon="11.141292067450287"><ele>55.0</ele><time>2026-04-19T17:08:36Z</time></trkpt><trkpt lat="44.5284867467241" lon="11.140973913655916"><ele>54.5</ele><time>2026-04-19T17:08:37Z</time></trkpt><trkpt lat="44.52859338990377" lon="11.140656613904868"><ele>54.0</ele><time>2026-04-19T17:08:38Z</time></trkpt><trkpt lat="44.52870296736954" lon="11.140338708128423"><ele>53.5</ele><time>2026-04-19T17:08:39Z</time></trkpt><trkpt lat="44.52881012686563" lon="11.140029070090417"><ele>53.0</ele><time>2026-04-19T17:08:40Z</time></trkpt><trkpt lat="44.5289180622598" lon="11.13971571323064"><ele>52.5</ele><time>2026-04-19T17:08:41Z</time></trkpt><trkpt lat="44.52902414978458" lon="11.13939863390466"><ele>52.0</ele><time>2026-04-19T17:08:42Z</time></trkpt><trkpt lat="44.5291312558724" lon="11.13907411470849"><ele>52.5</ele><time>2026-04-19T17:08:43Z</time></trkpt><trkpt lat="44.5292416402824" lon="11.138754885290169"><ele>53.0</ele><time>2026-04-19T17:08:44Z</time></trkpt><trkpt lat="44.529351531627846" lon="11.138435392192976"><ele>53.5</ele><time>2026-04-19T17:08:45Z</time></trkpt><trkpt lat="44.529460815788354" lon="11.138116530216088"><ele>54.0</ele><time>2026-04-19T17:08:46Z</time></trkpt><trkpt lat="44.529569538757784" lon="11.137795848587272"><ele>54.0</ele><time>2026-04-19T17:08:47Z</time></trkpt><trkpt lat="44.5296818929753" lon="11.137475363269308"><ele>54.0</ele><time>2026-04-19T17:08:48Z</time></trkpt><trkpt lat="44.52979141127875" lon="11.137154489396492"><ele>54.5</ele><time>2026-04-19T17:08:49Z</time></trkpt><trkpt lat="44.52989518175051" lon="11.13683241305932"><ele>55.0</ele><time>2026-04-19T17:08:50Z</time></trkpt><trkpt lat="44.53000259721034" lon="11.13650863995164"><ele>55.0</ele><time>2026-04-19T17:08:51Z</time></trkpt><trkpt lat="44.53011077716563" lon="11.136185889575478"><ele>55.0</ele><time>2026-04-19T17:08:52Z</time></trkpt><trkpt lat="44.530216817539625" lon="11.135867455762366"><ele>54.5</ele><time>2026-04-19T17:08:53Z</time></trkpt><trkpt lat="44.53032241455269" lon="11.135569007866298"><ele>54.0</ele><time>2026-04-19T17:08:54Z</time></trkpt><trkpt lat="44.53042577166138" lon="11.135264761698975"><ele>53.5</ele><time>2026-04-19T17:08:55Z</time></trkpt><trkpt lat="44.53053077542695" lon="11.134959014173868"><ele>53.0</ele><time>2026-04-19T17:08:56Z</time></trkpt><trkpt lat="44.53063618874691" lon="11.13465415323443"><ele>53.0</ele><time>2026-04-19T17:08:57Z</time></trkpt><trkpt lat="44.53074100280152" lon="11.134346488697377"><ele>53.0</ele><time>2026-04-19T17:08:58Z</time></trkpt><trkpt lat="44.5308457122094" lon="11.134036384237751"><ele>54.5</ele><time>2026-04-19T17:08:59Z</time></trkpt><trkpt lat="44.53094847005589" lon="11.133726656182935"><ele>56.0</ele><time>2026-04-19T17:09:00Z</time></trkpt><trkpt lat="44.53105650297936" lon="11.13342049237964"><ele>55.5</ele><time>2026-04-19T17:09:01Z</time></trkpt><trkpt lat="44.53116001399983" lon="11.133110389791478"><ele>55.0</ele><time>2026-04-19T17:09:02Z</time></trkpt><trkpt lat="44.531265948248205" lon="11.132800162495093"><ele>54.0</ele><time>2026-04-19T17:09:03Z</time></trkpt><trkpt lat="44.53137245863476" lon="11.132487897988078"><ele>53.0</ele><time>2026-04-19T17:09:04Z</time></trkpt><trkpt lat="44.531480722124705" lon="11.132173376672965"><ele>53.0</ele><time>2026-04-19T17:09:05Z</time></trkpt><trkpt lat="44.53158746994423" lon="11.131857548690826"><ele>53.0</ele><time>2026-04-19T17:09:06Z</time></trkpt><trkpt lat="44.53169722629367" lon="11.131541014850386"><ele>54.5</ele><time>2026-04-19T17:09:07Z</time></trkpt><trkpt lat="44.531805243937036" lon="11.131223841598652"><ele>56.0</ele><time>2026-04-19T17:09:08Z</time></trkpt><trkpt lat="44.5319125078591" lon="11.130907412429654"><ele>56.0</ele><time>2026-04-19T17:09:09Z</time></trkpt><trkpt lat="44.53201831052865" lon="11.130591247650186"><ele>56.0</ele><time>2026-04-19T17:09:10Z</time></trkpt><trkpt lat="44.53212515587464" lon="11.130279127098918"><ele>55.5</ele><time>2026-04-19T17:09:11Z</time></trkpt><trkpt lat="44.53223213091962" lon="11.129964310751236"><ele>55.0</ele><time>2026-04-19T17:09:12Z</time></trkpt><trkpt lat="44.53233895683683" lon="11.129651158378685"><ele>54.5</ele><time>2026-04-19T17:09:13Z</time></trkpt><trkpt lat="44.53244475495978" lon="11.12933717464176"><ele>54.0</ele><time>2026-04-19T17:09:14Z</time></trkpt><trkpt lat="44.53254888062351" lon="11.129023996470451"><ele>55.0</ele><time>2026-04-19T17:09:15Z</time></trkpt><trkpt lat="44.53265233049021" lon="11.128709728485285"><ele>56.0</ele><time>2026-04-19T17:09:16Z</time></trkpt><trkpt lat="44.532760246774906" lon="11.128400495938791"><ele>56.0</ele><time>2026-04-19T17:09:17Z</time></trkpt><trkpt lat="44.532867069850006" lon="11.128088275211423"><ele>56.0</ele><time>2026-04-19T17:09:18Z</time></trkpt><trkpt lat="44.53297441372841" lon="11.12777904801792"><ele>55.0</ele><time>2026-04-19T17:09:19Z</time></trkpt><trkpt lat="44.533079803122824" lon="11.127469028974323"><ele>54.0</ele><time>2026-04-19T17:09:20Z</time></trkpt><trkpt lat="44.53318549196988" lon="11.127159476601697"><ele>54.0</ele><time>2026-04-19T17:09:21Z</time></trkpt><trkpt lat="44.5332902378249" lon="11.12685084620641"><ele>54.0</ele><time>2026-04-19T17:09:22Z</time></trkpt><trkpt lat="44.53339385765383" lon="11.126539322115258"><ele>54.0</ele><time>2026-04-19T17:09:23Z</time></trkpt><trkpt lat="44.533499068452755" lon="11.126229529834802"><ele>54.0</ele><time>2026-04-19T17:09:24Z</time></trkpt><trkpt lat="44.533605677157816" lon="11.125920935021705"><ele>54.0</ele><time>2026-04-19T17:09:25Z</time></trkpt><trkpt lat="44.53371218671487" lon="11.125611279450117"><ele>54.0</ele><time>2026-04-19T17:09:26Z</time></trkpt><trkpt lat="44.53382063590373" lon="11.125303310127375"><ele>54.0</ele><time>2026-04-19T17:09:27Z</time></trkpt><trkpt lat="44.533929842978665" lon="11.124996684210455"><ele>54.0</ele><time>2026-04-19T17:09:28Z</time></trkpt><trkpt lat="44.53404254730901" lon="11.124689186621755"><ele>54.0</ele><time>2026-04-19T17:09:29Z</time></trkpt><trkpt lat="44.53415604048866" lon="11.12438460230989"><ele>54.0</ele><time>2026-04-19T17:09:30Z</time></trkpt><trkpt lat="44.53426987283941" lon="11.12408250732474"><ele>55.0</ele><time>2026-04-19T17:09:31Z</time></trkpt><trkpt lat="44.53438642022558" lon="11.12377816851286"><ele>56.0</ele><time>2026-04-19T17:09:32Z</time></trkpt><trkpt lat="44.534503963137176" lon="11.12347190674078"><ele>55.5</ele><time>2026-04-19T17:09:33Z</time></trkpt><trkpt lat="44.53462343840979" lon="11.123165020210628"><ele>55.0</ele><time>2026-04-19T17:09:34Z</time></trkpt><trkpt lat="44.53474222174959" lon="11.122855736723483"><ele>55.0</ele><time>2026-04-19T17:09:35Z</time></trkpt><trkpt lat="44.53486099098289" lon="11.122544131308517"><ele>55.0</ele><time>2026-04-19T17:09:36Z</time></trkpt><trkpt lat="44.53497893797832" lon="11.122235165045206"><ele>55.5</ele><time>2026-04-19T17:09:37Z</time></trkpt><trkpt lat="44.535096340222665" lon="11.12193315519347"><ele>56.0</ele><time>2026-04-19T17:09:38Z</time></trkpt><trkpt lat="44.535212149517264" lon="11.121630953786411"><ele>55.5</ele><time>2026-04-19T17:09:39Z</time></trkpt><trkpt lat="44.53532870684774" lon="11.121327714448036"><ele>55.0</ele><time>2026-04-19T17:09:40Z</time></trkpt><trkpt lat="44.5354453254945" lon="11.121020723171144"><ele>54.0</ele><time>2026-04-19T17:09:41Z</time></trkpt><trkpt lat="44.53556295947963" lon="11.120711271098084"><ele>53.0</ele><time>2026-04-19T17:09:42Z</time></trkpt><trkpt lat="44.535680256451165" lon="11.120401121849724"><ele>53.0</ele><time>2026-04-19T17:09:43Z</time></trkpt><trkpt lat="44.53579961242613" lon="11.12009034518231"><ele>53.0</ele><time>2026-04-19T17:09:44Z</time></trkpt><trkpt lat="44.53591860053794" lon="11.119776125153566"><ele>53.5</ele><time>2026-04-19T17:09:45Z</time></trkpt><trkpt lat="44.5360387460056" lon="11.119457208949825"><ele>54.0</ele><time>2026-04-19T17:09:46Z</time></trkpt><trkpt lat="44.53616000113194" lon="11.119141131258278"><ele>54.0</ele><time>2026-04-19T17:09:47Z</time></trkpt><trkpt lat="44.53628245154041" lon="11.11882341748728"><ele>54.0</ele><time>2026-04-19T17:09:48Z</time></trkpt><trkpt lat="44.53640621057777" lon="11.11850568578826"><ele>53.5</ele><time>2026-04-19T17:09:49Z</time></trkpt><trkpt lat="44.53652880145752" lon="11.118188332339786"><ele>53.0</ele><time>2026-04-19T17:09:50Z</time></trkpt><trkpt lat="44.536650480306925" lon="11.11787088357123"><ele>53.0</ele><time>2026-04-19T17:09:51Z</time></trkpt><trkpt lat="44.53676910013698" lon="11.11756198181346"><ele>53.0</ele><time>2026-04-19T17:09:52Z</time></trkpt><trkpt lat="44.53688556842737" lon="11.11725621212331"><ele>53.5</ele><time>2026-04-19T17:09:53Z</time></trkpt><trkpt lat="44.537002076912046" lon="11.11694867596119"><ele>54.0</ele><time>2026-04-19T17:09:54Z</time></trkpt><trkpt lat="44.53712387241378" lon="11.116641879269514"><ele>54.0</ele><time>2026-04-19T17:09:55Z</time></trkpt><trkpt lat="44.537242377449985" lon="11.116330610442342"><ele>54.0</ele><time>2026-04-19T17:09:56Z</time></trkpt><trkpt lat="44.53736106727665" lon="11.116018733815064"><ele>54.5</ele><time>2026-04-19T17:09:57Z</time></trkpt><trkpt lat="44.537479611505645" lon="11.115701321545897"><ele>55.0</ele><time>2026-04-19T17:09:58Z</time></trkpt><trkpt lat="44.537600421395844" lon="11.115383499784352"><ele>55.0</ele><time>2026-04-19T17:09:59Z</time></trkpt><trkpt lat="44.53771949420159" lon="11.115061695449915"><ele>55.0</ele><time>2026-04-19T17:10:00Z</time></trkpt><trkpt lat="44.53783774870623" lon="11.114740506282407"><ele>56.5</ele><time>2026-04-19T17:10:01Z</time></trkpt><trkpt lat="44.53795440368533" lon="11.114415326788308"><ele>58.0</ele><time>2026-04-19T17:10:02Z</time></trkpt><trkpt lat="44.53807360247823" lon="11.114089016566936"><ele>57.0</ele><time>2026-04-19T17:10:03Z</time></trkpt><trkpt lat="44.53819435260604" lon="11.113763524852942"><ele>56.0</ele><time>2026-04-19T17:10:04Z</time></trkpt><trkpt lat="44.53831579457985" lon="11.11343911350258"><ele>55.0</ele><time>2026-04-19T17:10:05Z</time></trkpt><trkpt lat="44.53843682680783" lon="11.1131160250316"><ele>54.0</ele><time>2026-04-19T17:10:06Z</time></trkpt><trkpt lat="44.53855651983" lon="11.112790876522658"><ele>54.0</ele><time>2026-04-19T17:10:07Z</time></trkpt><trkpt lat="44.53867775464803" lon="11.112465052887963"><ele>54.0</ele><time>2026-04-19T17:10:08Z</time></trkpt><trkpt lat="44.53880249646607" lon="11.112140643013129"><ele>54.5</ele><time>2026-04-19T17:10:09Z</time></trkpt><trkpt lat="44.53892775760112" lon="11.11181941647271"><ele>55.0</ele><time>2026-04-19T17:10:10Z</time></trkpt><trkpt lat="44.53905416787006" lon="11.111497887395764"><ele>55.0</ele><time>2026-04-19T17:10:11Z</time></trkpt><trkpt lat="44.53918114267124" lon="11.111178404597025"><ele>55.0</ele><time>2026-04-19T17:10:12Z</time></trkpt><trkpt lat="44.539310830521515" lon="11.110855968004742"><ele>55.0</ele><time>2026-04-19T17:10:13Z</time></trkpt><trkpt lat="44.53943918321787" lon="11.110530780325846"><ele>55.0</ele><time>2026-04-19T17:10:14Z</time></trkpt><trkpt lat="44.53956730063336" lon="11.110204404364131"><ele>56.0</ele><time>2026-04-19T17:10:15Z</time></trkpt><trkpt lat="44.539694520716914" lon="11.109875188189083"><ele>57.0</ele><time>2026-04-19T17:10:16Z</time></trkpt><trkpt lat="44.53982209086039" lon="11.109543122133058"><ele>57.0</ele><time>2026-04-19T17:10:17Z</time></trkpt><trkpt lat="44.539948843356576" lon="11.109209559860457"><ele>57.0</ele><time>2026-04-19T17:10:18Z</time></trkpt><trkpt lat="44.54007633065573" lon="11.108874251805583"><ele>56.5</ele><time>2026-04-19T17:10:19Z</time></trkpt><trkpt lat="44.5402024785535" lon="11.108534489794144"><ele>56.0</ele><time>2026-04-19T17:10:20Z</time></trkpt><trkpt lat="44.54032832962283" lon="11.108195089133142"><ele>57.0</ele><time>2026-04-19T17:10:21Z</time></trkpt><trkpt lat="44.5404519922633" lon="11.107865683148226"><ele>58.0</ele><time>2026-04-19T17:10:22Z</time></trkpt><trkpt lat="44.54057666138411" lon="11.107536324668345"><ele>58.5</ele><time>2026-04-19T17:10:23Z</time></trkpt><trkpt lat="44.5407015338223" lon="11.107203950707504"><ele>59.0</ele><time>2026-04-19T17:10:24Z</time></trkpt><trkpt lat="44.540827069570845" lon="11.106871973651694"><ele>59.0</ele><time>2026-04-19T17:10:25Z</time></trkpt><trkpt lat="44.54095435413806" lon="11.106537261678469"><ele>59.0</ele><time>2026-04-19T17:10:26Z</time></trkpt><trkpt lat="44.541081653086565" lon="11.106199967144661"><ele>59.0</ele><time>2026-04-19T17:10:27Z</time></trkpt><trkpt lat="44.54120805853658" lon="11.105864262989927"><ele>59.0</ele><time>2026-04-19T17:10:28Z</time></trkpt><trkpt lat="44.54133754004335" lon="11.105521560378461"><ele>57.5</ele><time>2026-04-19T17:10:29Z</time></trkpt><trkpt lat="44.5414687283687" lon="11.105181111228971"><ele>56.0</ele><time>2026-04-19T17:10:30Z</time></trkpt><trkpt lat="44.54160077284877" lon="11.104840006664983"><ele>56.0</ele><time>2026-04-19T17:10:31Z</time></trkpt><trkpt lat="44.541732399238235" lon="11.104494953614562"><ele>56.0</ele><time>2026-04-19T17:10:31.999Z</time></trkpt><trkpt lat="44.54186718216096" lon="11.104153337363426"><ele>56.0</ele><time>2026-04-19T17:10:32.999Z</time></trkpt><trkpt lat="44.5420031571509" lon="11.10380816455494"><ele>56.0</ele><time>2026-04-19T17:10:33.999Z</time></trkpt><trkpt lat="44.542139758645575" lon="11.103460351073553"><ele>55.5</ele><time>2026-04-19T17:10:34.999Z</time></trkpt><trkpt lat="44.542273933138105" lon="11.103108787815362"><ele>55.0</ele><time>2026-04-19T17:10:35.999Z</time></trkpt><trkpt lat="44.54240905213794" lon="11.102757044910078"><ele>54.5</ele><time>2026-04-19T17:10:36.999Z</time></trkpt><trkpt lat="44.542545942440036" lon="11.102408286278017"><ele>54.0</ele><time>2026-04-19T17:10:37.999Z</time></trkpt><trkpt lat="44.54268497455055" lon="11.102064956539056"><ele>54.0</ele><time>2026-04-19T17:10:38.999Z</time></trkpt><trkpt lat="44.54282118703622" lon="11.101731082245573"><ele>54.0</ele><time>2026-04-19T17:10:39.999Z</time></trkpt><trkpt lat="44.5429518646348" lon="11.101397973433368"><ele>54.5</ele><time>2026-04-19T17:10:40.999Z</time></trkpt><trkpt lat="44.5430811963353" lon="11.101074412556091"><ele>55.0</ele><time>2026-04-19T17:10:41.999Z</time></trkpt><trkpt lat="44.54320669135982" lon="11.100753926791022"><ele>54.0</ele><time>2026-04-19T17:10:42.999Z</time></trkpt><trkpt lat="44.543325771634905" lon="11.100439403395221"><ele>53.0</ele><time>2026-04-19T17:10:44Z</time></trkpt><trkpt lat="44.54344800995366" lon="11.10011558133635"><ele>53.0</ele><time>2026-04-19T17:10:45Z</time></trkpt><trkpt lat="44.54357026722501" lon="11.09980394274498"><ele>53.0</ele><time>2026-04-19T17:10:46Z</time></trkpt><trkpt lat="44.54369491354057" lon="11.09948577220701"><ele>53.0</ele><time>2026-04-19T17:10:47Z</time></trkpt><trkpt lat="44.54381918440245" lon="11.09916872520577"><ele>53.0</ele><time>2026-04-19T17:10:48Z</time></trkpt><trkpt lat="44.54394537134815" lon="11.098847524556616"><ele>53.0</ele><time>2026-04-19T17:10:49Z</time></trkpt><trkpt lat="44.5440711645009" lon="11.098521192996515"><ele>53.0</ele><time>2026-04-19T17:10:50Z</time></trkpt><trkpt lat="44.54419594941756" lon="11.098190492012419"><ele>53.0</ele><time>2026-04-19T17:10:51Z</time></trkpt><trkpt lat="44.54432219927588" lon="11.097858536294604"><ele>53.0</ele><time>2026-04-19T17:10:52Z</time></trkpt><trkpt lat="44.54445104463905" lon="11.097524710632646"><ele>54.0</ele><time>2026-04-19T17:10:53Z</time></trkpt><trkpt lat="44.54457542444831" lon="11.09719096315262"><ele>55.0</ele><time>2026-04-19T17:10:54Z</time></trkpt><trkpt lat="44.544701055076025" lon="11.096859090319448"><ele>56.0</ele><time>2026-04-19T17:10:55Z</time></trkpt><trkpt lat="44.54482665840435" lon="11.096520368634636"><ele>57.0</ele><time>2026-04-19T17:10:56Z</time></trkpt><trkpt lat="44.54495693253908" lon="11.09618497740532"><ele>57.0</ele><time>2026-04-19T17:10:57Z</time></trkpt><trkpt lat="44.54508658384923" lon="11.095849441761631"><ele>57.0</ele><time>2026-04-19T17:10:58Z</time></trkpt><trkpt lat="44.5452182984147" lon="11.095519065299081"><ele>56.5</ele><time>2026-04-19T17:10:59Z</time></trkpt><trkpt lat="44.5453426283432" lon="11.095180820692553"><ele>56.0</ele><time>2026-04-19T17:11:00Z</time></trkpt><trkpt lat="44.545474227507675" lon="11.094841254521118"><ele>55.0</ele><time>2026-04-19T17:11:01Z</time></trkpt><trkpt lat="44.545603176370975" lon="11.094506258801806"><ele>54.0</ele><time>2026-04-19T17:11:02Z</time></trkpt><trkpt lat="44.545729767462156" lon="11.094174312359751"><ele>54.0</ele><time>2026-04-19T17:11:03Z</time></trkpt><trkpt lat="44.54585246434039" lon="11.093849820938697"><ele>54.0</ele><time>2026-04-19T17:11:04Z</time></trkpt><trkpt lat="44.54597389381934" lon="11.093532942813264"><ele>54.0</ele><time>2026-04-19T17:11:05Z</time></trkpt><trkpt lat="44.54609129685216" lon="11.093223141889764"><ele>54.0</ele><time>2026-04-19T17:11:06Z</time></trkpt><trkpt lat="44.54621255034391" lon="11.09291303690779"><ele>54.0</ele><time>2026-04-19T17:11:07Z</time></trkpt><trkpt lat="44.546332638716585" lon="11.092601462669634"><ele>54.0</ele><time>2026-04-19T17:11:08Z</time></trkpt><trkpt lat="44.54645387603209" lon="11.09228857483151"><ele>54.5</ele><time>2026-04-19T17:11:09Z</time></trkpt><trkpt lat="44.546575325246096" lon="11.091974133976917"><ele>55.0</ele><time>2026-04-19T17:11:10Z</time></trkpt><trkpt lat="44.546695769173255" lon="11.091657630790648"><ele>55.0</ele><time>2026-04-19T17:11:11Z</time></trkpt><trkpt lat="44.54681895977986" lon="11.091331968814774"><ele>55.0</ele><time>2026-04-19T17:11:12Z</time></trkpt><trkpt lat="44.54694117742124" lon="11.091014733968748"><ele>54.0</ele><time>2026-04-19T17:11:13Z</time></trkpt><trkpt lat="44.547065238142515" lon="11.09069254478414"><ele>53.0</ele><time>2026-04-19T17:11:14Z</time></trkpt><trkpt lat="44.54718730990584" lon="11.090362615220286"><ele>53.0</ele><time>2026-04-19T17:11:15Z</time></trkpt><trkpt lat="44.54730904356887" lon="11.090043736165653"><ele>53.0</ele><time>2026-04-19T17:11:16Z</time></trkpt><trkpt lat="44.54743430764432" lon="11.089714275096693"><ele>53.0</ele><time>2026-04-19T17:11:17Z</time></trkpt><trkpt lat="44.547559771247016" lon="11.089386416652465"><ele>53.0</ele><time>2026-04-19T17:11:18Z</time></trkpt><trkpt lat="44.547686142643975" lon="11.08905875938117"><ele>53.0</ele><time>2026-04-19T17:11:19Z</time></trkpt><trkpt lat="44.547814429502935" lon="11.088729836380425"><ele>53.0</ele><time>2026-04-19T17:11:20Z</time></trkpt><trkpt lat="44.547940625193625" lon="11.088399639746592"><ele>52.5</ele><time>2026-04-19T17:11:21Z</time></trkpt><trkpt lat="44.54806658046444" lon="11.088065392403902"><ele>52.0</ele><time>2026-04-19T17:11:22Z</time></trkpt><trkpt lat="44.54819251679307" lon="11.087730558799706"><ele>53.0</ele><time>2026-04-19T17:11:23Z</time></trkpt><trkpt lat="44.54831956446587" lon="11.087396400742794"><ele>54.0</ele><time>2026-04-19T17:11:24Z</time></trkpt><trkpt lat="44.54844589190223" lon="11.087059787819785"><ele>54.0</ele><time>2026-04-19T17:11:25Z</time></trkpt><trkpt lat="44.54857093541848" lon="11.086719383811653"><ele>54.0</ele><time>2026-04-19T17:11:26Z</time></trkpt><trkpt lat="44.5486964783913" lon="11.086376716779013"><ele>53.5</ele><time>2026-04-19T17:11:27Z</time></trkpt><trkpt lat="44.54882595915884" lon="11.086032431566961"><ele>53.0</ele><time>2026-04-19T17:11:28Z</time></trkpt><trkpt lat="44.548955849450984" lon="11.08568466721146"><ele>52.5</ele><time>2026-04-19T17:11:29Z</time></trkpt><trkpt lat="44.54908604851647" lon="11.085332907199623"><ele>52.0</ele><time>2026-04-19T17:11:30Z</time></trkpt><trkpt lat="44.54921791225725" lon="11.084980766315997"><ele>52.5</ele><time>2026-04-19T17:11:31Z</time></trkpt><trkpt lat="44.54935063013913" lon="11.084627913771072"><ele>53.0</ele><time>2026-04-19T17:11:32Z</time></trkpt><trkpt lat="44.549485723048186" lon="11.084274401664167"><ele>53.0</ele><time>2026-04-19T17:11:33Z</time></trkpt><trkpt lat="44.54962105943332" lon="11.083920159748999"><ele>53.0</ele><time>2026-04-19T17:11:34Z</time></trkpt><trkpt lat="44.549757152902714" lon="11.083564054068184"><ele>53.5</ele><time>2026-04-19T17:11:35Z</time></trkpt><trkpt lat="44.549892071384264" lon="11.083208257573805"><ele>54.0</ele><time>2026-04-19T17:11:36Z</time></trkpt><trkpt lat="44.550026184001304" lon="11.082851937048554"><ele>54.0</ele><time>2026-04-19T17:11:37Z</time></trkpt><trkpt lat="44.5501597647081" lon="11.082494070858223"><ele>54.0</ele><time>2026-04-19T17:11:38Z</time></trkpt><trkpt lat="44.55029542056694" lon="11.082137439204153"><ele>53.5</ele><time>2026-04-19T17:11:39Z</time></trkpt><trkpt lat="44.55043314309677" lon="11.081781279996436"><ele>53.0</ele><time>2026-04-19T17:11:40Z</time></trkpt><trkpt lat="44.55056939058488" lon="11.081421399629168"><ele>53.0</ele><time>2026-04-19T17:11:41Z</time></trkpt><trkpt lat="44.550704627405096" lon="11.081060579513197"><ele>53.0</ele><time>2026-04-19T17:11:42Z</time></trkpt><trkpt lat="44.55084430152219" lon="11.080703638050919"><ele>53.0</ele><time>2026-04-19T17:11:43Z</time></trkpt><trkpt lat="44.550984603584794" lon="11.080358905661388"><ele>53.0</ele><time>2026-04-19T17:11:44Z</time></trkpt><trkpt lat="44.5511211222043" lon="11.080022679142834"><ele>53.5</ele><time>2026-04-19T17:11:45Z</time></trkpt><trkpt lat="44.551256825556926" lon="11.079689876365991"><ele>54.0</ele><time>2026-04-19T17:11:46Z</time></trkpt><trkpt lat="44.551390434115326" lon="11.079357468351581"><ele>54.5</ele><time>2026-04-19T17:11:47Z</time></trkpt><trkpt lat="44.55152424803874" lon="11.079026678020208"><ele>55.0</ele><time>2026-04-19T17:11:48Z</time></trkpt><trkpt lat="44.551658455140775" lon="11.078693117502219"><ele>55.0</ele><time>2026-04-19T17:11:49Z</time></trkpt><trkpt lat="44.55179001432019" lon="11.078356718072806"><ele>55.0</ele><time>2026-04-19T17:11:50Z</time></trkpt><trkpt lat="44.55191948857878" lon="11.078020115159763"><ele>53.5</ele><time>2026-04-19T17:11:51Z</time></trkpt><trkpt lat="44.55204857699115" lon="11.077681140668599"><ele>52.0</ele><time>2026-04-19T17:11:52Z</time></trkpt><trkpt lat="44.55217539910134" lon="11.077343393651383"><ele>52.0</ele><time>2026-04-19T17:11:53Z</time></trkpt><trkpt lat="44.552303002170646" lon="11.077009246856857"><ele>52.0</ele><time>2026-04-19T17:11:54Z</time></trkpt><trkpt lat="44.55243063135437" lon="11.076675669433069"><ele>52.5</ele><time>2026-04-19T17:11:55Z</time></trkpt><trkpt lat="44.55255896481036" lon="11.076342198858974"><ele>53.0</ele><time>2026-04-19T17:11:56Z</time></trkpt><trkpt lat="44.552683265178366" lon="11.076007646710243"><ele>53.5</ele><time>2026-04-19T17:11:57Z</time></trkpt><trkpt lat="44.552809384422815" lon="11.075674936129317"><ele>54.0</ele><time>2026-04-19T17:11:58Z</time></trkpt><trkpt lat="44.552936805440275" lon="11.07534402030624"><ele>52.5</ele><time>2026-04-19T17:11:59Z</time></trkpt><trkpt lat="44.553064383410074" lon="11.075011637287075"><ele>51.0</ele><time>2026-04-19T17:12:00Z</time></trkpt><trkpt lat="44.553192211811194" lon="11.074678962325594"><ele>51.0</ele><time>2026-04-19T17:12:01Z</time></trkpt><trkpt lat="44.55331942453911" lon="11.074346835646114"><ele>51.0</ele><time>2026-04-19T17:12:02Z</time></trkpt><trkpt lat="44.553447216047786" lon="11.074014654286332"><ele>51.0</ele><time>2026-04-19T17:12:03Z</time></trkpt><trkpt lat="44.55357577398086" lon="11.073682942472898"><ele>51.0</ele><time>2026-04-19T17:12:04Z</time></trkpt><trkpt lat="44.55370249357334" lon="11.073349345657638"><ele>51.5</ele><time>2026-04-19T17:12:05Z</time></trkpt><trkpt lat="44.55382962265611" lon="11.073016937779013"><ele>52.0</ele><time>2026-04-19T17:12:06Z</time></trkpt><trkpt lat="44.5539573024059" lon="11.072685009211433"><ele>51.5</ele><time>2026-04-19T17:12:07Z</time></trkpt><trkpt lat="44.55408514753434" lon="11.072352425951"><ele>51.0</ele><time>2026-04-19T17:12:08Z</time></trkpt><trkpt lat="44.55421265191448" lon="11.072021168694835"><ele>51.0</ele><time>2026-04-19T17:12:09Z</time></trkpt><trkpt lat="44.55433952118137" lon="11.071693214648281"><ele>51.0</ele><time>2026-04-19T17:12:10Z</time></trkpt><trkpt lat="44.55446555966747" lon="11.071364190807309"><ele>51.0</ele><time>2026-04-19T17:12:11Z</time></trkpt><trkpt lat="44.554589882728095" lon="11.071033945571445"><ele>51.0</ele><time>2026-04-19T17:12:12Z</time></trkpt><trkpt lat="44.55471402969713" lon="11.070704038876643"><ele>51.0</ele><time>2026-04-19T17:12:13Z</time></trkpt><trkpt lat="44.55483915129134" lon="11.070373538516044"><ele>51.0</ele><time>2026-04-19T17:12:14Z</time></trkpt><trkpt lat="44.5549637004678" lon="11.070044555283939"><ele>51.0</ele><time>2026-04-19T17:12:15Z</time></trkpt><trkpt lat="44.55508941024867" lon="11.069713385103073"><ele>51.0</ele><time>2026-04-19T17:12:16Z</time></trkpt><trkpt lat="44.555214833600104" lon="11.069385274230788"><ele>51.0</ele><time>2026-04-19T17:12:17Z</time></trkpt><trkpt lat="44.55534125675227" lon="11.069056126448206"><ele>51.0</ele><time>2026-04-19T17:12:18Z</time></trkpt><trkpt lat="44.555467395693476" lon="11.068728658070269"><ele>50.5</ele><time>2026-04-19T17:12:19Z</time></trkpt><trkpt lat="44.55559387085381" lon="11.068401826143356"><ele>50.0</ele><time>2026-04-19T17:12:20Z</time></trkpt><trkpt lat="44.55571945290507" lon="11.068074227205313"><ele>49.5</ele><time>2026-04-19T17:12:21Z</time></trkpt><trkpt lat="44.55584392912234" lon="11.067747680892108"><ele>49.0</ele><time>2026-04-19T17:12:22Z</time></trkpt><trkpt lat="44.555970758517546" lon="11.067421571227294"><ele>49.0</ele><time>2026-04-19T17:12:23Z</time></trkpt><trkpt lat="44.55609567027219" lon="11.067094908530674"><ele>49.0</ele><time>2026-04-19T17:12:24Z</time></trkpt><trkpt lat="44.55621965403342" lon="11.066769299724017"><ele>50.0</ele><time>2026-04-19T17:12:25Z</time></trkpt><trkpt lat="44.55634300085007" lon="11.066444335207851"><ele>51.0</ele><time>2026-04-19T17:12:26Z</time></trkpt><trkpt lat="44.55646620313383" lon="11.066118844223492"><ele>51.0</ele><time>2026-04-19T17:12:27Z</time></trkpt><trkpt lat="44.5565909121727" lon="11.065792605157267"><ele>51.0</ele><time>2026-04-19T17:12:28Z</time></trkpt><trkpt lat="44.556715434267" lon="11.065466042216887"><ele>50.5</ele><time>2026-04-19T17:12:29Z</time></trkpt><trkpt lat="44.556840472899374" lon="11.065138355739037"><ele>50.0</ele><time>2026-04-19T17:12:30Z</time></trkpt><trkpt lat="44.55696540802992" lon="11.06481056950466"><ele>50.5</ele><time>2026-04-19T17:12:31Z</time></trkpt><trkpt lat="44.55709160062656" lon="11.064483678581773"><ele>51.0</ele><time>2026-04-19T17:12:32Z</time></trkpt><trkpt lat="44.557216055864274" lon="11.064155983691684"><ele>51.0</ele><time>2026-04-19T17:12:33Z</time></trkpt><trkpt lat="44.55734128342605" lon="11.06382846632545"><ele>51.0</ele><time>2026-04-19T17:12:34Z</time></trkpt><trkpt lat="44.55746663359901" lon="11.063499034008235"><ele>51.0</ele><time>2026-04-19T17:12:35Z</time></trkpt><trkpt lat="44.55759314188209" lon="11.063167145144357"><ele>51.0</ele><time>2026-04-19T17:12:36Z</time></trkpt><trkpt lat="44.55772195615349" lon="11.062833884800186"><ele>51.0</ele><time>2026-04-19T17:12:37Z</time></trkpt><trkpt lat="44.55784928732918" lon="11.062497951137113"><ele>51.0</ele><time>2026-04-19T17:12:37.999Z</time></trkpt><trkpt lat="44.557976349953584" lon="11.062159952068608"><ele>51.5</ele><time>2026-04-19T17:12:38.999Z</time></trkpt><trkpt lat="44.55810516703487" lon="11.06182854929605"><ele>52.0</ele><time>2026-04-19T17:12:39.999Z</time></trkpt><trkpt lat="44.55823298254886" lon="11.061493593409097"><ele>52.5</ele><time>2026-04-19T17:12:40.999Z</time></trkpt><trkpt lat="44.558360638545956" lon="11.061158552388111"><ele>53.0</ele><time>2026-04-19T17:12:41.999Z</time></trkpt><trkpt lat="44.55848813946265" lon="11.060827682053736"><ele>53.0</ele><time>2026-04-19T17:12:42.999Z</time></trkpt><trkpt lat="44.55861448700185" lon="11.060497684421792"><ele>53.0</ele><time>2026-04-19T17:12:43.999Z</time></trkpt><trkpt lat="44.55874085635453" lon="11.06017192010309"><ele>52.5</ele><time>2026-04-19T17:12:44.999Z</time></trkpt><trkpt lat="44.55886541878372" lon="11.059846424814795"><ele>52.0</ele><time>2026-04-19T17:12:45.999Z</time></trkpt><trkpt lat="44.55898968843482" lon="11.059518886975285"><ele>52.0</ele><time>2026-04-19T17:12:46.999Z</time></trkpt><trkpt lat="44.55911234517911" lon="11.059190119777536"><ele>52.0</ele><time>2026-04-19T17:12:47.999Z</time></trkpt><trkpt lat="44.5592378575248" lon="11.058861265549487"><ele>51.5</ele><time>2026-04-19T17:12:48.999Z</time></trkpt><trkpt lat="44.55936464509377" lon="11.058531650300198"><ele>51.0</ele><time>2026-04-19T17:12:49.999Z</time></trkpt><trkpt lat="44.55949057773735" lon="11.058202680990467"><ele>50.0</ele><time>2026-04-19T17:12:50.999Z</time></trkpt><trkpt lat="44.5596186771027" lon="11.057871312759842"><ele>49.0</ele><time>2026-04-19T17:12:51.999Z</time></trkpt><trkpt lat="44.559745719177585" lon="11.057540856100593"><ele>48.5</ele><time>2026-04-19T17:12:52.999Z</time></trkpt><trkpt lat="44.55987455363759" lon="11.05720725085722"><ele>48.0</ele><time>2026-04-19T17:12:53.999Z</time></trkpt><trkpt lat="44.560002626630045" lon="11.056872854528129"><ele>48.0</ele><time>2026-04-19T17:12:54.999Z</time></trkpt><trkpt lat="44.560132217029526" lon="11.05653591608316"><ele>48.0</ele><time>2026-04-19T17:12:55.999Z</time></trkpt><trkpt lat="44.56026043475729" lon="11.056199032402084"><ele>48.0</ele><time>2026-04-19T17:12:57Z</time></trkpt><trkpt lat="44.560388517198696" lon="11.055862063084467"><ele>48.0</ele><time>2026-04-19T17:12:58Z</time></trkpt><trkpt lat="44.560516308056656" lon="11.05552453766984"><ele>48.0</ele><time>2026-04-19T17:12:59Z</time></trkpt><trkpt lat="44.56064287933752" lon="11.055186744649397"><ele>48.0</ele><time>2026-04-19T17:13:00Z</time></trkpt><trkpt lat="44.56076794600008" lon="11.054855238975511"><ele>48.5</ele><time>2026-04-19T17:13:01Z</time></trkpt><trkpt lat="44.56089152818734" lon="11.054529567660264"><ele>49.0</ele><time>2026-04-19T17:13:02Z</time></trkpt><trkpt lat="44.561014361494124" lon="11.054203139318668"><ele>49.5</ele><time>2026-04-19T17:13:03Z</time></trkpt><trkpt lat="44.56114160401766" lon="11.053874495073662"><ele>50.0</ele><time>2026-04-19T17:13:04Z</time></trkpt><trkpt lat="44.56126882731839" lon="11.053546043721207"><ele>50.0</ele><time>2026-04-19T17:13:05Z</time></trkpt><trkpt lat="44.561394512037246" lon="11.053215680290394"><ele>50.0</ele><time>2026-04-19T17:13:06Z</time></trkpt><trkpt lat="44.56152170169394" lon="11.052886253676101"><ele>50.0</ele><time>2026-04-19T17:13:07Z</time></trkpt><trkpt lat="44.56164487120842" lon="11.052556901624799"><ele>50.0</ele><time>2026-04-19T17:13:08Z</time></trkpt><trkpt lat="44.56177037085327" lon="11.05223201144824"><ele>49.5</ele><time>2026-04-19T17:13:09Z</time></trkpt><trkpt lat="44.561893082261264" lon="11.051906584080687"><ele>49.0</ele><time>2026-04-19T17:13:10Z</time></trkpt><trkpt lat="44.56201649816529" lon="11.051582938833956"><ele>49.0</ele><time>2026-04-19T17:13:11Z</time></trkpt><trkpt lat="44.562143086734636" lon="11.051253994342174"><ele>49.0</ele><time>2026-04-19T17:13:12Z</time></trkpt><trkpt lat="44.562268982623394" lon="11.050928609506832"><ele>48.5</ele><time>2026-04-19T17:13:13Z</time></trkpt><trkpt lat="44.562394966853674" lon="11.050601711471273"><ele>48.0</ele><time>2026-04-19T17:13:14Z</time></trkpt><trkpt lat="44.56252010381476" lon="11.050274732775566"><ele>45.5</ele><time>2026-04-19T17:13:15Z</time></trkpt><trkpt lat="44.56264615692912" lon="11.049952143313014"><ele>43.0</ele><time>2026-04-19T17:13:16Z</time></trkpt><trkpt lat="44.56277358734071" lon="11.049629768498429"><ele>45.0</ele><time>2026-04-19T17:13:17Z</time></trkpt><trkpt lat="44.562894934682745" lon="11.04931154797984"><ele>47.0</ele><time>2026-04-19T17:13:18Z</time></trkpt><trkpt lat="44.56301836145591" lon="11.048978670892323"><ele>47.0</ele><time>2026-04-19T17:13:19Z</time></trkpt><trkpt lat="44.563138807908835" lon="11.048651517150862"><ele>47.0</ele><time>2026-04-19T17:13:20Z</time></trkpt><trkpt lat="44.5632621270402" lon="11.048330906749223"><ele>47.5</ele><time>2026-04-19T17:13:21Z</time></trkpt><trkpt lat="44.56338455763404" lon="11.048010662588291"><ele>48.0</ele><time>2026-04-19T17:13:22Z</time></trkpt><trkpt lat="44.56350816716056" lon="11.047692194276348"><ele>47.5</ele><time>2026-04-19T17:13:23Z</time></trkpt><trkpt lat="44.56362802129973" lon="11.047373818968042"><ele>47.0</ele><time>2026-04-19T17:13:24Z</time></trkpt><trkpt lat="44.56374910903487" lon="11.047058958119127"><ele>47.0</ele><time>2026-04-19T17:13:25Z</time></trkpt><trkpt lat="44.56387055971244" lon="11.046743191861276"><ele>47.0</ele><time>2026-04-19T17:13:26Z</time></trkpt><trkpt lat="44.56399217558018" lon="11.046429850776192"><ele>47.5</ele><time>2026-04-19T17:13:27Z</time></trkpt><trkpt lat="44.5641110891551" lon="11.046116684936244"><ele>48.0</ele><time>2026-04-19T17:13:28Z</time></trkpt><trkpt lat="44.56423011908582" lon="11.045807708383826"><ele>46.5</ele><time>2026-04-19T17:13:29Z</time></trkpt><trkpt lat="44.56434560703824" lon="11.045495679640364"><ele>45.0</ele><time>2026-04-19T17:13:30Z</time></trkpt><trkpt lat="44.56446064155181" lon="11.045181659870124"><ele>47.0</ele><time>2026-04-19T17:13:31Z</time></trkpt><trkpt lat="44.56457106669616" lon="11.044867951778361"><ele>49.0</ele><time>2026-04-19T17:13:32Z</time></trkpt><trkpt lat="44.56467880305224" lon="11.044554898456639"><ele>49.0</ele><time>2026-04-19T17:13:33Z</time></trkpt><trkpt lat="44.56478282054374" lon="11.044239066320767"><ele>49.0</ele><time>2026-04-19T17:13:34Z</time></trkpt><trkpt lat="44.56488387888864" lon="11.043918478041713"><ele>49.0</ele><time>2026-04-19T17:13:35Z</time></trkpt><trkpt lat="44.5649817478291" lon="11.043594447684296"><ele>49.0</ele><time>2026-04-19T17:13:36Z</time></trkpt><trkpt lat="44.56507701807631" lon="11.04326842152046"><ele>49.0</ele><time>2026-04-19T17:13:37Z</time></trkpt><trkpt lat="44.565168433214716" lon="11.042938471652498"><ele>49.0</ele><time>2026-04-19T17:13:38Z</time></trkpt><trkpt lat="44.565256671717094" lon="11.04260744739886"><ele>48.5</ele><time>2026-04-19T17:13:39Z</time></trkpt><trkpt lat="44.565341033302246" lon="11.042275220684301"><ele>48.0</ele><time>2026-04-19T17:13:40Z</time></trkpt><trkpt lat="44.5654231999305" lon="11.041943498933115"><ele>48.0</ele><time>2026-04-19T17:13:41Z</time></trkpt><trkpt lat="44.56550209961842" lon="11.041609454630409"><ele>48.0</ele><time>2026-04-19T17:13:42Z</time></trkpt><trkpt lat="44.565575216229185" lon="11.041271578624563"><ele>48.0</ele><time>2026-04-19T17:13:43Z</time></trkpt><trkpt lat="44.565642906799816" lon="11.040931922433122"><ele>48.0</ele><time>2026-04-19T17:13:44Z</time></trkpt><trkpt lat="44.5657100025982" lon="11.040593187617688"><ele>48.0</ele><time>2026-04-19T17:13:45Z</time></trkpt><trkpt lat="44.56577769248628" lon="11.040253885532936"><ele>48.0</ele><time>2026-04-19T17:13:46Z</time></trkpt><trkpt lat="44.56584428211611" lon="11.039913864587694"><ele>48.0</ele><time>2026-04-19T17:13:47Z</time></trkpt><trkpt lat="44.56590819892912" lon="11.039573733156123"><ele>48.0</ele><time>2026-04-19T17:13:48Z</time></trkpt><trkpt lat="44.56597289026413" lon="11.0392347907139"><ele>48.0</ele><time>2026-04-19T17:13:49Z</time></trkpt><trkpt lat="44.56603898165825" lon="11.0388957000879"><ele>48.0</ele><time>2026-04-19T17:13:50Z</time></trkpt><trkpt lat="44.566107205569416" lon="11.038557014846258"><ele>47.5</ele><time>2026-04-19T17:13:51Z</time></trkpt><trkpt lat="44.56617771602079" lon="11.038218610510773"><ele>47.0</ele><time>2026-04-19T17:13:52Z</time></trkpt><trkpt lat="44.56624840925757" lon="11.03788095621122"><ele>48.5</ele><time>2026-04-19T17:13:53Z</time></trkpt><trkpt lat="44.56631821273685" lon="11.037542944486926"><ele>50.0</ele><time>2026-04-19T17:13:54Z</time></trkpt><trkpt lat="44.56638825895147" lon="11.037203609564148"><ele>51.0</ele><time>2026-04-19T17:13:55Z</time></trkpt><trkpt lat="44.56646006848576" lon="11.036859038210116"><ele>52.0</ele><time>2026-04-19T17:13:56Z</time></trkpt><trkpt lat="44.56653269943758" lon="11.036508539740655"><ele>52.5</ele><time>2026-04-19T17:13:57Z</time></trkpt><trkpt lat="44.56660617036654" lon="11.03614998622318"><ele>53.0</ele><time>2026-04-19T17:13:58Z</time></trkpt><trkpt lat="44.566681359124644" lon="11.035785641825731"><ele>52.0</ele><time>2026-04-19T17:13:59Z</time></trkpt><trkpt lat="44.566757768622445" lon="11.03541850654863"><ele>51.0</ele><time>2026-04-19T17:14:00Z</time></trkpt><trkpt lat="44.56683360047962" lon="11.035049322291998"><ele>50.5</ele><time>2026-04-19T17:14:01Z</time></trkpt><trkpt lat="44.566910002873" lon="11.034680920734017"><ele>50.0</ele><time>2026-04-19T17:14:02Z</time></trkpt><trkpt lat="44.566985236718146" lon="11.034313736034184"><ele>49.5</ele><time>2026-04-19T17:14:03Z</time></trkpt><trkpt lat="44.56706112923847" lon="11.033948136880012"><ele>49.0</ele><time>2026-04-19T17:14:04Z</time></trkpt><trkpt lat="44.567136676543726" lon="11.03358417665"><ele>49.0</ele><time>2026-04-19T17:14:05Z</time></trkpt><trkpt lat="44.56721213393848" lon="11.033219951370443"><ele>49.0</ele><time>2026-04-19T17:14:06Z</time></trkpt><trkpt lat="44.5672871506658" lon="11.032855789745774"><ele>49.0</ele><time>2026-04-19T17:14:07Z</time></trkpt><trkpt lat="44.56736272041257" lon="11.032491541021331"><ele>49.0</ele><time>2026-04-19T17:14:08Z</time></trkpt><trkpt lat="44.56743887606119" lon="11.032128330590488"><ele>48.5</ele><time>2026-04-19T17:14:09Z</time></trkpt><trkpt lat="44.56751488279762" lon="11.03176511075165"><ele>48.0</ele><time>2026-04-19T17:14:10Z</time></trkpt><trkpt lat="44.567591243371524" lon="11.03140150393892"><ele>47.5</ele><time>2026-04-19T17:14:11Z</time></trkpt><trkpt lat="44.56766731930082" lon="11.03103744162333"><ele>47.0</ele><time>2026-04-19T17:14:12Z</time></trkpt><trkpt lat="44.56774200230922" lon="11.0306730367843"><ele>46.5</ele><time>2026-04-19T17:14:13Z</time></trkpt><trkpt lat="44.56781475936273" lon="11.030308387871104"><ele>46.0</ele><time>2026-04-19T17:14:14Z</time></trkpt><trkpt lat="44.567888330147554" lon="11.029943793419857"><ele>47.0</ele><time>2026-04-19T17:14:15Z</time></trkpt><trkpt lat="44.56796247401015" lon="11.029578750481138"><ele>48.0</ele><time>2026-04-19T17:14:16Z</time></trkpt><trkpt lat="44.56803635101201" lon="11.029213806147462"><ele>48.0</ele><time>2026-04-19T17:14:17Z</time></trkpt><trkpt lat="44.56811029223521" lon="11.028849138118392"><ele>48.0</ele><time>2026-04-19T17:14:18Z</time></trkpt><trkpt lat="44.56818453923344" lon="11.028484198124568"><ele>48.0</ele><time>2026-04-19T17:14:19Z</time></trkpt><trkpt lat="44.56825926415939" lon="11.028119951017905"><ele>48.0</ele><time>2026-04-19T17:14:20Z</time></trkpt><trkpt lat="44.56833534360672" lon="11.027754602264965"><ele>48.0</ele><time>2026-04-19T17:14:21Z</time></trkpt><trkpt lat="44.56841091536963" lon="11.027389366684421"><ele>48.0</ele><time>2026-04-19T17:14:22Z</time></trkpt><trkpt lat="44.56848589913613" lon="11.027031100615147"><ele>48.0</ele><time>2026-04-19T17:14:23Z</time></trkpt><trkpt lat="44.56856442204408" lon="11.026667798933829"><ele>48.0</ele><time>2026-04-19T17:14:24Z</time></trkpt><trkpt lat="44.56864652607689" lon="11.026305162116937"><ele>48.0</ele><time>2026-04-19T17:14:25Z</time></trkpt><trkpt lat="44.56873010911601" lon="11.025944060539999"><ele>48.0</ele><time>2026-04-19T17:14:26Z</time></trkpt><trkpt lat="44.56881146804961" lon="11.025581588499286"><ele>47.5</ele><time>2026-04-19T17:14:27Z</time></trkpt><trkpt lat="44.56889103324557" lon="11.025218231156082"><ele>47.0</ele><time>2026-04-19T17:14:28Z</time></trkpt><trkpt lat="44.56896478380084" lon="11.024853144861407"><ele>47.0</ele><time>2026-04-19T17:14:29Z</time></trkpt><trkpt lat="44.569037897857314" lon="11.024488119069737"><ele>47.0</ele><time>2026-04-19T17:14:30Z</time></trkpt><trkpt lat="44.56911008609918" lon="11.02412231635084"><ele>46.0</ele><time>2026-04-19T17:14:31Z</time></trkpt><trkpt lat="44.56917889605979" lon="11.02375723068392"><ele>45.0</ele><time>2026-04-19T17:14:32Z</time></trkpt><trkpt lat="44.56925066735926" lon="11.023391363630129"><ele>45.0</ele><time>2026-04-19T17:14:33Z</time></trkpt><trkpt lat="44.569324859799856" lon="11.023026527954583"><ele>45.0</ele><time>2026-04-19T17:14:34Z</time></trkpt><trkpt lat="44.569399786800446" lon="11.022661716700553"><ele>45.5</ele><time>2026-04-19T17:14:35Z</time></trkpt><trkpt lat="44.569474500311934" lon="11.022297512070823"><ele>46.0</ele><time>2026-04-19T17:14:36Z</time></trkpt><trkpt lat="44.56954860377519" lon="11.021933295558805"><ele>45.5</ele><time>2026-04-19T17:14:37Z</time></trkpt><trkpt lat="44.56962418194871" lon="11.021569529495158"><ele>45.0</ele><time>2026-04-19T17:14:38Z</time></trkpt><trkpt lat="44.56969827187784" lon="11.02120540752888"><ele>45.0</ele><time>2026-04-19T17:14:39Z</time></trkpt><trkpt lat="44.5697731002789" lon="11.020840668711948"><ele>45.0</ele><time>2026-04-19T17:14:40Z</time></trkpt><trkpt lat="44.56984700670696" lon="11.020476319019437"><ele>45.5</ele><time>2026-04-19T17:14:41Z</time></trkpt><trkpt lat="44.56992068997959" lon="11.020112041015079"><ele>46.0</ele><time>2026-04-19T17:14:42Z</time></trkpt><trkpt lat="44.56999409058368" lon="11.019747589484703"><ele>46.5</ele><time>2026-04-19T17:14:43Z</time></trkpt><trkpt lat="44.57006790846556" lon="11.019383568238668"><ele>47.0</ele><time>2026-04-19T17:14:43.999Z</time></trkpt><trkpt lat="44.570142480256926" lon="11.019019463081197"><ele>47.0</ele><time>2026-04-19T17:14:44.999Z</time></trkpt><trkpt lat="44.57021783294481" lon="11.018655583320502"><ele>47.0</ele><time>2026-04-19T17:14:45.999Z</time></trkpt><trkpt lat="44.57029329468946" lon="11.018292134551137"><ele>46.5</ele><time>2026-04-19T17:14:46.999Z</time></trkpt><trkpt lat="44.57036881243011" lon="11.01792843211969"><ele>46.0</ele><time>2026-04-19T17:14:47.999Z</time></trkpt><trkpt lat="44.57044433141306" lon="11.017564556282656"><ele>46.5</ele><time>2026-04-19T17:14:48.999Z</time></trkpt><trkpt lat="44.57051971341402" lon="11.017200097672609"><ele>47.0</ele><time>2026-04-19T17:14:49.999Z</time></trkpt><trkpt lat="44.57059378408856" lon="11.016834545618194"><ele>46.5</ele><time>2026-04-19T17:14:50.999Z</time></trkpt><trkpt lat="44.57066824656048" lon="11.016468063736218"><ele>46.0</ele><time>2026-04-19T17:14:52Z</time></trkpt><trkpt lat="44.57074325460959" lon="11.01610369618691"><ele>46.5</ele><time>2026-04-19T17:14:53Z</time></trkpt><trkpt lat="44.57081891381449" lon="11.015739251742124"><ele>47.0</ele><time>2026-04-19T17:14:54Z</time></trkpt><trkpt lat="44.57089485524738" lon="11.01537618135647"><ele>47.0</ele><time>2026-04-19T17:14:55Z</time></trkpt><trkpt lat="44.57097270721186" lon="11.015012022120704"><ele>47.0</ele><time>2026-04-19T17:14:56Z</time></trkpt><trkpt lat="44.571049895281156" lon="11.014648663890718"><ele>47.0</ele><time>2026-04-19T17:14:57Z</time></trkpt><trkpt lat="44.5711259497897" lon="11.014284936635951"><ele>47.0</ele><time>2026-04-19T17:14:58Z</time></trkpt><trkpt lat="44.571201280555435" lon="11.013921396143374"><ele>47.5</ele><time>2026-04-19T17:14:59Z</time></trkpt><trkpt lat="44.57127679866525" lon="11.01355731114607"><ele>48.0</ele><time>2026-04-19T17:15:00Z</time></trkpt><trkpt lat="44.57135155443584" lon="11.013190883140652"><ele>47.0</ele><time>2026-04-19T17:15:01Z</time></trkpt><trkpt lat="44.57142664673606" lon="11.01282286799115"><ele>46.0</ele><time>2026-04-19T17:15:02Z</time></trkpt><trkpt lat="44.57150273182581" lon="11.012456607920875"><ele>45.5</ele><time>2026-04-19T17:15:03Z</time></trkpt><trkpt lat="44.571578213547234" lon="11.012092431062078"><ele>45.0</ele><time>2026-04-19T17:15:04Z</time></trkpt><trkpt lat="44.571654059933614" lon="11.011727863864444"><ele>45.5</ele><time>2026-04-19T17:15:05Z</time></trkpt><trkpt lat="44.57172938294346" lon="11.011363749117443"><ele>46.0</ele><time>2026-04-19T17:15:06Z</time></trkpt><trkpt lat="44.57180452528473" lon="11.01099974257092"><ele>46.5</ele><time>2026-04-19T17:15:07Z</time></trkpt><trkpt lat="44.57187904311396" lon="11.010636062267903"><ele>47.0</ele><time>2026-04-19T17:15:08Z</time></trkpt><trkpt lat="44.57195302063519" lon="11.010271630444388"><ele>47.5</ele><time>2026-04-19T17:15:09Z</time></trkpt><trkpt lat="44.572027240911744" lon="11.009906979224498"><ele>48.0</ele><time>2026-04-19T17:15:10Z</time></trkpt><trkpt lat="44.572100254003935" lon="11.00954305490408"><ele>48.0</ele><time>2026-04-19T17:15:11Z</time></trkpt><trkpt lat="44.57217308963507" lon="11.009177804006919"><ele>48.0</ele><time>2026-04-19T17:15:12Z</time></trkpt><trkpt lat="44.572246145218095" lon="11.008812089651522"><ele>48.0</ele><time>2026-04-19T17:15:13Z</time></trkpt><trkpt lat="44.572320752512745" lon="11.008447827934505"><ele>48.0</ele><time>2026-04-19T17:15:14Z</time></trkpt><trkpt lat="44.57239505034392" lon="11.008083458961776"><ele>48.0</ele><time>2026-04-19T17:15:15Z</time></trkpt><trkpt lat="44.57246918425703" lon="11.007718657636426"><ele>48.0</ele><time>2026-04-19T17:15:16Z</time></trkpt><trkpt lat="44.57254421936596" lon="11.007352969963822"><ele>48.5</ele><time>2026-04-19T17:15:17Z</time></trkpt><trkpt lat="44.57261669742874" lon="11.006987084371422"><ele>49.0</ele><time>2026-04-19T17:15:18Z</time></trkpt><trkpt lat="44.572688355249475" lon="11.00662031924253"><ele>47.5</ele><time>2026-04-19T17:15:19Z</time></trkpt><trkpt lat="44.57275984023035" lon="11.006250074727578"><ele>46.0</ele><time>2026-04-19T17:15:20Z</time></trkpt><trkpt lat="44.57283273125158" lon="11.005874259688834"><ele>46.5</ele><time>2026-04-19T17:15:21Z</time></trkpt><trkpt lat="44.57290672348549" lon="11.005493956587173"><ele>47.0</ele><time>2026-04-19T17:15:22Z</time></trkpt><trkpt lat="44.572981225317434" lon="11.005106979128769"><ele>47.0</ele><time>2026-04-19T17:15:23Z</time></trkpt><trkpt lat="44.57305866433922" lon="11.00471604538934"><ele>47.0</ele><time>2026-04-19T17:15:24Z</time></trkpt><trkpt lat="44.573137916261395" lon="11.004321789854163"><ele>47.5</ele><time>2026-04-19T17:15:25Z</time></trkpt><trkpt lat="44.573219325164395" lon="11.003926286037343"><ele>48.0</ele><time>2026-04-19T17:15:26Z</time></trkpt><trkpt lat="44.57330186626523" lon="11.003529543730503"><ele>47.0</ele><time>2026-04-19T17:15:27Z</time></trkpt><trkpt lat="44.57338649395424" lon="11.003131745206478"><ele>46.0</ele><time>2026-04-19T17:15:28Z</time></trkpt><trkpt lat="44.573471522426225" lon="11.00274063744078"><ele>46.0</ele><time>2026-04-19T17:15:29Z</time></trkpt><trkpt lat="44.57355469588403" lon="11.002359002107633"><ele>46.0</ele><time>2026-04-19T17:15:30Z</time></trkpt><trkpt lat="44.57363794291907" lon="11.001984292346743"><ele>46.5</ele><time>2026-04-19T17:15:31Z</time></trkpt><trkpt lat="44.57371956920048" lon="11.001617454621865"><ele>47.0</ele><time>2026-04-19T17:15:32Z</time></trkpt><trkpt lat="44.57380009988086" lon="11.001255987453977"><ele>47.0</ele><time>2026-04-19T17:15:33Z</time></trkpt><trkpt lat="44.57387544235985" lon="11.00089580635182"><ele>47.0</ele><time>2026-04-19T17:15:34Z</time></trkpt><trkpt lat="44.57395062024206" lon="11.000531708380038"><ele>46.5</ele><time>2026-04-19T17:15:35Z</time></trkpt><trkpt lat="44.574026812771514" lon="11.000163785590983"><ele>46.0</ele><time>2026-04-19T17:15:36Z</time></trkpt><trkpt lat="44.574104164811565" lon="10.999796491639797"><ele>46.0</ele><time>2026-04-19T17:15:37Z</time></trkpt><trkpt lat="44.574183093210245" lon="10.999429284069645"><ele>46.0</ele><time>2026-04-19T17:15:38Z</time></trkpt><trkpt lat="44.57426304440579" lon="10.999064953191404"><ele>45.0</ele><time>2026-04-19T17:15:39Z</time></trkpt><trkpt lat="44.57434506877121" lon="10.998701788211905"><ele>44.0</ele><time>2026-04-19T17:15:40Z</time></trkpt><trkpt lat="44.574429959533205" lon="10.998339834518037"><ele>44.5</ele><time>2026-04-19T17:15:41Z</time></trkpt><trkpt lat="44.574518679063225" lon="10.997980900664476"><ele>45.0</ele><time>2026-04-19T17:15:42Z</time></trkpt><trkpt lat="44.57461109444358" lon="10.997624241680274"><ele>46.0</ele><time>2026-04-19T17:15:43Z</time></trkpt><trkpt lat="44.57470073420714" lon="10.99726598503439"><ele>47.0</ele><time>2026-04-19T17:15:44Z</time></trkpt><trkpt lat="44.57479063685837" lon="10.99690825511428"><ele>46.5</ele><time>2026-04-19T17:15:45Z</time></trkpt><trkpt lat="44.574882771976" lon="10.99655062265259"><ele>46.0</ele><time>2026-04-19T17:15:46Z</time></trkpt><trkpt lat="44.574977273661005" lon="10.99619356832171"><ele>46.0</ele><time>2026-04-19T17:15:47Z</time></trkpt><trkpt lat="44.57507211702595" lon="10.9958373853614"><ele>46.0</ele><time>2026-04-19T17:15:48Z</time></trkpt><trkpt lat="44.5751669261063" lon="10.99548076149675"><ele>46.5</ele><time>2026-04-19T17:15:49Z</time></trkpt><trkpt lat="44.57526234324702" lon="10.995124572115534"><ele>47.0</ele><time>2026-04-19T17:15:50Z</time></trkpt><trkpt lat="44.57535732664687" lon="10.994767721262404"><ele>45.5</ele><time>2026-04-19T17:15:51Z</time></trkpt><trkpt lat="44.57545176984239" lon="10.994410978141008"><ele>44.0</ele><time>2026-04-19T17:15:52Z</time></trkpt><trkpt lat="44.57554624230745" lon="10.994054249533804"><ele>44.0</ele><time>2026-04-19T17:15:53Z</time></trkpt><trkpt lat="44.57564096459943" lon="10.993698054920651"><ele>44.0</ele><time>2026-04-19T17:15:54Z</time></trkpt><trkpt lat="44.57573565585" lon="10.993341199158221"><ele>44.5</ele><time>2026-04-19T17:15:55Z</time></trkpt><trkpt lat="44.575831131817395" lon="10.992984798487477"><ele>45.0</ele><time>2026-04-19T17:15:56Z</time></trkpt><trkpt lat="44.575926304816925" lon="10.992627833720682"><ele>45.0</ele><time>2026-04-19T17:15:57Z</time></trkpt><trkpt lat="44.57602098458058" lon="10.99227062565205"><ele>45.0</ele><time>2026-04-19T17:15:58Z</time></trkpt><trkpt lat="44.57611398319953" lon="10.991913434556677"><ele>46.5</ele><time>2026-04-19T17:15:59Z</time></trkpt><trkpt lat="44.57620602288003" lon="10.991556186329806"><ele>48.0</ele><time>2026-04-19T17:16:00Z</time></trkpt><trkpt lat="44.57629828809425" lon="10.991199182440086"><ele>48.0</ele><time>2026-04-19T17:16:01Z</time></trkpt><trkpt lat="44.57639139814372" lon="10.990842243780165"><ele>48.0</ele><time>2026-04-19T17:16:02Z</time></trkpt><trkpt lat="44.576484651625535" lon="10.990485397992925"><ele>46.5</ele><time>2026-04-19T17:16:03Z</time></trkpt><trkpt lat="44.57657671518287" lon="10.99012942848621"><ele>45.0</ele><time>2026-04-19T17:16:04Z</time></trkpt><trkpt lat="44.5766700760485" lon="10.989772363596318"><ele>44.5</ele><time>2026-04-19T17:16:05Z</time></trkpt><trkpt lat="44.57676369466665" lon="10.989414977804078"><ele>44.0</ele><time>2026-04-19T17:16:06Z</time></trkpt><trkpt lat="44.576857880854234" lon="10.989057345488082"><ele>43.5</ele><time>2026-04-19T17:16:07Z</time></trkpt><trkpt lat="44.57695284120144" lon="10.988699556706596"><ele>43.0</ele><time>2026-04-19T17:16:08Z</time></trkpt><trkpt lat="44.57704858348455" lon="10.98834330301447"><ele>42.0</ele><time>2026-04-19T17:16:09Z</time></trkpt><trkpt lat="44.57714420515245" lon="10.987987270997506"><ele>41.0</ele><time>2026-04-19T17:16:10.001Z</time></trkpt><trkpt lat="44.577239552373314" lon="10.987631062312067"><ele>42.5</ele><time>2026-04-19T17:16:11.001Z</time></trkpt><trkpt lat="44.57733495584155" lon="10.987274434236197"><ele>44.0</ele><time>2026-04-19T17:16:12.001Z</time></trkpt><trkpt lat="44.577429888968965" lon="10.986917831545325"><ele>45.0</ele><time>2026-04-19T17:16:13.001Z</time></trkpt><trkpt lat="44.577524555377515" lon="10.986561228574377"><ele>46.0</ele><time>2026-04-19T17:16:14.001Z</time></trkpt><trkpt lat="44.57761888445845" lon="10.986204108288298"><ele>46.0</ele><time>2026-04-19T17:16:15.001Z</time></trkpt><trkpt lat="44.577713305127524" lon="10.985848364539185"><ele>46.0</ele><time>2026-04-19T17:16:16.001Z</time></trkpt><trkpt lat="44.57780710075158" lon="10.985492037605068"><ele>46.5</ele><time>2026-04-19T17:16:17.001Z</time></trkpt><trkpt lat="44.57790046458042" lon="10.985134898259538"><ele>47.0</ele><time>2026-04-19T17:16:18.001Z</time></trkpt><trkpt lat="44.57799298644101" lon="10.984778481103213"><ele>48.0</ele><time>2026-04-19T17:16:19.001Z</time></trkpt><trkpt lat="44.57808635848996" lon="10.984420716324795"><ele>49.0</ele><time>2026-04-19T17:16:20.001Z</time></trkpt><trkpt lat="44.578179743078216" lon="10.984063590968775"><ele>49.0</ele><time>2026-04-19T17:16:21.001Z</time></trkpt><trkpt lat="44.57827400814946" lon="10.98370726663874"><ele>49.0</ele><time>2026-04-19T17:16:22.001Z</time></trkpt><trkpt lat="44.57836784279926" lon="10.983349485575385"><ele>49.0</ele><time>2026-04-19T17:16:23.001Z</time></trkpt><trkpt lat="44.5784611772831" lon="10.98298997478493"><ele>49.0</ele><time>2026-04-19T17:16:24.001Z</time></trkpt><trkpt lat="44.57855352925527" lon="10.982631835562175"><ele>48.5</ele><time>2026-04-19T17:16:25.001Z</time></trkpt><trkpt lat="44.57864926652703" lon="10.982276290656422"><ele>48.0</ele><time>2026-04-19T17:16:26.001Z</time></trkpt><trkpt lat="44.578743718190736" lon="10.981920003572931"><ele>47.5</ele><time>2026-04-19T17:16:27.001Z</time></trkpt><trkpt lat="44.57883776348657" lon="10.981563626683052"><ele>47.0</ele><time>2026-04-19T17:16:28.001Z</time></trkpt><trkpt lat="44.578932075567565" lon="10.981207387673413"><ele>47.0</ele><time>2026-04-19T17:16:29.001Z</time></trkpt><trkpt lat="44.57902609259625" lon="10.98085097983153"><ele>47.0</ele><time>2026-04-19T17:16:30.001Z</time></trkpt><trkpt lat="44.579120174146894" lon="10.980493936700514"><ele>47.0</ele><time>2026-04-19T17:16:31.001Z</time></trkpt><trkpt lat="44.5792156240741" lon="10.980138105211472"><ele>47.0</ele><time>2026-04-19T17:16:32.001Z</time></trkpt><trkpt lat="44.57931082368387" lon="10.97978138768601"><ele>47.0</ele><time>2026-04-19T17:16:33.001Z</time></trkpt><trkpt lat="44.57940563145809" lon="10.979424346059783"><ele>47.0</ele><time>2026-04-19T17:16:34.001Z</time></trkpt><trkpt lat="44.57950061854553" lon="10.979067226852212"><ele>47.0</ele><time>2026-04-19T17:16:35.001Z</time></trkpt><trkpt lat="44.57959596517834" lon="10.978710231848266"><ele>47.0</ele><time>2026-04-19T17:16:36.001Z</time></trkpt><trkpt lat="44.579690162343475" lon="10.978352403672508"><ele>47.0</ele><time>2026-04-19T17:16:37.001Z</time></trkpt><trkpt lat="44.579783671340635" lon="10.977995393458222"><ele>47.0</ele><time>2026-04-19T17:16:38.001Z</time></trkpt><trkpt lat="44.57987759976774" lon="10.977641599957407"><ele>46.5</ele><time>2026-04-19T17:16:39.001Z</time></trkpt><trkpt lat="44.57997409179211" lon="10.977289156355136"><ele>46.0</ele><time>2026-04-19T17:16:40.001Z</time></trkpt><trkpt lat="44.580068164694964" lon="10.976933255684488"><ele>46.0</ele><time>2026-04-19T17:16:41.001Z</time></trkpt><trkpt lat="44.58016221439364" lon="10.976575548423527"><ele>46.0</ele><time>2026-04-19T17:16:42.001Z</time></trkpt><trkpt lat="44.58025609312153" lon="10.97622040249797"><ele>46.0</ele><time>2026-04-19T17:16:43.001Z</time></trkpt><trkpt lat="44.58034906686018" lon="10.975863586083873"><ele>46.0</ele><time>2026-04-19T17:16:44.001Z</time></trkpt><trkpt lat="44.58044336336928" lon="10.975508237821074"><ele>46.0</ele><time>2026-04-19T17:16:45.001Z</time></trkpt><trkpt lat="44.580537994444875" lon="10.975153565178516"><ele>46.0</ele><time>2026-04-19T17:16:46.001Z</time></trkpt><trkpt lat="44.580633289838964" lon="10.974798490050448"><ele>46.0</ele><time>2026-04-19T17:16:47.001Z</time></trkpt><trkpt lat="44.580729373108916" lon="10.97444335417197"><ele>46.0</ele><time>2026-04-19T17:16:48.001Z</time></trkpt><trkpt lat="44.58082757246434" lon="10.974089940017295"><ele>47.5</ele><time>2026-04-19T17:16:49.001Z</time></trkpt><trkpt lat="44.58092699210853" lon="10.973735328012838"><ele>49.0</ele><time>2026-04-19T17:16:50Z</time></trkpt><trkpt lat="44.58103106934069" lon="10.973383130148967"><ele>48.0</ele><time>2026-04-19T17:16:51Z</time></trkpt><trkpt lat="44.58113829197928" lon="10.973032022699316"><ele>47.0</ele><time>2026-04-19T17:16:52Z</time></trkpt><trkpt lat="44.58124800952461" lon="10.972683974659214"><ele>46.5</ele><time>2026-04-19T17:16:53Z</time></trkpt><trkpt lat="44.58136162784124" lon="10.972337955041175"><ele>46.0</ele><time>2026-04-19T17:16:54Z</time></trkpt><trkpt lat="44.581478575305276" lon="10.971992771493449"><ele>47.0</ele><time>2026-04-19T17:16:55Z</time></trkpt><trkpt lat="44.58159943462282" lon="10.971651068982393"><ele>48.0</ele><time>2026-04-19T17:16:56Z</time></trkpt><trkpt lat="44.58172192154507" lon="10.971310987805417"><ele>48.0</ele><time>2026-04-19T17:16:57Z</time></trkpt><trkpt lat="44.581845698785365" lon="10.970971144175069"><ele>48.0</ele><time>2026-04-19T17:16:58Z</time></trkpt><trkpt lat="44.58197043352682" lon="10.97063274071718"><ele>48.5</ele><time>2026-04-19T17:16:59Z</time></trkpt><trkpt lat="44.58209864516243" lon="10.970296391270713"><ele>49.0</ele><time>2026-04-19T17:17:00Z</time></trkpt><trkpt lat="44.58222979158647" lon="10.969961995061052"><ele>49.0</ele><time>2026-04-19T17:17:01Z</time></trkpt><trkpt lat="44.58236506903313" lon="10.969629021801444"><ele>49.0</ele><time>2026-04-19T17:17:02Z</time></trkpt><trkpt lat="44.58250315088232" lon="10.969299631786722"><ele>48.0</ele><time>2026-04-19T17:17:03Z</time></trkpt><trkpt lat="44.58264380641956" lon="10.968972689049338"><ele>47.0</ele><time>2026-04-19T17:17:04Z</time></trkpt><trkpt lat="44.582786092018644" lon="10.96864608919924"><ele>45.5</ele><time>2026-04-19T17:17:05Z</time></trkpt><trkpt lat="44.582929388926885" lon="10.96832068308265"><ele>44.0</ele><time>2026-04-19T17:17:06Z</time></trkpt><trkpt lat="44.58307348036249" lon="10.967996224778739"><ele>44.0</ele><time>2026-04-19T17:17:07Z</time></trkpt><trkpt lat="44.58321679746697" lon="10.967670909340955"><ele>44.0</ele><time>2026-04-19T17:17:08Z</time></trkpt><trkpt lat="44.58335725525758" lon="10.96734505159329"><ele>43.5</ele><time>2026-04-19T17:17:09Z</time></trkpt><trkpt lat="44.583496684041314" lon="10.967017903869381"><ele>43.0</ele><time>2026-04-19T17:17:10Z</time></trkpt><trkpt lat="44.58363646609834" lon="10.966690897104483"><ele>43.5</ele><time>2026-04-19T17:17:11Z</time></trkpt><trkpt lat="44.58377650764082" lon="10.96636409370132"><ele>44.0</ele><time>2026-04-19T17:17:12Z</time></trkpt><trkpt lat="44.58391542227276" lon="10.966037125663984"><ele>43.5</ele><time>2026-04-19T17:17:13Z</time></trkpt><trkpt lat="44.58405476229722" lon="10.965709901138435"><ele>43.0</ele><time>2026-04-19T17:17:14Z</time></trkpt><trkpt lat="44.584195406781596" lon="10.96538662182827"><ele>43.0</ele><time>2026-04-19T17:17:15Z</time></trkpt><trkpt lat="44.58433469250897" lon="10.965061892809027"><ele>43.0</ele><time>2026-04-19T17:17:16Z</time></trkpt><trkpt lat="44.58447393798955" lon="10.964737318281248"><ele>43.0</ele><time>2026-04-19T17:17:17Z</time></trkpt><trkpt lat="44.58461328398085" lon="10.964411882007798"><ele>43.0</ele><time>2026-04-19T17:17:18Z</time></trkpt><trkpt lat="44.58475329531853" lon="10.964086513769969"><ele>43.0</ele><time>2026-04-19T17:17:19Z</time></trkpt><trkpt lat="44.58489261948778" lon="10.963759936593151"><ele>43.0</ele><time>2026-04-19T17:17:20Z</time></trkpt><trkpt lat="44.585032699495954" lon="10.963433942857408"><ele>43.0</ele><time>2026-04-19T17:17:21Z</time></trkpt><trkpt lat="44.58517247957741" lon="10.963107899648657"><ele>43.0</ele><time>2026-04-19T17:17:22Z</time></trkpt><trkpt lat="44.585311922262974" lon="10.962780962304342"><ele>44.5</ele><time>2026-04-19T17:17:23Z</time></trkpt><trkpt lat="44.58545078485159" lon="10.962454182217314"><ele>46.0</ele><time>2026-04-19T17:17:24Z</time></trkpt><trkpt lat="44.58558973024809" lon="10.962127394921156"><ele>46.0</ele><time>2026-04-19T17:17:25.001Z</time></trkpt><trkpt lat="44.585729529829" lon="10.961801542661728"><ele>46.0</ele><time>2026-04-19T17:17:26.001Z</time></trkpt><trkpt lat="44.585869319442914" lon="10.961475650161159"><ele>46.5</ele><time>2026-04-19T17:17:27.001Z</time></trkpt><trkpt lat="44.586008900702026" lon="10.961148451699065"><ele>47.0</ele><time>2026-04-19T17:17:28.001Z</time></trkpt><trkpt lat="44.58614928797261" lon="10.960822302907424"><ele>46.0</ele><time>2026-04-19T17:17:29.001Z</time></trkpt><trkpt lat="44.58628900559302" lon="10.960493926750745"><ele>45.0</ele><time>2026-04-19T17:17:30.001Z</time></trkpt><trkpt lat="44.58642990264425" lon="10.960166790649163"><ele>45.0</ele><time>2026-04-19T17:17:31.001Z</time></trkpt><trkpt lat="44.58656970664343" lon="10.959839699510997"><ele>45.0</ele><time>2026-04-19T17:17:32.001Z</time></trkpt><trkpt lat="44.586709368960264" lon="10.9595122828639"><ele>44.0</ele><time>2026-04-19T17:17:33.001Z</time></trkpt><trkpt lat="44.58684969330355" lon="10.959186097424267"><ele>43.0</ele><time>2026-04-19T17:17:34.001Z</time></trkpt><trkpt lat="44.58698967589831" lon="10.958859882394394"><ele>42.5</ele><time>2026-04-19T17:17:35.001Z</time></trkpt><trkpt lat="44.58712914618349" lon="10.958533207760093"><ele>42.0</ele><time>2026-04-19T17:17:36.001Z</time></trkpt><trkpt lat="44.58726879626354" lon="10.958206310663726"><ele>42.0</ele><time>2026-04-19T17:17:37.001Z</time></trkpt><trkpt lat="44.587408711668296" lon="10.957879766189611"><ele>42.0</ele><time>2026-04-19T17:17:38.001Z</time></trkpt><trkpt lat="44.587548981847554" lon="10.957553864984634"><ele>42.5</ele><time>2026-04-19T17:17:39.001Z</time></trkpt><trkpt lat="44.587689390162595" lon="10.957228143976376"><ele>43.0</ele><time>2026-04-19T17:17:40.001Z</time></trkpt><trkpt lat="44.5878299487644" lon="10.956903205663039"><ele>43.5</ele><time>2026-04-19T17:17:41.001Z</time></trkpt><trkpt lat="44.58797006533758" lon="10.95657820090776"><ele>44.0</ele><time>2026-04-19T17:17:42.001Z</time></trkpt><trkpt lat="44.588110837159455" lon="10.956252360622829"><ele>44.0</ele><time>2026-04-19T17:17:43.001Z</time></trkpt><trkpt lat="44.588250863255396" lon="10.955926344896834"><ele>44.0</ele><time>2026-04-19T17:17:44.001Z</time></trkpt><trkpt lat="44.588389621794164" lon="10.955599866142752"><ele>44.5</ele><time>2026-04-19T17:17:45.001Z</time></trkpt><trkpt lat="44.5885296624635" lon="10.955273865532735"><ele>45.0</ele><time>2026-04-19T17:17:46.001Z</time></trkpt><trkpt lat="44.58866971726165" lon="10.954947458308702"><ele>45.0</ele><time>2026-04-19T17:17:47.001Z</time></trkpt><trkpt lat="44.58881005358666" lon="10.95462107549331"><ele>45.0</ele><time>2026-04-19T17:17:48.001Z</time></trkpt><trkpt lat="44.58894947047607" lon="10.954294884187373"><ele>44.5</ele><time>2026-04-19T17:17:49.001Z</time></trkpt><trkpt lat="44.58908835470494" lon="10.95396813190771"><ele>44.0</ele><time>2026-04-19T17:17:50.001Z</time></trkpt><trkpt lat="44.58922841809019" lon="10.95364185732731"><ele>44.0</ele><time>2026-04-19T17:17:51.001Z</time></trkpt><trkpt lat="44.58936796673201" lon="10.953316060258652"><ele>44.0</ele><time>2026-04-19T17:17:52.001Z</time></trkpt><trkpt lat="44.589507839729514" lon="10.952989665239965"><ele>43.5</ele><time>2026-04-19T17:17:53.001Z</time></trkpt><trkpt lat="44.58964877004333" lon="10.95266374451023"><ele>43.0</ele><time>2026-04-19T17:17:54.001Z</time></trkpt><trkpt lat="44.589787889191165" lon="10.952336347672537"><ele>43.0</ele><time>2026-04-19T17:17:55.001Z</time></trkpt><trkpt lat="44.58992755060392" lon="10.952009599801947"><ele>43.0</ele><time>2026-04-19T17:17:56.001Z</time></trkpt><trkpt lat="44.59006725646388" lon="10.95168246204023"><ele>42.0</ele><time>2026-04-19T17:17:57.001Z</time></trkpt><trkpt lat="44.5902044148276" lon="10.951353706280292"><ele>41.0</ele><time>2026-04-19T17:17:58.001Z</time></trkpt><trkpt lat="44.59034156496797" lon="10.951024911308778"><ele>42.5</ele><time>2026-04-19T17:17:59.001Z</time></trkpt><trkpt lat="44.59047907792636" lon="10.950698596492192"><ele>44.0</ele><time>2026-04-19T17:18:00.001Z</time></trkpt><trkpt lat="44.59061693083402" lon="10.950370839934225"><ele>44.0</ele><time>2026-04-19T17:18:01.001Z</time></trkpt><trkpt lat="44.59075701320626" lon="10.950044322258242"><ele>44.0</ele><time>2026-04-19T17:18:02.001Z</time></trkpt><trkpt lat="44.59089826032745" lon="10.949717867696082"><ele>44.0</ele><time>2026-04-19T17:18:03.001Z</time></trkpt><trkpt lat="44.59103928270305" lon="10.949391898614534"><ele>44.0</ele><time>2026-04-19T17:18:04.001Z</time></trkpt><trkpt lat="44.59118142507016" lon="10.949067593729017"><ele>44.0</ele><time>2026-04-19T17:18:05.001Z</time></trkpt><trkpt lat="44.59132029197019" lon="10.948742149305643"><ele>44.0</ele><time>2026-04-19T17:18:06.001Z</time></trkpt><trkpt lat="44.591460460400484" lon="10.9484164003083"><ele>43.5</ele><time>2026-04-19T17:18:07.001Z</time></trkpt><trkpt lat="44.59160041560843" lon="10.948090718375322"><ele>43.0</ele><time>2026-04-19T17:18:08.001Z</time></trkpt><trkpt lat="44.59174031417231" lon="10.947763469368242"><ele>43.0</ele><time>2026-04-19T17:18:09.001Z</time></trkpt><trkpt lat="44.59187984083032" lon="10.947435658021037"><ele>43.0</ele><time>2026-04-19T17:18:10.001Z</time></trkpt><trkpt lat="44.59201922381451" lon="10.947108565332536"><ele>43.0</ele><time>2026-04-19T17:18:11.001Z</time></trkpt><trkpt lat="44.59215819048481" lon="10.946781603854737"><ele>43.0</ele><time>2026-04-19T17:18:12.001Z</time></trkpt><trkpt lat="44.59229675910014" lon="10.946453579664567"><ele>43.0</ele><time>2026-04-19T17:18:13.001Z</time></trkpt><trkpt lat="44.59243535737069" lon="10.946127130977253"><ele>43.0</ele><time>2026-04-19T17:18:14.001Z</time></trkpt><trkpt lat="44.59257496008382" lon="10.945799290164803"><ele>43.5</ele><time>2026-04-19T17:18:15.001Z</time></trkpt><trkpt lat="44.59271569360283" lon="10.945471671135492"><ele>44.0</ele><time>2026-04-19T17:18:16.001Z</time></trkpt><trkpt lat="44.592856793249695" lon="10.945145858948825"><ele>42.5</ele><time>2026-04-19T17:18:17.001Z</time></trkpt><trkpt lat="44.592998526546026" lon="10.944820321526343"><ele>41.0</ele><time>2026-04-19T17:18:18.001Z</time></trkpt><trkpt lat="44.593141058724825" lon="10.944495625625258"><ele>41.0</ele><time>2026-04-19T17:18:19.001Z</time></trkpt><trkpt lat="44.59328090478669" lon="10.944169727402155"><ele>41.0</ele><time>2026-04-19T17:18:20.001Z</time></trkpt><trkpt lat="44.593420087658174" lon="10.943842229788599"><ele>41.0</ele><time>2026-04-19T17:18:21.001Z</time></trkpt><trkpt lat="44.593558634829556" lon="10.943515016747625"><ele>41.0</ele><time>2026-04-19T17:18:22.001Z</time></trkpt><trkpt lat="44.59369702146405" lon="10.943186650509631"><ele>41.5</ele><time>2026-04-19T17:18:23.001Z</time></trkpt><trkpt lat="44.59383482131963" lon="10.942859012829114"><ele>42.0</ele><time>2026-04-19T17:18:24.001Z</time></trkpt><trkpt lat="44.59397425262897" lon="10.942531847924474"><ele>42.0</ele><time>2026-04-19T17:18:25.001Z</time></trkpt><trkpt lat="44.59411297145655" lon="10.942204537436707"><ele>42.0</ele><time>2026-04-19T17:18:26.001Z</time></trkpt><trkpt lat="44.594252570853904" lon="10.941877836120524"><ele>42.0</ele><time>2026-04-19T17:18:27.001Z</time></trkpt><trkpt lat="44.594392148146895" lon="10.9415521780662"><ele>42.0</ele><time>2026-04-19T17:18:28.001Z</time></trkpt><trkpt lat="44.594530824916276" lon="10.941225257258523"><ele>41.5</ele><time>2026-04-19T17:18:29.001Z</time></trkpt><trkpt lat="44.59467114064373" lon="10.940898500577037"><ele>41.0</ele><time>2026-04-19T17:18:30.001Z</time></trkpt><trkpt lat="44.59481007222133" lon="10.940571113818624"><ele>40.5</ele><time>2026-04-19T17:18:31.001Z</time></trkpt><trkpt lat="44.594950693616646" lon="10.940245408266748"><ele>40.0</ele><time>2026-04-19T17:18:32.001Z</time></trkpt><trkpt lat="44.595090196331704" lon="10.939918712807048"><ele>40.0</ele><time>2026-04-19T17:18:33.001Z</time></trkpt><trkpt lat="44.595228698624304" lon="10.939590881158377"><ele>40.0</ele><time>2026-04-19T17:18:34.001Z</time></trkpt><trkpt lat="44.595368364078105" lon="10.939264294431016"><ele>40.0</ele><time>2026-04-19T17:18:35.001Z</time></trkpt><trkpt lat="44.595507456092065" lon="10.938938095114136"><ele>40.0</ele><time>2026-04-19T17:18:36.001Z</time></trkpt><trkpt lat="44.595646758157784" lon="10.938611906613096"><ele>41.0</ele><time>2026-04-19T17:18:37.001Z</time></trkpt><trkpt lat="44.595786682589946" lon="10.93828557185921"><ele>42.0</ele><time>2026-04-19T17:18:38.001Z</time></trkpt><trkpt lat="44.59592658819567" lon="10.937958997552258"><ele>42.0</ele><time>2026-04-19T17:18:39.001Z</time></trkpt><trkpt lat="44.596066199118816" lon="10.937632121533925"><ele>42.0</ele><time>2026-04-19T17:18:40.001Z</time></trkpt><trkpt lat="44.59620598835402" lon="10.937305920944972"><ele>42.5</ele><time>2026-04-19T17:18:41.001Z</time></trkpt><trkpt lat="44.59634390431423" lon="10.936983972847814"><ele>43.0</ele><time>2026-04-19T17:18:42.001Z</time></trkpt><trkpt lat="44.59648053505331" lon="10.936666691960088"><ele>43.0</ele><time>2026-04-19T17:18:43.001Z</time></trkpt><trkpt lat="44.5966142355914" lon="10.936349430123206"><ele>43.0</ele><time>2026-04-19T17:18:44.001Z</time></trkpt><trkpt lat="44.59675057215101" lon="10.936034174196744"><ele>43.0</ele><time>2026-04-19T17:18:45.001Z</time></trkpt><trkpt lat="44.59688599782529" lon="10.935716496747624"><ele>43.0</ele><time>2026-04-19T17:18:46.001Z</time></trkpt><trkpt lat="44.59702094630495" lon="10.935403199118939"><ele>43.0</ele><time>2026-04-19T17:18:47.001Z</time></trkpt><trkpt lat="44.59715369709595" lon="10.935094732503012"><ele>43.0</ele><time>2026-04-19T17:18:48.001Z</time></trkpt><trkpt lat="44.59728652317899" lon="10.934788056228303"><ele>43.0</ele><time>2026-04-19T17:18:49.001Z</time></trkpt><trkpt lat="44.59741659069067" lon="10.934478112511206"><ele>43.0</ele><time>2026-04-19T17:18:50.001Z</time></trkpt><trkpt lat="44.597548911324544" lon="10.934167214745408"><ele>43.0</ele><time>2026-04-19T17:18:51.001Z</time></trkpt><trkpt lat="44.59767842332603" lon="10.933852008043504"><ele>43.0</ele><time>2026-04-19T17:18:52.001Z</time></trkpt><trkpt lat="44.59780466705471" lon="10.933534536558144"><ele>42.5</ele><time>2026-04-19T17:18:53.001Z</time></trkpt><trkpt lat="44.59793349045752" lon="10.933217298425147"><ele>42.0</ele><time>2026-04-19T17:18:54.001Z</time></trkpt><trkpt lat="44.59806310292734" lon="10.932899048093741"><ele>42.0</ele><time>2026-04-19T17:18:55.001Z</time></trkpt><trkpt lat="44.59819647692964" lon="10.932577901519226"><ele>42.0</ele><time>2026-04-19T17:18:56.001Z</time></trkpt><trkpt lat="44.59833238050514" lon="10.93225334907248"><ele>41.0</ele><time>2026-04-19T17:18:57.001Z</time></trkpt><trkpt lat="44.59847125143937" lon="10.93192842573704"><ele>40.0</ele><time>2026-04-19T17:18:58.001Z</time></trkpt><trkpt lat="44.59860910405079" lon="10.931602370304892"><ele>40.5</ele><time>2026-04-19T17:18:59.001Z</time></trkpt><trkpt lat="44.59874641936338" lon="10.931278542300115"><ele>41.0</ele><time>2026-04-19T17:19:00.001Z</time></trkpt><trkpt lat="44.59888267993298" lon="10.93095586692042"><ele>42.0</ele><time>2026-04-19T17:19:01.001Z</time></trkpt><trkpt lat="44.59902033196973" lon="10.930634835853072"><ele>43.0</ele><time>2026-04-19T17:19:02.001Z</time></trkpt><trkpt lat="44.599158951330345" lon="10.930310992740958"><ele>43.5</ele><time>2026-04-19T17:19:03.001Z</time></trkpt><trkpt lat="44.59930000672748" lon="10.929983451496932"><ele>44.0</ele><time>2026-04-19T17:19:04.001Z</time></trkpt><trkpt lat="44.59944066643823" lon="10.929654638676444"><ele>43.5</ele><time>2026-04-19T17:19:05.001Z</time></trkpt><trkpt lat="44.59957964448778" lon="10.92932514401405"><ele>43.0</ele><time>2026-04-19T17:19:06.001Z</time></trkpt><trkpt lat="44.599716205871125" lon="10.928995737560264"><ele>42.5</ele><time>2026-04-19T17:19:07.001Z</time></trkpt><trkpt lat="44.599849702648285" lon="10.928668778708372"><ele>42.0</ele><time>2026-04-19T17:19:08.001Z</time></trkpt><trkpt lat="44.59998802902688" lon="10.928340524745702"><ele>41.0</ele><time>2026-04-19T17:19:09.001Z</time></trkpt><trkpt lat="44.60012593991314" lon="10.928011186116919"><ele>40.0</ele><time>2026-04-19T17:19:10.001Z</time></trkpt><trkpt lat="44.60026397767581" lon="10.927683163796836"><ele>40.5</ele><time>2026-04-19T17:19:11.001Z</time></trkpt><trkpt lat="44.60040351066664" lon="10.92735700580834"><ele>41.0</ele><time>2026-04-19T17:19:12.001Z</time></trkpt><trkpt lat="44.60054214480264" lon="10.927029998092525"><ele>41.0</ele><time>2026-04-19T17:19:13.001Z</time></trkpt><trkpt lat="44.60068040173627" lon="10.926702569234697"><ele>41.0</ele><time>2026-04-19T17:19:14.001Z</time></trkpt><trkpt lat="44.600820472978256" lon="10.926375668583072"><ele>41.0</ele><time>2026-04-19T17:19:15.001Z</time></trkpt><trkpt lat="44.600958304451424" lon="10.926048426484659"><ele>41.0</ele><time>2026-04-19T17:19:16.001Z</time></trkpt><trkpt lat="44.60109595322964" lon="10.925720631137903"><ele>42.0</ele><time>2026-04-19T17:19:17.001Z</time></trkpt><trkpt lat="44.6012326852238" lon="10.925391541614044"><ele>43.0</ele><time>2026-04-19T17:19:18.001Z</time></trkpt><trkpt lat="44.60137159005255" lon="10.925063918729627"><ele>42.0</ele><time>2026-04-19T17:19:19.001Z</time></trkpt><trkpt lat="44.60150991108736" lon="10.924735620935694"><ele>41.0</ele><time>2026-04-19T17:19:20.001Z</time></trkpt><trkpt lat="44.601647051786045" lon="10.924407569615552"><ele>40.0</ele><time>2026-04-19T17:19:21.001Z</time></trkpt><trkpt lat="44.60178699248654" lon="10.924080735340974"><ele>39.0</ele><time>2026-04-19T17:19:22.001Z</time></trkpt><trkpt lat="44.60192719509256" lon="10.923753997428566"><ele>39.5</ele><time>2026-04-19T17:19:23.001Z</time></trkpt><trkpt lat="44.6020664567035" lon="10.923427184334852"><ele>40.0</ele><time>2026-04-19T17:19:24.001Z</time></trkpt><trkpt lat="44.60220530548409" lon="10.923100621184338"><ele>40.0</ele><time>2026-04-19T17:19:25.001Z</time></trkpt><trkpt lat="44.60234609678643" lon="10.922774971361422"><ele>40.0</ele><time>2026-04-19T17:19:26.001Z</time></trkpt><trkpt lat="44.602484871726126" lon="10.92244856676201"><ele>40.0</ele><time>2026-04-19T17:19:27.001Z</time></trkpt><trkpt lat="44.60262580426655" lon="10.922123407069872"><ele>40.0</ele><time>2026-04-19T17:19:28.001Z</time></trkpt><trkpt lat="44.60276654947816" lon="10.921797990916202"><ele>40.5</ele><time>2026-04-19T17:19:29.001Z</time></trkpt><trkpt lat="44.60290602611409" lon="10.921471980122123"><ele>41.0</ele><time>2026-04-19T17:19:30.001Z</time></trkpt><trkpt lat="44.6030472379352" lon="10.92114772475256"><ele>41.5</ele><time>2026-04-19T17:19:31.001Z</time></trkpt><trkpt lat="44.60318725843765" lon="10.92082186903235"><ele>42.0</ele><time>2026-04-19T17:19:32.001Z</time></trkpt><trkpt lat="44.6033289078982" lon="10.920496781883655"><ele>42.0</ele><time>2026-04-19T17:19:33.001Z</time></trkpt><trkpt lat="44.60346857170509" lon="10.920171425921819"><ele>42.0</ele><time>2026-04-19T17:19:34.001Z</time></trkpt><trkpt lat="44.60360998814484" lon="10.91984619083766"><ele>41.5</ele><time>2026-04-19T17:19:35.001Z</time></trkpt><trkpt lat="44.603751684841406" lon="10.919522373797006"><ele>41.0</ele><time>2026-04-19T17:19:36.001Z</time></trkpt><trkpt lat="44.60389381789932" lon="10.91919812227063"><ele>41.0</ele><time>2026-04-19T17:19:37.001Z</time></trkpt><trkpt lat="44.60403610163038" lon="10.918874807799956"><ele>41.0</ele><time>2026-04-19T17:19:38.001Z</time></trkpt><trkpt lat="44.604175837942506" lon="10.918549748187512"><ele>41.0</ele><time>2026-04-19T17:19:39.001Z</time></trkpt><trkpt lat="44.604317840095426" lon="10.918223233654043"><ele>41.0</ele><time>2026-04-19T17:19:40.001Z</time></trkpt><trkpt lat="44.60446007671774" lon="10.917892857388765"><ele>39.5</ele><time>2026-04-19T17:19:41.001Z</time></trkpt><trkpt lat="44.60460288491076" lon="10.917561776280788"><ele>38.0</ele><time>2026-04-19T17:19:42.001Z</time></trkpt><trkpt lat="44.60474501315744" lon="10.91722984553938"><ele>38.0</ele><time>2026-04-19T17:19:43.001Z</time></trkpt><trkpt lat="44.60488656848444" lon="10.916898512350508"><ele>38.0</ele><time>2026-04-19T17:19:44.001Z</time></trkpt><trkpt lat="44.605027803900796" lon="10.916568279502652"><ele>39.0</ele><time>2026-04-19T17:19:45.001Z</time></trkpt><trkpt lat="44.60516962566373" lon="10.91623674024717"><ele>40.0</ele><time>2026-04-19T17:19:46.001Z</time></trkpt><trkpt lat="44.60531337269527" lon="10.91590151970805"><ele>41.5</ele><time>2026-04-19T17:19:47.001Z</time></trkpt><trkpt lat="44.605458211362134" lon="10.915563566039628"><ele>43.0</ele><time>2026-04-19T17:19:48.001Z</time></trkpt><trkpt lat="44.60560504420399" lon="10.915223438564032"><ele>41.5</ele><time>2026-04-19T17:19:49.001Z</time></trkpt><trkpt lat="44.605749960851774" lon="10.914884881342493"><ele>40.0</ele><time>2026-04-19T17:19:50.001Z</time></trkpt><trkpt lat="44.605894105804275" lon="10.914546719596622"><ele>40.5</ele><time>2026-04-19T17:19:51.001Z</time></trkpt><trkpt lat="44.606036277602314" lon="10.914208698812576"><ele>41.0</ele><time>2026-04-19T17:19:52.001Z</time></trkpt><trkpt lat="44.60618005402434" lon="10.913872335029017"><ele>41.0</ele><time>2026-04-19T17:19:53.001Z</time></trkpt><trkpt lat="44.60632451354655" lon="10.913536581468104"><ele>41.0</ele><time>2026-04-19T17:19:54.001Z</time></trkpt><trkpt lat="44.6064683837058" lon="10.913200963819579"><ele>40.5</ele><time>2026-04-19T17:19:55.001Z</time></trkpt><trkpt lat="44.60661060122569" lon="10.91286425649169"><ele>40.0</ele><time>2026-04-19T17:19:56.001Z</time></trkpt><trkpt lat="44.60675231290881" lon="10.912527980167326"><ele>40.0</ele><time>2026-04-19T17:19:57.001Z</time></trkpt><trkpt lat="44.606895140541205" lon="10.912189182405129"><ele>40.0</ele><time>2026-04-19T17:19:58.001Z</time></trkpt><trkpt lat="44.607039953490535" lon="10.911846726290712"><ele>39.5</ele><time>2026-04-19T17:19:59.001Z</time></trkpt><trkpt lat="44.60718927642707" lon="10.911499370778266"><ele>39.0</ele><time>2026-04-19T17:20:00.001Z</time></trkpt><trkpt lat="44.60733975816123" lon="10.911151590429352"><ele>39.5</ele><time>2026-04-19T17:20:01.001Z</time></trkpt><trkpt lat="44.60748845789253" lon="10.910802395446682"><ele>40.0</ele><time>2026-04-19T17:20:02.001Z</time></trkpt><trkpt lat="44.60763755347694" lon="10.91045467980822"><ele>40.0</ele><time>2026-04-19T17:20:03.001Z</time></trkpt><trkpt lat="44.60778452890579" lon="10.910107730202965"><ele>40.0</ele><time>2026-04-19T17:20:04.001Z</time></trkpt><trkpt lat="44.6079352552077" lon="10.909763734963196"><ele>40.0</ele><time>2026-04-19T17:20:05.001Z</time></trkpt><trkpt lat="44.608083123401784" lon="10.90941861884523"><ele>40.0</ele><time>2026-04-19T17:20:06.001Z</time></trkpt><trkpt lat="44.60823100443415" lon="10.909074171260656"><ele>40.0</ele><time>2026-04-19T17:20:07.001Z</time></trkpt><trkpt lat="44.60838135797159" lon="10.908730810052061"><ele>40.0</ele><time>2026-04-19T17:20:08.001Z</time></trkpt><trkpt lat="44.60853332589968" lon="10.908388003313268"><ele>40.5</ele><time>2026-04-19T17:20:09.001Z</time></trkpt><trkpt lat="44.60868676234657" lon="10.908046178822211"><ele>41.0</ele><time>2026-04-19T17:20:10.001Z</time></trkpt><trkpt lat="44.608839221212875" lon="10.907704379202869"><ele>41.0</ele><time>2026-04-19T17:20:11.001Z</time></trkpt><trkpt lat="44.608990976494816" lon="10.907361763518784"><ele>41.0</ele><time>2026-04-19T17:20:12.001Z</time></trkpt><trkpt lat="44.60914138301923" lon="10.907017819600227"><ele>40.0</ele><time>2026-04-19T17:20:13.001Z</time></trkpt><trkpt lat="44.60929117938204" lon="10.906672871513416"><ele>39.0</ele><time>2026-04-19T17:20:14.001Z</time></trkpt><trkpt lat="44.60943913317804" lon="10.906327870216911"><ele>39.0</ele><time>2026-04-19T17:20:15.001Z</time></trkpt><trkpt lat="44.609585528596675" lon="10.905982467377797"><ele>39.0</ele><time>2026-04-19T17:20:16.001Z</time></trkpt><trkpt lat="44.60973344960564" lon="10.9056375365526"><ele>40.0</ele><time>2026-04-19T17:20:17.001Z</time></trkpt><trkpt lat="44.609880595922974" lon="10.905291832876037"><ele>41.0</ele><time>2026-04-19T17:20:18.001Z</time></trkpt><trkpt lat="44.61002968264895" lon="10.904946770277201"><ele>41.0</ele><time>2026-04-19T17:20:19.001Z</time></trkpt><trkpt lat="44.61017653548499" lon="10.904599908769425"><ele>41.0</ele><time>2026-04-19T17:20:20.001Z</time></trkpt><trkpt lat="44.61032331684642" lon="10.904253543798118"><ele>41.0</ele><time>2026-04-19T17:20:21.001Z</time></trkpt><trkpt lat="44.61047107396758" lon="10.90390668921583"><ele>41.0</ele><time>2026-04-19T17:20:22.001Z</time></trkpt><trkpt lat="44.610617976537604" lon="10.903559697438181"><ele>41.5</ele><time>2026-04-19T17:20:23.001Z</time></trkpt><trkpt lat="44.61076716075708" lon="10.903213789946415"><ele>42.0</ele><time>2026-04-19T17:20:24.001Z</time></trkpt><trkpt lat="44.61091419084348" lon="10.902866772054793"><ele>41.5</ele><time>2026-04-19T17:20:25.001Z</time></trkpt><trkpt lat="44.61106186479399" lon="10.902520860880795"><ele>41.0</ele><time>2026-04-19T17:20:26.001Z</time></trkpt><trkpt lat="44.61120953190634" lon="10.902175215095497"><ele>40.5</ele><time>2026-04-19T17:20:27.001Z</time></trkpt><trkpt lat="44.61135592294199" lon="10.901828480854018"><ele>40.0</ele><time>2026-04-19T17:20:28.001Z</time></trkpt><trkpt lat="44.61150222199862" lon="10.901481330454281"><ele>41.5</ele><time>2026-04-19T17:20:29.001Z</time></trkpt><trkpt lat="44.61164890841145" lon="10.901133959629226"><ele>43.0</ele><time>2026-04-19T17:20:30.001Z</time></trkpt><trkpt lat="44.611794876346806" lon="10.900786438236528"><ele>43.0</ele><time>2026-04-19T17:20:31.001Z</time></trkpt><trkpt lat="44.61193903994347" lon="10.900437414143386"><ele>43.0</ele><time>2026-04-19T17:20:32.001Z</time></trkpt><trkpt lat="44.61208525288693" lon="10.900089259606466"><ele>43.0</ele><time>2026-04-19T17:20:33.001Z</time></trkpt><trkpt lat="44.612228770024764" lon="10.899738083562701"><ele>43.0</ele><time>2026-04-19T17:20:34.001Z</time></trkpt><trkpt lat="44.612370369748966" lon="10.899387740806878"><ele>43.5</ele><time>2026-04-19T17:20:35.001Z</time></trkpt><trkpt lat="44.612514422104496" lon="10.899038711614253"><ele>44.0</ele><time>2026-04-19T17:20:36.001Z</time></trkpt><trkpt lat="44.612659502997715" lon="10.898691271478388"><ele>44.0</ele><time>2026-04-19T17:20:37.001Z</time></trkpt><trkpt lat="44.612802317931376" lon="10.898341754900096"><ele>44.0</ele><time>2026-04-19T17:20:38.001Z</time></trkpt><trkpt lat="44.61294819834095" lon="10.897994450990511"><ele>44.0</ele><time>2026-04-19T17:20:39.001Z</time></trkpt><trkpt lat="44.61309221255456" lon="10.897646205828606"><ele>44.0</ele><time>2026-04-19T17:20:40.001Z</time></trkpt><trkpt lat="44.61323817422114" lon="10.897298993150304"><ele>44.0</ele><time>2026-04-19T17:20:41.001Z</time></trkpt><trkpt lat="44.6133827226527" lon="10.89695178086082"><ele>44.0</ele><time>2026-04-19T17:20:42.001Z</time></trkpt><trkpt lat="44.61352818474847" lon="10.896606771261004"><ele>44.5</ele><time>2026-04-19T17:20:43.001Z</time></trkpt><trkpt lat="44.613675671071775" lon="10.89626229607651"><ele>45.0</ele><time>2026-04-19T17:20:44.001Z</time></trkpt><trkpt lat="44.61382221544268" lon="10.895918065818096"><ele>44.0</ele><time>2026-04-19T17:20:45.001Z</time></trkpt><trkpt lat="44.61396917372749" lon="10.895573364173217"><ele>43.0</ele><time>2026-04-19T17:20:46.001Z</time></trkpt><trkpt lat="44.614116532010954" lon="10.895228249499231"><ele>43.5</ele><time>2026-04-19T17:20:47.001Z</time></trkpt><trkpt lat="44.61426266266115" lon="10.894881767525776"><ele>44.0</ele><time>2026-04-19T17:20:48.001Z</time></trkpt><trkpt lat="44.61441108231326" lon="10.894536830602107"><ele>44.5</ele><time>2026-04-19T17:20:49.001Z</time></trkpt><trkpt lat="44.614556931578846" lon="10.894191008685933"><ele>45.0</ele><time>2026-04-19T17:20:50.001Z</time></trkpt><trkpt lat="44.61470350475951" lon="10.893844357847705"><ele>45.0</ele><time>2026-04-19T17:20:51.001Z</time></trkpt><trkpt lat="44.61484964789835" lon="10.893496319813254"><ele>45.0</ele><time>2026-04-19T17:20:52.001Z</time></trkpt><trkpt lat="44.61499618434579" lon="10.893147985680063"><ele>45.0</ele><time>2026-04-19T17:20:53.001Z</time></trkpt><trkpt lat="44.615141640752945" lon="10.892798076113086"><ele>45.0</ele><time>2026-04-19T17:20:54.001Z</time></trkpt><trkpt lat="44.615288189858916" lon="10.892448764880836"><ele>45.0</ele><time>2026-04-19T17:20:55.001Z</time></trkpt><trkpt lat="44.61543455297988" lon="10.892099745637065"><ele>45.0</ele><time>2026-04-19T17:20:56.001Z</time></trkpt><trkpt lat="44.61558271801761" lon="10.891753478198199"><ele>45.5</ele><time>2026-04-19T17:20:57.001Z</time></trkpt><trkpt lat="44.615729380502295" lon="10.891405215017045"><ele>46.0</ele><time>2026-04-19T17:20:58.001Z</time></trkpt><trkpt lat="44.61587517689752" lon="10.891058216294372"><ele>46.5</ele><time>2026-04-19T17:20:59.001Z</time></trkpt><trkpt lat="44.61602150161916" lon="10.890711454812697"><ele>47.0</ele><time>2026-04-19T17:21:00.001Z</time></trkpt><trkpt lat="44.61617038340538" lon="10.890365620784687"><ele>45.5</ele><time>2026-04-19T17:21:01.001Z</time></trkpt><trkpt lat="44.61632058700392" lon="10.890022123300605"><ele>44.0</ele><time>2026-04-19T17:21:02.001Z</time></trkpt><trkpt lat="44.616467949363454" lon="10.889675457299752"><ele>44.0</ele><time>2026-04-19T17:21:03.001Z</time></trkpt><trkpt lat="44.61661650739904" lon="10.889329930315506"><ele>44.0</ele><time>2026-04-19T17:21:04.001Z</time></trkpt><trkpt lat="44.616767112506615" lon="10.888987219717079"><ele>44.5</ele><time>2026-04-19T17:21:05.001Z</time></trkpt><trkpt lat="44.61691843338903" lon="10.888645369411838"><ele>45.0</ele><time>2026-04-19T17:21:06.001Z</time></trkpt><trkpt lat="44.6170759356454" lon="10.888307240785835"><ele>45.0</ele><time>2026-04-19T17:21:07.001Z</time></trkpt><trkpt lat="44.61724369993743" lon="10.887977704350172"><ele>45.0</ele><time>2026-04-19T17:21:08.001Z</time></trkpt><trkpt lat="44.617425100571126" lon="10.887663565888"><ele>45.0</ele><time>2026-04-19T17:21:09.001Z</time></trkpt><trkpt lat="44.617610516982246" lon="10.887355030795836"><ele>45.0</ele><time>2026-04-19T17:21:10.001Z</time></trkpt><trkpt lat="44.61780007934266" lon="10.887051495645483"><ele>45.5</ele><time>2026-04-19T17:21:11.001Z</time></trkpt><trkpt lat="44.617992089497406" lon="10.886752212974017"><ele>46.0</ele><time>2026-04-19T17:21:12.001Z</time></trkpt><trkpt lat="44.61818677173519" lon="10.88645683552173"><ele>46.0</ele><time>2026-04-19T17:21:13.001Z</time></trkpt><trkpt lat="44.618385798069376" lon="10.886164992843634"><ele>46.0</ele><time>2026-04-19T17:21:14.001Z</time></trkpt><trkpt lat="44.61858968921233" lon="10.885878280199996"><ele>45.0</ele><time>2026-04-19T17:21:15.001Z</time></trkpt><trkpt lat="44.618800980983586" lon="10.885602149009799"><ele>44.0</ele><time>2026-04-19T17:21:16.001Z</time></trkpt><trkpt lat="44.6190169273417" lon="10.88533512128048"><ele>44.5</ele><time>2026-04-19T17:21:17.001Z</time></trkpt><trkpt lat="44.619236251466596" lon="10.885073036493909"><ele>45.0</ele><time>2026-04-19T17:21:18.001Z</time></trkpt><trkpt lat="44.61946092145441" lon="10.88481876138991"><ele>43.5</ele><time>2026-04-19T17:21:19.001Z</time></trkpt><trkpt lat="44.61968889887266" lon="10.884569586685242"><ele>42.0</ele><time>2026-04-19T17:21:20.001Z</time></trkpt><trkpt lat="44.61991964980595" lon="10.88432752812744"><ele>42.5</ele><time>2026-04-19T17:21:21.001Z</time></trkpt><trkpt lat="44.62015451993243" lon="10.884093566495448"><ele>43.0</ele><time>2026-04-19T17:21:22.001Z</time></trkpt><trkpt lat="44.62039422904071" lon="10.883869339480798"><ele>43.5</ele><time>2026-04-19T17:21:23.001Z</time></trkpt><trkpt lat="44.62063739167787" lon="10.88365447997905"><ele>44.0</ele><time>2026-04-19T17:21:24.001Z</time></trkpt><trkpt lat="44.62088346456784" lon="10.883449145812172"><ele>45.0</ele><time>2026-04-19T17:21:25.001Z</time></trkpt><trkpt lat="44.621133117990304" lon="10.88325263152917"><ele>46.0</ele><time>2026-04-19T17:21:26.001Z</time></trkpt><trkpt lat="44.621387022607806" lon="10.883063009755775"><ele>46.0</ele><time>2026-04-19T17:21:27.001Z</time></trkpt><trkpt lat="44.62164660461692" lon="10.88288209647059"><ele>46.0</ele><time>2026-04-19T17:21:28.001Z</time></trkpt><trkpt lat="44.62190629214808" lon="10.882712371302507"><ele>45.5</ele><time>2026-04-19T17:21:29.001Z</time></trkpt><trkpt lat="44.622169784273346" lon="10.882550066158906"><ele>45.0</ele><time>2026-04-19T17:21:30.001Z</time></trkpt><trkpt lat="44.62243395606579" lon="10.882389099877873"><ele>45.0</ele><time>2026-04-19T17:21:31.001Z</time></trkpt><trkpt lat="44.622698758804695" lon="10.882228929067061"><ele>45.0</ele><time>2026-04-19T17:21:32.001Z</time></trkpt><trkpt lat="44.62296353948108" lon="10.882069714300382"><ele>44.0</ele><time>2026-04-19T17:21:33.001Z</time></trkpt><trkpt lat="44.623228141300885" lon="10.881909379847453"><ele>43.0</ele><time>2026-04-19T17:21:34.001Z</time></trkpt><trkpt lat="44.62349248052432" lon="10.881749987812903"><ele>43.0</ele><time>2026-04-19T17:21:35.001Z</time></trkpt><trkpt lat="44.62375637338117" lon="10.88158953610792"><ele>43.0</ele><time>2026-04-19T17:21:36.001Z</time></trkpt><trkpt lat="44.62402085005803" lon="10.881428971893422"><ele>43.0</ele><time>2026-04-19T17:21:37.001Z</time></trkpt><trkpt lat="44.624285277349095" lon="10.881267773564279"><ele>43.0</ele><time>2026-04-19T17:21:38.001Z</time></trkpt><trkpt lat="44.62454937945768" lon="10.881106593226345"><ele>43.0</ele><time>2026-04-19T17:21:39.001Z</time></trkpt><trkpt lat="44.62481374154308" lon="10.880945720193692"><ele>43.0</ele><time>2026-04-19T17:21:40.001Z</time></trkpt><trkpt lat="44.6250772357968" lon="10.88078489073636"><ele>43.5</ele><time>2026-04-19T17:21:41.001Z</time></trkpt><trkpt lat="44.625341042978704" lon="10.880622953950787"><ele>44.0</ele><time>2026-04-19T17:21:42.001Z</time></trkpt><trkpt lat="44.625604333985684" lon="10.88046074126653"><ele>44.0</ele><time>2026-04-19T17:21:43.001Z</time></trkpt><trkpt lat="44.62586733444007" lon="10.880298532172029"><ele>44.0</ele><time>2026-04-19T17:21:44.001Z</time></trkpt><trkpt lat="44.62613045224421" lon="10.880136969072526"><ele>43.5</ele><time>2026-04-19T17:21:45.001Z</time></trkpt><trkpt lat="44.62639383444424" lon="10.879976131842215"><ele>43.0</ele><time>2026-04-19T17:21:46.001Z</time></trkpt><trkpt lat="44.62665747792254" lon="10.87981453125994"><ele>43.0</ele><time>2026-04-19T17:21:47.001Z</time></trkpt><trkpt lat="44.626921341199804" lon="10.879651590239463"><ele>43.0</ele><time>2026-04-19T17:21:48.001Z</time></trkpt><trkpt lat="44.62718622088776" lon="10.879490835368975"><ele>43.0</ele><time>2026-04-19T17:21:49.001Z</time></trkpt><trkpt lat="44.62745092906182" lon="10.879331322361962"><ele>43.0</ele><time>2026-04-19T17:21:50.001Z</time></trkpt><trkpt lat="44.627716395334645" lon="10.879175372199986"><ele>44.0</ele><time>2026-04-19T17:21:51.001Z</time></trkpt><trkpt lat="44.62798232653135" lon="10.879019728082465"><ele>45.0</ele><time>2026-04-19T17:21:52.001Z</time></trkpt><trkpt lat="44.62824770777201" lon="10.878864667665876"><ele>45.0</ele><time>2026-04-19T17:21:53.001Z</time></trkpt><trkpt lat="44.62851426819835" lon="10.878711570639302"><ele>45.0</ele><time>2026-04-19T17:21:54.001Z</time></trkpt><trkpt lat="44.628780768189905" lon="10.87855787058715"><ele>46.0</ele><time>2026-04-19T17:21:55.001Z</time></trkpt><trkpt lat="44.629048476145705" lon="10.878404012380525"><ele>47.0</ele><time>2026-04-19T17:21:56.001Z</time></trkpt><trkpt lat="44.629312520338864" lon="10.878245932889154"><ele>43.5</ele><time>2026-04-19T17:21:57.001Z</time></trkpt><trkpt lat="44.629576559630934" lon="10.87808494039172"><ele>40.0</ele><time>2026-04-19T17:21:58.001Z</time></trkpt><trkpt lat="44.62983994662523" lon="10.87792168157503"><ele>40.0</ele><time>2026-04-19T17:21:59.001Z</time></trkpt><trkpt lat="44.63010418782371" lon="10.877761308076755"><ele>40.0</ele><time>2026-04-19T17:22:00.001Z</time></trkpt><trkpt lat="44.630367816872244" lon="10.877600080076"><ele>40.0</ele><time>2026-04-19T17:22:01.001Z</time></trkpt><trkpt lat="44.63063199249483" lon="10.877439683786074"><ele>40.0</ele><time>2026-04-19T17:22:02.001Z</time></trkpt><trkpt lat="44.63089605935512" lon="10.877278557202002"><ele>40.5</ele><time>2026-04-19T17:22:03.001Z</time></trkpt><trkpt lat="44.6311594057515" lon="10.877117293464654"><ele>41.0</ele><time>2026-04-19T17:22:04.001Z</time></trkpt><trkpt lat="44.63142260606534" lon="10.876955082543782"><ele>41.0</ele><time>2026-04-19T17:22:05.001Z</time></trkpt><trkpt lat="44.631686137717566" lon="10.876794611549611"><ele>41.0</ele><time>2026-04-19T17:22:06.001Z</time></trkpt><trkpt lat="44.631950502584516" lon="10.876634972229077"><ele>41.5</ele><time>2026-04-19T17:22:07.001Z</time></trkpt><trkpt lat="44.63221504592404" lon="10.87647513947602"><ele>42.0</ele><time>2026-04-19T17:22:08.001Z</time></trkpt><trkpt lat="44.63247857702201" lon="10.876313803337784"><ele>42.0</ele><time>2026-04-19T17:22:09.001Z</time></trkpt><trkpt lat="44.63274266971427" lon="10.876153275033"><ele>42.0</ele><time>2026-04-19T17:22:10.001Z</time></trkpt><trkpt lat="44.63300632870146" lon="10.87599263880131"><ele>41.0</ele><time>2026-04-19T17:22:11.001Z</time></trkpt><trkpt lat="44.63326936120933" lon="10.875830791307996"><ele>40.0</ele><time>2026-04-19T17:22:12.001Z</time></trkpt><trkpt lat="44.633532400207066" lon="10.875668411870361"><ele>40.0</ele><time>2026-04-19T17:22:13.001Z</time></trkpt><trkpt lat="44.63379625492895" lon="10.875505700298488"><ele>40.0</ele><time>2026-04-19T17:22:14.001Z</time></trkpt><trkpt lat="44.6340599109522" lon="10.875344927639555"><ele>40.0</ele><time>2026-04-19T17:22:15.001Z</time></trkpt><trkpt lat="44.63432327477233" lon="10.875183054246746"><ele>40.0</ele><time>2026-04-19T17:22:16.001Z</time></trkpt><trkpt lat="44.634587377767375" lon="10.875020541502941"><ele>41.0</ele><time>2026-04-19T17:22:17.001Z</time></trkpt><trkpt lat="44.63485058416938" lon="10.874858563525914"><ele>42.0</ele><time>2026-04-19T17:22:18.001Z</time></trkpt><trkpt lat="44.635114149451944" lon="10.874696671822626"><ele>43.0</ele><time>2026-04-19T17:22:19.001Z</time></trkpt><trkpt lat="44.63537669374641" lon="10.874534776937411"><ele>44.0</ele><time>2026-04-19T17:22:20.001Z</time></trkpt><trkpt lat="44.635640354729645" lon="10.874373271736092"><ele>43.0</ele><time>2026-04-19T17:22:21.001Z</time></trkpt><trkpt lat="44.63590337296327" lon="10.87421063554085"><ele>42.0</ele><time>2026-04-19T17:22:22.001Z</time></trkpt><trkpt lat="44.636167548384485" lon="10.874049741035295"><ele>41.5</ele><time>2026-04-19T17:22:23.001Z</time></trkpt><trkpt lat="44.63643238351748" lon="10.873888418029953"><ele>41.0</ele><time>2026-04-19T17:22:24.001Z</time></trkpt><trkpt lat="44.63669557059803" lon="10.873727672402344"><ele>41.0</ele><time>2026-04-19T17:22:25.001Z</time></trkpt><trkpt lat="44.63695827103149" lon="10.873569337431839"><ele>41.0</ele><time>2026-04-19T17:22:26.001Z</time></trkpt><trkpt lat="44.63722371713506" lon="10.87340684239765"><ele>41.0</ele><time>2026-04-19T17:22:27.001Z</time></trkpt><trkpt lat="44.63748753078751" lon="10.87324386938407"><ele>41.0</ele><time>2026-04-19T17:22:28.001Z</time></trkpt><trkpt lat="44.63775093992737" lon="10.873081048239584"><ele>41.5</ele><time>2026-04-19T17:22:29.001Z</time></trkpt><trkpt lat="44.638013648370354" lon="10.872916305795805"><ele>42.0</ele><time>2026-04-19T17:22:30.001Z</time></trkpt><trkpt lat="44.638276144398134" lon="10.872752039381462"><ele>41.0</ele><time>2026-04-19T17:22:31.001Z</time></trkpt><trkpt lat="44.638539318656555" lon="10.872588285175338"><ele>40.0</ele><time>2026-04-19T17:22:32.001Z</time></trkpt><trkpt lat="44.63880216892785" lon="10.872423510678631"><ele>39.5</ele><time>2026-04-19T17:22:33.001Z</time></trkpt><trkpt lat="44.639063059632434" lon="10.872253497029062"><ele>39.0</ele><time>2026-04-19T17:22:34.001Z</time></trkpt><trkpt lat="44.63932434249595" lon="10.872085392331208"><ele>39.5</ele><time>2026-04-19T17:22:35.001Z</time></trkpt><trkpt lat="44.6395826953069" lon="10.87191909663458"><ele>40.0</ele><time>2026-04-19T17:22:36.001Z</time></trkpt><trkpt lat="44.639836769924536" lon="10.871761721283212"><ele>40.5</ele><time>2026-04-19T17:22:37.001Z</time></trkpt><trkpt lat="44.640085363878285" lon="10.871609111020787"><ele>41.0</ele><time>2026-04-19T17:22:38.001Z</time></trkpt><trkpt lat="44.64032873371003" lon="10.871458763355601"><ele>41.0</ele><time>2026-04-19T17:22:39.001Z</time></trkpt><trkpt lat="44.64056668556283" lon="10.871312241469699"><ele>41.0</ele><time>2026-04-19T17:22:40.001Z</time></trkpt><trkpt lat="44.64080077564057" lon="10.871168272382073"><ele>41.0</ele><time>2026-04-19T17:22:41.001Z</time></trkpt><trkpt lat="44.6410350043523" lon="10.871024967509955"><ele>41.0</ele><time>2026-04-19T17:22:42.001Z</time></trkpt><trkpt lat="44.641272435468025" lon="10.87087988748787"><ele>40.0</ele><time>2026-04-19T17:22:43.001Z</time></trkpt><trkpt lat="44.641515445232976" lon="10.870733095778778"><ele>39.0</ele><time>2026-04-19T17:22:44.001Z</time></trkpt><trkpt lat="44.64176248138824" lon="10.87058276018051"><ele>39.5</ele><time>2026-04-19T17:22:45.001Z</time></trkpt><trkpt lat="44.64201261470009" lon="10.870429840420547"><ele>40.0</ele><time>2026-04-19T17:22:46.001Z</time></trkpt><trkpt lat="44.642255675717664" lon="10.87027975645311"><ele>40.0</ele><time>2026-04-19T17:22:47.001Z</time></trkpt><trkpt lat="44.6424931624194" lon="10.870132987395966"><ele>40.0</ele><time>2026-04-19T17:22:48.001Z</time></trkpt><trkpt lat="44.64272524062967" lon="10.869989622161112"><ele>39.0</ele><time>2026-04-19T17:22:49.001Z</time></trkpt><trkpt lat="44.64295231490429" lon="10.869849559569094"><ele>38.0</ele><time>2026-04-19T17:22:50.001Z</time></trkpt><trkpt lat="44.64317525172713" lon="10.869711783052997"><ele>38.0</ele><time>2026-04-19T17:22:51.001Z</time></trkpt><trkpt lat="44.64339476208196" lon="10.869576929030936"><ele>38.0</ele><time>2026-04-19T17:22:52.001Z</time></trkpt><trkpt lat="44.64361658523751" lon="10.869442077195197"><ele>38.0</ele><time>2026-04-19T17:22:53.001Z</time></trkpt><trkpt lat="44.643842109302135" lon="10.869303037254307"><ele>38.0</ele><time>2026-04-19T17:22:54.001Z</time></trkpt><trkpt lat="44.644071652926876" lon="10.869161421783938"><ele>38.5</ele><time>2026-04-19T17:22:55.001Z</time></trkpt><trkpt lat="44.644306369505" lon="10.86901789201773"><ele>39.0</ele><time>2026-04-19T17:22:56.001Z</time></trkpt><trkpt lat="44.64454508934877" lon="10.868871009897374"><ele>39.0</ele><time>2026-04-19T17:22:57.001Z</time></trkpt><trkpt lat="44.644784622622545" lon="10.868722083207249"><ele>39.0</ele><time>2026-04-19T17:22:58.001Z</time></trkpt><trkpt lat="44.645018984527674" lon="10.868577589320736"><ele>40.0</ele><time>2026-04-19T17:22:59.001Z</time></trkpt><trkpt lat="44.64525429088372" lon="10.868433429490349"><ele>41.0</ele><time>2026-04-19T17:23:00.001Z</time></trkpt><trkpt lat="44.64549345335439" lon="10.868288167438491"><ele>42.5</ele><time>2026-04-19T17:23:01.001Z</time></trkpt><trkpt lat="44.64573497009748" lon="10.868140985228852"><ele>44.0</ele><time>2026-04-19T17:23:02.001Z</time></trkpt><trkpt lat="44.64597969656301" lon="10.86799358241723"><ele>43.0</ele><time>2026-04-19T17:23:03.001Z</time></trkpt><trkpt lat="44.646225366920966" lon="10.867846693272538"><ele>42.0</ele><time>2026-04-19T17:23:04.001Z</time></trkpt><trkpt lat="44.64647379424236" lon="10.867699409934549"><ele>42.0</ele><time>2026-04-19T17:23:05.001Z</time></trkpt><trkpt lat="44.646723828468396" lon="10.867551784701734"><ele>42.0</ele><time>2026-04-19T17:23:06.001Z</time></trkpt><trkpt lat="44.646974436251064" lon="10.867401672559998"><ele>40.5</ele><time>2026-04-19T17:23:07.001Z</time></trkpt><trkpt lat="44.64722366382399" lon="10.867251520042371"><ele>39.0</ele><time>2026-04-19T17:23:08.001Z</time></trkpt><trkpt lat="44.647472349983246" lon="10.867101124865519"><ele>39.0</ele><time>2026-04-19T17:23:09.001Z</time></trkpt><trkpt lat="44.647719674569956" lon="10.86695090459315"><ele>39.0</ele><time>2026-04-19T17:23:10.001Z</time></trkpt><trkpt lat="44.64796580009249" lon="10.86680324108242"><ele>39.5</ele><time>2026-04-19T17:23:11.001Z</time></trkpt><trkpt lat="44.64821137224098" lon="10.866659976407918"><ele>40.0</ele><time>2026-04-19T17:23:12.001Z</time></trkpt><trkpt lat="44.64845712274827" lon="10.866517167715728"><ele>41.0</ele><time>2026-04-19T17:23:13.001Z</time></trkpt><trkpt lat="44.64870366097709" lon="10.86637043437812"><ele>42.0</ele><time>2026-04-19T17:23:14.001Z</time></trkpt><trkpt lat="44.64895490930205" lon="10.866220398215033"><ele>42.0</ele><time>2026-04-19T17:23:15.001Z</time></trkpt><trkpt lat="44.64921200935449" lon="10.86606517505629"><ele>42.0</ele><time>2026-04-19T17:23:16.001Z</time></trkpt><trkpt lat="44.649474242700904" lon="10.865906202523805"><ele>40.5</ele><time>2026-04-19T17:23:17.001Z</time></trkpt><trkpt lat="44.64974201563034" lon="10.865741725921335"><ele>39.0</ele><time>2026-04-19T17:23:18.001Z</time></trkpt><trkpt lat="44.650014452542926" lon="10.865574646546568"><ele>39.0</ele><time>2026-04-19T17:23:19.001Z</time></trkpt><trkpt lat="44.65029148549319" lon="10.865403506615603"><ele>39.0</ele><time>2026-04-19T17:23:20.001Z</time></trkpt><trkpt lat="44.65057237905365" lon="10.865223104937995"><ele>36.5</ele><time>2026-04-19T17:23:21.001Z</time></trkpt><trkpt lat="44.650856321990595" lon="10.865035677651946"><ele>34.0</ele><time>2026-04-19T17:23:22.001Z</time></trkpt><trkpt lat="44.65114219401521" lon="10.864850179264847"><ele>34.0</ele><time>2026-04-19T17:23:23.001Z</time></trkpt><trkpt lat="44.65142882760336" lon="10.864668583992815"><ele>34.0</ele><time>2026-04-19T17:23:24.001Z</time></trkpt><trkpt lat="44.65171478359886" lon="10.864491388773123"><ele>35.0</ele><time>2026-04-19T17:23:25.001Z</time></trkpt><trkpt lat="44.65199752396164" lon="10.864316506557122"><ele>36.0</ele><time>2026-04-19T17:23:26.001Z</time></trkpt><trkpt lat="44.65227466161401" lon="10.864145198677674"><ele>36.0</ele><time>2026-04-19T17:23:27.001Z</time></trkpt><trkpt lat="44.65254793026531" lon="10.863977552814783"><ele>36.0</ele><time>2026-04-19T17:23:28.001Z</time></trkpt><trkpt lat="44.65281680329612" lon="10.863812958043477"><ele>37.5</ele><time>2026-04-19T17:23:29.001Z</time></trkpt><trkpt lat="44.65308192620471" lon="10.863650127288988"><ele>39.0</ele><time>2026-04-19T17:23:30.001Z</time></trkpt><trkpt lat="44.65334140111872" lon="10.863489144752675"><ele>39.5</ele><time>2026-04-19T17:23:31.001Z</time></trkpt><trkpt lat="44.653597588167194" lon="10.863332503119691"><ele>40.0</ele><time>2026-04-19T17:23:32.001Z</time></trkpt><trkpt lat="44.653849498726935" lon="10.863177756154823"><ele>40.0</ele><time>2026-04-19T17:23:33.001Z</time></trkpt><trkpt lat="44.65409702269371" lon="10.86302607501066"><ele>40.0</ele><time>2026-04-19T17:23:34.001Z</time></trkpt><trkpt lat="44.65434007032205" lon="10.862875395192397"><ele>40.0</ele><time>2026-04-19T17:23:35.001Z</time></trkpt><trkpt lat="44.65458078083036" lon="10.862727523470511"><ele>40.0</ele><time>2026-04-19T17:23:36.001Z</time></trkpt><trkpt lat="44.65482207331181" lon="10.862581633326563"><ele>40.0</ele><time>2026-04-19T17:23:37.001Z</time></trkpt><trkpt lat="44.65506297531407" lon="10.862432070730836"><ele>40.0</ele><time>2026-04-19T17:23:38.001Z</time></trkpt><trkpt lat="44.65530574375158" lon="10.862284748476652"><ele>40.0</ele><time>2026-04-19T17:23:39.001Z</time></trkpt><trkpt lat="44.6555492697473" lon="10.862135899388296"><ele>40.0</ele><time>2026-04-19T17:23:40.001Z</time></trkpt><trkpt lat="44.65579372979899" lon="10.861987340611106"><ele>40.0</ele><time>2026-04-19T17:23:41.001Z</time></trkpt><trkpt lat="44.65603824338066" lon="10.861837710460842"><ele>40.0</ele><time>2026-04-19T17:23:42.001Z</time></trkpt><trkpt lat="44.65628205180744" lon="10.86168628309582"><ele>39.5</ele><time>2026-04-19T17:23:43.001Z</time></trkpt><trkpt lat="44.656525534106535" lon="10.861536139051713"><ele>39.0</ele><time>2026-04-19T17:23:44.001Z</time></trkpt><trkpt lat="44.65676881472254" lon="10.861385244983863"><ele>38.5</ele><time>2026-04-19T17:23:45.001Z</time></trkpt><trkpt lat="44.657012178684184" lon="10.861236609270325"><ele>38.0</ele><time>2026-04-19T17:23:46.001Z</time></trkpt><trkpt lat="44.65725586093334" lon="10.861088868025327"><ele>38.5</ele><time>2026-04-19T17:23:47.001Z</time></trkpt><trkpt lat="44.65749896052004" lon="10.8609399110147"><ele>39.0</ele><time>2026-04-19T17:23:48.001Z</time></trkpt><trkpt lat="44.65774292260538" lon="10.860790546136965"><ele>38.5</ele><time>2026-04-19T17:23:49.001Z</time></trkpt><trkpt lat="44.657986985644406" lon="10.860641980031174"><ele>38.0</ele><time>2026-04-19T17:23:50.001Z</time></trkpt><trkpt lat="44.65822997119035" lon="10.860490925739006"><ele>38.0</ele><time>2026-04-19T17:23:51.001Z</time></trkpt><trkpt lat="44.65847102020678" lon="10.860335525630045"><ele>38.0</ele><time>2026-04-19T17:23:52.001Z</time></trkpt><trkpt lat="44.65871157237813" lon="10.860177392115363"><ele>38.0</ele><time>2026-04-19T17:23:53.001Z</time></trkpt><trkpt lat="44.658951247197514" lon="10.860018180094167"><ele>38.0</ele><time>2026-04-19T17:23:54.001Z</time></trkpt><trkpt lat="44.6591894329248" lon="10.859852497045248"><ele>38.0</ele><time>2026-04-19T17:23:55.001Z</time></trkpt><trkpt lat="44.65942589932426" lon="10.859679506363403"><ele>38.0</ele><time>2026-04-19T17:23:56.001Z</time></trkpt><trkpt lat="44.659659577911825" lon="10.859499495511292"><ele>37.5</ele><time>2026-04-19T17:23:57.001Z</time></trkpt><trkpt lat="44.659890341780326" lon="10.859313475496057"><ele>37.0</ele><time>2026-04-19T17:23:58.001Z</time></trkpt><trkpt lat="44.66011825731278" lon="10.859119521424628"><ele>38.5</ele><time>2026-04-19T17:23:59.001Z</time></trkpt><trkpt lat="44.66034232190603" lon="10.858919057150239"><ele>40.0</ele><time>2026-04-19T17:24:00.001Z</time></trkpt><trkpt lat="44.66056527602376" lon="10.858716686426941"><ele>40.0</ele><time>2026-04-19T17:24:01.001Z</time></trkpt><trkpt lat="44.66078563630239" lon="10.858507546798293"><ele>40.0</ele><time>2026-04-19T17:24:02.001Z</time></trkpt><trkpt lat="44.66100239586565" lon="10.85829173338521"><ele>41.0</ele><time>2026-04-19T17:24:03.001Z</time></trkpt><trkpt lat="44.66121613815864" lon="10.858069992380823"><ele>42.0</ele><time>2026-04-19T17:24:04.001Z</time></trkpt><trkpt lat="44.66142695819314" lon="10.857848361901498"><ele>42.0</ele><time>2026-04-19T17:24:05.001Z</time></trkpt><trkpt lat="44.66163083328332" lon="10.85762729352232"><ele>42.0</ele><time>2026-04-19T17:24:06.001Z</time></trkpt><trkpt lat="44.661826717005916" lon="10.857405320482247"><ele>42.0</ele><time>2026-04-19T17:24:07.001Z</time></trkpt><trkpt lat="44.66201478590594" lon="10.857183629513411"><ele>42.0</ele><time>2026-04-19T17:24:08.001Z</time></trkpt><trkpt lat="44.662197748871925" lon="10.856960275188825"><ele>41.5</ele><time>2026-04-19T17:24:09.001Z</time></trkpt><trkpt lat="44.6623756580016" lon="10.856732004270933"><ele>41.0</ele><time>2026-04-19T17:24:10.001Z</time></trkpt><trkpt lat="44.66254773801625" lon="10.85650712628604"><ele>41.0</ele><time>2026-04-19T17:24:11.001Z</time></trkpt><trkpt lat="44.66271471312156" lon="10.856286610802995"><ele>41.0</ele><time>2026-04-19T17:24:12.001Z</time></trkpt><trkpt lat="44.66287427330397" lon="10.856065283551677"><ele>41.33333333333333</ele><time>2026-04-19T17:24:13.001Z</time></trkpt><trkpt lat="44.66303156521649" lon="10.855845470536437"><ele>41.666666666666664</ele><time>2026-04-19T17:24:14.001Z</time></trkpt><trkpt lat="44.66318741640263" lon="10.855622835748411"><ele>42.0</ele><time>2026-04-19T17:24:15.001Z</time></trkpt><trkpt lat="44.66334286671342" lon="10.855389451861901"><ele>42.0</ele><time>2026-04-19T17:24:16.001Z</time></trkpt><trkpt lat="44.66349907756075" lon="10.855149385633725"><ele>42.0</ele><time>2026-04-19T17:24:17.001Z</time></trkpt><trkpt lat="44.663655748435225" lon="10.854899602870034"><ele>43.0</ele><time>2026-04-19T17:24:18.001Z</time></trkpt><trkpt lat="44.66380780510018" lon="10.854646213042223"><ele>44.0</ele><time>2026-04-19T17:24:19.001Z</time></trkpt><trkpt lat="44.663951107185326" lon="10.85439544489018"><ele>43.0</ele><time>2026-04-19T17:24:20.001Z</time></trkpt><trkpt lat="44.664089041866156" lon="10.854146808632933"><ele>42.0</ele><time>2026-04-19T17:24:21.001Z</time></trkpt><trkpt lat="44.6642202627413" lon="10.853898515294762"><ele>41.0</ele><time>2026-04-19T17:24:22.001Z</time></trkpt><trkpt lat="44.66434905571789" lon="10.853647986481258"><ele>40.0</ele><time>2026-04-19T17:24:23.001Z</time></trkpt><trkpt lat="44.66447458543636" lon="10.853394265697919"><ele>39.0</ele><time>2026-04-19T17:24:24.001Z</time></trkpt><trkpt lat="44.66459953852463" lon="10.85313857699961"><ele>38.0</ele><time>2026-04-19T17:24:25.001Z</time></trkpt><trkpt lat="44.66472141219622" lon="10.852879425444286"><ele>38.33333333333333</ele><time>2026-04-19T17:24:26.001Z</time></trkpt><trkpt lat="44.66484269024262" lon="10.852619327475606"><ele>38.666666666666664</ele><time>2026-04-19T17:24:27.001Z</time></trkpt><trkpt lat="44.664962196226725" lon="10.852356375939626"><ele>39.0</ele><time>2026-04-19T17:24:28.001Z</time></trkpt><trkpt lat="44.66507905584552" lon="10.852090242855672"><ele>39.0</ele><time>2026-04-19T17:24:29.001Z</time></trkpt><trkpt lat="44.66519245675827" lon="10.851821317252654"><ele>39.0</ele><time>2026-04-19T17:24:30.001Z</time></trkpt><trkpt lat="44.66530005172301" lon="10.851547934247115"><ele>39.0</ele><time>2026-04-19T17:24:31.001Z</time></trkpt><trkpt lat="44.66540195418379" lon="10.851272521304457"><ele>38.666666666666664</ele><time>2026-04-19T17:24:32.001Z</time></trkpt><trkpt lat="44.66550006236748" lon="10.850997799913754"><ele>38.33333333333333</ele><time>2026-04-19T17:24:33.001Z</time></trkpt><trkpt lat="44.66559605580499" lon="10.850723778602353"><ele>38.0</ele><time>2026-04-19T17:24:34.001Z</time></trkpt><trkpt lat="44.665690618941824" lon="10.850450126440512"><ele>38.0</ele><time>2026-04-19T17:24:35.001Z</time></trkpt><trkpt lat="44.66578553605975" lon="10.850176270226354"><ele>38.0</ele><time>2026-04-19T17:24:36.001Z</time></trkpt><trkpt lat="44.665879883194734" lon="10.8499008666476"><ele>38.0</ele><time>2026-04-19T17:24:37.001Z</time></trkpt><trkpt lat="44.66597734987088" lon="10.849627986305862"><ele>38.33333333333333</ele><time>2026-04-19T17:24:38.001Z</time></trkpt><trkpt lat="44.66607383539309" lon="10.849354074583621"><ele>38.666666666666664</ele><time>2026-04-19T17:24:39.001Z</time></trkpt><trkpt lat="44.666169612601706" lon="10.849082703013252"><ele>39.0</ele><time>2026-04-19T17:24:40.001Z</time></trkpt><trkpt lat="44.6662663110628" lon="10.84881389448959"><ele>39.0</ele><time>2026-04-19T17:24:41.001Z</time></trkpt><trkpt lat="44.666362745261324" lon="10.848547515905153"><ele>39.0</ele><time>2026-04-19T17:24:42.001Z</time></trkpt><trkpt lat="44.666460478014116" lon="10.848283150706878"><ele>39.0</ele><time>2026-04-19T17:24:43.001Z</time></trkpt><trkpt lat="44.66655893731879" lon="10.848018741405683"><ele>39.0</ele><time>2026-04-19T17:24:44.001Z</time></trkpt><trkpt lat="44.66665802993047" lon="10.84775457196137"><ele>39.0</ele><time>2026-04-19T17:24:45.001Z</time></trkpt><trkpt lat="44.666758705320795" lon="10.847491138640985"><ele>39.0</ele><time>2026-04-19T17:24:46.001Z</time></trkpt><trkpt lat="44.666859927278665" lon="10.847227134287985"><ele>39.0</ele><time>2026-04-19T17:24:47.001Z</time></trkpt><trkpt lat="44.666961330721314" lon="10.846963169043592"><ele>39.0</ele><time>2026-04-19T17:24:48.001Z</time></trkpt><trkpt lat="44.66706087213385" lon="10.846697239990451"><ele>39.0</ele><time>2026-04-19T17:24:49.001Z</time></trkpt><trkpt lat="44.66716335753331" lon="10.846432594425448"><ele>39.666666666666664</ele><time>2026-04-19T17:24:50.001Z</time></trkpt><trkpt lat="44.667271940955814" lon="10.846175256077387"><ele>40.33333333333333</ele><time>2026-04-19T17:24:51.001Z</time></trkpt><trkpt lat="44.66738960064493" lon="10.845933019751659"><ele>41.0</ele><time>2026-04-19T17:24:52.001Z</time></trkpt><trkpt lat="44.66751416092948" lon="10.84570580055235"><ele>41.0</ele><time>2026-04-19T17:24:53.001Z</time></trkpt><trkpt lat="44.66764632642873" lon="10.845493436585675"><ele>41.0</ele><time>2026-04-19T17:24:54.001Z</time></trkpt><trkpt lat="44.667784080089035" lon="10.845297290595234"><ele>41.0</ele><time>2026-04-19T17:24:55.001Z</time></trkpt><trkpt lat="44.667926657338214" lon="10.845115026361476"><ele>40.666666666666664</ele><time>2026-04-19T17:24:56.001Z</time></trkpt><trkpt lat="44.668072712860756" lon="10.844949783487486"><ele>40.333333333333336</ele><time>2026-04-19T17:24:57.001Z</time></trkpt><trkpt lat="44.668220141995974" lon="10.844805897861649"><ele>40.0</ele><time>2026-04-19T17:24:58.001Z</time></trkpt><trkpt lat="44.66836708984462" lon="10.844682560011423"><ele>40.0</ele><time>2026-04-19T17:24:59.001Z</time></trkpt><trkpt lat="44.66851089440231" lon="10.84458402643003"><ele>40.0</ele><time>2026-04-19T17:25:00.001Z</time></trkpt><trkpt lat="44.668657603331646" lon="10.844504326866462"><ele>40.0</ele><time>2026-04-19T17:25:01.001Z</time></trkpt><trkpt lat="44.668810304248495" lon="10.844442407393698"><ele>39.333333333333336</ele><time>2026-04-19T17:25:02.001Z</time></trkpt><trkpt lat="44.66896682709013" lon="10.844399471386653"><ele>38.666666666666664</ele><time>2026-04-19T17:25:03.001Z</time></trkpt><trkpt lat="44.66912651386313" lon="10.844375203207353"><ele>38.0</ele><time>2026-04-19T17:25:04.001Z</time></trkpt><trkpt lat="44.669284972630706" lon="10.84436373094163"><ele>38.0</ele><time>2026-04-19T17:25:05.001Z</time></trkpt><trkpt lat="44.66944355555123" lon="10.844361972187324"><ele>38.0</ele><time>2026-04-19T17:25:06.001Z</time></trkpt><trkpt lat="44.66959944326857" lon="10.844370944170185"><ele>38.0</ele><time>2026-04-19T17:25:07.001Z</time></trkpt><trkpt lat="44.66975272830077" lon="10.844391897765245"><ele>38.0</ele><time>2026-04-19T17:25:08.001Z</time></trkpt><trkpt lat="44.66990096179026" lon="10.844422215747242"><ele>38.0</ele><time>2026-04-19T17:25:09.001Z</time></trkpt><trkpt lat="44.67004495437935" lon="10.844461860498116"><ele>38.0</ele><time>2026-04-19T17:25:10.001Z</time></trkpt><trkpt lat="44.670184664446055" lon="10.844507714829202"><ele>38.0</ele><time>2026-04-19T17:25:11.001Z</time></trkpt><trkpt lat="44.67032664672495" lon="10.84455910518533"><ele>38.666666666666664</ele><time>2026-04-19T17:25:12.001Z</time></trkpt><trkpt lat="44.670469530706725" lon="10.844619498504496"><ele>39.333333333333336</ele><time>2026-04-19T17:25:13.001Z</time></trkpt><trkpt lat="44.670616466483935" lon="10.844687568976829"><ele>40.0</ele><time>2026-04-19T17:25:14.001Z</time></trkpt><trkpt lat="44.67076653861359" lon="10.844760459600618"><ele>40.0</ele><time>2026-04-19T17:25:15.001Z</time></trkpt><trkpt lat="44.670920981419265" lon="10.844833235644742"><ele>40.0</ele><time>2026-04-19T17:25:16.001Z</time></trkpt><trkpt lat="44.67107538259665" lon="10.84490648831161"><ele>40.0</ele><time>2026-04-19T17:25:17.001Z</time></trkpt><trkpt lat="44.671231346780836" lon="10.844978280976731"><ele>40.0</ele><time>2026-04-19T17:25:18.001Z</time></trkpt><trkpt lat="44.67139028940103" lon="10.845052549250047"><ele>40.0</ele><time>2026-04-19T17:25:19.001Z</time></trkpt><trkpt lat="44.671553434305125" lon="10.845127537389784"><ele>40.0</ele><time>2026-04-19T17:25:20.001Z</time></trkpt><trkpt lat="44.67172006548151" lon="10.845208077807474"><ele>40.0</ele><time>2026-04-19T17:25:21.001Z</time></trkpt><trkpt lat="44.671889915679486" lon="10.845297179486305"><ele>40.0</ele><time>2026-04-19T17:25:22.001Z</time></trkpt><trkpt lat="44.67206390808998" lon="10.845385485263936"><ele>40.0</ele><time>2026-04-19T17:25:23.001Z</time></trkpt><trkpt lat="44.672240113606506" lon="10.845474633479235"><ele>40.0</ele><time>2026-04-19T17:25:24.001Z</time></trkpt><trkpt lat="44.672418562106245" lon="10.84556525102676"><ele>40.0</ele><time>2026-04-19T17:25:25.001Z</time></trkpt><trkpt lat="44.67259970494829" lon="10.84565954227747"><ele>40.0</ele><time>2026-04-19T17:25:26.001Z</time></trkpt><trkpt lat="44.6727834333154" lon="10.845756719173641"><ele>40.0</ele><time>2026-04-19T17:25:27.001Z</time></trkpt><trkpt lat="44.67297035668813" lon="10.845853492425299"><ele>40.0</ele><time>2026-04-19T17:25:28.001Z</time></trkpt><trkpt lat="44.67316065025164" lon="10.845950197337112"><ele>40.0</ele><time>2026-04-19T17:25:29.001Z</time></trkpt><trkpt lat="44.67335576833706" lon="10.846048044304357"><ele>40.0</ele><time>2026-04-19T17:25:30.001Z</time></trkpt><trkpt lat="44.67355822863949" lon="10.84615029656362"><ele>40.0</ele><time>2026-04-19T17:25:31.001Z</time></trkpt><trkpt lat="44.67376841826751" lon="10.846255074315348"><ele>40.0</ele><time>2026-04-19T17:25:32.001Z</time></trkpt><trkpt lat="44.67398503063312" lon="10.846364855437937"><ele>40.0</ele><time>2026-04-19T17:25:33.001Z</time></trkpt><trkpt lat="44.67420890364703" lon="10.846479189733124"><ele>40.0</ele><time>2026-04-19T17:25:34.001Z</time></trkpt><trkpt lat="44.674439395302464" lon="10.8465971272563"><ele>39.5</ele><time>2026-04-19T17:25:35.001Z</time></trkpt><trkpt lat="44.67467574853544" lon="10.846720359794054"><ele>39.0</ele><time>2026-04-19T17:25:36.001Z</time></trkpt><trkpt lat="44.67491837016734" lon="10.846847074368243"><ele>39.0</ele><time>2026-04-19T17:25:37.001Z</time></trkpt><trkpt lat="44.67516596027702" lon="10.846976353550872"><ele>39.0</ele><time>2026-04-19T17:25:38.001Z</time></trkpt><trkpt lat="44.675419411054946" lon="10.847108874000597"><ele>39.5</ele><time>2026-04-19T17:25:39.001Z</time></trkpt><trkpt lat="44.67567901284036" lon="10.847240884474425"><ele>40.0</ele><time>2026-04-19T17:25:40.001Z</time></trkpt><trkpt lat="44.67594211316967" lon="10.847380517734205"><ele>39.5</ele><time>2026-04-19T17:25:41.001Z</time></trkpt><trkpt lat="44.67620622438679" lon="10.847521645982031"><ele>39.0</ele><time>2026-04-19T17:25:42.001Z</time></trkpt><trkpt lat="44.67647251917075" lon="10.847662568089874"><ele>39.0</ele><time>2026-04-19T17:25:43.001Z</time></trkpt><trkpt lat="44.67673753196691" lon="10.847796795688177"><ele>39.0</ele><time>2026-04-19T17:25:44.001Z</time></trkpt><trkpt lat="44.67700637269189" lon="10.847923940626279"><ele>38.5</ele><time>2026-04-19T17:25:45.001Z</time></trkpt><trkpt lat="44.677274827086144" lon="10.848046422384035"><ele>38.0</ele><time>2026-04-19T17:25:46.001Z</time></trkpt><trkpt lat="44.67754272126075" lon="10.848160225007543"><ele>38.0</ele><time>2026-04-19T17:25:47.001Z</time></trkpt><trkpt lat="44.677807347269194" lon="10.848268749611345"><ele>38.0</ele><time>2026-04-19T17:25:48.001Z</time></trkpt><trkpt lat="44.67806897005922" lon="10.848371797530781"><ele>39.0</ele><time>2026-04-19T17:25:49.001Z</time></trkpt><trkpt lat="44.6783283695495" lon="10.848472404271606"><ele>40.0</ele><time>2026-04-19T17:25:50.001Z</time></trkpt><trkpt lat="44.67858804841222" lon="10.848565954049423"><ele>40.0</ele><time>2026-04-19T17:25:51.001Z</time></trkpt><trkpt lat="44.67884546420451" lon="10.848657191636018"><ele>40.0</ele><time>2026-04-19T17:25:52.001Z</time></trkpt><trkpt lat="44.679101291081786" lon="10.848740443264525"><ele>40.0</ele><time>2026-04-19T17:25:53.001Z</time></trkpt><trkpt lat="44.67935569596764" lon="10.848819611963666"><ele>40.0</ele><time>2026-04-19T17:25:54.001Z</time></trkpt><trkpt lat="44.67960911681501" lon="10.848889808609304"><ele>38.0</ele><time>2026-04-19T17:25:55.001Z</time></trkpt><trkpt lat="44.67986128754583" lon="10.84894923925569"><ele>36.0</ele><time>2026-04-19T17:25:56.001Z</time></trkpt><trkpt lat="44.68011241694362" lon="10.849005164647643"><ele>36.5</ele><time>2026-04-19T17:25:57.001Z</time></trkpt><trkpt lat="44.68036544600989" lon="10.849056981715352"><ele>37.0</ele><time>2026-04-19T17:25:58.001Z</time></trkpt><trkpt lat="44.68061999914494" lon="10.849104508493756"><ele>37.0</ele><time>2026-04-19T17:25:59.001Z</time></trkpt><trkpt lat="44.680874498922655" lon="10.849152091618013"><ele>37.0</ele><time>2026-04-19T17:26:00.001Z</time></trkpt><trkpt lat="44.681130047533514" lon="10.84919910103659"><ele>37.0</ele><time>2026-04-19T17:26:01.001Z</time></trkpt><trkpt lat="44.68138516842301" lon="10.849245771612233"><ele>37.0</ele><time>2026-04-19T17:26:02.001Z</time></trkpt><trkpt lat="44.681640165533906" lon="10.849291045646396"><ele>37.5</ele><time>2026-04-19T17:26:03.001Z</time></trkpt><trkpt lat="44.681894407771146" lon="10.849338914084242"><ele>38.0</ele><time>2026-04-19T17:26:04.001Z</time></trkpt><trkpt lat="44.68214905405782" lon="10.849386070045684"><ele>38.0</ele><time>2026-04-19T17:26:05.001Z</time></trkpt><trkpt lat="44.68240461855574" lon="10.849434576398478"><ele>38.0</ele><time>2026-04-19T17:26:06.001Z</time></trkpt><trkpt lat="44.682659246683606" lon="10.849484313935776"><ele>38.5</ele><time>2026-04-19T17:26:07.001Z</time></trkpt><trkpt lat="44.682912281161116" lon="10.849531369948703"><ele>39.0</ele><time>2026-04-19T17:26:08.001Z</time></trkpt><trkpt lat="44.68316527856529" lon="10.849580378805145"><ele>39.0</ele><time>2026-04-19T17:26:09.001Z</time></trkpt><trkpt lat="44.68341904138829" lon="10.84962865958373"><ele>39.0</ele><time>2026-04-19T17:26:10.001Z</time></trkpt><trkpt lat="44.68367509968733" lon="10.849677258007919"><ele>39.0</ele><time>2026-04-19T17:26:11.001Z</time></trkpt><trkpt lat="44.68393159583641" lon="10.849722914954022"><ele>39.0</ele><time>2026-04-19T17:26:12.001Z</time></trkpt><trkpt lat="44.68419321522447" lon="10.849771136648114"><ele>39.5</ele><time>2026-04-19T17:26:13.001Z</time></trkpt><trkpt lat="44.68445124929305" lon="10.849819248515292"><ele>40.0</ele><time>2026-04-19T17:26:14.001Z</time></trkpt><trkpt lat="44.68471318239386" lon="10.849865368010304"><ele>40.0</ele><time>2026-04-19T17:26:15.001Z</time></trkpt><trkpt lat="44.68497620353164" lon="10.849909571316648"><ele>40.0</ele><time>2026-04-19T17:26:16.001Z</time></trkpt><trkpt lat="44.685240782244485" lon="10.849957089112666"><ele>39.5</ele><time>2026-04-19T17:26:17.001Z</time></trkpt><trkpt lat="44.68550714243493" lon="10.850005372913008"><ele>39.0</ele><time>2026-04-19T17:26:18.001Z</time></trkpt><trkpt lat="44.68577543129729" lon="10.850055602065847"><ele>39.0</ele><time>2026-04-19T17:26:19.001Z</time></trkpt><trkpt lat="44.686044326618884" lon="10.850105513519594"><ele>39.0</ele><time>2026-04-19T17:26:20.001Z</time></trkpt><trkpt lat="44.686313332273805" lon="10.850158194101072"><ele>37.5</ele><time>2026-04-19T17:26:21.001Z</time></trkpt><trkpt lat="44.686582339760804" lon="10.850210422242778"><ele>36.0</ele><time>2026-04-19T17:26:22.001Z</time></trkpt><trkpt lat="44.68685349148673" lon="10.85026227795892"><ele>37.5</ele><time>2026-04-19T17:26:23.001Z</time></trkpt><trkpt lat="44.68712350510893" lon="10.850312823879278"><ele>39.0</ele><time>2026-04-19T17:26:24.001Z</time></trkpt><trkpt lat="44.687395456556054" lon="10.85036467143446"><ele>39.0</ele><time>2026-04-19T17:26:25.001Z</time></trkpt><trkpt lat="44.68766843595732" lon="10.850419136912482"><ele>39.0</ele><time>2026-04-19T17:26:26.001Z</time></trkpt><trkpt lat="44.68794039841062" lon="10.850469484476257"><ele>38.5</ele><time>2026-04-19T17:26:27.001Z</time></trkpt><trkpt lat="44.688212992845216" lon="10.850522738014684"><ele>38.0</ele><time>2026-04-19T17:26:28.001Z</time></trkpt><trkpt lat="44.68848631111944" lon="10.850574944314165"><ele>38.0</ele><time>2026-04-19T17:26:29.001Z</time></trkpt><trkpt lat="44.688759870252014" lon="10.850624586038478"><ele>38.0</ele><time>2026-04-19T17:26:30.001Z</time></trkpt><trkpt lat="44.68903418367898" lon="10.850675311073434"><ele>38.0</ele><time>2026-04-19T17:26:31.001Z</time></trkpt><trkpt lat="44.68930839346563" lon="10.85072701555677"><ele>38.0</ele><time>2026-04-19T17:26:32.001Z</time></trkpt><trkpt lat="44.689582670099995" lon="10.850778686872017"><ele>38.0</ele><time>2026-04-19T17:26:33.001Z</time></trkpt><trkpt lat="44.68985580305228" lon="10.850826740220924"><ele>38.0</ele><time>2026-04-19T17:26:34.001Z</time></trkpt><trkpt lat="44.690127020041785" lon="10.850872399277879"><ele>38.5</ele><time>2026-04-19T17:26:35.001Z</time></trkpt><trkpt lat="44.69039751301476" lon="10.850914323248958"><ele>39.0</ele><time>2026-04-19T17:26:36.001Z</time></trkpt><trkpt lat="44.690667033093646" lon="10.850952307631433"><ele>39.0</ele><time>2026-04-19T17:26:37.001Z</time></trkpt><trkpt lat="44.69093745175764" lon="10.850977631343492"><ele>39.0</ele><time>2026-04-19T17:26:38.001Z</time></trkpt><trkpt lat="44.691204876714565" lon="10.851002126706762"><ele>38.5</ele><time>2026-04-19T17:26:39.001Z</time></trkpt><trkpt lat="44.69147216645424" lon="10.851022546356521"><ele>38.0</ele><time>2026-04-19T17:26:40.001Z</time></trkpt><trkpt lat="44.69174088116255" lon="10.851034803486215"><ele>37.5</ele><time>2026-04-19T17:26:41.001Z</time></trkpt><trkpt lat="44.69200993726491" lon="10.851044563321661"><ele>37.0</ele><time>2026-04-19T17:26:42.001Z</time></trkpt><trkpt lat="44.69227942222513" lon="10.85104559397866"><ele>37.0</ele><time>2026-04-19T17:26:43.001Z</time></trkpt><trkpt lat="44.69254957044656" lon="10.85104190469135"><ele>37.0</ele><time>2026-04-19T17:26:44.001Z</time></trkpt><trkpt lat="44.692819730731266" lon="10.851032736811554"><ele>37.0</ele><time>2026-04-19T17:26:45.001Z</time></trkpt><trkpt lat="44.69308937093187" lon="10.851017129651032"><ele>37.0</ele><time>2026-04-19T17:26:46.001Z</time></trkpt><trkpt lat="44.69335922618233" lon="10.850995211442852"><ele>37.0</ele><time>2026-04-19T17:26:47.001Z</time></trkpt><trkpt lat="44.69362881719318" lon="10.850967572213897"><ele>37.0</ele><time>2026-04-19T17:26:48.001Z</time></trkpt><trkpt lat="44.693899098500374" lon="10.850934234519626"><ele>37.0</ele><time>2026-04-19T17:26:49.001Z</time></trkpt><trkpt lat="44.6941688580699" lon="10.850895267458876"><ele>37.0</ele><time>2026-04-19T17:26:50.001Z</time></trkpt><trkpt lat="44.69443755022898" lon="10.85085454595804"><ele>37.5</ele><time>2026-04-19T17:26:51.001Z</time></trkpt><trkpt lat="44.694705407363294" lon="10.850807525108598"><ele>38.0</ele><time>2026-04-19T17:26:52.001Z</time></trkpt><trkpt lat="44.69497052160776" lon="10.850758513811488"><ele>38.0</ele><time>2026-04-19T17:26:53.001Z</time></trkpt><trkpt lat="44.695234205167424" lon="10.850701562904359"><ele>38.0</ele><time>2026-04-19T17:26:54.001Z</time></trkpt><trkpt lat="44.695497127706226" lon="10.850643267281137"><ele>37.5</ele><time>2026-04-19T17:26:55.001Z</time></trkpt><trkpt lat="44.69575841527417" lon="10.85057673985218"><ele>37.0</ele><time>2026-04-19T17:26:56.001Z</time></trkpt><trkpt lat="44.696019329317224" lon="10.850507094716844"><ele>35.5</ele><time>2026-04-19T17:26:57.001Z</time></trkpt><trkpt lat="44.696279516984305" lon="10.850436505434732"><ele>34.0</ele><time>2026-04-19T17:26:58.001Z</time></trkpt><trkpt lat="44.69654103337392" lon="10.85036490176941"><ele>34.0</ele><time>2026-04-19T17:26:59.001Z</time></trkpt><trkpt lat="44.69680471974287" lon="10.850292131666908"><ele>34.0</ele><time>2026-04-19T17:27:00.001Z</time></trkpt><trkpt lat="44.697069908936776" lon="10.850220017512337"><ele>33.5</ele><time>2026-04-19T17:27:01.001Z</time></trkpt><trkpt lat="44.697336683476976" lon="10.850147214662943"><ele>33.0</ele><time>2026-04-19T17:27:02.001Z</time></trkpt><trkpt lat="44.697605084456974" lon="10.850070873629743"><ele>34.0</ele><time>2026-04-19T17:27:03.001Z</time></trkpt><trkpt lat="44.697874081927495" lon="10.849995818943787"><ele>35.0</ele><time>2026-04-19T17:27:04.001Z</time></trkpt><trkpt lat="44.69814233545497" lon="10.849920199952873"><ele>35.0</ele><time>2026-04-19T17:27:05.001Z</time></trkpt><trkpt lat="44.69840976074891" lon="10.849847533181725"><ele>35.0</ele><time>2026-04-19T17:27:06.001Z</time></trkpt><trkpt lat="44.69867523753599" lon="10.849776105794293"><ele>34.5</ele><time>2026-04-19T17:27:07.001Z</time></trkpt><trkpt lat="44.69893948777726" lon="10.849703894144678"><ele>34.0</ele><time>2026-04-19T17:27:08.001Z</time></trkpt><trkpt lat="44.699201973255505" lon="10.8496330969991"><ele>33.5</ele><time>2026-04-19T17:27:09.001Z</time></trkpt><trkpt lat="44.699464026116964" lon="10.8495637879732"><ele>33.0</ele><time>2026-04-19T17:27:10.001Z</time></trkpt><trkpt lat="44.69972499411898" lon="10.849497130881893"><ele>33.0</ele><time>2026-04-19T17:27:11.001Z</time></trkpt><trkpt lat="44.69998508832381" lon="10.849428879926988"><ele>33.0</ele><time>2026-04-19T17:27:12.001Z</time></trkpt><trkpt lat="44.70024540178708" lon="10.849361118351693"><ele>34.0</ele><time>2026-04-19T17:27:13.001Z</time></trkpt><trkpt lat="44.70050455314143" lon="10.849294065705537"><ele>35.0</ele><time>2026-04-19T17:27:14.001Z</time></trkpt><trkpt lat="44.70076341805163" lon="10.849227602031414"><ele>35.0</ele><time>2026-04-19T17:27:15.001Z</time></trkpt><trkpt lat="44.701023604756074" lon="10.849159433039638"><ele>35.0</ele><time>2026-04-19T17:27:16.001Z</time></trkpt><trkpt lat="44.701285232352674" lon="10.849091257443137"><ele>34.5</ele><time>2026-04-19T17:27:17.001Z</time></trkpt><trkpt lat="44.701548622532414" lon="10.84902258594787"><ele>34.0</ele><time>2026-04-19T17:27:18.001Z</time></trkpt><trkpt lat="44.70181299824839" lon="10.84895521525462"><ele>34.5</ele><time>2026-04-19T17:27:19.001Z</time></trkpt><trkpt lat="44.702078445505975" lon="10.848887634470259"><ele>35.0</ele><time>2026-04-19T17:27:20.001Z</time></trkpt><trkpt lat="44.70234570111292" lon="10.848816531032169"><ele>35.0</ele><time>2026-04-19T17:27:21.001Z</time></trkpt><trkpt lat="44.70261363515163" lon="10.84874895889436"><ele>35.0</ele><time>2026-04-19T17:27:22.001Z</time></trkpt><trkpt lat="44.702881976265466" lon="10.848680563500839"><ele>35.5</ele><time>2026-04-19T17:27:23.001Z</time></trkpt><trkpt lat="44.70315072244514" lon="10.848612311499906"><ele>36.0</ele><time>2026-04-19T17:27:24.001Z</time></trkpt><trkpt lat="44.703420660668264" lon="10.8485433714902"><ele>36.5</ele><time>2026-04-19T17:27:25.001Z</time></trkpt><trkpt lat="44.703691046708" lon="10.848477126762022"><ele>37.0</ele><time>2026-04-19T17:27:26.001Z</time></trkpt><trkpt lat="44.7039619559362" lon="10.848415088652748"><ele>37.0</ele><time>2026-04-19T17:27:27.001Z</time></trkpt><trkpt lat="44.704234199473085" lon="10.848360697343491"><ele>37.0</ele><time>2026-04-19T17:27:28.001Z</time></trkpt><trkpt lat="44.704506479038024" lon="10.848311933579671"><ele>36.5</ele><time>2026-04-19T17:27:29.001Z</time></trkpt><trkpt lat="44.704779553066295" lon="10.848267110277632"><ele>36.0</ele><time>2026-04-19T17:27:30.001Z</time></trkpt><trkpt lat="44.70505324344452" lon="10.848228517672656"><ele>35.0</ele><time>2026-04-19T17:27:31.001Z</time></trkpt><trkpt lat="44.70532802886879" lon="10.848194305438033"><ele>34.0</ele><time>2026-04-19T17:27:32.001Z</time></trkpt><trkpt lat="44.705603162636216" lon="10.848161537919951"><ele>34.0</ele><time>2026-04-19T17:27:33.001Z</time></trkpt><trkpt lat="44.705878989496505" lon="10.848134120853981"><ele>34.0</ele><time>2026-04-19T17:27:34.001Z</time></trkpt><trkpt lat="44.70615523954469" lon="10.848110508483003"><ele>33.5</ele><time>2026-04-19T17:27:35.001Z</time></trkpt><trkpt lat="44.70643198213318" lon="10.848088361157782"><ele>33.0</ele><time>2026-04-19T17:27:36.001Z</time></trkpt><trkpt lat="44.70670870186239" lon="10.848064050606592"><ele>33.5</ele><time>2026-04-19T17:27:37.001Z</time></trkpt><trkpt lat="44.70698602355193" lon="10.848040488354123"><ele>34.0</ele><time>2026-04-19T17:27:38.001Z</time></trkpt><trkpt lat="44.707262351025754" lon="10.848015417111505"><ele>34.0</ele><time>2026-04-19T17:27:39.001Z</time></trkpt><trkpt lat="44.7075377042765" lon="10.847988042817745"><ele>34.0</ele><time>2026-04-19T17:27:40.001Z</time></trkpt><trkpt lat="44.7078135702718" lon="10.847961362448915"><ele>33.5</ele><time>2026-04-19T17:27:41.001Z</time></trkpt><trkpt lat="44.70808893868629" lon="10.84793477891518"><ele>33.0</ele><time>2026-04-19T17:27:42.001Z</time></trkpt><trkpt lat="44.70836247255306" lon="10.847906687664805"><ele>33.0</ele><time>2026-04-19T17:27:43.001Z</time></trkpt><trkpt lat="44.708636410069936" lon="10.847879622731604"><ele>33.0</ele><time>2026-04-19T17:27:44.001Z</time></trkpt><trkpt lat="44.708909599096586" lon="10.847851529040371"><ele>33.0</ele><time>2026-04-19T17:27:45.001Z</time></trkpt><trkpt lat="44.709181978841784" lon="10.8478255450511"><ele>33.0</ele><time>2026-04-19T17:27:46.001Z</time></trkpt><trkpt lat="44.7094536282127" lon="10.847797637988936"><ele>33.5</ele><time>2026-04-19T17:27:47.001Z</time></trkpt><trkpt lat="44.709725236912846" lon="10.84776748150146"><ele>34.0</ele><time>2026-04-19T17:27:48.001Z</time></trkpt><trkpt lat="44.70999618131786" lon="10.847740440361873"><ele>34.0</ele><time>2026-04-19T17:27:49.001Z</time></trkpt><trkpt lat="44.71026680710923" lon="10.847715029005832"><ele>34.0</ele><time>2026-04-19T17:27:50.001Z</time></trkpt><trkpt lat="44.71053840099403" lon="10.847688209299337"><ele>34.0</ele><time>2026-04-19T17:27:51.001Z</time></trkpt><trkpt lat="44.71080953034239" lon="10.847661491903814"><ele>34.0</ele><time>2026-04-19T17:27:52.001Z</time></trkpt><trkpt lat="44.711081243321885" lon="10.847635298475486"><ele>34.0</ele><time>2026-04-19T17:27:53.001Z</time></trkpt><trkpt lat="44.71135300721545" lon="10.847608920995336"><ele>34.0</ele><time>2026-04-19T17:27:54.001Z</time></trkpt><trkpt lat="44.71162435568682" lon="10.84758172000904"><ele>34.0</ele><time>2026-04-19T17:27:55.001Z</time></trkpt><trkpt lat="44.711895966055046" lon="10.847552755296169"><ele>34.0</ele><time>2026-04-19T17:27:56.001Z</time></trkpt><trkpt lat="44.712167763253134" lon="10.847524658323843"><ele>33.5</ele><time>2026-04-19T17:27:57.001Z</time></trkpt><trkpt lat="44.712439415711266" lon="10.847497460562574"><ele>33.0</ele><time>2026-04-19T17:27:58.001Z</time></trkpt><trkpt lat="44.712711166732134" lon="10.847469382711589"><ele>32.5</ele><time>2026-04-19T17:27:59.001Z</time></trkpt><trkpt lat="44.71298291297053" lon="10.8474424222077"><ele>32.0</ele><time>2026-04-19T17:28:00.001Z</time></trkpt><trkpt lat="44.71325473142735" lon="10.847416120598606"><ele>32.0</ele><time>2026-04-19T17:28:01.001Z</time></trkpt><trkpt lat="44.713526423235905" lon="10.847391537173923"><ele>32.0</ele><time>2026-04-19T17:28:02.001Z</time></trkpt><trkpt lat="44.713797957767596" lon="10.847362650226026"><ele>33.0</ele><time>2026-04-19T17:28:03.001Z</time></trkpt><trkpt lat="44.71406952185967" lon="10.847331523371027"><ele>34.0</ele><time>2026-04-19T17:28:04.001Z</time></trkpt><trkpt lat="44.71434085863814" lon="10.847298183165597"><ele>34.0</ele><time>2026-04-19T17:28:05.001Z</time></trkpt><trkpt lat="44.71461163731603" lon="10.847264236338356"><ele>34.0</ele><time>2026-04-19T17:28:06.001Z</time></trkpt><trkpt lat="44.71488171296622" lon="10.847225323766228"><ele>34.0</ele><time>2026-04-19T17:28:07.001Z</time></trkpt><trkpt lat="44.71515231903293" lon="10.847185473476179"><ele>34.0</ele><time>2026-04-19T17:28:08.001Z</time></trkpt><trkpt lat="44.715422280410564" lon="10.847138850150877"><ele>34.5</ele><time>2026-04-19T17:28:09.001Z</time></trkpt><trkpt lat="44.71569209258008" lon="10.847090331812888"><ele>35.0</ele><time>2026-04-19T17:28:10.001Z</time></trkpt><trkpt lat="44.71596080319057" lon="10.847035551537456"><ele>34.0</ele><time>2026-04-19T17:28:11.001Z</time></trkpt><trkpt lat="44.716230063924804" lon="10.846976506843689"><ele>33.0</ele><time>2026-04-19T17:28:12.001Z</time></trkpt><trkpt lat="44.71649832764989" lon="10.846920576096467"><ele>33.0</ele><time>2026-04-19T17:28:13.001Z</time></trkpt><trkpt lat="44.71676630285062" lon="10.846859623602565"><ele>33.0</ele><time>2026-04-19T17:28:14.001Z</time></trkpt><trkpt lat="44.717034865728266" lon="10.846800738106424"><ele>33.5</ele><time>2026-04-19T17:28:15.001Z</time></trkpt><trkpt lat="44.717304018281986" lon="10.846740298002453"><ele>34.0</ele><time>2026-04-19T17:28:16.001Z</time></trkpt><trkpt lat="44.71757261672725" lon="10.84668157247372"><ele>33.0</ele><time>2026-04-19T17:28:17.001Z</time></trkpt><trkpt lat="44.717841652022514" lon="10.84662067102155"><ele>32.0</ele><time>2026-04-19T17:28:18.001Z</time></trkpt><trkpt lat="44.71811045585472" lon="10.846559409697647"><ele>32.0</ele><time>2026-04-19T17:28:19.001Z</time></trkpt><trkpt lat="44.718378938103484" lon="10.846501168235983"><ele>32.0</ele><time>2026-04-19T17:28:20.001Z</time></trkpt><trkpt lat="44.7186468167899" lon="10.846440189268824"><ele>34.5</ele><time>2026-04-19T17:28:21.001Z</time></trkpt><trkpt lat="44.71891599542053" lon="10.846380041974435"><ele>37.0</ele><time>2026-04-19T17:28:22.001Z</time></trkpt><trkpt lat="44.719184282651355" lon="10.846321415797211"><ele>36.5</ele><time>2026-04-19T17:28:23.001Z</time></trkpt><trkpt lat="44.719450660088874" lon="10.846259939305067"><ele>36.0</ele><time>2026-04-19T17:28:24.001Z</time></trkpt><trkpt lat="44.719719901648006" lon="10.84619632127704"><ele>36.0</ele><time>2026-04-19T17:28:25.001Z</time></trkpt><trkpt lat="44.719988193638656" lon="10.84613126844392"><ele>36.0</ele><time>2026-04-19T17:28:26.001Z</time></trkpt><trkpt lat="44.72025785215488" lon="10.846066307422099"><ele>35.0</ele><time>2026-04-19T17:28:27.001Z</time></trkpt><trkpt lat="44.720526415620036" lon="10.846000523764959"><ele>34.0</ele><time>2026-04-19T17:28:28.001Z</time></trkpt><trkpt lat="44.720796269393915" lon="10.845934070992831"><ele>33.5</ele><time>2026-04-19T17:28:29.001Z</time></trkpt><trkpt lat="44.721066069668524" lon="10.845870840504126"><ele>33.0</ele><time>2026-04-19T17:28:30.001Z</time></trkpt><trkpt lat="44.721337101744375" lon="10.845809991260504"><ele>33.0</ele><time>2026-04-19T17:28:31.001Z</time></trkpt><trkpt lat="44.72160802840926" lon="10.845743659447464"><ele>33.0</ele><time>2026-04-19T17:28:32.001Z</time></trkpt><trkpt lat="44.72187912210466" lon="10.845680847960157"><ele>33.0</ele><time>2026-04-19T17:28:33.001Z</time></trkpt><trkpt lat="44.72214980042745" lon="10.84561694235983"><ele>33.0</ele><time>2026-04-19T17:28:34.001Z</time></trkpt><trkpt lat="44.72242097352668" lon="10.845555750878024"><ele>33.0</ele><time>2026-04-19T17:28:35.001Z</time></trkpt><trkpt lat="44.722692830561876" lon="10.845494716729068"><ele>33.0</ele><time>2026-04-19T17:28:36.001Z</time></trkpt><trkpt lat="44.722964890109424" lon="10.845435484970334"><ele>33.5</ele><time>2026-04-19T17:28:37.001Z</time></trkpt><trkpt lat="44.72323659826469" lon="10.845370594362755"><ele>34.0</ele><time>2026-04-19T17:28:38.001Z</time></trkpt><trkpt lat="44.723509176757204" lon="10.845310221877948"><ele>33.0</ele><time>2026-04-19T17:28:39.001Z</time></trkpt><trkpt lat="44.72378129054066" lon="10.845248373688781"><ele>32.0</ele><time>2026-04-19T17:28:40.001Z</time></trkpt><trkpt lat="44.724054154136745" lon="10.845186039956696"><ele>32.5</ele><time>2026-04-19T17:28:41.001Z</time></trkpt><trkpt lat="44.724326963689656" lon="10.845120452713738"><ele>33.0</ele><time>2026-04-19T17:28:42.001Z</time></trkpt><trkpt lat="44.72460005739399" lon="10.845058813863101"><ele>33.0</ele><time>2026-04-19T17:28:43.001Z</time></trkpt><trkpt lat="44.72487332785831" lon="10.844998003307335"><ele>33.0</ele><time>2026-04-19T17:28:44.001Z</time></trkpt><trkpt lat="44.72514648207219" lon="10.844937279685336"><ele>32.5</ele><time>2026-04-19T17:28:45.001Z</time></trkpt><trkpt lat="44.72541982550221" lon="10.84487668373309"><ele>32.0</ele><time>2026-04-19T17:28:46.001Z</time></trkpt><trkpt lat="44.72569422549612" lon="10.844817652084442"><ele>32.0</ele><time>2026-04-19T17:28:47.001Z</time></trkpt><trkpt lat="44.72596804018277" lon="10.84475395925818"><ele>32.0</ele><time>2026-04-19T17:28:48.001Z</time></trkpt><trkpt lat="44.72624128012858" lon="10.844685348322667"><ele>31.5</ele><time>2026-04-19T17:28:49.001Z</time></trkpt><trkpt lat="44.72651411998044" lon="10.844621246371116"><ele>31.0</ele><time>2026-04-19T17:28:50.001Z</time></trkpt><trkpt lat="44.726788130846295" lon="10.84456107162231"><ele>31.5</ele><time>2026-04-19T17:28:51.001Z</time></trkpt><trkpt lat="44.72706283413804" lon="10.844503402448609"><ele>32.0</ele><time>2026-04-19T17:28:52.001Z</time></trkpt><trkpt lat="44.72733985330357" lon="10.844451499117557"><ele>32.0</ele><time>2026-04-19T17:28:53.001Z</time></trkpt><trkpt lat="44.72761956014797" lon="10.844401236130587"><ele>32.0</ele><time>2026-04-19T17:28:54.001Z</time></trkpt><trkpt lat="44.72789933273632" lon="10.844360863775929"><ele>32.0</ele><time>2026-04-19T17:28:55.001Z</time></trkpt><trkpt lat="44.72817704296173" lon="10.84432339821954"><ele>32.0</ele><time>2026-04-19T17:28:56.001Z</time></trkpt><trkpt lat="44.728455063119576" lon="10.84429083713432"><ele>31.5</ele><time>2026-04-19T17:28:57.001Z</time></trkpt><trkpt lat="44.728733634111414" lon="10.844257599934577"><ele>31.0</ele><time>2026-04-19T17:28:58.001Z</time></trkpt><trkpt lat="44.72901387298367" lon="10.844232591922328"><ele>31.0</ele><time>2026-04-19T17:28:59.001Z</time></trkpt><trkpt lat="44.72929471108991" lon="10.84420937049644"><ele>31.0</ele><time>2026-04-19T17:29:00.001Z</time></trkpt><trkpt lat="44.729576648402514" lon="10.84418994811219"><ele>31.5</ele><time>2026-04-19T17:29:01.001Z</time></trkpt><trkpt lat="44.72985895099161" lon="10.844173858344481"><ele>32.0</ele><time>2026-04-19T17:29:02.001Z</time></trkpt><trkpt lat="44.73014065707303" lon="10.844160029883508"><ele>32.0</ele><time>2026-04-19T17:29:03.001Z</time></trkpt><trkpt lat="44.7304218566992" lon="10.844154869202999"><ele>32.0</ele><time>2026-04-19T17:29:04.001Z</time></trkpt><trkpt lat="44.73070320320396" lon="10.844156912796743"><ele>32.0</ele><time>2026-04-19T17:29:05.001Z</time></trkpt><trkpt lat="44.730984283143044" lon="10.844158374882396"><ele>32.0</ele><time>2026-04-19T17:29:06.001Z</time></trkpt><trkpt lat="44.731265420579085" lon="10.844164007317051"><ele>32.5</ele><time>2026-04-19T17:29:07.001Z</time></trkpt><trkpt lat="44.73154600698538" lon="10.844173387348286"><ele>33.0</ele><time>2026-04-19T17:29:08.001Z</time></trkpt><trkpt lat="44.73182657879164" lon="10.844188467352412"><ele>33.0</ele><time>2026-04-19T17:29:09.001Z</time></trkpt><trkpt lat="44.732107348631246" lon="10.844202377211253"><ele>33.0</ele><time>2026-04-19T17:29:10.001Z</time></trkpt><trkpt lat="44.73238839983939" lon="10.84422255070404"><ele>33.0</ele><time>2026-04-19T17:29:11.001Z</time></trkpt><trkpt lat="44.732669113463615" lon="10.844238933640426"><ele>33.0</ele><time>2026-04-19T17:29:12.001Z</time></trkpt><trkpt lat="44.732949155015724" lon="10.844260518414686"><ele>32.5</ele><time>2026-04-19T17:29:13.001Z</time></trkpt><trkpt lat="44.73323070919512" lon="10.844277119309538"><ele>32.0</ele><time>2026-04-19T17:29:14.001Z</time></trkpt><trkpt lat="44.73351247140996" lon="10.844298930584733"><ele>32.0</ele><time>2026-04-19T17:29:15.001Z</time></trkpt><trkpt lat="44.73379463153814" lon="10.844317314903403"><ele>32.0</ele><time>2026-04-19T17:29:16.001Z</time></trkpt><trkpt lat="44.734076459677986" lon="10.844336154875673"><ele>32.0</ele><time>2026-04-19T17:29:17.001Z</time></trkpt><trkpt lat="44.73435760400443" lon="10.844353536319254"><ele>32.0</ele><time>2026-04-19T17:29:18.001Z</time></trkpt><trkpt lat="44.73463835625291" lon="10.844371713757974"><ele>32.0</ele><time>2026-04-19T17:29:19.001Z</time></trkpt><trkpt lat="44.73491955308606" lon="10.844388620566447"><ele>32.0</ele><time>2026-04-19T17:29:20.001Z</time></trkpt><trkpt lat="44.73520062757086" lon="10.844406796234328"><ele>31.0</ele><time>2026-04-19T17:29:21.001Z</time></trkpt><trkpt lat="44.735482570931445" lon="10.844423463463526"><ele>30.0</ele><time>2026-04-19T17:29:22.001Z</time></trkpt><trkpt lat="44.73576422638866" lon="10.8444432183089"><ele>30.0</ele><time>2026-04-19T17:29:23.001Z</time></trkpt><trkpt lat="44.73604445505963" lon="10.844457545099491"><ele>30.0</ele><time>2026-04-19T17:29:24.001Z</time></trkpt><trkpt lat="44.73632505674884" lon="10.844474397293279"><ele>30.5</ele><time>2026-04-19T17:29:25.001Z</time></trkpt><trkpt lat="44.7366058225564" lon="10.844492246365972"><ele>31.0</ele><time>2026-04-19T17:29:26.001Z</time></trkpt><trkpt lat="44.73688684512233" lon="10.844510869165594"><ele>31.5</ele><time>2026-04-19T17:29:27.001Z</time></trkpt><trkpt lat="44.737167959382546" lon="10.844532695957895"><ele>32.0</ele><time>2026-04-19T17:29:28.001Z</time></trkpt><trkpt lat="44.737449300508366" lon="10.84455082700137"><ele>31.0</ele><time>2026-04-19T17:29:29.001Z</time></trkpt><trkpt lat="44.73773088575618" lon="10.844566011894706"><ele>30.0</ele><time>2026-04-19T17:29:30.001Z</time></trkpt><trkpt lat="44.73801220780601" lon="10.844583687235858"><ele>30.0</ele><time>2026-04-19T17:29:31.001Z</time></trkpt><trkpt lat="44.73829350306418" lon="10.844604859953384"><ele>30.0</ele><time>2026-04-19T17:29:32.001Z</time></trkpt><trkpt lat="44.73857437896594" lon="10.844618340866859"><ele>30.5</ele><time>2026-04-19T17:29:33.001Z</time></trkpt><trkpt lat="44.73885545557608" lon="10.844635435353645"><ele>31.0</ele><time>2026-04-19T17:29:34.001Z</time></trkpt><trkpt lat="44.739136432984374" lon="10.844655058474903"><ele>31.0</ele><time>2026-04-19T17:29:35.001Z</time></trkpt><trkpt lat="44.73941814188081" lon="10.844671801862644"><ele>31.0</ele><time>2026-04-19T17:29:36.001Z</time></trkpt><trkpt lat="44.739699568984314" lon="10.84468975374211"><ele>31.0</ele><time>2026-04-19T17:29:37.001Z</time></trkpt><trkpt lat="44.73998090047703" lon="10.844707501255021"><ele>31.0</ele><time>2026-04-19T17:29:38.001Z</time></trkpt><trkpt lat="44.740262264496536" lon="10.84472521252964"><ele>31.0</ele><time>2026-04-19T17:29:39.001Z</time></trkpt><trkpt lat="44.74054306512269" lon="10.844743342621982"><ele>31.0</ele><time>2026-04-19T17:29:40.001Z</time></trkpt><trkpt lat="44.740824441094375" lon="10.844761101791809"><ele>31.0</ele><time>2026-04-19T17:29:41.001Z</time></trkpt><trkpt lat="44.741105637427694" lon="10.844779378454776"><ele>31.0</ele><time>2026-04-19T17:29:42.001Z</time></trkpt><trkpt lat="44.74138722269566" lon="10.844793842596355"><ele>31.0</ele><time>2026-04-19T17:29:43.001Z</time></trkpt><trkpt lat="44.74166886467069" lon="10.844807591877736"><ele>31.0</ele><time>2026-04-19T17:29:44.001Z</time></trkpt><trkpt lat="44.741949862822324" lon="10.844820433658002"><ele>30.5</ele><time>2026-04-19T17:29:45.001Z</time></trkpt><trkpt lat="44.742230716052546" lon="10.844831151140742"><ele>30.0</ele><time>2026-04-19T17:29:46.001Z</time></trkpt><trkpt lat="44.74251218127524" lon="10.844840546025882"><ele>30.0</ele><time>2026-04-19T17:29:47.001Z</time></trkpt><trkpt lat="44.7427927264228" lon="10.844846253808162"><ele>30.0</ele><time>2026-04-19T17:29:48.001Z</time></trkpt><trkpt lat="44.7430742017618" lon="10.844855674364073"><ele>30.0</ele><time>2026-04-19T17:29:49.001Z</time></trkpt><trkpt lat="44.74335556478463" lon="10.84486340551308"><ele>30.0</ele><time>2026-04-19T17:29:50.001Z</time></trkpt><trkpt lat="44.7436374781669" lon="10.844869015315275"><ele>30.5</ele><time>2026-04-19T17:29:51.001Z</time></trkpt><trkpt lat="44.74391880947572" lon="10.844873978361726"><ele>31.0</ele><time>2026-04-19T17:29:52.001Z</time></trkpt><trkpt lat="44.74420028234245" lon="10.844878227170916"><ele>31.0</ele><time>2026-04-19T17:29:53.001Z</time></trkpt><trkpt lat="44.74448171887592" lon="10.844877182496884"><ele>31.0</ele><time>2026-04-19T17:29:54.001Z</time></trkpt><trkpt lat="44.7447634712748" lon="10.84487379332985"><ele>31.0</ele><time>2026-04-19T17:29:55.001Z</time></trkpt><trkpt lat="44.745042143215734" lon="10.84486731430957"><ele>31.0</ele><time>2026-04-19T17:29:56.001Z</time></trkpt><trkpt lat="44.74532300237924" lon="10.844861326861304"><ele>30.0</ele><time>2026-04-19T17:29:57.001Z</time></trkpt><trkpt lat="44.74560446488718" lon="10.8448554400081"><ele>29.0</ele><time>2026-04-19T17:29:58.001Z</time></trkpt><trkpt lat="44.74588537957844" lon="10.844848516039361"><ele>28.5</ele><time>2026-04-19T17:29:59.001Z</time></trkpt><trkpt lat="44.746166432781806" lon="10.84484048751918"><ele>28.0</ele><time>2026-04-19T17:30:00.001Z</time></trkpt><trkpt lat="44.746447551635285" lon="10.844830251212066"><ele>28.0</ele><time>2026-04-19T17:30:01.001Z</time></trkpt><trkpt lat="44.74672871793543" lon="10.844820960755044"><ele>28.0</ele><time>2026-04-19T17:30:02.001Z</time></trkpt><trkpt lat="44.74700955502461" lon="10.844811995141884"><ele>29.0</ele><time>2026-04-19T17:30:03.001Z</time></trkpt><trkpt lat="44.74729014349162" lon="10.844804288038777"><ele>30.0</ele><time>2026-04-19T17:30:04.001Z</time></trkpt><trkpt lat="44.74757137001215" lon="10.844797343808947"><ele>30.0</ele><time>2026-04-19T17:30:05.001Z</time></trkpt><trkpt lat="44.74785245062142" lon="10.844791550398686"><ele>30.0</ele><time>2026-04-19T17:30:06.001Z</time></trkpt><trkpt lat="44.748133766736196" lon="10.844782930471247"><ele>30.0</ele><time>2026-04-19T17:30:07.001Z</time></trkpt><trkpt lat="44.7484152749248" lon="10.844773355390169"><ele>30.0</ele><time>2026-04-19T17:30:08.001Z</time></trkpt><trkpt lat="44.748696803293214" lon="10.844762078500402"><ele>29.5</ele><time>2026-04-19T17:30:09.001Z</time></trkpt><trkpt lat="44.74897842247185" lon="10.844750984442086"><ele>29.0</ele><time>2026-04-19T17:30:10.001Z</time></trkpt><trkpt lat="44.74925993638587" lon="10.844738688551507"><ele>30.0</ele><time>2026-04-19T17:30:11.001Z</time></trkpt><trkpt lat="44.74954193783223" lon="10.844724367197891"><ele>31.0</ele><time>2026-04-19T17:30:12.001Z</time></trkpt><trkpt lat="44.74982344446507" lon="10.844708821306613"><ele>31.0</ele><time>2026-04-19T17:30:13.001Z</time></trkpt><trkpt lat="44.750105062046984" lon="10.844689536901406"><ele>31.0</ele><time>2026-04-19T17:30:14.001Z</time></trkpt><trkpt lat="44.75038646656312" lon="10.844667088108723"><ele>30.5</ele><time>2026-04-19T17:30:15.001Z</time></trkpt><trkpt lat="44.75066773964411" lon="10.844643247941903"><ele>30.0</ele><time>2026-04-19T17:30:16.001Z</time></trkpt><trkpt lat="44.75094877314592" lon="10.844618755384342"><ele>29.5</ele><time>2026-04-19T17:30:17.001Z</time></trkpt><trkpt lat="44.75122935619783" lon="10.844593023854152"><ele>29.0</ele><time>2026-04-19T17:30:18.001Z</time></trkpt><trkpt lat="44.75150785668625" lon="10.844568202391791"><ele>29.0</ele><time>2026-04-19T17:30:19.001Z</time></trkpt><trkpt lat="44.751785404792074" lon="10.84454321916226"><ele>29.0</ele><time>2026-04-19T17:30:20.001Z</time></trkpt><trkpt lat="44.75206190357842" lon="10.844519566177535"><ele>29.5</ele><time>2026-04-19T17:30:21.001Z</time></trkpt><trkpt lat="44.752338057035914" lon="10.84449555007145"><ele>30.0</ele><time>2026-04-19T17:30:22.001Z</time></trkpt><trkpt lat="44.75261480228965" lon="10.844470638983456"><ele>29.5</ele><time>2026-04-19T17:30:23.001Z</time></trkpt><trkpt lat="44.75289165990024" lon="10.844445769821906"><ele>29.0</ele><time>2026-04-19T17:30:24.001Z</time></trkpt><trkpt lat="44.75316904089728" lon="10.844417824372366"><ele>29.0</ele><time>2026-04-19T17:30:25.001Z</time></trkpt><trkpt lat="44.75344610370589" lon="10.844387219216292"><ele>29.0</ele><time>2026-04-19T17:30:26.001Z</time></trkpt><trkpt lat="44.753723796333624" lon="10.844355328378642"><ele>29.0</ele><time>2026-04-19T17:30:27.001Z</time></trkpt><trkpt lat="44.75400095751206" lon="10.844323130120348"><ele>29.0</ele><time>2026-04-19T17:30:28.001Z</time></trkpt><trkpt lat="44.75427808983221" lon="10.844290461530253"><ele>29.0</ele><time>2026-04-19T17:30:29.001Z</time></trkpt><trkpt lat="44.754554592839625" lon="10.844259273955258"><ele>29.0</ele><time>2026-04-19T17:30:30.001Z</time></trkpt><trkpt lat="44.75483088940958" lon="10.84423133378326"><ele>29.0</ele><time>2026-04-19T17:30:31.001Z</time></trkpt><trkpt lat="44.755107465000954" lon="10.844201246069934"><ele>29.0</ele><time>2026-04-19T17:30:32.001Z</time></trkpt><trkpt lat="44.75538409032898" lon="10.844175925116827"><ele>28.5</ele><time>2026-04-19T17:30:33.001Z</time></trkpt><trkpt lat="44.75566098417303" lon="10.844151431158624"><ele>28.0</ele><time>2026-04-19T17:30:34.001Z</time></trkpt><trkpt lat="44.755938042090634" lon="10.844127368784873"><ele>27.5</ele><time>2026-04-19T17:30:35.001Z</time></trkpt><trkpt lat="44.756215469306866" lon="10.844103306234596"><ele>27.0</ele><time>2026-04-19T17:30:36.001Z</time></trkpt><trkpt lat="44.75649062263039" lon="10.844079133208359"><ele>27.0</ele><time>2026-04-19T17:30:37.001Z</time></trkpt><trkpt lat="44.75676657494471" lon="10.844056227586108"><ele>27.0</ele><time>2026-04-19T17:30:38.001Z</time></trkpt><trkpt lat="44.757043369446485" lon="10.844033302740431"><ele>27.5</ele><time>2026-04-19T17:30:39.001Z</time></trkpt><trkpt lat="44.757321009902086" lon="10.84400869084768"><ele>28.0</ele><time>2026-04-19T17:30:40.001Z</time></trkpt><trkpt lat="44.75759770493215" lon="10.843981484117716"><ele>28.5</ele><time>2026-04-19T17:30:41.001Z</time></trkpt><trkpt lat="44.75787426589696" lon="10.843955300362158"><ele>29.0</ele><time>2026-04-19T17:30:42.001Z</time></trkpt><trkpt lat="44.75815063212126" lon="10.84393198954589"><ele>29.0</ele><time>2026-04-19T17:30:43.001Z</time></trkpt><trkpt lat="44.75842767343815" lon="10.843906693311826"><ele>29.0</ele><time>2026-04-19T17:30:44.001Z</time></trkpt><trkpt lat="44.75870520969681" lon="10.843883832291977"><ele>29.0</ele><time>2026-04-19T17:30:45.001Z</time></trkpt><trkpt lat="44.75898173385337" lon="10.843863882351222"><ele>29.0</ele><time>2026-04-19T17:30:46.001Z</time></trkpt><trkpt lat="44.75925915542327" lon="10.843847575151218"><ele>28.5</ele><time>2026-04-19T17:30:47.001Z</time></trkpt><trkpt lat="44.759536422662094" lon="10.843837605034711"><ele>28.0</ele><time>2026-04-19T17:30:48.001Z</time></trkpt><trkpt lat="44.75981376679891" lon="10.84383160182729"><ele>28.0</ele><time>2026-04-19T17:30:49.001Z</time></trkpt><trkpt lat="44.760090415823186" lon="10.84383152765198"><ele>28.0</ele><time>2026-04-19T17:30:50.001Z</time></trkpt><trkpt lat="44.760367311509086" lon="10.843833800884678"><ele>28.0</ele><time>2026-04-19T17:30:51.001Z</time></trkpt><trkpt lat="44.76064465919102" lon="10.843841683436322"><ele>28.0</ele><time>2026-04-19T17:30:52.001Z</time></trkpt><trkpt lat="44.760922040724886" lon="10.843851453608172"><ele>27.5</ele><time>2026-04-19T17:30:53.001Z</time></trkpt><trkpt lat="44.761198868358015" lon="10.843865533978027"><ele>27.0</ele><time>2026-04-19T17:30:54.001Z</time></trkpt><trkpt lat="44.76147626222302" lon="10.843883388312259"><ele>27.0</ele><time>2026-04-19T17:30:55.001Z</time></trkpt><trkpt lat="44.76175321208234" lon="10.843907659575871"><ele>27.0</ele><time>2026-04-19T17:30:56.001Z</time></trkpt><trkpt lat="44.76203042515496" lon="10.843936189398482"><ele>27.5</ele><time>2026-04-19T17:30:57.001Z</time></trkpt><trkpt lat="44.762307005026685" lon="10.843966819312744"><ele>28.0</ele><time>2026-04-19T17:30:58.001Z</time></trkpt><trkpt lat="44.762584670802404" lon="10.843997290723994"><ele>27.5</ele><time>2026-04-19T17:30:59.001Z</time></trkpt><trkpt lat="44.76286299523242" lon="10.844033678771641"><ele>27.0</ele><time>2026-04-19T17:31:00.001Z</time></trkpt><trkpt lat="44.76314223266" lon="10.844069918302162"><ele>27.0</ele><time>2026-04-19T17:31:01.001Z</time></trkpt><trkpt lat="44.7634217112404" lon="10.8441071697004"><ele>27.0</ele><time>2026-04-19T17:31:02.001Z</time></trkpt><trkpt lat="44.763702791294094" lon="10.844145629659572"><ele>27.0</ele><time>2026-04-19T17:31:03.001Z</time></trkpt><trkpt lat="44.76398499053992" lon="10.84418412440049"><ele>27.0</ele><time>2026-04-19T17:31:04.001Z</time></trkpt><trkpt lat="44.76426698232748" lon="10.844223164670584"><ele>28.5</ele><time>2026-04-19T17:31:05.001Z</time></trkpt><trkpt lat="44.76454926086372" lon="10.84426545640437"><ele>30.0</ele><time>2026-04-19T17:31:06.001Z</time></trkpt><trkpt lat="44.764830572353816" lon="10.84431126781233"><ele>30.0</ele><time>2026-04-19T17:31:07.001Z</time></trkpt><trkpt lat="44.76511278847124" lon="10.844354999444457"><ele>30.0</ele><time>2026-04-19T17:31:08.001Z</time></trkpt><trkpt lat="44.76539578794718" lon="10.844401741946678"><ele>29.0</ele><time>2026-04-19T17:31:09.001Z</time></trkpt><trkpt lat="44.765670148910424" lon="10.84444636276591"><ele>28.0</ele><time>2026-04-19T17:31:10.001Z</time></trkpt><trkpt lat="44.765950581472964" lon="10.844491078442044"><ele>28.0</ele><time>2026-04-19T17:31:11.001Z</time></trkpt><trkpt lat="44.766231859307496" lon="10.844532783233742"><ele>28.0</ele><time>2026-04-19T17:31:12.001Z</time></trkpt><trkpt lat="44.76651290958051" lon="10.844577248143551"><ele>28.0</ele><time>2026-04-19T17:31:13.001Z</time></trkpt><trkpt lat="44.76679449909531" lon="10.84462371706954"><ele>28.0</ele><time>2026-04-19T17:31:14.001Z</time></trkpt><trkpt lat="44.76707564107137" lon="10.844667973976684"><ele>28.5</ele><time>2026-04-19T17:31:15.001Z</time></trkpt><trkpt lat="44.7673569611449" lon="10.844710932329026"><ele>29.0</ele><time>2026-04-19T17:31:16.001Z</time></trkpt><trkpt lat="44.767638462453554" lon="10.84475287285682"><ele>29.0</ele><time>2026-04-19T17:31:17.001Z</time></trkpt><trkpt lat="44.767919421997064" lon="10.844799788877934"><ele>29.0</ele><time>2026-04-19T17:31:18.001Z</time></trkpt><trkpt lat="44.768200489092365" lon="10.844846315878664"><ele>29.0</ele><time>2026-04-19T17:31:19.001Z</time></trkpt><trkpt lat="44.76847910914285" lon="10.844891160328082"><ele>29.0</ele><time>2026-04-19T17:31:20.001Z</time></trkpt><trkpt lat="44.76875216820698" lon="10.844934248598737"><ele>28.5</ele><time>2026-04-19T17:31:21.001Z</time></trkpt><trkpt lat="44.76902005239568" lon="10.844971730297093"><ele>28.0</ele><time>2026-04-19T17:31:22.001Z</time></trkpt><trkpt lat="44.769281748323976" lon="10.845012804609071"><ele>28.0</ele><time>2026-04-19T17:31:23.001Z</time></trkpt><trkpt lat="44.76953883718295" lon="10.845048470859686"><ele>28.0</ele><time>2026-04-19T17:31:24.001Z</time></trkpt><trkpt lat="44.76978322854907" lon="10.845089600930969"><ele>28.0</ele><time>2026-04-19T17:31:25.001Z</time></trkpt><trkpt lat="44.77000914935206" lon="10.845126199686272"><ele>28.0</ele><time>2026-04-19T17:31:26.001Z</time></trkpt><trkpt lat="44.77022180411413" lon="10.845170600107016"><ele>28.0</ele><time>2026-04-19T17:31:27.001Z</time></trkpt><trkpt lat="44.77042141800739" lon="10.845215545649927"><ele>27.666666666666668</ele><time>2026-04-19T17:31:28.001Z</time></trkpt><trkpt lat="44.77060399410951" lon="10.84525433821302"><ele>27.333333333333336</ele><time>2026-04-19T17:31:29.001Z</time></trkpt><trkpt lat="44.77077897691878" lon="10.845272158969005"><ele>27.0</ele><time>2026-04-19T17:31:30.001Z</time></trkpt><trkpt lat="44.770947724767126" lon="10.845262956873496"><ele>27.0</ele><time>2026-04-19T17:31:31.001Z</time></trkpt><trkpt lat="44.77110393830057" lon="10.845234868604928"><ele>27.0</ele><time>2026-04-19T17:31:32.001Z</time></trkpt><trkpt lat="44.77125632082925" lon="10.845197897230625"><ele>27.0</ele><time>2026-04-19T17:31:33.001Z</time></trkpt><trkpt lat="44.77141491481491" lon="10.845180828936444"><ele>27.0</ele><time>2026-04-19T17:31:34.001Z</time></trkpt><trkpt lat="44.77157868015486" lon="10.845182863314335"><ele>27.0</ele><time>2026-04-19T17:31:35.001Z</time></trkpt><trkpt lat="44.77174515701667" lon="10.845211532418626"><ele>27.0</ele><time>2026-04-19T17:31:36.001Z</time></trkpt><trkpt lat="44.7719168442377" lon="10.845240398804648"><ele>26.333333333333336</ele><time>2026-04-19T17:31:37.001Z</time></trkpt><trkpt lat="44.77209463250266" lon="10.845272817038524"><ele>25.666666666666668</ele><time>2026-04-19T17:31:38.001Z</time></trkpt><trkpt lat="44.77226912194335" lon="10.845416590852986"><ele>25.0</ele><time>2026-04-19T17:31:39.001Z</time></trkpt><trkpt lat="44.77245830453097" lon="10.845449696918616"><ele>25.0</ele><time>2026-04-19T17:31:40.001Z</time></trkpt><trkpt lat="44.77265535087106" lon="10.84548862975951"><ele>25.0</ele><time>2026-04-19T17:31:41.001Z</time></trkpt><trkpt lat="44.772858973536856" lon="10.845528861968397"><ele>25.0</ele><time>2026-04-19T17:31:42.001Z</time></trkpt><trkpt lat="44.77306797969674" lon="10.845573380512375"><ele>25.0</ele><time>2026-04-19T17:31:43.001Z</time></trkpt><trkpt lat="44.77328427845747" lon="10.84562632597575"><ele>25.0</ele><time>2026-04-19T17:31:44.001Z</time></trkpt><trkpt lat="44.77350782619836" lon="10.845681386995455"><ele>25.0</ele><time>2026-04-19T17:31:45.001Z</time></trkpt><trkpt lat="44.77373591242659" lon="10.845741879431129"><ele>25.0</ele><time>2026-04-19T17:31:46.001Z</time></trkpt><trkpt lat="44.7739686710223" lon="10.845808115266186"><ele>25.0</ele><time>2026-04-19T17:31:47.001Z</time></trkpt><trkpt lat="44.77420490484769" lon="10.845878310026166"><ele>26.0</ele><time>2026-04-19T17:31:48.001Z</time></trkpt><trkpt lat="44.7744419824286" lon="10.845950937111493"><ele>27.0</ele><time>2026-04-19T17:31:49.001Z</time></trkpt><trkpt lat="44.77467880374861" lon="10.846026775825791"><ele>27.0</ele><time>2026-04-19T17:31:50.001Z</time></trkpt><trkpt lat="44.77491516080916" lon="10.846108162108653"><ele>27.0</ele><time>2026-04-19T17:31:51.001Z</time></trkpt><trkpt lat="44.77515389193482" lon="10.84619443896531"><ele>28.0</ele><time>2026-04-19T17:31:52.001Z</time></trkpt><trkpt lat="44.775392333205055" lon="10.84628179459513"><ele>29.0</ele><time>2026-04-19T17:31:53.001Z</time></trkpt><trkpt lat="44.77562930928487" lon="10.846377720763046"><ele>29.0</ele><time>2026-04-19T17:31:54.001Z</time></trkpt><trkpt lat="44.775868906739134" lon="10.846476565136902"><ele>29.0</ele><time>2026-04-19T17:31:55.001Z</time></trkpt><trkpt lat="44.77611144012914" lon="10.846574050473688"><ele>28.0</ele><time>2026-04-19T17:31:56.001Z</time></trkpt><trkpt lat="44.77635458590031" lon="10.846671123827965"><ele>27.0</ele><time>2026-04-19T17:31:57.001Z</time></trkpt><trkpt lat="44.77659872812874" lon="10.846769744682481"><ele>27.0</ele><time>2026-04-19T17:31:58.001Z</time></trkpt><trkpt lat="44.776844336662606" lon="10.846867110517044"><ele>27.0</ele><time>2026-04-19T17:31:59.001Z</time></trkpt><trkpt lat="44.777093090639575" lon="10.846965108886488"><ele>28.5</ele><time>2026-04-19T17:32:00.001Z</time></trkpt><trkpt lat="44.777346736695634" lon="10.84706503458783"><ele>30.0</ele><time>2026-04-19T17:32:01.001Z</time></trkpt><trkpt lat="44.77760428338973" lon="10.84716649697121"><ele>29.0</ele><time>2026-04-19T17:32:02.001Z</time></trkpt><trkpt lat="44.777867649680545" lon="10.847270244427932"><ele>28.0</ele><time>2026-04-19T17:32:03.001Z</time></trkpt><trkpt lat="44.77813566028891" lon="10.847375988153447"><ele>28.0</ele><time>2026-04-19T17:32:04.001Z</time></trkpt><trkpt lat="44.77840757653542" lon="10.847483399801325"><ele>28.0</ele><time>2026-04-19T17:32:05.001Z</time></trkpt><trkpt lat="44.778681518565385" lon="10.847591611679832"><ele>28.5</ele><time>2026-04-19T17:32:06.001Z</time></trkpt><trkpt lat="44.778955846227916" lon="10.84770052775391"><ele>29.0</ele><time>2026-04-19T17:32:07.001Z</time></trkpt><trkpt lat="44.77922969524022" lon="10.847811481167152"><ele>28.5</ele><time>2026-04-19T17:32:08.001Z</time></trkpt><trkpt lat="44.77950302395718" lon="10.847922223776814"><ele>28.0</ele><time>2026-04-19T17:32:09.001Z</time></trkpt><trkpt lat="44.77977506152724" lon="10.84803244326963"><ele>28.0</ele><time>2026-04-19T17:32:10.001Z</time></trkpt><trkpt lat="44.78004641261137" lon="10.848141593980031"><ele>28.0</ele><time>2026-04-19T17:32:11.001Z</time></trkpt><trkpt lat="44.780312163414195" lon="10.848246493280337"><ele>27.0</ele><time>2026-04-19T17:32:12.001Z</time></trkpt><trkpt lat="44.78057503773645" lon="10.84835025715771"><ele>26.0</ele><time>2026-04-19T17:32:13.001Z</time></trkpt><trkpt lat="44.78083586948132" lon="10.848453214738393"><ele>26.0</ele><time>2026-04-19T17:32:14.001Z</time></trkpt><trkpt lat="44.78109801517879" lon="10.84855669103741"><ele>26.0</ele><time>2026-04-19T17:32:15.001Z</time></trkpt><trkpt lat="44.78136055161885" lon="10.848660321527868"><ele>26.0</ele><time>2026-04-19T17:32:16.001Z</time></trkpt><trkpt lat="44.78161649710401" lon="10.84876309717392"><ele>26.0</ele><time>2026-04-19T17:32:17.001Z</time></trkpt><trkpt lat="44.781870748402156" lon="10.848866255849117"><ele>25.5</ele><time>2026-04-19T17:32:18.001Z</time></trkpt><trkpt lat="44.782123841059004" lon="10.848966361821166"><ele>25.0</ele><time>2026-04-19T17:32:19.001Z</time></trkpt><trkpt lat="44.78237782088569" lon="10.849067304488038"><ele>25.0</ele><time>2026-04-19T17:32:20.001Z</time></trkpt><trkpt lat="44.78263354292018" lon="10.849169801417121"><ele>25.0</ele><time>2026-04-19T17:32:21.001Z</time></trkpt><trkpt lat="44.78289011335374" lon="10.849272638411536"><ele>26.5</ele><time>2026-04-19T17:32:22.001Z</time></trkpt><trkpt lat="44.783147737733394" lon="10.849375849118328"><ele>28.0</ele><time>2026-04-19T17:32:23.001Z</time></trkpt><trkpt lat="44.783405439927655" lon="10.849478973221888"><ele>27.5</ele><time>2026-04-19T17:32:24.001Z</time></trkpt><trkpt lat="44.783663552868816" lon="10.849582261704215"><ele>27.0</ele><time>2026-04-19T17:32:25.001Z</time></trkpt><trkpt lat="44.78392170189436" lon="10.84968556460034"><ele>27.0</ele><time>2026-04-19T17:32:26.001Z</time></trkpt><trkpt lat="44.78417989723192" lon="10.849788886069936"><ele>27.0</ele><time>2026-04-19T17:32:27.001Z</time></trkpt><trkpt lat="44.784436338070634" lon="10.849891505414993"><ele>26.5</ele><time>2026-04-19T17:32:28.001Z</time></trkpt><trkpt lat="44.78468685887026" lon="10.849991755766219"><ele>26.0</ele><time>2026-04-19T17:32:29.001Z</time></trkpt><trkpt lat="44.784932948571374" lon="10.850090232917081"><ele>26.5</ele><time>2026-04-19T17:32:30.001Z</time></trkpt><trkpt lat="44.785178195514014" lon="10.85018837284897"><ele>27.0</ele><time>2026-04-19T17:32:31.001Z</time></trkpt><trkpt lat="44.78542336146538" lon="10.850286480339818"><ele>27.5</ele><time>2026-04-19T17:32:32.001Z</time></trkpt><trkpt lat="44.78566965156094" lon="10.850385372537973"><ele>28.0</ele><time>2026-04-19T17:32:33.001Z</time></trkpt><trkpt lat="44.78591757602131" lon="10.850485471189328"><ele>29.0</ele><time>2026-04-19T17:32:34.001Z</time></trkpt><trkpt lat="44.786166505283575" lon="10.8505859753735"><ele>30.0</ele><time>2026-04-19T17:32:35.001Z</time></trkpt><trkpt lat="44.78641648832598" lon="10.850680027554054"><ele>30.0</ele><time>2026-04-19T17:32:36.001Z</time></trkpt><trkpt lat="44.786690037067146" lon="10.850663461230559"><ele>30.0</ele><time>2026-04-19T17:32:37.001Z</time></trkpt><trkpt lat="44.786940565220135" lon="10.850763581352874"><ele>29.5</ele><time>2026-04-19T17:32:38.001Z</time></trkpt><trkpt lat="44.787188855882164" lon="10.850864587916568"><ele>29.0</ele><time>2026-04-19T17:32:39.001Z</time></trkpt><trkpt lat="44.78743747737884" lon="10.850964098826646"><ele>28.0</ele><time>2026-04-19T17:32:40.001Z</time></trkpt><trkpt lat="44.78768630088049" lon="10.851068661210602"><ele>27.0</ele><time>2026-04-19T17:32:41.001Z</time></trkpt><trkpt lat="44.78793544025912" lon="10.851169534741086"><ele>27.0</ele><time>2026-04-19T17:32:42.001Z</time></trkpt><trkpt lat="44.78818540234881" lon="10.85126683688436"><ele>27.0</ele><time>2026-04-19T17:32:43.001Z</time></trkpt><trkpt lat="44.78843629469597" lon="10.851358247676979"><ele>26.5</ele><time>2026-04-19T17:32:44.001Z</time></trkpt><trkpt lat="44.78868738725501" lon="10.851447814563596"><ele>26.0</ele><time>2026-04-19T17:32:45.001Z</time></trkpt><trkpt lat="44.78893929455967" lon="10.851533556369482"><ele>26.0</ele><time>2026-04-19T17:32:46.001Z</time></trkpt><trkpt lat="44.789191033178014" lon="10.85161536906287"><ele>26.0</ele><time>2026-04-19T17:32:47.001Z</time></trkpt><trkpt lat="44.789443655919605" lon="10.851693950632672"><ele>25.5</ele><time>2026-04-19T17:32:48.001Z</time></trkpt><trkpt lat="44.78969586906642" lon="10.851769903039877"><ele>25.0</ele><time>2026-04-19T17:32:49.001Z</time></trkpt><trkpt lat="44.78994879341404" lon="10.851841840368598"><ele>25.0</ele><time>2026-04-19T17:32:50.001Z</time></trkpt><trkpt lat="44.79020276768195" lon="10.851909532300176"><ele>25.0</ele><time>2026-04-19T17:32:51.001Z</time></trkpt><trkpt lat="44.79045696338193" lon="10.85197619569821"><ele>25.0</ele><time>2026-04-19T17:32:52.001Z</time></trkpt><trkpt lat="44.79071114007882" lon="10.852039697952149"><ele>25.0</ele><time>2026-04-19T17:32:53.001Z</time></trkpt><trkpt lat="44.79096604170994" lon="10.852098265217796"><ele>25.5</ele><time>2026-04-19T17:32:54.001Z</time></trkpt><trkpt lat="44.79122093431844" lon="10.852153259630557"><ele>26.0</ele><time>2026-04-19T17:32:55.001Z</time></trkpt><trkpt lat="44.791476807008685" lon="10.852204133724408"><ele>26.0</ele><time>2026-04-19T17:32:56.001Z</time></trkpt><trkpt lat="44.79173305562981" lon="10.852251621092275"><ele>26.0</ele><time>2026-04-19T17:32:57.001Z</time></trkpt><trkpt lat="44.79199000758113" lon="10.852295014072158"><ele>25.5</ele><time>2026-04-19T17:32:58.001Z</time></trkpt><trkpt lat="44.79224722249538" lon="10.852337338403322"><ele>25.0</ele><time>2026-04-19T17:32:59.001Z</time></trkpt><trkpt lat="44.79250551760701" lon="10.852373841900057"><ele>25.5</ele><time>2026-04-19T17:33:00.001Z</time></trkpt><trkpt lat="44.79276359842125" lon="10.852408224175079"><ele>26.0</ele><time>2026-04-19T17:33:01.001Z</time></trkpt><trkpt lat="44.79302182798712" lon="10.85244055642615"><ele>26.0</ele><time>2026-04-19T17:33:02.001Z</time></trkpt><trkpt lat="44.79327964964684" lon="10.852468652277556"><ele>26.0</ele><time>2026-04-19T17:33:03.001Z</time></trkpt><trkpt lat="44.79353789932779" lon="10.85249227289813"><ele>26.5</ele><time>2026-04-19T17:33:04.001Z</time></trkpt><trkpt lat="44.79379701161044" lon="10.85250993038722"><ele>27.0</ele><time>2026-04-19T17:33:05.001Z</time></trkpt><trkpt lat="44.794056267468164" lon="10.852523562400577"><ele>27.0</ele><time>2026-04-19T17:33:06.001Z</time></trkpt><trkpt lat="44.79431411173624" lon="10.852534625102548"><ele>27.0</ele><time>2026-04-19T17:33:07.001Z</time></trkpt><trkpt lat="44.79457261220627" lon="10.852541613318124"><ele>25.5</ele><time>2026-04-19T17:33:08.001Z</time></trkpt><trkpt lat="44.794831626493135" lon="10.852549779419824"><ele>24.0</ele><time>2026-04-19T17:33:09.001Z</time></trkpt><trkpt lat="44.7950901367555" lon="10.85255614375993"><ele>25.0</ele><time>2026-04-19T17:33:10.001Z</time></trkpt><trkpt lat="44.79534867041264" lon="10.852558967643548"><ele>26.0</ele><time>2026-04-19T17:33:11.001Z</time></trkpt><trkpt lat="44.79560741567778" lon="10.852554458940384"><ele>26.0</ele><time>2026-04-19T17:33:12.001Z</time></trkpt><trkpt lat="44.795865866050455" lon="10.852547146566266"><ele>26.0</ele><time>2026-04-19T17:33:13.001Z</time></trkpt><trkpt lat="44.79612405893272" lon="10.852535376976379"><ele>25.0</ele><time>2026-04-19T17:33:14.001Z</time></trkpt><trkpt lat="44.7963824222351" lon="10.852521159792985"><ele>24.0</ele><time>2026-04-19T17:33:15.001Z</time></trkpt><trkpt lat="44.79664134520498" lon="10.852504964916552"><ele>25.0</ele><time>2026-04-19T17:33:16.001Z</time></trkpt><trkpt lat="44.79689936432687" lon="10.852485089130283"><ele>26.0</ele><time>2026-04-19T17:33:17.001Z</time></trkpt><trkpt lat="44.79715793053779" lon="10.85245901063088"><ele>26.0</ele><time>2026-04-19T17:33:18.001Z</time></trkpt><trkpt lat="44.797415769212115" lon="10.85243179847181"><ele>26.0</ele><time>2026-04-19T17:33:19.001Z</time></trkpt><trkpt lat="44.79767424827167" lon="10.852401680663975"><ele>25.5</ele><time>2026-04-19T17:33:20.001Z</time></trkpt><trkpt lat="44.797931963375696" lon="10.852369504542166"><ele>25.0</ele><time>2026-04-19T17:33:21.001Z</time></trkpt><trkpt lat="44.79818913298209" lon="10.852335293114272"><ele>25.0</ele><time>2026-04-19T17:33:22.001Z</time></trkpt><trkpt lat="44.79844682450966" lon="10.852302630813197"><ele>25.0</ele><time>2026-04-19T17:33:23.001Z</time></trkpt><trkpt lat="44.7987043027237" lon="10.85227045990801"><ele>24.5</ele><time>2026-04-19T17:33:24.001Z</time></trkpt><trkpt lat="44.79896181894661" lon="10.852239633815785"><ele>24.0</ele><time>2026-04-19T17:33:25.001Z</time></trkpt><trkpt lat="44.79921989895295" lon="10.852208425643822"><ele>25.0</ele><time>2026-04-19T17:33:26.001Z</time></trkpt><trkpt lat="44.79947844437376" lon="10.852175760115209"><ele>26.0</ele><time>2026-04-19T17:33:27.001Z</time></trkpt><trkpt lat="44.79973662098307" lon="10.852145602560219"><ele>26.0</ele><time>2026-04-19T17:33:28.001Z</time></trkpt><trkpt lat="44.79999435364006" lon="10.852114948843568"><ele>26.0</ele><time>2026-04-19T17:33:29.001Z</time></trkpt><trkpt lat="44.800252542784044" lon="10.85208293549671"><ele>25.0</ele><time>2026-04-19T17:33:30.001Z</time></trkpt><trkpt lat="44.800510252676304" lon="10.852049738661934"><ele>24.0</ele><time>2026-04-19T17:33:31.001Z</time></trkpt><trkpt lat="44.80076847458953" lon="10.852018734339518"><ele>24.5</ele><time>2026-04-19T17:33:32.001Z</time></trkpt><trkpt lat="44.80102622355714" lon="10.85198712330451"><ele>25.0</ele><time>2026-04-19T17:33:33.001Z</time></trkpt><trkpt lat="44.80128437171132" lon="10.85195456574887"><ele>25.0</ele><time>2026-04-19T17:33:34.001Z</time></trkpt><trkpt lat="44.80154262729585" lon="10.851921236838129"><ele>25.0</ele><time>2026-04-19T17:33:35.001Z</time></trkpt><trkpt lat="44.80180086094031" lon="10.851887580589384"><ele>25.0</ele><time>2026-04-19T17:33:36.001Z</time></trkpt><trkpt lat="44.80205914919092" lon="10.851856214071493"><ele>25.0</ele><time>2026-04-19T17:33:37.001Z</time></trkpt><trkpt lat="44.80231736968391" lon="10.851824178335342"><ele>25.0</ele><time>2026-04-19T17:33:38.001Z</time></trkpt><trkpt lat="44.80257556366144" lon="10.851792745499482"><ele>25.0</ele><time>2026-04-19T17:33:39.001Z</time></trkpt><trkpt lat="44.80283253979239" lon="10.851760165612342"><ele>26.0</ele><time>2026-04-19T17:33:40.001Z</time></trkpt><trkpt lat="44.80309119637593" lon="10.851729701060306"><ele>27.0</ele><time>2026-04-19T17:33:41.001Z</time></trkpt><trkpt lat="44.80335032948084" lon="10.851698940231513"><ele>26.5</ele><time>2026-04-19T17:33:42.001Z</time></trkpt><trkpt lat="44.803614272058255" lon="10.851771862131752"><ele>26.0</ele><time>2026-04-19T17:33:43.001Z</time></trkpt><trkpt lat="44.803871380776755" lon="10.851740501858924"><ele>26.0</ele><time>2026-04-19T17:33:44.001Z</time></trkpt><trkpt lat="44.804129380778576" lon="10.85170903287449"><ele>26.0</ele><time>2026-04-19T17:33:45.001Z</time></trkpt><trkpt lat="44.804387353262335" lon="10.851677567242431"><ele>26.0</ele><time>2026-04-19T17:33:46.001Z</time></trkpt><trkpt lat="44.8046445162321" lon="10.851646183499339"><ele>26.0</ele><time>2026-04-19T17:33:47.001Z</time></trkpt><trkpt lat="44.80490282880386" lon="10.851614602838946"><ele>26.0</ele><time>2026-04-19T17:33:48.001Z</time></trkpt><trkpt lat="44.80516114306982" lon="10.85158302197678"><ele>26.0</ele><time>2026-04-19T17:33:49.001Z</time></trkpt><trkpt lat="44.805419184961714" lon="10.851551474407788"><ele>24.5</ele><time>2026-04-19T17:33:50.001Z</time></trkpt><trkpt lat="44.80567729192705" lon="10.851519918884028"><ele>23.0</ele><time>2026-04-19T17:33:51.001Z</time></trkpt><trkpt lat="44.8059348844861" lon="10.851488426254765"><ele>23.5</ele><time>2026-04-19T17:33:52.001Z</time></trkpt><trkpt lat="44.80619296478528" lon="10.851456873993106"><ele>24.0</ele><time>2026-04-19T17:33:53.001Z</time></trkpt><trkpt lat="44.806450964376545" lon="10.851425331595307"><ele>24.0</ele><time>2026-04-19T17:33:54.001Z</time></trkpt><trkpt lat="44.80670877600983" lon="10.851393812178841"><ele>24.0</ele><time>2026-04-19T17:33:55.001Z</time></trkpt><trkpt lat="44.806966604613585" lon="10.851362290687932"><ele>24.0</ele><time>2026-04-19T17:33:56.001Z</time></trkpt><trkpt lat="44.80722449683096" lon="10.851330761420229"><ele>24.0</ele><time>2026-04-19T17:33:57.001Z</time></trkpt><trkpt lat="44.807482931143504" lon="10.851299157994259"><ele>24.0</ele><time>2026-04-19T17:33:58.001Z</time></trkpt><trkpt lat="44.80774076787028" lon="10.851267635539717"><ele>24.0</ele><time>2026-04-19T17:33:59.001Z</time></trkpt><trkpt lat="44.807998180334536" lon="10.851236164924172"><ele>24.0</ele><time>2026-04-19T17:34:00.001Z</time></trkpt><trkpt lat="44.80825607835258" lon="10.851204634874033"><ele>24.0</ele><time>2026-04-19T17:34:01.001Z</time></trkpt><trkpt lat="44.808514043332224" lon="10.851173096766457"><ele>24.0</ele><time>2026-04-19T17:34:02.001Z</time></trkpt><trkpt lat="44.80877080387926" lon="10.851141705842744"><ele>24.0</ele><time>2026-04-19T17:34:03.001Z</time></trkpt><trkpt lat="44.809029240974304" lon="10.851110109960143"><ele>24.0</ele><time>2026-04-19T17:34:04.001Z</time></trkpt><trkpt lat="44.80928725709517" lon="10.851078416944555"><ele>24.0</ele><time>2026-04-19T17:34:05.001Z</time></trkpt><trkpt lat="44.809545348269445" lon="10.85104663951211"><ele>23.5</ele><time>2026-04-19T17:34:06.001Z</time></trkpt><trkpt lat="44.809803602023464" lon="10.851014842079357"><ele>23.0</ele><time>2026-04-19T17:34:07.001Z</time></trkpt><trkpt lat="44.81006157878807" lon="10.850983078746573"><ele>23.0</ele><time>2026-04-19T17:34:08.001Z</time></trkpt><trkpt lat="44.8103190985642" lon="10.85095137166847"><ele>23.0</ele><time>2026-04-19T17:34:09.001Z</time></trkpt><trkpt lat="44.810576087132574" lon="10.850920374717255"><ele>23.0</ele><time>2026-04-19T17:34:10.001Z</time></trkpt><trkpt lat="44.81083429563241" lon="10.850889387320999"><ele>23.0</ele><time>2026-04-19T17:34:11.001Z</time></trkpt><trkpt lat="44.811092531216794" lon="10.850858396676088"><ele>23.0</ele><time>2026-04-19T17:34:12.001Z</time></trkpt><trkpt lat="44.81134984533073" lon="10.850829749773029"><ele>23.0</ele><time>2026-04-19T17:34:13.001Z</time></trkpt><trkpt lat="44.81160667340228" lon="10.850806663578409"><ele>23.0</ele><time>2026-04-19T17:34:14.001Z</time></trkpt><trkpt lat="44.81186457377473" lon="10.850785696979413"><ele>23.0</ele><time>2026-04-19T17:34:15.001Z</time></trkpt><trkpt lat="44.81212256856185" lon="10.85076661454471"><ele>23.0</ele><time>2026-04-19T17:34:16.001Z</time></trkpt><trkpt lat="44.81237994584913" lon="10.850753364841612"><ele>23.0</ele><time>2026-04-19T17:34:17.001Z</time></trkpt><trkpt lat="44.81263901739217" lon="10.85074294705953"><ele>23.0</ele><time>2026-04-19T17:34:18.001Z</time></trkpt><trkpt lat="44.81289723278083" lon="10.85073364123798"><ele>23.0</ele><time>2026-04-19T17:34:19.001Z</time></trkpt><trkpt lat="44.8131550287354" lon="10.850727551981862"><ele>23.0</ele><time>2026-04-19T17:34:20.001Z</time></trkpt><trkpt lat="44.81341281700057" lon="10.850729552800312"><ele>23.0</ele><time>2026-04-19T17:34:21.001Z</time></trkpt><trkpt lat="44.8136698133" lon="10.850735714095027"><ele>24.5</ele><time>2026-04-19T17:34:22.001Z</time></trkpt><trkpt lat="44.81392817500563" lon="10.850745576957175"><ele>26.0</ele><time>2026-04-19T17:34:23.001Z</time></trkpt><trkpt lat="44.814185788316074" lon="10.85075714917854"><ele>24.5</ele><time>2026-04-19T17:34:24.001Z</time></trkpt><trkpt lat="44.81444181835561" lon="10.85076971235022"><ele>23.0</ele><time>2026-04-19T17:34:25.001Z</time></trkpt><trkpt lat="44.81470018738294" lon="10.850785499560324"><ele>23.0</ele><time>2026-04-19T17:34:26.001Z</time></trkpt><trkpt lat="44.814956361864674" lon="10.850806118245469"><ele>23.0</ele><time>2026-04-19T17:34:27.001Z</time></trkpt><trkpt lat="44.81521414559479" lon="10.850833486467165"><ele>22.5</ele><time>2026-04-19T17:34:28.001Z</time></trkpt><trkpt lat="44.81547310519946" lon="10.850860049996783"><ele>22.0</ele><time>2026-04-19T17:34:29.001Z</time></trkpt><trkpt lat="44.81573080536881" lon="10.850890066308647"><ele>22.0</ele><time>2026-04-19T17:34:30.001Z</time></trkpt><trkpt lat="44.815986186552735" lon="10.850926272742678"><ele>22.0</ele><time>2026-04-19T17:34:31.001Z</time></trkpt><trkpt lat="44.81624381870835" lon="10.850965598909589"><ele>22.0</ele><time>2026-04-19T17:34:32.001Z</time></trkpt><trkpt lat="44.81650028460575" lon="10.851005751806882"><ele>22.0</ele><time>2026-04-19T17:34:33.001Z</time></trkpt><trkpt lat="44.81675702723644" lon="10.851048142666162"><ele>22.0</ele><time>2026-04-19T17:34:34.001Z</time></trkpt><trkpt lat="44.8170134589533" lon="10.851090481705684"><ele>22.0</ele><time>2026-04-19T17:34:35.001Z</time></trkpt><trkpt lat="44.817270097982814" lon="10.85113285423733"><ele>22.0</ele><time>2026-04-19T17:34:36.001Z</time></trkpt><trkpt lat="44.81752668399206" lon="10.851175218014326"><ele>22.0</ele><time>2026-04-19T17:34:37.001Z</time></trkpt><trkpt lat="44.81779402642818" lon="10.85109694103827"><ele>21.0</ele><time>2026-04-19T17:34:38.001Z</time></trkpt><trkpt lat="44.81805187546571" lon="10.851137771212503"><ele>20.0</ele><time>2026-04-19T17:34:39.001Z</time></trkpt><trkpt lat="44.81830917867174" lon="10.85117936060683"><ele>20.5</ele><time>2026-04-19T17:34:40.001Z</time></trkpt><trkpt lat="44.818566131719635" lon="10.851221403107816"><ele>21.0</ele><time>2026-04-19T17:34:41.001Z</time></trkpt><trkpt lat="44.81882293315395" lon="10.851263166696135"><ele>21.0</ele><time>2026-04-19T17:34:42.001Z</time></trkpt><trkpt lat="44.8190792672561" lon="10.851303983688583"><ele>21.0</ele><time>2026-04-19T17:34:43.001Z</time></trkpt><trkpt lat="44.81933614024286" lon="10.851346829237224"><ele>21.0</ele><time>2026-04-19T17:34:44.001Z</time></trkpt><trkpt lat="44.819592873537864" lon="10.851387917084894"><ele>21.0</ele><time>2026-04-19T17:34:45.001Z</time></trkpt><trkpt lat="44.81985016176063" lon="10.851428615268178"><ele>21.0</ele><time>2026-04-19T17:34:46.001Z</time></trkpt><trkpt lat="44.82010697256385" lon="10.851468714563692"><ele>21.0</ele><time>2026-04-19T17:34:47.001Z</time></trkpt><trkpt lat="44.82036306121416" lon="10.851507951060269"><ele>21.0</ele><time>2026-04-19T17:34:48.001Z</time></trkpt><trkpt lat="44.820612653406606" lon="10.851548134371429"><ele>21.0</ele><time>2026-04-19T17:34:49.001Z</time></trkpt><trkpt lat="44.82085613629137" lon="10.85158829529463"><ele>21.0</ele><time>2026-04-19T17:34:50.001Z</time></trkpt><trkpt lat="44.82109357900443" lon="10.85162831114895"><ele>21.0</ele><time>2026-04-19T17:34:51.001Z</time></trkpt><trkpt lat="44.821326440432856" lon="10.851667511765228"><ele>21.0</ele><time>2026-04-19T17:34:52.001Z</time></trkpt><trkpt lat="44.82155393676689" lon="10.85170454713768"><ele>21.0</ele><time>2026-04-19T17:34:53.001Z</time></trkpt><trkpt lat="44.8217765502172" lon="10.851741014290598"><ele>21.0</ele><time>2026-04-19T17:34:54.001Z</time></trkpt><trkpt lat="44.821993894210884" lon="10.851775879943512"><ele>21.0</ele><time>2026-04-19T17:34:55.001Z</time></trkpt><trkpt lat="44.82219932823495" lon="10.851808327674515"><ele>21.0</ele><time>2026-04-19T17:34:56.001Z</time></trkpt><trkpt lat="44.82238949508462" lon="10.851845131682579"><ele>21.0</ele><time>2026-04-19T17:34:57.001Z</time></trkpt><trkpt lat="44.82257407785888" lon="10.851900749634234"><ele>21.0</ele><time>2026-04-19T17:34:58.001Z</time></trkpt><trkpt lat="44.82275108458667" lon="10.851975473527041"><ele>21.0</ele><time>2026-04-19T17:34:59.001Z</time></trkpt><trkpt lat="44.82292591548627" lon="10.852056853989339"><ele>20.666666666666668</ele><time>2026-04-19T17:35:00.001Z</time></trkpt><trkpt lat="44.82310627394003" lon="10.85212699545654"><ele>20.333333333333336</ele><time>2026-04-19T17:35:01.001Z</time></trkpt><trkpt lat="44.82328949136001" lon="10.852176581137567"><ele>20.0</ele><time>2026-04-19T17:35:02.001Z</time></trkpt><trkpt lat="44.82347444433613" lon="10.852219339778056"><ele>20.333333333333336</ele><time>2026-04-19T17:35:03.001Z</time></trkpt><trkpt lat="44.82366239244775" lon="10.852260367698827"><ele>20.666666666666668</ele><time>2026-04-19T17:35:04.001Z</time></trkpt><trkpt lat="44.8238562434565" lon="10.852298845568145"><ele>21.0</ele><time>2026-04-19T17:35:05.001Z</time></trkpt><trkpt lat="44.82405531306831" lon="10.852337494335343"><ele>21.0</ele><time>2026-04-19T17:35:06.001Z</time></trkpt><trkpt lat="44.82425993854325" lon="10.852376828635984"><ele>21.0</ele><time>2026-04-19T17:35:07.001Z</time></trkpt><trkpt lat="44.824470987730784" lon="10.85241517782398"><ele>21.0</ele><time>2026-04-19T17:35:08.001Z</time></trkpt><trkpt lat="44.82468707484279" lon="10.852451791132214"><ele>20.5</ele><time>2026-04-19T17:35:09.001Z</time></trkpt><trkpt lat="44.824909021782055" lon="10.852487385430626"><ele>20.0</ele><time>2026-04-19T17:35:10.001Z</time></trkpt><trkpt lat="44.825136297274284" lon="10.852522705984605"><ele>20.0</ele><time>2026-04-19T17:35:11.001Z</time></trkpt><trkpt lat="44.825369144465824" lon="10.852555139179545"><ele>20.0</ele><time>2026-04-19T17:35:12.001Z</time></trkpt><trkpt lat="44.82560652680195" lon="10.85258809330269"><ele>20.0</ele><time>2026-04-19T17:35:13.001Z</time></trkpt><trkpt lat="44.82585030591646" lon="10.852620112940734"><ele>20.0</ele><time>2026-04-19T17:35:14.001Z</time></trkpt><trkpt lat="44.826099482253895" lon="10.85265199382802"><ele>20.0</ele><time>2026-04-19T17:35:15.001Z</time></trkpt><trkpt lat="44.82635446229829" lon="10.852682310509206"><ele>20.0</ele><time>2026-04-19T17:35:16.001Z</time></trkpt><trkpt lat="44.826612949999884" lon="10.85271010735854"><ele>19.5</ele><time>2026-04-19T17:35:17.001Z</time></trkpt><trkpt lat="44.826873131833864" lon="10.85273614036521"><ele>19.0</ele><time>2026-04-19T17:35:18.001Z</time></trkpt><trkpt lat="44.82713360412985" lon="10.852762065655527"><ele>19.0</ele><time>2026-04-19T17:35:19.001Z</time></trkpt><trkpt lat="44.827393216613494" lon="10.852786064218"><ele>19.0</ele><time>2026-04-19T17:35:20.001Z</time></trkpt><trkpt lat="44.827652190111834" lon="10.852806785671323"><ele>19.0</ele><time>2026-04-19T17:35:21.001Z</time></trkpt><trkpt lat="44.827910553187095" lon="10.852823317380595"><ele>19.0</ele><time>2026-04-19T17:35:22.001Z</time></trkpt><trkpt lat="44.828168366745494" lon="10.85284080985191"><ele>19.0</ele><time>2026-04-19T17:35:23.001Z</time></trkpt><trkpt lat="44.82842604695545" lon="10.852855454110852"><ele>19.0</ele><time>2026-04-19T17:35:24.001Z</time></trkpt><trkpt lat="44.82868402574484" lon="10.852869631994114"><ele>19.0</ele><time>2026-04-19T17:35:25.001Z</time></trkpt><trkpt lat="44.82894144467817" lon="10.852884281160328"><ele>19.0</ele><time>2026-04-19T17:35:26.001Z</time></trkpt><trkpt lat="44.82920029570634" lon="10.852897043735648"><ele>19.0</ele><time>2026-04-19T17:35:27.001Z</time></trkpt><trkpt lat="44.82945938739107" lon="10.852908307281442"><ele>19.0</ele><time>2026-04-19T17:35:28.001Z</time></trkpt><trkpt lat="44.82971843560947" lon="10.852918030544334"><ele>19.0</ele><time>2026-04-19T17:35:29.001Z</time></trkpt><trkpt lat="44.82998080501741" lon="10.85292220847491"><ele>19.0</ele><time>2026-04-19T17:35:30.001Z</time></trkpt><trkpt lat="44.83024742230228" lon="10.852925452242218"><ele>19.5</ele><time>2026-04-19T17:35:31.001Z</time></trkpt><trkpt lat="44.83051892714675" lon="10.852928868722541"><ele>20.0</ele><time>2026-04-19T17:35:32.001Z</time></trkpt><trkpt lat="44.83079616017603" lon="10.85292678539348"><ele>20.0</ele><time>2026-04-19T17:35:33.001Z</time></trkpt><trkpt lat="44.831078112555566" lon="10.852924562994136"><ele>20.0</ele><time>2026-04-19T17:35:34.001Z</time></trkpt><trkpt lat="44.83136616350966" lon="10.852919223080125"><ele>20.0</ele><time>2026-04-19T17:35:35.001Z</time></trkpt><trkpt lat="44.83165893652295" lon="10.852912490957769"><ele>20.0</ele><time>2026-04-19T17:35:36.001Z</time></trkpt><trkpt lat="44.83195590835553" lon="10.852904808758774"><ele>20.0</ele><time>2026-04-19T17:35:37.001Z</time></trkpt><trkpt lat="44.832252679366015" lon="10.852896353571175"><ele>20.0</ele><time>2026-04-19T17:35:38.001Z</time></trkpt><trkpt lat="44.83254877717819" lon="10.852883888579436"><ele>20.0</ele><time>2026-04-19T17:35:39.001Z</time></trkpt><trkpt lat="44.83284352930404" lon="10.852871511729173"><ele>20.0</ele><time>2026-04-19T17:35:40.001Z</time></trkpt><trkpt lat="44.83313741622318" lon="10.852857847701387"><ele>20.0</ele><time>2026-04-19T17:35:41.001Z</time></trkpt><trkpt lat="44.83343108482463" lon="10.852843433434208"><ele>20.0</ele><time>2026-04-19T17:35:42.001Z</time></trkpt><trkpt lat="44.83372387756609" lon="10.852828890492754"><ele>20.0</ele><time>2026-04-19T17:35:43.001Z</time></trkpt><trkpt lat="44.834016543451" lon="10.852811393385206"><ele>20.0</ele><time>2026-04-19T17:35:44.001Z</time></trkpt><trkpt lat="44.834309138871404" lon="10.85279430730228"><ele>20.0</ele><time>2026-04-19T17:35:45.001Z</time></trkpt><trkpt lat="44.83460230872701" lon="10.852777636257679"><ele>20.0</ele><time>2026-04-19T17:35:46.001Z</time></trkpt><trkpt lat="44.83489612817152" lon="10.852760059123616"><ele>19.0</ele><time>2026-04-19T17:35:47.001Z</time></trkpt><trkpt lat="44.83518926910063" lon="10.852745901917142"><ele>18.0</ele><time>2026-04-19T17:35:48.001Z</time></trkpt><trkpt lat="44.835483345248896" lon="10.85273036328272"><ele>18.0</ele><time>2026-04-19T17:35:49.001Z</time></trkpt><trkpt lat="44.8357774539946" lon="10.852714447624214"><ele>18.0</ele><time>2026-04-19T17:35:50.001Z</time></trkpt><trkpt lat="44.83607167452181" lon="10.852700152441326"><ele>19.0</ele><time>2026-04-19T17:35:51.001Z</time></trkpt><trkpt lat="44.8363647356277" lon="10.852684439741996"><ele>20.0</ele><time>2026-04-19T17:35:52.001Z</time></trkpt><trkpt lat="44.836658192431365" lon="10.852669442029828"><ele>21.0</ele><time>2026-04-19T17:35:53.001Z</time></trkpt><trkpt lat="44.836951403663164" lon="10.852655455848033"><ele>22.0</ele><time>2026-04-19T17:35:54.001Z</time></trkpt><trkpt lat="44.837244673496855" lon="10.852641721963547"><ele>22.0</ele><time>2026-04-19T17:35:55.001Z</time></trkpt><trkpt lat="44.837538575763084" lon="10.852628226578448"><ele>22.0</ele><time>2026-04-19T17:35:56.001Z</time></trkpt><trkpt lat="44.83783242506283" lon="10.852612553092705"><ele>21.0</ele><time>2026-04-19T17:35:57.001Z</time></trkpt><trkpt lat="44.8381249532602" lon="10.852598402965066"><ele>20.0</ele><time>2026-04-19T17:35:58.001Z</time></trkpt><trkpt lat="44.838418546223096" lon="10.852581717939005"><ele>19.5</ele><time>2026-04-19T17:35:59.001Z</time></trkpt><trkpt lat="44.838712024912475" lon="10.852565752990762"><ele>19.0</ele><time>2026-04-19T17:36:00.001Z</time></trkpt><trkpt lat="44.83900607900521" lon="10.852550384267664"><ele>19.0</ele><time>2026-04-19T17:36:01.001Z</time></trkpt><trkpt lat="44.839300202912234" lon="10.852532444363979"><ele>19.0</ele><time>2026-04-19T17:36:02.001Z</time></trkpt><trkpt lat="44.83959416763263" lon="10.852516584562524"><ele>19.5</ele><time>2026-04-19T17:36:03.001Z</time></trkpt><trkpt lat="44.83988795453302" lon="10.852499839749806"><ele>20.0</ele><time>2026-04-19T17:36:04.001Z</time></trkpt><trkpt lat="44.840182047506644" lon="10.852481373818486"><ele>19.0</ele><time>2026-04-19T17:36:05.001Z</time></trkpt><trkpt lat="44.840475617155455" lon="10.852466687711559"><ele>18.0</ele><time>2026-04-19T17:36:06.001Z</time></trkpt><trkpt lat="44.84076936762911" lon="10.852450804316819"><ele>19.0</ele><time>2026-04-19T17:36:07.001Z</time></trkpt><trkpt lat="44.84106336496676" lon="10.852435592201049"><ele>20.0</ele><time>2026-04-19T17:36:08.001Z</time></trkpt><trkpt lat="44.84135722568331" lon="10.852422411500243"><ele>20.0</ele><time>2026-04-19T17:36:09.001Z</time></trkpt><trkpt lat="44.841650806112504" lon="10.852409369015978"><ele>20.0</ele><time>2026-04-19T17:36:10.001Z</time></trkpt><trkpt lat="44.84194444163539" lon="10.852397659656893"><ele>19.5</ele><time>2026-04-19T17:36:11.001Z</time></trkpt><trkpt lat="44.84223831559131" lon="10.852383394865868"><ele>19.0</ele><time>2026-04-19T17:36:12.001Z</time></trkpt><trkpt lat="44.84253137431596" lon="10.85236664262859"><ele>19.5</ele><time>2026-04-19T17:36:13.001Z</time></trkpt><trkpt lat="44.84282486489118" lon="10.852351643947305"><ele>20.0</ele><time>2026-04-19T17:36:14.001Z</time></trkpt><trkpt lat="44.84311847990687" lon="10.852337645958103"><ele>20.0</ele><time>2026-04-19T17:36:15.001Z</time></trkpt><trkpt lat="44.84341216876692" lon="10.852321304856636"><ele>20.0</ele><time>2026-04-19T17:36:16.001Z</time></trkpt><trkpt lat="44.84370609011941" lon="10.852306633414655"><ele>19.5</ele><time>2026-04-19T17:36:17.001Z</time></trkpt><trkpt lat="44.84400003861206" lon="10.852293239572445"><ele>19.0</ele><time>2026-04-19T17:36:18.001Z</time></trkpt><trkpt lat="44.84429387053063" lon="10.852278521226664"><ele>19.0</ele><time>2026-04-19T17:36:19.001Z</time></trkpt><trkpt lat="44.84458773127733" lon="10.852261369417398"><ele>19.0</ele><time>2026-04-19T17:36:20.001Z</time></trkpt><trkpt lat="44.844881492618626" lon="10.85224841076727"><ele>19.0</ele><time>2026-04-19T17:36:21.001Z</time></trkpt><trkpt lat="44.845175655096284" lon="10.852233049518603"><ele>19.0</ele><time>2026-04-19T17:36:22.001Z</time></trkpt><trkpt lat="44.84546956481337" lon="10.852215971277994"><ele>19.0</ele><time>2026-04-19T17:36:23.001Z</time></trkpt><trkpt lat="44.84576306727087" lon="10.85219928956643"><ele>19.0</ele><time>2026-04-19T17:36:24.001Z</time></trkpt><trkpt lat="44.846056193090504" lon="10.852183190141096"><ele>19.0</ele><time>2026-04-19T17:36:25.001Z</time></trkpt><trkpt lat="44.84634959096726" lon="10.85216377960312"><ele>19.0</ele><time>2026-04-19T17:36:26.001Z</time></trkpt><trkpt lat="44.84664300760389" lon="10.852149677521568"><ele>18.5</ele><time>2026-04-19T17:36:27.001Z</time></trkpt><trkpt lat="44.84693283141898" lon="10.852134659696652"><ele>18.0</ele><time>2026-04-19T17:36:28.001Z</time></trkpt><trkpt lat="44.84721648901629" lon="10.852117837044956"><ele>18.0</ele><time>2026-04-19T17:36:29.001Z</time></trkpt><trkpt lat="44.84749794669604" lon="10.85210440241683"><ele>18.0</ele><time>2026-04-19T17:36:30.001Z</time></trkpt><trkpt lat="44.84777902482268" lon="10.852092167137057"><ele>18.0</ele><time>2026-04-19T17:36:31.001Z</time></trkpt><trkpt lat="44.84806102298502" lon="10.852081456211605"><ele>18.0</ele><time>2026-04-19T17:36:32.001Z</time></trkpt><trkpt lat="44.848343929112964" lon="10.85207434801817"><ele>19.0</ele><time>2026-04-19T17:36:33.001Z</time></trkpt><trkpt lat="44.84862819786197" lon="10.852063456492836"><ele>20.0</ele><time>2026-04-19T17:36:34.001Z</time></trkpt><trkpt lat="44.84891098526422" lon="10.852057436279255"><ele>20.0</ele><time>2026-04-19T17:36:35.001Z</time></trkpt><trkpt lat="44.84918728393177" lon="10.852048947530097"><ele>20.0</ele><time>2026-04-19T17:36:36.001Z</time></trkpt><trkpt lat="44.8494595130101" lon="10.852038030327412"><ele>20.0</ele><time>2026-04-19T17:36:37.001Z</time></trkpt><trkpt lat="44.84973096411287" lon="10.852030509214607"><ele>20.0</ele><time>2026-04-19T17:36:38.001Z</time></trkpt><trkpt lat="44.85000232703025" lon="10.852024897402481"><ele>20.0</ele><time>2026-04-19T17:36:39.001Z</time></trkpt><trkpt lat="44.85027533147804" lon="10.852013504280041"><ele>20.0</ele><time>2026-04-19T17:36:40.001Z</time></trkpt><trkpt lat="44.85054926634661" lon="10.852003205412721"><ele>20.0</ele><time>2026-04-19T17:36:41.001Z</time></trkpt><trkpt lat="44.85082424591601" lon="10.851991855392646"><ele>20.0</ele><time>2026-04-19T17:36:42.001Z</time></trkpt><trkpt lat="44.85109977013052" lon="10.851982415102006"><ele>20.0</ele><time>2026-04-19T17:36:43.001Z</time></trkpt><trkpt lat="44.85137545259773" lon="10.851968937020718"><ele>20.0</ele><time>2026-04-19T17:36:44.001Z</time></trkpt><trkpt lat="44.851651307308444" lon="10.85195772173634"><ele>19.5</ele><time>2026-04-19T17:36:45.001Z</time></trkpt><trkpt lat="44.851927093353645" lon="10.851947085179704"><ele>19.0</ele><time>2026-04-19T17:36:46.001Z</time></trkpt><trkpt lat="44.85220262125272" lon="10.851939857287867"><ele>19.0</ele><time>2026-04-19T17:36:47.001Z</time></trkpt><trkpt lat="44.85247783686191" lon="10.851932431028882"><ele>19.0</ele><time>2026-04-19T17:36:48.001Z</time></trkpt><trkpt lat="44.852752899703965" lon="10.851925614160669"><ele>19.0</ele><time>2026-04-19T17:36:49.001Z</time></trkpt><trkpt lat="44.85302822367944" lon="10.851917953754487"><ele>19.0</ele><time>2026-04-19T17:36:50.001Z</time></trkpt><trkpt lat="44.853303566670746" lon="10.851910968127159"><ele>18.5</ele><time>2026-04-19T17:36:51.001Z</time></trkpt><trkpt lat="44.85357880754461" lon="10.851906929060135"><ele>18.0</ele><time>2026-04-19T17:36:52.001Z</time></trkpt><trkpt lat="44.85385386489224" lon="10.851897921282237"><ele>18.0</ele><time>2026-04-19T17:36:53.001Z</time></trkpt><trkpt lat="44.85412887494883" lon="10.851890666439369"><ele>18.0</ele><time>2026-04-19T17:36:54.001Z</time></trkpt><trkpt lat="44.85440439419621" lon="10.851877262655536"><ele>18.0</ele><time>2026-04-19T17:36:55.001Z</time></trkpt><trkpt lat="44.8546797092518" lon="10.851864037572382"><ele>18.0</ele><time>2026-04-19T17:36:56.001Z</time></trkpt><trkpt lat="44.85495462130722" lon="10.851852566599923"><ele>19.0</ele><time>2026-04-19T17:36:57.001Z</time></trkpt><trkpt lat="44.85522922758368" lon="10.851844052547177"><ele>20.0</ele><time>2026-04-19T17:36:58.001Z</time></trkpt><trkpt lat="44.85550320246671" lon="10.85183220474627"><ele>20.0</ele><time>2026-04-19T17:36:59.001Z</time></trkpt><trkpt lat="44.85577798616435" lon="10.851825759326331"><ele>20.0</ele><time>2026-04-19T17:37:00.001Z</time></trkpt><trkpt lat="44.85605295572989" lon="10.851820141154445"><ele>19.0</ele><time>2026-04-19T17:37:01.001Z</time></trkpt><trkpt lat="44.8563287741123" lon="10.85181100628176"><ele>18.0</ele><time>2026-04-19T17:37:02.001Z</time></trkpt><trkpt lat="44.85660440341071" lon="10.851803812163533"><ele>18.5</ele><time>2026-04-19T17:37:03.001Z</time></trkpt><trkpt lat="44.85687928404466" lon="10.85179699798496"><ele>19.0</ele><time>2026-04-19T17:37:04.001Z</time></trkpt><trkpt lat="44.857154193795424" lon="10.851784644243034"><ele>19.0</ele><time>2026-04-19T17:37:05.001Z</time></trkpt><trkpt lat="44.85742864114551" lon="10.851780877844481"><ele>19.0</ele><time>2026-04-19T17:37:06.001Z</time></trkpt><trkpt lat="44.85770329819546" lon="10.85177320239579"><ele>20.0</ele><time>2026-04-19T17:37:07.001Z</time></trkpt><trkpt lat="44.85797788195904" lon="10.851772709358881"><ele>21.0</ele><time>2026-04-19T17:37:08.001Z</time></trkpt><trkpt lat="44.85825308376561" lon="10.851762322374096"><ele>21.0</ele><time>2026-04-19T17:37:09.001Z</time></trkpt><trkpt lat="44.858527877467196" lon="10.851751840796858"><ele>21.0</ele><time>2026-04-19T17:37:10.001Z</time></trkpt><trkpt lat="44.85880112648589" lon="10.851743818882746"><ele>21.0</ele><time>2026-04-19T17:37:11.001Z</time></trkpt><trkpt lat="44.85906776355208" lon="10.85173183621501"><ele>21.0</ele><time>2026-04-19T17:37:12.001Z</time></trkpt><trkpt lat="44.85932908332454" lon="10.851722020653785"><ele>20.5</ele><time>2026-04-19T17:37:13.001Z</time></trkpt><trkpt lat="44.859590219776294" lon="10.851714021767565"><ele>20.0</ele><time>2026-04-19T17:37:14.001Z</time></trkpt><trkpt lat="44.85985382370892" lon="10.851705448575773"><ele>19.5</ele><time>2026-04-19T17:37:15.001Z</time></trkpt><trkpt lat="44.86012276100147" lon="10.851692064978122"><ele>19.0</ele><time>2026-04-19T17:37:16.001Z</time></trkpt><trkpt lat="44.86039541330792" lon="10.851683403024284"><ele>19.0</ele><time>2026-04-19T17:37:17.001Z</time></trkpt><trkpt lat="44.860671036091134" lon="10.851670900405532"><ele>19.0</ele><time>2026-04-19T17:37:18.001Z</time></trkpt><trkpt lat="44.86094862474393" lon="10.851660161795362"><ele>19.0</ele><time>2026-04-19T17:37:19.001Z</time></trkpt><trkpt lat="44.861226782804046" lon="10.851648883608112"><ele>19.0</ele><time>2026-04-19T17:37:20.001Z</time></trkpt><trkpt lat="44.86150305899638" lon="10.851636886747947"><ele>19.0</ele><time>2026-04-19T17:37:21.001Z</time></trkpt><trkpt lat="44.86177991892846" lon="10.851621346930544"><ele>19.0</ele><time>2026-04-19T17:37:22.001Z</time></trkpt><trkpt lat="44.86205529706349" lon="10.851608094275294"><ele>18.5</ele><time>2026-04-19T17:37:23.001Z</time></trkpt><trkpt lat="44.862329880350366" lon="10.85158568357214"><ele>18.0</ele><time>2026-04-19T17:37:24.001Z</time></trkpt><trkpt lat="44.86260323539826" lon="10.851560187001752"><ele>18.0</ele><time>2026-04-19T17:37:25.001Z</time></trkpt><trkpt lat="44.86287575654928" lon="10.85153045368905"><ele>18.0</ele><time>2026-04-19T17:37:26.001Z</time></trkpt><trkpt lat="44.863149501742335" lon="10.851500898127895"><ele>18.0</ele><time>2026-04-19T17:37:27.001Z</time></trkpt><trkpt lat="44.86342342457438" lon="10.851464808330546"><ele>18.0</ele><time>2026-04-19T17:37:28.001Z</time></trkpt><trkpt lat="44.86369710379145" lon="10.851424568531481"><ele>18.0</ele><time>2026-04-19T17:37:29.001Z</time></trkpt><trkpt lat="44.86397040659992" lon="10.851389759605071"><ele>18.0</ele><time>2026-04-19T17:37:30.001Z</time></trkpt><trkpt lat="44.86424380280661" lon="10.85134961942658"><ele>18.0</ele><time>2026-04-19T17:37:31.001Z</time></trkpt><trkpt lat="44.86451743493784" lon="10.851311713898257"><ele>18.0</ele><time>2026-04-19T17:37:32.001Z</time></trkpt><trkpt lat="44.86479030992731" lon="10.851271416987224"><ele>18.0</ele><time>2026-04-19T17:37:33.001Z</time></trkpt><trkpt lat="44.86506345754195" lon="10.851228683601635"><ele>18.0</ele><time>2026-04-19T17:37:34.001Z</time></trkpt><trkpt lat="44.865336551249136" lon="10.851188239237867"><ele>18.0</ele><time>2026-04-19T17:37:35.001Z</time></trkpt><trkpt lat="44.86561048388747" lon="10.85115051635346"><ele>18.0</ele><time>2026-04-19T17:37:36.001Z</time></trkpt><trkpt lat="44.86588425662823" lon="10.85111073059244"><ele>18.5</ele><time>2026-04-19T17:37:37.001Z</time></trkpt><trkpt lat="44.86615843136635" lon="10.851069384472872"><ele>19.0</ele><time>2026-04-19T17:37:38.001Z</time></trkpt><trkpt lat="44.866432920763785" lon="10.851032961051837"><ele>19.0</ele><time>2026-04-19T17:37:39.001Z</time></trkpt><trkpt lat="44.86670758879121" lon="10.850992700467376"><ele>19.0</ele><time>2026-04-19T17:37:40.001Z</time></trkpt><trkpt lat="44.866981686407094" lon="10.850950969283346"><ele>19.5</ele><time>2026-04-19T17:37:41.001Z</time></trkpt><trkpt lat="44.867257286488154" lon="10.85091194851418"><ele>20.0</ele><time>2026-04-19T17:37:42.001Z</time></trkpt><trkpt lat="44.86753312733082" lon="10.850874545797089"><ele>20.0</ele><time>2026-04-19T17:37:43.001Z</time></trkpt><trkpt lat="44.867808261788774" lon="10.850833556663405"><ele>20.0</ele><time>2026-04-19T17:37:44.001Z</time></trkpt><trkpt lat="44.86808284344775" lon="10.850796670260829"><ele>20.0</ele><time>2026-04-19T17:37:45.001Z</time></trkpt><trkpt lat="44.86835722084591" lon="10.850757850466628"><ele>20.0</ele><time>2026-04-19T17:37:46.001Z</time></trkpt><trkpt lat="44.86863106678114" lon="10.850718762031756"><ele>19.0</ele><time>2026-04-19T17:37:47.001Z</time></trkpt><trkpt lat="44.86890491345469" lon="10.850678299118071"><ele>18.0</ele><time>2026-04-19T17:37:48.001Z</time></trkpt><trkpt lat="44.86917910200077" lon="10.850641851738713"><ele>18.5</ele><time>2026-04-19T17:37:49.001Z</time></trkpt><trkpt lat="44.869452768456334" lon="10.850601770495578"><ele>19.0</ele><time>2026-04-19T17:37:50.001Z</time></trkpt><trkpt lat="44.86972726519175" lon="10.85056753604437"><ele>19.0</ele><time>2026-04-19T17:37:51.001Z</time></trkpt><trkpt lat="44.87000064591405" lon="10.85052759912268"><ele>19.0</ele><time>2026-04-19T17:37:52.001Z</time></trkpt><trkpt lat="44.87027413490543" lon="10.850485559192684"><ele>18.5</ele><time>2026-04-19T17:37:53.001Z</time></trkpt><trkpt lat="44.87054618000652" lon="10.850448414516439"><ele>18.0</ele><time>2026-04-19T17:37:54.001Z</time></trkpt><trkpt lat="44.870818236186395" lon="10.850409234096482"><ele>18.5</ele><time>2026-04-19T17:37:55.001Z</time></trkpt><trkpt lat="44.87109085519812" lon="10.850369238392062"><ele>19.0</ele><time>2026-04-19T17:37:56.001Z</time></trkpt><trkpt lat="44.87136414362579" lon="10.850330152567293"><ele>19.0</ele><time>2026-04-19T17:37:57.001Z</time></trkpt><trkpt lat="44.871638039991815" lon="10.8502912593529"><ele>19.0</ele><time>2026-04-19T17:37:58.001Z</time></trkpt><trkpt lat="44.871911906305684" lon="10.850252669363533"><ele>19.0</ele><time>2026-04-19T17:37:59.001Z</time></trkpt><trkpt lat="44.8721860333337" lon="10.850213685887853"><ele>19.0</ele><time>2026-04-19T17:38:00.001Z</time></trkpt><trkpt lat="44.87245953465981" lon="10.850173547110963"><ele>19.5</ele><time>2026-04-19T17:38:01.001Z</time></trkpt><trkpt lat="44.872733370443555" lon="10.850136975830578"><ele>20.0</ele><time>2026-04-19T17:38:02.001Z</time></trkpt><trkpt lat="44.873007139207935" lon="10.850100814045428"><ele>21.0</ele><time>2026-04-19T17:38:03.001Z</time></trkpt><trkpt lat="44.87328105239734" lon="10.850062066414512"><ele>22.0</ele><time>2026-04-19T17:38:04.001Z</time></trkpt><trkpt lat="44.873555186613835" lon="10.8500335851328"><ele>22.0</ele><time>2026-04-19T17:38:05.001Z</time></trkpt><trkpt lat="44.87382921059829" lon="10.850005768764118"><ele>22.0</ele><time>2026-04-19T17:38:06.001Z</time></trkpt><trkpt lat="44.87410341353851" lon="10.849983118024607"><ele>22.0</ele><time>2026-04-19T17:38:07.001Z</time></trkpt><trkpt lat="44.87437800836979" lon="10.8499645208398"><ele>22.0</ele><time>2026-04-19T17:38:08.001Z</time></trkpt><trkpt lat="44.8746529482234" lon="10.84995073584641"><ele>22.0</ele><time>2026-04-19T17:38:09.001Z</time></trkpt><trkpt lat="44.87492769040891" lon="10.849940669412858"><ele>22.0</ele><time>2026-04-19T17:38:10.001Z</time></trkpt><trkpt lat="44.875202251959756" lon="10.84993705244511"><ele>22.0</ele><time>2026-04-19T17:38:11.001Z</time></trkpt><trkpt lat="44.875476883683106" lon="10.849936198706986"><ele>22.0</ele><time>2026-04-19T17:38:12.001Z</time></trkpt><trkpt lat="44.87575294852936" lon="10.849938708144066"><ele>23.0</ele><time>2026-04-19T17:38:13.001Z</time></trkpt><trkpt lat="44.876028330477055" lon="10.849945227038914"><ele>24.0</ele><time>2026-04-19T17:38:14.001Z</time></trkpt><trkpt lat="44.87630450397346" lon="10.84995173905525"><ele>24.0</ele><time>2026-04-19T17:38:15.001Z</time></trkpt><trkpt lat="44.87658018639953" lon="10.849965997735863"><ele>24.0</ele><time>2026-04-19T17:38:16.001Z</time></trkpt><trkpt lat="44.8768552578775" lon="10.849980997583625"><ele>22.5</ele><time>2026-04-19T17:38:17.001Z</time></trkpt><trkpt lat="44.87713132299196" lon="10.850003514409902"><ele>21.0</ele><time>2026-04-19T17:38:18.001Z</time></trkpt><trkpt lat="44.87740734884695" lon="10.85002234943135"><ele>21.0</ele><time>2026-04-19T17:38:19.001Z</time></trkpt><trkpt lat="44.87768280516431" lon="10.850037835905887"><ele>21.0</ele><time>2026-04-19T17:38:20.001Z</time></trkpt><trkpt lat="44.87795816854173" lon="10.850056465253852"><ele>21.0</ele><time>2026-04-19T17:38:21.001Z</time></trkpt><trkpt lat="44.87823336215391" lon="10.850064930361697"><ele>21.0</ele><time>2026-04-19T17:38:22.001Z</time></trkpt><trkpt lat="44.87850723678007" lon="10.850078844880827"><ele>20.5</ele><time>2026-04-19T17:38:23.001Z</time></trkpt><trkpt lat="44.87878184510835" lon="10.850091286823584"><ele>20.0</ele><time>2026-04-19T17:38:24.001Z</time></trkpt><trkpt lat="44.87905543898103" lon="10.85010688443517"><ele>19.5</ele><time>2026-04-19T17:38:25.001Z</time></trkpt><trkpt lat="44.87933042733651" lon="10.850120980403071"><ele>19.0</ele><time>2026-04-19T17:38:26.001Z</time></trkpt><trkpt lat="44.87960504515184" lon="10.85013516058162"><ele>20.5</ele><time>2026-04-19T17:38:27.001Z</time></trkpt><trkpt lat="44.87988018428828" lon="10.850150062837958"><ele>22.0</ele><time>2026-04-19T17:38:28.001Z</time></trkpt><trkpt lat="44.880154980214215" lon="10.850159967975294"><ele>22.0</ele><time>2026-04-19T17:38:29.001Z</time></trkpt><trkpt lat="44.88043005022833" lon="10.850174235863916"><ele>22.0</ele><time>2026-04-19T17:38:30.001Z</time></trkpt><trkpt lat="44.88070542845357" lon="10.850189546534207"><ele>20.5</ele><time>2026-04-19T17:38:31.001Z</time></trkpt><trkpt lat="44.880980334969955" lon="10.850205622366145"><ele>19.0</ele><time>2026-04-19T17:38:32.001Z</time></trkpt><trkpt lat="44.88125573053847" lon="10.850220318909052"><ele>19.0</ele><time>2026-04-19T17:38:33.001Z</time></trkpt><trkpt lat="44.88153059378361" lon="10.850236926995008"><ele>19.0</ele><time>2026-04-19T17:38:34.001Z</time></trkpt><trkpt lat="44.8818059696552" lon="10.850256311663035"><ele>18.5</ele><time>2026-04-19T17:38:35.001Z</time></trkpt><trkpt lat="44.8820811519972" lon="10.850269454232869"><ele>18.0</ele><time>2026-04-19T17:38:36.001Z</time></trkpt><trkpt lat="44.882355409651076" lon="10.850290508711089"><ele>18.0</ele><time>2026-04-19T17:38:37.001Z</time></trkpt><trkpt lat="44.88263002540103" lon="10.850309093638929"><ele>18.0</ele><time>2026-04-19T17:38:38.001Z</time></trkpt><trkpt lat="44.88290423529769" lon="10.850324999217696"><ele>18.0</ele><time>2026-04-19T17:38:39.001Z</time></trkpt><trkpt lat="44.88317894410724" lon="10.850339125775683"><ele>18.0</ele><time>2026-04-19T17:38:40.001Z</time></trkpt><trkpt lat="44.8834536876581" lon="10.85034873648081"><ele>18.5</ele><time>2026-04-19T17:38:41.001Z</time></trkpt><trkpt lat="44.88372882731299" lon="10.85036430027689"><ele>19.0</ele><time>2026-04-19T17:38:42.001Z</time></trkpt><trkpt lat="44.88400357108052" lon="10.850376098612312"><ele>20.0</ele><time>2026-04-19T17:38:43.001Z</time></trkpt><trkpt lat="44.88427796990465" lon="10.850390090498324"><ele>21.0</ele><time>2026-04-19T17:38:44.001Z</time></trkpt><trkpt lat="44.88455247269254" lon="10.850405001537325"><ele>21.0</ele><time>2026-04-19T17:38:45.001Z</time></trkpt><trkpt lat="44.8848261500844" lon="10.850420917794084"><ele>21.0</ele><time>2026-04-19T17:38:46.001Z</time></trkpt><trkpt lat="44.88509929015709" lon="10.850438119539376"><ele>20.5</ele><time>2026-04-19T17:38:47.001Z</time></trkpt><trkpt lat="44.885372830796996" lon="10.850454101788868"><ele>20.0</ele><time>2026-04-19T17:38:48.001Z</time></trkpt><trkpt lat="44.88564656560337" lon="10.850470126717628"><ele>20.0</ele><time>2026-04-19T17:38:49.001Z</time></trkpt><trkpt lat="44.88592110500419" lon="10.850485607213532"><ele>20.0</ele><time>2026-04-19T17:38:50.001Z</time></trkpt><trkpt lat="44.88619601774471" lon="10.850500122471653"><ele>20.5</ele><time>2026-04-19T17:38:51.001Z</time></trkpt><trkpt lat="44.88647103704171" lon="10.850514113607359"><ele>21.0</ele><time>2026-04-19T17:38:52.001Z</time></trkpt><trkpt lat="44.8867455712562" lon="10.850528271203949"><ele>20.5</ele><time>2026-04-19T17:38:53.001Z</time></trkpt><trkpt lat="44.88702117364692" lon="10.850542361748534"><ele>20.0</ele><time>2026-04-19T17:38:54.001Z</time></trkpt><trkpt lat="44.88729660076542" lon="10.850555680200005"><ele>20.0</ele><time>2026-04-19T17:38:55.001Z</time></trkpt><trkpt lat="44.887571994664185" lon="10.850570912870452"><ele>20.0</ele><time>2026-04-19T17:38:56.001Z</time></trkpt><trkpt lat="44.88784709476379" lon="10.8505863038885"><ele>20.0</ele><time>2026-04-19T17:38:57.001Z</time></trkpt><trkpt lat="44.88812207175518" lon="10.850601317182036"><ele>20.0</ele><time>2026-04-19T17:38:58.001Z</time></trkpt><trkpt lat="44.88839723081497" lon="10.850617952276812"><ele>20.5</ele><time>2026-04-19T17:38:59.001Z</time></trkpt><trkpt lat="44.888673312777634" lon="10.850634928534223"><ele>21.0</ele><time>2026-04-19T17:39:00.001Z</time></trkpt><trkpt lat="44.888948861422875" lon="10.850652749578572"><ele>21.0</ele><time>2026-04-19T17:39:01.001Z</time></trkpt><trkpt lat="44.8892238094934" lon="10.850669147622497"><ele>21.0</ele><time>2026-04-19T17:39:02.001Z</time></trkpt><trkpt lat="44.889498934312364" lon="10.850683960657216"><ele>21.0</ele><time>2026-04-19T17:39:03.001Z</time></trkpt><trkpt lat="44.889773430810976" lon="10.850697819905331"><ele>21.0</ele><time>2026-04-19T17:39:04.001Z</time></trkpt><trkpt lat="44.8900485505491" lon="10.850708876995435"><ele>20.0</ele><time>2026-04-19T17:39:05.001Z</time></trkpt><trkpt lat="44.89032433392998" lon="10.850717204265449"><ele>19.0</ele><time>2026-04-19T17:39:06.001Z</time></trkpt><trkpt lat="44.890599110042025" lon="10.850723440410416"><ele>19.0</ele><time>2026-04-19T17:39:07.001Z</time></trkpt><trkpt lat="44.89087462643852" lon="10.850728346160052"><ele>19.0</ele><time>2026-04-19T17:39:08.001Z</time></trkpt><trkpt lat="44.891151073896516" lon="10.850729824731319"><ele>19.5</ele><time>2026-04-19T17:39:09.001Z</time></trkpt><trkpt lat="44.89142723669153" lon="10.850728767938925"><ele>20.0</ele><time>2026-04-19T17:39:10.001Z</time></trkpt><trkpt lat="44.89170312576078" lon="10.850722116954724"><ele>20.0</ele><time>2026-04-19T17:39:11.001Z</time></trkpt><trkpt lat="44.89197924129355" lon="10.85071309179577"><ele>20.0</ele><time>2026-04-19T17:39:12.001Z</time></trkpt><trkpt lat="44.89225465408699" lon="10.850698859978927"><ele>20.0</ele><time>2026-04-19T17:39:13.001Z</time></trkpt><trkpt lat="44.89252965623081" lon="10.850679268202889"><ele>20.0</ele><time>2026-04-19T17:39:14.001Z</time></trkpt><trkpt lat="44.89280413202319" lon="10.85065289495149"><ele>19.0</ele><time>2026-04-19T17:39:15.001Z</time></trkpt><trkpt lat="44.89307856436695" lon="10.850623477266883"><ele>18.0</ele><time>2026-04-19T17:39:16.001Z</time></trkpt><trkpt lat="44.89335287172087" lon="10.85058790957293"><ele>17.5</ele><time>2026-04-19T17:39:17.001Z</time></trkpt><trkpt lat="44.89362626980357" lon="10.85054931806199"><ele>17.0</ele><time>2026-04-19T17:39:18.001Z</time></trkpt><trkpt lat="44.893899616839285" lon="10.850507799040269"><ele>17.0</ele><time>2026-04-19T17:39:19.001Z</time></trkpt><trkpt lat="44.894172742978625" lon="10.850464151364521"><ele>17.0</ele><time>2026-04-19T17:39:20.001Z</time></trkpt><trkpt lat="44.89444482261872" lon="10.850417933484499"><ele>16.5</ele><time>2026-04-19T17:39:21.001Z</time></trkpt><trkpt lat="44.894716748603486" lon="10.850368850290126"><ele>16.0</ele><time>2026-04-19T17:39:22.001Z</time></trkpt><trkpt lat="44.8949892814503" lon="10.850318030336966"><ele>17.0</ele><time>2026-04-19T17:39:23.001Z</time></trkpt><trkpt lat="44.895261272115306" lon="10.85026461102694"><ele>18.0</ele><time>2026-04-19T17:39:24.001Z</time></trkpt><trkpt lat="44.89553356536662" lon="10.850210999246768"><ele>18.0</ele><time>2026-04-19T17:39:25.001Z</time></trkpt><trkpt lat="44.89580603992662" lon="10.850157868409239"><ele>18.0</ele><time>2026-04-19T17:39:26.001Z</time></trkpt><trkpt lat="44.896078330608745" lon="10.850103922860084"><ele>17.0</ele><time>2026-04-19T17:39:27.001Z</time></trkpt><trkpt lat="44.89635035584703" lon="10.850049775153803"><ele>16.0</ele><time>2026-04-19T17:39:28.001Z</time></trkpt><trkpt lat="44.89662247450313" lon="10.849994881947945"><ele>16.5</ele><time>2026-04-19T17:39:29.001Z</time></trkpt><trkpt lat="44.89689464366467" lon="10.849938015525161"><ele>17.0</ele><time>2026-04-19T17:39:30.001Z</time></trkpt><trkpt lat="44.89716684745719" lon="10.849881651584719"><ele>17.0</ele><time>2026-04-19T17:39:31.001Z</time></trkpt><trkpt lat="44.89743933283854" lon="10.849826578662242"><ele>17.0</ele><time>2026-04-19T17:39:32.001Z</time></trkpt><trkpt lat="44.89771164416836" lon="10.84977209820467"><ele>16.5</ele><time>2026-04-19T17:39:33.001Z</time></trkpt><trkpt lat="44.897983638034205" lon="10.84971610974251"><ele>16.0</ele><time>2026-04-19T17:39:34.001Z</time></trkpt><trkpt lat="44.89825713374425" lon="10.849661829314194"><ele>16.5</ele><time>2026-04-19T17:39:35.001Z</time></trkpt><trkpt lat="44.89852897800496" lon="10.849606930523413"><ele>17.0</ele><time>2026-04-19T17:39:36.001Z</time></trkpt><trkpt lat="44.89880146363157" lon="10.849551597808027"><ele>17.0</ele><time>2026-04-19T17:39:37.001Z</time></trkpt><trkpt lat="44.89907419663897" lon="10.849499490539596"><ele>17.0</ele><time>2026-04-19T17:39:38.001Z</time></trkpt><trkpt lat="44.899346656036094" lon="10.849445409272349"><ele>17.0</ele><time>2026-04-19T17:39:39.001Z</time></trkpt><trkpt lat="44.89961885035499" lon="10.849392439796885"><ele>17.0</ele><time>2026-04-19T17:39:40.001Z</time></trkpt><trkpt lat="44.89989074194098" lon="10.849337758393345"><ele>17.5</ele><time>2026-04-19T17:39:41.001Z</time></trkpt><trkpt lat="44.900162385725594" lon="10.849281512007714"><ele>18.0</ele><time>2026-04-19T17:39:42.001Z</time></trkpt><trkpt lat="44.90043405915209" lon="10.849227546897465"><ele>18.0</ele><time>2026-04-19T17:39:43.001Z</time></trkpt><trkpt lat="44.90070592611251" lon="10.849171860895398"><ele>18.0</ele><time>2026-04-19T17:39:44.001Z</time></trkpt><trkpt lat="44.90097744482835" lon="10.84911794018745"><ele>18.0</ele><time>2026-04-19T17:39:45.001Z</time></trkpt><trkpt lat="44.90124868577924" lon="10.849062470437556"><ele>18.0</ele><time>2026-04-19T17:39:46.001Z</time></trkpt><trkpt lat="44.90152089371935" lon="10.849008626540835"><ele>17.5</ele><time>2026-04-19T17:39:47.001Z</time></trkpt><trkpt lat="44.901792714943696" lon="10.848956645589178"><ele>17.0</ele><time>2026-04-19T17:39:48.001Z</time></trkpt><trkpt lat="44.90206513514335" lon="10.848902273556517"><ele>17.0</ele><time>2026-04-19T17:39:49.001Z</time></trkpt><trkpt lat="44.90233780408928" lon="10.848849562797273"><ele>17.0</ele><time>2026-04-19T17:39:50.001Z</time></trkpt><trkpt lat="44.90260995608189" lon="10.848792681213535"><ele>17.5</ele><time>2026-04-19T17:39:51.001Z</time></trkpt><trkpt lat="44.90288259715831" lon="10.848738333773857"><ele>18.0</ele><time>2026-04-19T17:39:52.001Z</time></trkpt><trkpt lat="44.903155104512656" lon="10.8486884623363"><ele>17.0</ele><time>2026-04-19T17:39:53.001Z</time></trkpt><trkpt lat="44.90342866971767" lon="10.848636291894124"><ele>16.0</ele><time>2026-04-19T17:39:54.001Z</time></trkpt><trkpt lat="44.90370235002085" lon="10.848591963493947"><ele>16.0</ele><time>2026-04-19T17:39:55.001Z</time></trkpt><trkpt lat="44.90397673937497" lon="10.84854974870177"><ele>16.0</ele><time>2026-04-19T17:39:56.001Z</time></trkpt><trkpt lat="44.90425104908189" lon="10.848511146456344"><ele>15.0</ele><time>2026-04-19T17:39:57.001Z</time></trkpt><trkpt lat="44.904526823258124" lon="10.848480064179933"><ele>14.0</ele><time>2026-04-19T17:39:58.001Z</time></trkpt><trkpt lat="44.90480228606274" lon="10.848454930050565"><ele>16.0</ele><time>2026-04-19T17:39:59.001Z</time></trkpt><trkpt lat="44.905077913205346" lon="10.848433270976306"><ele>18.0</ele><time>2026-04-19T17:40:00.001Z</time></trkpt><trkpt lat="44.905352656372486" lon="10.848416192283793"><ele>18.5</ele><time>2026-04-19T17:40:01.001Z</time></trkpt><trkpt lat="44.90562761431027" lon="10.848404962337609"><ele>19.0</ele><time>2026-04-19T17:40:02.001Z</time></trkpt><trkpt lat="44.90590210017005" lon="10.848395108674849"><ele>18.5</ele><time>2026-04-19T17:40:03.001Z</time></trkpt><trkpt lat="44.90617659185417" lon="10.848390324431609"><ele>18.0</ele><time>2026-04-19T17:40:04.001Z</time></trkpt><trkpt lat="44.90645077303475" lon="10.848390179995347"><ele>18.0</ele><time>2026-04-19T17:40:05.001Z</time></trkpt><trkpt lat="44.90672562082769" lon="10.84839459236676"><ele>18.0</ele><time>2026-04-19T17:40:06.001Z</time></trkpt><trkpt lat="44.906999625908334" lon="10.848407891961356"><ele>19.0</ele><time>2026-04-19T17:40:07.001Z</time></trkpt><trkpt lat="44.90727368338945" lon="10.84842293424197"><ele>20.0</ele><time>2026-04-19T17:40:08.001Z</time></trkpt><trkpt lat="44.907547353701446" lon="10.848445001421986"><ele>19.0</ele><time>2026-04-19T17:40:09.001Z</time></trkpt><trkpt lat="44.90781975371021" lon="10.848469456831534"><ele>18.0</ele><time>2026-04-19T17:40:10.001Z</time></trkpt><trkpt lat="44.90809246610575" lon="10.848503150771412"><ele>18.0</ele><time>2026-04-19T17:40:11.001Z</time></trkpt><trkpt lat="44.908366422778464" lon="10.848539236740265"><ele>18.0</ele><time>2026-04-19T17:40:12.001Z</time></trkpt><trkpt lat="44.90864011030137" lon="10.848579650881122"><ele>19.5</ele><time>2026-04-19T17:40:13.001Z</time></trkpt><trkpt lat="44.90891368327395" lon="10.848624644382639"><ele>21.0</ele><time>2026-04-19T17:40:14.001Z</time></trkpt><trkpt lat="44.909186147279435" lon="10.848671339975635"><ele>20.5</ele><time>2026-04-19T17:40:15.001Z</time></trkpt><trkpt lat="44.909459069945136" lon="10.848725711057678"><ele>20.0</ele><time>2026-04-19T17:40:16.001Z</time></trkpt><trkpt lat="44.90973234151227" lon="10.848784476350296"><ele>20.0</ele><time>2026-04-19T17:40:17.001Z</time></trkpt><trkpt lat="44.910003383225686" lon="10.84885020703199"><ele>20.0</ele><time>2026-04-19T17:40:18.001Z</time></trkpt><trkpt lat="44.91027573906117" lon="10.848915383421048"><ele>20.5</ele><time>2026-04-19T17:40:19.001Z</time></trkpt><trkpt lat="44.9105459734084" lon="10.848984910985168"><ele>21.0</ele><time>2026-04-19T17:40:20.001Z</time></trkpt><trkpt lat="44.91081726607904" lon="10.849061670958463"><ele>21.0</ele><time>2026-04-19T17:40:21.001Z</time></trkpt><trkpt lat="44.911087526457344" lon="10.849143414978165"><ele>21.0</ele><time>2026-04-19T17:40:22.001Z</time></trkpt><trkpt lat="44.91135643836428" lon="10.84923176617035"><ele>21.0</ele><time>2026-04-19T17:40:23.001Z</time></trkpt><trkpt lat="44.91162394093754" lon="10.849322239837633"><ele>21.0</ele><time>2026-04-19T17:40:24.001Z</time></trkpt><trkpt lat="44.91189193068953" lon="10.849414155817827"><ele>20.5</ele><time>2026-04-19T17:40:25.001Z</time></trkpt><trkpt lat="44.91215788400627" lon="10.849516494953793"><ele>20.0</ele><time>2026-04-19T17:40:26.001Z</time></trkpt><trkpt lat="44.91242277700021" lon="10.849621090477864"><ele>20.0</ele><time>2026-04-19T17:40:27.001Z</time></trkpt><trkpt lat="44.91268645862803" lon="10.849729347135783"><ele>20.0</ele><time>2026-04-19T17:40:28.001Z</time></trkpt><trkpt lat="44.91295034926128" lon="10.849838906334819"><ele>20.0</ele><time>2026-04-19T17:40:29.001Z</time></trkpt><trkpt lat="44.913214020005725" lon="10.849946920303719"><ele>20.0</ele><time>2026-04-19T17:40:30.001Z</time></trkpt><trkpt lat="44.91347596001435" lon="10.85006713208155"><ele>20.0</ele><time>2026-04-19T17:40:31.001Z</time></trkpt><trkpt lat="44.91373821689433" lon="10.850186025982726"><ele>20.0</ele><time>2026-04-19T17:40:32.001Z</time></trkpt><trkpt lat="44.91399954386893" lon="10.850305910810079"><ele>21.5</ele><time>2026-04-19T17:40:33.001Z</time></trkpt><trkpt lat="44.91426098108432" lon="10.85042607990003"><ele>23.0</ele><time>2026-04-19T17:40:34.001Z</time></trkpt><trkpt lat="44.914522204197404" lon="10.850546749635154"><ele>23.0</ele><time>2026-04-19T17:40:35.001Z</time></trkpt><trkpt lat="44.91478366747974" lon="10.850665461438489"><ele>23.0</ele><time>2026-04-19T17:40:36.001Z</time></trkpt><trkpt lat="44.91504553831538" lon="10.85078368634115"><ele>22.0</ele><time>2026-04-19T17:40:37.001Z</time></trkpt><trkpt lat="44.91530777883654" lon="10.850899989212625"><ele>21.0</ele><time>2026-04-19T17:40:38.001Z</time></trkpt><trkpt lat="44.9155705288708" lon="10.851014448315253"><ele>21.0</ele><time>2026-04-19T17:40:39.001Z</time></trkpt><trkpt lat="44.91583393955105" lon="10.851126631794182"><ele>21.0</ele><time>2026-04-19T17:40:40.001Z</time></trkpt><trkpt lat="44.91609702817799" lon="10.851242061746067"><ele>21.0</ele><time>2026-04-19T17:40:41.001Z</time></trkpt><trkpt lat="44.91635931565342" lon="10.851357829720238"><ele>21.0</ele><time>2026-04-19T17:40:42.001Z</time></trkpt><trkpt lat="44.9166227217989" lon="10.851474656989488"><ele>20.0</ele><time>2026-04-19T17:40:43.001Z</time></trkpt><trkpt lat="44.91688586782398" lon="10.851592443118376"><ele>19.0</ele><time>2026-04-19T17:40:44.001Z</time></trkpt><trkpt lat="44.91714855784302" lon="10.851712786670987"><ele>18.0</ele><time>2026-04-19T17:40:45.001Z</time></trkpt><trkpt lat="44.917411452176516" lon="10.851832834138998"><ele>17.0</ele><time>2026-04-19T17:40:46.001Z</time></trkpt><trkpt lat="44.91767410202202" lon="10.851952205807134"><ele>17.0</ele><time>2026-04-19T17:40:47.001Z</time></trkpt><trkpt lat="44.917937348837306" lon="10.852068775568808"><ele>17.0</ele><time>2026-04-19T17:40:48.001Z</time></trkpt><trkpt lat="44.91819997919905" lon="10.852184060940015"><ele>17.0</ele><time>2026-04-19T17:40:49.001Z</time></trkpt><trkpt lat="44.91846336741698" lon="10.852298034158764"><ele>17.0</ele><time>2026-04-19T17:40:50.001Z</time></trkpt><trkpt lat="44.91872592746784" lon="10.85241119977877"><ele>17.0</ele><time>2026-04-19T17:40:51.001Z</time></trkpt><trkpt lat="44.91898951069709" lon="10.852523667965482"><ele>17.0</ele><time>2026-04-19T17:40:52.001Z</time></trkpt><trkpt lat="44.919252525738145" lon="10.852638160698477"><ele>17.5</ele><time>2026-04-19T17:40:53.001Z</time></trkpt><trkpt lat="44.919515680548386" lon="10.852753325687301"><ele>18.0</ele><time>2026-04-19T17:40:54.001Z</time></trkpt><trkpt lat="44.91977822350345" lon="10.852870425526932"><ele>18.0</ele><time>2026-04-19T17:40:55.001Z</time></trkpt><trkpt lat="44.92004018857969" lon="10.852989747166493"><ele>18.0</ele><time>2026-04-19T17:40:56.001Z</time></trkpt><trkpt lat="44.92030227013625" lon="10.853106592306096"><ele>18.5</ele><time>2026-04-19T17:40:57.001Z</time></trkpt><trkpt lat="44.920564359319584" lon="10.85322367237078"><ele>19.0</ele><time>2026-04-19T17:40:58.001Z</time></trkpt><trkpt lat="44.9208261570508" lon="10.853338478630741"><ele>19.0</ele><time>2026-04-19T17:40:59.001Z</time></trkpt><trkpt lat="44.9210883614446" lon="10.853453622260336"><ele>19.0</ele><time>2026-04-19T17:41:00.001Z</time></trkpt><trkpt lat="44.921350269505716" lon="10.853569447592482"><ele>18.0</ele><time>2026-04-19T17:41:01.001Z</time></trkpt><trkpt lat="44.921612640294335" lon="10.853686444956757"><ele>17.0</ele><time>2026-04-19T17:41:02.001Z</time></trkpt><trkpt lat="44.92187379582254" lon="10.853805292704832"><ele>17.0</ele><time>2026-04-19T17:41:03.001Z</time></trkpt><trkpt lat="44.92213620062105" lon="10.853921647201085"><ele>17.0</ele><time>2026-04-19T17:41:04.001Z</time></trkpt><trkpt lat="44.92239900731809" lon="10.854037338654395"><ele>18.5</ele><time>2026-04-19T17:41:05.001Z</time></trkpt><trkpt lat="44.922661352177066" lon="10.85415428572714"><ele>20.0</ele><time>2026-04-19T17:41:06.001Z</time></trkpt><trkpt lat="44.92292357082021" lon="10.854274139379582"><ele>19.5</ele><time>2026-04-19T17:41:07.001Z</time></trkpt><trkpt lat="44.92318554140891" lon="10.85439692686016"><ele>19.0</ele><time>2026-04-19T17:41:08.001Z</time></trkpt><trkpt lat="44.923443474645474" lon="10.854528780204975"><ele>17.5</ele><time>2026-04-19T17:41:09.001Z</time></trkpt><trkpt lat="44.923700862987154" lon="10.854663522057349"><ele>16.0</ele><time>2026-04-19T17:41:10.001Z</time></trkpt><trkpt lat="44.92395784040726" lon="10.854803151725635"><ele>16.0</ele><time>2026-04-19T17:41:11.001Z</time></trkpt><trkpt lat="44.92421357483069" lon="10.854945983246019"><ele>16.0</ele><time>2026-04-19T17:41:12.001Z</time></trkpt><trkpt lat="44.9244678717589" lon="10.855094169150966"><ele>16.0</ele><time>2026-04-19T17:41:13.001Z</time></trkpt><trkpt lat="44.924721211940614" lon="10.85524367931598"><ele>16.0</ele><time>2026-04-19T17:41:14.001Z</time></trkpt><trkpt lat="44.92497378811937" lon="10.855398722309815"><ele>16.0</ele><time>2026-04-19T17:41:15.001Z</time></trkpt><trkpt lat="44.925226118806115" lon="10.855556252994143"><ele>16.0</ele><time>2026-04-19T17:41:16.001Z</time></trkpt><trkpt lat="44.92548055738034" lon="10.855717876667384"><ele>16.0</ele><time>2026-04-19T17:41:17.001Z</time></trkpt><trkpt lat="44.925738203787986" lon="10.855886017284911"><ele>16.0</ele><time>2026-04-19T17:41:18.001Z</time></trkpt><trkpt lat="44.92599956052189" lon="10.856058090005874"><ele>16.5</ele><time>2026-04-19T17:41:19.001Z</time></trkpt><trkpt lat="44.92626348889636" lon="10.856238698614481"><ele>17.0</ele><time>2026-04-19T17:41:20.001Z</time></trkpt><trkpt lat="44.92653135477671" lon="10.85642316577361"><ele>17.0</ele><time>2026-04-19T17:41:21.001Z</time></trkpt><trkpt lat="44.926798100761836" lon="10.856609548332969"><ele>17.0</ele><time>2026-04-19T17:41:22.001Z</time></trkpt><trkpt lat="44.92706517417506" lon="10.85679374333077"><ele>17.0</ele><time>2026-04-19T17:41:23.001Z</time></trkpt><trkpt lat="44.92733198954001" lon="10.856975825771407"><ele>17.0</ele><time>2026-04-19T17:41:24.001Z</time></trkpt><trkpt lat="44.92759747013518" lon="10.857158553734308"><ele>17.0</ele><time>2026-04-19T17:41:25.001Z</time></trkpt><trkpt lat="44.92786219447577" lon="10.857342092080625"><ele>17.0</ele><time>2026-04-19T17:41:26.001Z</time></trkpt><trkpt lat="44.92812620826735" lon="10.857524805619597"><ele>16.5</ele><time>2026-04-19T17:41:27.001Z</time></trkpt><trkpt lat="44.92839124417866" lon="10.857707640374992"><ele>16.0</ele><time>2026-04-19T17:41:28.001Z</time></trkpt><trkpt lat="44.92865589832172" lon="10.857888019049298"><ele>16.0</ele><time>2026-04-19T17:41:29.001Z</time></trkpt><trkpt lat="44.9289206811863" lon="10.858068236917514"><ele>16.0</ele><time>2026-04-19T17:41:30.001Z</time></trkpt><trkpt lat="44.929185708474634" lon="10.85825020902448"><ele>15.5</ele><time>2026-04-19T17:41:31.001Z</time></trkpt><trkpt lat="44.92944963593158" lon="10.85843211584644"><ele>15.0</ele><time>2026-04-19T17:41:32.001Z</time></trkpt><trkpt lat="44.929714366137496" lon="10.858613871783051"><ele>15.0</ele><time>2026-04-19T17:41:33.001Z</time></trkpt><trkpt lat="44.92997962666669" lon="10.858796091754899"><ele>15.0</ele><time>2026-04-19T17:41:34.001Z</time></trkpt><trkpt lat="44.93024423891309" lon="10.858978222756592"><ele>15.0</ele><time>2026-04-19T17:41:35.001Z</time></trkpt><trkpt lat="44.930508334082006" lon="10.859161438380935"><ele>15.0</ele><time>2026-04-19T17:41:36.001Z</time></trkpt><trkpt lat="44.93077375040723" lon="10.859343453723646"><ele>15.5</ele><time>2026-04-19T17:41:37.001Z</time></trkpt><trkpt lat="44.931038675194415" lon="10.859523821043215"><ele>16.0</ele><time>2026-04-19T17:41:38.001Z</time></trkpt><trkpt lat="44.93130441583716" lon="10.859703721105543"><ele>16.0</ele><time>2026-04-19T17:41:39.001Z</time></trkpt><trkpt lat="44.93156991003725" lon="10.859883331819681"><ele>16.0</ele><time>2026-04-19T17:41:40.001Z</time></trkpt><trkpt lat="44.93183548024704" lon="10.860063834651054"><ele>17.5</ele><time>2026-04-19T17:41:41.001Z</time></trkpt><trkpt lat="44.93210020752476" lon="10.86024577286974"><ele>19.0</ele><time>2026-04-19T17:41:42.001Z</time></trkpt><trkpt lat="44.932365495549774" lon="10.860426396690196"><ele>19.5</ele><time>2026-04-19T17:41:43.001Z</time></trkpt><trkpt lat="44.932630749339786" lon="10.860608988047462"><ele>20.0</ele><time>2026-04-19T17:41:44.001Z</time></trkpt><trkpt lat="44.9328972060245" lon="10.860792814325029"><ele>19.0</ele><time>2026-04-19T17:41:45.001Z</time></trkpt><trkpt lat="44.93316182033479" lon="10.860973768577884"><ele>18.0</ele><time>2026-04-19T17:41:46.001Z</time></trkpt><trkpt lat="44.93342675462246" lon="10.86115565923006"><ele>17.5</ele><time>2026-04-19T17:41:47.001Z</time></trkpt><trkpt lat="44.933691621260586" lon="10.86133836166159"><ele>17.0</ele><time>2026-04-19T17:41:48.001Z</time></trkpt><trkpt lat="44.93395626434276" lon="10.861520128488207"><ele>17.0</ele><time>2026-04-19T17:41:49.001Z</time></trkpt><trkpt lat="44.93422124290863" lon="10.86170086892761"><ele>17.0</ele><time>2026-04-19T17:41:50.001Z</time></trkpt><trkpt lat="44.934486977783884" lon="10.861880838867851"><ele>17.0</ele><time>2026-04-19T17:41:51.001Z</time></trkpt><trkpt lat="44.93475254133917" lon="10.862061955643753"><ele>17.0</ele><time>2026-04-19T17:41:52.001Z</time></trkpt><trkpt lat="44.93501815335426" lon="10.862242213956439"><ele>17.0</ele><time>2026-04-19T17:41:53.001Z</time></trkpt><trkpt lat="44.9352843093919" lon="10.862424364866037"><ele>17.0</ele><time>2026-04-19T17:41:54.001Z</time></trkpt><trkpt lat="44.935549040399316" lon="10.86260800986176"><ele>17.0</ele><time>2026-04-19T17:41:55.001Z</time></trkpt><trkpt lat="44.93581292750917" lon="10.862791866938938"><ele>17.0</ele><time>2026-04-19T17:41:56.001Z</time></trkpt><trkpt lat="44.936077352548395" lon="10.862976638239623"><ele>16.0</ele><time>2026-04-19T17:41:57.001Z</time></trkpt><trkpt lat="44.93634179681282" lon="10.863158091340619"><ele>15.0</ele><time>2026-04-19T17:41:58.001Z</time></trkpt><trkpt lat="44.936608510709405" lon="10.863333857271149"><ele>15.0</ele><time>2026-04-19T17:41:59.001Z</time></trkpt><trkpt lat="44.936876728559376" lon="10.86350512512741"><ele>15.0</ele><time>2026-04-19T17:42:00.001Z</time></trkpt><trkpt lat="44.93714674866927" lon="10.863671044253373"><ele>15.0</ele><time>2026-04-19T17:42:01.001Z</time></trkpt><trkpt lat="44.93741907721378" lon="10.863828874857798"><ele>15.0</ele><time>2026-04-19T17:42:02.001Z</time></trkpt><trkpt lat="44.937693739894314" lon="10.863979287061522"><ele>16.0</ele><time>2026-04-19T17:42:03.001Z</time></trkpt><trkpt lat="44.93797014440994" lon="10.864118158831475"><ele>17.0</ele><time>2026-04-19T17:42:04.001Z</time></trkpt><trkpt lat="44.93824853382168" lon="10.864248188220914"><ele>16.0</ele><time>2026-04-19T17:42:05.001Z</time></trkpt><trkpt lat="44.9385291828326" lon="10.864369553054168"><ele>15.0</ele><time>2026-04-19T17:42:06.001Z</time></trkpt><trkpt lat="44.93881213365113" lon="10.864481444291908"><ele>15.0</ele><time>2026-04-19T17:42:07.001Z</time></trkpt><trkpt lat="44.93909796464685" lon="10.864582528116994"><ele>15.0</ele><time>2026-04-19T17:42:08.001Z</time></trkpt><trkpt lat="44.93938474307773" lon="10.864675317425434"><ele>16.5</ele><time>2026-04-19T17:42:09.001Z</time></trkpt><trkpt lat="44.93967277058241" lon="10.864759101807184"><ele>18.0</ele><time>2026-04-19T17:42:10.001Z</time></trkpt><trkpt lat="44.939962964196354" lon="10.864833214277134"><ele>18.0</ele><time>2026-04-19T17:42:11.001Z</time></trkpt><trkpt lat="44.94025414016845" lon="10.864896068206251"><ele>18.0</ele><time>2026-04-19T17:42:12.001Z</time></trkpt><trkpt lat="44.940546468614755" lon="10.864949514254398"><ele>18.0</ele><time>2026-04-19T17:42:13.001Z</time></trkpt><trkpt lat="44.94083972008529" lon="10.864994308027608"><ele>18.0</ele><time>2026-04-19T17:42:14.001Z</time></trkpt><trkpt lat="44.94113351943454" lon="10.865029704883145"><ele>18.0</ele><time>2026-04-19T17:42:15.001Z</time></trkpt><trkpt lat="44.94142774822537" lon="10.865056546478408"><ele>18.0</ele><time>2026-04-19T17:42:16.001Z</time></trkpt><trkpt lat="44.94172181249277" lon="10.865072918647725"><ele>18.0</ele><time>2026-04-19T17:42:17.001Z</time></trkpt><trkpt lat="44.942016235085596" lon="10.865078594965318"><ele>18.0</ele><time>2026-04-19T17:42:18.001Z</time></trkpt><trkpt lat="44.94231112450241" lon="10.865076678427569"><ele>18.0</ele><time>2026-04-19T17:42:19.001Z</time></trkpt><trkpt lat="44.942606800619814" lon="10.865064810387311"><ele>18.0</ele><time>2026-04-19T17:42:20.001Z</time></trkpt><trkpt lat="44.942902229321525" lon="10.865046457378662"><ele>18.0</ele><time>2026-04-19T17:42:21.001Z</time></trkpt><trkpt lat="44.943198000327975" lon="10.865024431730134"><ele>18.0</ele><time>2026-04-19T17:42:22.001Z</time></trkpt><trkpt lat="44.94349353339084" lon="10.86500094886684"><ele>18.0</ele><time>2026-04-19T17:42:23.001Z</time></trkpt><trkpt lat="44.94378896429115" lon="10.864975352070116"><ele>18.0</ele><time>2026-04-19T17:42:24.001Z</time></trkpt><trkpt lat="44.94408372429699" lon="10.86494736968185"><ele>18.0</ele><time>2026-04-19T17:42:25.001Z</time></trkpt><trkpt lat="44.94437763880637" lon="10.864919028339314"><ele>18.0</ele><time>2026-04-19T17:42:26.001Z</time></trkpt><trkpt lat="44.94467186263374" lon="10.864889562192165"><ele>18.0</ele><time>2026-04-19T17:42:27.001Z</time></trkpt><trkpt lat="44.9449661019217" lon="10.864859136881595"><ele>18.0</ele><time>2026-04-19T17:42:28.001Z</time></trkpt><trkpt lat="44.94525985663031" lon="10.86483153233541"><ele>17.0</ele><time>2026-04-19T17:42:29.001Z</time></trkpt><trkpt lat="44.94555403584224" lon="10.864804584983698"><ele>16.0</ele><time>2026-04-19T17:42:30.001Z</time></trkpt><trkpt lat="44.945848064252885" lon="10.864778868697517"><ele>16.5</ele><time>2026-04-19T17:42:31.001Z</time></trkpt><trkpt lat="44.94614132164128" lon="10.864751372759597"><ele>17.0</ele><time>2026-04-19T17:42:32.001Z</time></trkpt><trkpt lat="44.946435562020625" lon="10.864724199230025"><ele>15.5</ele><time>2026-04-19T17:42:33.001Z</time></trkpt><trkpt lat="44.946729382841916" lon="10.864695915042992"><ele>14.0</ele><time>2026-04-19T17:42:34.001Z</time></trkpt><trkpt lat="44.9470232027326" lon="10.864667026771414"><ele>14.0</ele><time>2026-04-19T17:42:35.001Z</time></trkpt><trkpt lat="44.94731691663251" lon="10.864638402492792"><ele>14.0</ele><time>2026-04-19T17:42:36.001Z</time></trkpt><trkpt lat="44.947610425516096" lon="10.864609484539281"><ele>15.0</ele><time>2026-04-19T17:42:37.001Z</time></trkpt><trkpt lat="44.947904609915966" lon="10.86458067511567"><ele>16.0</ele><time>2026-04-19T17:42:38.001Z</time></trkpt><trkpt lat="44.94819792730947" lon="10.864554829697996"><ele>16.0</ele><time>2026-04-19T17:42:39.001Z</time></trkpt><trkpt lat="44.948491352045295" lon="10.864529647352487"><ele>16.0</ele><time>2026-04-19T17:42:40.001Z</time></trkpt><trkpt lat="44.94878601216473" lon="10.864503980639237"><ele>16.0</ele><time>2026-04-19T17:42:41.001Z</time></trkpt><trkpt lat="44.94908043996543" lon="10.864477631525405"><ele>16.0</ele><time>2026-04-19T17:42:42.001Z</time></trkpt><trkpt lat="44.94937533741732" lon="10.864449264488611"><ele>16.0</ele><time>2026-04-19T17:42:43.001Z</time></trkpt><trkpt lat="44.94966881000731" lon="10.864419664278218"><ele>16.0</ele><time>2026-04-19T17:42:44.001Z</time></trkpt><trkpt lat="44.94996318251641" lon="10.864389364075848"><ele>16.0</ele><time>2026-04-19T17:42:45.001Z</time></trkpt><trkpt lat="44.95025754071924" lon="10.864360510020193"><ele>16.0</ele><time>2026-04-19T17:42:46.001Z</time></trkpt><trkpt lat="44.95055041032301" lon="10.864330364534554"><ele>16.0</ele><time>2026-04-19T17:42:47.001Z</time></trkpt><trkpt lat="44.9508350620659" lon="10.864300841967266"><ele>16.0</ele><time>2026-04-19T17:42:48.001Z</time></trkpt><trkpt lat="44.95111398871376" lon="10.864268739628114"><ele>17.0</ele><time>2026-04-19T17:42:49.001Z</time></trkpt><trkpt lat="44.951386513244366" lon="10.864231747983675"><ele>18.0</ele><time>2026-04-19T17:42:50.001Z</time></trkpt><trkpt lat="44.951656944375685" lon="10.864192375809148"><ele>17.5</ele><time>2026-04-19T17:42:51.001Z</time></trkpt><trkpt lat="44.95192648106466" lon="10.864149222045134"><ele>17.0</ele><time>2026-04-19T17:42:52.001Z</time></trkpt><trkpt lat="44.95219452100092" lon="10.86410090338262"><ele>17.0</ele><time>2026-04-19T17:42:53.001Z</time></trkpt><trkpt lat="44.95245993885879" lon="10.864049411731681"><ele>17.0</ele><time>2026-04-19T17:42:54.001Z</time></trkpt><trkpt lat="44.952723507983855" lon="10.863995941503573"><ele>16.0</ele><time>2026-04-19T17:42:55.001Z</time></trkpt><trkpt lat="44.95298601056007" lon="10.863934937049661"><ele>15.0</ele><time>2026-04-19T17:42:56.001Z</time></trkpt><trkpt lat="44.953248540276796" lon="10.863870053959564"><ele>14.5</ele><time>2026-04-19T17:42:57.001Z</time></trkpt><trkpt lat="44.95351164028481" lon="10.863805717657302"><ele>14.0</ele><time>2026-04-19T17:42:58.001Z</time></trkpt><trkpt lat="44.95377557790674" lon="10.863737633062792"><ele>14.0</ele><time>2026-04-19T17:42:59.001Z</time></trkpt><trkpt lat="44.95403974407202" lon="10.863664359364876"><ele>14.0</ele><time>2026-04-19T17:43:00.001Z</time></trkpt><trkpt lat="44.954304638196" lon="10.863588129546027"><ele>14.5</ele><time>2026-04-19T17:43:01.001Z</time></trkpt><trkpt lat="44.954569530060404" lon="10.86350792588303"><ele>15.0</ele><time>2026-04-19T17:43:02.001Z</time></trkpt><trkpt lat="44.95483445208319" lon="10.86342101758582"><ele>16.0</ele><time>2026-04-19T17:43:03.001Z</time></trkpt><trkpt lat="44.955099450571424" lon="10.863330679212751"><ele>17.0</ele><time>2026-04-19T17:43:04.001Z</time></trkpt><trkpt lat="44.95536492228092" lon="10.863235686117399"><ele>17.0</ele><time>2026-04-19T17:43:05.001Z</time></trkpt><trkpt lat="44.9556299786062" lon="10.863139274670045"><ele>17.0</ele><time>2026-04-19T17:43:06.001Z</time></trkpt><trkpt lat="44.95589373324835" lon="10.863038338560427"><ele>15.0</ele><time>2026-04-19T17:43:07.001Z</time></trkpt><trkpt lat="44.95615976016133" lon="10.862933321828274"><ele>13.0</ele><time>2026-04-19T17:43:08.001Z</time></trkpt><trkpt lat="44.95642472739018" lon="10.862822256860058"><ele>13.0</ele><time>2026-04-19T17:43:09.001Z</time></trkpt><trkpt lat="44.95668900801993" lon="10.862711189349959"><ele>13.0</ele><time>2026-04-19T17:43:10.001Z</time></trkpt><trkpt lat="44.9569522218384" lon="10.862595665117999"><ele>14.0</ele><time>2026-04-19T17:43:11.001Z</time></trkpt><trkpt lat="44.957214198876805" lon="10.862478825160881"><ele>15.0</ele><time>2026-04-19T17:43:12.001Z</time></trkpt><trkpt lat="44.95747461640554" lon="10.86236391784398"><ele>15.5</ele><time>2026-04-19T17:43:13.001Z</time></trkpt><trkpt lat="44.95773383261138" lon="10.86225033393305"><ele>16.0</ele><time>2026-04-19T17:43:14.001Z</time></trkpt><trkpt lat="44.95799140864589" lon="10.862136745287913"><ele>16.0</ele><time>2026-04-19T17:43:15.001Z</time></trkpt><trkpt lat="44.95824704220172" lon="10.862025971401199"><ele>16.0</ele><time>2026-04-19T17:43:16.001Z</time></trkpt><trkpt lat="44.958500633493166" lon="10.861913584279105"><ele>16.0</ele><time>2026-04-19T17:43:17.001Z</time></trkpt><trkpt lat="44.95875249965217" lon="10.861803736726726"><ele>16.0</ele><time>2026-04-19T17:43:18.001Z</time></trkpt><trkpt lat="44.95900415482239" lon="10.861694881911879"><ele>16.0</ele><time>2026-04-19T17:43:19.001Z</time></trkpt><trkpt lat="44.959256008930666" lon="10.86158346549005"><ele>16.0</ele><time>2026-04-19T17:43:20.001Z</time></trkpt><trkpt lat="44.959506903873844" lon="10.86147254882964"><ele>16.0</ele><time>2026-04-19T17:43:21.001Z</time></trkpt><trkpt lat="44.959759572789594" lon="10.861362839767617"><ele>16.0</ele><time>2026-04-19T17:43:22.001Z</time></trkpt><trkpt lat="44.960012072551834" lon="10.861251796911109"><ele>15.5</ele><time>2026-04-19T17:43:23.001Z</time></trkpt><trkpt lat="44.960265149474935" lon="10.861140138348565"><ele>15.0</ele><time>2026-04-19T17:43:24.001Z</time></trkpt><trkpt lat="44.96051876749328" lon="10.861028383569787"><ele>15.5</ele><time>2026-04-19T17:43:25.001Z</time></trkpt><trkpt lat="44.9607724932201" lon="10.860916186117821"><ele>16.0</ele><time>2026-04-19T17:43:26.001Z</time></trkpt><trkpt lat="44.961025664313375" lon="10.860806088985882"><ele>16.0</ele><time>2026-04-19T17:43:27.001Z</time></trkpt><trkpt lat="44.96127851467651" lon="10.860696743890836"><ele>16.0</ele><time>2026-04-19T17:43:28.001Z</time></trkpt><trkpt lat="44.961607666155075" lon="10.860915460764225"><ele>15.0</ele><time>2026-04-19T17:43:29.001Z</time></trkpt><trkpt lat="44.96185779549748" lon="10.860799106727498"><ele>14.0</ele><time>2026-04-19T17:43:30.001Z</time></trkpt><trkpt lat="44.96210820509391" lon="10.860682397649203"><ele>14.0</ele><time>2026-04-19T17:43:31.001Z</time></trkpt><trkpt lat="44.962356611301075" lon="10.86056656555511"><ele>14.0</ele><time>2026-04-19T17:43:32.001Z</time></trkpt><trkpt lat="44.962603767583055" lon="10.860451316258306"><ele>14.5</ele><time>2026-04-19T17:43:33.001Z</time></trkpt><trkpt lat="44.96285018980072" lon="10.860334338566394"><ele>15.0</ele><time>2026-04-19T17:43:34.001Z</time></trkpt><trkpt lat="44.96309331729746" lon="10.8602183688093"><ele>15.5</ele><time>2026-04-19T17:43:35.001Z</time></trkpt><trkpt lat="44.963335829224675" lon="10.860102692683316"><ele>16.0</ele><time>2026-04-19T17:43:36.001Z</time></trkpt><trkpt lat="44.96357870395668" lon="10.859986843514028"><ele>16.0</ele><time>2026-04-19T17:43:37.001Z</time></trkpt><trkpt lat="44.96382169248361" lon="10.859870940055746"><ele>16.0</ele><time>2026-04-19T17:43:38.001Z</time></trkpt><trkpt lat="44.96406582998415" lon="10.85975448855525"><ele>16.5</ele><time>2026-04-19T17:43:39.001Z</time></trkpt><trkpt lat="44.96431088098391" lon="10.859637601320506"><ele>17.0</ele><time>2026-04-19T17:43:40.001Z</time></trkpt><trkpt lat="44.964554777582855" lon="10.85952427989195"><ele>17.0</ele><time>2026-04-19T17:43:41.001Z</time></trkpt><trkpt lat="44.96480287156027" lon="10.859411579696657"><ele>17.0</ele><time>2026-04-19T17:43:42.001Z</time></trkpt><trkpt lat="44.965051493275816" lon="10.859289098582929"><ele>17.0</ele><time>2026-04-19T17:43:43.001Z</time></trkpt><trkpt lat="44.96529566308543" lon="10.85917383405975"><ele>17.0</ele><time>2026-04-19T17:43:44.001Z</time></trkpt><trkpt lat="44.96554089186746" lon="10.85906019249181"><ele>17.0</ele><time>2026-04-19T17:43:45.001Z</time></trkpt><trkpt lat="44.96578740341234" lon="10.858947245922744"><ele>17.0</ele><time>2026-04-19T17:43:46.001Z</time></trkpt><trkpt lat="44.96603269016244" lon="10.858836418108483"><ele>16.0</ele><time>2026-04-19T17:43:47.001Z</time></trkpt><trkpt lat="44.96627459438668" lon="10.858730710092628"><ele>15.0</ele><time>2026-04-19T17:43:48.001Z</time></trkpt><trkpt lat="44.96651387159794" lon="10.858660126748555"><ele>15.0</ele><time>2026-04-19T17:43:49.001Z</time></trkpt><trkpt lat="44.96673005553666" lon="10.858668751839613"><ele>15.0</ele><time>2026-04-19T17:43:50.001Z</time></trkpt><trkpt lat="44.966947586339984" lon="10.858725108131969"><ele>15.0</ele><time>2026-04-19T17:43:51.001Z</time></trkpt><trkpt lat="44.96717390394108" lon="10.858794152541236"><ele>15.0</ele><time>2026-04-19T17:43:52.001Z</time></trkpt><trkpt lat="44.967415933102416" lon="10.858867865976572"><ele>15.0</ele><time>2026-04-19T17:43:53.001Z</time></trkpt><trkpt lat="44.96769747658668" lon="10.858947963147209"><ele>15.0</ele><time>2026-04-19T17:43:54.001Z</time></trkpt><trkpt lat="44.968332661768564" lon="10.858593510998924"><ele>15.0</ele><time>2026-04-19T17:43:55.001Z</time></trkpt><trkpt lat="44.96850447747309" lon="10.85838699458621"><ele>15.0</ele><time>2026-04-19T17:43:56.001Z</time></trkpt><trkpt lat="44.96855541778502" lon="10.85797373194306"><ele>15.0</ele><time>2026-04-19T17:43:57.001Z</time></trkpt><trkpt lat="44.9688156792861" lon="10.857921647687093"><ele>15.0</ele><time>2026-04-19T17:43:58.001Z</time></trkpt><trkpt lat="44.96907592089786" lon="10.857871201225683"><ele>15.5</ele><time>2026-04-19T17:43:59.001Z</time></trkpt><trkpt lat="44.969336071025715" lon="10.8578190468831"><ele>16.0</ele><time>2026-04-19T17:44:00.001Z</time></trkpt><trkpt lat="44.96959476612427" lon="10.857767424044264"><ele>16.0</ele><time>2026-04-19T17:44:01.001Z</time></trkpt><trkpt lat="44.969855257117956" lon="10.85771715432251"><ele>16.0</ele><time>2026-04-19T17:44:02.001Z</time></trkpt><trkpt lat="44.97011637531986" lon="10.857664254330281"><ele>16.0</ele><time>2026-04-19T17:44:03.001Z</time></trkpt><trkpt lat="44.97037808746832" lon="10.857613462734898"><ele>16.0</ele><time>2026-04-19T17:44:04.001Z</time></trkpt><trkpt lat="44.97064181039098" lon="10.857564079744472"><ele>16.0</ele><time>2026-04-19T17:44:05.001Z</time></trkpt><trkpt lat="44.97090565705732" lon="10.857511110899093"><ele>16.0</ele><time>2026-04-19T17:44:06.001Z</time></trkpt><trkpt lat="44.971171001970944" lon="10.857459421953129"><ele>16.0</ele><time>2026-04-19T17:44:07.001Z</time></trkpt><trkpt lat="44.97143707383751" lon="10.857404075398255"><ele>16.0</ele><time>2026-04-19T17:44:08.001Z</time></trkpt><trkpt lat="44.97170504570607" lon="10.857350035935985"><ele>16.0</ele><time>2026-04-19T17:44:09.001Z</time></trkpt><trkpt lat="44.97197391616019" lon="10.85729642150329"><ele>16.0</ele><time>2026-04-19T17:44:10.001Z</time></trkpt><trkpt lat="44.97224415550704" lon="10.8572409606373"><ele>16.0</ele><time>2026-04-19T17:44:11.001Z</time></trkpt><trkpt lat="44.972515401724536" lon="10.857184203230753"><ele>16.0</ele><time>2026-04-19T17:44:12.001Z</time></trkpt><trkpt lat="44.97278721823041" lon="10.857132068390772"><ele>16.0</ele><time>2026-04-19T17:44:13.001Z</time></trkpt><trkpt lat="44.97305977905747" lon="10.857077359064359"><ele>16.0</ele><time>2026-04-19T17:44:14.001Z</time></trkpt><trkpt lat="44.97333274740528" lon="10.857023299848057"><ele>16.5</ele><time>2026-04-19T17:44:15.001Z</time></trkpt><trkpt lat="44.97360631724203" lon="10.856968794788068"><ele>17.0</ele><time>2026-04-19T17:44:16.001Z</time></trkpt><trkpt lat="44.973880395978604" lon="10.85691377976613"><ele>17.0</ele><time>2026-04-19T17:44:17.001Z</time></trkpt><trkpt lat="44.97415519289977" lon="10.856858670793057"><ele>17.0</ele><time>2026-04-19T17:44:18.001Z</time></trkpt><trkpt lat="44.97443093810963" lon="10.856805916928277"><ele>15.0</ele><time>2026-04-19T17:44:19.001Z</time></trkpt><trkpt lat="44.97470667358772" lon="10.856749010043606"><ele>13.0</ele><time>2026-04-19T17:44:20.001Z</time></trkpt><trkpt lat="44.974983225202" lon="10.856696441956993"><ele>13.5</ele><time>2026-04-19T17:44:21.001Z</time></trkpt><trkpt lat="44.97526011937655" lon="10.856639959237352"><ele>14.0</ele><time>2026-04-19T17:44:22.001Z</time></trkpt><trkpt lat="44.97553739323996" lon="10.856587176392772"><ele>14.0</ele><time>2026-04-19T17:44:23.001Z</time></trkpt><trkpt lat="44.97581318645018" lon="10.85653059039598"><ele>14.0</ele><time>2026-04-19T17:44:24.001Z</time></trkpt><trkpt lat="44.976090257829206" lon="10.856474459128567"><ele>14.0</ele><time>2026-04-19T17:44:25.001Z</time></trkpt><trkpt lat="44.97636679261278" lon="10.856415823951835"><ele>14.0</ele><time>2026-04-19T17:44:26.001Z</time></trkpt><trkpt lat="44.976642761585076" lon="10.856362470429174"><ele>14.0</ele><time>2026-04-19T17:44:27.001Z</time></trkpt><trkpt lat="44.9769184252257" lon="10.856307053262968"><ele>14.0</ele><time>2026-04-19T17:44:28.001Z</time></trkpt><trkpt lat="44.97719364880715" lon="10.856254285349221"><ele>14.0</ele><time>2026-04-19T17:44:29.001Z</time></trkpt><trkpt lat="44.97746823340664" lon="10.856199784645261"><ele>14.0</ele><time>2026-04-19T17:44:30.001Z</time></trkpt><trkpt lat="44.97774237592962" lon="10.856147860250939"><ele>14.5</ele><time>2026-04-19T17:44:31.001Z</time></trkpt><trkpt lat="44.97801604997337" lon="10.856098656171723"><ele>15.0</ele><time>2026-04-19T17:44:32.001Z</time></trkpt><trkpt lat="44.97828933125007" lon="10.856044853762366"><ele>15.0</ele><time>2026-04-19T17:44:33.001Z</time></trkpt><trkpt lat="44.97856162979196" lon="10.855982765596782"><ele>15.0</ele><time>2026-04-19T17:44:34.001Z</time></trkpt><trkpt lat="44.978834359588056" lon="10.855921634903538"><ele>15.0</ele><time>2026-04-19T17:44:35.001Z</time></trkpt><trkpt lat="44.97910769756781" lon="10.85585748972714"><ele>15.0</ele><time>2026-04-19T17:44:36.001Z</time></trkpt><trkpt lat="44.97938256589494" lon="10.855788178648897"><ele>15.0</ele><time>2026-04-19T17:44:37.001Z</time></trkpt><trkpt lat="44.97965785204485" lon="10.855713465915198"><ele>15.0</ele><time>2026-04-19T17:44:38.001Z</time></trkpt><trkpt lat="44.979935085479944" lon="10.85563448915288"><ele>15.0</ele><time>2026-04-19T17:44:39.001Z</time></trkpt><trkpt lat="44.98021184345933" lon="10.855551574656394"><ele>15.0</ele><time>2026-04-19T17:44:40.001Z</time></trkpt><trkpt lat="44.98049064421361" lon="10.855462900012814"><ele>15.0</ele><time>2026-04-19T17:44:41.001Z</time></trkpt><trkpt lat="44.98076966041304" lon="10.855369973886837"><ele>15.0</ele><time>2026-04-19T17:44:42.001Z</time></trkpt><trkpt lat="44.98104984717254" lon="10.855276013488519"><ele>16.0</ele><time>2026-04-19T17:44:43.001Z</time></trkpt><trkpt lat="44.98132823751891" lon="10.85517357428751"><ele>17.0</ele><time>2026-04-19T17:44:44.001Z</time></trkpt><trkpt lat="44.98160421986348" lon="10.855072600034354"><ele>17.5</ele><time>2026-04-19T17:44:45.001Z</time></trkpt><trkpt lat="44.98187951633019" lon="10.854970166923247"><ele>18.0</ele><time>2026-04-19T17:44:46.001Z</time></trkpt><trkpt lat="44.982155226983" lon="10.854869092615617"><ele>18.0</ele><time>2026-04-19T17:44:47.001Z</time></trkpt><trkpt lat="44.982434102889606" lon="10.854763395708325"><ele>18.0</ele><time>2026-04-19T17:44:48.001Z</time></trkpt><trkpt lat="44.98271572381033" lon="10.854659249271958"><ele>17.5</ele><time>2026-04-19T17:44:49.001Z</time></trkpt><trkpt lat="44.983001364316166" lon="10.854547233555632"><ele>17.0</ele><time>2026-04-19T17:44:50.001Z</time></trkpt><trkpt lat="44.98328809965658" lon="10.854431920657245"><ele>16.0</ele><time>2026-04-19T17:44:51.001Z</time></trkpt><trkpt lat="44.983576239207395" lon="10.854319890823389"><ele>15.0</ele><time>2026-04-19T17:44:52.001Z</time></trkpt><trkpt lat="44.983863554353505" lon="10.854209264053704"><ele>15.0</ele><time>2026-04-19T17:44:53.001Z</time></trkpt><trkpt lat="44.98415053173349" lon="10.854100738110274"><ele>15.0</ele><time>2026-04-19T17:44:54.001Z</time></trkpt><trkpt lat="44.98443594347804" lon="10.85398833531486"><ele>15.5</ele><time>2026-04-19T17:44:55.001Z</time></trkpt><trkpt lat="44.98472151482484" lon="10.8538781283366"><ele>16.0</ele><time>2026-04-19T17:44:56.001Z</time></trkpt><trkpt lat="44.98500681948113" lon="10.85376982181812"><ele>16.0</ele><time>2026-04-19T17:44:57.001Z</time></trkpt><trkpt lat="44.98529206658338" lon="10.853662364008551"><ele>16.0</ele><time>2026-04-19T17:44:58.001Z</time></trkpt><trkpt lat="44.98557737399982" lon="10.853555082481645"><ele>15.5</ele><time>2026-04-19T17:44:59.001Z</time></trkpt><trkpt lat="44.985862721037286" lon="10.853447828466319"><ele>15.0</ele><time>2026-04-19T17:45:00.001Z</time></trkpt><trkpt lat="44.98614836840221" lon="10.853339356869514"><ele>15.0</ele><time>2026-04-19T17:45:01.001Z</time></trkpt><trkpt lat="44.986433681032565" lon="10.853230919907412"><ele>15.0</ele><time>2026-04-19T17:45:02.001Z</time></trkpt><trkpt lat="44.986719000341424" lon="10.853121726861096"><ele>16.0</ele><time>2026-04-19T17:45:03.001Z</time></trkpt><trkpt lat="44.9870047929818" lon="10.853015322805188"><ele>17.0</ele><time>2026-04-19T17:45:04.001Z</time></trkpt><trkpt lat="44.98728993208512" lon="10.852905190930533"><ele>16.5</ele><time>2026-04-19T17:45:05.001Z</time></trkpt><trkpt lat="44.987574896417925" lon="10.852795907817148"><ele>16.0</ele><time>2026-04-19T17:45:06.001Z</time></trkpt><trkpt lat="44.987860256358886" lon="10.852684930558338"><ele>16.0</ele><time>2026-04-19T17:45:07.001Z</time></trkpt><trkpt lat="44.98814684384045" lon="10.852578205656938"><ele>16.0</ele><time>2026-04-19T17:45:08.001Z</time></trkpt><trkpt lat="44.98843261661722" lon="10.852466786267915"><ele>16.0</ele><time>2026-04-19T17:45:09.001Z</time></trkpt><trkpt lat="44.98871889128349" lon="10.852359899808473"><ele>16.0</ele><time>2026-04-19T17:45:10.001Z</time></trkpt><trkpt lat="44.989004190238724" lon="10.852248713568745"><ele>16.0</ele><time>2026-04-19T17:45:11.001Z</time></trkpt><trkpt lat="44.98929044729623" lon="10.852143028966498"><ele>16.0</ele><time>2026-04-19T17:45:12.001Z</time></trkpt><trkpt lat="44.989576112084116" lon="10.852035639983903"><ele>16.0</ele><time>2026-04-19T17:45:13.001Z</time></trkpt><trkpt lat="44.98986262928731" lon="10.851929724132203"><ele>16.0</ele><time>2026-04-19T17:45:14.001Z</time></trkpt><trkpt lat="44.99014904629232" lon="10.851824968344555"><ele>16.0</ele><time>2026-04-19T17:45:15.001Z</time></trkpt><trkpt lat="44.990435207236054" lon="10.851720800853496"><ele>16.0</ele><time>2026-04-19T17:45:16.001Z</time></trkpt><trkpt lat="44.990722148022584" lon="10.851618031200768"><ele>16.0</ele><time>2026-04-19T17:45:17.001Z</time></trkpt><trkpt lat="44.99101039077523" lon="10.851523424948038"><ele>16.0</ele><time>2026-04-19T17:45:18.001Z</time></trkpt><trkpt lat="44.99129909373652" lon="10.851435746114378"><ele>16.0</ele><time>2026-04-19T17:45:19.001Z</time></trkpt><trkpt lat="44.991587493757976" lon="10.851347053992239"><ele>16.0</ele><time>2026-04-19T17:45:20.001Z</time></trkpt><trkpt lat="44.991878257987494" lon="10.851267671584571"><ele>16.5</ele><time>2026-04-19T17:45:21.001Z</time></trkpt><trkpt lat="44.99216927837245" lon="10.851191563879567"><ele>17.0</ele><time>2026-04-19T17:45:22.001Z</time></trkpt><trkpt lat="44.992460541525006" lon="10.85111625880855"><ele>17.5</ele><time>2026-04-19T17:45:23.001Z</time></trkpt><trkpt lat="44.99275268398669" lon="10.85104946280079"><ele>18.0</ele><time>2026-04-19T17:45:24.001Z</time></trkpt><trkpt lat="44.99304531778329" lon="10.850987157182512"><ele>18.5</ele><time>2026-04-19T17:45:25.001Z</time></trkpt><trkpt lat="44.99333866411307" lon="10.850934275841139"><ele>19.0</ele><time>2026-04-19T17:45:26.001Z</time></trkpt><trkpt lat="44.993632379262095" lon="10.850878885930864"><ele>18.0</ele><time>2026-04-19T17:45:27.001Z</time></trkpt><trkpt lat="44.9939266540479" lon="10.850836044280069"><ele>17.0</ele><time>2026-04-19T17:45:28.001Z</time></trkpt><trkpt lat="44.99421886881987" lon="10.850790249775734"><ele>16.5</ele><time>2026-04-19T17:45:29.001Z</time></trkpt><trkpt lat="44.994513111296584" lon="10.850752035832247"><ele>16.0</ele><time>2026-04-19T17:45:30.001Z</time></trkpt><trkpt lat="44.99480734677915" lon="10.850714001909324"><ele>16.5</ele><time>2026-04-19T17:45:31.001Z</time></trkpt><trkpt lat="44.99510073289769" lon="10.850678546296612"><ele>17.0</ele><time>2026-04-19T17:45:32.001Z</time></trkpt><trkpt lat="44.99539507393289" lon="10.850642628138356"><ele>17.0</ele><time>2026-04-19T17:45:33.001Z</time></trkpt><trkpt lat="44.99568245483527" lon="10.850605532067762"><ele>17.0</ele><time>2026-04-19T17:45:34.001Z</time></trkpt><trkpt lat="44.99596282540923" lon="10.85056676527703"><ele>17.0</ele><time>2026-04-19T17:45:35.001Z</time></trkpt><trkpt lat="44.99623580210202" lon="10.850531053079465"><ele>17.0</ele><time>2026-04-19T17:45:36.001Z</time></trkpt><trkpt lat="44.996503649133125" lon="10.850495012968004"><ele>17.0</ele><time>2026-04-19T17:45:37.001Z</time></trkpt><trkpt lat="44.99677188634876" lon="10.8504618867505"><ele>17.0</ele><time>2026-04-19T17:45:38.001Z</time></trkpt><trkpt lat="44.997040623922125" lon="10.850428141231683"><ele>17.0</ele><time>2026-04-19T17:45:39.001Z</time></trkpt><trkpt lat="44.99730973064408" lon="10.850394050928"><ele>17.0</ele><time>2026-04-19T17:45:40.001Z</time></trkpt><trkpt lat="44.997580609685514" lon="10.850358935106943"><ele>17.0</ele><time>2026-04-19T17:45:41.001Z</time></trkpt><trkpt lat="44.99785154517341" lon="10.850324272610896"><ele>17.0</ele><time>2026-04-19T17:45:42.001Z</time></trkpt><trkpt lat="44.99812377144899" lon="10.850291324740935"><ele>17.5</ele><time>2026-04-19T17:45:43.001Z</time></trkpt><trkpt lat="44.99839674860431" lon="10.85025729558577"><ele>18.0</ele><time>2026-04-19T17:45:44.001Z</time></trkpt><trkpt lat="44.99866940738087" lon="10.850223178442034"><ele>18.0</ele><time>2026-04-19T17:45:45.001Z</time></trkpt><trkpt lat="44.998941921340645" lon="10.850190133867585"><ele>18.0</ele><time>2026-04-19T17:45:46.001Z</time></trkpt><trkpt lat="44.99921438752189" lon="10.850155558509885"><ele>19.0</ele><time>2026-04-19T17:45:47.001Z</time></trkpt><trkpt lat="44.99948678092619" lon="10.850122221591745"><ele>20.0</ele><time>2026-04-19T17:45:48.001Z</time></trkpt><trkpt lat="44.999759133207384" lon="10.850087086480253"><ele>20.0</ele><time>2026-04-19T17:45:49.001Z</time></trkpt><trkpt lat="45.000031976517725" lon="10.850054087843596"><ele>20.0</ele><time>2026-04-19T17:45:50.001Z</time></trkpt><trkpt lat="45.000304231527494" lon="10.850021219575778"><ele>20.0</ele><time>2026-04-19T17:45:51.001Z</time></trkpt><trkpt lat="45.000577185315564" lon="10.849989046619479"><ele>20.0</ele><time>2026-04-19T17:45:52.001Z</time></trkpt><trkpt lat="45.000850659825645" lon="10.849956565857564"><ele>20.0</ele><time>2026-04-19T17:45:53.001Z</time></trkpt><trkpt lat="45.00112320337272" lon="10.849924007155792"><ele>20.0</ele><time>2026-04-19T17:45:54.001Z</time></trkpt><trkpt lat="45.0013951246224" lon="10.84989079674532"><ele>19.5</ele><time>2026-04-19T17:45:55.001Z</time></trkpt><trkpt lat="45.00166590482782" lon="10.849851068881904"><ele>19.0</ele><time>2026-04-19T17:45:56.001Z</time></trkpt><trkpt lat="45.001939892173766" lon="10.849821444432092"><ele>19.0</ele><time>2026-04-19T17:45:57.001Z</time></trkpt><trkpt lat="45.002211502240044" lon="10.849779481725758"><ele>19.0</ele><time>2026-04-19T17:45:58.001Z</time></trkpt><trkpt lat="45.00248199617987" lon="10.849748194715072"><ele>19.0</ele><time>2026-04-19T17:45:59.001Z</time></trkpt><trkpt lat="45.0027544278081" lon="10.849713698709616"><ele>19.0</ele><time>2026-04-19T17:46:00.001Z</time></trkpt><trkpt lat="45.00302673391963" lon="10.84968186900646"><ele>19.0</ele><time>2026-04-19T17:46:01.001Z</time></trkpt><trkpt lat="45.003299793797886" lon="10.849651722783255"><ele>19.0</ele><time>2026-04-19T17:46:02.001Z</time></trkpt><trkpt lat="45.00357333695859" lon="10.849623640245031"><ele>18.5</ele><time>2026-04-19T17:46:03.001Z</time></trkpt><trkpt lat="45.00384575653144" lon="10.849602184930696"><ele>18.0</ele><time>2026-04-19T17:46:04.001Z</time></trkpt><trkpt lat="45.00411824943105" lon="10.849589144821687"><ele>18.0</ele><time>2026-04-19T17:46:05.001Z</time></trkpt><trkpt lat="45.004390990868" lon="10.849581665986209"><ele>18.0</ele><time>2026-04-19T17:46:06.001Z</time></trkpt><trkpt lat="45.00466365456205" lon="10.849582260916833"><ele>18.0</ele><time>2026-04-19T17:46:07.001Z</time></trkpt><trkpt lat="45.00493741469404" lon="10.84959278153087"><ele>18.0</ele><time>2026-04-19T17:46:08.001Z</time></trkpt><trkpt lat="45.00521281247657" lon="10.849612788428379"><ele>17.5</ele><time>2026-04-19T17:46:09.001Z</time></trkpt><trkpt lat="45.00547955827333" lon="10.849628663187588"><ele>17.0</ele><time>2026-04-19T17:46:10.001Z</time></trkpt><trkpt lat="45.00575637669989" lon="10.849655836694263"><ele>17.5</ele><time>2026-04-19T17:46:11.001Z</time></trkpt><trkpt lat="45.00602617642953" lon="10.849694118950682"><ele>18.0</ele><time>2026-04-19T17:46:12.001Z</time></trkpt><trkpt lat="45.00629617754576" lon="10.849741886262846"><ele>18.0</ele><time>2026-04-19T17:46:13.001Z</time></trkpt><trkpt lat="45.00656530558282" lon="10.849797021508225"><ele>18.0</ele><time>2026-04-19T17:46:14.001Z</time></trkpt><trkpt lat="45.00683383142442" lon="10.849862469452553"><ele>16.0</ele><time>2026-04-19T17:46:15.001Z</time></trkpt><trkpt lat="45.007102154472356" lon="10.849929865231351"><ele>14.0</ele><time>2026-04-19T17:46:16.001Z</time></trkpt><trkpt lat="45.00737091253284" lon="10.850000379178"><ele>14.5</ele><time>2026-04-19T17:46:17.001Z</time></trkpt><trkpt lat="45.007638959611626" lon="10.850076768003989"><ele>15.0</ele><time>2026-04-19T17:46:18.001Z</time></trkpt><trkpt lat="45.007906221314755" lon="10.850156112606587"><ele>15.0</ele><time>2026-04-19T17:46:19.001Z</time></trkpt><trkpt lat="45.008172432343585" lon="10.850239554414632"><ele>15.0</ele><time>2026-04-19T17:46:20.001Z</time></trkpt><trkpt lat="45.00843929249118" lon="10.850322318221085"><ele>14.5</ele><time>2026-04-19T17:46:21.001Z</time></trkpt><trkpt lat="45.00870564508773" lon="10.850405625837984"><ele>14.0</ele><time>2026-04-19T17:46:22.001Z</time></trkpt><trkpt lat="45.00897294801304" lon="10.85048697452027"><ele>14.0</ele><time>2026-04-19T17:46:23.001Z</time></trkpt><trkpt lat="45.009239665665895" lon="10.850568193732698"><ele>14.0</ele><time>2026-04-19T17:46:24.001Z</time></trkpt><trkpt lat="45.00950627095895" lon="10.850648705721868"><ele>14.0</ele><time>2026-04-19T17:46:25.001Z</time></trkpt><trkpt lat="45.00977360856639" lon="10.850729775048922"><ele>14.0</ele><time>2026-04-19T17:46:26.001Z</time></trkpt><trkpt lat="45.01004023741708" lon="10.850811870243948"><ele>15.0</ele><time>2026-04-19T17:46:27.001Z</time></trkpt><trkpt lat="45.01030675435982" lon="10.85089600300834"><ele>16.0</ele><time>2026-04-19T17:46:28.001Z</time></trkpt><trkpt lat="45.01057318625866" lon="10.85097960422203"><ele>16.0</ele><time>2026-04-19T17:46:29.001Z</time></trkpt><trkpt lat="45.010839743188676" lon="10.851062370463888"><ele>16.0</ele><time>2026-04-19T17:46:30.001Z</time></trkpt><trkpt lat="45.01110615078205" lon="10.851145021807591"><ele>16.0</ele><time>2026-04-19T17:46:31.001Z</time></trkpt><trkpt lat="45.01137269759388" lon="10.851228949118646"><ele>16.0</ele><time>2026-04-19T17:46:32.001Z</time></trkpt><trkpt lat="45.011638957466744" lon="10.851311408198827"><ele>14.5</ele><time>2026-04-19T17:46:33.001Z</time></trkpt><trkpt lat="45.01190539455247" lon="10.851394256070025"><ele>13.0</ele><time>2026-04-19T17:46:34.001Z</time></trkpt><trkpt lat="45.01217139449316" lon="10.851478366202516"><ele>13.0</ele><time>2026-04-19T17:46:35.001Z</time></trkpt><trkpt lat="45.01243747162949" lon="10.851562632100594"><ele>13.0</ele><time>2026-04-19T17:46:36.001Z</time></trkpt><trkpt lat="45.01270373610318" lon="10.851647016053803"><ele>15.0</ele><time>2026-04-19T17:46:37.001Z</time></trkpt><trkpt lat="45.01297092647308" lon="10.851728699634263"><ele>17.0</ele><time>2026-04-19T17:46:38.001Z</time></trkpt><trkpt lat="45.01323743011148" lon="10.851809494727584"><ele>16.5</ele><time>2026-04-19T17:46:39.001Z</time></trkpt><trkpt lat="45.01350354611671" lon="10.851891239498313"><ele>16.0</ele><time>2026-04-19T17:46:40.001Z</time></trkpt><trkpt lat="45.0137698461096" lon="10.851974619090914"><ele>16.0</ele><time>2026-04-19T17:46:41.001Z</time></trkpt><trkpt lat="45.0140363485514" lon="10.852059012879355"><ele>16.0</ele><time>2026-04-19T17:46:42.001Z</time></trkpt><trkpt lat="45.014303074113435" lon="10.852141590983443"><ele>16.0</ele><time>2026-04-19T17:46:43.001Z</time></trkpt><trkpt lat="45.01456915757347" lon="10.85222477927923"><ele>16.0</ele><time>2026-04-19T17:46:44.001Z</time></trkpt><trkpt lat="45.014835097076805" lon="10.852309102856175"><ele>16.0</ele><time>2026-04-19T17:46:45.001Z</time></trkpt><trkpt lat="45.0151014322236" lon="10.85239398937687"><ele>16.0</ele><time>2026-04-19T17:46:46.001Z</time></trkpt><trkpt lat="45.01536819352553" lon="10.852477429386791"><ele>16.0</ele><time>2026-04-19T17:46:47.001Z</time></trkpt><trkpt lat="45.015635015066415" lon="10.852561490274988"><ele>16.0</ele><time>2026-04-19T17:46:48.001Z</time></trkpt><trkpt lat="45.01590197108442" lon="10.852643717733336"><ele>16.5</ele><time>2026-04-19T17:46:49.001Z</time></trkpt><trkpt lat="45.01616906642336" lon="10.852727009172671"><ele>17.0</ele><time>2026-04-19T17:46:50.001Z</time></trkpt><trkpt lat="45.01643577116254" lon="10.852809158237486"><ele>16.5</ele><time>2026-04-19T17:46:51.001Z</time></trkpt><trkpt lat="45.016702425778185" lon="10.852892092585549"><ele>16.0</ele><time>2026-04-19T17:46:52.001Z</time></trkpt><trkpt lat="45.01696862388431" lon="10.852975428964717"><ele>16.0</ele><time>2026-04-19T17:46:53.001Z</time></trkpt><trkpt lat="45.01723459197497" lon="10.853059140160303"><ele>16.0</ele><time>2026-04-19T17:46:54.001Z</time></trkpt><trkpt lat="45.01750079375068" lon="10.85314203599157"><ele>17.0</ele><time>2026-04-19T17:46:55.001Z</time></trkpt><trkpt lat="45.01776629345548" lon="10.853223777122524"><ele>18.0</ele><time>2026-04-19T17:46:56.001Z</time></trkpt><trkpt lat="45.01803229235406" lon="10.853302541585316"><ele>18.0</ele><time>2026-04-19T17:46:57.001Z</time></trkpt><trkpt lat="45.01829979912697" lon="10.853379660507859"><ele>18.0</ele><time>2026-04-19T17:46:58.001Z</time></trkpt><trkpt lat="45.01856715175765" lon="10.853455406574302"><ele>17.5</ele><time>2026-04-19T17:46:59.001Z</time></trkpt><trkpt lat="45.01883490868551" lon="10.853528595293216"><ele>17.0</ele><time>2026-04-19T17:47:00.001Z</time></trkpt><trkpt lat="45.01910286571314" lon="10.853597937157163"><ele>17.0</ele><time>2026-04-19T17:47:01.001Z</time></trkpt><trkpt lat="45.01937173934815" lon="10.853662061994553"><ele>17.0</ele><time>2026-04-19T17:47:02.001Z</time></trkpt><trkpt lat="45.01964214539357" lon="10.853716822701118"><ele>17.0</ele><time>2026-04-19T17:47:03.001Z</time></trkpt><trkpt lat="45.01991324345201" lon="10.853765855546168"><ele>17.0</ele><time>2026-04-19T17:47:04.001Z</time></trkpt><trkpt lat="45.02018470373549" lon="10.853809690765678"><ele>17.0</ele><time>2026-04-19T17:47:05.001Z</time></trkpt><trkpt lat="45.020456311754735" lon="10.853848824686668"><ele>17.0</ele><time>2026-04-19T17:47:06.001Z</time></trkpt><trkpt lat="45.02072467805628" lon="10.853880644901338"><ele>17.0</ele><time>2026-04-19T17:47:07.001Z</time></trkpt><trkpt lat="45.02098726865424" lon="10.853905553610915"><ele>17.0</ele><time>2026-04-19T17:47:08.001Z</time></trkpt><trkpt lat="45.02124480612901" lon="10.853925616451715"><ele>17.0</ele><time>2026-04-19T17:47:09.001Z</time></trkpt><trkpt lat="45.02149742361162" lon="10.853939418513477"><ele>17.0</ele><time>2026-04-19T17:47:10.001Z</time></trkpt><trkpt lat="45.02174555957914" lon="10.853950010951893"><ele>16.5</ele><time>2026-04-19T17:47:11.001Z</time></trkpt><trkpt lat="45.021989719957524" lon="10.853956658610223"><ele>16.0</ele><time>2026-04-19T17:47:12.001Z</time></trkpt><trkpt lat="45.02223391067041" lon="10.853960105399182"><ele>16.0</ele><time>2026-04-19T17:47:13.001Z</time></trkpt><trkpt lat="45.022481103723884" lon="10.853960710177128"><ele>16.0</ele><time>2026-04-19T17:47:14.001Z</time></trkpt><trkpt lat="45.02273285920185" lon="10.853958257751955"><ele>16.0</ele><time>2026-04-19T17:47:15.001Z</time></trkpt><trkpt lat="45.022980124583576" lon="10.853957318596498"><ele>16.0</ele><time>2026-04-19T17:47:16.001Z</time></trkpt><trkpt lat="45.023222113744524" lon="10.853956384099755"><ele>16.0</ele><time>2026-04-19T17:47:17.001Z</time></trkpt><trkpt lat="45.02345938651982" lon="10.853953791128555"><ele>16.0</ele><time>2026-04-19T17:47:18.001Z</time></trkpt><trkpt lat="45.02369587141636" lon="10.853952339985808"><ele>16.0</ele><time>2026-04-19T17:47:19.001Z</time></trkpt><trkpt lat="45.02393733168521" lon="10.853953020189923"><ele>16.0</ele><time>2026-04-19T17:47:20.001Z</time></trkpt><trkpt lat="45.02418193112838" lon="10.853954999100353"><ele>16.0</ele><time>2026-04-19T17:47:21.001Z</time></trkpt><trkpt lat="45.02442946987696" lon="10.85395607795561"><ele>16.0</ele><time>2026-04-19T17:47:22.001Z</time></trkpt><trkpt lat="45.024678788150304" lon="10.85395867909038"><ele>16.0</ele><time>2026-04-19T17:47:23.001Z</time></trkpt><trkpt lat="45.02493013284735" lon="10.853960847248297"><ele>16.0</ele><time>2026-04-19T17:47:24.001Z</time></trkpt><trkpt lat="45.02518135325901" lon="10.853962131067872"><ele>15.5</ele><time>2026-04-19T17:47:25.001Z</time></trkpt><trkpt lat="45.02543310800662" lon="10.853961133283862"><ele>15.0</ele><time>2026-04-19T17:47:26.001Z</time></trkpt><trkpt lat="45.025684686742956" lon="10.853960103484443"><ele>15.5</ele><time>2026-04-19T17:47:27.001Z</time></trkpt><trkpt lat="45.025936341142206" lon="10.853958680028827"><ele>16.0</ele><time>2026-04-19T17:47:28.001Z</time></trkpt><trkpt lat="45.02618848176891" lon="10.853957539402675"><ele>16.0</ele><time>2026-04-19T17:47:29.001Z</time></trkpt><trkpt lat="45.026441350608835" lon="10.853956020116799"><ele>16.0</ele><time>2026-04-19T17:47:30.001Z</time></trkpt><trkpt lat="45.0266963960384" lon="10.85395549461173"><ele>16.5</ele><time>2026-04-19T17:47:31.001Z</time></trkpt><trkpt lat="45.026953013744794" lon="10.853956559399139"><ele>17.0</ele><time>2026-04-19T17:47:32.001Z</time></trkpt><trkpt lat="45.027211470831894" lon="10.8539574280439"><ele>17.0</ele><time>2026-04-19T17:47:33.001Z</time></trkpt><trkpt lat="45.027471826938076" lon="10.853959517566498"><ele>17.0</ele><time>2026-04-19T17:47:34.001Z</time></trkpt><trkpt lat="45.02773274756766" lon="10.853960713185865"><ele>17.5</ele><time>2026-04-19T17:47:35.001Z</time></trkpt><trkpt lat="45.02799256898222" lon="10.853960639370186"><ele>18.0</ele><time>2026-04-19T17:47:36.001Z</time></trkpt><trkpt lat="45.02825193716659" lon="10.85395998601684"><ele>18.0</ele><time>2026-04-19T17:47:37.001Z</time></trkpt><trkpt lat="45.028509895672144" lon="10.853959023025233"><ele>18.0</ele><time>2026-04-19T17:47:38.001Z</time></trkpt><trkpt lat="45.02876695962274" lon="10.853959200347827"><ele>18.0</ele><time>2026-04-19T17:47:39.001Z</time></trkpt><trkpt lat="45.02902358483443" lon="10.853959313845476"><ele>18.0</ele><time>2026-04-19T17:47:40.001Z</time></trkpt><trkpt lat="45.02928024078819" lon="10.853958297907862"><ele>17.5</ele><time>2026-04-19T17:47:41.001Z</time></trkpt><trkpt lat="45.029536477111584" lon="10.853956175421487"><ele>17.0</ele><time>2026-04-19T17:47:42.001Z</time></trkpt><trkpt lat="45.02979220831607" lon="10.853954961609205"><ele>18.5</ele><time>2026-04-19T17:47:43.001Z</time></trkpt><trkpt lat="45.03004815115095" lon="10.853954270140651"><ele>20.0</ele><time>2026-04-19T17:47:44.001Z</time></trkpt><trkpt lat="45.03030448069166" lon="10.853954013519607"><ele>20.0</ele><time>2026-04-19T17:47:45.001Z</time></trkpt><trkpt lat="45.03056297749167" lon="10.853953292793431"><ele>20.0</ele><time>2026-04-19T17:47:46.001Z</time></trkpt><trkpt lat="45.0308256938666" lon="10.85395191301987"><ele>18.5</ele><time>2026-04-19T17:47:47.001Z</time></trkpt><trkpt lat="45.031087002374356" lon="10.853953511964834"><ele>17.0</ele><time>2026-04-19T17:47:48.001Z</time></trkpt><trkpt lat="45.03134911754263" lon="10.853953976760128"><ele>17.0</ele><time>2026-04-19T17:47:49.001Z</time></trkpt><trkpt lat="45.03161123367015" lon="10.853953918535849"><ele>17.0</ele><time>2026-04-19T17:47:50.001Z</time></trkpt><trkpt lat="45.03187347749446" lon="10.853951337054085"><ele>16.5</ele><time>2026-04-19T17:47:51.001Z</time></trkpt><trkpt lat="45.03213684505276" lon="10.853949141527938"><ele>16.0</ele><time>2026-04-19T17:47:52.001Z</time></trkpt><trkpt lat="45.032403392225106" lon="10.853948874576997"><ele>15.5</ele><time>2026-04-19T17:47:53.001Z</time></trkpt><trkpt lat="45.03267173878701" lon="10.85394875859984"><ele>15.0</ele><time>2026-04-19T17:47:54.001Z</time></trkpt><trkpt lat="45.032941772760054" lon="10.853946898531708"><ele>15.0</ele><time>2026-04-19T17:47:55.001Z</time></trkpt><trkpt lat="45.03321258102271" lon="10.853942213018543"><ele>15.0</ele><time>2026-04-19T17:47:56.001Z</time></trkpt><trkpt lat="45.033484718399734" lon="10.85393690951352"><ele>15.5</ele><time>2026-04-19T17:47:57.001Z</time></trkpt><trkpt lat="45.03375802589254" lon="10.853930295985217"><ele>16.0</ele><time>2026-04-19T17:47:58.001Z</time></trkpt><trkpt lat="45.03403288662519" lon="10.853925683669958"><ele>15.5</ele><time>2026-04-19T17:47:59.001Z</time></trkpt><trkpt lat="45.03430843303846" lon="10.853922204694166"><ele>15.0</ele><time>2026-04-19T17:48:00.001Z</time></trkpt><trkpt lat="45.03458539852734" lon="10.853918243448922"><ele>15.0</ele><time>2026-04-19T17:48:01.001Z</time></trkpt><trkpt lat="45.034862453816174" lon="10.853913531888999"><ele>15.0</ele><time>2026-04-19T17:48:02.001Z</time></trkpt><trkpt lat="45.035140062041386" lon="10.853908012413864"><ele>15.5</ele><time>2026-04-19T17:48:03.001Z</time></trkpt><trkpt lat="45.035417226132566" lon="10.853903623487241"><ele>16.0</ele><time>2026-04-19T17:48:04.001Z</time></trkpt><trkpt lat="45.035692518174955" lon="10.853901440868018"><ele>16.0</ele><time>2026-04-19T17:48:05.001Z</time></trkpt><trkpt lat="45.035966895482865" lon="10.853902561545457"><ele>16.0</ele><time>2026-04-19T17:48:06.001Z</time></trkpt><trkpt lat="45.03623967194172" lon="10.853905016099812"><ele>16.0</ele><time>2026-04-19T17:48:07.001Z</time></trkpt><trkpt lat="45.036509176527034" lon="10.85390909094205"><ele>16.0</ele><time>2026-04-19T17:48:08.001Z</time></trkpt><trkpt lat="45.03677809132639" lon="10.853917730953178"><ele>16.5</ele><time>2026-04-19T17:48:09.001Z</time></trkpt><trkpt lat="45.03704529360559" lon="10.85392800283814"><ele>17.0</ele><time>2026-04-19T17:48:10.001Z</time></trkpt><trkpt lat="45.03731126965083" lon="10.853937446815817"><ele>16.0</ele><time>2026-04-19T17:48:11.001Z</time></trkpt><trkpt lat="45.037575485762865" lon="10.853947628255224"><ele>15.0</ele><time>2026-04-19T17:48:12.001Z</time></trkpt><trkpt lat="45.03783828927646" lon="10.853954180986488"><ele>15.0</ele><time>2026-04-19T17:48:13.001Z</time></trkpt><trkpt lat="45.038100012157585" lon="10.853958527327878"><ele>15.0</ele><time>2026-04-19T17:48:14.001Z</time></trkpt><trkpt lat="45.038359861446594" lon="10.853958940680654"><ele>15.5</ele><time>2026-04-19T17:48:15.001Z</time></trkpt><trkpt lat="45.038618805921594" lon="10.853959831609753"><ele>16.0</ele><time>2026-04-19T17:48:16.001Z</time></trkpt><trkpt lat="45.03887609481159" lon="10.853961073880706"><ele>16.0</ele><time>2026-04-19T17:48:17.001Z</time></trkpt><trkpt lat="45.039133033348094" lon="10.853961684524519"><ele>16.0</ele><time>2026-04-19T17:48:18.001Z</time></trkpt><trkpt lat="45.0393901558512" lon="10.85396101642509"><ele>16.0</ele><time>2026-04-19T17:48:19.001Z</time></trkpt><trkpt lat="45.03964719763497" lon="10.853958752193963"><ele>16.0</ele><time>2026-04-19T17:48:20.001Z</time></trkpt><trkpt lat="45.0399050127149" lon="10.853955346614164"><ele>16.0</ele><time>2026-04-19T17:48:21.001Z</time></trkpt><trkpt lat="45.0401632119488" lon="10.853949489792479"><ele>16.0</ele><time>2026-04-19T17:48:22.001Z</time></trkpt><trkpt lat="45.04042054633149" lon="10.853939856850303"><ele>16.0</ele><time>2026-04-19T17:48:23.001Z</time></trkpt><trkpt lat="45.040676951252046" lon="10.853918373967936"><ele>16.0</ele><time>2026-04-19T17:48:24.001Z</time></trkpt><trkpt lat="45.04093265502068" lon="10.853886258618259"><ele>16.0</ele><time>2026-04-19T17:48:25.001Z</time></trkpt><trkpt lat="45.0411882861605" lon="10.853846035302356"><ele>16.0</ele><time>2026-04-19T17:48:26.001Z</time></trkpt><trkpt lat="45.04144434397294" lon="10.85379964737968"><ele>16.0</ele><time>2026-04-19T17:48:27.001Z</time></trkpt><trkpt lat="45.04170125635794" lon="10.853748039685424"><ele>16.0</ele><time>2026-04-19T17:48:28.001Z</time></trkpt><trkpt lat="45.04195827500851" lon="10.853691406835924"><ele>16.0</ele><time>2026-04-19T17:48:29.001Z</time></trkpt><trkpt lat="45.042216629332394" lon="10.853629464034315"><ele>16.0</ele><time>2026-04-19T17:48:30.001Z</time></trkpt><trkpt lat="45.042476426479766" lon="10.85356513127527"><ele>16.0</ele><time>2026-04-19T17:48:31.001Z</time></trkpt><trkpt lat="45.04273542837018" lon="10.85349722596878"><ele>16.0</ele><time>2026-04-19T17:48:32.001Z</time></trkpt><trkpt lat="45.042994706261034" lon="10.853426995730228"><ele>16.0</ele><time>2026-04-19T17:48:33.001Z</time></trkpt><trkpt lat="45.043252926743854" lon="10.853350895589672"><ele>16.0</ele><time>2026-04-19T17:48:34.001Z</time></trkpt><trkpt lat="45.04351038925119" lon="10.853263129935671"><ele>16.5</ele><time>2026-04-19T17:48:35.001Z</time></trkpt><trkpt lat="45.04376560389951" lon="10.853163484111969"><ele>17.0</ele><time>2026-04-19T17:48:36.001Z</time></trkpt><trkpt lat="45.04401999093528" lon="10.853057689263695"><ele>17.0</ele><time>2026-04-19T17:48:37.001Z</time></trkpt><trkpt lat="45.044271552680605" lon="10.852946344536388"><ele>17.0</ele><time>2026-04-19T17:48:38.001Z</time></trkpt><trkpt lat="45.04451847597577" lon="10.852829107786365"><ele>17.0</ele><time>2026-04-19T17:48:39.001Z</time></trkpt><trkpt lat="45.044763086814754" lon="10.852707347747083"><ele>17.0</ele><time>2026-04-19T17:48:40.001Z</time></trkpt><trkpt lat="45.04500682383005" lon="10.85257913312594"><ele>18.0</ele><time>2026-04-19T17:48:41.001Z</time></trkpt><trkpt lat="45.04525087706615" lon="10.852447204979558"><ele>19.0</ele><time>2026-04-19T17:48:42.001Z</time></trkpt><trkpt lat="45.04549551836743" lon="10.852311053888695"><ele>19.0</ele><time>2026-04-19T17:48:43.001Z</time></trkpt><trkpt lat="45.04573872104146" lon="10.852166335816165"><ele>19.0</ele><time>2026-04-19T17:48:44.001Z</time></trkpt><trkpt lat="45.0459792711807" lon="10.852011956009743"><ele>18.5</ele><time>2026-04-19T17:48:45.001Z</time></trkpt><trkpt lat="45.04621811843243" lon="10.851851642110248"><ele>18.0</ele><time>2026-04-19T17:48:46.001Z</time></trkpt><trkpt lat="45.0464556188256" lon="10.851688192589496"><ele>19.0</ele><time>2026-04-19T17:48:47.001Z</time></trkpt><trkpt lat="45.04669232584744" lon="10.851521084800634"><ele>20.0</ele><time>2026-04-19T17:48:48.001Z</time></trkpt><trkpt lat="45.046926064576255" lon="10.851350608680088"><ele>20.0</ele><time>2026-04-19T17:48:49.001Z</time></trkpt><trkpt lat="45.04715275084233" lon="10.851177589811074"><ele>20.0</ele><time>2026-04-19T17:48:50.001Z</time></trkpt><trkpt lat="45.04737087406844" lon="10.851002742297036"><ele>21.0</ele><time>2026-04-19T17:48:51.001Z</time></trkpt><trkpt lat="45.04758148020442" lon="10.850827130650897"><ele>22.0</ele><time>2026-04-19T17:48:52.001Z</time></trkpt><trkpt lat="45.047790128695745" lon="10.850648672152664"><ele>22.0</ele><time>2026-04-19T17:48:53.001Z</time></trkpt><trkpt lat="45.047993957864165" lon="10.850466873652765"><ele>22.0</ele><time>2026-04-19T17:48:54.001Z</time></trkpt><trkpt lat="45.04819751698331" lon="10.850278577864366"><ele>23.0</ele><time>2026-04-19T17:48:55.001Z</time></trkpt><trkpt lat="45.04840086392647" lon="10.850087519852606"><ele>24.0</ele><time>2026-04-19T17:48:56.001Z</time></trkpt><trkpt lat="45.04860601598129" lon="10.849895449806754"><ele>24.0</ele><time>2026-04-19T17:48:57.001Z</time></trkpt><trkpt lat="45.048810717519885" lon="10.849700214735554"><ele>24.0</ele><time>2026-04-19T17:48:58.001Z</time></trkpt><trkpt lat="45.04901451909367" lon="10.849505102973808"><ele>25.0</ele><time>2026-04-19T17:48:59.001Z</time></trkpt><trkpt lat="45.049218614278274" lon="10.84930991618027"><ele>26.0</ele><time>2026-04-19T17:49:00.001Z</time></trkpt><trkpt lat="45.04942188003734" lon="10.849115312700842"><ele>26.0</ele><time>2026-04-19T17:49:01.001Z</time></trkpt><trkpt lat="45.04962537717239" lon="10.848920568266465"><ele>26.0</ele><time>2026-04-19T17:49:02.001Z</time></trkpt><trkpt lat="45.04983183065281" lon="10.84872442983832"><ele>25.5</ele><time>2026-04-19T17:49:03.001Z</time></trkpt><trkpt lat="45.050038052761295" lon="10.848527783251052"><ele>25.0</ele><time>2026-04-19T17:49:04.001Z</time></trkpt><trkpt lat="45.05024418020812" lon="10.84833184410483"><ele>19.0</ele><time>2026-04-19T17:49:05.001Z</time></trkpt><trkpt lat="45.0504491073103" lon="10.848136341863091"><ele>13.0</ele><time>2026-04-19T17:49:06.001Z</time></trkpt><trkpt lat="45.050654748734416" lon="10.847941344343594"><ele>12.5</ele><time>2026-04-19T17:49:07.001Z</time></trkpt><trkpt lat="45.05085889451291" lon="10.84774714871406"><ele>12.0</ele><time>2026-04-19T17:49:08.001Z</time></trkpt><trkpt lat="45.051061591102716" lon="10.84755243652024"><ele>12.0</ele><time>2026-04-19T17:49:09.001Z</time></trkpt><trkpt lat="45.0512665297481" lon="10.847355705849322"><ele>12.0</ele><time>2026-04-19T17:49:10.001Z</time></trkpt><trkpt lat="45.05147155018412" lon="10.84716293450766"><ele>12.0</ele><time>2026-04-19T17:49:11.001Z</time></trkpt><trkpt lat="45.051676257663445" lon="10.846969511234144"><ele>12.0</ele><time>2026-04-19T17:49:12.001Z</time></trkpt><trkpt lat="45.05188183059233" lon="10.846777560438406"><ele>14.0</ele><time>2026-04-19T17:49:13.001Z</time></trkpt><trkpt lat="45.05208817190039" lon="10.846584041954152"><ele>16.0</ele><time>2026-04-19T17:49:14.001Z</time></trkpt><trkpt lat="45.0522926894365" lon="10.846391851080625"><ele>17.0</ele><time>2026-04-19T17:49:15.001Z</time></trkpt><trkpt lat="45.05249745875857" lon="10.8461961610413"><ele>18.0</ele><time>2026-04-19T17:49:16.001Z</time></trkpt><trkpt lat="45.05270225626202" lon="10.84599955665881"><ele>20.0</ele><time>2026-04-19T17:49:17.001Z</time></trkpt><trkpt lat="45.05290650660881" lon="10.845803189937142"><ele>22.0</ele><time>2026-04-19T17:49:18.001Z</time></trkpt><trkpt lat="45.053110934109505" lon="10.845608073313436"><ele>23.5</ele><time>2026-04-19T17:49:19.001Z</time></trkpt><trkpt lat="45.05331670820176" lon="10.845413571358717"><ele>25.0</ele><time>2026-04-19T17:49:20.001Z</time></trkpt><trkpt lat="45.05352212168042" lon="10.845218644795214"><ele>25.5</ele><time>2026-04-19T17:49:21.001Z</time></trkpt><trkpt lat="45.05372638233579" lon="10.845022414702953"><ele>26.0</ele><time>2026-04-19T17:49:22.001Z</time></trkpt><trkpt lat="45.053930253364" lon="10.8448261689414"><ele>26.0</ele><time>2026-04-19T17:49:23.001Z</time></trkpt><trkpt lat="45.05413460939759" lon="10.844629306612347"><ele>26.0</ele><time>2026-04-19T17:49:24.001Z</time></trkpt><trkpt lat="45.05433965984802" lon="10.84443429478139"><ele>25.5</ele><time>2026-04-19T17:49:25.001Z</time></trkpt><trkpt lat="45.05454593665427" lon="10.844241034391526"><ele>25.0</ele><time>2026-04-19T17:49:26.001Z</time></trkpt><trkpt lat="45.05475475407076" lon="10.84405058601887"><ele>24.0</ele><time>2026-04-19T17:49:27.001Z</time></trkpt><trkpt lat="45.05496328984061" lon="10.843867208960177"><ele>23.0</ele><time>2026-04-19T17:49:28.001Z</time></trkpt><trkpt lat="45.055175415503086" lon="10.843686185380365"><ele>23.0</ele><time>2026-04-19T17:49:29.001Z</time></trkpt><trkpt lat="45.05538868386326" lon="10.843509870061174"><ele>23.0</ele><time>2026-04-19T17:49:30.001Z</time></trkpt><trkpt lat="45.05560519364531" lon="10.84333983060101"><ele>22.5</ele><time>2026-04-19T17:49:31.001Z</time></trkpt><trkpt lat="45.055824747302175" lon="10.843178278516122"><ele>22.0</ele><time>2026-04-19T17:49:32.001Z</time></trkpt><trkpt lat="45.05604789447564" lon="10.843026325010971"><ele>22.0</ele><time>2026-04-19T17:49:33.001Z</time></trkpt><trkpt lat="45.05627459081415" lon="10.842886529650253"><ele>22.0</ele><time>2026-04-19T17:49:34.001Z</time></trkpt><trkpt lat="45.05650761032638" lon="10.842756875142394"><ele>22.5</ele><time>2026-04-19T17:49:35.001Z</time></trkpt><trkpt lat="45.05674078286442" lon="10.842638844471558"><ele>23.0</ele><time>2026-04-19T17:49:36.001Z</time></trkpt><trkpt lat="45.05697624398872" lon="10.84252556019799"><ele>23.0</ele><time>2026-04-19T17:49:37.001Z</time></trkpt><trkpt lat="45.05720972647738" lon="10.842419343200323"><ele>23.0</ele><time>2026-04-19T17:49:38.001Z</time></trkpt><trkpt lat="45.057448934483" lon="10.84231146671976"><ele>23.0</ele><time>2026-04-19T17:49:39.001Z</time></trkpt><trkpt lat="45.057687702861095" lon="10.842209141184515"><ele>23.0</ele><time>2026-04-19T17:49:40.001Z</time></trkpt><trkpt lat="45.0579293975967" lon="10.84210926123569"><ele>23.0</ele><time>2026-04-19T17:49:41.001Z</time></trkpt><trkpt lat="45.05817878419054" lon="10.842013168032466"><ele>23.0</ele><time>2026-04-19T17:49:42.001Z</time></trkpt><trkpt lat="45.058435269298734" lon="10.841931288693504"><ele>21.0</ele><time>2026-04-19T17:49:43.001Z</time></trkpt><trkpt lat="45.05869944371915" lon="10.841862876431227"><ele>19.0</ele><time>2026-04-19T17:49:44.001Z</time></trkpt><trkpt lat="45.058967467898725" lon="10.841805601555725"><ele>20.5</ele><time>2026-04-19T17:49:45.001Z</time></trkpt><trkpt lat="45.05923798646878" lon="10.841757179257371"><ele>22.0</ele><time>2026-04-19T17:49:46.001Z</time></trkpt><trkpt lat="45.059507570233414" lon="10.841714135190207"><ele>22.0</ele><time>2026-04-19T17:49:47.001Z</time></trkpt><trkpt lat="45.05977708288119" lon="10.841679189426056"><ele>22.0</ele><time>2026-04-19T17:49:48.001Z</time></trkpt><trkpt lat="45.0600445349757" lon="10.841657786559228"><ele>20.5</ele><time>2026-04-19T17:49:49.001Z</time></trkpt><trkpt lat="45.06031204486067" lon="10.841643987588041"><ele>19.0</ele><time>2026-04-19T17:49:50.001Z</time></trkpt><trkpt lat="45.060577964091536" lon="10.84163837842981"><ele>19.0</ele><time>2026-04-19T17:49:51.001Z</time></trkpt><trkpt lat="45.06084387667987" lon="10.841643213554013"><ele>19.0</ele><time>2026-04-19T17:49:52.001Z</time></trkpt><trkpt lat="45.06111176255559" lon="10.841655378649023"><ele>19.0</ele><time>2026-04-19T17:49:53.001Z</time></trkpt><trkpt lat="45.061378423892926" lon="10.841676061438267"><ele>19.0</ele><time>2026-04-19T17:49:54.001Z</time></trkpt><trkpt lat="45.0616450221368" lon="10.841706246525625"><ele>18.5</ele><time>2026-04-19T17:49:55.001Z</time></trkpt><trkpt lat="45.06191242000553" lon="10.841746304200683"><ele>18.0</ele><time>2026-04-19T17:49:56.001Z</time></trkpt><trkpt lat="45.06217901434216" lon="10.841795972721375"><ele>17.0</ele><time>2026-04-19T17:49:57.001Z</time></trkpt><trkpt lat="45.06244186730113" lon="10.841854637074208"><ele>16.0</ele><time>2026-04-19T17:49:58.001Z</time></trkpt><trkpt lat="45.06270409424978" lon="10.841924158332901"><ele>16.0</ele><time>2026-04-19T17:49:59.001Z</time></trkpt><trkpt lat="45.06296518474537" lon="10.842003854653065"><ele>16.0</ele><time>2026-04-19T17:50:00.001Z</time></trkpt><trkpt lat="45.06322627268755" lon="10.842092758137284"><ele>16.0</ele><time>2026-04-19T17:50:01.001Z</time></trkpt><trkpt lat="45.06348286470011" lon="10.842190195916137"><ele>16.0</ele><time>2026-04-19T17:50:02.001Z</time></trkpt><trkpt lat="45.06373836908289" lon="10.842295550512047"><ele>16.0</ele><time>2026-04-19T17:50:03.001Z</time></trkpt><trkpt lat="45.06399305494593" lon="10.842405597253437"><ele>16.0</ele><time>2026-04-19T17:50:04.001Z</time></trkpt><trkpt lat="45.06424823237279" lon="10.842519256727266"><ele>16.0</ele><time>2026-04-19T17:50:05.001Z</time></trkpt><trkpt lat="45.0645042895396" lon="10.842633501929068"><ele>16.0</ele><time>2026-04-19T17:50:06.001Z</time></trkpt><trkpt lat="45.06476033028511" lon="10.842747021849803"><ele>17.0</ele><time>2026-04-19T17:50:07.001Z</time></trkpt><trkpt lat="45.06501652311222" lon="10.842860366240096"><ele>18.0</ele><time>2026-04-19T17:50:08.001Z</time></trkpt><trkpt lat="45.06527162881953" lon="10.842976797389635"><ele>18.0</ele><time>2026-04-19T17:50:09.001Z</time></trkpt><trkpt lat="45.0655262425503" lon="10.84309169296067"><ele>18.0</ele><time>2026-04-19T17:50:10.001Z</time></trkpt><trkpt lat="45.06578083289269" lon="10.843207551080274"><ele>17.5</ele><time>2026-04-19T17:50:11.001Z</time></trkpt><trkpt lat="45.06603622646755" lon="10.84332488507668"><ele>17.0</ele><time>2026-04-19T17:50:12.001Z</time></trkpt><trkpt lat="45.066290934816344" lon="10.843439192278323"><ele>17.5</ele><time>2026-04-19T17:50:13.001Z</time></trkpt><trkpt lat="45.06654681017986" lon="10.843555132584553"><ele>18.0</ele><time>2026-04-19T17:50:14.001Z</time></trkpt><trkpt lat="45.06680244749273" lon="10.843669376620475"><ele>18.0</ele><time>2026-04-19T17:50:15.001Z</time></trkpt><trkpt lat="45.067058214912706" lon="10.84378494935106"><ele>18.0</ele><time>2026-04-19T17:50:16.001Z</time></trkpt><trkpt lat="45.067312271694526" lon="10.843900728238221"><ele>18.0</ele><time>2026-04-19T17:50:17.001Z</time></trkpt><trkpt lat="45.06756693272903" lon="10.84401701702893"><ele>18.0</ele><time>2026-04-19T17:50:18.001Z</time></trkpt><trkpt lat="45.067821909469345" lon="10.844133844281686"><ele>18.0</ele><time>2026-04-19T17:50:19.001Z</time></trkpt><trkpt lat="45.06807493356361" lon="10.844249488483044"><ele>18.0</ele><time>2026-04-19T17:50:20.001Z</time></trkpt><trkpt lat="45.068330403578095" lon="10.844366746737434"><ele>17.0</ele><time>2026-04-19T17:50:21.001Z</time></trkpt><trkpt lat="45.06858524188962" lon="10.844483555047649"><ele>16.0</ele><time>2026-04-19T17:50:22.001Z</time></trkpt><trkpt lat="45.0688395306848" lon="10.844599281242585"><ele>16.0</ele><time>2026-04-19T17:50:23.001Z</time></trkpt><trkpt lat="45.06909412282012" lon="10.844714429132033"><ele>16.0</ele><time>2026-04-19T17:50:24.001Z</time></trkpt><trkpt lat="45.06934925756879" lon="10.844829249768992"><ele>16.0</ele><time>2026-04-19T17:50:25.001Z</time></trkpt><trkpt lat="45.069602683811304" lon="10.844943532915632"><ele>16.0</ele><time>2026-04-19T17:50:26.001Z</time></trkpt><trkpt lat="45.06985831596189" lon="10.845060168122117"><ele>16.0</ele><time>2026-04-19T17:50:27.001Z</time></trkpt><trkpt lat="45.07011228985854" lon="10.845177367209752"><ele>16.0</ele><time>2026-04-19T17:50:28.001Z</time></trkpt><trkpt lat="45.070366981817415" lon="10.845294261603826"><ele>16.0</ele><time>2026-04-19T17:50:29.001Z</time></trkpt><trkpt lat="45.07062230431049" lon="10.845412253168437"><ele>16.0</ele><time>2026-04-19T17:50:30.001Z</time></trkpt><trkpt lat="45.070876040972216" lon="10.845529949120214"><ele>16.5</ele><time>2026-04-19T17:50:31.001Z</time></trkpt><trkpt lat="45.071130018265954" lon="10.845650172749114"><ele>17.0</ele><time>2026-04-19T17:50:32.001Z</time></trkpt><trkpt lat="45.07138311009511" lon="10.84577080275854"><ele>17.5</ele><time>2026-04-19T17:50:33.001Z</time></trkpt><trkpt lat="45.07163709434403" lon="10.84589488217768"><ele>18.0</ele><time>2026-04-19T17:50:34.001Z</time></trkpt><trkpt lat="45.07188945130914" lon="10.84601928482889"><ele>17.0</ele><time>2026-04-19T17:50:35.001Z</time></trkpt><trkpt lat="45.07214199392496" lon="10.846142919028368"><ele>16.0</ele><time>2026-04-19T17:50:36.001Z</time></trkpt><trkpt lat="45.07239535701121" lon="10.846268005467081"><ele>17.0</ele><time>2026-04-19T17:50:37.001Z</time></trkpt><trkpt lat="45.072648043506625" lon="10.846392723653333"><ele>18.0</ele><time>2026-04-19T17:50:38.001Z</time></trkpt><trkpt lat="45.072900945100336" lon="10.846518626478662"><ele>18.0</ele><time>2026-04-19T17:50:39.001Z</time></trkpt><trkpt lat="45.07315267307073" lon="10.846646171392768"><ele>18.0</ele><time>2026-04-19T17:50:40.001Z</time></trkpt><trkpt lat="45.07340490137561" lon="10.846776636985945"><ele>17.5</ele><time>2026-04-19T17:50:41.001Z</time></trkpt><trkpt lat="45.07365547485789" lon="10.846907047015023"><ele>17.0</ele><time>2026-04-19T17:50:42.001Z</time></trkpt><trkpt lat="45.07390848853216" lon="10.847037327405719"><ele>16.5</ele><time>2026-04-19T17:50:43.001Z</time></trkpt><trkpt lat="45.074159296283796" lon="10.847168127584133"><ele>16.0</ele><time>2026-04-19T17:50:44.001Z</time></trkpt><trkpt lat="45.07441143981467" lon="10.847294089558272"><ele>16.0</ele><time>2026-04-19T17:50:45.001Z</time></trkpt><trkpt lat="45.07466449851089" lon="10.847417268467371"><ele>16.0</ele><time>2026-04-19T17:50:46.001Z</time></trkpt><trkpt lat="45.07491715140475" lon="10.84753614715959"><ele>16.0</ele><time>2026-04-19T17:50:47.001Z</time></trkpt><trkpt lat="45.07517107629254" lon="10.8476572388071"><ele>16.0</ele><time>2026-04-19T17:50:48.001Z</time></trkpt><trkpt lat="45.07542636851115" lon="10.847781883284249"><ele>16.0</ele><time>2026-04-19T17:50:49.001Z</time></trkpt><trkpt lat="45.07568229553783" lon="10.84790824703204"><ele>16.0</ele><time>2026-04-19T17:50:50.001Z</time></trkpt><trkpt lat="45.075944278786004" lon="10.84804160881485"><ele>16.5</ele><time>2026-04-19T17:50:51.001Z</time></trkpt><trkpt lat="45.076209302733254" lon="10.84817824609875"><ele>17.0</ele><time>2026-04-19T17:50:52.001Z</time></trkpt><trkpt lat="45.076473834099076" lon="10.848317336583857"><ele>17.0</ele><time>2026-04-19T17:50:53.001Z</time></trkpt><trkpt lat="45.07673808407519" lon="10.848457724494608"><ele>17.0</ele><time>2026-04-19T17:50:54.001Z</time></trkpt><trkpt lat="45.07700088936079" lon="10.848600961545664"><ele>17.0</ele><time>2026-04-19T17:50:55.001Z</time></trkpt><trkpt lat="45.07726440589472" lon="10.848746403837572"><ele>17.0</ele><time>2026-04-19T17:50:56.001Z</time></trkpt><trkpt lat="45.07752514553148" lon="10.848890187213742"><ele>16.5</ele><time>2026-04-19T17:50:57.001Z</time></trkpt><trkpt lat="45.07778640171666" lon="10.849029363719412"><ele>16.0</ele><time>2026-04-19T17:50:58.001Z</time></trkpt><trkpt lat="45.0780482180627" lon="10.849165561864975"><ele>16.0</ele><time>2026-04-19T17:50:59.001Z</time></trkpt><trkpt lat="45.07831060866842" lon="10.84930382884337"><ele>16.0</ele><time>2026-04-19T17:51:00.001Z</time></trkpt><trkpt lat="45.07857267160779" lon="10.849442107238156"><ele>16.0</ele><time>2026-04-19T17:51:01.001Z</time></trkpt><trkpt lat="45.07883427559494" lon="10.84957868439245"><ele>16.0</ele><time>2026-04-19T17:51:02.001Z</time></trkpt><trkpt lat="45.07909739711114" lon="10.84971425448984"><ele>16.0</ele><time>2026-04-19T17:51:03.001Z</time></trkpt><trkpt lat="45.07936127903607" lon="10.849849395622893"><ele>16.0</ele><time>2026-04-19T17:51:04.001Z</time></trkpt><trkpt lat="45.079627279519144" lon="10.849986169830759"><ele>17.0</ele><time>2026-04-19T17:51:05.001Z</time></trkpt><trkpt lat="45.07989753613102" lon="10.850126730202854"><ele>18.0</ele><time>2026-04-19T17:51:06.001Z</time></trkpt><trkpt lat="45.08016758269075" lon="10.850266742200143"><ele>18.0</ele><time>2026-04-19T17:51:07.001Z</time></trkpt><trkpt lat="45.08043639606879" lon="10.850406524754032"><ele>18.0</ele><time>2026-04-19T17:51:08.001Z</time></trkpt><trkpt lat="45.08070683047039" lon="10.85054757151901"><ele>18.0</ele><time>2026-04-19T17:51:09.001Z</time></trkpt><trkpt lat="45.08097516280167" lon="10.850686756196792"><ele>18.0</ele><time>2026-04-19T17:51:10.001Z</time></trkpt><trkpt lat="45.081242457071454" lon="10.850823912975876"><ele>17.5</ele><time>2026-04-19T17:51:11.001Z</time></trkpt><trkpt lat="45.081509965797096" lon="10.850961103749107"><ele>17.0</ele><time>2026-04-19T17:51:12.001Z</time></trkpt><trkpt lat="45.08177702967575" lon="10.85109914281663"><ele>16.5</ele><time>2026-04-19T17:51:13.001Z</time></trkpt><trkpt lat="45.08204472368025" lon="10.851236334174747"><ele>16.0</ele><time>2026-04-19T17:51:14.001Z</time></trkpt><trkpt lat="45.08231152883908" lon="10.85137298891414"><ele>17.5</ele><time>2026-04-19T17:51:15.001Z</time></trkpt><trkpt lat="45.08257952261572" lon="10.851510060823214"><ele>19.0</ele><time>2026-04-19T17:51:16.001Z</time></trkpt><trkpt lat="45.082847019342935" lon="10.851647400623817"><ele>19.0</ele><time>2026-04-19T17:51:17.001Z</time></trkpt><trkpt lat="45.083115115730614" lon="10.85178477388679"><ele>19.0</ele><time>2026-04-19T17:51:18.001Z</time></trkpt><trkpt lat="45.08338207171937" lon="10.851920570601871"><ele>17.5</ele><time>2026-04-19T17:51:19.001Z</time></trkpt><trkpt lat="45.0836487471216" lon="10.852056919923593"><ele>16.0</ele><time>2026-04-19T17:51:20.001Z</time></trkpt><trkpt lat="45.08391620871464" lon="10.852193431084656"><ele>16.0</ele><time>2026-04-19T17:51:21.001Z</time></trkpt><trkpt lat="45.08418445308182" lon="10.852331132381469"><ele>16.0</ele><time>2026-04-19T17:51:22.001Z</time></trkpt><trkpt lat="45.084451674517695" lon="10.852469910910557"><ele>16.0</ele><time>2026-04-19T17:51:23.001Z</time></trkpt><trkpt lat="45.08471850099594" lon="10.852608192201396"><ele>16.0</ele><time>2026-04-19T17:51:24.001Z</time></trkpt><trkpt lat="45.084986748323786" lon="10.852746181946715"><ele>17.0</ele><time>2026-04-19T17:51:25.001Z</time></trkpt><trkpt lat="45.085254315134556" lon="10.852884437171355"><ele>18.0</ele><time>2026-04-19T17:51:26.001Z</time></trkpt><trkpt lat="45.08552177867944" lon="10.853024213849514"><ele>18.5</ele><time>2026-04-19T17:51:27.001Z</time></trkpt><trkpt lat="45.085788736168645" lon="10.85316390874569"><ele>19.0</ele><time>2026-04-19T17:51:28.001Z</time></trkpt><trkpt lat="45.08605643828794" lon="10.853302899193903"><ele>19.0</ele><time>2026-04-19T17:51:29.001Z</time></trkpt><trkpt lat="45.08632388258599" lon="10.853441070639912"><ele>19.0</ele><time>2026-04-19T17:51:30.001Z</time></trkpt><trkpt lat="45.08659161034586" lon="10.853579051905147"><ele>19.0</ele><time>2026-04-19T17:51:31.001Z</time></trkpt><trkpt lat="45.086858550720585" lon="10.853717078592037"><ele>19.0</ele><time>2026-04-19T17:51:32.001Z</time></trkpt><trkpt lat="45.087125851308336" lon="10.853855877352146"><ele>19.0</ele><time>2026-04-19T17:51:33.001Z</time></trkpt><trkpt lat="45.08739357756512" lon="10.85399117970664"><ele>19.0</ele><time>2026-04-19T17:51:34.001Z</time></trkpt><trkpt lat="45.08766179671052" lon="10.854127812786846"><ele>17.0</ele><time>2026-04-19T17:51:35.001Z</time></trkpt><trkpt lat="45.08792978610899" lon="10.854263233661833"><ele>15.0</ele><time>2026-04-19T17:51:36.001Z</time></trkpt><trkpt lat="45.08819617304419" lon="10.85439573041763"><ele>15.5</ele><time>2026-04-19T17:51:37.001Z</time></trkpt><trkpt lat="45.088458011533326" lon="10.854522791226662"><ele>16.0</ele><time>2026-04-19T17:51:38.001Z</time></trkpt><trkpt lat="45.08871415251021" lon="10.854645210770789"><ele>16.0</ele><time>2026-04-19T17:51:39.001Z</time></trkpt><trkpt lat="45.08896620174229" lon="10.85476063596729"><ele>16.0</ele><time>2026-04-19T17:51:40.001Z</time></trkpt><trkpt lat="45.089216920366226" lon="10.85486922383551"><ele>17.0</ele><time>2026-04-19T17:51:41.001Z</time></trkpt><trkpt lat="45.089470868321015" lon="10.854976104678205"><ele>18.0</ele><time>2026-04-19T17:51:42.001Z</time></trkpt><trkpt lat="45.08972731405725" lon="10.855081816215439"><ele>18.5</ele><time>2026-04-19T17:51:43.001Z</time></trkpt><trkpt lat="45.089989544337676" lon="10.855186694896535"><ele>19.0</ele><time>2026-04-19T17:51:44.001Z</time></trkpt><trkpt lat="45.09025697316311" lon="10.855289550926466"><ele>19.0</ele><time>2026-04-19T17:51:45.001Z</time></trkpt><trkpt lat="45.09053058231452" lon="10.855390823086747"><ele>19.0</ele><time>2026-04-19T17:51:46.001Z</time></trkpt><trkpt lat="45.09080663716009" lon="10.85549126715405"><ele>19.5</ele><time>2026-04-19T17:51:47.001Z</time></trkpt><trkpt lat="45.09108495452891" lon="10.85559100296794"><ele>20.0</ele><time>2026-04-19T17:51:48.001Z</time></trkpt><trkpt lat="45.091362226116985" lon="10.8556892342608"><ele>19.5</ele><time>2026-04-19T17:51:49.001Z</time></trkpt><trkpt lat="45.09164324296253" lon="10.855790293434522"><ele>19.0</ele><time>2026-04-19T17:51:50.001Z</time></trkpt><trkpt lat="45.09191941129374" lon="10.855890395966043"><ele>19.0</ele><time>2026-04-19T17:51:51.001Z</time></trkpt><trkpt lat="45.092188025961505" lon="10.855987100136879"><ele>19.0</ele><time>2026-04-19T17:51:52.001Z</time></trkpt><trkpt lat="45.09245409780027" lon="10.856082147146198"><ele>19.0</ele><time>2026-04-19T17:51:53.001Z</time></trkpt><trkpt lat="45.09271267200384" lon="10.856174908254353"><ele>19.0</ele><time>2026-04-19T17:51:54.001Z</time></trkpt><trkpt lat="45.09296888623872" lon="10.856264544933842"><ele>19.0</ele><time>2026-04-19T17:51:55.001Z</time></trkpt><trkpt lat="45.09322138275057" lon="10.85635262287196"><ele>19.0</ele><time>2026-04-19T17:51:56.001Z</time></trkpt><trkpt lat="45.093472872678845" lon="10.856439032293775"><ele>20.5</ele><time>2026-04-19T17:51:57.001Z</time></trkpt><trkpt lat="45.09372554108438" lon="10.85652699824722"><ele>22.0</ele><time>2026-04-19T17:51:58.001Z</time></trkpt><trkpt lat="45.09398078957562" lon="10.856613288927111"><ele>21.5</ele><time>2026-04-19T17:51:59.001Z</time></trkpt><trkpt lat="45.094234276907706" lon="10.856705452505341"><ele>21.0</ele><time>2026-04-19T17:52:00.001Z</time></trkpt><trkpt lat="45.09448854636417" lon="10.856800855178477"><ele>21.0</ele><time>2026-04-19T17:52:01.001Z</time></trkpt><trkpt lat="45.09474291678566" lon="10.856895032713304"><ele>21.0</ele><time>2026-04-19T17:52:02.001Z</time></trkpt><trkpt lat="45.0949996536991" lon="10.85698934656535"><ele>20.0</ele><time>2026-04-19T17:52:03.001Z</time></trkpt><trkpt lat="45.095254652268444" lon="10.85707989311164"><ele>19.0</ele><time>2026-04-19T17:52:04.001Z</time></trkpt><trkpt lat="45.09551194762876" lon="10.857171815036684"><ele>19.0</ele><time>2026-04-19T17:52:05.001Z</time></trkpt><trkpt lat="45.09576801029508" lon="10.857261028551557"><ele>19.0</ele><time>2026-04-19T17:52:06.001Z</time></trkpt><trkpt lat="45.09602441636754" lon="10.85735042407837"><ele>19.0</ele><time>2026-04-19T17:52:07.001Z</time></trkpt><trkpt lat="45.09627907022331" lon="10.857439570493899"><ele>19.0</ele><time>2026-04-19T17:52:08.001Z</time></trkpt><trkpt lat="45.09653461908721" lon="10.857529653110312"><ele>18.0</ele><time>2026-04-19T17:52:09.001Z</time></trkpt><trkpt lat="45.09679094320783" lon="10.85761914774349"><ele>17.0</ele><time>2026-04-19T17:52:10.001Z</time></trkpt><trkpt lat="45.09704660173884" lon="10.857711993169506"><ele>17.0</ele><time>2026-04-19T17:52:11.001Z</time></trkpt><trkpt lat="45.097302155153756" lon="10.857808209312386"><ele>17.0</ele><time>2026-04-19T17:52:12.001Z</time></trkpt><trkpt lat="45.09755721946433" lon="10.857903550689882"><ele>16.0</ele><time>2026-04-19T17:52:13.001Z</time></trkpt><trkpt lat="45.09781323849527" lon="10.857994520366542"><ele>15.0</ele><time>2026-04-19T17:52:14.001Z</time></trkpt><trkpt lat="45.09806777649328" lon="10.858085621639042"><ele>14.5</ele><time>2026-04-19T17:52:15.001Z</time></trkpt><trkpt lat="45.09832336530671" lon="10.858178147474352"><ele>14.0</ele><time>2026-04-19T17:52:16.001Z</time></trkpt><trkpt lat="45.09857655640879" lon="10.8582685940529"><ele>14.0</ele><time>2026-04-19T17:52:17.001Z</time></trkpt><trkpt lat="45.09883183163285" lon="10.858359348548973"><ele>14.0</ele><time>2026-04-19T17:52:18.001Z</time></trkpt><trkpt lat="45.09908719822272" lon="10.858447281834524"><ele>14.5</ele><time>2026-04-19T17:52:19.001Z</time></trkpt><trkpt lat="45.09934206051103" lon="10.858534783513218"><ele>15.0</ele><time>2026-04-19T17:52:20.001Z</time></trkpt><trkpt lat="45.09959767793381" lon="10.858624768073042"><ele>15.0</ele><time>2026-04-19T17:52:21.001Z</time></trkpt><trkpt lat="45.09985418966609" lon="10.8587140443283"><ele>15.0</ele><time>2026-04-19T17:52:22.001Z</time></trkpt><trkpt lat="45.10010702867369" lon="10.858802781636273"><ele>15.5</ele><time>2026-04-19T17:52:23.001Z</time></trkpt><trkpt lat="45.100361670718854" lon="10.858893742864314"><ele>16.0</ele><time>2026-04-19T17:52:24.001Z</time></trkpt><trkpt lat="45.1006167878393" lon="10.858986931506992"><ele>15.0</ele><time>2026-04-19T17:52:25.001Z</time></trkpt><trkpt lat="45.10086944230301" lon="10.859080089565019"><ele>14.0</ele><time>2026-04-19T17:52:26.001Z</time></trkpt><trkpt lat="45.10112601201952" lon="10.859173542188378"><ele>14.0</ele><time>2026-04-19T17:52:27.001Z</time></trkpt><trkpt lat="45.10138096563404" lon="10.859263682443036"><ele>14.0</ele><time>2026-04-19T17:52:28.001Z</time></trkpt><trkpt lat="45.10163608957216" lon="10.859352747866224"><ele>12.0</ele><time>2026-04-19T17:52:29.001Z</time></trkpt><trkpt lat="45.101891472313056" lon="10.859443452743886"><ele>10.0</ele><time>2026-04-19T17:52:30.001Z</time></trkpt><trkpt lat="45.10214643742755" lon="10.85953433617501"><ele>10.0</ele><time>2026-04-19T17:52:31.001Z</time></trkpt><trkpt lat="45.10240236218188" lon="10.85962624376781"><ele>10.0</ele><time>2026-04-19T17:52:32.001Z</time></trkpt><trkpt lat="45.10265621600785" lon="10.859717920314901"><ele>11.0</ele><time>2026-04-19T17:52:33.001Z</time></trkpt><trkpt lat="45.1029110249592" lon="10.859811613784501"><ele>12.0</ele><time>2026-04-19T17:52:34.001Z</time></trkpt><trkpt lat="45.10316606802157" lon="10.859904178582369"><ele>12.0</ele><time>2026-04-19T17:52:35.001Z</time></trkpt><trkpt lat="45.10342033454045" lon="10.859996788941823"><ele>12.0</ele><time>2026-04-19T17:52:36.001Z</time></trkpt><trkpt lat="45.10367620014114" lon="10.860088410181369"><ele>11.5</ele><time>2026-04-19T17:52:37.001Z</time></trkpt><trkpt lat="45.10393192699252" lon="10.86018069186673"><ele>11.0</ele><time>2026-04-19T17:52:38.001Z</time></trkpt><trkpt lat="45.10418770158376" lon="10.860274854830651"><ele>10.5</ele><time>2026-04-19T17:52:39.001Z</time></trkpt><trkpt lat="45.104440822659996" lon="10.860370860052825"><ele>10.0</ele><time>2026-04-19T17:52:40.001Z</time></trkpt><trkpt lat="45.10469360410923" lon="10.860470748468819"><ele>11.5</ele><time>2026-04-19T17:52:41.001Z</time></trkpt><trkpt lat="45.104947659630405" lon="10.860575433379063"><ele>13.0</ele><time>2026-04-19T17:52:42.001Z</time></trkpt><trkpt lat="45.105198518318375" lon="10.860681512840747"><ele>13.0</ele><time>2026-04-19T17:52:43.001Z</time></trkpt><trkpt lat="45.10544902142441" lon="10.860790635213975"><ele>13.0</ele><time>2026-04-19T17:52:44.001Z</time></trkpt><trkpt lat="45.10569934170702" lon="10.860902124312117"><ele>12.5</ele><time>2026-04-19T17:52:45.001Z</time></trkpt><trkpt lat="45.10595022529566" lon="10.861015529727473"><ele>12.0</ele><time>2026-04-19T17:52:46.001Z</time></trkpt><trkpt lat="45.10619891315142" lon="10.861129483282062"><ele>12.0</ele><time>2026-04-19T17:52:47.001Z</time></trkpt><trkpt lat="45.10644980178138" lon="10.861244271716625"><ele>12.0</ele><time>2026-04-19T17:52:48.001Z</time></trkpt><trkpt lat="45.10670019240723" lon="10.861356183156257"><ele>12.0</ele><time>2026-04-19T17:52:49.001Z</time></trkpt><trkpt lat="45.10695131381046" lon="10.861466951928424"><ele>12.0</ele><time>2026-04-19T17:52:50.001Z</time></trkpt><trkpt lat="45.10720059979167" lon="10.861578527161338"><ele>13.0</ele><time>2026-04-19T17:52:51.001Z</time></trkpt><trkpt lat="45.10745109589752" lon="10.861691730983098"><ele>14.0</ele><time>2026-04-19T17:52:52.001Z</time></trkpt><trkpt lat="45.10770144546439" lon="10.861805642119052"><ele>14.0</ele><time>2026-04-19T17:52:53.001Z</time></trkpt><trkpt lat="45.107953720329604" lon="10.86191876450849"><ele>14.0</ele><time>2026-04-19T17:52:54.001Z</time></trkpt><trkpt lat="45.10820258141194" lon="10.862031954472448"><ele>14.5</ele><time>2026-04-19T17:52:55.001Z</time></trkpt><trkpt lat="45.1084539614696" lon="10.862144562666597"><ele>15.0</ele><time>2026-04-19T17:52:56.001Z</time></trkpt><trkpt lat="45.108705318155714" lon="10.862257162470103"><ele>15.0</ele><time>2026-04-19T17:52:57.001Z</time></trkpt><trkpt lat="45.10895633882223" lon="10.86236951621857"><ele>15.0</ele><time>2026-04-19T17:52:58.001Z</time></trkpt><trkpt lat="45.10920784851954" lon="10.862482474901935"><ele>14.5</ele><time>2026-04-19T17:52:59.001Z</time></trkpt><trkpt lat="45.10945940101007" lon="10.86259537166075"><ele>14.0</ele><time>2026-04-19T17:53:00.001Z</time></trkpt><trkpt lat="45.10971059326379" lon="10.862708537144796"><ele>15.0</ele><time>2026-04-19T17:53:01.001Z</time></trkpt><trkpt lat="45.10996135883613" lon="10.862820929306741"><ele>16.0</ele><time>2026-04-19T17:53:02.001Z</time></trkpt><trkpt lat="45.11021151017384" lon="10.862933770938797"><ele>16.0</ele><time>2026-04-19T17:53:03.001Z</time></trkpt><trkpt lat="45.110462143042724" lon="10.863048178071079"><ele>16.0</ele><time>2026-04-19T17:53:04.001Z</time></trkpt><trkpt lat="45.110712534810524" lon="10.863159677289767"><ele>19.0</ele><time>2026-04-19T17:53:05.001Z</time></trkpt><trkpt lat="45.1109620149164" lon="10.863271493067694"><ele>22.0</ele><time>2026-04-19T17:53:06.001Z</time></trkpt><trkpt lat="45.11121122964473" lon="10.863385055050674"><ele>19.5</ele><time>2026-04-19T17:53:07.001Z</time></trkpt><trkpt lat="45.11146215717683" lon="10.863498051348447"><ele>17.0</ele><time>2026-04-19T17:53:08.001Z</time></trkpt><trkpt lat="45.11171459315545" lon="10.863612821538327"><ele>16.5</ele><time>2026-04-19T17:53:09.001Z</time></trkpt><trkpt lat="45.111966090617756" lon="10.86372609710746"><ele>16.0</ele><time>2026-04-19T17:53:10.001Z</time></trkpt><trkpt lat="45.112217861306405" lon="10.86383876115741"><ele>16.5</ele><time>2026-04-19T17:53:11.001Z</time></trkpt><trkpt lat="45.112471194200914" lon="10.863953720254473"><ele>17.0</ele><time>2026-04-19T17:53:12.001Z</time></trkpt><trkpt lat="45.11272167470191" lon="10.864068592508357"><ele>17.0</ele><time>2026-04-19T17:53:13.001Z</time></trkpt><trkpt lat="45.11297412010927" lon="10.864182691633633"><ele>17.0</ele><time>2026-04-19T17:53:14.001Z</time></trkpt><trkpt lat="45.113226060169055" lon="10.86429900356742"><ele>17.5</ele><time>2026-04-19T17:53:15.001Z</time></trkpt><trkpt lat="45.11347424612608" lon="10.864411746553303"><ele>18.0</ele><time>2026-04-19T17:53:16.001Z</time></trkpt><trkpt lat="45.113725999125656" lon="10.864527213743374"><ele>18.0</ele><time>2026-04-19T17:53:17.001Z</time></trkpt><trkpt lat="45.11397850564949" lon="10.864641514984193"><ele>18.0</ele><time>2026-04-19T17:53:18.001Z</time></trkpt><trkpt lat="45.11423037139225" lon="10.864755290005146"><ele>17.0</ele><time>2026-04-19T17:53:19.001Z</time></trkpt><trkpt lat="45.1144793141043" lon="10.864868561844787"><ele>16.0</ele><time>2026-04-19T17:53:20.001Z</time></trkpt><trkpt lat="45.1147315968492" lon="10.864981222266264"><ele>16.0</ele><time>2026-04-19T17:53:21.001Z</time></trkpt><trkpt lat="45.11498071295659" lon="10.865093635308904"><ele>16.0</ele><time>2026-04-19T17:53:22.001Z</time></trkpt><trkpt lat="45.11523281126874" lon="10.86520695247475"><ele>14.5</ele><time>2026-04-19T17:53:23.001Z</time></trkpt><trkpt lat="45.115483082288215" lon="10.865319720945182"><ele>13.0</ele><time>2026-04-19T17:53:24.001Z</time></trkpt><trkpt lat="45.11573424568634" lon="10.8654326902017"><ele>14.0</ele><time>2026-04-19T17:53:25.001Z</time></trkpt><trkpt lat="45.11598484517156" lon="10.865545668736535"><ele>15.0</ele><time>2026-04-19T17:53:26.001Z</time></trkpt><trkpt lat="45.11623631129796" lon="10.865657780902353"><ele>15.0</ele><time>2026-04-19T17:53:27.001Z</time></trkpt><trkpt lat="45.11648748745863" lon="10.865770976886354"><ele>15.0</ele><time>2026-04-19T17:53:28.001Z</time></trkpt><trkpt lat="45.116737888404174" lon="10.86588511588672"><ele>15.0</ele><time>2026-04-19T17:53:29.001Z</time></trkpt><trkpt lat="45.11698909500557" lon="10.866000614336786"><ele>15.0</ele><time>2026-04-19T17:53:30.001Z</time></trkpt><trkpt lat="45.11723933084619" lon="10.866113632458704"><ele>15.0</ele><time>2026-04-19T17:53:31.001Z</time></trkpt><trkpt lat="45.11749217045479" lon="10.866228124456338"><ele>15.0</ele><time>2026-04-19T17:53:32.001Z</time></trkpt><trkpt lat="45.117741824508" lon="10.866340213256384"><ele>15.0</ele><time>2026-04-19T17:53:33.001Z</time></trkpt><trkpt lat="45.11799344027799" lon="10.866455208782344"><ele>15.0</ele><time>2026-04-19T17:53:34.001Z</time></trkpt><trkpt lat="45.11824303030703" lon="10.866568425389124"><ele>15.5</ele><time>2026-04-19T17:53:35.001Z</time></trkpt><trkpt lat="45.11849245980249" lon="10.866680620932032"><ele>16.0</ele><time>2026-04-19T17:53:36.001Z</time></trkpt><trkpt lat="45.118744943535994" lon="10.866795000047373"><ele>16.0</ele><time>2026-04-19T17:53:37.001Z</time></trkpt><trkpt lat="45.11899445493682" lon="10.866908548562288"><ele>16.0</ele><time>2026-04-19T17:53:38.001Z</time></trkpt><trkpt lat="45.11924728120879" lon="10.867021628533255"><ele>16.0</ele><time>2026-04-19T17:53:39.001Z</time></trkpt><trkpt lat="45.119496550244335" lon="10.867136259594222"><ele>16.0</ele><time>2026-04-19T17:53:40.001Z</time></trkpt><trkpt lat="45.119748361042916" lon="10.867250758552608"><ele>15.0</ele><time>2026-04-19T17:53:41.001Z</time></trkpt><trkpt lat="45.1199984384" lon="10.867361323090757"><ele>14.0</ele><time>2026-04-19T17:53:42.001Z</time></trkpt><trkpt lat="45.1202500387216" lon="10.867476153581032"><ele>14.0</ele><time>2026-04-19T17:53:43.001Z</time></trkpt><trkpt lat="45.120500838847015" lon="10.867588649303817"><ele>14.0</ele><time>2026-04-19T17:53:44.001Z</time></trkpt><trkpt lat="45.12075049705616" lon="10.867699173003649"><ele>14.0</ele><time>2026-04-19T17:53:45.001Z</time></trkpt><trkpt lat="45.12099978498911" lon="10.867813065670383"><ele>14.0</ele><time>2026-04-19T17:53:46.001Z</time></trkpt><trkpt lat="45.12125024019849" lon="10.867927481912716"><ele>14.0</ele><time>2026-04-19T17:53:47.001Z</time></trkpt><trkpt lat="45.121499437891806" lon="10.868043767018586"><ele>14.0</ele><time>2026-04-19T17:53:48.001Z</time></trkpt><trkpt lat="45.12174974046474" lon="10.868157124218431"><ele>14.5</ele><time>2026-04-19T17:53:49.001Z</time></trkpt><trkpt lat="45.12199851290734" lon="10.86827383059702"><ele>15.0</ele><time>2026-04-19T17:53:50.001Z</time></trkpt><trkpt lat="45.12225034812032" lon="10.868388715195609"><ele>16.0</ele><time>2026-04-19T17:53:51.001Z</time></trkpt><trkpt lat="45.12250174907197" lon="10.868501752620235"><ele>17.0</ele><time>2026-04-19T17:53:52.001Z</time></trkpt><trkpt lat="45.12275193339309" lon="10.868617259823736"><ele>17.0</ele><time>2026-04-19T17:53:53.001Z</time></trkpt><trkpt lat="45.12300057931638" lon="10.868731432251542"><ele>17.0</ele><time>2026-04-19T17:53:54.001Z</time></trkpt><trkpt lat="45.12325202996244" lon="10.868846560795866"><ele>17.5</ele><time>2026-04-19T17:53:55.001Z</time></trkpt><trkpt lat="45.12350353110687" lon="10.868960078982624"><ele>18.0</ele><time>2026-04-19T17:53:56.001Z</time></trkpt><trkpt lat="45.12375258219288" lon="10.86907572636652"><ele>18.0</ele><time>2026-04-19T17:53:57.001Z</time></trkpt><trkpt lat="45.12400328466103" lon="10.869188602831626"><ele>18.0</ele><time>2026-04-19T17:53:58.001Z</time></trkpt><trkpt lat="45.124254618329175" lon="10.869303798286007"><ele>17.5</ele><time>2026-04-19T17:53:59.001Z</time></trkpt><trkpt lat="45.124504958703476" lon="10.86941610870245"><ele>17.0</ele><time>2026-04-19T17:54:00.001Z</time></trkpt><trkpt lat="45.124756299099" lon="10.869525179475438"><ele>17.5</ele><time>2026-04-19T17:54:01.001Z</time></trkpt><trkpt lat="45.12500732762983" lon="10.869634468692734"><ele>18.0</ele><time>2026-04-19T17:54:02.001Z</time></trkpt><trkpt lat="45.12526009828637" lon="10.86974130848691"><ele>18.0</ele><time>2026-04-19T17:54:03.001Z</time></trkpt><trkpt lat="45.12551349037182" lon="10.869847902578508"><ele>18.0</ele><time>2026-04-19T17:54:04.001Z</time></trkpt><trkpt lat="45.12576606640141" lon="10.869951610627666"><ele>18.5</ele><time>2026-04-19T17:54:05.001Z</time></trkpt><trkpt lat="45.12601863826418" lon="10.87005483344658"><ele>19.0</ele><time>2026-04-19T17:54:06.001Z</time></trkpt><trkpt lat="45.126271685679946" lon="10.870156543905432"><ele>19.5</ele><time>2026-04-19T17:54:07.001Z</time></trkpt><trkpt lat="45.126526524642884" lon="10.870250779391789"><ele>20.0</ele><time>2026-04-19T17:54:08.001Z</time></trkpt><trkpt lat="45.12678237129394" lon="10.870342015020885"><ele>20.0</ele><time>2026-04-19T17:54:09.001Z</time></trkpt><trkpt lat="45.12703819203271" lon="10.870432251497405"><ele>20.0</ele><time>2026-04-19T17:54:10.001Z</time></trkpt><trkpt lat="45.127293635070096" lon="10.870516404352463"><ele>20.0</ele><time>2026-04-19T17:54:11.001Z</time></trkpt><trkpt lat="45.127550456222934" lon="10.870596762299588"><ele>20.0</ele><time>2026-04-19T17:54:12.001Z</time></trkpt><trkpt lat="45.127807739456564" lon="10.8706702781779"><ele>20.0</ele><time>2026-04-19T17:54:13.001Z</time></trkpt><trkpt lat="45.12806466348349" lon="10.87074454095593"><ele>20.0</ele><time>2026-04-19T17:54:14.001Z</time></trkpt><trkpt lat="45.1283220275834" lon="10.87081114585025"><ele>20.5</ele><time>2026-04-19T17:54:15.001Z</time></trkpt><trkpt lat="45.1285818740482" lon="10.870879967136"><ele>21.0</ele><time>2026-04-19T17:54:16.001Z</time></trkpt><trkpt lat="45.12884088805609" lon="10.87094365418539"><ele>21.0</ele><time>2026-04-19T17:54:17.001Z</time></trkpt><trkpt lat="45.12909967564551" lon="10.87100364781704"><ele>21.0</ele><time>2026-04-19T17:54:18.001Z</time></trkpt><trkpt lat="45.129361618661015" lon="10.871061108941829"><ele>21.0</ele><time>2026-04-19T17:54:19.001Z</time></trkpt><trkpt lat="45.1296214230857" lon="10.871112461879626"><ele>21.0</ele><time>2026-04-19T17:54:20.001Z</time></trkpt><trkpt lat="45.12988240198201" lon="10.87116017667997"><ele>21.0</ele><time>2026-04-19T17:54:21.001Z</time></trkpt><trkpt lat="45.13014362789525" lon="10.871201007580582"><ele>21.0</ele><time>2026-04-19T17:54:22.001Z</time></trkpt><trkpt lat="45.130405191947936" lon="10.871243540052353"><ele>21.0</ele><time>2026-04-19T17:54:23.001Z</time></trkpt><trkpt lat="45.13066647169778" lon="10.871280004145815"><ele>21.0</ele><time>2026-04-19T17:54:24.001Z</time></trkpt><trkpt lat="45.130929887072135" lon="10.871309566858782"><ele>20.0</ele><time>2026-04-19T17:54:25.001Z</time></trkpt><trkpt lat="45.131190125737376" lon="10.871343600443254"><ele>19.0</ele><time>2026-04-19T17:54:26.001Z</time></trkpt><trkpt lat="45.13145232264401" lon="10.871370978715989"><ele>19.5</ele><time>2026-04-19T17:54:27.001Z</time></trkpt><trkpt lat="45.13171364320343" lon="10.871392263206369"><ele>20.0</ele><time>2026-04-19T17:54:28.001Z</time></trkpt><trkpt lat="45.13197687980353" lon="10.871411780641429"><ele>20.0</ele><time>2026-04-19T17:54:29.001Z</time></trkpt><trkpt lat="45.13223943004013" lon="10.871429897116894"><ele>20.0</ele><time>2026-04-19T17:54:30.001Z</time></trkpt><trkpt lat="45.132503851795065" lon="10.871441606690261"><ele>20.0</ele><time>2026-04-19T17:54:31.001Z</time></trkpt><trkpt lat="45.13276647676283" lon="10.871446595104615"><ele>20.0</ele><time>2026-04-19T17:54:32.001Z</time></trkpt><trkpt lat="45.13302854728336" lon="10.87145703745095"><ele>20.5</ele><time>2026-04-19T17:54:33.001Z</time></trkpt><trkpt lat="45.13329259996081" lon="10.87145734744538"><ele>21.0</ele><time>2026-04-19T17:54:34.001Z</time></trkpt><trkpt lat="45.13355545696379" lon="10.871455982925363"><ele>21.0</ele><time>2026-04-19T17:54:35.001Z</time></trkpt><trkpt lat="45.1338188194878" lon="10.87145221348734"><ele>21.0</ele><time>2026-04-19T17:54:36.001Z</time></trkpt><trkpt lat="45.13408103802092" lon="10.871441402959244"><ele>20.5</ele><time>2026-04-19T17:54:37.001Z</time></trkpt><trkpt lat="45.13434425151665" lon="10.871429468007628"><ele>20.0</ele><time>2026-04-19T17:54:38.001Z</time></trkpt><trkpt lat="45.13460839023917" lon="10.871414003782386"><ele>20.0</ele><time>2026-04-19T17:54:39.001Z</time></trkpt><trkpt lat="45.1348693992394" lon="10.871395310882468"><ele>20.0</ele><time>2026-04-19T17:54:40.001Z</time></trkpt><trkpt lat="45.13513191085551" lon="10.871373593804762"><ele>19.5</ele><time>2026-04-19T17:54:41.001Z</time></trkpt><trkpt lat="45.1353947049517" lon="10.871347800241317"><ele>19.0</ele><time>2026-04-19T17:54:42.001Z</time></trkpt><trkpt lat="45.13565625192943" lon="10.871316058166727"><ele>18.5</ele><time>2026-04-19T17:54:43.001Z</time></trkpt><trkpt lat="45.13591879642048" lon="10.871280691339349"><ele>18.0</ele><time>2026-04-19T17:54:44.001Z</time></trkpt><trkpt lat="45.13618046751092" lon="10.87124249489776"><ele>18.0</ele><time>2026-04-19T17:54:45.001Z</time></trkpt><trkpt lat="45.136442053898215" lon="10.87119905708463"><ele>18.0</ele><time>2026-04-19T17:54:46.001Z</time></trkpt><trkpt lat="45.13670435871455" lon="10.871153414119641"><ele>17.0</ele><time>2026-04-19T17:54:47.001Z</time></trkpt><trkpt lat="45.136965490014546" lon="10.871104227305825"><ele>16.0</ele><time>2026-04-19T17:54:48.001Z</time></trkpt><trkpt lat="45.13722508372245" lon="10.871051754932964"><ele>17.0</ele><time>2026-04-19T17:54:49.001Z</time></trkpt><trkpt lat="45.137486930837504" lon="10.870994371501537"><ele>18.0</ele><time>2026-04-19T17:54:50.001Z</time></trkpt><trkpt lat="45.13774704481104" lon="10.870933207118911"><ele>18.0</ele><time>2026-04-19T17:54:51.001Z</time></trkpt><trkpt lat="45.138005485287636" lon="10.870868681401115"><ele>18.0</ele><time>2026-04-19T17:54:52.001Z</time></trkpt><trkpt lat="45.138262093562254" lon="10.870801142050176"><ele>20.0</ele><time>2026-04-19T17:54:53.001Z</time></trkpt><trkpt lat="45.13852204842447" lon="10.870730842961693"><ele>22.0</ele><time>2026-04-19T17:54:54.001Z</time></trkpt><trkpt lat="45.13877912210708" lon="10.870656292154983"><ele>22.0</ele><time>2026-04-19T17:54:55.001Z</time></trkpt><trkpt lat="45.13903549465969" lon="10.870579325792885"><ele>22.0</ele><time>2026-04-19T17:54:56.001Z</time></trkpt><trkpt lat="45.13929242934593" lon="10.870498255079578"><ele>21.0</ele><time>2026-04-19T17:54:57.001Z</time></trkpt><trkpt lat="45.13954980386459" lon="10.870414511865478"><ele>20.0</ele><time>2026-04-19T17:54:58.001Z</time></trkpt><trkpt lat="45.1398062297182" lon="10.870327653680102"><ele>19.0</ele><time>2026-04-19T17:54:59.001Z</time></trkpt><trkpt lat="45.14005916033413" lon="10.870235611815922"><ele>18.0</ele><time>2026-04-19T17:55:00.001Z</time></trkpt><trkpt lat="45.140313970820046" lon="10.870140602933393"><ele>19.0</ele><time>2026-04-19T17:55:01.001Z</time></trkpt><trkpt lat="45.14056697689456" lon="10.870042044834019"><ele>20.0</ele><time>2026-04-19T17:55:02.001Z</time></trkpt><trkpt lat="45.14082009902894" lon="10.86993890114982"><ele>20.0</ele><time>2026-04-19T17:55:03.001Z</time></trkpt><trkpt lat="45.141073444099455" lon="10.869832396202401"><ele>20.0</ele><time>2026-04-19T17:55:04.001Z</time></trkpt><trkpt lat="45.14132636731034" lon="10.869724582020059"><ele>20.5</ele><time>2026-04-19T17:55:05.001Z</time></trkpt><trkpt lat="45.14157867134905" lon="10.869617283033044"><ele>21.0</ele><time>2026-04-19T17:55:06.001Z</time></trkpt><trkpt lat="45.141830385559906" lon="10.869510513074724"><ele>21.0</ele><time>2026-04-19T17:55:07.001Z</time></trkpt><trkpt lat="45.14208342251889" lon="10.869404845440783"><ele>21.0</ele><time>2026-04-19T17:55:08.001Z</time></trkpt><trkpt lat="45.142335784581405" lon="10.869299569015446"><ele>20.0</ele><time>2026-04-19T17:55:09.001Z</time></trkpt><trkpt lat="45.142587365263886" lon="10.869194003951216"><ele>19.0</ele><time>2026-04-19T17:55:10.001Z</time></trkpt><trkpt lat="45.14283906546319" lon="10.869086608692765"><ele>19.0</ele><time>2026-04-19T17:55:11.001Z</time></trkpt><trkpt lat="45.14309066517265" lon="10.86897928726881"><ele>19.0</ele><time>2026-04-19T17:55:12.001Z</time></trkpt><trkpt lat="45.143343040198246" lon="10.86887255367968"><ele>19.0</ele><time>2026-04-19T17:55:13.001Z</time></trkpt><trkpt lat="45.14359549836067" lon="10.868764540955402"><ele>19.0</ele><time>2026-04-19T17:55:14.001Z</time></trkpt><trkpt lat="45.14384685516672" lon="10.868656846882223"><ele>19.5</ele><time>2026-04-19T17:55:15.001Z</time></trkpt><trkpt lat="45.14409870984736" lon="10.868549953070895"><ele>20.0</ele><time>2026-04-19T17:55:16.001Z</time></trkpt><trkpt lat="45.1443516818237" lon="10.86844321284313"><ele>21.0</ele><time>2026-04-19T17:55:17.001Z</time></trkpt><trkpt lat="45.144604220064714" lon="10.868334789128426"><ele>22.0</ele><time>2026-04-19T17:55:18.001Z</time></trkpt><trkpt lat="45.144857458070994" lon="10.868228175067523"><ele>22.0</ele><time>2026-04-19T17:55:19.001Z</time></trkpt><trkpt lat="45.14511082976473" lon="10.868122857983284"><ele>22.0</ele><time>2026-04-19T17:55:20.001Z</time></trkpt><trkpt lat="45.14536298547209" lon="10.868019212688656"><ele>22.0</ele><time>2026-04-19T17:55:21.001Z</time></trkpt><trkpt lat="45.14561562517762" lon="10.867915052112465"><ele>22.0</ele><time>2026-04-19T17:55:22.001Z</time></trkpt><trkpt lat="45.14586897644644" lon="10.86780962205817"><ele>21.5</ele><time>2026-04-19T17:55:23.001Z</time></trkpt><trkpt lat="45.14611977438954" lon="10.867703267299751"><ele>21.0</ele><time>2026-04-19T17:55:24.001Z</time></trkpt><trkpt lat="45.146372417257226" lon="10.867596272529795"><ele>20.5</ele><time>2026-04-19T17:55:25.001Z</time></trkpt><trkpt lat="45.146625587234226" lon="10.867490081596692"><ele>20.0</ele><time>2026-04-19T17:55:26.001Z</time></trkpt><trkpt lat="45.14687956011302" lon="10.86738348561713"><ele>20.0</ele><time>2026-04-19T17:55:27.001Z</time></trkpt><trkpt lat="45.14713088955771" lon="10.867278617200096"><ele>20.0</ele><time>2026-04-19T17:55:28.001Z</time></trkpt><trkpt lat="45.147383630053795" lon="10.867173339763717"><ele>21.0</ele><time>2026-04-19T17:55:29.001Z</time></trkpt><trkpt lat="45.14763619775434" lon="10.867068310114421"><ele>22.0</ele><time>2026-04-19T17:55:30.001Z</time></trkpt><trkpt lat="45.14788868113673" lon="10.866961932787637"><ele>22.0</ele><time>2026-04-19T17:55:31.001Z</time></trkpt><trkpt lat="45.148142133203336" lon="10.866852950826866"><ele>22.0</ele><time>2026-04-19T17:55:32.001Z</time></trkpt><trkpt lat="45.14839415315839" lon="10.866742780778283"><ele>20.5</ele><time>2026-04-19T17:55:33.001Z</time></trkpt><trkpt lat="45.14864482103375" lon="10.86663276256157"><ele>19.0</ele><time>2026-04-19T17:55:34.001Z</time></trkpt><trkpt lat="45.14889675435793" lon="10.866524178562658"><ele>20.0</ele><time>2026-04-19T17:55:35.001Z</time></trkpt><trkpt lat="45.14914856184922" lon="10.866417779709694"><ele>21.0</ele><time>2026-04-19T17:55:36.001Z</time></trkpt><trkpt lat="45.149399900344314" lon="10.866313761689923"><ele>21.0</ele><time>2026-04-19T17:55:37.001Z</time></trkpt><trkpt lat="45.14965333118084" lon="10.866207878860918"><ele>21.0</ele><time>2026-04-19T17:55:38.001Z</time></trkpt><trkpt lat="45.149904640900075" lon="10.8661030879288"><ele>20.5</ele><time>2026-04-19T17:55:39.001Z</time></trkpt><trkpt lat="45.15015763724872" lon="10.8659981472746"><ele>20.0</ele><time>2026-04-19T17:55:40.001Z</time></trkpt><trkpt lat="45.15041102228667" lon="10.865893541554247"><ele>19.5</ele><time>2026-04-19T17:55:41.001Z</time></trkpt><trkpt lat="45.150662870934696" lon="10.865788239473888"><ele>19.0</ele><time>2026-04-19T17:55:42.001Z</time></trkpt><trkpt lat="45.150916319176496" lon="10.865681874448075"><ele>20.5</ele><time>2026-04-19T17:55:43.001Z</time></trkpt><trkpt lat="45.151167884448455" lon="10.865573588536563"><ele>22.0</ele><time>2026-04-19T17:55:44.001Z</time></trkpt><trkpt lat="45.15141970821982" lon="10.865465915412713"><ele>21.5</ele><time>2026-04-19T17:55:45.001Z</time></trkpt><trkpt lat="45.151671928790634" lon="10.865359156797423"><ele>21.0</ele><time>2026-04-19T17:55:46.001Z</time></trkpt><trkpt lat="45.15192436437335" lon="10.865253147506182"><ele>21.0</ele><time>2026-04-19T17:55:47.001Z</time></trkpt><trkpt lat="45.15217606947742" lon="10.86514448470193"><ele>21.0</ele><time>2026-04-19T17:55:48.001Z</time></trkpt><trkpt lat="45.15242808003006" lon="10.86503900123114"><ele>21.0</ele><time>2026-04-19T17:55:49.001Z</time></trkpt><trkpt lat="45.152680064039465" lon="10.864932001973735"><ele>21.0</ele><time>2026-04-19T17:55:50.001Z</time></trkpt><trkpt lat="45.15293198459466" lon="10.864826247588061"><ele>21.0</ele><time>2026-04-19T17:55:51.001Z</time></trkpt><trkpt lat="45.15318413962574" lon="10.864720358716312"><ele>21.0</ele><time>2026-04-19T17:55:52.001Z</time></trkpt><trkpt lat="45.15343759321382" lon="10.864614378325124"><ele>20.5</ele><time>2026-04-19T17:55:53.001Z</time></trkpt><trkpt lat="45.15368863445025" lon="10.864508206049889"><ele>20.0</ele><time>2026-04-19T17:55:54.001Z</time></trkpt><trkpt lat="45.15394055025881" lon="10.864398885742544"><ele>19.5</ele><time>2026-04-19T17:55:55.001Z</time></trkpt><trkpt lat="45.15419427024256" lon="10.864293183916047"><ele>19.0</ele><time>2026-04-19T17:55:56.001Z</time></trkpt><trkpt lat="45.154446759054316" lon="10.86418724146121"><ele>19.0</ele><time>2026-04-19T17:55:57.001Z</time></trkpt><trkpt lat="45.154698809209776" lon="10.8640798307792"><ele>19.0</ele><time>2026-04-19T17:55:58.001Z</time></trkpt><trkpt lat="45.15495103452938" lon="10.863974416871747"><ele>20.0</ele><time>2026-04-19T17:55:59.001Z</time></trkpt><trkpt lat="45.155203048486214" lon="10.863867347175235"><ele>21.0</ele><time>2026-04-19T17:56:00.001Z</time></trkpt><trkpt lat="45.15545577367976" lon="10.863761136993867"><ele>21.5</ele><time>2026-04-19T17:56:01.001Z</time></trkpt><trkpt lat="45.15570717005013" lon="10.863655786090996"><ele>22.0</ele><time>2026-04-19T17:56:02.001Z</time></trkpt><trkpt lat="45.15595977022241" lon="10.863549549694884"><ele>22.0</ele><time>2026-04-19T17:56:03.001Z</time></trkpt><trkpt lat="45.15621141513969" lon="10.86344294864315"><ele>22.0</ele><time>2026-04-19T17:56:04.001Z</time></trkpt><trkpt lat="45.156464978615595" lon="10.863339261099519"><ele>21.0</ele><time>2026-04-19T17:56:05.001Z</time></trkpt><trkpt lat="45.15671727982297" lon="10.863234189403176"><ele>20.0</ele><time>2026-04-19T17:56:06.001Z</time></trkpt><trkpt lat="45.15696941899273" lon="10.863127994364955"><ele>20.0</ele><time>2026-04-19T17:56:07.001Z</time></trkpt><trkpt lat="45.1572214610951" lon="10.863022857762715"><ele>20.0</ele><time>2026-04-19T17:56:08.001Z</time></trkpt><trkpt lat="45.15747454250336" lon="10.862917595206897"><ele>20.0</ele><time>2026-04-19T17:56:09.001Z</time></trkpt><trkpt lat="45.157727226023496" lon="10.862813341465824"><ele>20.0</ele><time>2026-04-19T17:56:10.001Z</time></trkpt><trkpt lat="45.15797906527813" lon="10.86270813683313"><ele>21.0</ele><time>2026-04-19T17:56:11.001Z</time></trkpt><trkpt lat="45.15823048683867" lon="10.862601624009763"><ele>22.0</ele><time>2026-04-19T17:56:12.001Z</time></trkpt><trkpt lat="45.158481042635" lon="10.862495921657189"><ele>22.0</ele><time>2026-04-19T17:56:13.001Z</time></trkpt><trkpt lat="45.15873320647114" lon="10.862388831795494"><ele>22.0</ele><time>2026-04-19T17:56:14.001Z</time></trkpt><trkpt lat="45.158983927021204" lon="10.862282644938576"><ele>23.0</ele><time>2026-04-19T17:56:15.001Z</time></trkpt><trkpt lat="45.15923459466456" lon="10.862173106228937"><ele>24.0</ele><time>2026-04-19T17:56:16.001Z</time></trkpt><trkpt lat="45.15948553183734" lon="10.8620654895541"><ele>24.0</ele><time>2026-04-19T17:56:17.001Z</time></trkpt><trkpt lat="45.15973765514736" lon="10.861956654441377"><ele>24.0</ele><time>2026-04-19T17:56:18.001Z</time></trkpt><trkpt lat="45.15998787602932" lon="10.861847722098116"><ele>23.5</ele><time>2026-04-19T17:56:19.001Z</time></trkpt><trkpt lat="45.16023906025728" lon="10.861736637705953"><ele>23.0</ele><time>2026-04-19T17:56:20.001Z</time></trkpt><trkpt lat="45.16048866353925" lon="10.8616238430036"><ele>23.5</ele><time>2026-04-19T17:56:21.001Z</time></trkpt><trkpt lat="45.16073939338162" lon="10.861510558597285"><ele>24.0</ele><time>2026-04-19T17:56:22.001Z</time></trkpt><trkpt lat="45.1609900756984" lon="10.86139774001784"><ele>24.0</ele><time>2026-04-19T17:56:23.001Z</time></trkpt><trkpt lat="45.161240878712384" lon="10.861282802021512"><ele>24.0</ele><time>2026-04-19T17:56:24.001Z</time></trkpt><trkpt lat="45.161492981988296" lon="10.861169288543373"><ele>24.5</ele><time>2026-04-19T17:56:25.001Z</time></trkpt><trkpt lat="45.161744094450235" lon="10.861051557073008"><ele>25.0</ele><time>2026-04-19T17:56:26.001Z</time></trkpt><trkpt lat="45.16199409126951" lon="10.860932707697554"><ele>25.0</ele><time>2026-04-19T17:56:27.001Z</time></trkpt><trkpt lat="45.16224455033156" lon="10.860812177352672"><ele>25.0</ele><time>2026-04-19T17:56:28.001Z</time></trkpt><trkpt lat="45.16249309443508" lon="10.860691979051449"><ele>25.0</ele><time>2026-04-19T17:56:29.001Z</time></trkpt><trkpt lat="45.162741218125085" lon="10.86056906188165"><ele>25.0</ele><time>2026-04-19T17:56:30.001Z</time></trkpt><trkpt lat="45.16298996122068" lon="10.860449253287905"><ele>23.5</ele><time>2026-04-19T17:56:31.001Z</time></trkpt><trkpt lat="45.16323944387266" lon="10.860327938262207"><ele>22.0</ele><time>2026-04-19T17:56:32.001Z</time></trkpt><trkpt lat="45.163487998512046" lon="10.860203678430803"><ele>22.5</ele><time>2026-04-19T17:56:33.001Z</time></trkpt><trkpt lat="45.163737490986016" lon="10.860078847837332"><ele>23.0</ele><time>2026-04-19T17:56:34.001Z</time></trkpt><trkpt lat="45.16398671006045" lon="10.859952983793766"><ele>24.0</ele><time>2026-04-19T17:56:35.001Z</time></trkpt><trkpt lat="45.164235318462325" lon="10.859828029489018"><ele>25.0</ele><time>2026-04-19T17:56:36.001Z</time></trkpt><trkpt lat="45.164483180046794" lon="10.859701746049934"><ele>25.0</ele><time>2026-04-19T17:56:37.001Z</time></trkpt><trkpt lat="45.16473148789515" lon="10.859575812550538"><ele>25.0</ele><time>2026-04-19T17:56:38.001Z</time></trkpt><trkpt lat="45.16497923422233" lon="10.85944957730812"><ele>25.5</ele><time>2026-04-19T17:56:39Z</time></trkpt><trkpt lat="45.165228229863665" lon="10.85932395416791"><ele>26.0</ele><time>2026-04-19T17:56:40Z</time></trkpt><trkpt lat="45.16547627156691" lon="10.85919828427618"><ele>25.5</ele><time>2026-04-19T17:56:41Z</time></trkpt><trkpt lat="45.165724797301834" lon="10.859072433372534"><ele>25.0</ele><time>2026-04-19T17:56:42.001Z</time></trkpt><trkpt lat="45.16597297064241" lon="10.858947271386938"><ele>25.0</ele><time>2026-04-19T17:56:43.001Z</time></trkpt><trkpt lat="45.166219875738214" lon="10.858822935533192"><ele>25.0</ele><time>2026-04-19T17:56:44.001Z</time></trkpt><trkpt lat="45.16646777681843" lon="10.858694294229226"><ele>24.0</ele><time>2026-04-19T17:56:45.001Z</time></trkpt><trkpt lat="45.16671626142215" lon="10.85857026703989"><ele>23.0</ele><time>2026-04-19T17:56:46.001Z</time></trkpt><trkpt lat="45.16696371289793" lon="10.858444404394437"><ele>23.0</ele><time>2026-04-19T17:56:47.001Z</time></trkpt><trkpt lat="45.167211038161085" lon="10.858317074398174"><ele>23.0</ele><time>2026-04-19T17:56:48.001Z</time></trkpt><trkpt lat="45.16746022059202" lon="10.858194620193682"><ele>25.0</ele><time>2026-04-19T17:56:49.001Z</time></trkpt><trkpt lat="45.16770810958873" lon="10.858068001621808"><ele>27.0</ele><time>2026-04-19T17:56:50.001Z</time></trkpt><trkpt lat="45.167954759564275" lon="10.85794774593553"><ele>26.0</ele><time>2026-04-19T17:56:51.001Z</time></trkpt><trkpt lat="45.168203019061146" lon="10.857824809342738"><ele>25.0</ele><time>2026-04-19T17:56:52.001Z</time></trkpt><trkpt lat="45.16845174760132" lon="10.857701990014146"><ele>24.0</ele><time>2026-04-19T17:56:53.001Z</time></trkpt><trkpt lat="45.16869840781063" lon="10.857579717916478"><ele>23.0</ele><time>2026-04-19T17:56:54.001Z</time></trkpt><trkpt lat="45.16894544121838" lon="10.857459434268481"><ele>24.0</ele><time>2026-04-19T17:56:55.001Z</time></trkpt><trkpt lat="45.1691935973181" lon="10.85733049777959"><ele>25.0</ele><time>2026-04-19T17:56:56.001Z</time></trkpt><trkpt lat="45.16944082482677" lon="10.857206780327724"><ele>25.0</ele><time>2026-04-19T17:56:57.001Z</time></trkpt><trkpt lat="45.16968718744813" lon="10.85707708186847"><ele>25.0</ele><time>2026-04-19T17:56:58.001Z</time></trkpt><trkpt lat="45.169937455807364" lon="10.856951836652383"><ele>24.5</ele><time>2026-04-19T17:56:59.001Z</time></trkpt><trkpt lat="45.17018212315006" lon="10.856821736449191"><ele>24.0</ele><time>2026-04-19T17:57:00.001Z</time></trkpt><trkpt lat="45.17043056375214" lon="10.856697733406262"><ele>24.0</ele><time>2026-04-19T17:57:01.001Z</time></trkpt><trkpt lat="45.17067966581407" lon="10.856566226870887"><ele>24.0</ele><time>2026-04-19T17:57:02.001Z</time></trkpt><trkpt lat="45.17092649060679" lon="10.856442174998634"><ele>24.5</ele><time>2026-04-19T17:57:03.001Z</time></trkpt><trkpt lat="45.17117657195874" lon="10.85632023747593"><ele>25.0</ele><time>2026-04-19T17:57:04.001Z</time></trkpt><trkpt lat="45.17142425987594" lon="10.856197908335998"><ele>24.5</ele><time>2026-04-19T17:57:05.001Z</time></trkpt><trkpt lat="45.171672205276785" lon="10.856071257419643"><ele>24.0</ele><time>2026-04-19T17:57:06.001Z</time></trkpt><trkpt lat="45.171921524774454" lon="10.855949112219553"><ele>24.0</ele><time>2026-04-19T17:57:07.001Z</time></trkpt><trkpt lat="45.17216912965225" lon="10.855821207863785"><ele>24.0</ele><time>2026-04-19T17:57:08.001Z</time></trkpt><trkpt lat="45.17241765809114" lon="10.85569934569407"><ele>24.5</ele><time>2026-04-19T17:57:09.001Z</time></trkpt><trkpt lat="45.17266572989652" lon="10.855572047160189"><ele>25.0</ele><time>2026-04-19T17:57:10.001Z</time></trkpt><trkpt lat="45.172913983761845" lon="10.855447125130429"><ele>25.0</ele><time>2026-04-19T17:57:11.001Z</time></trkpt><trkpt lat="45.17316222943637" lon="10.855325946702404"><ele>25.0</ele><time>2026-04-19T17:57:12.001Z</time></trkpt><trkpt lat="45.173409297547" lon="10.855198811699061"><ele>24.0</ele><time>2026-04-19T17:57:13.001Z</time></trkpt><trkpt lat="45.173657660231356" lon="10.855073617127088"><ele>23.0</ele><time>2026-04-19T17:57:14.001Z</time></trkpt><trkpt lat="45.173906176283396" lon="10.854948608154782"><ele>22.5</ele><time>2026-04-19T17:57:15.001Z</time></trkpt><trkpt lat="45.17415278936592" lon="10.854819904551185"><ele>22.0</ele><time>2026-04-19T17:57:16.001Z</time></trkpt><trkpt lat="45.17439915170885" lon="10.854690702866428"><ele>22.0</ele><time>2026-04-19T17:57:17.001Z</time></trkpt><trkpt lat="45.17464693858555" lon="10.854564108511457"><ele>22.0</ele><time>2026-04-19T17:57:18.001Z</time></trkpt><trkpt lat="45.17489580389583" lon="10.85443922546132"><ele>22.5</ele><time>2026-04-19T17:57:19.001Z</time></trkpt><trkpt lat="45.17514297805942" lon="10.854311575735256"><ele>23.0</ele><time>2026-04-19T17:57:20.001Z</time></trkpt><trkpt lat="45.1753905196894" lon="10.854186397127876"><ele>23.0</ele><time>2026-04-19T17:57:21.001Z</time></trkpt><trkpt lat="45.175638706304525" lon="10.85406002335913"><ele>23.0</ele><time>2026-04-19T17:57:22.001Z</time></trkpt><trkpt lat="45.17588565502629" lon="10.853935541138203"><ele>22.5</ele><time>2026-04-19T17:57:23.001Z</time></trkpt><trkpt lat="45.17613254471705" lon="10.853809868172872"><ele>22.0</ele><time>2026-04-19T17:57:24.001Z</time></trkpt><trkpt lat="45.17638043287822" lon="10.853685155644884"><ele>22.5</ele><time>2026-04-19T17:57:25.001Z</time></trkpt><trkpt lat="45.17662815106263" lon="10.853562043988621"><ele>23.0</ele><time>2026-04-19T17:57:26.001Z</time></trkpt><trkpt lat="45.17687526974799" lon="10.853438138537323"><ele>23.0</ele><time>2026-04-19T17:57:27.001Z</time></trkpt><trkpt lat="45.177122482669546" lon="10.853312545549434"><ele>23.0</ele><time>2026-04-19T17:57:28.001Z</time></trkpt><trkpt lat="45.177370190572304" lon="10.853187862367012"><ele>24.0</ele><time>2026-04-19T17:57:29.001Z</time></trkpt><trkpt lat="45.1776174735622" lon="10.853062572778418"><ele>25.0</ele><time>2026-04-19T17:57:30.001Z</time></trkpt><trkpt lat="45.17786441405641" lon="10.852937362931236"><ele>25.0</ele><time>2026-04-19T17:57:31.001Z</time></trkpt><trkpt lat="45.1781121582999" lon="10.852812250599312"><ele>25.0</ele><time>2026-04-19T17:57:32.001Z</time></trkpt><trkpt lat="45.178360934330954" lon="10.852685094783627"><ele>25.0</ele><time>2026-04-19T17:57:33.001Z</time></trkpt><trkpt lat="45.17861179375952" lon="10.852559414532509"><ele>25.0</ele><time>2026-04-19T17:57:34.001Z</time></trkpt><trkpt lat="45.178857651602996" lon="10.852437193372772"><ele>24.5</ele><time>2026-04-19T17:57:35.001Z</time></trkpt><trkpt lat="45.17910568862465" lon="10.85231218667049"><ele>24.0</ele><time>2026-04-19T17:57:36.001Z</time></trkpt><trkpt lat="45.17935393999666" lon="10.852187408187941"><ele>24.0</ele><time>2026-04-19T17:57:37.001Z</time></trkpt><trkpt lat="45.179601732373094" lon="10.852062117660394"><ele>24.0</ele><time>2026-04-19T17:57:38.001Z</time></trkpt><trkpt lat="45.17984911467637" lon="10.85193820580642"><ele>24.5</ele><time>2026-04-19T17:57:39.001Z</time></trkpt><trkpt lat="45.18009703029149" lon="10.851813741483808"><ele>25.0</ele><time>2026-04-19T17:57:40.001Z</time></trkpt><trkpt lat="45.18034577508757" lon="10.851687276203437"><ele>24.0</ele><time>2026-04-19T17:57:41.001Z</time></trkpt><trkpt lat="45.1805941003434" lon="10.851562731006178"><ele>23.0</ele><time>2026-04-19T17:57:42.001Z</time></trkpt><trkpt lat="45.18084249564229" lon="10.8514388517309"><ele>23.0</ele><time>2026-04-19T17:57:43.001Z</time></trkpt><trkpt lat="45.181091394400546" lon="10.851315156336161"><ele>23.0</ele><time>2026-04-19T17:57:44.001Z</time></trkpt><trkpt lat="45.18134021946015" lon="10.851191373575315"><ele>23.0</ele><time>2026-04-19T17:57:45.001Z</time></trkpt><trkpt lat="45.18158892500162" lon="10.85106670125005"><ele>23.0</ele><time>2026-04-19T17:57:46Z</time></trkpt><trkpt lat="45.18183516769458" lon="10.850944101894767"><ele>23.0</ele><time>2026-04-19T17:57:47Z</time></trkpt><trkpt lat="45.1820837375448" lon="10.850819990017492"><ele>23.0</ele><time>2026-04-19T17:57:48Z</time></trkpt><trkpt lat="45.18233088502772" lon="10.850697026500892"><ele>24.0</ele><time>2026-04-19T17:57:49Z</time></trkpt><trkpt lat="45.18257937970373" lon="10.850572470691388"><ele>25.0</ele><time>2026-04-19T17:57:50Z</time></trkpt><trkpt lat="45.182828095150604" lon="10.850449216111679"><ele>25.0</ele><time>2026-04-19T17:57:51Z</time></trkpt><trkpt lat="45.183077333146485" lon="10.850329656647894"><ele>25.0</ele><time>2026-04-19T17:57:52Z</time></trkpt><trkpt lat="45.183327925675194" lon="10.85021357823959"><ele>24.5</ele><time>2026-04-19T17:57:53Z</time></trkpt><trkpt lat="45.18357940018291" lon="10.850104562512728"><ele>24.0</ele><time>2026-04-19T17:57:54Z</time></trkpt><trkpt lat="45.18383233211405" lon="10.849998114772037"><ele>25.0</ele><time>2026-04-19T17:57:55Z</time></trkpt><trkpt lat="45.18408589693993" lon="10.84989695939831"><ele>26.0</ele><time>2026-04-19T17:57:56Z</time></trkpt><trkpt lat="45.184340269374644" lon="10.849802379429017"><ele>26.0</ele><time>2026-04-19T17:57:57Z</time></trkpt><trkpt lat="45.18459612736456" lon="10.849715375401045"><ele>26.0</ele><time>2026-04-19T17:57:58Z</time></trkpt><trkpt lat="45.18485430602545" lon="10.849634091266273"><ele>26.0</ele><time>2026-04-19T17:57:59Z</time></trkpt><trkpt lat="45.18511246674395" lon="10.849560188331374"><ele>26.0</ele><time>2026-04-19T17:58:00Z</time></trkpt><trkpt lat="45.18537170083944" lon="10.849492006480325"><ele>26.0</ele><time>2026-04-19T17:58:01Z</time></trkpt><trkpt lat="45.18563030179077" lon="10.849430489640925"><ele>26.0</ele><time>2026-04-19T17:58:02Z</time></trkpt><trkpt lat="45.185890521193386" lon="10.849375602232515"><ele>26.0</ele><time>2026-04-19T17:58:03Z</time></trkpt><trkpt lat="45.186151251661315" lon="10.849324052965517"><ele>26.0</ele><time>2026-04-19T17:58:04Z</time></trkpt><trkpt lat="45.18641249458159" lon="10.849277774564028"><ele>25.5</ele><time>2026-04-19T17:58:05Z</time></trkpt><trkpt lat="45.18667377200907" lon="10.849230171831598"><ele>25.0</ele><time>2026-04-19T17:58:06Z</time></trkpt><trkpt lat="45.18693491113714" lon="10.849183496156135"><ele>25.0</ele><time>2026-04-19T17:58:07Z</time></trkpt><trkpt lat="45.187195523139216" lon="10.849137915676604"><ele>25.0</ele><time>2026-04-19T17:58:08Z</time></trkpt><trkpt lat="45.18745705738391" lon="10.849090688910525"><ele>26.0</ele><time>2026-04-19T17:58:09Z</time></trkpt><trkpt lat="45.187717252486216" lon="10.849044306068413"><ele>27.0</ele><time>2026-04-19T17:58:10Z</time></trkpt><trkpt lat="45.1879778291626" lon="10.848995743105874"><ele>27.0</ele><time>2026-04-19T17:58:11Z</time></trkpt><trkpt lat="45.1882394865015" lon="10.8489480704298"><ele>27.0</ele><time>2026-04-19T17:58:12Z</time></trkpt><trkpt lat="45.18850005138426" lon="10.848900457908005"><ele>27.0</ele><time>2026-04-19T17:58:13Z</time></trkpt><trkpt lat="45.188761607031545" lon="10.848851883948251"><ele>27.0</ele><time>2026-04-19T17:58:14Z</time></trkpt><trkpt lat="45.18902355831022" lon="10.848805690221848"><ele>28.0</ele><time>2026-04-19T17:58:15Z</time></trkpt><trkpt lat="45.189284196125236" lon="10.848757388307197"><ele>29.0</ele><time>2026-04-19T17:58:16Z</time></trkpt><trkpt lat="45.18954483007622" lon="10.84870876826368"><ele>29.0</ele><time>2026-04-19T17:58:17Z</time></trkpt><trkpt lat="45.189804956247265" lon="10.848659763030742"><ele>29.0</ele><time>2026-04-19T17:58:18Z</time></trkpt><trkpt lat="45.19006558089412" lon="10.848607272761319"><ele>29.5</ele><time>2026-04-19T17:58:19Z</time></trkpt><trkpt lat="45.19032628386096" lon="10.848558863279749"><ele>30.0</ele><time>2026-04-19T17:58:20Z</time></trkpt><trkpt lat="45.19058687949684" lon="10.84851026652126"><ele>28.0</ele><time>2026-04-19T17:58:21Z</time></trkpt><trkpt lat="45.19084903389306" lon="10.848462501033998"><ele>26.0</ele><time>2026-04-19T17:58:22Z</time></trkpt><trkpt lat="45.191109280135336" lon="10.848415528788163"><ele>26.0</ele><time>2026-04-19T17:58:23Z</time></trkpt><trkpt lat="45.191370447775704" lon="10.848367257834937"><ele>26.0</ele><time>2026-04-19T17:58:24Z</time></trkpt><trkpt lat="45.19163048453147" lon="10.84831881395116"><ele>26.5</ele><time>2026-04-19T17:58:25Z</time></trkpt><trkpt lat="45.19189102726932" lon="10.848270819668677"><ele>27.0</ele><time>2026-04-19T17:58:26Z</time></trkpt><trkpt lat="45.192151575522736" lon="10.84822402145177"><ele>27.0</ele><time>2026-04-19T17:58:27Z</time></trkpt><trkpt lat="45.1924127789221" lon="10.848176634187057"><ele>27.0</ele><time>2026-04-19T17:58:28Z</time></trkpt><trkpt lat="45.192673632054515" lon="10.848128257894997"><ele>27.0</ele><time>2026-04-19T17:58:29Z</time></trkpt><trkpt lat="45.19293480190695" lon="10.848081613618628"><ele>27.0</ele><time>2026-04-19T17:58:30Z</time></trkpt><trkpt lat="45.19319582055678" lon="10.848034871412471"><ele>25.0</ele><time>2026-04-19T17:58:31Z</time></trkpt><trkpt lat="45.193456584976836" lon="10.847989285416528"><ele>23.0</ele><time>2026-04-19T17:58:32Z</time></trkpt><trkpt lat="45.19371766758657" lon="10.847942455071834"><ele>23.0</ele><time>2026-04-19T17:58:33Z</time></trkpt><trkpt lat="45.193979279745356" lon="10.847895467071417"><ele>23.0</ele><time>2026-04-19T17:58:34Z</time></trkpt><trkpt lat="45.194240183050425" lon="10.847849845900166"><ele>23.5</ele><time>2026-04-19T17:58:35Z</time></trkpt><trkpt lat="45.194502030451204" lon="10.847803388339063"><ele>24.0</ele><time>2026-04-19T17:58:36Z</time></trkpt><trkpt lat="45.19476289210141" lon="10.847757114697897"><ele>24.0</ele><time>2026-04-19T17:58:37Z</time></trkpt><trkpt lat="45.19502323348937" lon="10.847708901483362"><ele>24.0</ele><time>2026-04-19T17:58:38Z</time></trkpt><trkpt lat="45.19528392876047" lon="10.847660603881241"><ele>23.5</ele><time>2026-04-19T17:58:39Z</time></trkpt><trkpt lat="45.19554489079965" lon="10.847612478507743"><ele>23.0</ele><time>2026-04-19T17:58:40Z</time></trkpt><trkpt lat="45.1958057200304" lon="10.847562375260916"><ele>22.5</ele><time>2026-04-19T17:58:41Z</time></trkpt><trkpt lat="45.19606603863125" lon="10.84751190466231"><ele>22.0</ele><time>2026-04-19T17:58:42Z</time></trkpt><trkpt lat="45.19632669273366" lon="10.847462083414891"><ele>24.5</ele><time>2026-04-19T17:58:43Z</time></trkpt><trkpt lat="45.19658664214922" lon="10.84741327843511"><ele>27.0</ele><time>2026-04-19T17:58:44Z</time></trkpt><trkpt lat="45.1968463864453" lon="10.847367587663928"><ele>27.0</ele><time>2026-04-19T17:58:45Z</time></trkpt><trkpt lat="45.197107738972875" lon="10.847320458821043"><ele>27.0</ele><time>2026-04-19T17:58:46Z</time></trkpt><trkpt lat="45.19736850990001" lon="10.847275661994296"><ele>27.0</ele><time>2026-04-19T17:58:47Z</time></trkpt><trkpt lat="45.19763102996988" lon="10.847228166677612"><ele>27.0</ele><time>2026-04-19T17:58:48.001Z</time></trkpt><trkpt lat="45.19789175192715" lon="10.847181637721606"><ele>27.0</ele><time>2026-04-19T17:58:49.001Z</time></trkpt><trkpt lat="45.19815212126511" lon="10.847133341300077"><ele>27.0</ele><time>2026-04-19T17:58:50.001Z</time></trkpt><trkpt lat="45.19841424187079" lon="10.847083622271189"><ele>26.5</ele><time>2026-04-19T17:58:51.001Z</time></trkpt><trkpt lat="45.19867475714252" lon="10.84703485458161"><ele>26.0</ele><time>2026-04-19T17:58:52.001Z</time></trkpt><trkpt lat="45.19893639442722" lon="10.846988947323265"><ele>25.0</ele><time>2026-04-19T17:58:53.001Z</time></trkpt><trkpt lat="45.19919836952309" lon="10.846945242744736"><ele>24.0</ele><time>2026-04-19T17:58:54.001Z</time></trkpt><trkpt lat="45.19946031921052" lon="10.846903905144432"><ele>24.0</ele><time>2026-04-19T17:58:55.001Z</time></trkpt><trkpt lat="45.19972170950949" lon="10.846870233447934"><ele>24.0</ele><time>2026-04-19T17:58:56.001Z</time></trkpt><trkpt lat="45.19998322057024" lon="10.846839624038338"><ele>25.0</ele><time>2026-04-19T17:58:57.001Z</time></trkpt><trkpt lat="45.200245971994306" lon="10.846809933117388"><ele>26.0</ele><time>2026-04-19T17:58:58.001Z</time></trkpt><trkpt lat="45.200507265765005" lon="10.846787394474058"><ele>26.5</ele><time>2026-04-19T17:58:59.001Z</time></trkpt><trkpt lat="45.20077122209045" lon="10.84677060491733"><ele>27.0</ele><time>2026-04-19T17:59:00.001Z</time></trkpt><trkpt lat="45.201033641372355" lon="10.846760694562878"><ele>27.0</ele><time>2026-04-19T17:59:01.001Z</time></trkpt><trkpt lat="45.20129790642928" lon="10.846754698803712"><ele>27.0</ele><time>2026-04-19T17:59:02.001Z</time></trkpt><trkpt lat="45.20156057671178" lon="10.84675364688285"><ele>27.0</ele><time>2026-04-19T17:59:03.001Z</time></trkpt><trkpt lat="45.20182371422458" lon="10.846758798200057"><ele>27.0</ele><time>2026-04-19T17:59:04.001Z</time></trkpt><trkpt lat="45.20208610469905" lon="10.84677007465823"><ele>27.0</ele><time>2026-04-19T17:59:05.001Z</time></trkpt><trkpt lat="45.20234772130694" lon="10.846787163040268"><ele>27.0</ele><time>2026-04-19T17:59:06.001Z</time></trkpt><trkpt lat="45.20261113238251" lon="10.84681148728829"><ele>26.0</ele><time>2026-04-19T17:59:07.001Z</time></trkpt><trkpt lat="45.20287452233836" lon="10.84683798228425"><ele>25.0</ele><time>2026-04-19T17:59:08.001Z</time></trkpt><trkpt lat="45.20313702819862" lon="10.846869021694548"><ele>26.5</ele><time>2026-04-19T17:59:09.001Z</time></trkpt><trkpt lat="45.2033991171586" lon="10.84690311669949"><ele>28.0</ele><time>2026-04-19T17:59:10.001Z</time></trkpt><trkpt lat="45.20366079262153" lon="10.846942690811737"><ele>28.0</ele><time>2026-04-19T17:59:11.001Z</time></trkpt><trkpt lat="45.20392309983152" lon="10.846988400793586"><ele>28.0</ele><time>2026-04-19T17:59:12.001Z</time></trkpt><trkpt lat="45.20418235382395" lon="10.84704081762939"><ele>28.0</ele><time>2026-04-19T17:59:13.001Z</time></trkpt><trkpt lat="45.20444078742084" lon="10.84710043627946"><ele>28.0</ele><time>2026-04-19T17:59:14.001Z</time></trkpt><trkpt lat="45.204699211602005" lon="10.84716684192249"><ele>27.5</ele><time>2026-04-19T17:59:15.001Z</time></trkpt><trkpt lat="45.204956593064665" lon="10.847241124232273"><ele>27.0</ele><time>2026-04-19T17:59:16.001Z</time></trkpt><trkpt lat="45.20521428237521" lon="10.847319084554089"><ele>27.0</ele><time>2026-04-19T17:59:17.001Z</time></trkpt><trkpt lat="45.20547013431184" lon="10.847403874992361"><ele>27.0</ele><time>2026-04-19T17:59:18.001Z</time></trkpt><trkpt lat="45.205726488922366" lon="10.847491453285826"><ele>27.0</ele><time>2026-04-19T17:59:19.001Z</time></trkpt><trkpt lat="45.20598296766878" lon="10.847584173046446"><ele>27.0</ele><time>2026-04-19T17:59:20.001Z</time></trkpt><trkpt lat="45.20623636884203" lon="10.847682360900354"><ele>27.0</ele><time>2026-04-19T17:59:21.001Z</time></trkpt><trkpt lat="45.20649023441153" lon="10.847788773262957"><ele>27.0</ele><time>2026-04-19T17:59:22.001Z</time></trkpt><trkpt lat="45.20674083484365" lon="10.847897758340842"><ele>27.0</ele><time>2026-04-19T17:59:23.001Z</time></trkpt><trkpt lat="45.20699210142874" lon="10.848012230575964"><ele>27.0</ele><time>2026-04-19T17:59:24.001Z</time></trkpt><trkpt lat="45.20724045666954" lon="10.848130718778558"><ele>26.5</ele><time>2026-04-19T17:59:25.001Z</time></trkpt><trkpt lat="45.207488090122084" lon="10.848251926461497"><ele>26.0</ele><time>2026-04-19T17:59:26.001Z</time></trkpt><trkpt lat="45.207737386262785" lon="10.848375799188638"><ele>26.0</ele><time>2026-04-19T17:59:27.001Z</time></trkpt><trkpt lat="45.20798440099747" lon="10.848499682318389"><ele>26.0</ele><time>2026-04-19T17:59:28.001Z</time></trkpt><trkpt lat="45.20823246092165" lon="10.848624044417615"><ele>27.0</ele><time>2026-04-19T17:59:29.001Z</time></trkpt><trkpt lat="45.208481077272715" lon="10.84875045144571"><ele>28.0</ele><time>2026-04-19T17:59:30.001Z</time></trkpt><trkpt lat="45.208728900668426" lon="10.848875128162447"><ele>28.0</ele><time>2026-04-19T17:59:31.001Z</time></trkpt><trkpt lat="45.20897715879373" lon="10.849001282335003"><ele>28.0</ele><time>2026-04-19T17:59:32.001Z</time></trkpt><trkpt lat="45.209225135986166" lon="10.849126226881534"><ele>28.0</ele><time>2026-04-19T17:59:33.001Z</time></trkpt><trkpt lat="45.20947355540159" lon="10.849251799579463"><ele>28.0</ele><time>2026-04-19T17:59:34.001Z</time></trkpt><trkpt lat="45.209720736904174" lon="10.84937857648208"><ele>27.0</ele><time>2026-04-19T17:59:35.001Z</time></trkpt><trkpt lat="45.20996571175115" lon="10.849504815471732"><ele>26.0</ele><time>2026-04-19T17:59:36.001Z</time></trkpt><trkpt lat="45.21020662914679" lon="10.84962943591002"><ele>26.0</ele><time>2026-04-19T17:59:37.001Z</time></trkpt><trkpt lat="45.210444173400056" lon="10.84974782225329"><ele>26.0</ele><time>2026-04-19T17:59:38.001Z</time></trkpt><trkpt lat="45.210679144756845" lon="10.849868867830551"><ele>27.0</ele><time>2026-04-19T17:59:39.001Z</time></trkpt><trkpt lat="45.21091418513669" lon="10.849989757719396"><ele>28.0</ele><time>2026-04-19T17:59:40.001Z</time></trkpt><trkpt lat="45.211149262662445" lon="10.850106502152043"><ele>29.0</ele><time>2026-04-19T17:59:41.001Z</time></trkpt><trkpt lat="45.21138680936642" lon="10.850225256248283"><ele>30.0</ele><time>2026-04-19T17:59:42.001Z</time></trkpt><trkpt lat="45.21162496161501" lon="10.850343630003525"><ele>30.0</ele><time>2026-04-19T17:59:43Z</time></trkpt><trkpt lat="45.211863891716675" lon="10.850463377911153"><ele>30.0</ele><time>2026-04-19T17:59:44Z</time></trkpt><trkpt lat="45.21210213939865" lon="10.850583780559806"><ele>28.0</ele><time>2026-04-19T17:59:45Z</time></trkpt><trkpt lat="45.21234144690817" lon="10.850702334537242"><ele>26.0</ele><time>2026-04-19T17:59:46Z</time></trkpt><trkpt lat="45.212581647405734" lon="10.850822568993372"><ele>26.0</ele><time>2026-04-19T17:59:47Z</time></trkpt><trkpt lat="45.212819487077965" lon="10.850945146994585"><ele>26.0</ele><time>2026-04-19T17:59:48Z</time></trkpt><trkpt lat="45.21305733649796" lon="10.851066644152038"><ele>26.0</ele><time>2026-04-19T17:59:49Z</time></trkpt><trkpt lat="45.213296660885014" lon="10.851189157675527"><ele>26.0</ele><time>2026-04-19T17:59:50Z</time></trkpt><trkpt lat="45.213535019932394" lon="10.851310208502346"><ele>26.0</ele><time>2026-04-19T17:59:51Z</time></trkpt><trkpt lat="45.213773261049774" lon="10.85143088336983"><ele>26.0</ele><time>2026-04-19T17:59:52Z</time></trkpt><trkpt lat="45.21401125984395" lon="10.851551375932253"><ele>26.5</ele><time>2026-04-19T17:59:53Z</time></trkpt><trkpt lat="45.21424910471487" lon="10.85167189666369"><ele>27.0</ele><time>2026-04-19T17:59:54Z</time></trkpt><trkpt lat="45.21448728668913" lon="10.851793013345674"><ele>27.0</ele><time>2026-04-19T17:59:55Z</time></trkpt><trkpt lat="45.21472539577069" lon="10.85191358749931"><ele>27.0</ele><time>2026-04-19T17:59:56Z</time></trkpt><trkpt lat="45.21496271776983" lon="10.85203435109638"><ele>27.0</ele><time>2026-04-19T17:59:57Z</time></trkpt><trkpt lat="45.21520088627702" lon="10.85215541103688"><ele>27.0</ele><time>2026-04-19T17:59:58Z</time></trkpt><trkpt lat="45.21543912529161" lon="10.852277561099575"><ele>27.5</ele><time>2026-04-19T17:59:59Z</time></trkpt><trkpt lat="45.215678053638825" lon="10.852400114340627"><ele>28.0</ele><time>2026-04-19T18:00:00Z</time></trkpt><trkpt lat="45.21591588021684" lon="10.852521908564134"><ele>28.0</ele><time>2026-04-19T18:00:01Z</time></trkpt><trkpt lat="45.21615476835998" lon="10.852644468759589"><ele>28.0</ele><time>2026-04-19T18:00:02Z</time></trkpt><trkpt lat="45.21639324873349" lon="10.852766657062302"><ele>28.0</ele><time>2026-04-19T18:00:03Z</time></trkpt><trkpt lat="45.21663037244358" lon="10.8528901111025"><ele>28.0</ele><time>2026-04-19T18:00:04Z</time></trkpt><trkpt lat="45.21686861548266" lon="10.85301339435949"><ele>28.0</ele><time>2026-04-19T18:00:05Z</time></trkpt><trkpt lat="45.217107034792654" lon="10.853135882346063"><ele>28.0</ele><time>2026-04-19T18:00:06Z</time></trkpt><trkpt lat="45.21734463803353" lon="10.85325708361169"><ele>27.5</ele><time>2026-04-19T18:00:07Z</time></trkpt><trkpt lat="45.21758240907964" lon="10.853375854216106"><ele>27.0</ele><time>2026-04-19T18:00:08Z</time></trkpt><trkpt lat="45.217820107128354" lon="10.853492808495929"><ele>26.5</ele><time>2026-04-19T18:00:09Z</time></trkpt><trkpt lat="45.21805835811075" lon="10.853612579292186"><ele>26.0</ele><time>2026-04-19T18:00:10Z</time></trkpt><trkpt lat="45.21829616360699" lon="10.853731817978472"><ele>27.0</ele><time>2026-04-19T18:00:11Z</time></trkpt><trkpt lat="45.218534831962856" lon="10.853854583423942"><ele>28.0</ele><time>2026-04-19T18:00:12Z</time></trkpt><trkpt lat="45.218773455503886" lon="10.853977388325424"><ele>28.0</ele><time>2026-04-19T18:00:13Z</time></trkpt><trkpt lat="45.21901119134685" lon="10.854098536134291"><ele>28.0</ele><time>2026-04-19T18:00:14Z</time></trkpt><trkpt lat="45.219250475844504" lon="10.854220293125291"><ele>28.0</ele><time>2026-04-19T18:00:15Z</time></trkpt><trkpt lat="45.219487154823696" lon="10.854343077406998"><ele>28.0</ele><time>2026-04-19T18:00:16Z</time></trkpt><trkpt lat="45.219726159902386" lon="10.85446602277988"><ele>28.0</ele><time>2026-04-19T18:00:17Z</time></trkpt><trkpt lat="45.219963560743395" lon="10.854588995835245"><ele>28.0</ele><time>2026-04-19T18:00:18Z</time></trkpt><trkpt lat="45.220201318760395" lon="10.854712086584517"><ele>28.0</ele><time>2026-04-19T18:00:19Z</time></trkpt><trkpt lat="45.2204316107864" lon="10.85482385310837"><ele>28.0</ele><time>2026-04-19T18:00:20Z</time></trkpt><trkpt lat="45.22067628113751" lon="10.854961308812907"><ele>28.0</ele><time>2026-04-19T18:00:21Z</time></trkpt><trkpt lat="45.22091548148627" lon="10.855074346830891"><ele>28.0</ele><time>2026-04-19T18:00:22Z</time></trkpt><trkpt lat="45.221153596777" lon="10.855196105582696"><ele>28.0</ele><time>2026-04-19T18:00:23Z</time></trkpt><trkpt lat="45.221392327784734" lon="10.855313345021266"><ele>28.0</ele><time>2026-04-19T18:00:24Z</time></trkpt><trkpt lat="45.221631267636475" lon="10.855430681973685"><ele>28.0</ele><time>2026-04-19T18:00:25Z</time></trkpt><trkpt lat="45.22186972495082" lon="10.855549420543802"><ele>28.0</ele><time>2026-04-19T18:00:26Z</time></trkpt><trkpt lat="45.22211188687134" lon="10.855667395684275"><ele>27.5</ele><time>2026-04-19T18:00:27Z</time></trkpt><trkpt lat="45.22234692992646" lon="10.855792351578401"><ele>27.0</ele><time>2026-04-19T18:00:28Z</time></trkpt><trkpt lat="45.222581780839384" lon="10.855906870427624"><ele>27.0</ele><time>2026-04-19T18:00:29Z</time></trkpt><trkpt lat="45.22282323376097" lon="10.856034725949788"><ele>27.0</ele><time>2026-04-19T18:00:30Z</time></trkpt><trkpt lat="45.22305975312705" lon="10.856157574060168"><ele>27.0</ele><time>2026-04-19T18:00:31Z</time></trkpt><trkpt lat="45.22329651919667" lon="10.856283842799751"><ele>27.0</ele><time>2026-04-19T18:00:32Z</time></trkpt><trkpt lat="45.22353440185189" lon="10.856406402534853"><ele>27.0</ele><time>2026-04-19T18:00:33Z</time></trkpt><trkpt lat="45.22377350575489" lon="10.85652740277754"><ele>27.0</ele><time>2026-04-19T18:00:34Z</time></trkpt><trkpt lat="45.22401081931073" lon="10.856648499959995"><ele>27.5</ele><time>2026-04-19T18:00:35Z</time></trkpt><trkpt lat="45.22425158475542" lon="10.856764823064958"><ele>28.0</ele><time>2026-04-19T18:00:36Z</time></trkpt><trkpt lat="45.22449047019251" lon="10.856885306205704"><ele>28.5</ele><time>2026-04-19T18:00:37Z</time></trkpt><trkpt lat="45.22473247712391" lon="10.857003696432342"><ele>29.0</ele><time>2026-04-19T18:00:38Z</time></trkpt><trkpt lat="45.224971675698995" lon="10.857118421457322"><ele>29.0</ele><time>2026-04-19T18:00:39Z</time></trkpt><trkpt lat="45.225210417161456" lon="10.857237605383833"><ele>29.0</ele><time>2026-04-19T18:00:40Z</time></trkpt><trkpt lat="45.22544840228549" lon="10.85736114826689"><ele>28.0</ele><time>2026-04-19T18:00:41Z</time></trkpt><trkpt lat="45.225685960333976" lon="10.857484565207658"><ele>27.0</ele><time>2026-04-19T18:00:42Z</time></trkpt><trkpt lat="45.225923463377825" lon="10.857607598621183"><ele>28.0</ele><time>2026-04-19T18:00:43Z</time></trkpt><trkpt lat="45.226161057411026" lon="10.857729683023345"><ele>29.0</ele><time>2026-04-19T18:00:44Z</time></trkpt><trkpt lat="45.22639735899153" lon="10.85785177511768"><ele>28.0</ele><time>2026-04-19T18:00:45Z</time></trkpt><trkpt lat="45.22663716958556" lon="10.857977563177204"><ele>27.0</ele><time>2026-04-19T18:00:46Z</time></trkpt><trkpt lat="45.22687188650908" lon="10.85809976251106"><ele>27.0</ele><time>2026-04-19T18:00:47Z</time></trkpt><trkpt lat="45.22710994611115" lon="10.858223173226056"><ele>27.0</ele><time>2026-04-19T18:00:48Z</time></trkpt><trkpt lat="45.22734915257149" lon="10.858341423896919"><ele>27.5</ele><time>2026-04-19T18:00:49Z</time></trkpt><trkpt lat="45.22758735105475" lon="10.858458469008571"><ele>28.0</ele><time>2026-04-19T18:00:50Z</time></trkpt><trkpt lat="45.22782525200537" lon="10.858575528727252"><ele>28.0</ele><time>2026-04-19T18:00:51Z</time></trkpt><trkpt lat="45.22806392956789" lon="10.858694603603752"><ele>28.0</ele><time>2026-04-19T18:00:52Z</time></trkpt><trkpt lat="45.228301200780464" lon="10.858815781119882"><ele>28.5</ele><time>2026-04-19T18:00:53Z</time></trkpt><trkpt lat="45.22853886194521" lon="10.858937908407594"><ele>29.0</ele><time>2026-04-19T18:00:54.001Z</time></trkpt><trkpt lat="45.22877706339006" lon="10.859061197515222"><ele>28.5</ele><time>2026-04-19T18:00:55.001Z</time></trkpt><trkpt lat="45.22901564811709" lon="10.859182899945628"><ele>28.0</ele><time>2026-04-19T18:00:56.001Z</time></trkpt><trkpt lat="45.229254708614285" lon="10.859303638608576"><ele>28.0</ele><time>2026-04-19T18:00:57.001Z</time></trkpt><trkpt lat="45.2294930817941" lon="10.859425181284092"><ele>28.0</ele><time>2026-04-19T18:00:58.001Z</time></trkpt><trkpt lat="45.229732030017495" lon="10.859548853441607"><ele>28.5</ele><time>2026-04-19T18:00:59.001Z</time></trkpt><trkpt lat="45.229969519675386" lon="10.859674113148323"><ele>29.0</ele><time>2026-04-19T18:01:00.001Z</time></trkpt><trkpt lat="45.2302065489625" lon="10.859798072393591"><ele>29.0</ele><time>2026-04-19T18:01:01.001Z</time></trkpt><trkpt lat="45.23044590857772" lon="10.859920468071861"><ele>29.0</ele><time>2026-04-19T18:01:02.001Z</time></trkpt><trkpt lat="45.23068382789038" lon="10.860040268014451"><ele>27.5</ele><time>2026-04-19T18:01:03.001Z</time></trkpt><trkpt lat="45.2309223031784" lon="10.860158782959294"><ele>26.0</ele><time>2026-04-19T18:01:04.001Z</time></trkpt><trkpt lat="45.23116016484759" lon="10.860278640539347"><ele>26.0</ele><time>2026-04-19T18:01:05.001Z</time></trkpt><trkpt lat="45.23139837999479" lon="10.860396758515945"><ele>26.0</ele><time>2026-04-19T18:01:06.001Z</time></trkpt><trkpt lat="45.231636934680864" lon="10.860517275346785"><ele>27.0</ele><time>2026-04-19T18:01:07.001Z</time></trkpt><trkpt lat="45.231874692495225" lon="10.860638898135566"><ele>28.0</ele><time>2026-04-19T18:01:08.001Z</time></trkpt><trkpt lat="45.23211266642903" lon="10.860761461312483"><ele>28.0</ele><time>2026-04-19T18:01:09.001Z</time></trkpt><trkpt lat="45.2323498137728" lon="10.860884924394194"><ele>28.0</ele><time>2026-04-19T18:01:10.001Z</time></trkpt><trkpt lat="45.232586889955" lon="10.861008265837972"><ele>27.5</ele><time>2026-04-19T18:01:11.001Z</time></trkpt><trkpt lat="45.232823981272126" lon="10.861131698473251"><ele>27.0</ele><time>2026-04-19T18:01:12.001Z</time></trkpt><trkpt lat="45.233061378844674" lon="10.861255091214312"><ele>27.5</ele><time>2026-04-19T18:01:13Z</time></trkpt><trkpt lat="45.2332989933265" lon="10.861376629815453"><ele>28.0</ele><time>2026-04-19T18:01:14Z</time></trkpt><trkpt lat="45.23353717336187" lon="10.86149681505695"><ele>28.0</ele><time>2026-04-19T18:01:15Z</time></trkpt><trkpt lat="45.23377355032132" lon="10.861619159255843"><ele>28.0</ele><time>2026-04-19T18:01:16Z</time></trkpt><trkpt lat="45.234011006059184" lon="10.861741944329946"><ele>28.5</ele><time>2026-04-19T18:01:17Z</time></trkpt><trkpt lat="45.23424926344587" lon="10.861859570565606"><ele>29.0</ele><time>2026-04-19T18:01:18Z</time></trkpt><trkpt lat="45.23448688005509" lon="10.861974488655111"><ele>29.0</ele><time>2026-04-19T18:01:19Z</time></trkpt><trkpt lat="45.23472676864921" lon="10.862089099789662"><ele>29.0</ele><time>2026-04-19T18:01:20Z</time></trkpt><trkpt lat="45.2349683167892" lon="10.862199171363896"><ele>29.0</ele><time>2026-04-19T18:01:21Z</time></trkpt><trkpt lat="45.235210858194385" lon="10.862305340960795"><ele>29.0</ele><time>2026-04-19T18:01:22Z</time></trkpt><trkpt lat="45.23545288633835" lon="10.862409130719376"><ele>28.5</ele><time>2026-04-19T18:01:23Z</time></trkpt><trkpt lat="45.23569672213151" lon="10.862510385560231"><ele>28.0</ele><time>2026-04-19T18:01:24Z</time></trkpt><trkpt lat="45.23594036309748" lon="10.862608485206831"><ele>27.5</ele><time>2026-04-19T18:01:25Z</time></trkpt><trkpt lat="45.23618504815569" lon="10.86270360810575"><ele>27.0</ele><time>2026-04-19T18:01:26Z</time></trkpt><trkpt lat="45.236430611135184" lon="10.862794469565065"><ele>27.5</ele><time>2026-04-19T18:01:27Z</time></trkpt><trkpt lat="45.23667632376296" lon="10.8628828562152"><ele>28.0</ele><time>2026-04-19T18:01:28Z</time></trkpt><trkpt lat="45.236922309549485" lon="10.862969273529375"><ele>28.0</ele><time>2026-04-19T18:01:29Z</time></trkpt><trkpt lat="45.237168170438316" lon="10.863053045876304"><ele>28.0</ele><time>2026-04-19T18:01:30Z</time></trkpt><trkpt lat="45.23741513847212" lon="10.863136723761924"><ele>28.0</ele><time>2026-04-19T18:01:31Z</time></trkpt><trkpt lat="45.23766203235683" lon="10.86322038384652"><ele>28.0</ele><time>2026-04-19T18:01:32Z</time></trkpt><trkpt lat="45.23790905349212" lon="10.863302872231497"><ele>29.0</ele><time>2026-04-19T18:01:33Z</time></trkpt><trkpt lat="45.23815609608832" lon="10.86338396278214"><ele>30.0</ele><time>2026-04-19T18:01:34Z</time></trkpt><trkpt lat="45.23840375072502" lon="10.863462007281754"><ele>30.0</ele><time>2026-04-19T18:01:35Z</time></trkpt><trkpt lat="45.238650525850446" lon="10.863539614440295"><ele>30.0</ele><time>2026-04-19T18:01:36Z</time></trkpt><trkpt lat="45.23889800398492" lon="10.863616716768526"><ele>30.0</ele><time>2026-04-19T18:01:37Z</time></trkpt><trkpt lat="45.23914476121783" lon="10.863694131752112"><ele>30.0</ele><time>2026-04-19T18:01:38Z</time></trkpt><trkpt lat="45.2393912068873" lon="10.863772254121798"><ele>30.0</ele><time>2026-04-19T18:01:39Z</time></trkpt><trkpt lat="45.23963846699086" lon="10.863850816694187"><ele>30.0</ele><time>2026-04-19T18:01:40Z</time></trkpt><trkpt lat="45.239884911949346" lon="10.863928663880566"><ele>30.0</ele><time>2026-04-19T18:01:41Z</time></trkpt><trkpt lat="45.24013132752796" lon="10.864007958108115"><ele>30.0</ele><time>2026-04-19T18:01:42Z</time></trkpt><trkpt lat="45.240377805336514" lon="10.864087297438838"><ele>30.0</ele><time>2026-04-19T18:01:43Z</time></trkpt><trkpt lat="45.240624805432944" lon="10.864166432249636"><ele>30.0</ele><time>2026-04-19T18:01:44Z</time></trkpt><trkpt lat="45.240871473350005" lon="10.864245658179696"><ele>31.0</ele><time>2026-04-19T18:01:45Z</time></trkpt><trkpt lat="45.24111892435403" lon="10.864325413709434"><ele>32.0</ele><time>2026-04-19T18:01:46Z</time></trkpt><trkpt lat="45.24136674255211" lon="10.864404008762419"><ele>31.5</ele><time>2026-04-19T18:01:47Z</time></trkpt><trkpt lat="45.241611251844574" lon="10.864482793176963"><ele>31.0</ele><time>2026-04-19T18:01:48Z</time></trkpt><trkpt lat="45.24185929966223" lon="10.86456156552612"><ele>31.0</ele><time>2026-04-19T18:01:49Z</time></trkpt><trkpt lat="45.242106373237085" lon="10.864640485372007"><ele>31.0</ele><time>2026-04-19T18:01:50Z</time></trkpt><trkpt lat="45.24235392990914" lon="10.864717785869047"><ele>30.5</ele><time>2026-04-19T18:01:51Z</time></trkpt><trkpt lat="45.2426012625458" lon="10.864793732190545"><ele>30.0</ele><time>2026-04-19T18:01:52Z</time></trkpt><trkpt lat="45.24284783819265" lon="10.864871907477294"><ele>30.0</ele><time>2026-04-19T18:01:53Z</time></trkpt><trkpt lat="45.24309438215547" lon="10.864953196612012"><ele>30.0</ele><time>2026-04-19T18:01:54Z</time></trkpt><trkpt lat="45.24334107797644" lon="10.865035099173001"><ele>30.0</ele><time>2026-04-19T18:01:55Z</time></trkpt><trkpt lat="45.24358602483516" lon="10.865117877730668"><ele>30.0</ele><time>2026-04-19T18:01:56Z</time></trkpt><trkpt lat="45.243832576437384" lon="10.865194852414982"><ele>29.5</ele><time>2026-04-19T18:01:57Z</time></trkpt><trkpt lat="45.24408195376936" lon="10.865270730398324"><ele>29.0</ele><time>2026-04-19T18:01:58Z</time></trkpt><trkpt lat="45.24432922693174" lon="10.865347467255651"><ele>29.0</ele><time>2026-04-19T18:01:59Z</time></trkpt><trkpt lat="45.24457392116057" lon="10.865423028704019"><ele>29.0</ele><time>2026-04-19T18:02:00Z</time></trkpt><trkpt lat="45.244819347864336" lon="10.865495142890067"><ele>30.5</ele><time>2026-04-19T18:02:01Z</time></trkpt><trkpt lat="45.24506744259194" lon="10.86557265107503"><ele>32.0</ele><time>2026-04-19T18:02:02Z</time></trkpt><trkpt lat="45.24531659134484" lon="10.865654777330132"><ele>32.0</ele><time>2026-04-19T18:02:03Z</time></trkpt><trkpt lat="45.24556327296269" lon="10.865735133051178"><ele>32.0</ele><time>2026-04-19T18:02:04Z</time></trkpt><trkpt lat="45.24581049443861" lon="10.865809082420538"><ele>31.5</ele><time>2026-04-19T18:02:05Z</time></trkpt><trkpt lat="45.24606037774605" lon="10.865897574752525"><ele>31.0</ele><time>2026-04-19T18:02:06Z</time></trkpt><trkpt lat="45.24631083046937" lon="10.86597898258746"><ele>30.5</ele><time>2026-04-19T18:02:07Z</time></trkpt><trkpt lat="45.24655397890545" lon="10.866054280219888"><ele>30.0</ele><time>2026-04-19T18:02:08Z</time></trkpt><trkpt lat="45.24679837468142" lon="10.866131743081448"><ele>30.0</ele><time>2026-04-19T18:02:09Z</time></trkpt><trkpt lat="45.24704507980463" lon="10.866208006098358"><ele>30.0</ele><time>2026-04-19T18:02:10Z</time></trkpt><trkpt lat="45.24729214601989" lon="10.866281644678777"><ele>31.5</ele><time>2026-04-19T18:02:11Z</time></trkpt><trkpt lat="45.24753939724437" lon="10.866356504760436"><ele>33.0</ele><time>2026-04-19T18:02:12Z</time></trkpt><trkpt lat="45.24778624111976" lon="10.866436346605116"><ele>33.0</ele><time>2026-04-19T18:02:13Z</time></trkpt><trkpt lat="45.24803295351287" lon="10.866517580974339"><ele>33.0</ele><time>2026-04-19T18:02:14Z</time></trkpt><trkpt lat="45.2482796360848" lon="10.866597048175544"><ele>33.0</ele><time>2026-04-19T18:02:15Z</time></trkpt><trkpt lat="45.24852693124925" lon="10.866676474893355"><ele>33.0</ele><time>2026-04-19T18:02:16Z</time></trkpt><trkpt lat="45.24877393322164" lon="10.866756688547241"><ele>32.5</ele><time>2026-04-19T18:02:17Z</time></trkpt><trkpt lat="45.24901993427783" lon="10.866835662587825"><ele>32.0</ele><time>2026-04-19T18:02:18Z</time></trkpt><trkpt lat="45.249266678867684" lon="10.866916748109238"><ele>32.0</ele><time>2026-04-19T18:02:19Z</time></trkpt><trkpt lat="45.24951958884111" lon="10.86700115242262"><ele>32.0</ele><time>2026-04-19T18:02:20Z</time></trkpt><trkpt lat="45.249761663027364" lon="10.867073440897228"><ele>31.0</ele><time>2026-04-19T18:02:21Z</time></trkpt><trkpt lat="45.25001104430033" lon="10.867149680204225"><ele>30.0</ele><time>2026-04-19T18:02:22Z</time></trkpt><trkpt lat="45.250258291531914" lon="10.867230731176493"><ele>30.0</ele><time>2026-04-19T18:02:23Z</time></trkpt><trkpt lat="45.250504132358074" lon="10.867309473558805"><ele>30.0</ele><time>2026-04-19T18:02:24Z</time></trkpt><trkpt lat="45.25075128862855" lon="10.867385798894833"><ele>30.0</ele><time>2026-04-19T18:02:25Z</time></trkpt><trkpt lat="45.250998609147956" lon="10.86745822037931"><ele>30.0</ele><time>2026-04-19T18:02:26Z</time></trkpt><trkpt lat="45.25124585005936" lon="10.867534086626206"><ele>30.5</ele><time>2026-04-19T18:02:27Z</time></trkpt><trkpt lat="45.2514923837832" lon="10.867612920453633"><ele>31.0</ele><time>2026-04-19T18:02:28Z</time></trkpt><trkpt lat="45.25173870435207" lon="10.867691854428822"><ele>31.0</ele><time>2026-04-19T18:02:29Z</time></trkpt><trkpt lat="45.251985653373666" lon="10.867769936091872"><ele>31.0</ele><time>2026-04-19T18:02:30Z</time></trkpt><trkpt lat="45.252232619351396" lon="10.867848955074338"><ele>30.5</ele><time>2026-04-19T18:02:31Z</time></trkpt><trkpt lat="45.25247975612224" lon="10.867927422157901"><ele>30.0</ele><time>2026-04-19T18:02:32Z</time></trkpt><trkpt lat="45.252726677534774" lon="10.868004702888065"><ele>30.0</ele><time>2026-04-19T18:02:33Z</time></trkpt><trkpt lat="45.252973620472766" lon="10.868082364837191"><ele>30.0</ele><time>2026-04-19T18:02:34Z</time></trkpt><trkpt lat="45.25322064063474" lon="10.868159407853012"><ele>31.0</ele><time>2026-04-19T18:02:35Z</time></trkpt><trkpt lat="45.25346750478952" lon="10.868236648377964"><ele>32.0</ele><time>2026-04-19T18:02:36Z</time></trkpt><trkpt lat="45.25371433474571" lon="10.868314263482365"><ele>32.5</ele><time>2026-04-19T18:02:37Z</time></trkpt><trkpt lat="45.25396189654047" lon="10.868391982257744"><ele>33.0</ele><time>2026-04-19T18:02:38Z</time></trkpt><trkpt lat="45.25420907084084" lon="10.868470328086929"><ele>32.0</ele><time>2026-04-19T18:02:39Z</time></trkpt><trkpt lat="45.25445561904329" lon="10.868549844819691"><ele>31.0</ele><time>2026-04-19T18:02:40Z</time></trkpt><trkpt lat="45.25470248940712" lon="10.868629953848997"><ele>31.0</ele><time>2026-04-19T18:02:41Z</time></trkpt><trkpt lat="45.25494889511565" lon="10.868709541510372"><ele>31.0</ele><time>2026-04-19T18:02:42Z</time></trkpt><trkpt lat="45.25519613213579" lon="10.868788116403097"><ele>31.0</ele><time>2026-04-19T18:02:43Z</time></trkpt><trkpt lat="45.255443215679286" lon="10.86886803042998"><ele>31.0</ele><time>2026-04-19T18:02:44Z</time></trkpt><trkpt lat="45.25568975293624" lon="10.868948197371019"><ele>31.5</ele><time>2026-04-19T18:02:45Z</time></trkpt><trkpt lat="45.255936288172975" lon="10.86902725587991"><ele>32.0</ele><time>2026-04-19T18:02:46Z</time></trkpt><trkpt lat="45.25618312856454" lon="10.869104414443122"><ele>32.0</ele><time>2026-04-19T18:02:47Z</time></trkpt><trkpt lat="45.25643018443367" lon="10.86918137828674"><ele>32.0</ele><time>2026-04-19T18:02:48Z</time></trkpt><trkpt lat="45.25667777711687" lon="10.869258083808303"><ele>32.0</ele><time>2026-04-19T18:02:49Z</time></trkpt><trkpt lat="45.25692531127017" lon="10.869334712682807"><ele>32.0</ele><time>2026-04-19T18:02:50Z</time></trkpt><trkpt lat="45.25717223813668" lon="10.869413358819303"><ele>31.0</ele><time>2026-04-19T18:02:51Z</time></trkpt><trkpt lat="45.257418898242406" lon="10.86949171803598"><ele>30.0</ele><time>2026-04-19T18:02:52Z</time></trkpt><trkpt lat="45.25766577215095" lon="10.86957114271324"><ele>30.0</ele><time>2026-04-19T18:02:53Z</time></trkpt><trkpt lat="45.25791282062354" lon="10.869651133796687"><ele>30.0</ele><time>2026-04-19T18:02:54Z</time></trkpt><trkpt lat="45.258159391338715" lon="10.869730543270007"><ele>30.0</ele><time>2026-04-19T18:02:55Z</time></trkpt><trkpt lat="45.25840646866245" lon="10.869809941091944"><ele>30.0</ele><time>2026-04-19T18:02:56Z</time></trkpt><trkpt lat="45.258653137536896" lon="10.869889570575967"><ele>30.0</ele><time>2026-04-19T18:02:57Z</time></trkpt><trkpt lat="45.25889997801817" lon="10.869968137803042"><ele>30.0</ele><time>2026-04-19T18:02:58Z</time></trkpt><trkpt lat="45.25914630480703" lon="10.870047109477133"><ele>31.5</ele><time>2026-04-19T18:02:59Z</time></trkpt><trkpt lat="45.25939195783683" lon="10.870124335999728"><ele>33.0</ele><time>2026-04-19T18:03:00Z</time></trkpt><trkpt lat="45.25963788462431" lon="10.870201367860696"><ele>32.0</ele><time>2026-04-19T18:03:01Z</time></trkpt><trkpt lat="45.2598857798663" lon="10.870280752135704"><ele>31.0</ele><time>2026-04-19T18:03:02Z</time></trkpt><trkpt lat="45.260132956066265" lon="10.870359091775256"><ele>31.0</ele><time>2026-04-19T18:03:03Z</time></trkpt><trkpt lat="45.2603798874009" lon="10.870437722674659"><ele>31.0</ele><time>2026-04-19T18:03:04Z</time></trkpt><trkpt lat="45.2606260951009" lon="10.870518574358197"><ele>31.5</ele><time>2026-04-19T18:03:05Z</time></trkpt><trkpt lat="45.26087221919238" lon="10.870599589197512"><ele>32.0</ele><time>2026-04-19T18:03:06Z</time></trkpt><trkpt lat="45.26111884738786" lon="10.870679160920162"><ele>32.0</ele><time>2026-04-19T18:03:07Z</time></trkpt><trkpt lat="45.26136577511472" lon="10.870758336537166"><ele>32.0</ele><time>2026-04-19T18:03:08Z</time></trkpt><trkpt lat="45.261612759293726" lon="10.870837151096316"><ele>32.5</ele><time>2026-04-19T18:03:09Z</time></trkpt><trkpt lat="45.261860228905164" lon="10.870915878752445"><ele>33.0</ele><time>2026-04-19T18:03:10Z</time></trkpt><trkpt lat="45.26210697468231" lon="10.870994711453422"><ele>33.0</ele><time>2026-04-19T18:03:11Z</time></trkpt><trkpt lat="45.26235417449842" lon="10.871074668952211"><ele>33.0</ele><time>2026-04-19T18:03:12Z</time></trkpt><trkpt lat="45.26260143581333" lon="10.871155049315991"><ele>33.0</ele><time>2026-04-19T18:03:13Z</time></trkpt><trkpt lat="45.2628481379927" lon="10.8712339782329"><ele>33.0</ele><time>2026-04-19T18:03:14Z</time></trkpt><trkpt lat="45.263095801533794" lon="10.871312184432227"><ele>32.5</ele><time>2026-04-19T18:03:15Z</time></trkpt><trkpt lat="45.263342694825965" lon="10.871390892303095"><ele>32.0</ele><time>2026-04-19T18:03:16Z</time></trkpt><trkpt lat="45.26358955561592" lon="10.87146804963618"><ele>32.0</ele><time>2026-04-19T18:03:17Z</time></trkpt><trkpt lat="45.263836704579795" lon="10.871545859506615"><ele>32.0</ele><time>2026-04-19T18:03:18Z</time></trkpt><trkpt lat="45.26408409256626" lon="10.871623289498107"><ele>32.5</ele><time>2026-04-19T18:03:19Z</time></trkpt><trkpt lat="45.264331309524984" lon="10.87170176929355"><ele>33.0</ele><time>2026-04-19T18:03:20Z</time></trkpt><trkpt lat="45.26457896513782" lon="10.871780614893932"><ele>32.5</ele><time>2026-04-19T18:03:21Z</time></trkpt><trkpt lat="45.26482597685258" lon="10.871860083340101"><ele>32.0</ele><time>2026-04-19T18:03:22Z</time></trkpt><trkpt lat="45.26507358696132" lon="10.871939324751368"><ele>32.0</ele><time>2026-04-19T18:03:23Z</time></trkpt><trkpt lat="45.26532068060869" lon="10.872019045225976"><ele>32.0</ele><time>2026-04-19T18:03:24Z</time></trkpt><trkpt lat="45.26556803673973" lon="10.872098820775038"><ele>31.0</ele><time>2026-04-19T18:03:25Z</time></trkpt><trkpt lat="45.265815293736715" lon="10.872178866750826"><ele>30.0</ele><time>2026-04-19T18:03:26Z</time></trkpt><trkpt lat="45.26606169646735" lon="10.87225947002295"><ele>30.0</ele><time>2026-04-19T18:03:27Z</time></trkpt><trkpt lat="45.26630867551878" lon="10.872340542787766"><ele>30.0</ele><time>2026-04-19T18:03:28Z</time></trkpt><trkpt lat="45.266555312260245" lon="10.872420400171167"><ele>31.5</ele><time>2026-04-19T18:03:29Z</time></trkpt><trkpt lat="45.266802036347016" lon="10.872498599410019"><ele>33.0</ele><time>2026-04-19T18:03:30Z</time></trkpt><trkpt lat="45.26704934895669" lon="10.872576322121425"><ele>32.0</ele><time>2026-04-19T18:03:31Z</time></trkpt><trkpt lat="45.26729565100368" lon="10.872655353744618"><ele>31.0</ele><time>2026-04-19T18:03:32Z</time></trkpt><trkpt lat="45.267542152975665" lon="10.87273593194614"><ele>31.0</ele><time>2026-04-19T18:03:33Z</time></trkpt><trkpt lat="45.26778749095928" lon="10.87281968409508"><ele>31.0</ele><time>2026-04-19T18:03:34Z</time></trkpt><trkpt lat="45.268031967147834" lon="10.872909254629885"><ele>32.0</ele><time>2026-04-19T18:03:35Z</time></trkpt><trkpt lat="45.26827537063362" lon="10.873005443964846"><ele>33.0</ele><time>2026-04-19T18:03:36Z</time></trkpt><trkpt lat="45.26851840194925" lon="10.873106755162288"><ele>33.0</ele><time>2026-04-19T18:03:37Z</time></trkpt><trkpt lat="45.26876087092765" lon="10.873211923372473"><ele>33.0</ele><time>2026-04-19T18:03:38Z</time></trkpt><trkpt lat="45.26900204757607" lon="10.873320805107456"><ele>32.5</ele><time>2026-04-19T18:03:39Z</time></trkpt><trkpt lat="45.269242349797025" lon="10.873432360159825"><ele>32.0</ele><time>2026-04-19T18:03:40Z</time></trkpt><trkpt lat="45.26948217827885" lon="10.873547698109018"><ele>32.5</ele><time>2026-04-19T18:03:41Z</time></trkpt><trkpt lat="45.269721051504106" lon="10.873667184374053"><ele>33.0</ele><time>2026-04-19T18:03:42Z</time></trkpt><trkpt lat="45.26995887194972" lon="10.873791428371966"><ele>33.0</ele><time>2026-04-19T18:03:43Z</time></trkpt><trkpt lat="45.27019579403146" lon="10.873918565720167"><ele>33.0</ele><time>2026-04-19T18:03:44Z</time></trkpt><trkpt lat="45.27043209120893" lon="10.874048715813375"><ele>33.0</ele><time>2026-04-19T18:03:45Z</time></trkpt><trkpt lat="45.270667178104475" lon="10.87418239874701"><ele>33.0</ele><time>2026-04-19T18:03:46Z</time></trkpt><trkpt lat="45.27090056223079" lon="10.874320064394006"><ele>33.0</ele><time>2026-04-19T18:03:47Z</time></trkpt><trkpt lat="45.27113286513002" lon="10.87446072809968"><ele>33.0</ele><time>2026-04-19T18:03:48Z</time></trkpt><trkpt lat="45.271364287959756" lon="10.874605099309317"><ele>33.5</ele><time>2026-04-19T18:03:49Z</time></trkpt><trkpt lat="45.27159451686828" lon="10.87475338391337"><ele>34.0</ele><time>2026-04-19T18:03:50Z</time></trkpt><trkpt lat="45.2718231352288" lon="10.87490655487855"><ele>34.0</ele><time>2026-04-19T18:03:51Z</time></trkpt><trkpt lat="45.27204980503594" lon="10.875064286373364"><ele>34.0</ele><time>2026-04-19T18:03:52Z</time></trkpt><trkpt lat="45.272275580910566" lon="10.87522343465302"><ele>33.5</ele><time>2026-04-19T18:03:53Z</time></trkpt><trkpt lat="45.27250022818446" lon="10.875386137456651"><ele>33.0</ele><time>2026-04-19T18:03:54Z</time></trkpt><trkpt lat="45.272723938354815" lon="10.875552668758349"><ele>33.0</ele><time>2026-04-19T18:03:55Z</time></trkpt><trkpt lat="45.27294650461917" lon="10.875721585108646"><ele>33.0</ele><time>2026-04-19T18:03:56Z</time></trkpt><trkpt lat="45.27316848764047" lon="10.875893601586675"><ele>32.5</ele><time>2026-04-19T18:03:57Z</time></trkpt><trkpt lat="45.273390433864506" lon="10.876066915266671"><ele>32.0</ele><time>2026-04-19T18:03:58Z</time></trkpt><trkpt lat="45.27361222867311" lon="10.876240577460718"><ele>32.0</ele><time>2026-04-19T18:03:59Z</time></trkpt><trkpt lat="45.27383401564537" lon="10.876414802311578"><ele>32.0</ele><time>2026-04-19T18:04:00Z</time></trkpt><trkpt lat="45.27405610673" lon="10.876587565752262"><ele>32.0</ele><time>2026-04-19T18:04:01Z</time></trkpt><trkpt lat="45.27427775336981" lon="10.87676064607368"><ele>32.0</ele><time>2026-04-19T18:04:02Z</time></trkpt><trkpt lat="45.2744993795987" lon="10.87693284555163"><ele>32.0</ele><time>2026-04-19T18:04:03Z</time></trkpt><trkpt lat="45.27472100461564" lon="10.87710558753736"><ele>32.0</ele><time>2026-04-19T18:04:04Z</time></trkpt><trkpt lat="45.27494216348534" lon="10.877277993353054"><ele>33.0</ele><time>2026-04-19T18:04:05Z</time></trkpt><trkpt lat="45.275164088426706" lon="10.877450930359942"><ele>34.0</ele><time>2026-04-19T18:04:06Z</time></trkpt><trkpt lat="45.27538598448374" lon="10.87762303232511"><ele>35.0</ele><time>2026-04-19T18:04:07Z</time></trkpt><trkpt lat="45.27560646577907" lon="10.877793803140428"><ele>36.0</ele><time>2026-04-19T18:04:08Z</time></trkpt><trkpt lat="45.275826478857724" lon="10.877965153064554"><ele>36.0</ele><time>2026-04-19T18:04:09Z</time></trkpt><trkpt lat="45.27604854329786" lon="10.878139560483525"><ele>36.0</ele><time>2026-04-19T18:04:10Z</time></trkpt><trkpt lat="45.27626980181483" lon="10.878314913608376"><ele>36.0</ele><time>2026-04-19T18:04:11Z</time></trkpt><trkpt lat="45.27649094198409" lon="10.878489700022815"><ele>36.0</ele><time>2026-04-19T18:04:12Z</time></trkpt><trkpt lat="45.27671305569301" lon="10.878664235198382"><ele>36.0</ele><time>2026-04-19T18:04:13Z</time></trkpt><trkpt lat="45.27693455657283" lon="10.878838291103685"><ele>36.0</ele><time>2026-04-19T18:04:14Z</time></trkpt><trkpt lat="45.27715554304487" lon="10.879013113733254"><ele>36.5</ele><time>2026-04-19T18:04:15Z</time></trkpt><trkpt lat="45.27737719415059" lon="10.879185978964179"><ele>37.0</ele><time>2026-04-19T18:04:16Z</time></trkpt><trkpt lat="45.27759910511776" lon="10.879357759897209"><ele>36.0</ele><time>2026-04-19T18:04:17Z</time></trkpt><trkpt lat="45.277821544826686" lon="10.879528202631636"><ele>35.0</ele><time>2026-04-19T18:04:18Z</time></trkpt><trkpt lat="45.2780438482632" lon="10.879699845626073"><ele>35.5</ele><time>2026-04-19T18:04:19Z</time></trkpt><trkpt lat="45.27826603667111" lon="10.879871754168457"><ele>36.0</ele><time>2026-04-19T18:04:20Z</time></trkpt><trkpt lat="45.2784869088301" lon="10.880044688995959"><ele>36.0</ele><time>2026-04-19T18:04:21Z</time></trkpt><trkpt lat="45.278708826318805" lon="10.880218401177078"><ele>36.0</ele><time>2026-04-19T18:04:22Z</time></trkpt><trkpt lat="45.278927796491395" lon="10.880390118420145"><ele>35.0</ele><time>2026-04-19T18:04:23Z</time></trkpt><trkpt lat="45.27914869071796" lon="10.880565498600088"><ele>34.0</ele><time>2026-04-19T18:04:24Z</time></trkpt><trkpt lat="45.279370497211445" lon="10.880741524915555"><ele>34.0</ele><time>2026-04-19T18:04:25Z</time></trkpt><trkpt lat="45.279591728413365" lon="10.88091854430583"><ele>34.0</ele><time>2026-04-19T18:04:26Z</time></trkpt><trkpt lat="45.27981290104589" lon="10.881094813974153"><ele>33.5</ele><time>2026-04-19T18:04:27Z</time></trkpt><trkpt lat="45.280034789528116" lon="10.881267570396886"><ele>33.0</ele><time>2026-04-19T18:04:28Z</time></trkpt><trkpt lat="45.280258251010686" lon="10.881440290760738"><ele>33.0</ele><time>2026-04-19T18:04:29Z</time></trkpt><trkpt lat="45.28048127748409" lon="10.881611061001438"><ele>33.0</ele><time>2026-04-19T18:04:30Z</time></trkpt><trkpt lat="45.28070394466068" lon="10.881780500089942"><ele>32.5</ele><time>2026-04-19T18:04:31Z</time></trkpt><trkpt lat="45.28092638430241" lon="10.881950844654463"><ele>32.0</ele><time>2026-04-19T18:04:32Z</time></trkpt><trkpt lat="45.28114905870558" lon="10.882122563351231"><ele>32.0</ele><time>2026-04-19T18:04:33Z</time></trkpt><trkpt lat="45.281371517604505" lon="10.882295047789572"><ele>32.0</ele><time>2026-04-19T18:04:34Z</time></trkpt><trkpt lat="45.28159222205152" lon="10.88246858683248"><ele>32.0</ele><time>2026-04-19T18:04:35Z</time></trkpt><trkpt lat="45.28181317115095" lon="10.88264336495653"><ele>32.0</ele><time>2026-04-19T18:04:36Z</time></trkpt><trkpt lat="45.282033358158856" lon="10.882819585087146"><ele>32.0</ele><time>2026-04-19T18:04:37Z</time></trkpt><trkpt lat="45.28225256675197" lon="10.882994494457051"><ele>32.0</ele><time>2026-04-19T18:04:38Z</time></trkpt><trkpt lat="45.28247370858492" lon="10.883166440725548"><ele>34.5</ele><time>2026-04-19T18:04:39Z</time></trkpt><trkpt lat="45.28269652267546" lon="10.883338918126876"><ele>37.0</ele><time>2026-04-19T18:04:40Z</time></trkpt><trkpt lat="45.28291898448901" lon="10.883511635363586"><ele>34.5</ele><time>2026-04-19T18:04:41Z</time></trkpt><trkpt lat="45.28314189598175" lon="10.883683978527129"><ele>32.0</ele><time>2026-04-19T18:04:42Z</time></trkpt><trkpt lat="45.283364755123806" lon="10.883855993494882"><ele>32.0</ele><time>2026-04-19T18:04:43Z</time></trkpt><trkpt lat="45.28358650249125" lon="10.884027985550974"><ele>32.0</ele><time>2026-04-19T18:04:44Z</time></trkpt><trkpt lat="45.28380810323082" lon="10.884200509379664"><ele>32.5</ele><time>2026-04-19T18:04:45Z</time></trkpt><trkpt lat="45.28402963771472" lon="10.884373361878694"><ele>33.0</ele><time>2026-04-19T18:04:46Z</time></trkpt><trkpt lat="45.28425144329729" lon="10.884545630078224"><ele>33.0</ele><time>2026-04-19T18:04:47Z</time></trkpt><trkpt lat="45.28447303030856" lon="10.884717450080696"><ele>33.0</ele><time>2026-04-19T18:04:48Z</time></trkpt><trkpt lat="45.28469429383336" lon="10.884890217521944"><ele>32.5</ele><time>2026-04-19T18:04:49Z</time></trkpt><trkpt lat="45.28491615591424" lon="10.885063031852585"><ele>32.0</ele><time>2026-04-19T18:04:50Z</time></trkpt><trkpt lat="45.285137931552896" lon="10.885235993801068"><ele>32.0</ele><time>2026-04-19T18:04:51Z</time></trkpt><trkpt lat="45.285359141231275" lon="10.885410298697588"><ele>32.0</ele><time>2026-04-19T18:04:52Z</time></trkpt><trkpt lat="45.28558041569623" lon="10.885584859752337"><ele>32.0</ele><time>2026-04-19T18:04:53Z</time></trkpt><trkpt lat="45.28580098821126" lon="10.885759089517837"><ele>32.0</ele><time>2026-04-19T18:04:54Z</time></trkpt><trkpt lat="45.28602238382981" lon="10.885930802489348"><ele>32.0</ele><time>2026-04-19T18:04:55Z</time></trkpt><trkpt lat="45.286243239125824" lon="10.886103662576039"><ele>32.0</ele><time>2026-04-19T18:04:56Z</time></trkpt><trkpt lat="45.28646435839585" lon="10.886275982739509"><ele>32.5</ele><time>2026-04-19T18:04:57Z</time></trkpt><trkpt lat="45.286685266311274" lon="10.886449493154247"><ele>33.0</ele><time>2026-04-19T18:04:58Z</time></trkpt><trkpt lat="45.28690536919751" lon="10.88662432509685"><ele>32.5</ele><time>2026-04-19T18:04:59Z</time></trkpt><trkpt lat="45.287124047929204" lon="10.88680125872123"><ele>32.0</ele><time>2026-04-19T18:05:00Z</time></trkpt><trkpt lat="45.287341757145235" lon="10.886983754931785"><ele>33.0</ele><time>2026-04-19T18:05:01Z</time></trkpt><trkpt lat="45.28755906835985" lon="10.887166793687697"><ele>34.0</ele><time>2026-04-19T18:05:02Z</time></trkpt><trkpt lat="45.28777523518015" lon="10.887353807939256"><ele>34.0</ele><time>2026-04-19T18:05:03Z</time></trkpt><trkpt lat="45.287989032055926" lon="10.887546205259198"><ele>34.0</ele><time>2026-04-19T18:05:04Z</time></trkpt><trkpt lat="45.28820052566902" lon="10.88774240435125"><ele>34.5</ele><time>2026-04-19T18:05:05Z</time></trkpt><trkpt lat="45.28841184487282" lon="10.887940500982113"><ele>35.0</ele><time>2026-04-19T18:05:06Z</time></trkpt><trkpt lat="45.288621996764164" lon="10.888140947232303"><ele>35.0</ele><time>2026-04-19T18:05:07Z</time></trkpt><trkpt lat="45.288831282297146" lon="10.88834330351906"><ele>35.0</ele><time>2026-04-19T18:05:08Z</time></trkpt><trkpt lat="45.28903985062168" lon="10.888548227151615"><ele>35.0</ele><time>2026-04-19T18:05:09Z</time></trkpt><trkpt lat="45.28925039653692" lon="10.888757672805895"><ele>35.0</ele><time>2026-04-19T18:05:10Z</time></trkpt><trkpt lat="45.28946234273503" lon="10.888973754380459"><ele>35.0</ele><time>2026-04-19T18:05:11Z</time></trkpt><trkpt lat="45.28967340146808" lon="10.889194143109886"><ele>35.0</ele><time>2026-04-19T18:05:12Z</time></trkpt><trkpt lat="45.28988323221641" lon="10.889417304643532"><ele>35.0</ele><time>2026-04-19T18:05:13Z</time></trkpt><trkpt lat="45.29009143783829" lon="10.889641634374158"><ele>35.0</ele><time>2026-04-19T18:05:14Z</time></trkpt><trkpt lat="45.290301611834906" lon="10.889868849975594"><ele>35.0</ele><time>2026-04-19T18:05:15Z</time></trkpt><trkpt lat="45.29051259644021" lon="10.890096382372963"><ele>35.0</ele><time>2026-04-19T18:05:16Z</time></trkpt><trkpt lat="45.290724510215654" lon="10.89032070168214"><ele>35.0</ele><time>2026-04-19T18:05:17Z</time></trkpt><trkpt lat="45.29093730898516" lon="10.890542229305497"><ele>35.0</ele><time>2026-04-19T18:05:18Z</time></trkpt><trkpt lat="45.29115048073341" lon="10.890764477552606"><ele>34.5</ele><time>2026-04-19T18:05:19Z</time></trkpt><trkpt lat="45.29136437189782" lon="10.890985574840245"><ele>34.0</ele><time>2026-04-19T18:05:20Z</time></trkpt><trkpt lat="45.291577144219225" lon="10.891206504473956"><ele>35.0</ele><time>2026-04-19T18:05:21Z</time></trkpt><trkpt lat="45.29179231452055" lon="10.891431272300728"><ele>36.0</ele><time>2026-04-19T18:05:22Z</time></trkpt><trkpt lat="45.2920091860063" lon="10.89165523580773"><ele>35.5</ele><time>2026-04-19T18:05:23Z</time></trkpt><trkpt lat="45.29222441290752" lon="10.891881909177272"><ele>35.0</ele><time>2026-04-19T18:05:24Z</time></trkpt><trkpt lat="45.29244170839835" lon="10.892111076464982"><ele>34.5</ele><time>2026-04-19T18:05:25Z</time></trkpt><trkpt lat="45.29266072551565" lon="10.892341763746611"><ele>34.0</ele><time>2026-04-19T18:05:26Z</time></trkpt><trkpt lat="45.29287976524763" lon="10.892574188070846"><ele>34.5</ele><time>2026-04-19T18:05:27Z</time></trkpt><trkpt lat="45.293099254116484" lon="10.89280623503022"><ele>35.0</ele><time>2026-04-19T18:05:28Z</time></trkpt><trkpt lat="45.29331743070048" lon="10.893038983642677"><ele>35.0</ele><time>2026-04-19T18:05:29Z</time></trkpt><trkpt lat="45.293534033447266" lon="10.893272650085562"><ele>35.0</ele><time>2026-04-19T18:05:30Z</time></trkpt><trkpt lat="45.29374815695004" lon="10.893505712270393"><ele>34.5</ele><time>2026-04-19T18:05:31Z</time></trkpt><trkpt lat="45.29396242674789" lon="10.893735771469226"><ele>34.0</ele><time>2026-04-19T18:05:32Z</time></trkpt><trkpt lat="45.29417621128569" lon="10.89396408296125"><ele>34.0</ele><time>2026-04-19T18:05:33Z</time></trkpt><trkpt lat="45.29438968994202" lon="10.894191619203736"><ele>34.0</ele><time>2026-04-19T18:05:34Z</time></trkpt><trkpt lat="45.29460270815993" lon="10.894419827734483"><ele>34.0</ele><time>2026-04-19T18:05:35Z</time></trkpt><trkpt lat="45.294816651954676" lon="10.89464611354271"><ele>34.0</ele><time>2026-04-19T18:05:36Z</time></trkpt><trkpt lat="45.29503267802191" lon="10.894870141257613"><ele>33.0</ele><time>2026-04-19T18:05:37Z</time></trkpt><trkpt lat="45.29524791285822" lon="10.895095595870039"><ele>32.0</ele><time>2026-04-19T18:05:38Z</time></trkpt><trkpt lat="45.29546279351659" lon="10.895322228473589"><ele>32.5</ele><time>2026-04-19T18:05:39Z</time></trkpt><trkpt lat="45.29567727928956" lon="10.895549600812565"><ele>33.0</ele><time>2026-04-19T18:05:40Z</time></trkpt><trkpt lat="45.29589271266266" lon="10.895775833441865"><ele>33.0</ele><time>2026-04-19T18:05:41Z</time></trkpt><trkpt lat="45.29611057246348" lon="10.896005904838342"><ele>33.0</ele><time>2026-04-19T18:05:42Z</time></trkpt><trkpt lat="45.296327751807375" lon="10.896238734690385"><ele>33.5</ele><time>2026-04-19T18:05:43Z</time></trkpt><trkpt lat="45.29654565283884" lon="10.896469505418285"><ele>34.0</ele><time>2026-04-19T18:05:44Z</time></trkpt><trkpt lat="45.296761688872074" lon="10.896700483341219"><ele>34.0</ele><time>2026-04-19T18:05:45Z</time></trkpt><trkpt lat="45.29697711061485" lon="10.896931407992618"><ele>34.0</ele><time>2026-04-19T18:05:46Z</time></trkpt><trkpt lat="45.297192454592206" lon="10.897162782211456"><ele>34.5</ele><time>2026-04-19T18:05:47Z</time></trkpt><trkpt lat="45.29740743347109" lon="10.89739382125214"><ele>35.0</ele><time>2026-04-19T18:05:48Z</time></trkpt><trkpt lat="45.29762334639475" lon="10.897623163742397"><ele>35.0</ele><time>2026-04-19T18:05:49Z</time></trkpt><trkpt lat="45.29784088857818" lon="10.897850355956516"><ele>35.0</ele><time>2026-04-19T18:05:50Z</time></trkpt><trkpt lat="45.29805766936768" lon="10.898078343533756"><ele>35.0</ele><time>2026-04-19T18:05:51Z</time></trkpt><trkpt lat="45.29827410716406" lon="10.898308593768606"><ele>35.0</ele><time>2026-04-19T18:05:52Z</time></trkpt><trkpt lat="45.298490401439" lon="10.898539215618925"><ele>35.0</ele><time>2026-04-19T18:05:53Z</time></trkpt><trkpt lat="45.29870583729014" lon="10.898770973829235"><ele>35.0</ele><time>2026-04-19T18:05:54Z</time></trkpt><trkpt lat="45.298920333719174" lon="10.899001916124982"><ele>34.0</ele><time>2026-04-19T18:05:55Z</time></trkpt><trkpt lat="45.2991348171375" lon="10.899233447515387"><ele>33.0</ele><time>2026-04-19T18:05:56Z</time></trkpt><trkpt lat="45.299349310812794" lon="10.899463507258284"><ele>33.0</ele><time>2026-04-19T18:05:57Z</time></trkpt><trkpt lat="45.29956485491464" lon="10.899693017326149"><ele>33.0</ele><time>2026-04-19T18:05:58Z</time></trkpt><trkpt lat="45.29978123399271" lon="10.899921616807857"><ele>34.0</ele><time>2026-04-19T18:05:59Z</time></trkpt><trkpt lat="45.29999771127769" lon="10.900149131774784"><ele>35.0</ele><time>2026-04-19T18:06:00Z</time></trkpt><trkpt lat="45.30021448114523" lon="10.90037629682998"><ele>35.0</ele><time>2026-04-19T18:06:01Z</time></trkpt><trkpt lat="45.30043214004173" lon="10.900603426295492"><ele>35.0</ele><time>2026-04-19T18:06:02Z</time></trkpt><trkpt lat="45.300650246864315" lon="10.900829115610728"><ele>35.0</ele><time>2026-04-19T18:06:03Z</time></trkpt><trkpt lat="45.300869982130294" lon="10.90105241500812"><ele>35.0</ele><time>2026-04-19T18:06:04Z</time></trkpt><trkpt lat="45.301090311131084" lon="10.901273022695657"><ele>35.0</ele><time>2026-04-19T18:06:05Z</time></trkpt><trkpt lat="45.30131162630168" lon="10.901491599281128"><ele>35.0</ele><time>2026-04-19T18:06:06Z</time></trkpt><trkpt lat="45.301534170516625" lon="10.901705687019184"><ele>34.5</ele><time>2026-04-19T18:06:07Z</time></trkpt><trkpt lat="45.30175910091644" lon="10.90191628134203"><ele>34.0</ele><time>2026-04-19T18:06:08Z</time></trkpt><trkpt lat="45.30198526193044" lon="10.902123708759369"><ele>34.0</ele><time>2026-04-19T18:06:09Z</time></trkpt><trkpt lat="45.302211816095095" lon="10.902328430150774"><ele>34.0</ele><time>2026-04-19T18:06:10Z</time></trkpt><trkpt lat="45.30244079548453" lon="10.90253168859216"><ele>35.5</ele><time>2026-04-19T18:06:11Z</time></trkpt><trkpt lat="45.30266908908019" lon="10.902736875217254"><ele>37.0</ele><time>2026-04-19T18:06:12Z</time></trkpt><trkpt lat="45.30289827353671" lon="10.902941012209793"><ele>35.5</ele><time>2026-04-19T18:06:12.999Z</time></trkpt><trkpt lat="45.30312862293431" lon="10.903142776612622"><ele>34.0</ele><time>2026-04-19T18:06:13.999Z</time></trkpt><trkpt lat="45.30336119479218" lon="10.9033417428376"><ele>34.5</ele><time>2026-04-19T18:06:14.999Z</time></trkpt><trkpt lat="45.30359567424702" lon="10.903531709142463"><ele>35.0</ele><time>2026-04-19T18:06:15.999Z</time></trkpt><trkpt lat="45.30383241666076" lon="10.903715752676115"><ele>37.0</ele><time>2026-04-19T18:06:16.999Z</time></trkpt><trkpt lat="45.30407035785539" lon="10.903896684707282"><ele>39.0</ele><time>2026-04-19T18:06:17.999Z</time></trkpt><trkpt lat="45.304309408473394" lon="10.90407314295197"><ele>39.0</ele><time>2026-04-19T18:06:18.999Z</time></trkpt><trkpt lat="45.30455055518222" lon="10.904244556688935"><ele>39.0</ele><time>2026-04-19T18:06:19.999Z</time></trkpt><trkpt lat="45.304793640027626" lon="10.904411174940826"><ele>38.0</ele><time>2026-04-19T18:06:20.999Z</time></trkpt><trkpt lat="45.305038302269466" lon="10.904573370082868"><ele>37.0</ele><time>2026-04-19T18:06:21.999Z</time></trkpt><trkpt lat="45.30528332186645" lon="10.904733706860153"><ele>37.0</ele><time>2026-04-19T18:06:22.999Z</time></trkpt><trkpt lat="45.305529184926066" lon="10.904891332587678"><ele>37.0</ele><time>2026-04-19T18:06:23.999Z</time></trkpt><trkpt lat="45.30577615903409" lon="10.905044994123067"><ele>36.5</ele><time>2026-04-19T18:06:24.999Z</time></trkpt><trkpt lat="45.30601983778264" lon="10.905193618746617"><ele>36.0</ele><time>2026-04-19T18:06:25.999Z</time></trkpt><trkpt lat="45.30626153007919" lon="10.90533675219862"><ele>35.5</ele><time>2026-04-19T18:06:26.999Z</time></trkpt><trkpt lat="45.30650415395417" lon="10.905474936861939"><ele>35.0</ele><time>2026-04-19T18:06:27.999Z</time></trkpt><trkpt lat="45.30674785425519" lon="10.905610531802001"><ele>35.0</ele><time>2026-04-19T18:06:28.999Z</time></trkpt><trkpt lat="45.30699371601764" lon="10.905744702671333"><ele>35.0</ele><time>2026-04-19T18:06:29.999Z</time></trkpt><trkpt lat="45.30723610174526" lon="10.905874314843004"><ele>35.5</ele><time>2026-04-19T18:06:30.999Z</time></trkpt><trkpt lat="45.30747339549138" lon="10.9059974297146"><ele>36.0</ele><time>2026-04-19T18:06:31.999Z</time></trkpt><trkpt lat="45.30770992890609" lon="10.906116835196674"><ele>36.0</ele><time>2026-04-19T18:06:32.999Z</time></trkpt><trkpt lat="45.307945103628796" lon="10.906234503535387"><ele>36.0</ele><time>2026-04-19T18:06:33.999Z</time></trkpt><trkpt lat="45.30818075430825" lon="10.906349172702223"><ele>36.0</ele><time>2026-04-19T18:06:34.999Z</time></trkpt><trkpt lat="45.308418154327114" lon="10.90646683688187"><ele>36.0</ele><time>2026-04-19T18:06:35.999Z</time></trkpt><trkpt lat="45.308656748427374" lon="10.906584012120856"><ele>36.0</ele><time>2026-04-19T18:06:36.999Z</time></trkpt><trkpt lat="45.308896790679505" lon="10.906701621368946"><ele>36.0</ele><time>2026-04-19T18:06:37.999Z</time></trkpt><trkpt lat="45.30913596210857" lon="10.906821828798567"><ele>35.0</ele><time>2026-04-19T18:06:38.999Z</time></trkpt><trkpt lat="45.30937465944579" lon="10.906942425967355"><ele>34.0</ele><time>2026-04-19T18:06:39.999Z</time></trkpt><trkpt lat="45.30961494905258" lon="10.9070642951352"><ele>35.0</ele><time>2026-04-19T18:06:40.999Z</time></trkpt><trkpt lat="45.30985574542184" lon="10.907186359710746"><ele>36.0</ele><time>2026-04-19T18:06:41.999Z</time></trkpt><trkpt lat="45.310096503158675" lon="10.907307038166154"><ele>36.0</ele><time>2026-04-19T18:06:42.999Z</time></trkpt><trkpt lat="45.31033674987848" lon="10.907426075759112"><ele>36.0</ele><time>2026-04-19T18:06:43.999Z</time></trkpt><trkpt lat="45.310578080744854" lon="10.907546415935524"><ele>35.5</ele><time>2026-04-19T18:06:44.999Z</time></trkpt><trkpt lat="45.310822756080114" lon="10.907669674598285"><ele>35.0</ele><time>2026-04-19T18:06:45.999Z</time></trkpt><trkpt lat="45.31106671289006" lon="10.907792548888114"><ele>35.0</ele><time>2026-04-19T18:06:46.999Z</time></trkpt><trkpt lat="45.31131268669875" lon="10.907913714734157"><ele>35.0</ele><time>2026-04-19T18:06:47.999Z</time></trkpt><trkpt lat="45.31155833513712" lon="10.908036147698478"><ele>35.0</ele><time>2026-04-19T18:06:48.999Z</time></trkpt><trkpt lat="45.31180275247456" lon="10.908158283033627"><ele>35.0</ele><time>2026-04-19T18:06:49.999Z</time></trkpt><trkpt lat="45.31204588662099" lon="10.908283445355174"><ele>35.0</ele><time>2026-04-19T18:06:50.999Z</time></trkpt><trkpt lat="45.312288109680516" lon="10.90840766196772"><ele>35.0</ele><time>2026-04-19T18:06:51.999Z</time></trkpt><trkpt lat="45.31253014823337" lon="10.908532751467703"><ele>35.0</ele><time>2026-04-19T18:06:52.999Z</time></trkpt><trkpt lat="45.31277203314352" lon="10.908655123386568"><ele>35.0</ele><time>2026-04-19T18:06:53.999Z</time></trkpt><trkpt lat="45.31301504654975" lon="10.9087763427414"><ele>36.0</ele><time>2026-04-19T18:06:54.999Z</time></trkpt><trkpt lat="45.31325818602301" lon="10.908897763824882"><ele>37.0</ele><time>2026-04-19T18:06:55.999Z</time></trkpt><trkpt lat="45.31350195179117" lon="10.909018815551747"><ele>37.0</ele><time>2026-04-19T18:06:56.999Z</time></trkpt><trkpt lat="45.313745924637544" lon="10.909139351241524"><ele>37.0</ele><time>2026-04-19T18:06:57.999Z</time></trkpt><trkpt lat="45.313990793124425" lon="10.909261921604616"><ele>38.0</ele><time>2026-04-19T18:06:58.999Z</time></trkpt><trkpt lat="45.314233895227844" lon="10.909382265028723"><ele>39.0</ele><time>2026-04-19T18:06:59.999Z</time></trkpt><trkpt lat="45.31447717388194" lon="10.909502133346205"><ele>39.0</ele><time>2026-04-19T18:07:00.999Z</time></trkpt><trkpt lat="45.314720527966244" lon="10.909626829467914"><ele>39.0</ele><time>2026-04-19T18:07:01.999Z</time></trkpt><trkpt lat="45.31496322802122" lon="10.909753008317752"><ele>38.5</ele><time>2026-04-19T18:07:02.999Z</time></trkpt><trkpt lat="45.31520503085212" lon="10.909880743137856"><ele>38.0</ele><time>2026-04-19T18:07:03.999Z</time></trkpt><trkpt lat="45.31544684776471" lon="10.91000963474486"><ele>37.5</ele><time>2026-04-19T18:07:04.999Z</time></trkpt><trkpt lat="45.31568716180315" lon="10.910142875124675"><ele>37.0</ele><time>2026-04-19T18:07:05.999Z</time></trkpt><trkpt lat="45.31592722365734" lon="10.91027730472914"><ele>37.0</ele><time>2026-04-19T18:07:06.999Z</time></trkpt><trkpt lat="45.31616750624457" lon="10.910413961403503"><ele>37.0</ele><time>2026-04-19T18:07:07.999Z</time></trkpt><trkpt lat="45.3164057929683" lon="10.910553077630414"><ele>36.5</ele><time>2026-04-19T18:07:08.999Z</time></trkpt><trkpt lat="45.31664489654025" lon="10.910693026384832"><ele>36.0</ele><time>2026-04-19T18:07:09.999Z</time></trkpt><trkpt lat="45.316882884159725" lon="10.910837793075867"><ele>36.0</ele><time>2026-04-19T18:07:10.999Z</time></trkpt><trkpt lat="45.317120749114906" lon="10.910981700186179"><ele>36.0</ele><time>2026-04-19T18:07:12Z</time></trkpt><trkpt lat="45.3173583799031" lon="10.911127360857126"><ele>36.0</ele><time>2026-04-19T18:07:13Z</time></trkpt><trkpt lat="45.31759475880791" lon="10.911275308098725"><ele>36.0</ele><time>2026-04-19T18:07:14Z</time></trkpt><trkpt lat="45.317831200571405" lon="10.91142313739693"><ele>36.0</ele><time>2026-04-19T18:07:15Z</time></trkpt><trkpt lat="45.318067105852336" lon="10.911573195741989"><ele>36.0</ele><time>2026-04-19T18:07:16Z</time></trkpt><trkpt lat="45.31830221795661" lon="10.911724716430006"><ele>36.0</ele><time>2026-04-19T18:07:17Z</time></trkpt><trkpt lat="45.31853799178334" lon="10.911875372662466"><ele>36.0</ele><time>2026-04-19T18:07:18Z</time></trkpt><trkpt lat="45.31877421421072" lon="10.91202274635894"><ele>36.0</ele><time>2026-04-19T18:07:19Z</time></trkpt><trkpt lat="45.319011598582335" lon="10.912169465578458"><ele>36.0</ele><time>2026-04-19T18:07:20Z</time></trkpt><trkpt lat="45.31924791711654" lon="10.91231916198972"><ele>36.0</ele><time>2026-04-19T18:07:21Z</time></trkpt><trkpt lat="45.31948429120416" lon="10.912466682650717"><ele>36.0</ele><time>2026-04-19T18:07:22Z</time></trkpt><trkpt lat="45.319721941934525" lon="10.912614090560252"><ele>37.0</ele><time>2026-04-19T18:07:23Z</time></trkpt><trkpt lat="45.31995904957593" lon="10.91276153192443"><ele>38.0</ele><time>2026-04-19T18:07:24Z</time></trkpt><trkpt lat="45.32019569334805" lon="10.91290842259258"><ele>38.0</ele><time>2026-04-19T18:07:25Z</time></trkpt><trkpt lat="45.320432757774334" lon="10.913055451317401"><ele>38.0</ele><time>2026-04-19T18:07:26Z</time></trkpt><trkpt lat="45.32066935159622" lon="10.913202051329126"><ele>38.0</ele><time>2026-04-19T18:07:27Z</time></trkpt><trkpt lat="45.320906538003825" lon="10.913347639615914"><ele>38.0</ele><time>2026-04-19T18:07:28Z</time></trkpt><trkpt lat="45.321142683973335" lon="10.913495788125624"><ele>38.0</ele><time>2026-04-19T18:07:29Z</time></trkpt><trkpt lat="45.32137844214854" lon="10.913645991413436"><ele>38.0</ele><time>2026-04-19T18:07:30Z</time></trkpt><trkpt lat="45.32161433832542" lon="10.913795312173756"><ele>38.0</ele><time>2026-04-19T18:07:31Z</time></trkpt><trkpt lat="45.3218506833792" lon="10.91394391681419"><ele>38.0</ele><time>2026-04-19T18:07:32Z</time></trkpt><trkpt lat="45.32208604589768" lon="10.914095114228362"><ele>37.5</ele><time>2026-04-19T18:07:33Z</time></trkpt><trkpt lat="45.32232202083264" lon="10.914243891517442"><ele>37.0</ele><time>2026-04-19T18:07:34Z</time></trkpt><trkpt lat="45.32255936234527" lon="10.914391285387621"><ele>37.0</ele><time>2026-04-19T18:07:35Z</time></trkpt><trkpt lat="45.32279561421328" lon="10.914539506451963"><ele>37.0</ele><time>2026-04-19T18:07:36Z</time></trkpt><trkpt lat="45.32303336425385" lon="10.914683646532922"><ele>37.0</ele><time>2026-04-19T18:07:37Z</time></trkpt><trkpt lat="45.32326970745032" lon="10.91483007547529"><ele>37.0</ele><time>2026-04-19T18:07:38Z</time></trkpt><trkpt lat="45.323506068551445" lon="10.91497724927223"><ele>37.0</ele><time>2026-04-19T18:07:39Z</time></trkpt><trkpt lat="45.32374183096069" lon="10.915125539680318"><ele>37.0</ele><time>2026-04-19T18:07:40Z</time></trkpt><trkpt lat="45.3239773115251" lon="10.915275560474281"><ele>36.5</ele><time>2026-04-19T18:07:41Z</time></trkpt><trkpt lat="45.324213269237525" lon="10.915421706313703"><ele>36.0</ele><time>2026-04-19T18:07:42Z</time></trkpt><trkpt lat="45.32445051992979" lon="10.915565750135993"><ele>36.0</ele><time>2026-04-19T18:07:43Z</time></trkpt><trkpt lat="45.32468764800914" lon="10.915711479088996"><ele>36.0</ele><time>2026-04-19T18:07:44Z</time></trkpt><trkpt lat="45.32492568976695" lon="10.915852430733299"><ele>37.0</ele><time>2026-04-19T18:07:45Z</time></trkpt><trkpt lat="45.32516603936227" lon="10.915988426058348"><ele>38.0</ele><time>2026-04-19T18:07:46Z</time></trkpt><trkpt lat="45.3254062996056" lon="10.916120930919686"><ele>38.0</ele><time>2026-04-19T18:07:47Z</time></trkpt><trkpt lat="45.325649328121955" lon="10.916246087964144"><ele>38.0</ele><time>2026-04-19T18:07:48Z</time></trkpt><trkpt lat="45.32589372689285" lon="10.91636664008173"><ele>38.0</ele><time>2026-04-19T18:07:49Z</time></trkpt><trkpt lat="45.32614004547678" lon="10.916478093819098"><ele>38.0</ele><time>2026-04-19T18:07:50Z</time></trkpt><trkpt lat="45.32638823251855" lon="10.91658076020648"><ele>38.5</ele><time>2026-04-19T18:07:51Z</time></trkpt><trkpt lat="45.32663758957851" lon="10.916677811178385"><ele>39.0</ele><time>2026-04-19T18:07:52Z</time></trkpt><trkpt lat="45.326887720586214" lon="10.916768567405693"><ele>39.0</ele><time>2026-04-19T18:07:53Z</time></trkpt><trkpt lat="45.32713927614636" lon="10.91685398213214"><ele>39.0</ele><time>2026-04-19T18:07:54Z</time></trkpt><trkpt lat="45.327392150941485" lon="10.916930020984656"><ele>39.0</ele><time>2026-04-19T18:07:55Z</time></trkpt><trkpt lat="45.32764573487577" lon="10.917004730740222"><ele>39.0</ele><time>2026-04-19T18:07:56Z</time></trkpt><trkpt lat="45.32789943525555" lon="10.91707626292337"><ele>38.0</ele><time>2026-04-19T18:07:57Z</time></trkpt><trkpt lat="45.32815439723117" lon="10.917141594817906"><ele>37.0</ele><time>2026-04-19T18:07:58Z</time></trkpt><trkpt lat="45.32840994789765" lon="10.91720058158899"><ele>37.0</ele><time>2026-04-19T18:07:59Z</time></trkpt><trkpt lat="45.328665778243064" lon="10.917256275141433"><ele>37.0</ele><time>2026-04-19T18:08:00Z</time></trkpt><trkpt lat="45.32892204273209" lon="10.917300860983323"><ele>37.0</ele><time>2026-04-19T18:08:01Z</time></trkpt><trkpt lat="45.3291789252675" lon="10.917339806997454"><ele>37.0</ele><time>2026-04-19T18:08:02Z</time></trkpt><trkpt lat="45.329436921744545" lon="10.91737393789569"><ele>37.0</ele><time>2026-04-19T18:08:03Z</time></trkpt><trkpt lat="45.32969489198259" lon="10.917402543625741"><ele>37.0</ele><time>2026-04-19T18:08:04Z</time></trkpt><trkpt lat="45.32995251256859" lon="10.917429749624866"><ele>37.5</ele><time>2026-04-19T18:08:05Z</time></trkpt><trkpt lat="45.330210604739634" lon="10.917455127950271"><ele>38.0</ele><time>2026-04-19T18:08:06Z</time></trkpt><trkpt lat="45.33046829036545" lon="10.917477101558738"><ele>39.5</ele><time>2026-04-19T18:08:07Z</time></trkpt><trkpt lat="45.33072641918011" lon="10.917500078171834"><ele>41.0</ele><time>2026-04-19T18:08:08Z</time></trkpt><trkpt lat="45.33098470421037" lon="10.917522148084872"><ele>41.0</ele><time>2026-04-19T18:08:09Z</time></trkpt><trkpt lat="45.331242959026476" lon="10.917548181704381"><ele>41.0</ele><time>2026-04-19T18:08:09.999Z</time></trkpt><trkpt lat="45.33150201277637" lon="10.917570236133221"><ele>39.0</ele><time>2026-04-19T18:08:10.999Z</time></trkpt><trkpt lat="45.331758974534715" lon="10.917595246806155"><ele>37.0</ele><time>2026-04-19T18:08:11.999Z</time></trkpt><trkpt lat="45.33201352652776" lon="10.917620732928615"><ele>36.5</ele><time>2026-04-19T18:08:12.999Z</time></trkpt><trkpt lat="45.33226730741181" lon="10.917641541528562"><ele>36.0</ele><time>2026-04-19T18:08:13.999Z</time></trkpt><trkpt lat="45.33252026502436" lon="10.917662306660812"><ele>36.0</ele><time>2026-04-19T18:08:14.999Z</time></trkpt><trkpt lat="45.33277380978762" lon="10.917684920522678"><ele>36.0</ele><time>2026-04-19T18:08:15.999Z</time></trkpt><trkpt lat="45.33302655665449" lon="10.91770603257938"><ele>36.0</ele><time>2026-04-19T18:08:16.999Z</time></trkpt><trkpt lat="45.33328062870514" lon="10.917724350256126"><ele>36.0</ele><time>2026-04-19T18:08:17.999Z</time></trkpt><trkpt lat="45.333534176147516" lon="10.917745410269976"><ele>36.0</ele><time>2026-04-19T18:08:18.999Z</time></trkpt><trkpt lat="45.333788279969276" lon="10.917770529474225"><ele>36.0</ele><time>2026-04-19T18:08:19.999Z</time></trkpt><trkpt lat="45.33404255256844" lon="10.917792653910737"><ele>36.0</ele><time>2026-04-19T18:08:20.999Z</time></trkpt><trkpt lat="45.33429636331733" lon="10.9178171790687"><ele>36.0</ele><time>2026-04-19T18:08:21.999Z</time></trkpt><trkpt lat="45.33455014673452" lon="10.917844058914163"><ele>37.0</ele><time>2026-04-19T18:08:22.999Z</time></trkpt><trkpt lat="45.33480354395925" lon="10.917868400017335"><ele>38.0</ele><time>2026-04-19T18:08:23.999Z</time></trkpt><trkpt lat="45.335056840809976" lon="10.917892625657593"><ele>38.0</ele><time>2026-04-19T18:08:24.999Z</time></trkpt><trkpt lat="45.33531017736372" lon="10.91791363466669"><ele>38.0</ele><time>2026-04-19T18:08:25.999Z</time></trkpt><trkpt lat="45.33556355808521" lon="10.917938799045993"><ele>39.5</ele><time>2026-04-19T18:08:26.999Z</time></trkpt><trkpt lat="45.3358170005759" lon="10.91796041286759"><ele>41.0</ele><time>2026-04-19T18:08:27.999Z</time></trkpt><trkpt lat="45.336071264152935" lon="10.917980002887392"><ele>41.0</ele><time>2026-04-19T18:08:28.999Z</time></trkpt><trkpt lat="45.336326220686395" lon="10.917997769887807"><ele>41.0</ele><time>2026-04-19T18:08:29.999Z</time></trkpt><trkpt lat="45.33658062888072" lon="10.918020047304054"><ele>41.0</ele><time>2026-04-19T18:08:30.999Z</time></trkpt><trkpt lat="45.33683684036432" lon="10.918039531897199"><ele>41.0</ele><time>2026-04-19T18:08:31.999Z</time></trkpt><trkpt lat="45.33708973915421" lon="10.918060463142877"><ele>39.5</ele><time>2026-04-19T18:08:32.999Z</time></trkpt><trkpt lat="45.33734213616304" lon="10.91808114233605"><ele>38.0</ele><time>2026-04-19T18:08:33.999Z</time></trkpt><trkpt lat="45.33759625193629" lon="10.918104701089167"><ele>38.0</ele><time>2026-04-19T18:08:34.999Z</time></trkpt><trkpt lat="45.33784946712123" lon="10.918131087728117"><ele>38.0</ele><time>2026-04-19T18:08:35.999Z</time></trkpt><trkpt lat="45.338102522515406" lon="10.918152203359764"><ele>38.5</ele><time>2026-04-19T18:08:36.999Z</time></trkpt><trkpt lat="45.33835606824817" lon="10.918179224839069"><ele>39.0</ele><time>2026-04-19T18:08:37.999Z</time></trkpt><trkpt lat="45.33860903230784" lon="10.918202242577724"><ele>39.0</ele><time>2026-04-19T18:08:38.999Z</time></trkpt><trkpt lat="45.33886198463399" lon="10.918226267238138"><ele>39.0</ele><time>2026-04-19T18:08:39.999Z</time></trkpt><trkpt lat="45.33911424338841" lon="10.918249522508733"><ele>38.5</ele><time>2026-04-19T18:08:40.999Z</time></trkpt><trkpt lat="45.33936789460154" lon="10.918275971859861"><ele>38.0</ele><time>2026-04-19T18:08:41.999Z</time></trkpt><trkpt lat="45.33962128729546" lon="10.918298178447692"><ele>38.0</ele><time>2026-04-19T18:08:42.999Z</time></trkpt><trkpt lat="45.33987479721611" lon="10.918319391728936"><ele>38.0</ele><time>2026-04-19T18:08:43.999Z</time></trkpt><trkpt lat="45.34012830408008" lon="10.918339216529622"><ele>38.0</ele><time>2026-04-19T18:08:44.999Z</time></trkpt><trkpt lat="45.340383104517564" lon="10.918358534196411"><ele>38.0</ele><time>2026-04-19T18:08:45.999Z</time></trkpt><trkpt lat="45.34063725564964" lon="10.918376060539954"><ele>38.5</ele><time>2026-04-19T18:08:46.999Z</time></trkpt><trkpt lat="45.340890548916654" lon="10.918397026853048"><ele>39.0</ele><time>2026-04-19T18:08:47.999Z</time></trkpt><trkpt lat="45.341144470022975" lon="10.918417318098767"><ele>39.5</ele><time>2026-04-19T18:08:48.999Z</time></trkpt><trkpt lat="45.34139813533661" lon="10.91844242235415"><ele>40.0</ele><time>2026-04-19T18:08:49.999Z</time></trkpt><trkpt lat="45.34165142463707" lon="10.918464882028307"><ele>40.0</ele><time>2026-04-19T18:08:50.999Z</time></trkpt><trkpt lat="45.34190536686435" lon="10.918484645003343"><ele>40.0</ele><time>2026-04-19T18:08:51.999Z</time></trkpt><trkpt lat="45.34215970517253" lon="10.918510432261415"><ele>40.5</ele><time>2026-04-19T18:08:52.999Z</time></trkpt><trkpt lat="45.34241376018727" lon="10.918532584160687"><ele>41.0</ele><time>2026-04-19T18:08:53.999Z</time></trkpt><trkpt lat="45.342666992875984" lon="10.918556422989194"><ele>41.0</ele><time>2026-04-19T18:08:54.999Z</time></trkpt><trkpt lat="45.34292113034823" lon="10.918576661677664"><ele>41.0</ele><time>2026-04-19T18:08:55.999Z</time></trkpt><trkpt lat="45.34317417140978" lon="10.918600963157973"><ele>41.5</ele><time>2026-04-19T18:08:56.999Z</time></trkpt><trkpt lat="45.343427975783676" lon="10.918625259524077"><ele>42.0</ele><time>2026-04-19T18:08:57.999Z</time></trkpt><trkpt lat="45.34368146351286" lon="10.918651171520578"><ele>41.5</ele><time>2026-04-19T18:08:58.999Z</time></trkpt><trkpt lat="45.343935004508786" lon="10.918680921568255"><ele>41.0</ele><time>2026-04-19T18:08:59.999Z</time></trkpt><trkpt lat="45.34418823937912" lon="10.918705851166411"><ele>41.0</ele><time>2026-04-19T18:09:00.999Z</time></trkpt><trkpt lat="45.34444122007858" lon="10.918730287348719"><ele>41.0</ele><time>2026-04-19T18:09:01.999Z</time></trkpt><trkpt lat="45.34469448169691" lon="10.918755573018768"><ele>41.0</ele><time>2026-04-19T18:09:02.999Z</time></trkpt><trkpt lat="45.34494825666798" lon="10.918780729292218"><ele>41.0</ele><time>2026-04-19T18:09:03.999Z</time></trkpt><trkpt lat="45.34520203786176" lon="10.918805006116733"><ele>41.0</ele><time>2026-04-19T18:09:04.999Z</time></trkpt><trkpt lat="45.34545540041207" lon="10.918826625605746"><ele>41.0</ele><time>2026-04-19T18:09:05.999Z</time></trkpt><trkpt lat="45.34570932262254" lon="10.918845758954097"><ele>40.5</ele><time>2026-04-19T18:09:06.999Z</time></trkpt><trkpt lat="45.34596324075498" lon="10.918867306453437"><ele>40.0</ele><time>2026-04-19T18:09:07.999Z</time></trkpt><trkpt lat="45.3462169442682" lon="10.918887718887367"><ele>41.0</ele><time>2026-04-19T18:09:08.999Z</time></trkpt><trkpt lat="45.34647123632337" lon="10.918909713293472"><ele>42.0</ele><time>2026-04-19T18:09:09.999Z</time></trkpt><trkpt lat="45.34672551098222" lon="10.918934098888966"><ele>42.0</ele><time>2026-04-19T18:09:10.999Z</time></trkpt><trkpt lat="45.34697947923817" lon="10.918958543333124"><ele>42.0</ele><time>2026-04-19T18:09:11.999Z</time></trkpt><trkpt lat="45.347233031823116" lon="10.918982821167189"><ele>41.5</ele><time>2026-04-19T18:09:12.999Z</time></trkpt><trkpt lat="45.347486289608455" lon="10.919007012742613"><ele>41.0</ele><time>2026-04-19T18:09:13.999Z</time></trkpt><trkpt lat="45.34773937261859" lon="10.919033789634078"><ele>41.0</ele><time>2026-04-19T18:09:14.999Z</time></trkpt><trkpt lat="45.34799305236651" lon="10.919061398647518"><ele>41.0</ele><time>2026-04-19T18:09:15.999Z</time></trkpt><trkpt lat="45.34824649567059" lon="10.91908963763009"><ele>41.0</ele><time>2026-04-19T18:09:16.999Z</time></trkpt><trkpt lat="45.34849955175416" lon="10.91911985809406"><ele>41.0</ele><time>2026-04-19T18:09:18Z</time></trkpt><trkpt lat="45.34875302366318" lon="10.919150147509022"><ele>41.5</ele><time>2026-04-19T18:09:19Z</time></trkpt><trkpt lat="45.34900572476739" lon="10.919181027115958"><ele>42.0</ele><time>2026-04-19T18:09:20Z</time></trkpt><trkpt lat="45.349259052353325" lon="10.919214218623315"><ele>42.0</ele><time>2026-04-19T18:09:21Z</time></trkpt><trkpt lat="45.34951177015487" lon="10.91924749472493"><ele>42.0</ele><time>2026-04-19T18:09:22Z</time></trkpt><trkpt lat="45.34976484440348" lon="10.919279980351375"><ele>41.5</ele><time>2026-04-19T18:09:23Z</time></trkpt><trkpt lat="45.35001763794936" lon="10.919315415928061"><ele>41.0</ele><time>2026-04-19T18:09:24Z</time></trkpt><trkpt lat="45.3502703485382" lon="10.919351617436568"><ele>41.0</ele><time>2026-04-19T18:09:25Z</time></trkpt><trkpt lat="45.35052397398106" lon="10.9193888912646"><ele>41.0</ele><time>2026-04-19T18:09:26Z</time></trkpt><trkpt lat="45.3507770414888" lon="10.919429353494726"><ele>42.5</ele><time>2026-04-19T18:09:27Z</time></trkpt><trkpt lat="45.351029535340835" lon="10.919470377039078"><ele>44.0</ele><time>2026-04-19T18:09:28Z</time></trkpt><trkpt lat="45.35128190293226" lon="10.919513336628208"><ele>44.5</ele><time>2026-04-19T18:09:29Z</time></trkpt><trkpt lat="45.35153473550178" lon="10.919556075341829"><ele>45.0</ele><time>2026-04-19T18:09:30Z</time></trkpt><trkpt lat="45.351786955759735" lon="10.919598105893746"><ele>45.0</ele><time>2026-04-19T18:09:31Z</time></trkpt><trkpt lat="45.35203803802489" lon="10.919638945928195"><ele>45.0</ele><time>2026-04-19T18:09:32Z</time></trkpt><trkpt lat="45.35228984746984" lon="10.91967973760277"><ele>45.0</ele><time>2026-04-19T18:09:33Z</time></trkpt><trkpt lat="45.35254210560219" lon="10.91972116333834"><ele>45.0</ele><time>2026-04-19T18:09:34Z</time></trkpt><trkpt lat="45.352793440649606" lon="10.919762856017547"><ele>44.5</ele><time>2026-04-19T18:09:35Z</time></trkpt><trkpt lat="45.35304617176996" lon="10.919802583362182"><ele>44.0</ele><time>2026-04-19T18:09:36Z</time></trkpt><trkpt lat="45.353299155204674" lon="10.919843227715184"><ele>44.0</ele><time>2026-04-19T18:09:37Z</time></trkpt><trkpt lat="45.35355173587446" lon="10.91988209712234"><ele>44.0</ele><time>2026-04-19T18:09:38Z</time></trkpt><trkpt lat="45.35380521041557" lon="10.919922777185155"><ele>44.5</ele><time>2026-04-19T18:09:39Z</time></trkpt><trkpt lat="45.354057582593974" lon="10.919964912311864"><ele>45.0</ele><time>2026-04-19T18:09:40Z</time></trkpt><trkpt lat="45.354310335789364" lon="10.920006989130918"><ele>45.0</ele><time>2026-04-19T18:09:41Z</time></trkpt><trkpt lat="45.35456316013076" lon="10.920050591900798"><ele>45.0</ele><time>2026-04-19T18:09:42Z</time></trkpt><trkpt lat="45.35481549674354" lon="10.920096099232827"><ele>45.5</ele><time>2026-04-19T18:09:43Z</time></trkpt><trkpt lat="45.355066913773875" lon="10.920139801510988"><ele>46.0</ele><time>2026-04-19T18:09:44Z</time></trkpt><trkpt lat="45.35531807142053" lon="10.920184057770324"><ele>44.5</ele><time>2026-04-19T18:09:45Z</time></trkpt><trkpt lat="45.355570588125275" lon="10.920229110311277"><ele>43.0</ele><time>2026-04-19T18:09:46Z</time></trkpt><trkpt lat="45.35582304897754" lon="10.920272555278334"><ele>43.0</ele><time>2026-04-19T18:09:47Z</time></trkpt><trkpt lat="45.356075402851154" lon="10.920316886510758"><ele>43.0</ele><time>2026-04-19T18:09:48Z</time></trkpt><trkpt lat="45.35632735355401" lon="10.920360151051407"><ele>44.0</ele><time>2026-04-19T18:09:49Z</time></trkpt><trkpt lat="45.35657916534033" lon="10.920401661455742"><ele>45.0</ele><time>2026-04-19T18:09:50Z</time></trkpt><trkpt lat="45.356831385221454" lon="10.920441707236611"><ele>45.0</ele><time>2026-04-19T18:09:51Z</time></trkpt><trkpt lat="45.357083479567244" lon="10.920480796593957"><ele>45.0</ele><time>2026-04-19T18:09:52Z</time></trkpt><trkpt lat="45.357336043075136" lon="10.920518918999768"><ele>45.5</ele><time>2026-04-19T18:09:53Z</time></trkpt><trkpt lat="45.35758878496222" lon="10.92055447474497"><ele>46.0</ele><time>2026-04-19T18:09:54Z</time></trkpt><trkpt lat="45.357842230834045" lon="10.920587525775801"><ele>46.5</ele><time>2026-04-19T18:09:55Z</time></trkpt><trkpt lat="45.35809587791932" lon="10.920618292371092"><ele>47.0</ele><time>2026-04-19T18:09:56Z</time></trkpt><trkpt lat="45.35834963434761" lon="10.92064251498776"><ele>47.0</ele><time>2026-04-19T18:09:57Z</time></trkpt><trkpt lat="45.3586036178343" lon="10.920663860362549"><ele>47.0</ele><time>2026-04-19T18:09:58Z</time></trkpt><trkpt lat="45.35885787971866" lon="10.920677798693442"><ele>46.0</ele><time>2026-04-19T18:09:59Z</time></trkpt><trkpt lat="45.35911181814845" lon="10.92068875827595"><ele>45.0</ele><time>2026-04-19T18:10:00Z</time></trkpt><trkpt lat="45.35936590580012" lon="10.92069888636387"><ele>45.0</ele><time>2026-04-19T18:10:01Z</time></trkpt><trkpt lat="45.359619255798314" lon="10.920707047754043"><ele>45.0</ele><time>2026-04-19T18:10:02Z</time></trkpt><trkpt lat="45.35987335680205" lon="10.920710654080837"><ele>46.0</ele><time>2026-04-19T18:10:03Z</time></trkpt><trkpt lat="45.360127046283864" lon="10.920709638668185"><ele>47.0</ele><time>2026-04-19T18:10:04Z</time></trkpt><trkpt lat="45.36038114908942" lon="10.92070428465347"><ele>45.5</ele><time>2026-04-19T18:10:05Z</time></trkpt><trkpt lat="45.360635691587795" lon="10.920692781199687"><ele>44.0</ele><time>2026-04-19T18:10:06Z</time></trkpt><trkpt lat="45.360889122276696" lon="10.92067324939021"><ele>44.0</ele><time>2026-04-19T18:10:07Z</time></trkpt><trkpt lat="45.36114265334033" lon="10.92064968466313"><ele>44.0</ele><time>2026-04-19T18:10:08Z</time></trkpt><trkpt lat="45.361395882741306" lon="10.920622086923125"><ele>44.5</ele><time>2026-04-19T18:10:09Z</time></trkpt><trkpt lat="45.36164944810874" lon="10.920592071855474"><ele>45.0</ele><time>2026-04-19T18:10:10Z</time></trkpt><trkpt lat="45.361902625210384" lon="10.920559799084197"><ele>45.0</ele><time>2026-04-19T18:10:11Z</time></trkpt><trkpt lat="45.36215568829692" lon="10.9205281960737"><ele>45.0</ele><time>2026-04-19T18:10:12Z</time></trkpt><trkpt lat="45.362408650930746" lon="10.92049119649208"><ele>46.0</ele><time>2026-04-19T18:10:13Z</time></trkpt><trkpt lat="45.362661253951295" lon="10.920448575405963"><ele>47.0</ele><time>2026-04-19T18:10:14Z</time></trkpt><trkpt lat="45.36291392847681" lon="10.92040210358883"><ele>48.0</ele><time>2026-04-19T18:10:15Z</time></trkpt><trkpt lat="45.36316616089183" lon="10.92035018145334"><ele>49.0</ele><time>2026-04-19T18:10:15.999Z</time></trkpt><trkpt lat="45.36341792626087" lon="10.920294731241851"><ele>49.0</ele><time>2026-04-19T18:10:16.999Z</time></trkpt><trkpt lat="45.36366962048936" lon="10.920235426558868"><ele>49.0</ele><time>2026-04-19T18:10:17.999Z</time></trkpt><trkpt lat="45.3639202969237" lon="10.920170504735543"><ele>48.5</ele><time>2026-04-19T18:10:18.999Z</time></trkpt><trkpt lat="45.36416902397634" lon="10.920100569828106"><ele>48.0</ele><time>2026-04-19T18:10:19.999Z</time></trkpt><trkpt lat="45.364418162992465" lon="10.920027352150644"><ele>48.0</ele><time>2026-04-19T18:10:20.999Z</time></trkpt><trkpt lat="45.36466594362295" lon="10.919950799979027"><ele>48.0</ele><time>2026-04-19T18:10:21.999Z</time></trkpt><trkpt lat="45.36491340624078" lon="10.919870429291466"><ele>48.5</ele><time>2026-04-19T18:10:22.999Z</time></trkpt><trkpt lat="45.36516068525153" lon="10.919788305774194"><ele>49.0</ele><time>2026-04-19T18:10:23.999Z</time></trkpt><trkpt lat="45.36540802608746" lon="10.919701339165183"><ele>48.0</ele><time>2026-04-19T18:10:24.999Z</time></trkpt><trkpt lat="45.3656541189216" lon="10.9196107873299"><ele>47.0</ele><time>2026-04-19T18:10:25.999Z</time></trkpt><trkpt lat="45.36589933603129" lon="10.91951446736599"><ele>47.0</ele><time>2026-04-19T18:10:26.999Z</time></trkpt><trkpt lat="45.36614389520348" lon="10.919415016162986"><ele>47.0</ele><time>2026-04-19T18:10:27.999Z</time></trkpt><trkpt lat="45.366388688082836" lon="10.919311487654715"><ele>47.5</ele><time>2026-04-19T18:10:28.999Z</time></trkpt><trkpt lat="45.36662986580245" lon="10.919205451255793"><ele>48.0</ele><time>2026-04-19T18:10:29.999Z</time></trkpt><trkpt lat="45.36687145185999" lon="10.919093480725017"><ele>48.0</ele><time>2026-04-19T18:10:30.999Z</time></trkpt><trkpt lat="45.367113340225465" lon="10.918979498746504"><ele>48.0</ele><time>2026-04-19T18:10:31.999Z</time></trkpt><trkpt lat="45.367351909577245" lon="10.918857306758696"><ele>48.0</ele><time>2026-04-19T18:10:32.999Z</time></trkpt><trkpt lat="45.36759246214881" lon="10.918734812826866"><ele>48.0</ele><time>2026-04-19T18:10:33.999Z</time></trkpt><trkpt lat="45.367831876643294" lon="10.918610868486512"><ele>48.5</ele><time>2026-04-19T18:10:34.999Z</time></trkpt><trkpt lat="45.36807181001137" lon="10.918489460702327"><ele>49.0</ele><time>2026-04-19T18:10:35.999Z</time></trkpt><trkpt lat="45.36831097526409" lon="10.918368487459016"><ele>49.5</ele><time>2026-04-19T18:10:36.999Z</time></trkpt><trkpt lat="45.36854988545321" lon="10.918246376721859"><ele>50.0</ele><time>2026-04-19T18:10:37.999Z</time></trkpt><trkpt lat="45.3687885231483" lon="10.918122262531508"><ele>49.0</ele><time>2026-04-19T18:10:38.999Z</time></trkpt><trkpt lat="45.369028084995286" lon="10.917999753966892"><ele>48.0</ele><time>2026-04-19T18:10:39.999Z</time></trkpt><trkpt lat="45.36926800180073" lon="10.917879184569234"><ele>48.0</ele><time>2026-04-19T18:10:40.999Z</time></trkpt><trkpt lat="45.369508169382236" lon="10.917756131231847"><ele>48.0</ele><time>2026-04-19T18:10:41.999Z</time></trkpt><trkpt lat="45.369746237152015" lon="10.91763031177059"><ele>49.0</ele><time>2026-04-19T18:10:42.999Z</time></trkpt><trkpt lat="45.36998612335818" lon="10.91750992183829"><ele>50.0</ele><time>2026-04-19T18:10:43.999Z</time></trkpt><trkpt lat="45.37022456143561" lon="10.917383446184923"><ele>50.0</ele><time>2026-04-19T18:10:44.999Z</time></trkpt><trkpt lat="45.370462357562815" lon="10.917260591266437"><ele>50.0</ele><time>2026-04-19T18:10:45.999Z</time></trkpt><trkpt lat="45.370701085511946" lon="10.917136667409276"><ele>49.5</ele><time>2026-04-19T18:10:46.999Z</time></trkpt><trkpt lat="45.37093916782264" lon="10.91701104134181"><ele>49.0</ele><time>2026-04-19T18:10:47.999Z</time></trkpt><trkpt lat="45.371178027870045" lon="10.91688866636492"><ele>50.0</ele><time>2026-04-19T18:10:48.999Z</time></trkpt><trkpt lat="45.371416879627" lon="10.916759537848744"><ele>51.0</ele><time>2026-04-19T18:10:49.999Z</time></trkpt><trkpt lat="45.37165457546429" lon="10.916632852351007"><ele>51.0</ele><time>2026-04-19T18:10:50.999Z</time></trkpt><trkpt lat="45.37189247997095" lon="10.916505839911915"><ele>51.0</ele><time>2026-04-19T18:10:51.999Z</time></trkpt><trkpt lat="45.372131896519235" lon="10.9163775596748"><ele>51.0</ele><time>2026-04-19T18:10:52.999Z</time></trkpt><trkpt lat="45.3723729882208" lon="10.916254323015343"><ele>51.0</ele><time>2026-04-19T18:10:53.999Z</time></trkpt><trkpt lat="45.37261055700883" lon="10.916132237506638"><ele>51.0</ele><time>2026-04-19T18:10:54.999Z</time></trkpt><trkpt lat="45.37284864200828" lon="10.916006638731547"><ele>51.0</ele><time>2026-04-19T18:10:55.999Z</time></trkpt><trkpt lat="45.37308714910854" lon="10.915884896803686"><ele>51.5</ele><time>2026-04-19T18:10:56.999Z</time></trkpt><trkpt lat="45.373325540494044" lon="10.915761928409749"><ele>52.0</ele><time>2026-04-19T18:10:57.999Z</time></trkpt><trkpt lat="45.37356429040451" lon="10.915637899141645"><ele>52.0</ele><time>2026-04-19T18:10:58.999Z</time></trkpt><trkpt lat="45.373805393398435" lon="10.915512740655448"><ele>52.0</ele><time>2026-04-19T18:10:59.999Z</time></trkpt><trkpt lat="45.374051501809696" lon="10.915385026347943"><ele>51.5</ele><time>2026-04-19T18:11:00.999Z</time></trkpt><trkpt lat="45.37430110283846" lon="10.915253625919346"><ele>51.0</ele><time>2026-04-19T18:11:01.999Z</time></trkpt><trkpt lat="45.374555237622054" lon="10.915121976378561"><ele>52.0</ele><time>2026-04-19T18:11:02.999Z</time></trkpt><trkpt lat="45.37481284160078" lon="10.914987651051495"><ele>53.0</ele><time>2026-04-19T18:11:03.999Z</time></trkpt><trkpt lat="45.375070521730244" lon="10.914856122094163"><ele>53.0</ele><time>2026-04-19T18:11:04.999Z</time></trkpt><trkpt lat="45.37532702558726" lon="10.914722162165372"><ele>53.0</ele><time>2026-04-19T18:11:05.999Z</time></trkpt><trkpt lat="45.37558351272393" lon="10.914590331050055"><ele>53.0</ele><time>2026-04-19T18:11:06.999Z</time></trkpt><trkpt lat="45.375839495268956" lon="10.91445977482358"><ele>53.0</ele><time>2026-04-19T18:11:07.999Z</time></trkpt><trkpt lat="45.37609394505211" lon="10.914329953316022"><ele>53.5</ele><time>2026-04-19T18:11:08.999Z</time></trkpt><trkpt lat="45.376347727638205" lon="10.914198851150537"><ele>54.0</ele><time>2026-04-19T18:11:09.999Z</time></trkpt><trkpt lat="45.37660102458626" lon="10.914068485813402"><ele>54.5</ele><time>2026-04-19T18:11:10.999Z</time></trkpt><trkpt lat="45.37685490982577" lon="10.913936811209188"><ele>55.0</ele><time>2026-04-19T18:11:11.999Z</time></trkpt><trkpt lat="45.37711043850105" lon="10.91380346492729"><ele>54.5</ele><time>2026-04-19T18:11:12.999Z</time></trkpt><trkpt lat="45.37736528680738" lon="10.913672415091192"><ele>54.0</ele><time>2026-04-19T18:11:13.999Z</time></trkpt><trkpt lat="45.377619624757536" lon="10.9135384012346"><ele>54.0</ele><time>2026-04-19T18:11:14.999Z</time></trkpt><trkpt lat="45.37787399955422" lon="10.913406807742774"><ele>54.0</ele><time>2026-04-19T18:11:15.999Z</time></trkpt><trkpt lat="45.37812865316495" lon="10.913274757679336"><ele>52.5</ele><time>2026-04-19T18:11:16.999Z</time></trkpt><trkpt lat="45.37838461854357" lon="10.913143696603967"><ele>51.0</ele><time>2026-04-19T18:11:17.999Z</time></trkpt><trkpt lat="45.37864001660776" lon="10.913011302265133"><ele>52.0</ele><time>2026-04-19T18:11:18.999Z</time></trkpt><trkpt lat="45.378895332992435" lon="10.912878896248516"><ele>53.0</ele><time>2026-04-19T18:11:19.999Z</time></trkpt><trkpt lat="45.37914940385434" lon="10.912746581181786"><ele>53.0</ele><time>2026-04-19T18:11:20.999Z</time></trkpt><trkpt lat="45.37940263709767" lon="10.912612334227013"><ele>53.0</ele><time>2026-04-19T18:11:21.999Z</time></trkpt><trkpt lat="45.37965644542191" lon="10.912478532147972"><ele>53.0</ele><time>2026-04-19T18:11:23Z</time></trkpt><trkpt lat="45.379910523699415" lon="10.912347512808706"><ele>53.0</ele><time>2026-04-19T18:11:24Z</time></trkpt><trkpt lat="45.38016388142106" lon="10.91221478607171"><ele>53.0</ele><time>2026-04-19T18:11:25Z</time></trkpt><trkpt lat="45.3804189547139" lon="10.91208405903206"><ele>53.0</ele><time>2026-04-19T18:11:26Z</time></trkpt><trkpt lat="45.3806741406864" lon="10.911953561856828"><ele>53.5</ele><time>2026-04-19T18:11:27Z</time></trkpt><trkpt lat="45.380927456412635" lon="10.911822362576817"><ele>54.0</ele><time>2026-04-19T18:11:28Z</time></trkpt><trkpt lat="45.381181684492155" lon="10.911690868846883"><ele>55.0</ele><time>2026-04-19T18:11:29Z</time></trkpt><trkpt lat="45.38143509487971" lon="10.911557360314145"><ele>56.0</ele><time>2026-04-19T18:11:30Z</time></trkpt><trkpt lat="45.381688833006855" lon="10.911426670761067"><ele>56.0</ele><time>2026-04-19T18:11:31Z</time></trkpt><trkpt lat="45.38194253497848" lon="10.911291815227203"><ele>56.0</ele><time>2026-04-19T18:11:32Z</time></trkpt><trkpt lat="45.38219693088715" lon="10.911160616203091"><ele>57.5</ele><time>2026-04-19T18:11:33Z</time></trkpt><trkpt lat="45.38245050837779" lon="10.911027509927012"><ele>59.0</ele><time>2026-04-19T18:11:34Z</time></trkpt><trkpt lat="45.382704654748814" lon="10.910892893644938"><ele>59.0</ele><time>2026-04-19T18:11:35Z</time></trkpt><trkpt lat="45.382961331960594" lon="10.910760654684564"><ele>59.0</ele><time>2026-04-19T18:11:36Z</time></trkpt><trkpt lat="45.38321529591473" lon="10.910630027243734"><ele>58.0</ele><time>2026-04-19T18:11:37Z</time></trkpt><trkpt lat="45.383470192111965" lon="10.910501514648324"><ele>57.0</ele><time>2026-04-19T18:11:38Z</time></trkpt><trkpt lat="45.383724499538985" lon="10.91037040587253"><ele>57.0</ele><time>2026-04-19T18:11:39Z</time></trkpt><trkpt lat="45.38397826672186" lon="10.91023776548547"><ele>57.0</ele><time>2026-04-19T18:11:40Z</time></trkpt><trkpt lat="45.38423101712726" lon="10.910107423582796"><ele>58.0</ele><time>2026-04-19T18:11:41Z</time></trkpt><trkpt lat="45.384484436132034" lon="10.909976766260044"><ele>59.0</ele><time>2026-04-19T18:11:42Z</time></trkpt><trkpt lat="45.38473694231997" lon="10.909849476936374"><ele>59.0</ele><time>2026-04-19T18:11:43Z</time></trkpt><trkpt lat="45.38499037294783" lon="10.909718873677637"><ele>59.0</ele><time>2026-04-19T18:11:44Z</time></trkpt><trkpt lat="45.385243661691696" lon="10.90958901854364"><ele>59.0</ele><time>2026-04-19T18:11:45Z</time></trkpt><trkpt lat="45.38549707535843" lon="10.909463115436981"><ele>59.0</ele><time>2026-04-19T18:11:46Z</time></trkpt><trkpt lat="45.385752896730274" lon="10.909337926287375"><ele>59.5</ele><time>2026-04-19T18:11:47Z</time></trkpt><trkpt lat="45.386011048149506" lon="10.90922097832777"><ele>60.0</ele><time>2026-04-19T18:11:48Z</time></trkpt><trkpt lat="45.38626967886747" lon="10.9091110797723"><ele>60.0</ele><time>2026-04-19T18:11:49Z</time></trkpt><trkpt lat="45.386532080449086" lon="10.909013870143776"><ele>60.0</ele><time>2026-04-19T18:11:50Z</time></trkpt><trkpt lat="45.386795726243015" lon="10.908926675343084"><ele>60.0</ele><time>2026-04-19T18:11:51Z</time></trkpt><trkpt lat="45.38706084641593" lon="10.908847067144993"><ele>60.0</ele><time>2026-04-19T18:11:52Z</time></trkpt><trkpt lat="45.38732668376877" lon="10.908770902758725"><ele>59.5</ele><time>2026-04-19T18:11:53Z</time></trkpt><trkpt lat="45.387593525482096" lon="10.908700664257124"><ele>59.0</ele><time>2026-04-19T18:11:54Z</time></trkpt><trkpt lat="45.38786279634911" lon="10.90863807472786"><ele>59.5</ele><time>2026-04-19T18:11:55Z</time></trkpt><trkpt lat="45.38813210674937" lon="10.908581595943257"><ele>60.0</ele><time>2026-04-19T18:11:56Z</time></trkpt><trkpt lat="45.388400002770844" lon="10.908534970645043"><ele>60.0</ele><time>2026-04-19T18:11:57Z</time></trkpt><trkpt lat="45.38867232934951" lon="10.908494902621383"><ele>60.0</ele><time>2026-04-19T18:11:58Z</time></trkpt><trkpt lat="45.38894354755284" lon="10.908460095453274"><ele>60.5</ele><time>2026-04-19T18:11:59Z</time></trkpt><trkpt lat="45.389213789105916" lon="10.908430130694114"><ele>61.0</ele><time>2026-04-19T18:12:00Z</time></trkpt><trkpt lat="45.389485293416506" lon="10.908406700676803"><ele>61.5</ele><time>2026-04-19T18:12:01Z</time></trkpt><trkpt lat="45.38975740778403" lon="10.908391485975113"><ele>62.0</ele><time>2026-04-19T18:12:02Z</time></trkpt><trkpt lat="45.390027831088034" lon="10.908386087803668"><ele>62.0</ele><time>2026-04-19T18:12:03Z</time></trkpt><trkpt lat="45.3903000635155" lon="10.90838729825792"><ele>62.0</ele><time>2026-04-19T18:12:04Z</time></trkpt><trkpt lat="45.39057101100186" lon="10.90839322885975"><ele>62.0</ele><time>2026-04-19T18:12:05Z</time></trkpt><trkpt lat="45.39084165976094" lon="10.908402583664472"><ele>62.0</ele><time>2026-04-19T18:12:06Z</time></trkpt><trkpt lat="45.391113356244006" lon="10.90842083904088"><ele>62.5</ele><time>2026-04-19T18:12:07Z</time></trkpt><trkpt lat="45.39138415241161" lon="10.908445047145115"><ele>63.0</ele><time>2026-04-19T18:12:08Z</time></trkpt><trkpt lat="45.39165404757647" lon="10.908477758122746"><ele>63.0</ele><time>2026-04-19T18:12:09Z</time></trkpt><trkpt lat="45.391924883130024" lon="10.908518066199093"><ele>63.0</ele><time>2026-04-19T18:12:10Z</time></trkpt><trkpt lat="45.3921945960759" lon="10.908565808294254"><ele>63.0</ele><time>2026-04-19T18:12:11Z</time></trkpt><trkpt lat="45.39246160291842" lon="10.908618437025218"><ele>63.0</ele><time>2026-04-19T18:12:12Z</time></trkpt><trkpt lat="45.39272817703167" lon="10.908678148568551"><ele>63.0</ele><time>2026-04-19T18:12:13Z</time></trkpt><trkpt lat="45.392994104864115" lon="10.908741160186008"><ele>63.0</ele><time>2026-04-19T18:12:14Z</time></trkpt><trkpt lat="45.39325904283091" lon="10.90881162035616"><ele>63.0</ele><time>2026-04-19T18:12:15Z</time></trkpt><trkpt lat="45.39352459366776" lon="10.90888620853985"><ele>63.0</ele><time>2026-04-19T18:12:16Z</time></trkpt><trkpt lat="45.39378780693496" lon="10.908963005447037"><ele>63.5</ele><time>2026-04-19T18:12:17Z</time></trkpt><trkpt lat="45.39405354526164" lon="10.909039457502892"><ele>64.0</ele><time>2026-04-19T18:12:18Z</time></trkpt><trkpt lat="45.39431890452999" lon="10.90911320687911"><ele>64.0</ele><time>2026-04-19T18:12:18.999Z</time></trkpt><trkpt lat="45.39458442619264" lon="10.909186945194525"><ele>64.0</ele><time>2026-04-19T18:12:19.999Z</time></trkpt><trkpt lat="45.39485025390622" lon="10.909263049082984"><ele>64.5</ele><time>2026-04-19T18:12:20.999Z</time></trkpt><trkpt lat="45.395115860854" lon="10.90933831878439"><ele>65.0</ele><time>2026-04-19T18:12:21.999Z</time></trkpt><trkpt lat="45.395382378921646" lon="10.909413877480901"><ele>65.0</ele><time>2026-04-19T18:12:22.999Z</time></trkpt><trkpt lat="45.39564701928858" lon="10.909489671521085"><ele>65.0</ele><time>2026-04-19T18:12:23.999Z</time></trkpt><trkpt lat="45.395912528283944" lon="10.909565601669163"><ele>65.0</ele><time>2026-04-19T18:12:24.999Z</time></trkpt><trkpt lat="45.3961781569654" lon="10.909638217613638"><ele>65.0</ele><time>2026-04-19T18:12:25.999Z</time></trkpt><trkpt lat="45.39644112155231" lon="10.909713502982314"><ele>66.0</ele><time>2026-04-19T18:12:26.999Z</time></trkpt><trkpt lat="45.396697947685055" lon="10.909785087916338"><ele>67.0</ele><time>2026-04-19T18:12:27.999Z</time></trkpt><trkpt lat="45.396947350815225" lon="10.90985258702208"><ele>66.5</ele><time>2026-04-19T18:12:28.999Z</time></trkpt><trkpt lat="45.397197614632496" lon="10.909921638820778"><ele>66.0</ele><time>2026-04-19T18:12:29.999Z</time></trkpt><trkpt lat="45.397450365240005" lon="10.90999178575572"><ele>66.0</ele><time>2026-04-19T18:12:30.999Z</time></trkpt><trkpt lat="45.39770789856235" lon="10.91006304939807"><ele>66.0</ele><time>2026-04-19T18:12:31.999Z</time></trkpt><trkpt lat="45.39796962562808" lon="10.910133194790273"><ele>65.5</ele><time>2026-04-19T18:12:32.999Z</time></trkpt><trkpt lat="45.39823461982738" lon="10.910206459366625"><ele>65.0</ele><time>2026-04-19T18:12:33.999Z</time></trkpt><trkpt lat="45.398502270900075" lon="10.910281239202815"><ele>65.0</ele><time>2026-04-19T18:12:34.999Z</time></trkpt><trkpt lat="45.398766747856435" lon="10.910355525081885"><ele>65.0</ele><time>2026-04-19T18:12:35.999Z</time></trkpt><trkpt lat="45.39902619056009" lon="10.910428432632362"><ele>66.0</ele><time>2026-04-19T18:12:36.999Z</time></trkpt><trkpt lat="45.39927925795185" lon="10.910497491966183"><ele>67.0</ele><time>2026-04-19T18:12:37.999Z</time></trkpt><trkpt lat="45.399527365409014" lon="10.910566923453354"><ele>66.0</ele><time>2026-04-19T18:12:38.999Z</time></trkpt><trkpt lat="45.39976888438227" lon="10.910637488957777"><ele>65.0</ele><time>2026-04-19T18:12:39.999Z</time></trkpt><trkpt lat="45.400005361437074" lon="10.91070373936916"><ele>65.0</ele><time>2026-04-19T18:12:40.999Z</time></trkpt><trkpt lat="45.40023834888674" lon="10.910771719919113"><ele>65.0</ele><time>2026-04-19T18:12:41.999Z</time></trkpt><trkpt lat="45.40047058384322" lon="10.910837563451336"><ele>64.5</ele><time>2026-04-19T18:12:42.999Z</time></trkpt><trkpt lat="45.40070242950672" lon="10.910902836356856"><ele>64.0</ele><time>2026-04-19T18:12:43.999Z</time></trkpt><trkpt lat="45.40093567295088" lon="10.910970472298322"><ele>64.0</ele><time>2026-04-19T18:12:44.999Z</time></trkpt><trkpt lat="45.40117013473087" lon="10.911037901470936"><ele>64.0</ele><time>2026-04-19T18:12:45.999Z</time></trkpt><trkpt lat="45.401405228162545" lon="10.911105654075413"><ele>63.5</ele><time>2026-04-19T18:12:46.999Z</time></trkpt><trkpt lat="45.401642773569264" lon="10.911172811814804"><ele>63.0</ele><time>2026-04-19T18:12:47.999Z</time></trkpt><trkpt lat="45.40188055663677" lon="10.911239206135217"><ele>63.0</ele><time>2026-04-19T18:12:48.999Z</time></trkpt><trkpt lat="45.40211582537247" lon="10.9113069648467"><ele>63.0</ele><time>2026-04-19T18:12:49.999Z</time></trkpt><trkpt lat="45.40235294571882" lon="10.911372099746092"><ele>64.0</ele><time>2026-04-19T18:12:50.999Z</time></trkpt><trkpt lat="45.4025878748061" lon="10.911436782462934"><ele>65.0</ele><time>2026-04-19T18:12:51.999Z</time></trkpt><trkpt lat="45.402823246028596" lon="10.9115031993783"><ele>66.0</ele><time>2026-04-19T18:12:52.999Z</time></trkpt><trkpt lat="45.40305918339143" lon="10.91156939071679"><ele>67.0</ele><time>2026-04-19T18:12:53.999Z</time></trkpt><trkpt lat="45.40329486526445" lon="10.911635611454537"><ele>67.0</ele><time>2026-04-19T18:12:54.999Z</time></trkpt><trkpt lat="45.403530286628516" lon="10.911699899598428"><ele>67.0</ele><time>2026-04-19T18:12:55.999Z</time></trkpt><trkpt lat="45.40376634584548" lon="10.911766202608389"><ele>67.0</ele><time>2026-04-19T18:12:56.999Z</time></trkpt><trkpt lat="45.404001706001736" lon="10.911832720063199"><ele>67.0</ele><time>2026-04-19T18:12:57.999Z</time></trkpt><trkpt lat="45.40423769774277" lon="10.911898245228919"><ele>67.0</ele><time>2026-04-19T18:12:58.999Z</time></trkpt><trkpt lat="45.404473326622586" lon="10.911965581540064"><ele>67.0</ele><time>2026-04-19T18:12:59.999Z</time></trkpt><trkpt lat="45.40470902403272" lon="10.912032628055199"><ele>69.0</ele><time>2026-04-19T18:13:00.999Z</time></trkpt><trkpt lat="45.404946180756596" lon="10.912100434742534"><ele>71.0</ele><time>2026-04-19T18:13:01.999Z</time></trkpt><trkpt lat="45.40518056539101" lon="10.912169568376182"><ele>71.0</ele><time>2026-04-19T18:13:02.999Z</time></trkpt><trkpt lat="45.40541682866885" lon="10.912235680499505"><ele>71.0</ele><time>2026-04-19T18:13:03.999Z</time></trkpt><trkpt lat="45.40565333585046" lon="10.912303880747192"><ele>71.5</ele><time>2026-04-19T18:13:04.999Z</time></trkpt><trkpt lat="45.40588882299262" lon="10.912369388641501"><ele>72.0</ele><time>2026-04-19T18:13:05.999Z</time></trkpt><trkpt lat="45.40612593319787" lon="10.91243469850848"><ele>72.0</ele><time>2026-04-19T18:13:06.999Z</time></trkpt><trkpt lat="45.40636168535711" lon="10.912499851667171"><ele>72.0</ele><time>2026-04-19T18:13:07.999Z</time></trkpt><trkpt lat="45.406598003153455" lon="10.91256692304032"><ele>71.0</ele><time>2026-04-19T18:13:08.999Z</time></trkpt><trkpt lat="45.40683410231306" lon="10.912634136469022"><ele>70.0</ele><time>2026-04-19T18:13:09.999Z</time></trkpt><trkpt lat="45.407070672586194" lon="10.912702183805772"><ele>72.5</ele><time>2026-04-19T18:13:10.999Z</time></trkpt><trkpt lat="45.40730730452142" lon="10.912770846362081"><ele>75.0</ele><time>2026-04-19T18:13:11.999Z</time></trkpt><trkpt lat="45.40754519220851" lon="10.912837060895301"><ele>75.0</ele><time>2026-04-19T18:13:12.999Z</time></trkpt><trkpt lat="45.40778024601242" lon="10.912902213290563"><ele>75.0</ele><time>2026-04-19T18:13:13.999Z</time></trkpt><trkpt lat="45.40801724872223" lon="10.912966868525336"><ele>72.5</ele><time>2026-04-19T18:13:14.999Z</time></trkpt><trkpt lat="45.40825384019508" lon="10.913033903897457"><ele>70.0</ele><time>2026-04-19T18:13:15.999Z</time></trkpt><trkpt lat="45.408489823827594" lon="10.913101598771998"><ele>70.0</ele><time>2026-04-19T18:13:16.999Z</time></trkpt><trkpt lat="45.408726809943836" lon="10.913170495499731"><ele>70.0</ele><time>2026-04-19T18:13:17.999Z</time></trkpt><trkpt lat="45.40896466211365" lon="10.913239095566484"><ele>69.5</ele><time>2026-04-19T18:13:18.999Z</time></trkpt><trkpt lat="45.40919933508571" lon="10.913303072769192"><ele>69.0</ele><time>2026-04-19T18:13:19.999Z</time></trkpt><trkpt lat="45.409436888788576" lon="10.913368689998334"><ele>69.5</ele><time>2026-04-19T18:13:20.999Z</time></trkpt><trkpt lat="45.4096721836486" lon="10.91343604811357"><ele>70.0</ele><time>2026-04-19T18:13:21.999Z</time></trkpt><trkpt lat="45.40990795743286" lon="10.913504116558732"><ele>70.0</ele><time>2026-04-19T18:13:22.999Z</time></trkpt><trkpt lat="45.410143187325446" lon="10.91357324147625"><ele>70.0</ele><time>2026-04-19T18:13:23.999Z</time></trkpt><trkpt lat="45.410378253559564" lon="10.913641488640828"><ele>71.0</ele><time>2026-04-19T18:13:24.999Z</time></trkpt><trkpt lat="45.41061385460418" lon="10.913708432455405"><ele>72.0</ele><time>2026-04-19T18:13:25.999Z</time></trkpt><trkpt lat="45.41084993857627" lon="10.913774406502045"><ele>72.0</ele><time>2026-04-19T18:13:26.999Z</time></trkpt><trkpt lat="45.41108652035212" lon="10.913838327371957"><ele>72.0</ele><time>2026-04-19T18:13:27.999Z</time></trkpt><trkpt lat="45.41132317857493" lon="10.913903871432852"><ele>73.0</ele><time>2026-04-19T18:13:29Z</time></trkpt><trkpt lat="45.411559789639654" lon="10.913966656590343"><ele>74.0</ele><time>2026-04-19T18:13:30Z</time></trkpt><trkpt lat="45.41179563169413" lon="10.914032553671651"><ele>74.0</ele><time>2026-04-19T18:13:31Z</time></trkpt><trkpt lat="45.41203161251431" lon="10.914098175310018"><ele>74.0</ele><time>2026-04-19T18:13:32Z</time></trkpt><trkpt lat="45.41226824542545" lon="10.914161568631837"><ele>74.0</ele><time>2026-04-19T18:13:33Z</time></trkpt><trkpt lat="45.41250558590708" lon="10.914225964363538"><ele>74.0</ele><time>2026-04-19T18:13:34Z</time></trkpt><trkpt lat="45.412743144264724" lon="10.914286396238513"><ele>73.0</ele><time>2026-04-19T18:13:35Z</time></trkpt><trkpt lat="45.41298057515181" lon="10.914341331736402"><ele>72.0</ele><time>2026-04-19T18:13:36Z</time></trkpt><trkpt lat="45.41321920304647" lon="10.914388660921642"><ele>70.5</ele><time>2026-04-19T18:13:37Z</time></trkpt><trkpt lat="45.41345853345695" lon="10.914430501745079"><ele>69.0</ele><time>2026-04-19T18:13:38Z</time></trkpt><trkpt lat="45.413696175317774" lon="10.914460653192137"><ele>69.5</ele><time>2026-04-19T18:13:39Z</time></trkpt><trkpt lat="45.413937120694165" lon="10.914490160098149"><ele>70.0</ele><time>2026-04-19T18:13:40Z</time></trkpt><trkpt lat="45.41417695591705" lon="10.914511457079124"><ele>70.0</ele><time>2026-04-19T18:13:41Z</time></trkpt><trkpt lat="45.414418772826295" lon="10.914529042169903"><ele>70.0</ele><time>2026-04-19T18:13:42Z</time></trkpt><trkpt lat="45.414656491509014" lon="10.914540222976383"><ele>72.0</ele><time>2026-04-19T18:13:43Z</time></trkpt><trkpt lat="45.414897524747424" lon="10.914540954229732"><ele>74.0</ele><time>2026-04-19T18:13:44Z</time></trkpt><trkpt lat="45.41513775670916" lon="10.91453912597381"><ele>74.0</ele><time>2026-04-19T18:13:45Z</time></trkpt><trkpt lat="45.41537933233959" lon="10.914530161045505"><ele>74.0</ele><time>2026-04-19T18:13:46Z</time></trkpt><trkpt lat="45.41561896220992" lon="10.91451815261616"><ele>74.5</ele><time>2026-04-19T18:13:47Z</time></trkpt><trkpt lat="45.415857815448845" lon="10.914496581005025"><ele>75.0</ele><time>2026-04-19T18:13:48Z</time></trkpt><trkpt lat="45.416098855435216" lon="10.914468351677533"><ele>75.0</ele><time>2026-04-19T18:13:49Z</time></trkpt><trkpt lat="45.41633991368753" lon="10.91442869658695"><ele>75.0</ele><time>2026-04-19T18:13:50Z</time></trkpt><trkpt lat="45.41657669490561" lon="10.914387332139468"><ele>75.0</ele><time>2026-04-19T18:13:51Z</time></trkpt><trkpt lat="45.41681469529337" lon="10.91433894412633"><ele>75.0</ele><time>2026-04-19T18:13:52Z</time></trkpt><trkpt lat="45.417052115086385" lon="10.914283506691932"><ele>74.5</ele><time>2026-04-19T18:13:53Z</time></trkpt><trkpt lat="45.41728904848813" lon="10.914219397492811"><ele>74.0</ele><time>2026-04-19T18:13:54Z</time></trkpt><trkpt lat="45.41752447121202" lon="10.914151250205316"><ele>74.0</ele><time>2026-04-19T18:13:55Z</time></trkpt><trkpt lat="45.41775918407324" lon="10.914076346899261"><ele>74.0</ele><time>2026-04-19T18:13:56Z</time></trkpt><trkpt lat="45.41799634565656" lon="10.91399493385422"><ele>74.0</ele><time>2026-04-19T18:13:57Z</time></trkpt><trkpt lat="45.41823743509716" lon="10.913909364586269"><ele>74.0</ele><time>2026-04-19T18:13:58Z</time></trkpt><trkpt lat="45.418481233677056" lon="10.913811566787524"><ele>74.0</ele><time>2026-04-19T18:13:59Z</time></trkpt><trkpt lat="45.418726186172556" lon="10.913705598757184"><ele>74.0</ele><time>2026-04-19T18:14:00Z</time></trkpt><trkpt lat="45.418971049408974" lon="10.913596010204644"><ele>73.5</ele><time>2026-04-19T18:14:01Z</time></trkpt><trkpt lat="45.41921588874366" lon="10.913483480955968"><ele>73.0</ele><time>2026-04-19T18:14:02Z</time></trkpt><trkpt lat="45.41945974457178" lon="10.913371712636273"><ele>73.0</ele><time>2026-04-19T18:14:03Z</time></trkpt><trkpt lat="45.41970134277791" lon="10.913257852551935"><ele>73.0</ele><time>2026-04-19T18:14:04Z</time></trkpt><trkpt lat="45.41994213064274" lon="10.913144278015839"><ele>73.0</ele><time>2026-04-19T18:14:05Z</time></trkpt><trkpt lat="45.42018249653406" lon="10.913030796747936"><ele>73.0</ele><time>2026-04-19T18:14:06Z</time></trkpt><trkpt lat="45.42042218682916" lon="10.912913125488153"><ele>74.0</ele><time>2026-04-19T18:14:07Z</time></trkpt><trkpt lat="45.42066177664616" lon="10.912793556137373"><ele>75.0</ele><time>2026-04-19T18:14:08Z</time></trkpt><trkpt lat="45.42090107895123" lon="10.912673533330663"><ele>74.5</ele><time>2026-04-19T18:14:09Z</time></trkpt><trkpt lat="45.42114101450955" lon="10.912556150134373"><ele>74.0</ele><time>2026-04-19T18:14:10Z</time></trkpt><trkpt lat="45.42138137487133" lon="10.912441940404177"><ele>74.0</ele><time>2026-04-19T18:14:11Z</time></trkpt><trkpt lat="45.42162077375208" lon="10.912327926782133"><ele>74.0</ele><time>2026-04-19T18:14:12Z</time></trkpt><trkpt lat="45.4218607712706" lon="10.912214032049908"><ele>74.0</ele><time>2026-04-19T18:14:13Z</time></trkpt><trkpt lat="45.422101161333146" lon="10.912099437636801"><ele>74.0</ele><time>2026-04-19T18:14:14Z</time></trkpt><trkpt lat="45.4223415161249" lon="10.911984687015991"><ele>73.0</ele><time>2026-04-19T18:14:15Z</time></trkpt><trkpt lat="45.4225816656931" lon="10.91186865765588"><ele>72.0</ele><time>2026-04-19T18:14:16Z</time></trkpt><trkpt lat="45.42282182961492" lon="10.911751243458525"><ele>74.5</ele><time>2026-04-19T18:14:17Z</time></trkpt><trkpt lat="45.423062399942424" lon="10.91163336874813"><ele>77.0</ele><time>2026-04-19T18:14:18Z</time></trkpt><trkpt lat="45.42330254839818" lon="10.911513130558182"><ele>77.0</ele><time>2026-04-19T18:14:19Z</time></trkpt><trkpt lat="45.42354190261593" lon="10.911395675219042"><ele>77.0</ele><time>2026-04-19T18:14:20Z</time></trkpt><trkpt lat="45.42378183967051" lon="10.911282193421302"><ele>77.0</ele><time>2026-04-19T18:14:21Z</time></trkpt><trkpt lat="45.42402324630469" lon="10.911167858268547"><ele>77.0</ele><time>2026-04-19T18:14:22Z</time></trkpt><trkpt lat="45.42426401369619" lon="10.911053589114616"><ele>77.0</ele><time>2026-04-19T18:14:23Z</time></trkpt><trkpt lat="45.42450479089797" lon="10.910938092298727"><ele>77.0</ele><time>2026-04-19T18:14:24Z</time></trkpt><trkpt lat="45.42474542686837" lon="10.91082122474087"><ele>81.5</ele><time>2026-04-19T18:14:25Z</time></trkpt><trkpt lat="45.42498619162875" lon="10.910705015300188"><ele>86.0</ele><time>2026-04-19T18:14:26Z</time></trkpt><trkpt lat="45.4252257964205" lon="10.910589227660296"><ele>86.0</ele><time>2026-04-19T18:14:27Z</time></trkpt><trkpt lat="45.4254655745431" lon="10.910470165421659"><ele>86.0</ele><time>2026-04-19T18:14:28Z</time></trkpt><trkpt lat="45.4257054910871" lon="10.910351960296296"><ele>84.5</ele><time>2026-04-19T18:14:29Z</time></trkpt><trkpt lat="45.42594547919497" lon="10.910233365252482"><ele>83.0</ele><time>2026-04-19T18:14:30Z</time></trkpt><trkpt lat="45.42618501242081" lon="10.910113843849548"><ele>84.0</ele><time>2026-04-19T18:14:31Z</time></trkpt><trkpt lat="45.42642452684161" lon="10.909994083545843"><ele>85.0</ele><time>2026-04-19T18:14:31.999Z</time></trkpt><trkpt lat="45.42666520637923" lon="10.90987752813222"><ele>85.0</ele><time>2026-04-19T18:14:32.999Z</time></trkpt><trkpt lat="45.42690639451178" lon="10.909760282076173"><ele>85.0</ele><time>2026-04-19T18:14:33.999Z</time></trkpt><trkpt lat="45.42714703977139" lon="10.909642832168059"><ele>84.0</ele><time>2026-04-19T18:14:34.999Z</time></trkpt><trkpt lat="45.42738837870973" lon="10.909525848640884"><ele>83.0</ele><time>2026-04-19T18:14:35.999Z</time></trkpt><trkpt lat="45.427630106441114" lon="10.909407380930084"><ele>83.0</ele><time>2026-04-19T18:14:36.999Z</time></trkpt><trkpt lat="45.42787299147222" lon="10.909289013332543"><ele>83.0</ele><time>2026-04-19T18:14:37.999Z</time></trkpt><trkpt lat="45.428112886864625" lon="10.9091714250913"><ele>82.5</ele><time>2026-04-19T18:14:38.999Z</time></trkpt><trkpt lat="45.428353717621555" lon="10.909053554624377"><ele>82.0</ele><time>2026-04-19T18:14:39.999Z</time></trkpt><trkpt lat="45.42859381812694" lon="10.908936180063005"><ele>82.0</ele><time>2026-04-19T18:14:40.999Z</time></trkpt><trkpt lat="45.42883436820264" lon="10.908818160982658"><ele>82.0</ele><time>2026-04-19T18:14:41.999Z</time></trkpt><trkpt lat="45.429074248814146" lon="10.908699708406663"><ele>82.0</ele><time>2026-04-19T18:14:42.999Z</time></trkpt><trkpt lat="45.42931518505285" lon="10.908582466097423"><ele>82.0</ele><time>2026-04-19T18:14:43.999Z</time></trkpt><trkpt lat="45.429555569702345" lon="10.908465228141766"><ele>82.5</ele><time>2026-04-19T18:14:44.999Z</time></trkpt><trkpt lat="45.429795491959005" lon="10.908347320401333"><ele>83.0</ele><time>2026-04-19T18:14:45.999Z</time></trkpt><trkpt lat="45.430035761890004" lon="10.908229287081898"><ele>83.0</ele><time>2026-04-19T18:14:46.999Z</time></trkpt><trkpt lat="45.43027586966275" lon="10.908111006741866"><ele>83.0</ele><time>2026-04-19T18:14:47.999Z</time></trkpt><trkpt lat="45.430514169579546" lon="10.90799045318622"><ele>84.0</ele><time>2026-04-19T18:14:48.999Z</time></trkpt><trkpt lat="45.430752990194655" lon="10.907867713072315"><ele>85.0</ele><time>2026-04-19T18:14:49.999Z</time></trkpt><trkpt lat="45.43099149868114" lon="10.907742050597452"><ele>85.0</ele><time>2026-04-19T18:14:50.999Z</time></trkpt><trkpt lat="45.431228838093794" lon="10.907611727298384"><ele>85.0</ele><time>2026-04-19T18:14:51.999Z</time></trkpt><trkpt lat="45.431464147980705" lon="10.907475139814718"><ele>83.5</ele><time>2026-04-19T18:14:52.999Z</time></trkpt><trkpt lat="45.43169718014684" lon="10.907332675758067"><ele>82.0</ele><time>2026-04-19T18:14:53.999Z</time></trkpt><trkpt lat="45.43192646160006" lon="10.907185482493013"><ele>84.0</ele><time>2026-04-19T18:14:54.999Z</time></trkpt><trkpt lat="45.43215592908607" lon="10.907032530383274"><ele>86.0</ele><time>2026-04-19T18:14:55.999Z</time></trkpt><trkpt lat="45.43238342066651" lon="10.906874627330645"><ele>86.0</ele><time>2026-04-19T18:14:56.999Z</time></trkpt><trkpt lat="45.432609667046385" lon="10.906714283222373"><ele>86.0</ele><time>2026-04-19T18:14:57.999Z</time></trkpt><trkpt lat="45.432834409242744" lon="10.906549784590906"><ele>87.0</ele><time>2026-04-19T18:14:58.999Z</time></trkpt><trkpt lat="45.43305814658671" lon="10.906380356477607"><ele>88.0</ele><time>2026-04-19T18:14:59.999Z</time></trkpt><trkpt lat="45.43327798958929" lon="10.90620861859959"><ele>88.0</ele><time>2026-04-19T18:15:00.999Z</time></trkpt><trkpt lat="45.433498193765864" lon="10.90603148047154"><ele>88.0</ele><time>2026-04-19T18:15:01.999Z</time></trkpt><trkpt lat="45.43371676135841" lon="10.905849190556749"><ele>89.5</ele><time>2026-04-19T18:15:02.999Z</time></trkpt><trkpt lat="45.43393316367789" lon="10.905661748288079"><ele>91.0</ele><time>2026-04-19T18:15:03.999Z</time></trkpt><trkpt lat="45.434148427777664" lon="10.905470102925948"><ele>91.0</ele><time>2026-04-19T18:15:04.999Z</time></trkpt><trkpt lat="45.434362374664964" lon="10.905273644522522"><ele>91.0</ele><time>2026-04-19T18:15:05.999Z</time></trkpt><trkpt lat="45.43457388722179" lon="10.905074237025724"><ele>90.5</ele><time>2026-04-19T18:15:06.999Z</time></trkpt><trkpt lat="45.43478341609784" lon="10.904869910875744"><ele>90.0</ele><time>2026-04-19T18:15:07.999Z</time></trkpt><trkpt lat="45.43499243325312" lon="10.90466139367876"><ele>90.0</ele><time>2026-04-19T18:15:08.999Z</time></trkpt><trkpt lat="45.43519777952727" lon="10.904449363464755"><ele>90.0</ele><time>2026-04-19T18:15:09.999Z</time></trkpt><trkpt lat="45.43540276760296" lon="10.90423189651083"><ele>91.0</ele><time>2026-04-19T18:15:10.999Z</time></trkpt><trkpt lat="45.43560381538761" lon="10.9040099438711"><ele>92.0</ele><time>2026-04-19T18:15:11.999Z</time></trkpt><trkpt lat="45.435801928204896" lon="10.903783182213587"><ele>92.0</ele><time>2026-04-19T18:15:12.999Z</time></trkpt><trkpt lat="45.43599838916884" lon="10.903553939383048"><ele>92.0</ele><time>2026-04-19T18:15:13.999Z</time></trkpt><trkpt lat="45.436192574420566" lon="10.903319366799636"><ele>90.5</ele><time>2026-04-19T18:15:14.999Z</time></trkpt><trkpt lat="45.43638353594705" lon="10.9030810335452"><ele>89.0</ele><time>2026-04-19T18:15:15.999Z</time></trkpt><trkpt lat="45.43657218860921" lon="10.902838717104444"><ele>89.0</ele><time>2026-04-19T18:15:16.999Z</time></trkpt><trkpt lat="45.436758894715425" lon="10.90259270141162"><ele>89.0</ele><time>2026-04-19T18:15:17.999Z</time></trkpt><trkpt lat="45.43694335246194" lon="10.902344733572694"><ele>89.0</ele><time>2026-04-19T18:15:18.999Z</time></trkpt><trkpt lat="45.437126579331064" lon="10.902094736438148"><ele>89.0</ele><time>2026-04-19T18:15:19.999Z</time></trkpt><trkpt lat="45.43730873661448" lon="10.901842176327994"><ele>90.0</ele><time>2026-04-19T18:15:20.999Z</time></trkpt><trkpt lat="45.43748978213194" lon="10.901589004586436"><ele>91.0</ele><time>2026-04-19T18:15:21.999Z</time></trkpt><trkpt lat="45.43766860992376" lon="10.901331929292562"><ele>91.0</ele><time>2026-04-19T18:15:22.999Z</time></trkpt><trkpt lat="45.4378462568725" lon="10.901073777001319"><ele>91.0</ele><time>2026-04-19T18:15:23.999Z</time></trkpt><trkpt lat="45.43802171196301" lon="10.900812587299392"><ele>90.5</ele><time>2026-04-19T18:15:24.999Z</time></trkpt><trkpt lat="45.438195681365" lon="10.900551083159009"><ele>90.0</ele><time>2026-04-19T18:15:25.999Z</time></trkpt><trkpt lat="45.438370444588074" lon="10.900288492742643"><ele>90.5</ele><time>2026-04-19T18:15:26.999Z</time></trkpt><trkpt lat="45.438544764447464" lon="10.900027036062964"><ele>91.0</ele><time>2026-04-19T18:15:27.999Z</time></trkpt><trkpt lat="45.43871869507165" lon="10.899764684600786"><ele>91.5</ele><time>2026-04-19T18:15:28.999Z</time></trkpt><trkpt lat="45.43889240962697" lon="10.899503817744955"><ele>92.0</ele><time>2026-04-19T18:15:29.999Z</time></trkpt><trkpt lat="45.439067177090415" lon="10.899242422874455"><ele>92.0</ele><time>2026-04-19T18:15:30.999Z</time></trkpt><trkpt lat="45.4392412057731" lon="10.898979698294578"><ele>92.0</ele><time>2026-04-19T18:15:31.999Z</time></trkpt><trkpt lat="45.43941621002269" lon="10.898720376614987"><ele>92.0</ele><time>2026-04-19T18:15:32.999Z</time></trkpt><trkpt lat="45.439593463362925" lon="10.898464437033459"><ele>92.0</ele><time>2026-04-19T18:15:33.999Z</time></trkpt><trkpt lat="45.43976925254391" lon="10.898206137836228"><ele>91.5</ele><time>2026-04-19T18:15:35Z</time></trkpt><trkpt lat="45.43994658583566" lon="10.897947478105378"><ele>91.0</ele><time>2026-04-19T18:15:36Z</time></trkpt><trkpt lat="45.44012184000944" lon="10.897687434208454"><ele>91.0</ele><time>2026-04-19T18:15:37Z</time></trkpt><trkpt lat="45.44029640493461" lon="10.897423290672018"><ele>91.0</ele><time>2026-04-19T18:15:38Z</time></trkpt><trkpt lat="45.440471184244146" lon="10.89716129012957"><ele>91.0</ele><time>2026-04-19T18:15:39Z</time></trkpt><trkpt lat="45.440646151284184" lon="10.89689881223648"><ele>91.0</ele><time>2026-04-19T18:15:40Z</time></trkpt><trkpt lat="45.440820933694965" lon="10.896638003598099"><ele>91.0</ele><time>2026-04-19T18:15:41Z</time></trkpt><trkpt lat="45.44099584198453" lon="10.896376769500494"><ele>91.0</ele><time>2026-04-19T18:15:42Z</time></trkpt><trkpt lat="45.44117179587431" lon="10.896116094041862"><ele>91.0</ele><time>2026-04-19T18:15:43Z</time></trkpt><trkpt lat="45.441348154020446" lon="10.895856827289622"><ele>91.0</ele><time>2026-04-19T18:15:44Z</time></trkpt><trkpt lat="45.441524490896505" lon="10.89559663033382"><ele>91.0</ele><time>2026-04-19T18:15:45Z</time></trkpt><trkpt lat="45.44170193062678" lon="10.895338797413896"><ele>91.0</ele><time>2026-04-19T18:15:46Z</time></trkpt><trkpt lat="45.441879069952115" lon="10.895078042040431"><ele>90.5</ele><time>2026-04-19T18:15:47Z</time></trkpt><trkpt lat="45.44205383550195" lon="10.894819021425109"><ele>90.0</ele><time>2026-04-19T18:15:48Z</time></trkpt><trkpt lat="45.44223088564529" lon="10.894558986122854"><ele>90.0</ele><time>2026-04-19T18:15:49Z</time></trkpt><trkpt lat="45.442406577726764" lon="10.894299343744825"><ele>90.0</ele><time>2026-04-19T18:15:50Z</time></trkpt><trkpt lat="45.44258206305129" lon="10.89403842700189"><ele>90.0</ele><time>2026-04-19T18:15:51Z</time></trkpt><trkpt lat="45.44275523760012" lon="10.893774821563776"><ele>90.0</ele><time>2026-04-19T18:15:52Z</time></trkpt><trkpt lat="45.44293043211376" lon="10.893511890985708"><ele>90.0</ele><time>2026-04-19T18:15:53Z</time></trkpt><trkpt lat="45.44310686398263" lon="10.893251910378613"><ele>90.0</ele><time>2026-04-19T18:15:54Z</time></trkpt><trkpt lat="45.44328192029834" lon="10.892991116356624"><ele>90.0</ele><time>2026-04-19T18:15:55Z</time></trkpt><trkpt lat="45.443457285071865" lon="10.892729931201647"><ele>90.0</ele><time>2026-04-19T18:15:56Z</time></trkpt><trkpt lat="45.44363245746877" lon="10.892468672795887"><ele>91.0</ele><time>2026-04-19T18:15:57Z</time></trkpt><trkpt lat="45.44380981468473" lon="10.892209634186845"><ele>92.0</ele><time>2026-04-19T18:15:58Z</time></trkpt><trkpt lat="45.44398697464991" lon="10.891951927634278"><ele>92.0</ele><time>2026-04-19T18:15:59Z</time></trkpt><trkpt lat="45.44416248110737" lon="10.891688842955562"><ele>92.0</ele><time>2026-04-19T18:16:00Z</time></trkpt><trkpt lat="45.44433846962489" lon="10.891427901002146"><ele>92.0</ele><time>2026-04-19T18:16:01Z</time></trkpt><trkpt lat="45.444513884634205" lon="10.89116751380822"><ele>92.0</ele><time>2026-04-19T18:16:02Z</time></trkpt><trkpt lat="45.444689626939464" lon="10.890906797758388"><ele>92.5</ele><time>2026-04-19T18:16:03Z</time></trkpt><trkpt lat="45.44486666771842" lon="10.890647505484198"><ele>93.0</ele><time>2026-04-19T18:16:04Z</time></trkpt><trkpt lat="45.44503804813419" lon="10.890380429791398"><ele>93.0</ele><time>2026-04-19T18:16:05Z</time></trkpt><trkpt lat="45.44521239735559" lon="10.890118557543946"><ele>93.0</ele><time>2026-04-19T18:16:06Z</time></trkpt><trkpt lat="45.445384415112066" lon="10.889853360996275"><ele>93.5</ele><time>2026-04-19T18:16:07Z</time></trkpt><trkpt lat="45.44555829738197" lon="10.889591640140882"><ele>94.0</ele><time>2026-04-19T18:16:08Z</time></trkpt><trkpt lat="45.44573432183251" lon="10.889330092673141"><ele>93.5</ele><time>2026-04-19T18:16:09Z</time></trkpt><trkpt lat="45.44591030063716" lon="10.88906996220198"><ele>93.0</ele><time>2026-04-19T18:16:10Z</time></trkpt><trkpt lat="45.446087583886076" lon="10.888808841323545"><ele>93.0</ele><time>2026-04-19T18:16:11Z</time></trkpt><trkpt lat="45.4462623671114" lon="10.888545299182372"><ele>93.0</ele><time>2026-04-19T18:16:12Z</time></trkpt><trkpt lat="45.446435271879245" lon="10.888282773848898"><ele>94.0</ele><time>2026-04-19T18:16:13Z</time></trkpt><trkpt lat="45.446609083374554" lon="10.88801755054035"><ele>95.0</ele><time>2026-04-19T18:16:14Z</time></trkpt><trkpt lat="45.44678185878536" lon="10.887750586774272"><ele>95.0</ele><time>2026-04-19T18:16:15Z</time></trkpt><trkpt lat="45.446951057429644" lon="10.887479629970047"><ele>95.0</ele><time>2026-04-19T18:16:16Z</time></trkpt><trkpt lat="45.44711827699049" lon="10.887208910256502"><ele>95.0</ele><time>2026-04-19T18:16:17Z</time></trkpt><trkpt lat="45.44728337341567" lon="10.886935156168379"><ele>95.0</ele><time>2026-04-19T18:16:18Z</time></trkpt><trkpt lat="45.44744338522585" lon="10.886657150768952"><ele>95.0</ele><time>2026-04-19T18:16:19Z</time></trkpt><trkpt lat="45.44759849086139" lon="10.886375115629479"><ele>95.0</ele><time>2026-04-19T18:16:20Z</time></trkpt><trkpt lat="45.44775282112086" lon="10.88609024498675"><ele>95.0</ele><time>2026-04-19T18:16:20.999Z</time></trkpt><trkpt lat="45.44790374416443" lon="10.885800716351952"><ele>95.0</ele><time>2026-04-19T18:16:21.999Z</time></trkpt><trkpt lat="45.4480516331994" lon="10.885508095391227"><ele>96.0</ele><time>2026-04-19T18:16:22.999Z</time></trkpt><trkpt lat="45.44819690514633" lon="10.885211677406224"><ele>97.0</ele><time>2026-04-19T18:16:23.999Z</time></trkpt><trkpt lat="45.44833796476942" lon="10.884910811006668"><ele>97.0</ele><time>2026-04-19T18:16:24.999Z</time></trkpt><trkpt lat="45.44847448408499" lon="10.884605684957414"><ele>97.0</ele><time>2026-04-19T18:16:25.999Z</time></trkpt><trkpt lat="45.448607119476826" lon="10.884297423000822"><ele>97.0</ele><time>2026-04-19T18:16:26.999Z</time></trkpt><trkpt lat="45.44873609066041" lon="10.883986369474062"><ele>97.0</ele><time>2026-04-19T18:16:27.999Z</time></trkpt><trkpt lat="45.44886016336186" lon="10.883671010774815"><ele>95.5</ele><time>2026-04-19T18:16:28.999Z</time></trkpt><trkpt lat="45.448980405654275" lon="10.883352281391584"><ele>94.0</ele><time>2026-04-19T18:16:29.999Z</time></trkpt><trkpt lat="45.44909564251972" lon="10.883031284118127"><ele>94.0</ele><time>2026-04-19T18:16:30.999Z</time></trkpt><trkpt lat="45.449205823438234" lon="10.88270629320069"><ele>94.0</ele><time>2026-04-19T18:16:31.999Z</time></trkpt><trkpt lat="45.44931131857862" lon="10.882378035675355"><ele>94.0</ele><time>2026-04-19T18:16:32.999Z</time></trkpt><trkpt lat="45.449413599130246" lon="10.88204835258191"><ele>94.0</ele><time>2026-04-19T18:16:33.999Z</time></trkpt><trkpt lat="45.449511037142265" lon="10.881714564738449"><ele>94.5</ele><time>2026-04-19T18:16:34.999Z</time></trkpt><trkpt lat="45.44960663565748" lon="10.881380242448444"><ele>95.0</ele><time>2026-04-19T18:16:35.999Z</time></trkpt><trkpt lat="45.4496982175243" lon="10.88104354063058"><ele>98.0</ele><time>2026-04-19T18:16:36.999Z</time></trkpt><trkpt lat="45.4497881321041" lon="10.880706079119195"><ele>101.0</ele><time>2026-04-19T18:16:37.999Z</time></trkpt><trkpt lat="45.44987541683859" lon="10.880367271371616"><ele>100.5</ele><time>2026-04-19T18:16:38.999Z</time></trkpt><trkpt lat="45.44996050393265" lon="10.880026400806699"><ele>100.0</ele><time>2026-04-19T18:16:39.999Z</time></trkpt><trkpt lat="45.4500437886451" lon="10.879685398804801"><ele>100.0</ele><time>2026-04-19T18:16:40.999Z</time></trkpt><trkpt lat="45.450127698205115" lon="10.879345559560852"><ele>100.0</ele><time>2026-04-19T18:16:41.999Z</time></trkpt><trkpt lat="45.450209992739616" lon="10.879004198675528"><ele>99.5</ele><time>2026-04-19T18:16:42.999Z</time></trkpt><trkpt lat="45.450290876885234" lon="10.878661805616186"><ele>99.0</ele><time>2026-04-19T18:16:43.999Z</time></trkpt><trkpt lat="45.45037089403937" lon="10.8783194451129"><ele>99.0</ele><time>2026-04-19T18:16:44.999Z</time></trkpt><trkpt lat="45.45045051740005" lon="10.877977358240138"><ele>99.0</ele><time>2026-04-19T18:16:45.999Z</time></trkpt><trkpt lat="45.450530626251236" lon="10.877635021995857"><ele>101.0</ele><time>2026-04-19T18:16:46.999Z</time></trkpt><trkpt lat="45.45061156460812" lon="10.87729232035373"><ele>103.0</ele><time>2026-04-19T18:16:47.999Z</time></trkpt><trkpt lat="45.45069221741947" lon="10.876949829205094"><ele>103.0</ele><time>2026-04-19T18:16:48.999Z</time></trkpt><trkpt lat="45.45077097596927" lon="10.876607742233725"><ele>103.0</ele><time>2026-04-19T18:16:49.999Z</time></trkpt><trkpt lat="45.45085150842587" lon="10.876265545865426"><ele>102.0</ele><time>2026-04-19T18:16:50.999Z</time></trkpt><trkpt lat="45.45093104923227" lon="10.8759223524855"><ele>101.0</ele><time>2026-04-19T18:16:51.999Z</time></trkpt><trkpt lat="45.45101112398772" lon="10.875580924022351"><ele>101.0</ele><time>2026-04-19T18:16:52.999Z</time></trkpt><trkpt lat="45.451091014245954" lon="10.875239598183727"><ele>101.0</ele><time>2026-04-19T18:16:53.999Z</time></trkpt><trkpt lat="45.4511718785448" lon="10.874898204318333"><ele>101.5</ele><time>2026-04-19T18:16:54.999Z</time></trkpt><trkpt lat="45.451255289292526" lon="10.874557515313356"><ele>102.0</ele><time>2026-04-19T18:16:55.999Z</time></trkpt><trkpt lat="45.45133895566014" lon="10.874216551011612"><ele>102.5</ele><time>2026-04-19T18:16:56.999Z</time></trkpt><trkpt lat="45.45142448943103" lon="10.873876277004301"><ele>103.0</ele><time>2026-04-19T18:16:57.999Z</time></trkpt><trkpt lat="45.45151175276224" lon="10.873538109054136"><ele>103.5</ele><time>2026-04-19T18:16:58.999Z</time></trkpt><trkpt lat="45.4515993053814" lon="10.873199122174892"><ele>104.0</ele><time>2026-04-19T18:16:59.999Z</time></trkpt><trkpt lat="45.451688355844055" lon="10.872859704496848"><ele>104.0</ele><time>2026-04-19T18:17:00.999Z</time></trkpt><trkpt lat="45.45177371426421" lon="10.872519247662414"><ele>104.0</ele><time>2026-04-19T18:17:01.999Z</time></trkpt><trkpt lat="45.45185733499685" lon="10.872177460820481"><ele>104.0</ele><time>2026-04-19T18:17:02.999Z</time></trkpt><trkpt lat="45.45193571049905" lon="10.871833897954463"><ele>104.0</ele><time>2026-04-19T18:17:03.999Z</time></trkpt><trkpt lat="45.45201451224016" lon="10.87149129502383"><ele>104.0</ele><time>2026-04-19T18:17:04.999Z</time></trkpt><trkpt lat="45.452092764438014" lon="10.871147820720012"><ele>104.0</ele><time>2026-04-19T18:17:05.999Z</time></trkpt><trkpt lat="45.4521721690506" lon="10.87080560257157"><ele>104.0</ele><time>2026-04-19T18:17:06.999Z</time></trkpt><trkpt lat="45.452250811051435" lon="10.87046169462479"><ele>104.0</ele><time>2026-04-19T18:17:07.999Z</time></trkpt><trkpt lat="45.45233044162109" lon="10.870119408995059"><ele>103.5</ele><time>2026-04-19T18:17:08.999Z</time></trkpt><trkpt lat="45.45241029653544" lon="10.869777225680842"><ele>103.0</ele><time>2026-04-19T18:17:09.999Z</time></trkpt><trkpt lat="45.45249155277756" lon="10.869434935791148"><ele>103.0</ele><time>2026-04-19T18:17:10.999Z</time></trkpt><trkpt lat="45.45257333621765" lon="10.869094607453523"><ele>103.0</ele><time>2026-04-19T18:17:11.999Z</time></trkpt><trkpt lat="45.452655320609445" lon="10.86875219432901"><ele>103.0</ele><time>2026-04-19T18:17:12.999Z</time></trkpt><trkpt lat="45.4527351603134" lon="10.86841085678402"><ele>103.0</ele><time>2026-04-19T18:17:13.999Z</time></trkpt><trkpt lat="45.452815017779116" lon="10.868068343109766"><ele>103.0</ele><time>2026-04-19T18:17:14.999Z</time></trkpt><trkpt lat="45.45289313018428" lon="10.867724498001996"><ele>103.0</ele><time>2026-04-19T18:17:15.999Z</time></trkpt><trkpt lat="45.452968712181686" lon="10.867378991011938"><ele>103.5</ele><time>2026-04-19T18:17:16.999Z</time></trkpt><trkpt lat="45.45304195022459" lon="10.867033590311236"><ele>104.0</ele><time>2026-04-19T18:17:17.999Z</time></trkpt><trkpt lat="45.4531130056201" lon="10.866688057701401"><ele>104.0</ele><time>2026-04-19T18:17:18.999Z</time></trkpt><trkpt lat="45.45318264046062" lon="10.86633885955312"><ele>104.0</ele><time>2026-04-19T18:17:19.999Z</time></trkpt><trkpt lat="45.45324932647229" lon="10.86599101925969"><ele>103.0</ele><time>2026-04-19T18:17:20.999Z</time></trkpt><trkpt lat="45.45331524190452" lon="10.8656423654432"><ele>102.0</ele><time>2026-04-19T18:17:21.999Z</time></trkpt><trkpt lat="45.45337949546322" lon="10.865292495741418"><ele>102.5</ele><time>2026-04-19T18:17:22.999Z</time></trkpt><trkpt lat="45.453445147953246" lon="10.864944821705206"><ele>103.0</ele><time>2026-04-19T18:17:23.999Z</time></trkpt><trkpt lat="45.45351048607457" lon="10.864597012721278"><ele>104.0</ele><time>2026-04-19T18:17:24.999Z</time></trkpt><trkpt lat="45.45357675184711" lon="10.864249032983965"><ele>105.0</ele><time>2026-04-19T18:17:25.999Z</time></trkpt><trkpt lat="45.453642999626325" lon="10.863899977692565"><ele>105.0</ele><time>2026-04-19T18:17:26.999Z</time></trkpt><trkpt lat="45.453710206107026" lon="10.863551200878096"><ele>105.0</ele><time>2026-04-19T18:17:27.999Z</time></trkpt><trkpt lat="45.45377672987813" lon="10.863203215679338"><ele>105.5</ele><time>2026-04-19T18:17:28.999Z</time></trkpt><trkpt lat="45.45384357686924" lon="10.862853450060326"><ele>106.0</ele><time>2026-04-19T18:17:29.999Z</time></trkpt><trkpt lat="45.45390971486148" lon="10.862504869213176"><ele>107.0</ele><time>2026-04-19T18:17:30.999Z</time></trkpt><trkpt lat="45.453975415355956" lon="10.862155936475421"><ele>108.0</ele><time>2026-04-19T18:17:31.999Z</time></trkpt><trkpt lat="45.454041978664456" lon="10.861806671311419"><ele>108.5</ele><time>2026-04-19T18:17:32.999Z</time></trkpt><trkpt lat="45.45410745202278" lon="10.861457364198653"><ele>109.0</ele><time>2026-04-19T18:17:33.999Z</time></trkpt><trkpt lat="45.454174692519565" lon="10.861109215003916"><ele>108.5</ele><time>2026-04-19T18:17:34.999Z</time></trkpt><trkpt lat="45.45424041860882" lon="10.860759629362668"><ele>108.0</ele><time>2026-04-19T18:17:35.999Z</time></trkpt><trkpt lat="45.45430619328949" lon="10.860410913458365"><ele>107.5</ele><time>2026-04-19T18:17:36.999Z</time></trkpt><trkpt lat="45.4543727248953" lon="10.860060928934933"><ele>107.0</ele><time>2026-04-19T18:17:37.999Z</time></trkpt><trkpt lat="45.45443876820966" lon="10.859711921106602"><ele>107.0</ele><time>2026-04-19T18:17:38.999Z</time></trkpt><trkpt lat="45.454505901529366" lon="10.859364103226085"><ele>107.0</ele><time>2026-04-19T18:17:39.999Z</time></trkpt><trkpt lat="45.454573196848145" lon="10.859015070994955"><ele>107.0</ele><time>2026-04-19T18:17:41Z</time></trkpt><trkpt lat="45.4546398273873" lon="10.858666221292875"><ele>107.0</ele><time>2026-04-19T18:17:42Z</time></trkpt><trkpt lat="45.45470583276422" lon="10.858319276894461"><ele>107.0</ele><time>2026-04-19T18:17:43Z</time></trkpt><trkpt lat="45.454773165643594" lon="10.857971684327994"><ele>107.0</ele><time>2026-04-19T18:17:44Z</time></trkpt><trkpt lat="45.45483878487138" lon="10.857622590247878"><ele>107.5</ele><time>2026-04-19T18:17:45Z</time></trkpt><trkpt lat="45.45490482641892" lon="10.857274036874916"><ele>108.0</ele><time>2026-04-19T18:17:46Z</time></trkpt><trkpt lat="45.45496998978323" lon="10.85692495426455"><ele>108.5</ele><time>2026-04-19T18:17:47Z</time></trkpt><trkpt lat="45.4550356804305" lon="10.8565762491941"><ele>109.0</ele><time>2026-04-19T18:17:48Z</time></trkpt><trkpt lat="45.45510120351258" lon="10.85622866493942"><ele>110.0</ele><time>2026-04-19T18:17:49Z</time></trkpt><trkpt lat="45.45516704322755" lon="10.855879995736016"><ele>111.0</ele><time>2026-04-19T18:17:50Z</time></trkpt><trkpt lat="45.45523260860048" lon="10.855531318461958"><ele>111.0</ele><time>2026-04-19T18:17:51Z</time></trkpt><trkpt lat="45.45529827508138" lon="10.855182153698864"><ele>111.0</ele><time>2026-04-19T18:17:52Z</time></trkpt><trkpt lat="45.455363813550804" lon="10.854832997802635"><ele>110.0</ele><time>2026-04-19T18:17:53Z</time></trkpt><trkpt lat="45.455428751829864" lon="10.854484238323925"><ele>109.0</ele><time>2026-04-19T18:17:54Z</time></trkpt><trkpt lat="45.455494071851845" lon="10.854135733226583"><ele>109.0</ele><time>2026-04-19T18:17:55Z</time></trkpt><trkpt lat="45.45555982438754" lon="10.853787750310413"><ele>109.0</ele><time>2026-04-19T18:17:56Z</time></trkpt><trkpt lat="45.45562501596765" lon="10.85343939732778"><ele>109.0</ele><time>2026-04-19T18:17:57Z</time></trkpt><trkpt lat="45.45569071032384" lon="10.853091015163917"><ele>109.0</ele><time>2026-04-19T18:17:58Z</time></trkpt><trkpt lat="45.45575573778741" lon="10.852741810259658"><ele>109.0</ele><time>2026-04-19T18:17:59Z</time></trkpt><trkpt lat="45.455820616271716" lon="10.852393260254658"><ele>109.0</ele><time>2026-04-19T18:18:00Z</time></trkpt><trkpt lat="45.45588598251462" lon="10.852044639761342"><ele>110.0</ele><time>2026-04-19T18:18:01Z</time></trkpt><trkpt lat="45.45595294073938" lon="10.851696880309614"><ele>111.0</ele><time>2026-04-19T18:18:02Z</time></trkpt><trkpt lat="45.45601984043876" lon="10.851348273881358"><ele>111.0</ele><time>2026-04-19T18:18:03Z</time></trkpt><trkpt lat="45.45608763514873" lon="10.851001830154836"><ele>111.0</ele><time>2026-04-19T18:18:04Z</time></trkpt><trkpt lat="45.456154879588624" lon="10.850651697861585"><ele>111.5</ele><time>2026-04-19T18:18:05Z</time></trkpt><trkpt lat="45.456221220054815" lon="10.850304049527915"><ele>112.0</ele><time>2026-04-19T18:18:06Z</time></trkpt><trkpt lat="45.45628820385948" lon="10.849955643241612"><ele>112.0</ele><time>2026-04-19T18:18:07Z</time></trkpt><trkpt lat="45.45635553398357" lon="10.849606702411734"><ele>112.0</ele><time>2026-04-19T18:18:08Z</time></trkpt><trkpt lat="45.45642308382703" lon="10.849257294829881"><ele>112.0</ele><time>2026-04-19T18:18:09Z</time></trkpt><trkpt lat="45.45648971397543" lon="10.848909300038029"><ele>112.0</ele><time>2026-04-19T18:18:10Z</time></trkpt><trkpt lat="45.456555684560016" lon="10.848560761769875"><ele>110.5</ele><time>2026-04-19T18:18:11Z</time></trkpt><trkpt lat="45.456620988161866" lon="10.848212385568438"><ele>109.0</ele><time>2026-04-19T18:18:12Z</time></trkpt><trkpt lat="45.45668602538332" lon="10.847864271442434"><ele>109.0</ele><time>2026-04-19T18:18:13Z</time></trkpt><trkpt lat="45.45675139748097" lon="10.847514204510153"><ele>109.0</ele><time>2026-04-19T18:18:14Z</time></trkpt><trkpt lat="45.456818844171565" lon="10.847165219947938"><ele>109.0</ele><time>2026-04-19T18:18:15Z</time></trkpt><trkpt lat="45.45688568662927" lon="10.846816842019532"><ele>109.0</ele><time>2026-04-19T18:18:16Z</time></trkpt><trkpt lat="45.4569557764419" lon="10.846470025243258"><ele>110.0</ele><time>2026-04-19T18:18:17Z</time></trkpt><trkpt lat="45.45702769718225" lon="10.846124202781613"><ele>111.0</ele><time>2026-04-19T18:18:18Z</time></trkpt><trkpt lat="45.45710099862772" lon="10.8457775826463"><ele>112.0</ele><time>2026-04-19T18:18:19Z</time></trkpt><trkpt lat="45.457180149246426" lon="10.845435209245599"><ele>113.0</ele><time>2026-04-19T18:18:20Z</time></trkpt><trkpt lat="45.45726284214401" lon="10.845093615951999"><ele>113.0</ele><time>2026-04-19T18:18:21Z</time></trkpt><trkpt lat="45.4573458023237" lon="10.844752649526848"><ele>113.0</ele><time>2026-04-19T18:18:22Z</time></trkpt><trkpt lat="45.45743128360838" lon="10.844412967607353"><ele>113.0</ele><time>2026-04-19T18:18:23Z</time></trkpt><trkpt lat="45.457519633527156" lon="10.844073407295474"><ele>113.0</ele><time>2026-04-19T18:18:24Z</time></trkpt><trkpt lat="45.45760828995439" lon="10.843736890642154"><ele>112.0</ele><time>2026-04-19T18:18:25Z</time></trkpt><trkpt lat="45.45769805036867" lon="10.843401364736362"><ele>111.0</ele><time>2026-04-19T18:18:26Z</time></trkpt><trkpt lat="45.45778880935821" lon="10.8430674474889"><ele>111.0</ele><time>2026-04-19T18:18:27Z</time></trkpt><trkpt lat="45.45788241591151" lon="10.842735682377374"><ele>111.0</ele><time>2026-04-19T18:18:28Z</time></trkpt><trkpt lat="45.45797874748535" lon="10.84240188570666"><ele>111.5</ele><time>2026-04-19T18:18:29Z</time></trkpt><trkpt lat="45.45807900603972" lon="10.842069917344135"><ele>112.0</ele><time>2026-04-19T18:18:30Z</time></trkpt><trkpt lat="45.458180740240145" lon="10.841739430578025"><ele>112.0</ele><time>2026-04-19T18:18:30.999Z</time></trkpt><trkpt lat="45.45828559245293" lon="10.84141000180053"><ele>112.0</ele><time>2026-04-19T18:18:31.999Z</time></trkpt><trkpt lat="45.458393005724176" lon="10.841081217889604"><ele>112.5</ele><time>2026-04-19T18:18:32.999Z</time></trkpt><trkpt lat="45.45850189482007" lon="10.840754713132217"><ele>113.0</ele><time>2026-04-19T18:18:33.999Z</time></trkpt><trkpt lat="45.45861221213693" lon="10.840430745133514"><ele>114.5</ele><time>2026-04-19T18:18:34.999Z</time></trkpt><trkpt lat="45.45872393667504" lon="10.840106370881765"><ele>116.0</ele><time>2026-04-19T18:18:35.999Z</time></trkpt><trkpt lat="45.45883883952936" lon="10.83978444767948"><ele>116.0</ele><time>2026-04-19T18:18:36.999Z</time></trkpt><trkpt lat="45.45895626640401" lon="10.839464409323913"><ele>116.0</ele><time>2026-04-19T18:18:37.999Z</time></trkpt><trkpt lat="45.45907582821575" lon="10.839145376402437"><ele>117.0</ele><time>2026-04-19T18:18:38.999Z</time></trkpt><trkpt lat="45.4591986272205" lon="10.838831373651049"><ele>118.0</ele><time>2026-04-19T18:18:39.999Z</time></trkpt><trkpt lat="45.45932284849675" lon="10.83851667652894"><ele>119.5</ele><time>2026-04-19T18:18:40.999Z</time></trkpt><trkpt lat="45.45944769265279" lon="10.838203194696305"><ele>121.0</ele><time>2026-04-19T18:18:41.999Z</time></trkpt><trkpt lat="45.45957557786724" lon="10.8378919664789"><ele>123.0</ele><time>2026-04-19T18:18:42.999Z</time></trkpt><trkpt lat="45.45970714629807" lon="10.83758267411708"><ele>125.0</ele><time>2026-04-19T18:18:43.999Z</time></trkpt><trkpt lat="45.459837023795394" lon="10.837272744563002"><ele>125.0</ele><time>2026-04-19T18:18:44.999Z</time></trkpt><trkpt lat="45.45996986194521" lon="10.836965248713021"><ele>125.0</ele><time>2026-04-19T18:18:45.999Z</time></trkpt><trkpt lat="45.46010667401989" lon="10.836659564286624"><ele>124.5</ele><time>2026-04-19T18:18:46.999Z</time></trkpt><trkpt lat="45.46024218210809" lon="10.83635524418653"><ele>124.0</ele><time>2026-04-19T18:18:47.999Z</time></trkpt><trkpt lat="45.46038310120584" lon="10.836054909132233"><ele>123.5</ele><time>2026-04-19T18:18:48.999Z</time></trkpt><trkpt lat="45.46052183085433" lon="10.83575244168704"><ele>123.0</ele><time>2026-04-19T18:18:49.999Z</time></trkpt><trkpt lat="45.46066046720045" lon="10.835446417871578"><ele>124.5</ele><time>2026-04-19T18:18:50.999Z</time></trkpt><trkpt lat="45.46080053477669" lon="10.83513187516415"><ele>126.0</ele><time>2026-04-19T18:18:51.999Z</time></trkpt><trkpt lat="45.46094275852843" lon="10.834813485779954"><ele>126.0</ele><time>2026-04-19T18:18:52.999Z</time></trkpt><trkpt lat="45.461083216243516" lon="10.834492946465348"><ele>126.0</ele><time>2026-04-19T18:18:53.999Z</time></trkpt><trkpt lat="45.46122560599849" lon="10.834173638212706"><ele>127.5</ele><time>2026-04-19T18:18:54.999Z</time></trkpt><trkpt lat="45.46136638664216" lon="10.833855143220264"><ele>129.0</ele><time>2026-04-19T18:18:55.999Z</time></trkpt><trkpt lat="45.461509420853154" lon="10.833541008787126"><ele>130.0</ele><time>2026-04-19T18:18:56.999Z</time></trkpt><trkpt lat="45.461650221907085" lon="10.833224577665288"><ele>131.0</ele><time>2026-04-19T18:18:57.999Z</time></trkpt><trkpt lat="45.46178918876759" lon="10.832906978882546"><ele>131.5</ele><time>2026-04-19T18:18:58.999Z</time></trkpt><trkpt lat="45.46193155290654" lon="10.832593388404996"><ele>132.0</ele><time>2026-04-19T18:18:59.999Z</time></trkpt><trkpt lat="45.462072872333394" lon="10.832278714333297"><ele>131.5</ele><time>2026-04-19T18:19:00.999Z</time></trkpt><trkpt lat="45.46221251037629" lon="10.831963266540217"><ele>131.0</ele><time>2026-04-19T18:19:01.999Z</time></trkpt><trkpt lat="45.46235557496695" lon="10.831650182562061"><ele>131.0</ele><time>2026-04-19T18:19:02.999Z</time></trkpt><trkpt lat="45.462494512162735" lon="10.831333138023952"><ele>131.0</ele><time>2026-04-19T18:19:03.999Z</time></trkpt><trkpt lat="45.46263550363489" lon="10.831017431708027"><ele>132.5</ele><time>2026-04-19T18:19:04.999Z</time></trkpt><trkpt lat="45.46277646466539" lon="10.830702969715384"><ele>134.0</ele><time>2026-04-19T18:19:05.999Z</time></trkpt><trkpt lat="45.46291995569009" lon="10.83038926955089"><ele>135.0</ele><time>2026-04-19T18:19:06.999Z</time></trkpt><trkpt lat="45.463061557131496" lon="10.83007354286602"><ele>136.0</ele><time>2026-04-19T18:19:07.999Z</time></trkpt><trkpt lat="45.46320301514706" lon="10.829757916261118"><ele>136.0</ele><time>2026-04-19T18:19:08.999Z</time></trkpt><trkpt lat="45.46334467199628" lon="10.829441421140007"><ele>136.0</ele><time>2026-04-19T18:19:09.999Z</time></trkpt><trkpt lat="45.46348573483342" lon="10.829126030635122"><ele>136.5</ele><time>2026-04-19T18:19:10.999Z</time></trkpt><trkpt lat="45.46362714597808" lon="10.828809847487367"><ele>137.0</ele><time>2026-04-19T18:19:11.999Z</time></trkpt><trkpt lat="45.46376761137012" lon="10.82849382774988"><ele>137.5</ele><time>2026-04-19T18:19:12.999Z</time></trkpt><trkpt lat="45.46391157388182" lon="10.828181596052556"><ele>138.0</ele><time>2026-04-19T18:19:13.999Z</time></trkpt><trkpt lat="45.464053141224454" lon="10.827867979631568"><ele>139.0</ele><time>2026-04-19T18:19:14.999Z</time></trkpt><trkpt lat="45.46419412750332" lon="10.827553477404477"><ele>140.0</ele><time>2026-04-19T18:19:15.999Z</time></trkpt><trkpt lat="45.46433574543514" lon="10.827240344489471"><ele>140.0</ele><time>2026-04-19T18:19:16.999Z</time></trkpt><trkpt lat="45.46447680416205" lon="10.826926702336085"><ele>140.0</ele><time>2026-04-19T18:19:17.999Z</time></trkpt><trkpt lat="45.46461969446588" lon="10.826613227655836"><ele>140.5</ele><time>2026-04-19T18:19:18.999Z</time></trkpt><trkpt lat="45.464761172211425" lon="10.826297001787342"><ele>141.0</ele><time>2026-04-19T18:19:19.999Z</time></trkpt><trkpt lat="45.46490340964307" lon="10.825982428832472"><ele>142.5</ele><time>2026-04-19T18:19:20.999Z</time></trkpt><trkpt lat="45.465044472639356" lon="10.825666747495575"><ele>144.0</ele><time>2026-04-19T18:19:21.999Z</time></trkpt><trkpt lat="45.465186309342535" lon="10.825351222006194"><ele>144.0</ele><time>2026-04-19T18:19:22.999Z</time></trkpt><trkpt lat="45.465328125590496" lon="10.8250374587307"><ele>144.0</ele><time>2026-04-19T18:19:23.999Z</time></trkpt><trkpt lat="45.46546960161392" lon="10.824723070576182"><ele>144.0</ele><time>2026-04-19T18:19:24.999Z</time></trkpt><trkpt lat="45.46561085161294" lon="10.824407361599112"><ele>144.0</ele><time>2026-04-19T18:19:25.999Z</time></trkpt><trkpt lat="45.46575275994095" lon="10.824092581258084"><ele>145.0</ele><time>2026-04-19T18:19:26.999Z</time></trkpt><trkpt lat="45.46589540168368" lon="10.82377851939388"><ele>146.0</ele><time>2026-04-19T18:19:27.999Z</time></trkpt><trkpt lat="45.4660380391872" lon="10.823466020461941"><ele>147.0</ele><time>2026-04-19T18:19:28.999Z</time></trkpt><trkpt lat="45.466178254075814" lon="10.823151487292925"><ele>148.0</ele><time>2026-04-19T18:19:29.999Z</time></trkpt><trkpt lat="45.46631843168769" lon="10.82283663593623"><ele>149.5</ele><time>2026-04-19T18:19:30.999Z</time></trkpt><trkpt lat="45.46645858864272" lon="10.82252035947472"><ele>151.0</ele><time>2026-04-19T18:19:31.999Z</time></trkpt><trkpt lat="45.466598541915914" lon="10.822205719352054"><ele>151.0</ele><time>2026-04-19T18:19:32.999Z</time></trkpt><trkpt lat="45.466739102227955" lon="10.821890265412561"><ele>151.0</ele><time>2026-04-19T18:19:33.999Z</time></trkpt><trkpt lat="45.4668813709839" lon="10.821575870993781"><ele>152.0</ele><time>2026-04-19T18:19:34.999Z</time></trkpt><trkpt lat="45.46702348475169" lon="10.82126086612216"><ele>153.0</ele><time>2026-04-19T18:19:35.999Z</time></trkpt><trkpt lat="45.46716579971907" lon="10.820947108967056"><ele>153.0</ele><time>2026-04-19T18:19:36.999Z</time></trkpt><trkpt lat="45.46730791183595" lon="10.820633660685035"><ele>153.0</ele><time>2026-04-19T18:19:37.999Z</time></trkpt><trkpt lat="45.46745083557227" lon="10.820318180841594"><ele>156.0</ele><time>2026-04-19T18:19:38.999Z</time></trkpt><trkpt lat="45.46759188684057" lon="10.820004797205636"><ele>159.0</ele><time>2026-04-19T18:19:39.999Z</time></trkpt><trkpt lat="45.46773340158284" lon="10.819689530722217"><ele>159.0</ele><time>2026-04-19T18:19:40.999Z</time></trkpt><trkpt lat="45.467874963217106" lon="10.819374172131367"><ele>159.0</ele><time>2026-04-19T18:19:41.999Z</time></trkpt><trkpt lat="45.46801755389019" lon="10.819060140800444"><ele>159.0</ele><time>2026-04-19T18:19:42.999Z</time></trkpt><trkpt lat="45.468160274989074" lon="10.818746893064233"><ele>159.0</ele><time>2026-04-19T18:19:43.999Z</time></trkpt><trkpt lat="45.4683040744176" lon="10.818433156501396"><ele>159.0</ele><time>2026-04-19T18:19:44.999Z</time></trkpt><trkpt lat="45.4684500757629" lon="10.81812194289558"><ele>159.0</ele><time>2026-04-19T18:19:45.999Z</time></trkpt><trkpt lat="45.46860016247733" lon="10.817813032256725"><ele>159.5</ele><time>2026-04-19T18:19:47Z</time></trkpt><trkpt lat="45.46875315530579" lon="10.817508262784076"><ele>160.0</ele><time>2026-04-19T18:19:48Z</time></trkpt><trkpt lat="45.468911970101864" lon="10.817210161126653"><ele>163.0</ele><time>2026-04-19T18:19:49Z</time></trkpt><trkpt lat="45.46907558865501" lon="10.816917603401818"><ele>166.0</ele><time>2026-04-19T18:19:50Z</time></trkpt><trkpt lat="45.46924460464159" lon="10.81663066783246"><ele>168.0</ele><time>2026-04-19T18:19:51Z</time></trkpt><trkpt lat="45.4694188557225" lon="10.816351373342991"><ele>170.0</ele><time>2026-04-19T18:19:52Z</time></trkpt><trkpt lat="45.469597928347355" lon="10.816077659231134"><ele>173.5</ele><time>2026-04-19T18:19:53Z</time></trkpt><trkpt lat="45.46978228902189" lon="10.815809815497863"><ele>177.0</ele><time>2026-04-19T18:19:54Z</time></trkpt><trkpt lat="45.469970334985625" lon="10.815548625075976"><ele>177.0</ele><time>2026-04-19T18:19:55Z</time></trkpt><trkpt lat="45.47016322098712" lon="10.815293555726669"><ele>177.0</ele><time>2026-04-19T18:19:56Z</time></trkpt><trkpt lat="45.47035850945377" lon="10.81504468122227"><ele>179.0</ele><time>2026-04-19T18:19:57Z</time></trkpt><trkpt lat="45.47055948410749" lon="10.814801560982723"><ele>181.0</ele><time>2026-04-19T18:19:58Z</time></trkpt><trkpt lat="45.4707634197867" lon="10.814565875397216"><ele>181.0</ele><time>2026-04-19T18:19:59Z</time></trkpt><trkpt lat="45.470972030415076" lon="10.81433818660103"><ele>181.0</ele><time>2026-04-19T18:20:00Z</time></trkpt><trkpt lat="45.471183258897426" lon="10.814117314633222"><ele>183.0</ele><time>2026-04-19T18:20:01Z</time></trkpt><trkpt lat="45.47139963507862" lon="10.813902045460411"><ele>185.0</ele><time>2026-04-19T18:20:02Z</time></trkpt><trkpt lat="45.47161860385688" lon="10.813694611091835"><ele>185.0</ele><time>2026-04-19T18:20:03Z</time></trkpt><trkpt lat="45.47184123983588" lon="10.813494498187284"><ele>185.0</ele><time>2026-04-19T18:20:04Z</time></trkpt><trkpt lat="45.47206560492714" lon="10.813298408115385"><ele>187.0</ele><time>2026-04-19T18:20:05Z</time></trkpt><trkpt lat="45.47229103183035" lon="10.813104468337764"><ele>189.0</ele><time>2026-04-19T18:20:06Z</time></trkpt><trkpt lat="45.47251535025108" lon="10.812909369803803"><ele>189.0</ele><time>2026-04-19T18:20:07Z</time></trkpt><trkpt lat="45.47274186220788" lon="10.81271810005963"><ele>189.0</ele><time>2026-04-19T18:20:08Z</time></trkpt><trkpt lat="45.4729691888733" lon="10.812528724799282"><ele>190.5</ele><time>2026-04-19T18:20:09Z</time></trkpt><trkpt lat="45.47319505342979" lon="10.81233617439702"><ele>192.0</ele><time>2026-04-19T18:20:10Z</time></trkpt><trkpt lat="45.473421040802414" lon="10.812145689317607"><ele>192.0</ele><time>2026-04-19T18:20:11Z</time></trkpt><trkpt lat="45.473646014517314" lon="10.811950668411344"><ele>192.0</ele><time>2026-04-19T18:20:12Z</time></trkpt><trkpt lat="45.47387024125454" lon="10.811756282860914"><ele>193.5</ele><time>2026-04-19T18:20:13Z</time></trkpt><trkpt lat="45.474096829405305" lon="10.81156282533738"><ele>195.0</ele><time>2026-04-19T18:20:14Z</time></trkpt><trkpt lat="45.47432251487399" lon="10.811367906180413"><ele>195.0</ele><time>2026-04-19T18:20:15Z</time></trkpt><trkpt lat="45.47454860835116" lon="10.811173730796124"><ele>195.0</ele><time>2026-04-19T18:20:16Z</time></trkpt><trkpt lat="45.47477405036494" lon="10.810977997122459"><ele>196.0</ele><time>2026-04-19T18:20:17Z</time></trkpt><trkpt lat="45.47500003865742" lon="10.810780785939066"><ele>197.0</ele><time>2026-04-19T18:20:18Z</time></trkpt><trkpt lat="45.475226088863224" lon="10.81058578234941"><ele>196.5</ele><time>2026-04-19T18:20:19Z</time></trkpt><trkpt lat="45.47545198795246" lon="10.810390624124876"><ele>196.0</ele><time>2026-04-19T18:20:20Z</time></trkpt><trkpt lat="45.475676169932896" lon="10.810191767941378"><ele>197.0</ele><time>2026-04-19T18:20:21Z</time></trkpt><trkpt lat="45.47589818481445" lon="10.809988601610005"><ele>198.0</ele><time>2026-04-19T18:20:22Z</time></trkpt><trkpt lat="45.4761187650718" lon="10.80978133989921"><ele>199.0</ele><time>2026-04-19T18:20:23Z</time></trkpt><trkpt lat="45.47633670514542" lon="10.809569220264368"><ele>200.0</ele><time>2026-04-19T18:20:24Z</time></trkpt><trkpt lat="45.47655448917784" lon="10.809357455325001"><ele>200.5</ele><time>2026-04-19T18:20:25Z</time></trkpt><trkpt lat="45.476772035348084" lon="10.809140636820882"><ele>201.0</ele><time>2026-04-19T18:20:26Z</time></trkpt><trkpt lat="45.47698970567901" lon="10.808928514467755"><ele>201.0</ele><time>2026-04-19T18:20:27Z</time></trkpt><trkpt lat="45.477205808873464" lon="10.808712072661457"><ele>201.0</ele><time>2026-04-19T18:20:28Z</time></trkpt><trkpt lat="45.47742109402265" lon="10.808490922830941"><ele>200.0</ele><time>2026-04-19T18:20:29Z</time></trkpt><trkpt lat="45.47763842540257" lon="10.808264130707618"><ele>199.0</ele><time>2026-04-19T18:20:30Z</time></trkpt><trkpt lat="45.47785751263677" lon="10.808029063722692"><ele>199.0</ele><time>2026-04-19T18:20:31Z</time></trkpt><trkpt lat="45.47807749247123" lon="10.807783565411539"><ele>199.0</ele><time>2026-04-19T18:20:32Z</time></trkpt><trkpt lat="45.47830093681231" lon="10.807531120818448"><ele>199.0</ele><time>2026-04-19T18:20:33Z</time></trkpt><trkpt lat="45.478525935303004" lon="10.807267169133386"><ele>199.0</ele><time>2026-04-19T18:20:34Z</time></trkpt><trkpt lat="45.478753813294816" lon="10.806996985326386"><ele>197.5</ele><time>2026-04-19T18:20:35Z</time></trkpt><trkpt lat="45.47897912188103" lon="10.80671283401152"><ele>196.0</ele><time>2026-04-19T18:20:36Z</time></trkpt><trkpt lat="45.47920255483404" lon="10.806428004349272"><ele>196.0</ele><time>2026-04-19T18:20:37Z</time></trkpt><trkpt lat="45.47942372368307" lon="10.806141275253536"><ele>196.0</ele><time>2026-04-19T18:20:38Z</time></trkpt><trkpt lat="45.479634578809" lon="10.805851209907589"><ele>192.5</ele><time>2026-04-19T18:20:39Z</time></trkpt><trkpt lat="45.479843511825" lon="10.805565820999012"><ele>189.0</ele><time>2026-04-19T18:20:40Z</time></trkpt><trkpt lat="45.48004724657753" lon="10.805278971903062"><ele>187.0</ele><time>2026-04-19T18:20:41Z</time></trkpt><trkpt lat="45.48024411994484" lon="10.804993135169731"><ele>185.0</ele><time>2026-04-19T18:20:42Z</time></trkpt><trkpt lat="45.4804379198152" lon="10.804711362287279"><ele>184.0</ele><time>2026-04-19T18:20:43Z</time></trkpt><trkpt lat="45.480627671004626" lon="10.804430209198022"><ele>183.0</ele><time>2026-04-19T18:20:44Z</time></trkpt><trkpt lat="45.48081602049258" lon="10.804150098315617"><ele>183.0</ele><time>2026-04-19T18:20:45Z</time></trkpt><trkpt lat="45.48099790452076" lon="10.803864612595568"><ele>183.0</ele><time>2026-04-19T18:20:46Z</time></trkpt><trkpt lat="45.48117504631439" lon="10.803572975282277"><ele>182.5</ele><time>2026-04-19T18:20:47Z</time></trkpt><trkpt lat="45.481350827311246" lon="10.80328016266773"><ele>182.0</ele><time>2026-04-19T18:20:48Z</time></trkpt><trkpt lat="45.481523977948605" lon="10.802981181553934"><ele>182.0</ele><time>2026-04-19T18:20:49Z</time></trkpt><trkpt lat="45.48169436073464" lon="10.802679194848055"><ele>182.0</ele><time>2026-04-19T18:20:50Z</time></trkpt><trkpt lat="45.48186404644451" lon="10.802375504012174"><ele>181.0</ele><time>2026-04-19T18:20:51Z</time></trkpt><trkpt lat="45.48203284390879" lon="10.802069586800146"><ele>180.0</ele><time>2026-04-19T18:20:51.999Z</time></trkpt><trkpt lat="45.48220130736833" lon="10.801764404300025"><ele>175.0</ele><time>2026-04-19T18:20:52.999Z</time></trkpt><trkpt lat="45.482370702310924" lon="10.801459617510083"><ele>170.0</ele><time>2026-04-19T18:20:53.999Z</time></trkpt><trkpt lat="45.48253965772102" lon="10.801154352467494"><ele>169.0</ele><time>2026-04-19T18:20:54.999Z</time></trkpt><trkpt lat="45.48270719212868" lon="10.800848082038787"><ele>168.0</ele><time>2026-04-19T18:20:55.999Z</time></trkpt><trkpt lat="45.48287351398994" lon="10.800543282770567"><ele>167.5</ele><time>2026-04-19T18:20:56.999Z</time></trkpt><trkpt lat="45.48304051435281" lon="10.80023790212478"><ele>167.0</ele><time>2026-04-19T18:20:57.999Z</time></trkpt><trkpt lat="45.48320841954455" lon="10.799933734241366"><ele>167.0</ele><time>2026-04-19T18:20:58.999Z</time></trkpt><trkpt lat="45.483377294884846" lon="10.799629549980013"><ele>167.0</ele><time>2026-04-19T18:20:59.999Z</time></trkpt><trkpt lat="45.483545702778194" lon="10.799324508698803"><ele>167.0</ele><time>2026-04-19T18:21:00.999Z</time></trkpt><trkpt lat="45.48371417922573" lon="10.799019873680646"><ele>167.0</ele><time>2026-04-19T18:21:01.999Z</time></trkpt><trkpt lat="45.483881245851975" lon="10.798713589817394"><ele>165.0</ele><time>2026-04-19T18:21:02.999Z</time></trkpt><trkpt lat="45.48404760741524" lon="10.798406162211752"><ele>163.0</ele><time>2026-04-19T18:21:03.999Z</time></trkpt><trkpt lat="45.4842165983214" lon="10.798101574200263"><ele>163.0</ele><time>2026-04-19T18:21:04.999Z</time></trkpt><trkpt lat="45.48438606894064" lon="10.797799288177144"><ele>163.0</ele><time>2026-04-19T18:21:05.999Z</time></trkpt><trkpt lat="45.48455478220891" lon="10.797496024775345"><ele>164.0</ele><time>2026-04-19T18:21:06.999Z</time></trkpt><trkpt lat="45.484723441827484" lon="10.797193058912216"><ele>165.0</ele><time>2026-04-19T18:21:07.999Z</time></trkpt><trkpt lat="45.48489432490058" lon="10.796891305883399"><ele>163.5</ele><time>2026-04-19T18:21:08.999Z</time></trkpt><trkpt lat="45.4850684279417" lon="10.796595173336533"><ele>162.0</ele><time>2026-04-19T18:21:09.999Z</time></trkpt><trkpt lat="45.48524706149877" lon="10.796302760124018"><ele>163.5</ele><time>2026-04-19T18:21:10.999Z</time></trkpt><trkpt lat="45.48543148562434" lon="10.796016050811913"><ele>165.0</ele><time>2026-04-19T18:21:11.999Z</time></trkpt><trkpt lat="45.485622203811104" lon="10.795737593284263"><ele>165.0</ele><time>2026-04-19T18:21:12.999Z</time></trkpt><trkpt lat="45.48581828139067" lon="10.795468267646307"><ele>165.0</ele><time>2026-04-19T18:21:13.999Z</time></trkpt><trkpt lat="45.48601874544643" lon="10.795205091189658"><ele>159.5</ele><time>2026-04-19T18:21:14.999Z</time></trkpt><trkpt lat="45.48622445845137" lon="10.794953419745836"><ele>154.0</ele><time>2026-04-19T18:21:15.999Z</time></trkpt><trkpt lat="45.48643470862952" lon="10.79471501623968"><ele>154.0</ele><time>2026-04-19T18:21:16.999Z</time></trkpt><trkpt lat="45.48665122854577" lon="10.794489039242603"><ele>154.0</ele><time>2026-04-19T18:21:17.999Z</time></trkpt><trkpt lat="45.486872812490596" lon="10.794272915166491"><ele>151.5</ele><time>2026-04-19T18:21:18.999Z</time></trkpt><trkpt lat="45.48709687936831" lon="10.794063876385456"><ele>149.0</ele><time>2026-04-19T18:21:19.999Z</time></trkpt><trkpt lat="45.48732487565909" lon="10.79386391016586"><ele>149.0</ele><time>2026-04-19T18:21:20.999Z</time></trkpt><trkpt lat="45.48755708607457" lon="10.793672546375477"><ele>149.0</ele><time>2026-04-19T18:21:21.999Z</time></trkpt><trkpt lat="45.48779186283197" lon="10.793486001399287"><ele>148.0</ele><time>2026-04-19T18:21:22.999Z</time></trkpt><trkpt lat="45.488027741937785" lon="10.793303992336632"><ele>147.0</ele><time>2026-04-19T18:21:23.999Z</time></trkpt><trkpt lat="45.48826601052297" lon="10.793126980096124"><ele>147.0</ele><time>2026-04-19T18:21:24.999Z</time></trkpt><trkpt lat="45.488506031116614" lon="10.792952838302996"><ele>147.0</ele><time>2026-04-19T18:21:25.999Z</time></trkpt><trkpt lat="45.48874615124835" lon="10.79278079501828"><ele>145.5</ele><time>2026-04-19T18:21:26.999Z</time></trkpt><trkpt lat="45.48898712536421" lon="10.792610585374637"><ele>144.0</ele><time>2026-04-19T18:21:27.999Z</time></trkpt><trkpt lat="45.48922760349866" lon="10.792440248587784"><ele>144.0</ele><time>2026-04-19T18:21:28.999Z</time></trkpt><trkpt lat="45.48946855949968" lon="10.792267532518235"><ele>144.0</ele><time>2026-04-19T18:21:29.999Z</time></trkpt><trkpt lat="45.48971236436967" lon="10.792093366489055"><ele>143.5</ele><time>2026-04-19T18:21:30.999Z</time></trkpt><trkpt lat="45.489957952914665" lon="10.791916046375995"><ele>143.0</ele><time>2026-04-19T18:21:31.999Z</time></trkpt><trkpt lat="45.490203331227264" lon="10.79173974650789"><ele>141.5</ele><time>2026-04-19T18:21:32.999Z</time></trkpt><trkpt lat="45.49044805221676" lon="10.79156605693861"><ele>140.0</ele><time>2026-04-19T18:21:33.999Z</time></trkpt><trkpt lat="45.49069263561282" lon="10.79139485595068"><ele>140.0</ele><time>2026-04-19T18:21:34.999Z</time></trkpt><trkpt lat="45.49093598455716" lon="10.791225473453716"><ele>140.0</ele><time>2026-04-19T18:21:35.999Z</time></trkpt><trkpt lat="45.491180483250204" lon="10.791055095374597"><ele>140.5</ele><time>2026-04-19T18:21:36.999Z</time></trkpt><trkpt lat="45.49142355298417" lon="10.790883181597831"><ele>141.0</ele><time>2026-04-19T18:21:37.999Z</time></trkpt><trkpt lat="45.49166561495105" lon="10.790711124051901"><ele>141.0</ele><time>2026-04-19T18:21:38.999Z</time></trkpt><trkpt lat="45.491907347361874" lon="10.790538151035584"><ele>141.0</ele><time>2026-04-19T18:21:39.999Z</time></trkpt><trkpt lat="45.49214967350519" lon="10.790365880578188"><ele>142.5</ele><time>2026-04-19T18:21:40.999Z</time></trkpt><trkpt lat="45.49239216285977" lon="10.790192598248494"><ele>144.0</ele><time>2026-04-19T18:21:41.999Z</time></trkpt><trkpt lat="45.492634561738434" lon="10.790017304444614"><ele>144.5</ele><time>2026-04-19T18:21:42.999Z</time></trkpt><trkpt lat="45.49287600909829" lon="10.789842252203444"><ele>145.0</ele><time>2026-04-19T18:21:43.999Z</time></trkpt><trkpt lat="45.49311747396971" lon="10.789667995841937"><ele>145.0</ele><time>2026-04-19T18:21:44.999Z</time></trkpt><trkpt lat="45.493359451020766" lon="10.789495301438102"><ele>145.0</ele><time>2026-04-19T18:21:45.999Z</time></trkpt><trkpt lat="45.49360186575334" lon="10.789323052963182"><ele>146.0</ele><time>2026-04-19T18:21:46.999Z</time></trkpt><trkpt lat="45.49384471620894" lon="10.789150602498612"><ele>147.0</ele><time>2026-04-19T18:21:47.999Z</time></trkpt><trkpt lat="45.49408779716814" lon="10.788978219888284"><ele>147.0</ele><time>2026-04-19T18:21:48.999Z</time></trkpt><trkpt lat="45.49433088974439" lon="10.788806488486772"><ele>147.0</ele><time>2026-04-19T18:21:49.999Z</time></trkpt><trkpt lat="45.49457375066588" lon="10.788634219062379"><ele>148.5</ele><time>2026-04-19T18:21:50.999Z</time></trkpt><trkpt lat="45.49481706274342" lon="10.788460278377828"><ele>150.0</ele><time>2026-04-19T18:21:51.999Z</time></trkpt><trkpt lat="45.49505961765567" lon="10.788285293880527"><ele>150.0</ele><time>2026-04-19T18:21:53Z</time></trkpt><trkpt lat="45.49530248480458" lon="10.788111049226826"><ele>150.0</ele><time>2026-04-19T18:21:54Z</time></trkpt><trkpt lat="45.49554629787923" lon="10.78793697337238"><ele>149.5</ele><time>2026-04-19T18:21:55Z</time></trkpt><trkpt lat="45.49578905058332" lon="10.787763440584381"><ele>149.0</ele><time>2026-04-19T18:21:56Z</time></trkpt><trkpt lat="45.49603166285918" lon="10.787588023854138"><ele>150.5</ele><time>2026-04-19T18:21:57Z</time></trkpt><trkpt lat="45.496274197205395" lon="10.787412358520791"><ele>152.0</ele><time>2026-04-19T18:21:58Z</time></trkpt><trkpt lat="45.49651639561649" lon="10.787238457093556"><ele>152.0</ele><time>2026-04-19T18:21:59Z</time></trkpt><trkpt lat="45.49675858004445" lon="10.787063976839667"><ele>152.0</ele><time>2026-04-19T18:22:00Z</time></trkpt><trkpt lat="45.49700156260502" lon="10.786889708462667"><ele>152.0</ele><time>2026-04-19T18:22:01Z</time></trkpt><trkpt lat="45.497244434516055" lon="10.786717128218873"><ele>152.0</ele><time>2026-04-19T18:22:02Z</time></trkpt><trkpt lat="45.497487781542524" lon="10.786545255291697"><ele>152.0</ele><time>2026-04-19T18:22:03Z</time></trkpt><trkpt lat="45.49773209281753" lon="10.786376041901457"><ele>152.0</ele><time>2026-04-19T18:22:04Z</time></trkpt><trkpt lat="45.49797796871305" lon="10.786211424336724"><ele>153.5</ele><time>2026-04-19T18:22:05Z</time></trkpt><trkpt lat="45.49822598741203" lon="10.786049848126106"><ele>155.0</ele><time>2026-04-19T18:22:06Z</time></trkpt><trkpt lat="45.498475560062275" lon="10.785895433464077"><ele>155.0</ele><time>2026-04-19T18:22:07Z</time></trkpt><trkpt lat="45.49872692700275" lon="10.78574709862941"><ele>155.0</ele><time>2026-04-19T18:22:08Z</time></trkpt><trkpt lat="45.49898082055704" lon="10.78560487736772"><ele>156.5</ele><time>2026-04-19T18:22:09Z</time></trkpt><trkpt lat="45.49923563479757" lon="10.785468718175478"><ele>158.0</ele><time>2026-04-19T18:22:10Z</time></trkpt><trkpt lat="45.49949271523537" lon="10.785338058516668"><ele>158.0</ele><time>2026-04-19T18:22:11Z</time></trkpt><trkpt lat="45.49975058650634" lon="10.785212954319444"><ele>158.0</ele><time>2026-04-19T18:22:12Z</time></trkpt><trkpt lat="45.50001076637992" lon="10.785094089003762"><ele>158.0</ele><time>2026-04-19T18:22:13Z</time></trkpt><trkpt lat="45.500271287949964" lon="10.784982674071534"><ele>158.0</ele><time>2026-04-19T18:22:14Z</time></trkpt><trkpt lat="45.500532662572375" lon="10.784878720982025"><ele>159.0</ele><time>2026-04-19T18:22:15Z</time></trkpt><trkpt lat="45.50079540659804" lon="10.784780057196707"><ele>160.0</ele><time>2026-04-19T18:22:16Z</time></trkpt><trkpt lat="45.501060142986816" lon="10.784687911129106"><ele>160.5</ele><time>2026-04-19T18:22:17Z</time></trkpt><trkpt lat="45.501325442647826" lon="10.784603834548982"><ele>161.0</ele><time>2026-04-19T18:22:18Z</time></trkpt><trkpt lat="45.50159294218579" lon="10.784526503952291"><ele>161.0</ele><time>2026-04-19T18:22:19Z</time></trkpt><trkpt lat="45.5018602974179" lon="10.784456271670713"><ele>161.0</ele><time>2026-04-19T18:22:20Z</time></trkpt><trkpt lat="45.502129748720364" lon="10.784394409295206"><ele>158.5</ele><time>2026-04-19T18:22:21Z</time></trkpt><trkpt lat="45.50239942814346" lon="10.784339209962937"><ele>156.0</ele><time>2026-04-19T18:22:22Z</time></trkpt><trkpt lat="45.502670634503666" lon="10.78429432193675"><ele>154.0</ele><time>2026-04-19T18:22:23Z</time></trkpt><trkpt lat="45.50294054316429" lon="10.784257106753214"><ele>152.0</ele><time>2026-04-19T18:22:24Z</time></trkpt><trkpt lat="45.50321176341838" lon="10.784219509779712"><ele>152.0</ele><time>2026-04-19T18:22:25Z</time></trkpt><trkpt lat="45.50348146915444" lon="10.784185010398263"><ele>152.0</ele><time>2026-04-19T18:22:26Z</time></trkpt><trkpt lat="45.50375664010864" lon="10.784159798261486"><ele>152.0</ele><time>2026-04-19T18:22:27Z</time></trkpt><trkpt lat="45.50402971472594" lon="10.784143494229276"><ele>152.0</ele><time>2026-04-19T18:22:28Z</time></trkpt><trkpt lat="45.50430144467614" lon="10.784126969444586"><ele>152.0</ele><time>2026-04-19T18:22:29Z</time></trkpt><trkpt lat="45.504573920680116" lon="10.784118842936378"><ele>152.0</ele><time>2026-04-19T18:22:30Z</time></trkpt><trkpt lat="45.504845722317825" lon="10.784118684487256"><ele>151.5</ele><time>2026-04-19T18:22:31Z</time></trkpt><trkpt lat="45.50511817021865" lon="10.7841237753247"><ele>151.0</ele><time>2026-04-19T18:22:32Z</time></trkpt><trkpt lat="45.505391997674124" lon="10.784133630995065"><ele>150.5</ele><time>2026-04-19T18:22:33Z</time></trkpt><trkpt lat="45.505664136473634" lon="10.784151288618116"><ele>150.0</ele><time>2026-04-19T18:22:34Z</time></trkpt><trkpt lat="45.505936336505926" lon="10.784173995423899"><ele>150.0</ele><time>2026-04-19T18:22:35Z</time></trkpt><trkpt lat="45.506207909592476" lon="10.78420038372902"><ele>150.0</ele><time>2026-04-19T18:22:36Z</time></trkpt><trkpt lat="45.50647840352357" lon="10.784224485609796"><ele>151.5</ele><time>2026-04-19T18:22:37Z</time></trkpt><trkpt lat="45.50674853010904" lon="10.784250236044388"><ele>153.0</ele><time>2026-04-19T18:22:38Z</time></trkpt><trkpt lat="45.50702076666652" lon="10.784279032909854"><ele>152.5</ele><time>2026-04-19T18:22:39Z</time></trkpt><trkpt lat="45.50729129295442" lon="10.784306920385548"><ele>152.0</ele><time>2026-04-19T18:22:40Z</time></trkpt><trkpt lat="45.50756122827756" lon="10.784335939245022"><ele>151.5</ele><time>2026-04-19T18:22:41Z</time></trkpt><trkpt lat="45.50783061632721" lon="10.784371236866795"><ele>151.0</ele><time>2026-04-19T18:22:42Z</time></trkpt><trkpt lat="45.50810109070947" lon="10.784409768981554"><ele>150.5</ele><time>2026-04-19T18:22:42.999Z</time></trkpt><trkpt lat="45.50837182378541" lon="10.78444692601469"><ele>150.0</ele><time>2026-04-19T18:22:43.999Z</time></trkpt><trkpt lat="45.50864300865648" lon="10.78448289298229"><ele>152.0</ele><time>2026-04-19T18:22:44.999Z</time></trkpt><trkpt lat="45.508908322527404" lon="10.784512636331948"><ele>154.0</ele><time>2026-04-19T18:22:45.999Z</time></trkpt><trkpt lat="45.50916694526424" lon="10.784541762443057"><ele>154.0</ele><time>2026-04-19T18:22:46.999Z</time></trkpt><trkpt lat="45.50942037146291" lon="10.784569178560531"><ele>154.0</ele><time>2026-04-19T18:22:47.999Z</time></trkpt><trkpt lat="45.50966817511173" lon="10.784592272465458"><ele>153.5</ele><time>2026-04-19T18:22:48.999Z</time></trkpt><trkpt lat="45.50991028533737" lon="10.784615954076287"><ele>153.0</ele><time>2026-04-19T18:22:49.999Z</time></trkpt><trkpt lat="45.51015119529788" lon="10.784639163784428"><ele>153.0</ele><time>2026-04-19T18:22:50.999Z</time></trkpt><trkpt lat="45.510393237756695" lon="10.784661424898019"><ele>153.0</ele><time>2026-04-19T18:22:51.999Z</time></trkpt><trkpt lat="45.510640733402035" lon="10.784683811867799"><ele>154.0</ele><time>2026-04-19T18:22:52.999Z</time></trkpt><trkpt lat="45.51089208252617" lon="10.78470683072457"><ele>155.0</ele><time>2026-04-19T18:22:53.999Z</time></trkpt><trkpt lat="45.51114982841673" lon="10.784728233498853"><ele>156.0</ele><time>2026-04-19T18:22:54.999Z</time></trkpt><trkpt lat="45.51141315369387" lon="10.784746346160745"><ele>157.0</ele><time>2026-04-19T18:22:55.999Z</time></trkpt><trkpt lat="45.51168075419216" lon="10.78475822099652"><ele>157.0</ele><time>2026-04-19T18:22:56.999Z</time></trkpt><trkpt lat="45.511950146979345" lon="10.78476017820238"><ele>157.0</ele><time>2026-04-19T18:22:57.999Z</time></trkpt><trkpt lat="45.51221232797887" lon="10.784753516928554"><ele>156.0</ele><time>2026-04-19T18:22:58.999Z</time></trkpt><trkpt lat="45.51246836320053" lon="10.784745361126818"><ele>155.0</ele><time>2026-04-19T18:22:59.999Z</time></trkpt><trkpt lat="45.51271926879658" lon="10.784734270479724"><ele>156.5</ele><time>2026-04-19T18:23:00.999Z</time></trkpt><trkpt lat="45.512968769315805" lon="10.784715221426865"><ele>158.0</ele><time>2026-04-19T18:23:01.999Z</time></trkpt><trkpt lat="45.51321921744298" lon="10.78469430560478"><ele>158.0</ele><time>2026-04-19T18:23:02.999Z</time></trkpt><trkpt lat="45.513471745064116" lon="10.784665372187115"><ele>158.0</ele><time>2026-04-19T18:23:03.999Z</time></trkpt><trkpt lat="45.51372596240615" lon="10.784634475334741"><ele>159.5</ele><time>2026-04-19T18:23:04.999Z</time></trkpt><trkpt lat="45.513972675696465" lon="10.784597280085077"><ele>161.0</ele><time>2026-04-19T18:23:05.999Z</time></trkpt><trkpt lat="45.51421304179923" lon="10.784560251828642"><ele>161.0</ele><time>2026-04-19T18:23:06.999Z</time></trkpt><trkpt lat="45.51444990763494" lon="10.784516992801468"><ele>161.0</ele><time>2026-04-19T18:23:07.999Z</time></trkpt><trkpt lat="45.5146859936358" lon="10.784466314423256"><ele>162.0</ele><time>2026-04-19T18:23:08.999Z</time></trkpt><trkpt lat="45.51492101035676" lon="10.784411456575503"><ele>163.0</ele><time>2026-04-19T18:23:09.999Z</time></trkpt><trkpt lat="45.51516064141108" lon="10.784354438314352"><ele>164.0</ele><time>2026-04-19T18:23:10.999Z</time></trkpt><trkpt lat="45.51540131884538" lon="10.784292567081577"><ele>165.0</ele><time>2026-04-19T18:23:11.999Z</time></trkpt><trkpt lat="45.51564321347065" lon="10.784231742928"><ele>165.5</ele><time>2026-04-19T18:23:12.999Z</time></trkpt><trkpt lat="45.515884950710635" lon="10.784170522443317"><ele>166.0</ele><time>2026-04-19T18:23:13.999Z</time></trkpt><trkpt lat="45.516126780862486" lon="10.784110037114976"><ele>167.0</ele><time>2026-04-19T18:23:14.999Z</time></trkpt><trkpt lat="45.51636865431516" lon="10.784050725015952"><ele>168.0</ele><time>2026-04-19T18:23:15.999Z</time></trkpt><trkpt lat="45.51661004175423" lon="10.783991743436392"><ele>168.0</ele><time>2026-04-19T18:23:16.999Z</time></trkpt><trkpt lat="45.516851558903824" lon="10.783932187821517"><ele>168.0</ele><time>2026-04-19T18:23:17.999Z</time></trkpt><trkpt lat="45.517092673128275" lon="10.783870723807413"><ele>167.5</ele><time>2026-04-19T18:23:18.999Z</time></trkpt><trkpt lat="45.51733370040605" lon="10.783808585917456"><ele>167.0</ele><time>2026-04-19T18:23:19.999Z</time></trkpt><trkpt lat="45.517574333321946" lon="10.783743083006287"><ele>167.0</ele><time>2026-04-19T18:23:20.999Z</time></trkpt><trkpt lat="45.51781573297305" lon="10.783681283394943"><ele>167.0</ele><time>2026-04-19T18:23:21.999Z</time></trkpt><trkpt lat="45.51805700516327" lon="10.783620397920009"><ele>168.0</ele><time>2026-04-19T18:23:22.999Z</time></trkpt><trkpt lat="45.51829820438862" lon="10.7835589227943"><ele>169.0</ele><time>2026-04-19T18:23:23.999Z</time></trkpt><trkpt lat="45.51853925326553" lon="10.78349600280833"><ele>168.5</ele><time>2026-04-19T18:23:24.999Z</time></trkpt><trkpt lat="45.518780609075414" lon="10.78343347386955"><ele>168.0</ele><time>2026-04-19T18:23:25.999Z</time></trkpt><trkpt lat="45.51902133178692" lon="10.783369354443842"><ele>168.0</ele><time>2026-04-19T18:23:26.999Z</time></trkpt><trkpt lat="45.519262560492365" lon="10.783306049547777"><ele>168.0</ele><time>2026-04-19T18:23:27.999Z</time></trkpt><trkpt lat="45.519503675294935" lon="10.783244727907492"><ele>167.5</ele><time>2026-04-19T18:23:28.999Z</time></trkpt><trkpt lat="45.519744763942974" lon="10.783181091954486"><ele>167.0</ele><time>2026-04-19T18:23:29.999Z</time></trkpt><trkpt lat="45.51998638681232" lon="10.783123182030218"><ele>167.0</ele><time>2026-04-19T18:23:30.999Z</time></trkpt><trkpt lat="45.52022766477696" lon="10.783060760410626"><ele>167.0</ele><time>2026-04-19T18:23:31.999Z</time></trkpt><trkpt lat="45.520468359862" lon="10.78299945230734"><ele>166.5</ele><time>2026-04-19T18:23:32.999Z</time></trkpt><trkpt lat="45.52070981076306" lon="10.782938554104106"><ele>166.0</ele><time>2026-04-19T18:23:33.999Z</time></trkpt><trkpt lat="45.52095178633431" lon="10.782876274413226"><ele>166.0</ele><time>2026-04-19T18:23:34.999Z</time></trkpt><trkpt lat="45.52119285474614" lon="10.782814632840863"><ele>166.0</ele><time>2026-04-19T18:23:35.999Z</time></trkpt><trkpt lat="45.52143462701513" lon="10.782752508010224"><ele>166.5</ele><time>2026-04-19T18:23:36.999Z</time></trkpt><trkpt lat="45.52167531892494" lon="10.782689899977864"><ele>167.0</ele><time>2026-04-19T18:23:37.999Z</time></trkpt><trkpt lat="45.52191745235198" lon="10.782629767609533"><ele>167.5</ele><time>2026-04-19T18:23:38.999Z</time></trkpt><trkpt lat="45.52215831272225" lon="10.782568990732967"><ele>168.0</ele><time>2026-04-19T18:23:39.999Z</time></trkpt><trkpt lat="45.522398791571035" lon="10.78250661785392"><ele>168.0</ele><time>2026-04-19T18:23:40.999Z</time></trkpt><trkpt lat="45.52263911634566" lon="10.782442517861252"><ele>168.0</ele><time>2026-04-19T18:23:41.999Z</time></trkpt><trkpt lat="45.52288012034315" lon="10.782381892369006"><ele>166.0</ele><time>2026-04-19T18:23:42.999Z</time></trkpt><trkpt lat="45.52312140165541" lon="10.78232229566968"><ele>164.0</ele><time>2026-04-19T18:23:43.999Z</time></trkpt><trkpt lat="45.523362428871465" lon="10.782260126431517"><ele>164.0</ele><time>2026-04-19T18:23:44.999Z</time></trkpt><trkpt lat="45.523603769011295" lon="10.782198814510616"><ele>164.0</ele><time>2026-04-19T18:23:45.999Z</time></trkpt><trkpt lat="45.52384534654789" lon="10.782138286051621"><ele>164.0</ele><time>2026-04-19T18:23:46.999Z</time></trkpt><trkpt lat="45.524087376221026" lon="10.782080114323218"><ele>164.0</ele><time>2026-04-19T18:23:47.999Z</time></trkpt><trkpt lat="45.52432892163828" lon="10.782021874813566"><ele>162.0</ele><time>2026-04-19T18:23:48.999Z</time></trkpt><trkpt lat="45.524569874973295" lon="10.781961736118816"><ele>160.0</ele><time>2026-04-19T18:23:49.999Z</time></trkpt><trkpt lat="45.52481227854411" lon="10.781903555056164"><ele>160.5</ele><time>2026-04-19T18:23:50.999Z</time></trkpt><trkpt lat="45.52505276164267" lon="10.78183919698835"><ele>161.0</ele><time>2026-04-19T18:23:51.999Z</time></trkpt><trkpt lat="45.5252952234959" lon="10.781783090503746"><ele>160.5</ele><time>2026-04-19T18:23:52.999Z</time></trkpt><trkpt lat="45.525537121577" lon="10.781725739686603"><ele>160.0</ele><time>2026-04-19T18:23:53.999Z</time></trkpt><trkpt lat="45.52577884974094" lon="10.781672925160155"><ele>160.0</ele><time>2026-04-19T18:23:54.999Z</time></trkpt><trkpt lat="45.526020715382906" lon="10.781623456422654"><ele>160.0</ele><time>2026-04-19T18:23:55.999Z</time></trkpt><trkpt lat="45.52626291084958" lon="10.7815752292578"><ele>159.0</ele><time>2026-04-19T18:23:56.999Z</time></trkpt><trkpt lat="45.526505414705426" lon="10.781527508416259"><ele>158.0</ele><time>2026-04-19T18:23:57.999Z</time></trkpt><trkpt lat="45.526747965535804" lon="10.781485611207438"><ele>158.0</ele><time>2026-04-19T18:23:58.999Z</time></trkpt><trkpt lat="45.52699088171548" lon="10.781447450462764"><ele>158.0</ele><time>2026-04-19T18:23:59.999Z</time></trkpt><trkpt lat="45.52723424863188" lon="10.781413449822816"><ele>160.0</ele><time>2026-04-19T18:24:00.999Z</time></trkpt><trkpt lat="45.52747787650341" lon="10.781379677050268"><ele>162.0</ele><time>2026-04-19T18:24:01.999Z</time></trkpt><trkpt lat="45.52772116175781" lon="10.78134647165109"><ele>161.0</ele><time>2026-04-19T18:24:02.999Z</time></trkpt><trkpt lat="45.527964672512596" lon="10.781312349389284"><ele>160.0</ele><time>2026-04-19T18:24:03.999Z</time></trkpt><trkpt lat="45.52820872102627" lon="10.78127801493644"><ele>160.0</ele><time>2026-04-19T18:24:04.999Z</time></trkpt><trkpt lat="45.52845432529111" lon="10.781244611946187"><ele>160.0</ele><time>2026-04-19T18:24:05.999Z</time></trkpt><trkpt lat="45.52869613112765" lon="10.78120872396642"><ele>159.0</ele><time>2026-04-19T18:24:06.999Z</time></trkpt><trkpt lat="45.52893834341417" lon="10.78117256345267"><ele>158.0</ele><time>2026-04-19T18:24:07.999Z</time></trkpt><trkpt lat="45.529181065074006" lon="10.7811333419275"><ele>158.0</ele><time>2026-04-19T18:24:08.999Z</time></trkpt><trkpt lat="45.529423059443786" lon="10.78109733177485"><ele>158.0</ele><time>2026-04-19T18:24:09.999Z</time></trkpt><trkpt lat="45.52966635532548" lon="10.781064428382773"><ele>159.0</ele><time>2026-04-19T18:24:10.999Z</time></trkpt><trkpt lat="45.529908793534844" lon="10.781026325373759"><ele>160.0</ele><time>2026-04-19T18:24:11.999Z</time></trkpt><trkpt lat="45.53015120980112" lon="10.78099033995557"><ele>160.0</ele><time>2026-04-19T18:24:12.999Z</time></trkpt><trkpt lat="45.5303943983342" lon="10.78095718013437"><ele>160.0</ele><time>2026-04-19T18:24:13.999Z</time></trkpt><trkpt lat="45.53063635944951" lon="10.780920406250521"><ele>160.0</ele><time>2026-04-19T18:24:14.999Z</time></trkpt><trkpt lat="45.530878648044194" lon="10.780881115847077"><ele>160.0</ele><time>2026-04-19T18:24:15.999Z</time></trkpt><trkpt lat="45.531121664208946" lon="10.780847816289382"><ele>160.5</ele><time>2026-04-19T18:24:16.999Z</time></trkpt><trkpt lat="45.53136385621338" lon="10.780809551943962"><ele>161.0</ele><time>2026-04-19T18:24:17.999Z</time></trkpt><trkpt lat="45.53160614991155" lon="10.780773892397487"><ele>161.0</ele><time>2026-04-19T18:24:18.999Z</time></trkpt><trkpt lat="45.531849262335264" lon="10.780742199825221"><ele>161.0</ele><time>2026-04-19T18:24:19.999Z</time></trkpt><trkpt lat="45.5320927607022" lon="10.780705282808272"><ele>163.5</ele><time>2026-04-19T18:24:20.999Z</time></trkpt><trkpt lat="45.53233565506001" lon="10.780671362784988"><ele>166.0</ele><time>2026-04-19T18:24:21.999Z</time></trkpt><trkpt lat="45.53257922985377" lon="10.780638812583113"><ele>166.0</ele><time>2026-04-19T18:24:22.999Z</time></trkpt><trkpt lat="45.53282168866299" lon="10.780603473766185"><ele>166.0</ele><time>2026-04-19T18:24:23.999Z</time></trkpt><trkpt lat="45.53306405196588" lon="10.780570500053201"><ele>165.0</ele><time>2026-04-19T18:24:24.999Z</time></trkpt><trkpt lat="45.533307180313514" lon="10.780536790234482"><ele>164.0</ele><time>2026-04-19T18:24:25.999Z</time></trkpt><trkpt lat="45.53354955686422" lon="10.780501713050286"><ele>163.0</ele><time>2026-04-19T18:24:26.999Z</time></trkpt><trkpt lat="45.53379161574398" lon="10.780466742612983"><ele>162.0</ele><time>2026-04-19T18:24:27.999Z</time></trkpt><trkpt lat="45.53403440479669" lon="10.780431329242067"><ele>162.0</ele><time>2026-04-19T18:24:28.999Z</time></trkpt><trkpt lat="45.534276000430765" lon="10.78039497813902"><ele>162.0</ele><time>2026-04-19T18:24:29.999Z</time></trkpt><trkpt lat="45.534518571156944" lon="10.78035900135502"><ele>163.0</ele><time>2026-04-19T18:24:30.999Z</time></trkpt><trkpt lat="45.534760789758074" lon="10.780322012246588"><ele>164.0</ele><time>2026-04-19T18:24:31.999Z</time></trkpt><trkpt lat="45.53500423283791" lon="10.780286734911801"><ele>164.0</ele><time>2026-04-19T18:24:32.999Z</time></trkpt><trkpt lat="45.53524589624555" lon="10.780249432296367"><ele>164.0</ele><time>2026-04-19T18:24:33.999Z</time></trkpt><trkpt lat="45.53548915664248" lon="10.78021242351995"><ele>164.0</ele><time>2026-04-19T18:24:34.999Z</time></trkpt><trkpt lat="45.53573178032566" lon="10.780177682315966"><ele>164.0</ele><time>2026-04-19T18:24:35.999Z</time></trkpt><trkpt lat="45.53597298059729" lon="10.78014187714152"><ele>164.0</ele><time>2026-04-19T18:24:36.999Z</time></trkpt><trkpt lat="45.53621553228995" lon="10.780106668867923"><ele>164.0</ele><time>2026-04-19T18:24:37.999Z</time></trkpt><trkpt lat="45.53645782288047" lon="10.7800711246854"><ele>167.0</ele><time>2026-04-19T18:24:38.999Z</time></trkpt><trkpt lat="45.53670089181901" lon="10.780035457620396"><ele>170.0</ele><time>2026-04-19T18:24:39.999Z</time></trkpt><trkpt lat="45.536943793025344" lon="10.779999911612908"><ele>171.5</ele><time>2026-04-19T18:24:40.999Z</time></trkpt><trkpt lat="45.53718614922263" lon="10.77996511077484"><ele>173.0</ele><time>2026-04-19T18:24:41.999Z</time></trkpt><trkpt lat="45.53742953437969" lon="10.77993019890603"><ele>173.0</ele><time>2026-04-19T18:24:42.999Z</time></trkpt><trkpt lat="45.53767267710631" lon="10.779898160481332"><ele>173.0</ele><time>2026-04-19T18:24:43.999Z</time></trkpt><trkpt lat="45.53791699762873" lon="10.779869268938333"><ele>175.5</ele><time>2026-04-19T18:24:44.999Z</time></trkpt><trkpt lat="45.53816024530817" lon="10.779846218081419"><ele>178.0</ele><time>2026-04-19T18:24:45.999Z</time></trkpt><trkpt lat="45.538404643715474" lon="10.779830515027209"><ele>178.0</ele><time>2026-04-19T18:24:46.999Z</time></trkpt><trkpt lat="45.538648136430645" lon="10.779828120943124"><ele>178.0</ele><time>2026-04-19T18:24:47.999Z</time></trkpt><trkpt lat="45.53889480420781" lon="10.779827868379481"><ele>179.0</ele><time>2026-04-19T18:24:48.999Z</time></trkpt><trkpt lat="45.539145633486626" lon="10.779837084328236"><ele>180.0</ele><time>2026-04-19T18:24:49.999Z</time></trkpt><trkpt lat="45.53940013667272" lon="10.77985617928982"><ele>182.0</ele><time>2026-04-19T18:24:50.999Z</time></trkpt><trkpt lat="45.539659245499806" lon="10.77988862478555"><ele>184.0</ele><time>2026-04-19T18:24:51.999Z</time></trkpt><trkpt lat="45.539921119322926" lon="10.779932567789865"><ele>184.0</ele><time>2026-04-19T18:24:52.999Z</time></trkpt><trkpt lat="45.54018642769727" lon="10.779989203911457"><ele>184.0</ele><time>2026-04-19T18:24:53.999Z</time></trkpt><trkpt lat="45.5404521189198" lon="10.780057744524381"><ele>184.5</ele><time>2026-04-19T18:24:54.999Z</time></trkpt><trkpt lat="45.540715712539026" lon="10.780140651387955"><ele>185.0</ele><time>2026-04-19T18:24:55.999Z</time></trkpt><trkpt lat="45.54097582419506" lon="10.780234416961546"><ele>189.0</ele><time>2026-04-19T18:24:56.999Z</time></trkpt><trkpt lat="45.5412325487395" lon="10.780339226022281"><ele>193.0</ele><time>2026-04-19T18:24:57.999Z</time></trkpt><trkpt lat="45.54148496350973" lon="10.780453840530992"><ele>193.0</ele><time>2026-04-19T18:24:58.999Z</time></trkpt><trkpt lat="45.54173524772536" lon="10.780579912896487"><ele>193.0</ele><time>2026-04-19T18:24:59.999Z</time></trkpt><trkpt lat="45.54198371602917" lon="10.780711937414026"><ele>191.5</ele><time>2026-04-19T18:25:00.999Z</time></trkpt><trkpt lat="45.54222950843574" lon="10.780855759182092"><ele>190.0</ele><time>2026-04-19T18:25:01.999Z</time></trkpt><trkpt lat="45.54247103114896" lon="10.781011192609514"><ele>190.5</ele><time>2026-04-19T18:25:02.999Z</time></trkpt><trkpt lat="45.54271027385103" lon="10.781174203371028"><ele>191.0</ele><time>2026-04-19T18:25:03.999Z</time></trkpt><trkpt lat="45.54294638723709" lon="10.781347178330805"><ele>191.0</ele><time>2026-04-19T18:25:04.999Z</time></trkpt><trkpt lat="45.54318037241808" lon="10.78153019028038"><ele>191.0</ele><time>2026-04-19T18:25:05.999Z</time></trkpt><trkpt lat="45.543406967076265" lon="10.781729386958508"><ele>191.0</ele><time>2026-04-19T18:25:06.999Z</time></trkpt><trkpt lat="45.54362983287353" lon="10.78193611860419"><ele>191.0</ele><time>2026-04-19T18:25:07.999Z</time></trkpt><trkpt lat="45.54385101325966" lon="10.782149696190315"><ele>189.0</ele><time>2026-04-19T18:25:08.999Z</time></trkpt><trkpt lat="45.544064115738834" lon="10.782372561749487"><ele>187.0</ele><time>2026-04-19T18:25:09.999Z</time></trkpt><trkpt lat="45.54427497404957" lon="10.782605982766913"><ele>186.0</ele><time>2026-04-19T18:25:10.999Z</time></trkpt><trkpt lat="45.544481660564934" lon="10.782845960351043"><ele>185.0</ele><time>2026-04-19T18:25:11.999Z</time></trkpt><trkpt lat="45.54468281149165" lon="10.783094581282441"><ele>185.0</ele><time>2026-04-19T18:25:12.999Z</time></trkpt><trkpt lat="45.544877990455014" lon="10.783352997616651"><ele>185.0</ele><time>2026-04-19T18:25:13.999Z</time></trkpt><trkpt lat="45.54506787435591" lon="10.783615156904817"><ele>184.5</ele><time>2026-04-19T18:25:14.999Z</time></trkpt><trkpt lat="45.54525314550294" lon="10.78388898215721"><ele>184.0</ele><time>2026-04-19T18:25:15.999Z</time></trkpt><trkpt lat="45.54543415786338" lon="10.78416682446025"><ele>183.0</ele><time>2026-04-19T18:25:16.999Z</time></trkpt><trkpt lat="45.54560983586991" lon="10.784450362596177"><ele>182.0</ele><time>2026-04-19T18:25:17.999Z</time></trkpt><trkpt lat="45.54577986505938" lon="10.784738066788881"><ele>182.0</ele><time>2026-04-19T18:25:18.999Z</time></trkpt><trkpt lat="45.54594538209399" lon="10.785032637131481"><ele>182.0</ele><time>2026-04-19T18:25:19.999Z</time></trkpt><trkpt lat="45.54610892545917" lon="10.785329587889075"><ele>182.0</ele><time>2026-04-19T18:25:20.999Z</time></trkpt><trkpt lat="45.546269551803626" lon="10.785630130036113"><ele>182.0</ele><time>2026-04-19T18:25:21.999Z</time></trkpt><trkpt lat="45.54643089790671" lon="10.785930345632442"><ele>179.0</ele><time>2026-04-19T18:25:22.999Z</time></trkpt><trkpt lat="45.54659158796884" lon="10.78623191454805"><ele>176.0</ele><time>2026-04-19T18:25:23.999Z</time></trkpt><trkpt lat="45.54675182052294" lon="10.786534195876909"><ele>176.0</ele><time>2026-04-19T18:25:24.999Z</time></trkpt><trkpt lat="45.54691219599447" lon="10.786836549456062"><ele>176.0</ele><time>2026-04-19T18:25:25.999Z</time></trkpt><trkpt lat="45.54707337364047" lon="10.787136733008015"><ele>174.5</ele><time>2026-04-19T18:25:26.999Z</time></trkpt><trkpt lat="45.54723509170639" lon="10.787436015707195"><ele>173.0</ele><time>2026-04-19T18:25:27.999Z</time></trkpt><trkpt lat="45.54739521371428" lon="10.787734221277475"><ele>173.0</ele><time>2026-04-19T18:25:28.999Z</time></trkpt><trkpt lat="45.54755560448151" lon="10.788034467144017"><ele>173.0</ele><time>2026-04-19T18:25:29.999Z</time></trkpt><trkpt lat="45.54771554798625" lon="10.788335059037196"><ele>175.0</ele><time>2026-04-19T18:25:30.999Z</time></trkpt><trkpt lat="45.54787512233993" lon="10.78863432769148"><ele>177.0</ele><time>2026-04-19T18:25:31.999Z</time></trkpt><trkpt lat="45.548035263825355" lon="10.788937929077939"><ele>179.0</ele><time>2026-04-19T18:25:32.999Z</time></trkpt><trkpt lat="45.54819542338121" lon="10.78924076385063"><ele>181.0</ele><time>2026-04-19T18:25:33.999Z</time></trkpt><trkpt lat="45.54835691008401" lon="10.78954204266924"><ele>182.5</ele><time>2026-04-19T18:25:34.999Z</time></trkpt><trkpt lat="45.54851803133168" lon="10.78984238246985"><ele>184.0</ele><time>2026-04-19T18:25:35.999Z</time></trkpt><trkpt lat="45.54867987162677" lon="10.79014329891506"><ele>184.5</ele><time>2026-04-19T18:25:36.999Z</time></trkpt><trkpt lat="45.54883986346372" lon="10.790443974690524"><ele>185.0</ele><time>2026-04-19T18:25:37.999Z</time></trkpt><trkpt lat="45.548999879035854" lon="10.790742941274967"><ele>185.5</ele><time>2026-04-19T18:25:38.999Z</time></trkpt><trkpt lat="45.54916068311433" lon="10.79104303846629"><ele>186.0</ele><time>2026-04-19T18:25:39.999Z</time></trkpt><trkpt lat="45.54931637404071" lon="10.791334389630501"><ele>186.0</ele><time>2026-04-19T18:25:40.999Z</time></trkpt><trkpt lat="45.549467924881505" lon="10.791619521277305"><ele>186.0</ele><time>2026-04-19T18:25:41.999Z</time></trkpt><trkpt lat="45.54961571847611" lon="10.791898946000385"><ele>186.0</ele><time>2026-04-19T18:25:42.999Z</time></trkpt><trkpt lat="45.54976083855614" lon="10.792166584702121"><ele>186.0</ele><time>2026-04-19T18:25:43.999Z</time></trkpt><trkpt lat="45.54990227819176" lon="10.792429667197133"><ele>186.0</ele><time>2026-04-19T18:25:44.999Z</time></trkpt><trkpt lat="45.55004041733823" lon="10.79268830559263"><ele>186.0</ele><time>2026-04-19T18:25:45.999Z</time></trkpt><trkpt lat="45.55017904435386" lon="10.79294718153043"><ele>186.0</ele><time>2026-04-19T18:25:46.999Z</time></trkpt><trkpt lat="45.55032126899134" lon="10.79321051381596"><ele>186.0</ele><time>2026-04-19T18:25:47.999Z</time></trkpt><trkpt lat="45.55046792715572" lon="10.793477051055932"><ele>186.5</ele><time>2026-04-19T18:25:48.999Z</time></trkpt><trkpt lat="45.55061622891609" lon="10.793751512891786"><ele>187.0</ele><time>2026-04-19T18:25:49.999Z</time></trkpt><trkpt lat="45.55076678293966" lon="10.79403304719791"><ele>187.0</ele><time>2026-04-19T18:25:50.999Z</time></trkpt><trkpt lat="45.55092038154765" lon="10.794321740391581"><ele>187.0</ele><time>2026-04-19T18:25:51.999Z</time></trkpt><trkpt lat="45.55107786293429" lon="10.794616196585675"><ele>187.0</ele><time>2026-04-19T18:25:52.999Z</time></trkpt><trkpt lat="45.55123687923263" lon="10.794915803572186"><ele>187.0</ele><time>2026-04-19T18:25:53.999Z</time></trkpt><trkpt lat="45.55140213235039" lon="10.79521496218988"><ele>187.0</ele><time>2026-04-19T18:25:54.999Z</time></trkpt><trkpt lat="45.55157087519097" lon="10.795509454500925"><ele>187.0</ele><time>2026-04-19T18:25:55.999Z</time></trkpt><trkpt lat="45.55174481322213" lon="10.795799536130989"><ele>187.5</ele><time>2026-04-19T18:25:56.999Z</time></trkpt><trkpt lat="45.55192473199541" lon="10.796080935398573"><ele>188.0</ele><time>2026-04-19T18:25:57.999Z</time></trkpt><trkpt lat="45.552107927778465" lon="10.796354578795158"><ele>188.5</ele><time>2026-04-19T18:25:58.999Z</time></trkpt><trkpt lat="45.55229651901424" lon="10.796620544458262"><ele>189.0</ele><time>2026-04-19T18:25:59.999Z</time></trkpt><trkpt lat="45.55248708193088" lon="10.796877146481535"><ele>189.5</ele><time>2026-04-19T18:26:00.999Z</time></trkpt><trkpt lat="45.55267824762232" lon="10.797117907727415"><ele>190.0</ele><time>2026-04-19T18:26:01.999Z</time></trkpt><trkpt lat="45.552869236811325" lon="10.797346382377377"><ele>189.0</ele><time>2026-04-19T18:26:02.999Z</time></trkpt><trkpt lat="45.553061765731385" lon="10.797557019829098"><ele>188.0</ele><time>2026-04-19T18:26:03.999Z</time></trkpt><trkpt lat="45.55325251124561" lon="10.797756420942225"><ele>188.0</ele><time>2026-04-19T18:26:04.999Z</time></trkpt><trkpt lat="45.55344345142498" lon="10.797950980887881"><ele>188.0</ele><time>2026-04-19T18:26:05.999Z</time></trkpt><trkpt lat="45.553640247424866" lon="10.798141368248848"><ele>190.0</ele><time>2026-04-19T18:26:06.999Z</time></trkpt><trkpt lat="45.55384309908241" lon="10.798323434942091"><ele>192.0</ele><time>2026-04-19T18:26:07.999Z</time></trkpt><trkpt lat="45.5540500845803" lon="10.798498993735125"><ele>190.0</ele><time>2026-04-19T18:26:08.999Z</time></trkpt><trkpt lat="45.554261545520525" lon="10.798664773965118"><ele>188.0</ele><time>2026-04-19T18:26:09.999Z</time></trkpt><trkpt lat="45.55447571343169" lon="10.798822899321909"><ele>191.0</ele><time>2026-04-19T18:26:10.999Z</time></trkpt><trkpt lat="45.55469419434822" lon="10.798972738827642"><ele>194.0</ele><time>2026-04-19T18:26:11.999Z</time></trkpt><trkpt lat="45.55491595908547" lon="10.799113697260177"><ele>194.0</ele><time>2026-04-19T18:26:12.999Z</time></trkpt><trkpt lat="45.55514098987401" lon="10.799248319237734"><ele>194.0</ele><time>2026-04-19T18:26:13.999Z</time></trkpt><trkpt lat="45.5553696456934" lon="10.799377409075241"><ele>193.0</ele><time>2026-04-19T18:26:14.999Z</time></trkpt><trkpt lat="45.55560084829499" lon="10.799497782431231"><ele>192.0</ele><time>2026-04-19T18:26:15.999Z</time></trkpt><trkpt lat="45.555836331633934" lon="10.799608197232532"><ele>192.0</ele><time>2026-04-19T18:26:16.999Z</time></trkpt><trkpt lat="45.55607354438383" lon="10.799711284412346"><ele>192.0</ele><time>2026-04-19T18:26:17.999Z</time></trkpt><trkpt lat="45.556314361197686" lon="10.79980629004113"><ele>189.5</ele><time>2026-04-19T18:26:18.999Z</time></trkpt><trkpt lat="45.556557760304855" lon="10.79989285952145"><ele>187.0</ele><time>2026-04-19T18:26:19.999Z</time></trkpt><trkpt lat="45.55680343549716" lon="10.799971996687901"><ele>184.0</ele><time>2026-04-19T18:26:20.999Z</time></trkpt><trkpt lat="45.557052438826844" lon="10.800045778569443"><ele>181.0</ele><time>2026-04-19T18:26:21.999Z</time></trkpt><trkpt lat="45.55730136071125" lon="10.800116406240775"><ele>181.5</ele><time>2026-04-19T18:26:22.999Z</time></trkpt><trkpt lat="45.557553075420174" lon="10.800183653893598"><ele>182.0</ele><time>2026-04-19T18:26:23.999Z</time></trkpt><trkpt lat="45.55780410844538" lon="10.800250896713584"><ele>183.5</ele><time>2026-04-19T18:26:24.999Z</time></trkpt><trkpt lat="45.55805631739732" lon="10.80031713673999"><ele>185.0</ele><time>2026-04-19T18:26:25.999Z</time></trkpt><trkpt lat="45.55830949515526" lon="10.800385545519374"><ele>185.0</ele><time>2026-04-19T18:26:26.999Z</time></trkpt><trkpt lat="45.55856365692963" lon="10.800452620451601"><ele>185.0</ele><time>2026-04-19T18:26:27.999Z</time></trkpt><trkpt lat="45.55881726177187" lon="10.800523506530896"><ele>186.5</ele><time>2026-04-19T18:26:28.999Z</time></trkpt><trkpt lat="45.55906857685282" lon="10.80059359016556"><ele>188.0</ele><time>2026-04-19T18:26:29.999Z</time></trkpt><trkpt lat="45.559318976267384" lon="10.800664465786905"><ele>187.5</ele><time>2026-04-19T18:26:30.999Z</time></trkpt><trkpt lat="45.55956802835251" lon="10.80073560546044"><ele>187.0</ele><time>2026-04-19T18:26:31.999Z</time></trkpt><trkpt lat="45.55981562834954" lon="10.800800493802706"><ele>187.0</ele><time>2026-04-19T18:26:32.999Z</time></trkpt><trkpt lat="45.560060709232694" lon="10.800867160808195"><ele>187.0</ele><time>2026-04-19T18:26:33.999Z</time></trkpt><trkpt lat="45.56030410323615" lon="10.800937371218906"><ele>187.5</ele><time>2026-04-19T18:26:34.999Z</time></trkpt><trkpt lat="45.560544240923534" lon="10.801003898805243"><ele>188.0</ele><time>2026-04-19T18:26:35.999Z</time></trkpt><trkpt lat="45.56078381381576" lon="10.801068661336574"><ele>188.0</ele><time>2026-04-19T18:26:36.999Z</time></trkpt><trkpt lat="45.56102216014114" lon="10.801134049761504"><ele>188.0</ele><time>2026-04-19T18:26:37.999Z</time></trkpt><trkpt lat="45.56125522368203" lon="10.801196507886239"><ele>189.0</ele><time>2026-04-19T18:26:38.999Z</time></trkpt><trkpt lat="45.56149083579434" lon="10.801260638539226"><ele>190.0</ele><time>2026-04-19T18:26:39.999Z</time></trkpt><trkpt lat="45.56172576847216" lon="10.801323556739616"><ele>190.0</ele><time>2026-04-19T18:26:40.999Z</time></trkpt><trkpt lat="45.56195991505718" lon="10.80138625631035"><ele>190.0</ele><time>2026-04-19T18:26:41.999Z</time></trkpt><trkpt lat="45.56219450018037" lon="10.80144923784587"><ele>189.5</ele><time>2026-04-19T18:26:42.999Z</time></trkpt><trkpt lat="45.562429822495545" lon="10.801511930370705"><ele>189.0</ele><time>2026-04-19T18:26:43.999Z</time></trkpt><trkpt lat="45.562666179467136" lon="10.801574771806228"><ele>189.0</ele><time>2026-04-19T18:26:44.999Z</time></trkpt><trkpt lat="45.56290358912524" lon="10.80163973183122"><ele>189.0</ele><time>2026-04-19T18:26:45.999Z</time></trkpt><trkpt lat="45.56314156845296" lon="10.80170595773206"><ele>189.0</ele><time>2026-04-19T18:26:46.999Z</time></trkpt><trkpt lat="45.563380417765984" lon="10.801772184244168"><ele>189.0</ele><time>2026-04-19T18:26:47.999Z</time></trkpt><trkpt lat="45.56361976933713" lon="10.801837710068167"><ele>189.0</ele><time>2026-04-19T18:26:48.999Z</time></trkpt><trkpt lat="45.56386110154312" lon="10.801905132494799"><ele>189.0</ele><time>2026-04-19T18:26:49.999Z</time></trkpt><trkpt lat="45.56410289682843" lon="10.801971176125047"><ele>189.0</ele><time>2026-04-19T18:26:50.999Z</time></trkpt><trkpt lat="45.56434561209234" lon="10.802037492763445"><ele>189.0</ele><time>2026-04-19T18:26:51.999Z</time></trkpt><trkpt lat="45.56458948391422" lon="10.802103212964361"><ele>189.5</ele><time>2026-04-19T18:26:52.999Z</time></trkpt><trkpt lat="45.56483481555354" lon="10.802164644332457"><ele>190.0</ele><time>2026-04-19T18:26:53.999Z</time></trkpt><trkpt lat="45.56507978742202" lon="10.802224577440994"><ele>190.0</ele><time>2026-04-19T18:26:54.999Z</time></trkpt><trkpt lat="45.56532647262171" lon="10.80228056127496"><ele>190.0</ele><time>2026-04-19T18:26:55.999Z</time></trkpt><trkpt lat="45.56557230290617" lon="10.802333665946415"><ele>190.5</ele><time>2026-04-19T18:26:56.999Z</time></trkpt><trkpt lat="45.565818961741506" lon="10.802385725530845"><ele>191.0</ele><time>2026-04-19T18:26:57.999Z</time></trkpt><trkpt lat="45.56606520716767" lon="10.802437242349058"><ele>190.5</ele><time>2026-04-19T18:26:58.999Z</time></trkpt><trkpt lat="45.56631211762103" lon="10.80248908754953"><ele>190.0</ele><time>2026-04-19T18:26:59.999Z</time></trkpt><trkpt lat="45.566559673930094" lon="10.802540442808398"><ele>190.0</ele><time>2026-04-19T18:27:00.999Z</time></trkpt><trkpt lat="45.56680745715483" lon="10.802591530278997"><ele>190.0</ele><time>2026-04-19T18:27:01.999Z</time></trkpt><trkpt lat="45.56705518267066" lon="10.802643409618241"><ele>190.5</ele><time>2026-04-19T18:27:02.999Z</time></trkpt><trkpt lat="45.56730432329378" lon="10.802692033024126"><ele>191.0</ele><time>2026-04-19T18:27:03.999Z</time></trkpt><trkpt lat="45.56755304760223" lon="10.80274093646573"><ele>191.0</ele><time>2026-04-19T18:27:04.999Z</time></trkpt><trkpt lat="45.56780200378696" lon="10.80279062457446"><ele>191.0</ele><time>2026-04-19T18:27:05.999Z</time></trkpt><trkpt lat="45.568052190978804" lon="10.80284027542514"><ele>190.5</ele><time>2026-04-19T18:27:06.999Z</time></trkpt><trkpt lat="45.56830176574272" lon="10.802889578755606"><ele>190.0</ele><time>2026-04-19T18:27:07.999Z</time></trkpt><trkpt lat="45.56855252090628" lon="10.802936351246418"><ele>191.0</ele><time>2026-04-19T18:27:08.999Z</time></trkpt><trkpt lat="45.56880307189492" lon="10.802982665860073"><ele>192.0</ele><time>2026-04-19T18:27:09.999Z</time></trkpt><trkpt lat="45.569055048972054" lon="10.803028961214133"><ele>192.0</ele><time>2026-04-19T18:27:10.999Z</time></trkpt><trkpt lat="45.569305563557194" lon="10.803077724003277"><ele>192.0</ele><time>2026-04-19T18:27:11.999Z</time></trkpt><trkpt lat="45.56955762153073" lon="10.803126797912402"><ele>193.5</ele><time>2026-04-19T18:27:12.999Z</time></trkpt><trkpt lat="45.56980984666438" lon="10.80317802802051"><ele>195.0</ele><time>2026-04-19T18:27:13.999Z</time></trkpt><trkpt lat="45.570061323551194" lon="10.803229874446009"><ele>195.0</ele><time>2026-04-19T18:27:14.999Z</time></trkpt><trkpt lat="45.570313791272106" lon="10.803285461865208"><ele>195.0</ele><time>2026-04-19T18:27:15.999Z</time></trkpt><trkpt lat="45.570567197395185" lon="10.803344373542833"><ele>193.5</ele><time>2026-04-19T18:27:16.999Z</time></trkpt><trkpt lat="45.570820020441886" lon="10.80340787393792"><ele>192.0</ele><time>2026-04-19T18:27:17.999Z</time></trkpt><trkpt lat="45.57107252666676" lon="10.803477657485741"><ele>192.5</ele><time>2026-04-19T18:27:18.999Z</time></trkpt><trkpt lat="45.57132333636952" lon="10.803554413440162"><ele>193.0</ele><time>2026-04-19T18:27:19.999Z</time></trkpt><trkpt lat="45.57157185204051" lon="10.803635886058808"><ele>193.0</ele><time>2026-04-19T18:27:20.999Z</time></trkpt><trkpt lat="45.57181949824308" lon="10.803721086892665"><ele>193.0</ele><time>2026-04-19T18:27:21.999Z</time></trkpt><trkpt lat="45.572067021059375" lon="10.803810288372834"><ele>192.5</ele><time>2026-04-19T18:27:22.999Z</time></trkpt><trkpt lat="45.572314897604194" lon="10.803906233803307"><ele>192.0</ele><time>2026-04-19T18:27:23.999Z</time></trkpt><trkpt lat="45.57256129217216" lon="10.804010545704221"><ele>192.0</ele><time>2026-04-19T18:27:24.999Z</time></trkpt><trkpt lat="45.57280758762313" lon="10.804123765924041"><ele>192.0</ele><time>2026-04-19T18:27:25.999Z</time></trkpt><trkpt lat="45.57305024747311" lon="10.804245935376853"><ele>193.5</ele><time>2026-04-19T18:27:26.999Z</time></trkpt><trkpt lat="45.57329185440513" lon="10.804373485533095"><ele>195.0</ele><time>2026-04-19T18:27:27.999Z</time></trkpt><trkpt lat="45.57353292591949" lon="10.804507710328577"><ele>193.0</ele><time>2026-04-19T18:27:28.999Z</time></trkpt><trkpt lat="45.573771223946544" lon="10.804646982332587"><ele>191.0</ele><time>2026-04-19T18:27:29.999Z</time></trkpt><trkpt lat="45.57400939730834" lon="10.804790611207505"><ele>191.0</ele><time>2026-04-19T18:27:30.999Z</time></trkpt><trkpt lat="45.57424629377742" lon="10.804943623918476"><ele>191.0</ele><time>2026-04-19T18:27:31.999Z</time></trkpt><trkpt lat="45.57448467052544" lon="10.805102364553479"><ele>187.5</ele><time>2026-04-19T18:27:32.999Z</time></trkpt><trkpt lat="45.574715342689075" lon="10.80526087862929"><ele>184.0</ele><time>2026-04-19T18:27:33.999Z</time></trkpt><trkpt lat="45.57494304370675" lon="10.805428522169205"><ele>184.0</ele><time>2026-04-19T18:27:34.999Z</time></trkpt><trkpt lat="45.57516973263853" lon="10.805602864937136"><ele>184.0</ele><time>2026-04-19T18:27:35.999Z</time></trkpt><trkpt lat="45.575394229968396" lon="10.805783757847248"><ele>182.0</ele><time>2026-04-19T18:27:36.999Z</time></trkpt><trkpt lat="45.57561723700026" lon="10.80597261472061"><ele>180.0</ele><time>2026-04-19T18:27:37.999Z</time></trkpt><trkpt lat="45.57583781203962" lon="10.806163009006605"><ele>180.0</ele><time>2026-04-19T18:27:38.999Z</time></trkpt><trkpt lat="45.57605589783506" lon="10.806359876566361"><ele>180.0</ele><time>2026-04-19T18:27:39.999Z</time></trkpt><trkpt lat="45.57627187953333" lon="10.806561266027781"><ele>180.0</ele><time>2026-04-19T18:27:40.999Z</time></trkpt><trkpt lat="45.576484857292364" lon="10.806766994482928"><ele>180.0</ele><time>2026-04-19T18:27:41.999Z</time></trkpt><trkpt lat="45.576695007644915" lon="10.806978997461997"><ele>179.0</ele><time>2026-04-19T18:27:42.999Z</time></trkpt><trkpt lat="45.576902079187604" lon="10.807197252894266"><ele>178.0</ele><time>2026-04-19T18:27:43.999Z</time></trkpt><trkpt lat="45.57710616925009" lon="10.807419324117554"><ele>178.0</ele><time>2026-04-19T18:27:44.999Z</time></trkpt><trkpt lat="45.577306939289684" lon="10.807647515985272"><ele>178.0</ele><time>2026-04-19T18:27:45.999Z</time></trkpt><trkpt lat="45.57750569741814" lon="10.807881652291323"><ele>177.0</ele><time>2026-04-19T18:27:46.999Z</time></trkpt><trkpt lat="45.577700051622664" lon="10.808118510390821"><ele>176.0</ele><time>2026-04-19T18:27:47.999Z</time></trkpt><trkpt lat="45.57789210853025" lon="10.808364324613999"><ele>175.0</ele><time>2026-04-19T18:27:48.999Z</time></trkpt><trkpt lat="45.57808102302916" lon="10.808613709985005"><ele>174.0</ele><time>2026-04-19T18:27:49.999Z</time></trkpt><trkpt lat="45.5782681167208" lon="10.808865117890077"><ele>174.0</ele><time>2026-04-19T18:27:50.999Z</time></trkpt><trkpt lat="45.578452974212546" lon="10.809123564808601"><ele>174.0</ele><time>2026-04-19T18:27:51.999Z</time></trkpt><trkpt lat="45.57863342785955" lon="10.809387395581034"><ele>171.5</ele><time>2026-04-19T18:27:52.999Z</time></trkpt><trkpt lat="45.57881009298417" lon="10.809652547044358"><ele>169.0</ele><time>2026-04-19T18:27:53.999Z</time></trkpt><trkpt lat="45.5789850785474" lon="10.80992303888712"><ele>168.5</ele><time>2026-04-19T18:27:54.999Z</time></trkpt><trkpt lat="45.57915544083386" lon="10.810198558973376"><ele>168.0</ele><time>2026-04-19T18:27:55.999Z</time></trkpt><trkpt lat="45.57932147662433" lon="10.810478027974291"><ele>168.0</ele><time>2026-04-19T18:27:56.999Z</time></trkpt><trkpt lat="45.579485757644925" lon="10.810759896774954"><ele>168.0</ele><time>2026-04-19T18:27:57.999Z</time></trkpt><trkpt lat="45.579646623090866" lon="10.811045013156392"><ele>165.0</ele><time>2026-04-19T18:27:58.999Z</time></trkpt><trkpt lat="45.57980238971985" lon="10.811336993808593"><ele>162.0</ele><time>2026-04-19T18:27:59.999Z</time></trkpt><trkpt lat="45.57995542301081" lon="10.811631558803711"><ele>161.0</ele><time>2026-04-19T18:28:00.999Z</time></trkpt><trkpt lat="45.580102942978414" lon="10.811932481859996"><ele>160.0</ele><time>2026-04-19T18:28:01.999Z</time></trkpt><trkpt lat="45.58024813338387" lon="10.81223908865663"><ele>159.0</ele><time>2026-04-19T18:28:02.999Z</time></trkpt><trkpt lat="45.5803896746157" lon="10.812551152247222"><ele>158.0</ele><time>2026-04-19T18:28:03.999Z</time></trkpt><trkpt lat="45.580529012183" lon="10.812865507801769"><ele>156.5</ele><time>2026-04-19T18:28:04.999Z</time></trkpt><trkpt lat="45.58066216230129" lon="10.813185260037228"><ele>155.0</ele><time>2026-04-19T18:28:05.999Z</time></trkpt><trkpt lat="45.58079188262579" lon="10.8135071957172"><ele>155.0</ele><time>2026-04-19T18:28:06.999Z</time></trkpt><trkpt lat="45.580921079390244" lon="10.81383296891197"><ele>155.0</ele><time>2026-04-19T18:28:07.999Z</time></trkpt><trkpt lat="45.581045296644625" lon="10.814167890446859"><ele>154.0</ele><time>2026-04-19T18:28:08.999Z</time></trkpt><trkpt lat="45.58116539644483" lon="10.814507745017973"><ele>153.0</ele><time>2026-04-19T18:28:09.999Z</time></trkpt><trkpt lat="45.58127971792366" lon="10.814850207386309"><ele>151.5</ele><time>2026-04-19T18:28:10.999Z</time></trkpt><trkpt lat="45.58138951238329" lon="10.81519471685696"><ele>150.0</ele><time>2026-04-19T18:28:11.999Z</time></trkpt><trkpt lat="45.581493726218" lon="10.815542463727619"><ele>150.0</ele><time>2026-04-19T18:28:12.999Z</time></trkpt><trkpt lat="45.58159527728246" lon="10.815890324039866"><ele>150.0</ele><time>2026-04-19T18:28:13.999Z</time></trkpt><trkpt lat="45.58169153299565" lon="10.816240524801698"><ele>147.0</ele><time>2026-04-19T18:28:14.999Z</time></trkpt><trkpt lat="45.58178015360046" lon="10.816594530839174"><ele>144.0</ele><time>2026-04-19T18:28:15.999Z</time></trkpt><trkpt lat="45.58186982524156" lon="10.81695249177183"><ele>139.5</ele><time>2026-04-19T18:28:16.999Z</time></trkpt><trkpt lat="45.58195267370384" lon="10.817315293999242"><ele>135.0</ele><time>2026-04-19T18:28:17.999Z</time></trkpt><trkpt lat="45.58203374114719" lon="10.817680309760311"><ele>135.0</ele><time>2026-04-19T18:28:18.999Z</time></trkpt><trkpt lat="45.58210704275038" lon="10.818048665049089"><ele>135.0</ele><time>2026-04-19T18:28:19.999Z</time></trkpt><trkpt lat="45.582177914026765" lon="10.818417117775187"><ele>135.0</ele><time>2026-04-19T18:28:20.999Z</time></trkpt><trkpt lat="45.582243103694466" lon="10.818785867038313"><ele>135.0</ele><time>2026-04-19T18:28:21.999Z</time></trkpt><trkpt lat="45.58230397887709" lon="10.8191534687916"><ele>133.5</ele><time>2026-04-19T18:28:22.999Z</time></trkpt><trkpt lat="45.58236079272019" lon="10.819523973145554"><ele>132.0</ele><time>2026-04-19T18:28:23.999Z</time></trkpt><trkpt lat="45.5824153041943" lon="10.81989291046573"><ele>131.5</ele><time>2026-04-19T18:28:24.999Z</time></trkpt><trkpt lat="45.58246547872324" lon="10.820264791238406"><ele>131.0</ele><time>2026-04-19T18:28:25.999Z</time></trkpt><trkpt lat="45.58251711162633" lon="10.820636772451573"><ele>131.5</ele><time>2026-04-19T18:28:26.999Z</time></trkpt><trkpt lat="45.582570219223676" lon="10.821008766197156"><ele>132.0</ele><time>2026-04-19T18:28:27.999Z</time></trkpt><trkpt lat="45.58262429686206" lon="10.82138065070645"><ele>132.0</ele><time>2026-04-19T18:28:28.999Z</time></trkpt><trkpt lat="45.582676462887115" lon="10.82175254853887"><ele>132.0</ele><time>2026-04-19T18:28:29.999Z</time></trkpt><trkpt lat="45.582728087798365" lon="10.822124307019301"><ele>132.0</ele><time>2026-04-19T18:28:30.999Z</time></trkpt><trkpt lat="45.582779690452114" lon="10.822496447237958"><ele>132.0</ele><time>2026-04-19T18:28:31.999Z</time></trkpt><trkpt lat="45.582831393948666" lon="10.822868643275747"><ele>126.0</ele><time>2026-04-19T18:28:32.999Z</time></trkpt><trkpt lat="45.58288300661027" lon="10.823241962602093"><ele>120.0</ele><time>2026-04-19T18:28:33.999Z</time></trkpt><trkpt lat="45.58293437887677" lon="10.823613662630343"><ele>116.0</ele><time>2026-04-19T18:28:34.999Z</time></trkpt><trkpt lat="45.5829863156204" lon="10.82398606868405"><ele>112.0</ele><time>2026-04-19T18:28:35.999Z</time></trkpt><trkpt lat="45.58303944473577" lon="10.824357726816862"><ele>112.0</ele><time>2026-04-19T18:28:36.999Z</time></trkpt><trkpt lat="45.5830955883062" lon="10.824728130305786"><ele>112.0</ele><time>2026-04-19T18:28:37.999Z</time></trkpt><trkpt lat="45.58315656707368" lon="10.825097260508674"><ele>108.5</ele><time>2026-04-19T18:28:38.999Z</time></trkpt><trkpt lat="45.58322231650739" lon="10.825464992951266"><ele>105.0</ele><time>2026-04-19T18:28:39.999Z</time></trkpt><trkpt lat="45.583295978452306" lon="10.82582988162545"><ele>102.0</ele><time>2026-04-19T18:28:40.999Z</time></trkpt><trkpt lat="45.583375861286804" lon="10.826192063023088"><ele>99.0</ele><time>2026-04-19T18:28:41.999Z</time></trkpt><trkpt lat="45.5834601878939" lon="10.82655215725545"><ele>97.0</ele><time>2026-04-19T18:28:42.999Z</time></trkpt><trkpt lat="45.58355149706461" lon="10.82690894321588"><ele>95.0</ele><time>2026-04-19T18:28:43.999Z</time></trkpt><trkpt lat="45.583646195905516" lon="10.827263294387507"><ele>96.5</ele><time>2026-04-19T18:28:44.999Z</time></trkpt><trkpt lat="45.583747419447974" lon="10.82761402339471"><ele>98.0</ele><time>2026-04-19T18:28:45.999Z</time></trkpt><trkpt lat="45.58385466896268" lon="10.82796027139721"><ele>99.5</ele><time>2026-04-19T18:28:46.999Z</time></trkpt><trkpt lat="45.583967604910626" lon="10.828302042603651"><ele>101.0</ele><time>2026-04-19T18:28:47.999Z</time></trkpt><trkpt lat="45.58408623828482" lon="10.828640579656636"><ele>101.0</ele><time>2026-04-19T18:28:48.999Z</time></trkpt><trkpt lat="45.5842099051026" lon="10.828974627027382"><ele>101.0</ele><time>2026-04-19T18:28:49.999Z</time></trkpt><trkpt lat="45.58434055588312" lon="10.829303399953352"><ele>101.5</ele><time>2026-04-19T18:28:50.999Z</time></trkpt><trkpt lat="45.5844775367718" lon="10.829627139613658"><ele>102.0</ele><time>2026-04-19T18:28:51.999Z</time></trkpt><trkpt lat="45.584621314814" lon="10.829944637995057"><ele>102.0</ele><time>2026-04-19T18:28:52.999Z</time></trkpt><trkpt lat="45.58476959122985" lon="10.83025811554153"><ele>102.0</ele><time>2026-04-19T18:28:53.999Z</time></trkpt><trkpt lat="45.58492207193877" lon="10.830567253969647"><ele>102.0</ele><time>2026-04-19T18:28:54.999Z</time></trkpt><trkpt lat="45.585081390224445" lon="10.83086948677188"><ele>102.0</ele><time>2026-04-19T18:28:55.999Z</time></trkpt><trkpt lat="45.58524440298122" lon="10.831166842333502"><ele>101.0</ele><time>2026-04-19T18:28:56.999Z</time></trkpt><trkpt lat="45.58541434751039" lon="10.831459639996266"><ele>100.0</ele><time>2026-04-19T18:28:57.999Z</time></trkpt><trkpt lat="45.58558872783072" lon="10.831744398656088"><ele>101.5</ele><time>2026-04-19T18:28:58.999Z</time></trkpt><trkpt lat="45.58576586174261" lon="10.83202489569986"><ele>103.0</ele><time>2026-04-19T18:28:59.999Z</time></trkpt><trkpt lat="45.585949614761596" lon="10.83229893871594"><ele>103.0</ele><time>2026-04-19T18:29:00.999Z</time></trkpt><trkpt lat="45.58613675478382" lon="10.83256718305716"><ele>103.0</ele><time>2026-04-19T18:29:01.999Z</time></trkpt><trkpt lat="45.58632758465717" lon="10.83282705643897"><ele>103.0</ele><time>2026-04-19T18:29:02.999Z</time></trkpt><trkpt lat="45.58652291674964" lon="10.833081593054496"><ele>103.0</ele><time>2026-04-19T18:29:03.999Z</time></trkpt><trkpt lat="45.5867231989571" lon="10.833327741006668"><ele>103.5</ele><time>2026-04-19T18:29:04.999Z</time></trkpt><trkpt lat="45.58692791011474" lon="10.833567874229661"><ele>104.0</ele><time>2026-04-19T18:29:05.999Z</time></trkpt><trkpt lat="45.58713706724047" lon="10.83380256473374"><ele>103.0</ele><time>2026-04-19T18:29:06.999Z</time></trkpt><trkpt lat="45.58734978314911" lon="10.834027189544937"><ele>102.0</ele><time>2026-04-19T18:29:07.999Z</time></trkpt><trkpt lat="45.587565840200774" lon="10.834245885916683"><ele>102.0</ele><time>2026-04-19T18:29:08.999Z</time></trkpt><trkpt lat="45.58778713097025" lon="10.83445375040207"><ele>102.0</ele><time>2026-04-19T18:29:09.999Z</time></trkpt><trkpt lat="45.588011225304115" lon="10.834653617040669"><ele>103.0</ele><time>2026-04-19T18:29:10.999Z</time></trkpt><trkpt lat="45.58823836701588" lon="10.834846461330212"><ele>104.0</ele><time>2026-04-19T18:29:11.999Z</time></trkpt><trkpt lat="45.58846736712838" lon="10.835031993480523"><ele>103.5</ele><time>2026-04-19T18:29:12.999Z</time></trkpt><trkpt lat="45.588701763424964" lon="10.835209572522361"><ele>103.0</ele><time>2026-04-19T18:29:13.999Z</time></trkpt><trkpt lat="45.588937981580045" lon="10.83537996966893"><ele>103.0</ele><time>2026-04-19T18:29:14.999Z</time></trkpt><trkpt lat="45.589176289999436" lon="10.835544466736607"><ele>103.0</ele><time>2026-04-19T18:29:15.999Z</time></trkpt><trkpt lat="45.589417074371504" lon="10.83570303337284"><ele>103.5</ele><time>2026-04-19T18:29:16.999Z</time></trkpt><trkpt lat="45.589661486583346" lon="10.835851611145717"><ele>104.0</ele><time>2026-04-19T18:29:17.999Z</time></trkpt><trkpt lat="45.589906675853086" lon="10.835994882240064"><ele>104.0</ele><time>2026-04-19T18:29:18.999Z</time></trkpt><trkpt lat="45.59015342814908" lon="10.83613538994604"><ele>104.0</ele><time>2026-04-19T18:29:19.999Z</time></trkpt><trkpt lat="45.590401220772115" lon="10.836270812519391"><ele>106.0</ele><time>2026-04-19T18:29:20.999Z</time></trkpt><trkpt lat="45.59064943139792" lon="10.836407365181488"><ele>108.0</ele><time>2026-04-19T18:29:21.999Z</time></trkpt><trkpt lat="45.59089666031768" lon="10.836544460250868"><ele>108.0</ele><time>2026-04-19T18:29:22.999Z</time></trkpt><trkpt lat="45.59114572565134" lon="10.8366805677984"><ele>108.0</ele><time>2026-04-19T18:29:23.999Z</time></trkpt><trkpt lat="45.59139181895809" lon="10.836817939444625"><ele>113.0</ele><time>2026-04-19T18:29:24.999Z</time></trkpt><trkpt lat="45.59163049988909" lon="10.83695208129096"><ele>118.0</ele><time>2026-04-19T18:29:25.999Z</time></trkpt><trkpt lat="45.59186241614875" lon="10.837083647840903"><ele>121.5</ele><time>2026-04-19T18:29:26.999Z</time></trkpt><trkpt lat="45.592088340618886" lon="10.837210470799434"><ele>125.0</ele><time>2026-04-19T18:29:27.999Z</time></trkpt><trkpt lat="45.59230872606588" lon="10.837332147061602"><ele>125.0</ele><time>2026-04-19T18:29:28.999Z</time></trkpt><trkpt lat="45.59252643790831" lon="10.837452656777675"><ele>125.0</ele><time>2026-04-19T18:29:29.999Z</time></trkpt><trkpt lat="45.592746615787895" lon="10.837578337715508"><ele>125.5</ele><time>2026-04-19T18:29:30.999Z</time></trkpt><trkpt lat="45.59297144727418" lon="10.837703242373275"><ele>126.0</ele><time>2026-04-19T18:29:31.999Z</time></trkpt><trkpt lat="45.59320051806426" lon="10.837833334002863"><ele>126.0</ele><time>2026-04-19T18:29:32.999Z</time></trkpt><trkpt lat="45.5934342184225" lon="10.837965820246264"><ele>126.0</ele><time>2026-04-19T18:29:33.999Z</time></trkpt><trkpt lat="45.59367041596523" lon="10.838107585318518"><ele>126.0</ele><time>2026-04-19T18:29:34.999Z</time></trkpt><trkpt lat="45.59389829984029" lon="10.83825115782327"><ele>126.0</ele><time>2026-04-19T18:29:35.999Z</time></trkpt><trkpt lat="45.59412046575423" lon="10.838391960096887"><ele>126.5</ele><time>2026-04-19T18:29:36.999Z</time></trkpt><trkpt lat="45.59433604628573" lon="10.838540494217877"><ele>127.0</ele><time>2026-04-19T18:29:37.999Z</time></trkpt><trkpt lat="45.594551427110666" lon="10.83868520654852"><ele>127.0</ele><time>2026-04-19T18:29:38.999Z</time></trkpt><trkpt lat="45.594766937309195" lon="10.838834697895713"><ele>127.0</ele><time>2026-04-19T18:29:39.999Z</time></trkpt><trkpt lat="45.594982373187904" lon="10.83899226452833"><ele>127.0</ele><time>2026-04-19T18:29:40.999Z</time></trkpt><trkpt lat="45.595198039706204" lon="10.839154198847318"><ele>127.0</ele><time>2026-04-19T18:29:41.999Z</time></trkpt><trkpt lat="45.59541227822927" lon="10.83932367969159"><ele>127.5</ele><time>2026-04-19T18:29:42.999Z</time></trkpt><trkpt lat="45.59562667277895" lon="10.83949744543731"><ele>128.0</ele><time>2026-04-19T18:29:43.999Z</time></trkpt><trkpt lat="45.59583873187892" lon="10.8396747915483"><ele>128.0</ele><time>2026-04-19T18:29:44.999Z</time></trkpt><trkpt lat="45.596050854443874" lon="10.839853027545741"><ele>128.0</ele><time>2026-04-19T18:29:45.999Z</time></trkpt><trkpt lat="45.59625931858788" lon="10.840039356941858"><ele>127.5</ele><time>2026-04-19T18:29:46.999Z</time></trkpt><trkpt lat="45.59646805765132" lon="10.840226112465691"><ele>127.0</ele><time>2026-04-19T18:29:47.999Z</time></trkpt><trkpt lat="45.59667494562831" lon="10.840412945583815"><ele>127.0</ele><time>2026-04-19T18:29:48.999Z</time></trkpt><trkpt lat="45.59687901757089" lon="10.84060601622391"><ele>127.0</ele><time>2026-04-19T18:29:49.999Z</time></trkpt><trkpt lat="45.597084862421184" lon="10.840792723485988"><ele>127.0</ele><time>2026-04-19T18:29:50.999Z</time></trkpt><trkpt lat="45.597291228995" lon="10.840981924188045"><ele>127.0</ele><time>2026-04-19T18:29:51.999Z</time></trkpt><trkpt lat="45.597495948030826" lon="10.841172209866198"><ele>127.0</ele><time>2026-04-19T18:29:52.999Z</time></trkpt><trkpt lat="45.59770253489852" lon="10.841360799722146"><ele>127.0</ele><time>2026-04-19T18:29:53.999Z</time></trkpt><trkpt lat="45.59790998929334" lon="10.841547662022556"><ele>126.5</ele><time>2026-04-19T18:29:54.999Z</time></trkpt><trkpt lat="45.59811830719449" lon="10.84173553593715"><ele>126.0</ele><time>2026-04-19T18:29:55.999Z</time></trkpt><trkpt lat="45.598322958850424" lon="10.841928572100796"><ele>125.5</ele><time>2026-04-19T18:29:56.999Z</time></trkpt><trkpt lat="45.59852884940832" lon="10.84212235785372"><ele>125.0</ele><time>2026-04-19T18:29:57.999Z</time></trkpt><trkpt lat="45.59873563527655" lon="10.842312873171185"><ele>125.0</ele><time>2026-04-19T18:29:58.999Z</time></trkpt><trkpt lat="45.59894120100131" lon="10.842504496279124"><ele>125.0</ele><time>2026-04-19T18:30:00.115Z</time></trkpt><trkpt lat="45.59914749371578" lon="10.842695771219443"><ele>124.5</ele><time>2026-04-19T18:30:00.999Z</time></trkpt><trkpt lat="45.59935582247315" lon="10.842886158025639"><ele>124.0</ele><time>2026-04-19T18:30:01.999Z</time></trkpt><trkpt lat="45.59956244695648" lon="10.843074811604664"><ele>126.0</ele><time>2026-04-19T18:30:02.999Z</time></trkpt><trkpt lat="45.599769593348114" lon="10.843263365513888"><ele>128.0</ele><time>2026-04-19T18:30:03.999Z</time></trkpt><trkpt lat="45.59997667930373" lon="10.843450866493578"><ele>126.5</ele><time>2026-04-19T18:30:04.999Z</time></trkpt><trkpt lat="45.600183229001075" lon="10.843639160999729"><ele>125.0</ele><time>2026-04-19T18:30:05.999Z</time></trkpt><trkpt lat="45.6003899314497" lon="10.843827914677764"><ele>125.0</ele><time>2026-04-19T18:30:06.999Z</time></trkpt><trkpt lat="45.6005963404361" lon="10.844016293636246"><ele>125.0</ele><time>2026-04-19T18:30:07.999Z</time></trkpt><trkpt lat="45.600803215915725" lon="10.844204831330844"><ele>125.0</ele><time>2026-04-19T18:30:08.999Z</time></trkpt><trkpt lat="45.60100923124586" lon="10.844394222982306"><ele>125.0</ele><time>2026-04-19T18:30:09.999Z</time></trkpt><trkpt lat="45.6012148474528" lon="10.844583542031911"><ele>125.0</ele><time>2026-04-19T18:30:10.999Z</time></trkpt><trkpt lat="45.601420745847335" lon="10.844772462299483"><ele>125.0</ele><time>2026-04-19T18:30:11.999Z</time></trkpt><trkpt lat="45.601627042817185" lon="10.844958898700153"><ele>125.0</ele><time>2026-04-19T18:30:12.999Z</time></trkpt><trkpt lat="45.60183374007988" lon="10.845148245954785"><ele>125.0</ele><time>2026-04-19T18:30:13.999Z</time></trkpt><trkpt lat="45.60204079208874" lon="10.845335722505304"><ele>125.0</ele><time>2026-04-19T18:30:14.999Z</time></trkpt><trkpt lat="45.60224770424883" lon="10.845523660045092"><ele>125.0</ele><time>2026-04-19T18:30:15.999Z</time></trkpt><trkpt lat="45.60245380986837" lon="10.84571200362695"><ele>125.0</ele><time>2026-04-19T18:30:16.999Z</time></trkpt><trkpt lat="45.60266081946866" lon="10.845900935640072"><ele>125.0</ele><time>2026-04-19T18:30:17.999Z</time></trkpt><trkpt lat="45.60286847532635" lon="10.846088687973644"><ele>120.5</ele><time>2026-04-19T18:30:18.999Z</time></trkpt><trkpt lat="45.60307594419247" lon="10.846278094759013"><ele>116.0</ele><time>2026-04-19T18:30:19.999Z</time></trkpt><trkpt lat="45.60328231975755" lon="10.84646726774452"><ele>116.0</ele><time>2026-04-19T18:30:20.999Z</time></trkpt><trkpt lat="45.6034890894785" lon="10.846655830351002"><ele>116.0</ele><time>2026-04-19T18:30:21.999Z</time></trkpt><trkpt lat="45.603696510211584" lon="10.84684318372717"><ele>116.5</ele><time>2026-04-19T18:30:22.999Z</time></trkpt><trkpt lat="45.60390378948708" lon="10.847029234851307"><ele>117.0</ele><time>2026-04-19T18:30:23.999Z</time></trkpt><trkpt lat="45.60411148793959" lon="10.847212595743162"><ele>117.0</ele><time>2026-04-19T18:30:24.999Z</time></trkpt><trkpt lat="45.604321401096605" lon="10.847396516313733"><ele>117.0</ele><time>2026-04-19T18:30:25.999Z</time></trkpt><trkpt lat="45.60452967263607" lon="10.84757803448145"><ele>116.5</ele><time>2026-04-19T18:30:26.999Z</time></trkpt><trkpt lat="45.60473936110962" lon="10.847759102781062"><ele>116.0</ele><time>2026-04-19T18:30:27.999Z</time></trkpt><trkpt lat="45.60495003407607" lon="10.847936987591407"><ele>116.0</ele><time>2026-04-19T18:30:28.999Z</time></trkpt><trkpt lat="45.60516140476671" lon="10.848111468904106"><ele>116.0</ele><time>2026-04-19T18:30:29.999Z</time></trkpt><trkpt lat="45.60537430414101" lon="10.848281626023372"><ele>115.0</ele><time>2026-04-19T18:30:30.999Z</time></trkpt><trkpt lat="45.60558929147414" lon="10.84845031703363"><ele>114.0</ele><time>2026-04-19T18:30:31.999Z</time></trkpt><trkpt lat="45.60580650665518" lon="10.848613989545468"><ele>114.0</ele><time>2026-04-19T18:30:32.999Z</time></trkpt><trkpt lat="45.60602463975236" lon="10.848775939779292"><ele>114.0</ele><time>2026-04-19T18:30:33.999Z</time></trkpt><trkpt lat="45.606242140084134" lon="10.848935877729735"><ele>115.5</ele><time>2026-04-19T18:30:34.999Z</time></trkpt><trkpt lat="45.60646142772129" lon="10.849092094994383"><ele>117.0</ele><time>2026-04-19T18:30:35.999Z</time></trkpt><trkpt lat="45.60668089909934" lon="10.849247610121465"><ele>117.0</ele><time>2026-04-19T18:30:36.999Z</time></trkpt><trkpt lat="45.60690114465481" lon="10.84939809927383"><ele>117.0</ele><time>2026-04-19T18:30:37.999Z</time></trkpt><trkpt lat="45.607122987209806" lon="10.84954540450849"><ele>117.0</ele><time>2026-04-19T18:30:38.999Z</time></trkpt><trkpt lat="45.607346287968994" lon="10.849692501895838"><ele>117.0</ele><time>2026-04-19T18:30:39.999Z</time></trkpt><trkpt lat="45.60756986223555" lon="10.84983387270024"><ele>117.0</ele><time>2026-04-19T18:30:40.999Z</time></trkpt><trkpt lat="45.6077957257147" lon="10.849969054637741"><ele>117.0</ele><time>2026-04-19T18:30:41.999Z</time></trkpt><trkpt lat="45.608022797851596" lon="10.850104382904046"><ele>114.5</ele><time>2026-04-19T18:30:42.999Z</time></trkpt><trkpt lat="45.60824998533356" lon="10.850234839756194"><ele>112.0</ele><time>2026-04-19T18:30:43.999Z</time></trkpt><trkpt lat="45.608478358255056" lon="10.850363166928005"><ele>115.0</ele><time>2026-04-19T18:30:44.999Z</time></trkpt><trkpt lat="45.608707762572365" lon="10.850491144935575"><ele>118.0</ele><time>2026-04-19T18:30:45.999Z</time></trkpt><trkpt lat="45.60893755117847" lon="10.85061603222272"><ele>118.0</ele><time>2026-04-19T18:30:46.999Z</time></trkpt><trkpt lat="45.60916772901197" lon="10.850738332205392"><ele>118.0</ele><time>2026-04-19T18:30:47.999Z</time></trkpt><trkpt lat="45.60939905259388" lon="10.85085906783103"><ele>115.0</ele><time>2026-04-19T18:30:48.999Z</time></trkpt><trkpt lat="45.609629653207925" lon="10.85097672518783"><ele>112.0</ele><time>2026-04-19T18:30:49.999Z</time></trkpt><trkpt lat="45.60986062305287" lon="10.851095399692307"><ele>112.0</ele><time>2026-04-19T18:30:50.999Z</time></trkpt><trkpt lat="45.610094034370036" lon="10.851215907213032"><ele>112.0</ele><time>2026-04-19T18:30:51.999Z</time></trkpt><trkpt lat="45.61033135022406" lon="10.85133948592557"><ele>111.0</ele><time>2026-04-19T18:30:52.999Z</time></trkpt><trkpt lat="45.61057068900605" lon="10.851474800624143"><ele>110.0</ele><time>2026-04-19T18:30:53.999Z</time></trkpt><trkpt lat="45.610812883758584" lon="10.851614829319775"><ele>110.0</ele><time>2026-04-19T18:30:54.999Z</time></trkpt><trkpt lat="45.611055007483635" lon="10.851766930046685"><ele>110.0</ele><time>2026-04-19T18:30:55.999Z</time></trkpt><trkpt lat="45.61129194498299" lon="10.851929501545364"><ele>109.0</ele><time>2026-04-19T18:30:56.999Z</time></trkpt><trkpt lat="45.611526704898786" lon="10.852100453103212"><ele>108.0</ele><time>2026-04-19T18:30:57.999Z</time></trkpt><trkpt lat="45.61175892806155" lon="10.852278079954662"><ele>108.0</ele><time>2026-04-19T18:30:58.999Z</time></trkpt><trkpt lat="45.611989863943215" lon="10.852460647080402"><ele>108.0</ele><time>2026-04-19T18:30:59.999Z</time></trkpt><trkpt lat="45.61221489890256" lon="10.85265435356425"><ele>106.0</ele><time>2026-04-19T18:31:00.999Z</time></trkpt><trkpt lat="45.61243777689335" lon="10.852856114886244"><ele>104.0</ele><time>2026-04-19T18:31:01.999Z</time></trkpt><trkpt lat="45.612657306505916" lon="10.85306242730134"><ele>104.5</ele><time>2026-04-19T18:31:02.999Z</time></trkpt><trkpt lat="45.61287419467256" lon="10.85327473985458"><ele>105.0</ele><time>2026-04-19T18:31:03.999Z</time></trkpt><trkpt lat="45.61308979042518" lon="10.853487973144045"><ele>105.0</ele><time>2026-04-19T18:31:04.999Z</time></trkpt><trkpt lat="45.613306005395884" lon="10.853703340869206"><ele>105.0</ele><time>2026-04-19T18:31:05.999Z</time></trkpt><trkpt lat="45.61351657582205" lon="10.853914834868256"><ele>107.0</ele><time>2026-04-19T18:31:06.999Z</time></trkpt><trkpt lat="45.61372381835774" lon="10.854119885454553"><ele>109.0</ele><time>2026-04-19T18:31:07.999Z</time></trkpt><trkpt lat="45.613926435839396" lon="10.854318499726817"><ele>113.0</ele><time>2026-04-19T18:31:08.999Z</time></trkpt><trkpt lat="45.61412585214042" lon="10.854511291283757"><ele>117.0</ele><time>2026-04-19T18:31:09.999Z</time></trkpt><trkpt lat="45.614327959710685" lon="10.854707855033691"><ele>117.5</ele><time>2026-04-19T18:31:10.999Z</time></trkpt><trkpt lat="45.614530941441124" lon="10.85490985788455"><ele>118.0</ele><time>2026-04-19T18:31:11.999Z</time></trkpt><trkpt lat="45.61473789722689" lon="10.855116195293753"><ele>119.0</ele><time>2026-04-19T18:31:12.999Z</time></trkpt><trkpt lat="45.61494805951047" lon="10.855328380726762"><ele>120.0</ele><time>2026-04-19T18:31:13.999Z</time></trkpt><trkpt lat="45.61516164921931" lon="10.855539524726076"><ele>119.0</ele><time>2026-04-19T18:31:14.999Z</time></trkpt><trkpt lat="45.615367519067455" lon="10.855744932734648"><ele>118.0</ele><time>2026-04-19T18:31:15.999Z</time></trkpt><trkpt lat="45.615572060478826" lon="10.85594623832672"><ele>118.5</ele><time>2026-04-19T18:31:16.999Z</time></trkpt><trkpt lat="45.61577588031581" lon="10.856149073940474"><ele>119.0</ele><time>2026-04-19T18:31:17.999Z</time></trkpt><trkpt lat="45.61598015436362" lon="10.856350782047732"><ele>118.0</ele><time>2026-04-19T18:31:18.999Z</time></trkpt><trkpt lat="45.61618403229123" lon="10.856556320508476"><ele>117.0</ele><time>2026-04-19T18:31:19.999Z</time></trkpt><trkpt lat="45.61639009887824" lon="10.856759810456802"><ele>118.5</ele><time>2026-04-19T18:31:20.999Z</time></trkpt><trkpt lat="45.616596812973754" lon="10.856963027495244"><ele>120.0</ele><time>2026-04-19T18:31:21.999Z</time></trkpt><trkpt lat="45.6168052952018" lon="10.857166651784961"><ele>119.5</ele><time>2026-04-19T18:31:22.999Z</time></trkpt><trkpt lat="45.61701431960361" lon="10.857368179254099"><ele>119.0</ele><time>2026-04-19T18:31:23.999Z</time></trkpt><trkpt lat="45.61722241578038" lon="10.857570329260165"><ele>119.5</ele><time>2026-04-19T18:31:24.999Z</time></trkpt><trkpt lat="45.61743009577356" lon="10.857774823246022"><ele>120.0</ele><time>2026-04-19T18:31:25.999Z</time></trkpt><trkpt lat="45.61763750424971" lon="10.857978556041228"><ele>118.5</ele><time>2026-04-19T18:31:26.999Z</time></trkpt><trkpt lat="45.61784499132606" lon="10.858183028842147"><ele>117.0</ele><time>2026-04-19T18:31:27.999Z</time></trkpt><trkpt lat="45.618051388729135" lon="10.858385766877541"><ele>114.5</ele><time>2026-04-19T18:31:28.999Z</time></trkpt><trkpt lat="45.61825773515651" lon="10.858589243301344"><ele>112.0</ele><time>2026-04-19T18:31:29.999Z</time></trkpt><trkpt lat="45.6184635430148" lon="10.858793048929325"><ele>108.0</ele><time>2026-04-19T18:31:30.999Z</time></trkpt><trkpt lat="45.61867103365087" lon="10.858996447306879"><ele>104.0</ele><time>2026-04-19T18:31:31.999Z</time></trkpt><trkpt lat="45.61887898253212" lon="10.85919906012331"><ele>105.0</ele><time>2026-04-19T18:31:32.999Z</time></trkpt><trkpt lat="45.619085915443755" lon="10.859401740191922"><ele>106.0</ele><time>2026-04-19T18:31:33.999Z</time></trkpt><trkpt lat="45.619292128829805" lon="10.859606455540339"><ele>106.5</ele><time>2026-04-19T18:31:34.999Z</time></trkpt><trkpt lat="45.619497824582446" lon="10.85981179147864"><ele>107.0</ele><time>2026-04-19T18:31:35.999Z</time></trkpt><trkpt lat="45.6197048857312" lon="10.860018422454262"><ele>107.5</ele><time>2026-04-19T18:31:36.999Z</time></trkpt><trkpt lat="45.619912239100515" lon="10.860222865506334"><ele>108.0</ele><time>2026-04-19T18:31:37.999Z</time></trkpt><trkpt lat="45.62011720129455" lon="10.860425357716531"><ele>108.5</ele><time>2026-04-19T18:31:38.999Z</time></trkpt><trkpt lat="45.620321957274946" lon="10.860628966868845"><ele>109.0</ele><time>2026-04-19T18:31:39.999Z</time></trkpt><trkpt lat="45.62052798396444" lon="10.86083108583112"><ele>109.0</ele><time>2026-04-19T18:31:40.999Z</time></trkpt><trkpt lat="45.620734023101335" lon="10.861032116068063"><ele>109.0</ele><time>2026-04-19T18:31:41.999Z</time></trkpt><trkpt lat="45.62094167709475" lon="10.861229915095029"><ele>110.0</ele><time>2026-04-19T18:31:42.999Z</time></trkpt><trkpt lat="45.62115339488251" lon="10.861424475330377"><ele>111.0</ele><time>2026-04-19T18:31:43.999Z</time></trkpt><trkpt lat="45.62136655702141" lon="10.86161243194137"><ele>111.5</ele><time>2026-04-19T18:31:44.999Z</time></trkpt><trkpt lat="45.621579807064144" lon="10.86179822023835"><ele>112.0</ele><time>2026-04-19T18:31:45.999Z</time></trkpt><trkpt lat="45.62179420106562" lon="10.86198129572792"><ele>114.0</ele><time>2026-04-19T18:31:46.999Z</time></trkpt><trkpt lat="45.6220102294344" lon="10.862161881020715"><ele>116.0</ele><time>2026-04-19T18:31:47.999Z</time></trkpt><trkpt lat="45.62222602526844" lon="10.862343058837455"><ele>116.0</ele><time>2026-04-19T18:31:48.999Z</time></trkpt><trkpt lat="45.622441593819595" lon="10.862525685292818"><ele>116.0</ele><time>2026-04-19T18:31:49.999Z</time></trkpt><trkpt lat="45.62265680436829" lon="10.862710165369423"><ele>118.5</ele><time>2026-04-19T18:31:50.999Z</time></trkpt><trkpt lat="45.62287078405728" lon="10.862894746162665"><ele>121.0</ele><time>2026-04-19T18:31:51.999Z</time></trkpt><trkpt lat="45.62308788353532" lon="10.863080369451902"><ele>121.0</ele><time>2026-04-19T18:31:52.999Z</time></trkpt><trkpt lat="45.62330230148134" lon="10.863264073103187"><ele>121.0</ele><time>2026-04-19T18:31:53.999Z</time></trkpt><trkpt lat="45.62351798400157" lon="10.863448226035755"><ele>122.5</ele><time>2026-04-19T18:31:54.999Z</time></trkpt><trkpt lat="45.623734701815806" lon="10.863628259750389"><ele>124.0</ele><time>2026-04-19T18:31:55.999Z</time></trkpt><trkpt lat="45.623951312443324" lon="10.863810785576396"><ele>124.0</ele><time>2026-04-19T18:31:56.999Z</time></trkpt><trkpt lat="45.62416698517958" lon="10.863994628340759"><ele>124.0</ele><time>2026-04-19T18:31:57.999Z</time></trkpt><trkpt lat="45.62438314351561" lon="10.864174970025555"><ele>124.0</ele><time>2026-04-19T18:31:58.999Z</time></trkpt><trkpt lat="45.62460104910464" lon="10.864355870757336"><ele>124.0</ele><time>2026-04-19T18:31:59.999Z</time></trkpt><trkpt lat="45.6248220774106" lon="10.864540712037485"><ele>124.0</ele><time>2026-04-19T18:32:00.999Z</time></trkpt><trkpt lat="45.62504618361211" lon="10.864728901819754"><ele>124.0</ele><time>2026-04-19T18:32:01.999Z</time></trkpt><trkpt lat="45.6252739411237" lon="10.864920781132534"><ele>124.0</ele><time>2026-04-19T18:32:02.999Z</time></trkpt><trkpt lat="45.62550480974242" lon="10.865115253617564"><ele>124.0</ele><time>2026-04-19T18:32:03.999Z</time></trkpt><trkpt lat="45.62573893086802" lon="10.865310550017565"><ele>124.0</ele><time>2026-04-19T18:32:04.999Z</time></trkpt><trkpt lat="45.625978236026725" lon="10.865506557068947"><ele>124.0</ele><time>2026-04-19T18:32:05.999Z</time></trkpt><trkpt lat="45.626219654998394" lon="10.865704954315758"><ele>124.5</ele><time>2026-04-19T18:32:06.999Z</time></trkpt><trkpt lat="45.62646411644746" lon="10.865906052960145"><ele>125.0</ele><time>2026-04-19T18:32:07.999Z</time></trkpt><trkpt lat="45.62671222675991" lon="10.866110734650382"><ele>124.0</ele><time>2026-04-19T18:32:08.999Z</time></trkpt><trkpt lat="45.626962707812574" lon="10.866319371481966"><ele>123.0</ele><time>2026-04-19T18:32:09.999Z</time></trkpt><trkpt lat="45.62720853399387" lon="10.866526828139584"><ele>122.5</ele><time>2026-04-19T18:32:10.999Z</time></trkpt><trkpt lat="45.627450545088436" lon="10.866731107227471"><ele>122.0</ele><time>2026-04-19T18:32:11.999Z</time></trkpt><trkpt lat="45.627689619333324" lon="10.866937207347595"><ele>123.0</ele><time>2026-04-19T18:32:12.999Z</time></trkpt><trkpt lat="45.62792411705555" lon="10.867139112186916"><ele>124.0</ele><time>2026-04-19T18:32:13.999Z</time></trkpt><trkpt lat="45.628156449764944" lon="10.867339380390508"><ele>124.0</ele><time>2026-04-19T18:32:14.999Z</time></trkpt><trkpt lat="45.62838672867149" lon="10.867535093222159"><ele>124.0</ele><time>2026-04-19T18:32:15.999Z</time></trkpt><trkpt lat="45.6286156337397" lon="10.86772765831214"><ele>124.5</ele><time>2026-04-19T18:32:16.999Z</time></trkpt><trkpt lat="45.62884201886906" lon="10.867921258329543"><ele>125.0</ele><time>2026-04-19T18:32:17.999Z</time></trkpt><trkpt lat="45.629066525520294" lon="10.868114047807124"><ele>125.0</ele><time>2026-04-19T18:32:18.999Z</time></trkpt><trkpt lat="45.629292002107135" lon="10.8683059947745"><ele>125.0</ele><time>2026-04-19T18:32:19.999Z</time></trkpt><trkpt lat="45.62951869288564" lon="10.868497092444189"><ele>124.5</ele><time>2026-04-19T18:32:20.999Z</time></trkpt><trkpt lat="45.62974433207618" lon="10.868690872832747"><ele>124.0</ele><time>2026-04-19T18:32:21.999Z</time></trkpt><trkpt lat="45.629970402359426" lon="10.868884749724405"><ele>124.0</ele><time>2026-04-19T18:32:22.999Z</time></trkpt><trkpt lat="45.63019662816075" lon="10.869076823128692"><ele>124.0</ele><time>2026-04-19T18:32:23.999Z</time></trkpt><trkpt lat="45.630421375039276" lon="10.869268857718883"><ele>123.0</ele><time>2026-04-19T18:32:24.999Z</time></trkpt><trkpt lat="45.63064533898249" lon="10.869462482838298"><ele>122.0</ele><time>2026-04-19T18:32:25.999Z</time></trkpt><trkpt lat="45.63086473032485" lon="10.869651526049546"><ele>122.0</ele><time>2026-04-19T18:32:26.999Z</time></trkpt><trkpt lat="45.63108404706658" lon="10.86983946509881"><ele>122.0</ele><time>2026-04-19T18:32:27.999Z</time></trkpt><trkpt lat="45.63130484403436" lon="10.870026845830804"><ele>122.0</ele><time>2026-04-19T18:32:28.999Z</time></trkpt><trkpt lat="45.63152633385407" lon="10.87021425565183"><ele>122.0</ele><time>2026-04-19T18:32:29.999Z</time></trkpt><trkpt lat="45.6317470506955" lon="10.87040476766938"><ele>122.0</ele><time>2026-04-19T18:32:30.999Z</time></trkpt><trkpt lat="45.63196836836203" lon="10.870593310828706"><ele>122.0</ele><time>2026-04-19T18:32:31.999Z</time></trkpt><trkpt lat="45.63218922158142" lon="10.87078499411429"><ele>123.5</ele><time>2026-04-19T18:32:32.999Z</time></trkpt><trkpt lat="45.63241125439499" lon="10.870973606983382"><ele>125.0</ele><time>2026-04-19T18:32:33.999Z</time></trkpt><trkpt lat="45.63263355305874" lon="10.871158346277017"><ele>124.0</ele><time>2026-04-19T18:32:34.999Z</time></trkpt><trkpt lat="45.63285723061827" lon="10.871344081796313"><ele>123.0</ele><time>2026-04-19T18:32:35.999Z</time></trkpt><trkpt lat="45.63307899629023" lon="10.871535402224103"><ele>123.0</ele><time>2026-04-19T18:32:36.999Z</time></trkpt><trkpt lat="45.63330278906618" lon="10.871727298571322"><ele>123.0</ele><time>2026-04-19T18:32:37.999Z</time></trkpt><trkpt lat="45.633526541083086" lon="10.871915411232184"><ele>123.0</ele><time>2026-04-19T18:32:38.999Z</time></trkpt><trkpt lat="45.6337494457646" lon="10.872106053499632"><ele>123.0</ele><time>2026-04-19T18:32:39.999Z</time></trkpt><trkpt lat="45.63397150916929" lon="10.87229832397324"><ele>123.0</ele><time>2026-04-19T18:32:40.999Z</time></trkpt><trkpt lat="45.634194314367875" lon="10.872485991894743"><ele>123.0</ele><time>2026-04-19T18:32:42Z</time></trkpt><trkpt lat="45.63441703141977" lon="10.872672834761975"><ele>121.5</ele><time>2026-04-19T18:32:43Z</time></trkpt><trkpt lat="45.63463721664576" lon="10.872862755541414"><ele>120.0</ele><time>2026-04-19T18:32:44Z</time></trkpt><trkpt lat="45.634860335354574" lon="10.873051379011125"><ele>120.0</ele><time>2026-04-19T18:32:45Z</time></trkpt><trkpt lat="45.635078649071716" lon="10.87324375876877"><ele>120.0</ele><time>2026-04-19T18:32:46Z</time></trkpt><trkpt lat="45.635299888147834" lon="10.873443020555714"><ele>121.0</ele><time>2026-04-19T18:32:47Z</time></trkpt><trkpt lat="45.63551684368692" lon="10.873646397684514"><ele>122.0</ele><time>2026-04-19T18:32:48Z</time></trkpt><trkpt lat="45.6357320696865" lon="10.873846993253956"><ele>122.0</ele><time>2026-04-19T18:32:49Z</time></trkpt><trkpt lat="45.63594228223049" lon="10.874046931302297"><ele>122.0</ele><time>2026-04-19T18:32:50Z</time></trkpt><trkpt lat="45.63614842290514" lon="10.874246513885415"><ele>121.5</ele><time>2026-04-19T18:32:51Z</time></trkpt><trkpt lat="45.636353262250424" lon="10.87444640499331"><ele>121.0</ele><time>2026-04-19T18:32:52Z</time></trkpt><trkpt lat="45.63655606508816" lon="10.87465312777838"><ele>121.0</ele><time>2026-04-19T18:32:53Z</time></trkpt><trkpt lat="45.63675869744314" lon="10.874858529055253"><ele>121.0</ele><time>2026-04-19T18:32:54Z</time></trkpt><trkpt lat="45.63696377545472" lon="10.875060775241181"><ele>121.0</ele><time>2026-04-19T18:32:55Z</time></trkpt><trkpt lat="45.63716825197566" lon="10.875260683454455"><ele>121.0</ele><time>2026-04-19T18:32:56Z</time></trkpt><trkpt lat="45.63737309448524" lon="10.87546216672425"><ele>121.0</ele><time>2026-04-19T18:32:57Z</time></trkpt><trkpt lat="45.63757886253826" lon="10.875666300391373"><ele>121.0</ele><time>2026-04-19T18:32:58Z</time></trkpt><trkpt lat="45.63778590923905" lon="10.875868917757293"><ele>120.5</ele><time>2026-04-19T18:32:59Z</time></trkpt><trkpt lat="45.63799140905194" lon="10.876079399797954"><ele>120.0</ele><time>2026-04-19T18:33:00Z</time></trkpt><trkpt lat="45.638192536573705" lon="10.876295455251348"><ele>120.0</ele><time>2026-04-19T18:33:01Z</time></trkpt><trkpt lat="45.638388283124094" lon="10.876520664851256"><ele>120.0</ele><time>2026-04-19T18:33:02Z</time></trkpt><trkpt lat="45.638580306108224" lon="10.876751105836492"><ele>120.5</ele><time>2026-04-19T18:33:03Z</time></trkpt><trkpt lat="45.63876732805856" lon="10.876989720099235"><ele>121.0</ele><time>2026-04-19T18:33:04Z</time></trkpt><trkpt lat="45.63895056290093" lon="10.877232660005696"><ele>121.0</ele><time>2026-04-19T18:33:05Z</time></trkpt><trkpt lat="45.63913589813548" lon="10.877473729018165"><ele>121.0</ele><time>2026-04-19T18:33:06Z</time></trkpt><trkpt lat="45.639326159299735" lon="10.877706550045135"><ele>120.5</ele><time>2026-04-19T18:33:07Z</time></trkpt><trkpt lat="45.63952161517363" lon="10.877932405520122"><ele>120.0</ele><time>2026-04-19T18:33:08Z</time></trkpt><trkpt lat="45.639722086031526" lon="10.878148937883907"><ele>120.0</ele><time>2026-04-19T18:33:09Z</time></trkpt><trkpt lat="45.63992822824011" lon="10.878353868022408"><ele>120.0</ele><time>2026-04-19T18:33:10Z</time></trkpt><trkpt lat="45.64013826825126" lon="10.878549511762696"><ele>118.5</ele><time>2026-04-19T18:33:11Z</time></trkpt><trkpt lat="45.64035330867319" lon="10.878735649048606"><ele>117.0</ele><time>2026-04-19T18:33:12Z</time></trkpt><trkpt lat="45.64057304050778" lon="10.878911638387178"><ele>117.0</ele><time>2026-04-19T18:33:13Z</time></trkpt><trkpt lat="45.64079582508104" lon="10.879078858743068"><ele>117.0</ele><time>2026-04-19T18:33:14Z</time></trkpt><trkpt lat="45.641020527084294" lon="10.879242821470049"><ele>116.5</ele><time>2026-04-19T18:33:15Z</time></trkpt><trkpt lat="45.64124447852007" lon="10.879405032583623"><ele>116.0</ele><time>2026-04-19T18:33:16Z</time></trkpt><trkpt lat="45.64146780642877" lon="10.879571802138967"><ele>116.0</ele><time>2026-04-19T18:33:17Z</time></trkpt><trkpt lat="45.64168999771299" lon="10.87974093010091"><ele>116.0</ele><time>2026-04-19T18:33:18Z</time></trkpt><trkpt lat="45.64190730180748" lon="10.879920445472402"><ele>113.0</ele><time>2026-04-19T18:33:19Z</time></trkpt><trkpt lat="45.64212219404887" lon="10.880110189733376"><ele>110.0</ele><time>2026-04-19T18:33:20Z</time></trkpt><trkpt lat="45.64233084003248" lon="10.880302951164236"><ele>110.0</ele><time>2026-04-19T18:33:21Z</time></trkpt><trkpt lat="45.64254079316503" lon="10.880502711796092"><ele>110.0</ele><time>2026-04-19T18:33:22Z</time></trkpt><trkpt lat="45.64274714822262" lon="10.880703365545404"><ele>109.0</ele><time>2026-04-19T18:33:23Z</time></trkpt><trkpt lat="45.64295517956521" lon="10.880905018282542"><ele>108.0</ele><time>2026-04-19T18:33:24Z</time></trkpt><trkpt lat="45.64316083282067" lon="10.881109290887585"><ele>110.5</ele><time>2026-04-19T18:33:25Z</time></trkpt><trkpt lat="45.6433663634485" lon="10.881312233420905"><ele>113.0</ele><time>2026-04-19T18:33:26Z</time></trkpt><trkpt lat="45.64357377224585" lon="10.881515315352093"><ele>114.5</ele><time>2026-04-19T18:33:27Z</time></trkpt><trkpt lat="45.643780961537836" lon="10.881718334857155"><ele>116.0</ele><time>2026-04-19T18:33:28Z</time></trkpt><trkpt lat="45.64398975659107" lon="10.881919800038848"><ele>118.5</ele><time>2026-04-19T18:33:29Z</time></trkpt><trkpt lat="45.644196938363265" lon="10.88212025572218"><ele>121.0</ele><time>2026-04-19T18:33:30Z</time></trkpt><trkpt lat="45.644406972563466" lon="10.88231996882456"><ele>121.0</ele><time>2026-04-19T18:33:31Z</time></trkpt><trkpt lat="45.64461666139395" lon="10.882518318760223"><ele>121.0</ele><time>2026-04-19T18:33:32Z</time></trkpt><trkpt lat="45.64482872965894" lon="10.882710177856648"><ele>121.0</ele><time>2026-04-19T18:33:33Z</time></trkpt><trkpt lat="45.64504099088832" lon="10.88290240781951"><ele>121.0</ele><time>2026-04-19T18:33:34Z</time></trkpt><trkpt lat="45.64525515103892" lon="10.88308746196105"><ele>119.0</ele><time>2026-04-19T18:33:35Z</time></trkpt><trkpt lat="45.64546983363675" lon="10.883270964197354"><ele>117.0</ele><time>2026-04-19T18:33:36Z</time></trkpt><trkpt lat="45.6456873380444" lon="10.88344928089819"><ele>117.0</ele><time>2026-04-19T18:33:37Z</time></trkpt><trkpt lat="45.64590540208098" lon="10.883623185355482"><ele>117.0</ele><time>2026-04-19T18:33:38Z</time></trkpt><trkpt lat="45.64612428029569" lon="10.883797359026111"><ele>115.5</ele><time>2026-04-19T18:33:39Z</time></trkpt><trkpt lat="45.646344214621486" lon="10.883965473554685"><ele>114.0</ele><time>2026-04-19T18:33:40Z</time></trkpt><trkpt lat="45.64656545462312" lon="10.884134250188207"><ele>113.5</ele><time>2026-04-19T18:33:41Z</time></trkpt><trkpt lat="45.64678680042788" lon="10.88430297462862"><ele>113.0</ele><time>2026-04-19T18:33:42Z</time></trkpt><trkpt lat="45.64700746980384" lon="10.884469605868468"><ele>111.5</ele><time>2026-04-19T18:33:43Z</time></trkpt><trkpt lat="45.647227895417764" lon="10.884637342892693"><ele>110.0</ele><time>2026-04-19T18:33:44Z</time></trkpt><trkpt lat="45.64744917353108" lon="10.884803605626178"><ele>110.0</ele><time>2026-04-19T18:33:45Z</time></trkpt><trkpt lat="45.647671834838505" lon="10.8849718087933"><ele>110.0</ele><time>2026-04-19T18:33:46Z</time></trkpt><trkpt lat="45.64789524049852" lon="10.885136940476624"><ele>112.5</ele><time>2026-04-19T18:33:47Z</time></trkpt><trkpt lat="45.648116898460266" lon="10.885303492579272"><ele>115.0</ele><time>2026-04-19T18:33:48Z</time></trkpt><trkpt lat="45.648339225138194" lon="10.885473277270359"><ele>115.0</ele><time>2026-04-19T18:33:49Z</time></trkpt><trkpt lat="45.64856029297908" lon="10.885638732284425"><ele>115.0</ele><time>2026-04-19T18:33:50Z</time></trkpt><trkpt lat="45.6487845762994" lon="10.885802139301015"><ele>118.0</ele><time>2026-04-19T18:33:51Z</time></trkpt><trkpt lat="45.64900707247302" lon="10.88596780223256"><ele>121.0</ele><time>2026-04-19T18:33:52Z</time></trkpt><trkpt lat="45.64922966218284" lon="10.886134243157812"><ele>121.0</ele><time>2026-04-19T18:33:53Z</time></trkpt><trkpt lat="45.64945018032163" lon="10.886300452300002"><ele>121.0</ele><time>2026-04-19T18:33:54Z</time></trkpt><trkpt lat="45.64967144634664" lon="10.886471425663224"><ele>121.5</ele><time>2026-04-19T18:33:55Z</time></trkpt><trkpt lat="45.649889525941575" lon="10.886634462856447"><ele>122.0</ele><time>2026-04-19T18:33:56Z</time></trkpt><trkpt lat="45.65010373378112" lon="10.886798833858679"><ele>122.5</ele><time>2026-04-19T18:33:57Z</time></trkpt><trkpt lat="45.650319946259" lon="10.88695242647805"><ele>123.0</ele><time>2026-04-19T18:33:58Z</time></trkpt><trkpt lat="45.650535518485654" lon="10.887111442029378"><ele>123.0</ele><time>2026-04-19T18:33:59Z</time></trkpt><trkpt lat="45.65075131051916" lon="10.887273058945148"><ele>123.0</ele><time>2026-04-19T18:34:00Z</time></trkpt><trkpt lat="45.65097062764844" lon="10.887432722112683"><ele>123.5</ele><time>2026-04-19T18:34:01Z</time></trkpt><trkpt lat="45.651188524766056" lon="10.887595610169697"><ele>124.0</ele><time>2026-04-19T18:34:02Z</time></trkpt><trkpt lat="45.65140817067815" lon="10.88775916919394"><ele>124.0</ele><time>2026-04-19T18:34:03Z</time></trkpt><trkpt lat="45.651627561308075" lon="10.887924637671352"><ele>124.0</ele><time>2026-04-19T18:34:04Z</time></trkpt><trkpt lat="45.651846690917544" lon="10.888090171333962"><ele>128.0</ele><time>2026-04-19T18:34:05Z</time></trkpt><trkpt lat="45.652066065571574" lon="10.888253356755811"><ele>132.0</ele><time>2026-04-19T18:34:06Z</time></trkpt><trkpt lat="45.652284552932564" lon="10.888413952555787"><ele>131.0</ele><time>2026-04-19T18:34:07Z</time></trkpt><trkpt lat="45.65250423789316" lon="10.888576964848513"><ele>130.0</ele><time>2026-04-19T18:34:08Z</time></trkpt><trkpt lat="45.652724298137805" lon="10.888737541882595"><ele>130.5</ele><time>2026-04-19T18:34:09Z</time></trkpt><trkpt lat="45.652944327513154" lon="10.888899502303902"><ele>131.0</ele><time>2026-04-19T18:34:10Z</time></trkpt><trkpt lat="45.653161680702944" lon="10.889067706373247"><ele>131.0</ele><time>2026-04-19T18:34:11Z</time></trkpt><trkpt lat="45.65337911734549" lon="10.88923305117022"><ele>131.0</ele><time>2026-04-19T18:34:12Z</time></trkpt><trkpt lat="45.653598106756874" lon="10.889397996288245"><ele>131.0</ele><time>2026-04-19T18:34:13Z</time></trkpt><trkpt lat="45.65381713879841" lon="10.889562445850805"><ele>131.0</ele><time>2026-04-19T18:34:14Z</time></trkpt><trkpt lat="45.65403518515313" lon="10.889725898454033"><ele>131.0</ele><time>2026-04-19T18:34:15Z</time></trkpt><trkpt lat="45.65425463947189" lon="10.889889946670452"><ele>131.0</ele><time>2026-04-19T18:34:16Z</time></trkpt><trkpt lat="45.6544736783019" lon="10.890054212462251"><ele>131.5</ele><time>2026-04-19T18:34:17Z</time></trkpt><trkpt lat="45.65469270935629" lon="10.890215572009462"><ele>132.0</ele><time>2026-04-19T18:34:18Z</time></trkpt><trkpt lat="45.65491194119832" lon="10.890379841912942"><ele>132.0</ele><time>2026-04-19T18:34:19Z</time></trkpt><trkpt lat="45.6551314947369" lon="10.890542219125107"><ele>132.0</ele><time>2026-04-19T18:34:20Z</time></trkpt><trkpt lat="45.655351843113664" lon="10.890708110749474"><ele>132.5</ele><time>2026-04-19T18:34:21Z</time></trkpt><trkpt lat="45.65557079508472" lon="10.890872060987942"><ele>133.0</ele><time>2026-04-19T18:34:22Z</time></trkpt><trkpt lat="45.655787820263235" lon="10.891036634080368"><ele>133.0</ele><time>2026-04-19T18:34:23Z</time></trkpt><trkpt lat="45.656006911513906" lon="10.891200186855238"><ele>133.0</ele><time>2026-04-19T18:34:24Z</time></trkpt><trkpt lat="45.65622680947189" lon="10.891363837160938"><ele>133.0</ele><time>2026-04-19T18:34:25Z</time></trkpt><trkpt lat="45.656448153650054" lon="10.89152370399821"><ele>133.0</ele><time>2026-04-19T18:34:26Z</time></trkpt><trkpt lat="45.65667064855055" lon="10.89167900227993"><ele>133.0</ele><time>2026-04-19T18:34:27Z</time></trkpt><trkpt lat="45.656894270998286" lon="10.891831634117166"><ele>133.0</ele><time>2026-04-19T18:34:28Z</time></trkpt><trkpt lat="45.65711993377685" lon="10.891981470506389"><ele>133.0</ele><time>2026-04-19T18:34:29Z</time></trkpt><trkpt lat="45.65734679872006" lon="10.892122300865688"><ele>133.0</ele><time>2026-04-19T18:34:30Z</time></trkpt><trkpt lat="45.65757499544476" lon="10.89225876370794"><ele>132.5</ele><time>2026-04-19T18:34:31Z</time></trkpt><trkpt lat="45.65780547430347" lon="10.892390266154166"><ele>132.0</ele><time>2026-04-19T18:34:32Z</time></trkpt><trkpt lat="45.658036159119604" lon="10.89251632438232"><ele>131.0</ele><time>2026-04-19T18:34:33Z</time></trkpt><trkpt lat="45.65826928078632" lon="10.89263547606539"><ele>130.0</ele><time>2026-04-19T18:34:34Z</time></trkpt><trkpt lat="45.658502768400076" lon="10.892750815450402"><ele>130.0</ele><time>2026-04-19T18:34:35Z</time></trkpt><trkpt lat="45.65873905466828" lon="10.892861491241367"><ele>130.0</ele><time>2026-04-19T18:34:36Z</time></trkpt><trkpt lat="45.658975833711686" lon="10.892966746130416"><ele>130.0</ele><time>2026-04-19T18:34:37Z</time></trkpt><trkpt lat="45.65921297263262" lon="10.893066466174993"><ele>130.0</ele><time>2026-04-19T18:34:38Z</time></trkpt><trkpt lat="45.659449468675334" lon="10.893160723429867"><ele>131.0</ele><time>2026-04-19T18:34:39Z</time></trkpt><trkpt lat="45.6596876492349" lon="10.893251107301394"><ele>132.0</ele><time>2026-04-19T18:34:40Z</time></trkpt><trkpt lat="45.65992711904828" lon="10.893340867481832"><ele>130.0</ele><time>2026-04-19T18:34:41Z</time></trkpt><trkpt lat="45.66016497801841" lon="10.893426600764709"><ele>128.0</ele><time>2026-04-19T18:34:42Z</time></trkpt><trkpt lat="45.6604040241346" lon="10.893513692335544"><ele>127.0</ele><time>2026-04-19T18:34:43Z</time></trkpt><trkpt lat="45.66064351312878" lon="10.893602102187167"><ele>126.0</ele><time>2026-04-19T18:34:44Z</time></trkpt><trkpt lat="45.660883315427625" lon="10.893692045176987"><ele>126.5</ele><time>2026-04-19T18:34:45Z</time></trkpt><trkpt lat="45.6611213902691" lon="10.893784737202552"><ele>127.0</ele><time>2026-04-19T18:34:46Z</time></trkpt><trkpt lat="45.66136041827644" lon="10.893875213284803"><ele>127.0</ele><time>2026-04-19T18:34:47Z</time></trkpt><trkpt lat="45.661599538718335" lon="10.893965729520886"><ele>127.0</ele><time>2026-04-19T18:34:48Z</time></trkpt><trkpt lat="45.66183968398441" lon="10.894056100927047"><ele>126.0</ele><time>2026-04-19T18:34:49Z</time></trkpt><trkpt lat="45.6620777017888" lon="10.894146476035342"><ele>125.0</ele><time>2026-04-19T18:34:50Z</time></trkpt><trkpt lat="45.66231671220634" lon="10.894238341541309"><ele>124.5</ele><time>2026-04-19T18:34:51Z</time></trkpt><trkpt lat="45.66255425546234" lon="10.894335424246881"><ele>124.0</ele><time>2026-04-19T18:34:52Z</time></trkpt><trkpt lat="45.66279062072932" lon="10.894433942697738"><ele>124.0</ele><time>2026-04-19T18:34:53Z</time></trkpt><trkpt lat="45.66302864924452" lon="10.894530510267128"><ele>124.0</ele><time>2026-04-19T18:34:54Z</time></trkpt><trkpt lat="45.66326483454891" lon="10.89463305472238"><ele>124.0</ele><time>2026-04-19T18:34:55Z</time></trkpt><trkpt lat="45.663500093686125" lon="10.89473921276795"><ele>124.0</ele><time>2026-04-19T18:34:56Z</time></trkpt><trkpt lat="45.66373485833306" lon="10.894849724458886"><ele>123.5</ele><time>2026-04-19T18:34:57Z</time></trkpt><trkpt lat="45.66396841776066" lon="10.894962773502847"><ele>123.0</ele><time>2026-04-19T18:34:58Z</time></trkpt><trkpt lat="45.66420153371425" lon="10.895079551378403"><ele>121.5</ele><time>2026-04-19T18:34:59Z</time></trkpt><trkpt lat="45.66443498446658" lon="10.89520200767622"><ele>120.0</ele><time>2026-04-19T18:35:00Z</time></trkpt><trkpt lat="45.6646664487747" lon="10.895325832028096"><ele>120.0</ele><time>2026-04-19T18:35:01Z</time></trkpt><trkpt lat="45.66489674272706" lon="10.895454744230342"><ele>120.0</ele><time>2026-04-19T18:35:02Z</time></trkpt><trkpt lat="45.66512714460035" lon="10.89558638815887"><ele>120.0</ele><time>2026-04-19T18:35:03Z</time></trkpt><trkpt lat="45.665355639852336" lon="10.89572050243968"><ele>120.0</ele><time>2026-04-19T18:35:04Z</time></trkpt><trkpt lat="45.66558404658103" lon="10.89585815954172"><ele>118.0</ele><time>2026-04-19T18:35:05Z</time></trkpt><trkpt lat="45.6658097096854" lon="10.896002559834601"><ele>116.0</ele><time>2026-04-19T18:35:06Z</time></trkpt><trkpt lat="45.66603305157976" lon="10.896149221895909"><ele>117.0</ele><time>2026-04-19T18:35:07Z</time></trkpt><trkpt lat="45.6662567303732" lon="10.896297328398893"><ele>118.0</ele><time>2026-04-19T18:35:08Z</time></trkpt><trkpt lat="45.66647931150497" lon="10.89644853660009"><ele>118.0</ele><time>2026-04-19T18:35:09Z</time></trkpt><trkpt lat="45.66670173106428" lon="10.896601441418019"><ele>118.0</ele><time>2026-04-19T18:35:10Z</time></trkpt><trkpt lat="45.666923881472215" lon="10.896757332229367"><ele>117.5</ele><time>2026-04-19T18:35:11Z</time></trkpt><trkpt lat="45.667145684058355" lon="10.896913114439794"><ele>117.0</ele><time>2026-04-19T18:35:12Z</time></trkpt><trkpt lat="45.667367597437455" lon="10.897069079022447"><ele>117.0</ele><time>2026-04-19T18:35:13Z</time></trkpt><trkpt lat="45.667590306231396" lon="10.897223712589042"><ele>117.0</ele><time>2026-04-19T18:35:14Z</time></trkpt><trkpt lat="45.667812241354014" lon="10.897379723090493"><ele>118.0</ele><time>2026-04-19T18:35:15Z</time></trkpt><trkpt lat="45.66803393822741" lon="10.89753623634373"><ele>119.0</ele><time>2026-04-19T18:35:16Z</time></trkpt><trkpt lat="45.66825467312467" lon="10.897693233048093"><ele>117.0</ele><time>2026-04-19T18:35:17Z</time></trkpt><trkpt lat="45.66847730384372" lon="10.897849573911998"><ele>115.0</ele><time>2026-04-19T18:35:18Z</time></trkpt><trkpt lat="45.66869983946225" lon="10.898000385517271"><ele>114.0</ele><time>2026-04-19T18:35:19Z</time></trkpt><trkpt lat="45.6689221303643" lon="10.89815328072739"><ele>113.0</ele><time>2026-04-19T18:35:20Z</time></trkpt><trkpt lat="45.669145006843756" lon="10.898305570017673"><ele>113.0</ele><time>2026-04-19T18:35:21Z</time></trkpt><trkpt lat="45.669368247624725" lon="10.89845898831962"><ele>113.0</ele><time>2026-04-19T18:35:22Z</time></trkpt><trkpt lat="45.6695911958537" lon="10.898611766113962"><ele>114.0</ele><time>2026-04-19T18:35:23Z</time></trkpt><trkpt lat="45.66981498299645" lon="10.89876463314946"><ele>115.0</ele><time>2026-04-19T18:35:24Z</time></trkpt><trkpt lat="45.67003638978727" lon="10.898916001975946"><ele>115.0</ele><time>2026-04-19T18:35:25Z</time></trkpt><trkpt lat="45.67025974046859" lon="10.899073118043646"><ele>115.0</ele><time>2026-04-19T18:35:26Z</time></trkpt><trkpt lat="45.67048215363858" lon="10.899226679046365"><ele>118.5</ele><time>2026-04-19T18:35:27Z</time></trkpt><trkpt lat="45.67070370651816" lon="10.89937855744932"><ele>122.0</ele><time>2026-04-19T18:35:28Z</time></trkpt><trkpt lat="45.670923486759605" lon="10.899535970635684"><ele>123.0</ele><time>2026-04-19T18:35:29Z</time></trkpt><trkpt lat="45.67114502621578" lon="10.899689616521087"><ele>124.0</ele><time>2026-04-19T18:35:30Z</time></trkpt><trkpt lat="45.67136732557502" lon="10.89984250949222"><ele>124.0</ele><time>2026-04-19T18:35:31Z</time></trkpt><trkpt lat="45.67158868187505" lon="10.899997631168553"><ele>124.0</ele><time>2026-04-19T18:35:32Z</time></trkpt><trkpt lat="45.67181005337712" lon="10.900155048533"><ele>125.0</ele><time>2026-04-19T18:35:33Z</time></trkpt><trkpt lat="45.672033474741255" lon="10.900308098710079"><ele>126.0</ele><time>2026-04-19T18:35:34Z</time></trkpt><trkpt lat="45.672257779972114" lon="10.900456304405477"><ele>126.0</ele><time>2026-04-19T18:35:35Z</time></trkpt><trkpt lat="45.6724809375294" lon="10.900610823718873"><ele>126.0</ele><time>2026-04-19T18:35:36Z</time></trkpt><trkpt lat="45.67270438931407" lon="10.900761856700033"><ele>128.0</ele><time>2026-04-19T18:35:37Z</time></trkpt><trkpt lat="45.672926720436564" lon="10.900917165587353"><ele>130.0</ele><time>2026-04-19T18:35:38Z</time></trkpt><trkpt lat="45.67314937894727" lon="10.901072497727382"><ele>130.0</ele><time>2026-04-19T18:35:39Z</time></trkpt><trkpt lat="45.67337129409162" lon="10.90122870351877"><ele>130.0</ele><time>2026-04-19T18:35:40Z</time></trkpt><trkpt lat="45.6735938742968" lon="10.901383548890585"><ele>129.5</ele><time>2026-04-19T18:35:41Z</time></trkpt><trkpt lat="45.673818117379284" lon="10.901537125833256"><ele>129.0</ele><time>2026-04-19T18:35:42Z</time></trkpt><trkpt lat="45.67404043502292" lon="10.901693210413569"><ele>129.5</ele><time>2026-04-19T18:35:43Z</time></trkpt><trkpt lat="45.674263129980716" lon="10.901846044497242"><ele>130.0</ele><time>2026-04-19T18:35:44Z</time></trkpt><trkpt lat="45.67448544825178" lon="10.902002052917297"><ele>130.0</ele><time>2026-04-19T18:35:45Z</time></trkpt><trkpt lat="45.67470850199085" lon="10.90215548273348"><ele>130.0</ele><time>2026-04-19T18:35:46Z</time></trkpt><trkpt lat="45.67493254833782" lon="10.902308930074788"><ele>130.0</ele><time>2026-04-19T18:35:47Z</time></trkpt><trkpt lat="45.67515679632127" lon="10.902459688645513"><ele>130.0</ele><time>2026-04-19T18:35:48Z</time></trkpt><trkpt lat="45.67538191229618" lon="10.9026081099105"><ele>128.0</ele><time>2026-04-19T18:35:49Z</time></trkpt><trkpt lat="45.6756078912408" lon="10.902752889602217"><ele>126.0</ele><time>2026-04-19T18:35:50Z</time></trkpt><trkpt lat="45.67583403140791" lon="10.902894794632529"><ele>126.0</ele><time>2026-04-19T18:35:51Z</time></trkpt><trkpt lat="45.67606093403034" lon="10.90303471000426"><ele>126.0</ele><time>2026-04-19T18:35:52Z</time></trkpt><trkpt lat="45.676287602190065" lon="10.903171527493393"><ele>125.5</ele><time>2026-04-19T18:35:53Z</time></trkpt><trkpt lat="45.67651540882302" lon="10.903308025981458"><ele>125.0</ele><time>2026-04-19T18:35:54Z</time></trkpt><trkpt lat="45.67674597803737" lon="10.903436318191371"><ele>122.5</ele><time>2026-04-19T18:35:55Z</time></trkpt><trkpt lat="45.67697487912319" lon="10.90356642968547"><ele>120.0</ele><time>2026-04-19T18:35:56Z</time></trkpt><trkpt lat="45.67720618815204" lon="10.903688840579385"><ele>120.0</ele><time>2026-04-19T18:35:57Z</time></trkpt><trkpt lat="45.6774375729759" lon="10.903809948367075"><ele>120.0</ele><time>2026-04-19T18:35:58Z</time></trkpt><trkpt lat="45.67766950260307" lon="10.903928769085766"><ele>119.5</ele><time>2026-04-19T18:35:59Z</time></trkpt><trkpt lat="45.67790289126628" lon="10.904045067897822"><ele>119.0</ele><time>2026-04-19T18:36:00Z</time></trkpt><trkpt lat="45.678136422573814" lon="10.904157600703119"><ele>121.0</ele><time>2026-04-19T18:36:01Z</time></trkpt><trkpt lat="45.67837019755422" lon="10.904270881442237"><ele>123.0</ele><time>2026-04-19T18:36:02Z</time></trkpt><trkpt lat="45.67860565078" lon="10.904376704665074"><ele>124.5</ele><time>2026-04-19T18:36:03Z</time></trkpt><trkpt lat="45.67884046211575" lon="10.904486582771234"><ele>126.0</ele><time>2026-04-19T18:36:04Z</time></trkpt><trkpt lat="45.67907671027918" lon="10.904590817258107"><ele>126.0</ele><time>2026-04-19T18:36:05Z</time></trkpt><trkpt lat="45.67931379498523" lon="10.904690976075528"><ele>126.0</ele><time>2026-04-19T18:36:06Z</time></trkpt><trkpt lat="45.67955175552031" lon="10.904786681123358"><ele>125.0</ele><time>2026-04-19T18:36:07Z</time></trkpt><trkpt lat="45.6797903095226" lon="10.90487777895395"><ele>124.0</ele><time>2026-04-19T18:36:08Z</time></trkpt><trkpt lat="45.680029047579104" lon="10.904968894370622"><ele>124.5</ele><time>2026-04-19T18:36:09Z</time></trkpt><trkpt lat="45.68026810036525" lon="10.905054581045153"><ele>125.0</ele><time>2026-04-19T18:36:10Z</time></trkpt><trkpt lat="45.68050888691903" lon="10.905138987261717"><ele>125.0</ele><time>2026-04-19T18:36:11Z</time></trkpt><trkpt lat="45.68074951988544" lon="10.905221800789933"><ele>125.0</ele><time>2026-04-19T18:36:12Z</time></trkpt><trkpt lat="45.68099055952267" lon="10.905300829568063"><ele>124.5</ele><time>2026-04-19T18:36:13Z</time></trkpt><trkpt lat="45.68123211836818" lon="10.905375004551264"><ele>124.0</ele><time>2026-04-19T18:36:14Z</time></trkpt><trkpt lat="45.68147468716581" lon="10.905445408560954"><ele>124.0</ele><time>2026-04-19T18:36:15Z</time></trkpt><trkpt lat="45.681716878076244" lon="10.905511534329051"><ele>124.0</ele><time>2026-04-19T18:36:16Z</time></trkpt><trkpt lat="45.68195963718035" lon="10.905575165709772"><ele>124.5</ele><time>2026-04-19T18:36:17Z</time></trkpt><trkpt lat="45.68220297951824" lon="10.905635692172396"><ele>125.0</ele><time>2026-04-19T18:36:18Z</time></trkpt><trkpt lat="45.682445824895474" lon="10.905693432377701"><ele>125.0</ele><time>2026-04-19T18:36:19Z</time></trkpt><trkpt lat="45.68269049727883" lon="10.905749474392403"><ele>125.0</ele><time>2026-04-19T18:36:20Z</time></trkpt><trkpt lat="45.682935050837216" lon="10.90580508989209"><ele>125.0</ele><time>2026-04-19T18:36:21Z</time></trkpt><trkpt lat="45.683178709469516" lon="10.905863652355372"><ele>125.0</ele><time>2026-04-19T18:36:22Z</time></trkpt><trkpt lat="45.68342360494743" lon="10.905918330430252"><ele>122.5</ele><time>2026-04-19T18:36:23Z</time></trkpt><trkpt lat="45.68366738801969" lon="10.905973168009666"><ele>120.0</ele><time>2026-04-19T18:36:24Z</time></trkpt><trkpt lat="45.6839134159357" lon="10.906027019489194"><ele>120.0</ele><time>2026-04-19T18:36:25Z</time></trkpt><trkpt lat="45.68415793750313" lon="10.906080226798364"><ele>120.0</ele><time>2026-04-19T18:36:26Z</time></trkpt><trkpt lat="45.68440317104212" lon="10.906133021106303"><ele>121.0</ele><time>2026-04-19T18:36:27Z</time></trkpt><trkpt lat="45.68464801801903" lon="10.906186114851925"><ele>122.0</ele><time>2026-04-19T18:36:28Z</time></trkpt><trkpt lat="45.68489330062126" lon="10.906237863315718"><ele>122.0</ele><time>2026-04-19T18:36:29Z</time></trkpt><trkpt lat="45.68513901771229" lon="10.906292104074268"><ele>122.0</ele><time>2026-04-19T18:36:30Z</time></trkpt><trkpt lat="45.68538332138532" lon="10.906350834893288"><ele>122.0</ele><time>2026-04-19T18:36:31Z</time></trkpt><trkpt lat="45.68562752402622" lon="10.906413462467787"><ele>122.0</ele><time>2026-04-19T18:36:32Z</time></trkpt><trkpt lat="45.685871264316766" lon="10.90648159075297"><ele>121.5</ele><time>2026-04-19T18:36:33Z</time></trkpt><trkpt lat="45.686113184328576" lon="10.906554782183484"><ele>121.0</ele><time>2026-04-19T18:36:34Z</time></trkpt><trkpt lat="45.686354208669194" lon="10.906635392074438"><ele>121.0</ele><time>2026-04-19T18:36:35Z</time></trkpt><trkpt lat="45.68659391975251" lon="10.9067231072199"><ele>121.0</ele><time>2026-04-19T18:36:36Z</time></trkpt><trkpt lat="45.68683264366543" lon="10.906819290253857"><ele>120.0</ele><time>2026-04-19T18:36:37Z</time></trkpt><trkpt lat="45.68706881513717" lon="10.906922336871368"><ele>119.0</ele><time>2026-04-19T18:36:38Z</time></trkpt><trkpt lat="45.68730333285971" lon="10.907033009080994"><ele>119.0</ele><time>2026-04-19T18:36:39Z</time></trkpt><trkpt lat="45.68753585656796" lon="10.907150943238618"><ele>119.0</ele><time>2026-04-19T18:36:40Z</time></trkpt><trkpt lat="45.68776666972848" lon="10.907276475582217"><ele>120.0</ele><time>2026-04-19T18:36:41Z</time></trkpt><trkpt lat="45.6879945258795" lon="10.90740970804845"><ele>121.0</ele><time>2026-04-19T18:36:42Z</time></trkpt><trkpt lat="45.68822002851609" lon="10.907552444073042"><ele>120.0</ele><time>2026-04-19T18:36:43Z</time></trkpt><trkpt lat="45.68844270969459" lon="10.907704049159353"><ele>119.0</ele><time>2026-04-19T18:36:44Z</time></trkpt><trkpt lat="45.68866089059027" lon="10.907862081294446"><ele>119.0</ele><time>2026-04-19T18:36:45Z</time></trkpt><trkpt lat="45.688878816822395" lon="10.9080268858192"><ele>119.0</ele><time>2026-04-19T18:36:46Z</time></trkpt><trkpt lat="45.689094142526535" lon="10.90819780361031"><ele>119.0</ele><time>2026-04-19T18:36:47Z</time></trkpt><trkpt lat="45.689306839364264" lon="10.90837516860924"><ele>119.0</ele><time>2026-04-19T18:36:48Z</time></trkpt><trkpt lat="45.68951672565929" lon="10.908559638499462"><ele>121.0</ele><time>2026-04-19T18:36:49Z</time></trkpt><trkpt lat="45.689724915335326" lon="10.908749869041067"><ele>123.0</ele><time>2026-04-19T18:36:50Z</time></trkpt><trkpt lat="45.6899295900512" lon="10.908947193431208"><ele>123.0</ele><time>2026-04-19T18:36:51Z</time></trkpt><trkpt lat="45.69013187537277" lon="10.90915075946443"><ele>123.0</ele><time>2026-04-19T18:36:52Z</time></trkpt><trkpt lat="45.69033018838252" lon="10.90936051877968"><ele>122.5</ele><time>2026-04-19T18:36:53Z</time></trkpt><trkpt lat="45.69052396838085" lon="10.909575514041801"><ele>122.0</ele><time>2026-04-19T18:36:54Z</time></trkpt><trkpt lat="45.69071546168226" lon="10.909799390091056"><ele>122.0</ele><time>2026-04-19T18:36:55Z</time></trkpt><trkpt lat="45.69090335750791" lon="10.910033778007932"><ele>122.0</ele><time>2026-04-19T18:36:56Z</time></trkpt><trkpt lat="45.69108887827397" lon="10.910279254051481"><ele>122.0</ele><time>2026-04-19T18:36:57Z</time></trkpt><trkpt lat="45.691272965191565" lon="10.910537233172914"><ele>122.0</ele><time>2026-04-19T18:36:58Z</time></trkpt><trkpt lat="45.691461073418274" lon="10.91080106468804"><ele>122.0</ele><time>2026-04-19T18:36:59Z</time></trkpt><trkpt lat="45.69165123384187" lon="10.91107242421383"><ele>122.0</ele><time>2026-04-19T18:37:00Z</time></trkpt><trkpt lat="45.691844239074065" lon="10.911351622744696"><ele>122.5</ele><time>2026-04-19T18:37:01Z</time></trkpt><trkpt lat="45.69203998870612" lon="10.91163857668759"><ele>123.0</ele><time>2026-04-19T18:37:02Z</time></trkpt><trkpt lat="45.69223838176702" lon="10.911929709490808"><ele>122.0</ele><time>2026-04-19T18:37:03Z</time></trkpt><trkpt lat="45.69243730060992" lon="10.912223013294348"><ele>121.0</ele><time>2026-04-19T18:37:04Z</time></trkpt><trkpt lat="45.6926349050713" lon="10.912513770953424"><ele>120.5</ele><time>2026-04-19T18:37:05Z</time></trkpt><trkpt lat="45.69283212374733" lon="10.91280382780601"><ele>120.0</ele><time>2026-04-19T18:37:06Z</time></trkpt><trkpt lat="45.69302549513466" lon="10.913089389282117"><ele>120.0</ele><time>2026-04-19T18:37:07Z</time></trkpt><trkpt lat="45.69321752966304" lon="10.913371601743199"><ele>120.0</ele><time>2026-04-19T18:37:08Z</time></trkpt><trkpt lat="45.6934085404057" lon="10.913654301335686"><ele>120.0</ele><time>2026-04-19T18:37:09Z</time></trkpt><trkpt lat="45.69359959703994" lon="10.913934429743174"><ele>120.0</ele><time>2026-04-19T18:37:10Z</time></trkpt><trkpt lat="45.69379028989851" lon="10.914215885195793"><ele>121.5</ele><time>2026-04-19T18:37:11Z</time></trkpt><trkpt lat="45.693982033794654" lon="10.914496366177337"><ele>123.0</ele><time>2026-04-19T18:37:12Z</time></trkpt><trkpt lat="45.694173812163115" lon="10.914778986203588"><ele>123.0</ele><time>2026-04-19T18:37:13Z</time></trkpt><trkpt lat="45.694363272271815" lon="10.915062994605178"><ele>123.0</ele><time>2026-04-19T18:37:14Z</time></trkpt><trkpt lat="45.694547795338096" lon="10.915339690192402"><ele>123.0</ele><time>2026-04-19T18:37:15Z</time></trkpt><trkpt lat="45.69473117102386" lon="10.915612300151885"><ele>123.0</ele><time>2026-04-19T18:37:16Z</time></trkpt><trkpt lat="45.694912608221415" lon="10.915885714835706"><ele>122.5</ele><time>2026-04-19T18:37:17Z</time></trkpt><trkpt lat="45.69509215582079" lon="10.916149020302214"><ele>122.0</ele><time>2026-04-19T18:37:18Z</time></trkpt><trkpt lat="45.695270267962194" lon="10.916407836893994"><ele>122.0</ele><time>2026-04-19T18:37:19Z</time></trkpt><trkpt lat="45.69544680981313" lon="10.916663882485766"><ele>122.0</ele><time>2026-04-19T18:37:20Z</time></trkpt><trkpt lat="45.69562064230861" lon="10.91691958903703"><ele>121.5</ele><time>2026-04-19T18:37:21Z</time></trkpt><trkpt lat="45.69579138308055" lon="10.917168853350034"><ele>121.0</ele><time>2026-04-19T18:37:22Z</time></trkpt><trkpt lat="45.695958042376255" lon="10.917415675317404"><ele>121.0</ele><time>2026-04-19T18:37:23Z</time></trkpt><trkpt lat="45.69612279093668" lon="10.917657059807325"><ele>121.0</ele><time>2026-04-19T18:37:24Z</time></trkpt><trkpt lat="45.69628786671834" lon="10.917895128503842"><ele>121.0</ele><time>2026-04-19T18:37:25Z</time></trkpt><trkpt lat="45.69645416221422" lon="10.918133224610825"><ele>121.0</ele><time>2026-04-19T18:37:26Z</time></trkpt><trkpt lat="45.69662527062933" lon="10.918373819618619"><ele>121.0</ele><time>2026-04-19T18:37:27Z</time></trkpt><trkpt lat="45.69679971700633" lon="10.918616565952421"><ele>121.0</ele><time>2026-04-19T18:37:28Z</time></trkpt><trkpt lat="45.696978044704" lon="10.91885483130236"><ele>121.5</ele><time>2026-04-19T18:37:29Z</time></trkpt><trkpt lat="45.69715828852744" lon="10.919086403030233"><ele>122.0</ele><time>2026-04-19T18:37:30Z</time></trkpt><trkpt lat="45.69733983298494" lon="10.91931274216836"><ele>122.5</ele><time>2026-04-19T18:37:31Z</time></trkpt><trkpt lat="45.697526118830005" lon="10.919529651495157"><ele>123.0</ele><time>2026-04-19T18:37:32Z</time></trkpt><trkpt lat="45.697716773688526" lon="10.919738819964977"><ele>123.0</ele><time>2026-04-19T18:37:33Z</time></trkpt><trkpt lat="45.697909780253234" lon="10.919945185840918"><ele>123.0</ele><time>2026-04-19T18:37:34Z</time></trkpt><trkpt lat="45.69810613929333" lon="10.920143707640651"><ele>123.5</ele><time>2026-04-19T18:37:35Z</time></trkpt><trkpt lat="45.698306514268054" lon="10.920335309330088"><ele>124.0</ele><time>2026-04-19T18:37:36Z</time></trkpt><trkpt lat="45.698510297508136" lon="10.92051865960884"><ele>125.0</ele><time>2026-04-19T18:37:37Z</time></trkpt><trkpt lat="45.6987179502211" lon="10.920696867419776"><ele>126.0</ele><time>2026-04-19T18:37:38Z</time></trkpt><trkpt lat="45.698926307165124" lon="10.920869938429053"><ele>125.5</ele><time>2026-04-19T18:37:39Z</time></trkpt><trkpt lat="45.69913819275343" lon="10.921036126761518"><ele>125.0</ele><time>2026-04-19T18:37:40Z</time></trkpt><trkpt lat="45.6993518057" lon="10.921195575105275"><ele>124.0</ele><time>2026-04-19T18:37:41Z</time></trkpt><trkpt lat="45.699564399446594" lon="10.921345282832435"><ele>123.0</ele><time>2026-04-19T18:37:42Z</time></trkpt><trkpt lat="45.69978414726618" lon="10.921488320922137"><ele>123.0</ele><time>2026-04-19T18:37:43Z</time></trkpt><trkpt lat="45.70000694283909" lon="10.921627463670365"><ele>123.0</ele><time>2026-04-19T18:37:44Z</time></trkpt><trkpt lat="45.70022867037036" lon="10.921759318857516"><ele>122.0</ele><time>2026-04-19T18:37:45Z</time></trkpt><trkpt lat="45.700451095626335" lon="10.921889583176801"><ele>121.0</ele><time>2026-04-19T18:37:46Z</time></trkpt><trkpt lat="45.70067598279938" lon="10.922012184529784"><ele>121.0</ele><time>2026-04-19T18:37:47Z</time></trkpt><trkpt lat="45.700901136340626" lon="10.922133878562716"><ele>121.0</ele><time>2026-04-19T18:37:48Z</time></trkpt><trkpt lat="45.701125818470885" lon="10.922258364841474"><ele>121.0</ele><time>2026-04-19T18:37:49Z</time></trkpt><trkpt lat="45.70135138909283" lon="10.922380474581438"><ele>121.0</ele><time>2026-04-19T18:37:50Z</time></trkpt><trkpt lat="45.70157796753334" lon="10.922500545874648"><ele>121.0</ele><time>2026-04-19T18:37:51Z</time></trkpt><trkpt lat="45.701802016433085" lon="10.922626855600345"><ele>121.0</ele><time>2026-04-19T18:37:52Z</time></trkpt><trkpt lat="45.70202744285626" lon="10.92275232061708"><ele>122.5</ele><time>2026-04-19T18:37:53Z</time></trkpt><trkpt lat="45.70225350281337" lon="10.922873891533099"><ele>124.0</ele><time>2026-04-19T18:37:54Z</time></trkpt><trkpt lat="45.702480131279906" lon="10.922988939998989"><ele>124.0</ele><time>2026-04-19T18:37:55Z</time></trkpt><trkpt lat="45.70270545263132" lon="10.923108548198424"><ele>124.0</ele><time>2026-04-19T18:37:56Z</time></trkpt><trkpt lat="45.7029311487184" lon="10.923223670470168"><ele>124.0</ele><time>2026-04-19T18:37:57Z</time></trkpt><trkpt lat="45.70315594466651" lon="10.923346394081706"><ele>124.0</ele><time>2026-04-19T18:37:58Z</time></trkpt><trkpt lat="45.70338276861363" lon="10.923463382671478"><ele>124.0</ele><time>2026-04-19T18:37:59Z</time></trkpt><trkpt lat="45.70360777291096" lon="10.923586623651353"><ele>124.0</ele><time>2026-04-19T18:38:00Z</time></trkpt><trkpt lat="45.70383112468803" lon="10.923709033608676"><ele>124.0</ele><time>2026-04-19T18:38:01Z</time></trkpt><trkpt lat="45.70405912271638" lon="10.92382786944058"><ele>124.0</ele><time>2026-04-19T18:38:02Z</time></trkpt><trkpt lat="45.704290732247664" lon="10.923945649187807"><ele>124.0</ele><time>2026-04-19T18:38:03Z</time></trkpt><trkpt lat="45.70452288802495" lon="10.92407104736472"><ele>124.0</ele><time>2026-04-19T18:38:04Z</time></trkpt><trkpt lat="45.70475751304232" lon="10.924192537629596"><ele>123.5</ele><time>2026-04-19T18:38:05Z</time></trkpt><trkpt lat="45.70499004039927" lon="10.92431857176497"><ele>123.0</ele><time>2026-04-19T18:38:06Z</time></trkpt><trkpt lat="45.70522380708753" lon="10.924440417195605"><ele>123.0</ele><time>2026-04-19T18:38:07Z</time></trkpt><trkpt lat="45.70545571958779" lon="10.92455794230888"><ele>123.0</ele><time>2026-04-19T18:38:08Z</time></trkpt><trkpt lat="45.705686830273386" lon="10.924674860040922"><ele>123.0</ele><time>2026-04-19T18:38:09Z</time></trkpt><trkpt lat="45.70591784163897" lon="10.924794230723633"><ele>123.0</ele><time>2026-04-19T18:38:10Z</time></trkpt><trkpt lat="45.70614796096169" lon="10.924921124245014"><ele>123.5</ele><time>2026-04-19T18:38:11Z</time></trkpt><trkpt lat="45.70638574887408" lon="10.925045597666468"><ele>124.0</ele><time>2026-04-19T18:38:12Z</time></trkpt><trkpt lat="45.706629478609806" lon="10.925171849981515"><ele>124.0</ele><time>2026-04-19T18:38:13Z</time></trkpt><trkpt lat="45.70687757979766" lon="10.925304046262914"><ele>124.0</ele><time>2026-04-19T18:38:14Z</time></trkpt><trkpt lat="45.707130201374646" lon="10.925434703202804"><ele>124.5</ele><time>2026-04-19T18:38:15Z</time></trkpt><trkpt lat="45.7073885068249" lon="10.925567288404432"><ele>125.0</ele><time>2026-04-19T18:38:16Z</time></trkpt><trkpt lat="45.70764655466508" lon="10.92569848041083"><ele>125.0</ele><time>2026-04-19T18:38:17Z</time></trkpt><trkpt lat="45.70790844368303" lon="10.925830467163738"><ele>125.0</ele><time>2026-04-19T18:38:18Z</time></trkpt><trkpt lat="45.70817141776994" lon="10.925966799278044"><ele>125.0</ele><time>2026-04-19T18:38:19Z</time></trkpt><trkpt lat="45.7084360923552" lon="10.926108179389866"><ele>125.0</ele><time>2026-04-19T18:38:20Z</time></trkpt><trkpt lat="45.7087029551438" lon="10.926256514897997"><ele>125.0</ele><time>2026-04-19T18:38:21Z</time></trkpt><trkpt lat="45.70897050316452" lon="10.926411767789592"><ele>125.0</ele><time>2026-04-19T18:38:22Z</time></trkpt><trkpt lat="45.70923512770518" lon="10.926580196900325"><ele>125.0</ele><time>2026-04-19T18:38:23Z</time></trkpt><trkpt lat="45.70950071484725" lon="10.92675685430693"><ele>125.0</ele><time>2026-04-19T18:38:24Z</time></trkpt><trkpt lat="45.70976591611653" lon="10.92694283143078"><ele>125.0</ele><time>2026-04-19T18:38:25Z</time></trkpt><trkpt lat="45.71003223739333" lon="10.927138035534316"><ele>125.0</ele><time>2026-04-19T18:38:26Z</time></trkpt><trkpt lat="45.710297008107915" lon="10.927342005475412"><ele>125.0</ele><time>2026-04-19T18:38:27Z</time></trkpt><trkpt lat="45.710558899236496" lon="10.927555802094675"><ele>125.0</ele><time>2026-04-19T18:38:28Z</time></trkpt><trkpt lat="45.71081850721517" lon="10.927777521038523"><ele>125.0</ele><time>2026-04-19T18:38:29Z</time></trkpt><trkpt lat="45.71106982676284" lon="10.92800010527326"><ele>125.0</ele><time>2026-04-19T18:38:30Z</time></trkpt><trkpt lat="45.7113132911577" lon="10.928223241979392"><ele>124.5</ele><time>2026-04-19T18:38:31Z</time></trkpt><trkpt lat="45.71155001785693" lon="10.928440662303085"><ele>124.0</ele><time>2026-04-19T18:38:32Z</time></trkpt><trkpt lat="45.71178179080661" lon="10.928656832044153"><ele>124.5</ele><time>2026-04-19T18:38:33Z</time></trkpt><trkpt lat="45.71200917379517" lon="10.928871125436554"><ele>125.0</ele><time>2026-04-19T18:38:34Z</time></trkpt><trkpt lat="45.712230264291236" lon="10.92907918415117"><ele>125.5</ele><time>2026-04-19T18:38:35Z</time></trkpt><trkpt lat="45.712446891747966" lon="10.929283776916991"><ele>126.0</ele><time>2026-04-19T18:38:36Z</time></trkpt><trkpt lat="45.71266233139976" lon="10.929485707565519"><ele>125.5</ele><time>2026-04-19T18:38:37Z</time></trkpt><trkpt lat="45.712875347346866" lon="10.929685005481383"><ele>125.0</ele><time>2026-04-19T18:38:38Z</time></trkpt><trkpt lat="45.71308937503623" lon="10.929880985524658"><ele>125.0</ele><time>2026-04-19T18:38:39Z</time></trkpt><trkpt lat="45.71330273247008" lon="10.930079862397339"><ele>125.0</ele><time>2026-04-19T18:38:40Z</time></trkpt><trkpt lat="45.71351864795902" lon="10.930277483217731"><ele>125.5</ele><time>2026-04-19T18:38:41Z</time></trkpt><trkpt lat="45.71373377478504" lon="10.930475024979124"><ele>126.0</ele><time>2026-04-19T18:38:42Z</time></trkpt><trkpt lat="45.71394750305735" lon="10.930676160403616"><ele>126.0</ele><time>2026-04-19T18:38:43Z</time></trkpt><trkpt lat="45.71416104629186" lon="10.930877205945666"><ele>126.0</ele><time>2026-04-19T18:38:44Z</time></trkpt><trkpt lat="45.714375626968106" lon="10.931076740208479"><ele>126.0</ele><time>2026-04-19T18:38:45Z</time></trkpt><trkpt lat="45.714590837780335" lon="10.931276731221525"><ele>126.0</ele><time>2026-04-19T18:38:46Z</time></trkpt><trkpt lat="45.71480633832877" lon="10.93147672810233"><ele>126.0</ele><time>2026-04-19T18:38:47Z</time></trkpt><trkpt lat="45.71502271049042" lon="10.93167432858884"><ele>126.0</ele><time>2026-04-19T18:38:48Z</time></trkpt><trkpt lat="45.715238590170955" lon="10.931871872249555"><ele>126.0</ele><time>2026-04-19T18:38:49Z</time></trkpt><trkpt lat="45.71544871618634" lon="10.932066130643822"><ele>126.0</ele><time>2026-04-19T18:38:50Z</time></trkpt><trkpt lat="45.71565650601813" lon="10.932251617834869"><ele>126.0</ele><time>2026-04-19T18:38:51Z</time></trkpt><trkpt lat="45.71586583277015" lon="10.93242755780976"><ele>126.0</ele><time>2026-04-19T18:38:52Z</time></trkpt><trkpt lat="45.716077531959726" lon="10.932593238730988"><ele>126.0</ele><time>2026-04-19T18:38:53Z</time></trkpt><trkpt lat="45.71629086975611" lon="10.932755236121071"><ele>126.0</ele><time>2026-04-19T18:38:54Z</time></trkpt><trkpt lat="45.71650739441986" lon="10.93291414717363"><ele>126.0</ele><time>2026-04-19T18:38:55Z</time></trkpt><trkpt lat="45.71672801987824" lon="10.933069467415619"><ele>126.0</ele><time>2026-04-19T18:38:56Z</time></trkpt><trkpt lat="45.71695021008515" lon="10.933221131135165"><ele>125.5</ele><time>2026-04-19T18:38:57Z</time></trkpt><trkpt lat="45.717173074504466" lon="10.93337494834816"><ele>125.0</ele><time>2026-04-19T18:38:58Z</time></trkpt><trkpt lat="45.7173980434435" lon="10.9335252312163"><ele>125.0</ele><time>2026-04-19T18:38:59Z</time></trkpt><trkpt lat="45.71762097561974" lon="10.933678734525152"><ele>125.0</ele><time>2026-04-19T18:39:00Z</time></trkpt><trkpt lat="45.717843234249585" lon="10.933834813690448"><ele>125.5</ele><time>2026-04-19T18:39:01Z</time></trkpt><trkpt lat="45.71806614438049" lon="10.933988949026487"><ele>126.0</ele><time>2026-04-19T18:39:02Z</time></trkpt><trkpt lat="45.71828840577216" lon="10.934141399050517"><ele>125.5</ele><time>2026-04-19T18:39:03Z</time></trkpt><trkpt lat="45.71851079264509" lon="10.934294316895738"><ele>125.0</ele><time>2026-04-19T18:39:04Z</time></trkpt><trkpt lat="45.718732426999814" lon="10.934448390624873"><ele>125.0</ele><time>2026-04-19T18:39:05Z</time></trkpt><trkpt lat="45.718954827206964" lon="10.934600751514497"><ele>125.0</ele><time>2026-04-19T18:39:06Z</time></trkpt><trkpt lat="45.71917747750439" lon="10.934754675629293"><ele>125.0</ele><time>2026-04-19T18:39:07Z</time></trkpt><trkpt lat="45.719398524294164" lon="10.934908422391718"><ele>125.0</ele><time>2026-04-19T18:39:08Z</time></trkpt><trkpt lat="45.71962045202881" lon="10.935061721231776"><ele>124.5</ele><time>2026-04-19T18:39:09Z</time></trkpt><trkpt lat="45.71984307752823" lon="10.935213564984396"><ele>124.0</ele><time>2026-04-19T18:39:10Z</time></trkpt><trkpt lat="45.72006543888822" lon="10.935362767335661"><ele>126.0</ele><time>2026-04-19T18:39:11Z</time></trkpt><trkpt lat="45.7202884654027" lon="10.935514982687069"><ele>128.0</ele><time>2026-04-19T18:39:12Z</time></trkpt><trkpt lat="45.720510857255896" lon="10.935668626794206"><ele>128.0</ele><time>2026-04-19T18:39:13Z</time></trkpt><trkpt lat="45.720731986266266" lon="10.93582263553529"><ele>128.0</ele><time>2026-04-19T18:39:14Z</time></trkpt><trkpt lat="45.72095294766936" lon="10.935977579095304"><ele>127.5</ele><time>2026-04-19T18:39:15Z</time></trkpt><trkpt lat="45.72117506522261" lon="10.936132027163863"><ele>127.0</ele><time>2026-04-19T18:39:16Z</time></trkpt><trkpt lat="45.72139698845988" lon="10.936284260360706"><ele>127.0</ele><time>2026-04-19T18:39:17Z</time></trkpt><trkpt lat="45.72161983974883" lon="10.936436962936424"><ele>127.0</ele><time>2026-04-19T18:39:18Z</time></trkpt><trkpt lat="45.721840332169734" lon="10.936590112958703"><ele>126.5</ele><time>2026-04-19T18:39:19Z</time></trkpt><trkpt lat="45.72206403751434" lon="10.936741097310671"><ele>126.0</ele><time>2026-04-19T18:39:20Z</time></trkpt><trkpt lat="45.722285845619304" lon="10.936890773132818"><ele>126.0</ele><time>2026-04-19T18:39:21Z</time></trkpt><trkpt lat="45.72250856012719" lon="10.937039978744933"><ele>126.0</ele><time>2026-04-19T18:39:22Z</time></trkpt><trkpt lat="45.72273219138197" lon="10.93718765023677"><ele>126.5</ele><time>2026-04-19T18:39:23Z</time></trkpt><trkpt lat="45.72295505733908" lon="10.937337566851753"><ele>127.0</ele><time>2026-04-19T18:39:24Z</time></trkpt><trkpt lat="45.72317698046598" lon="10.937485313366443"><ele>127.0</ele><time>2026-04-19T18:39:25Z</time></trkpt><trkpt lat="45.72340127236993" lon="10.937634218703423"><ele>127.0</ele><time>2026-04-19T18:39:26Z</time></trkpt><trkpt lat="45.72362509244431" lon="10.937780135992389"><ele>127.0</ele><time>2026-04-19T18:39:27Z</time></trkpt><trkpt lat="45.723848458008845" lon="10.937928063469695"><ele>127.0</ele><time>2026-04-19T18:39:28Z</time></trkpt><trkpt lat="45.72407010333962" lon="10.93807689302351"><ele>127.0</ele><time>2026-04-19T18:39:29Z</time></trkpt><trkpt lat="45.72429309151052" lon="10.938229037350279"><ele>127.0</ele><time>2026-04-19T18:39:30Z</time></trkpt><trkpt lat="45.72451565284559" lon="10.938381149941057"><ele>127.0</ele><time>2026-04-19T18:39:31Z</time></trkpt><trkpt lat="45.724737362069256" lon="10.938535169055317"><ele>127.0</ele><time>2026-04-19T18:39:32Z</time></trkpt><trkpt lat="45.72496066585661" lon="10.93868608110908"><ele>127.0</ele><time>2026-04-19T18:39:33Z</time></trkpt><trkpt lat="45.72518362037603" lon="10.938836627310152"><ele>127.0</ele><time>2026-04-19T18:39:34Z</time></trkpt><trkpt lat="45.72540713261722" lon="10.938984283873591"><ele>127.0</ele><time>2026-04-19T18:39:35Z</time></trkpt><trkpt lat="45.72563378646064" lon="10.93913692076077"><ele>127.0</ele><time>2026-04-19T18:39:36Z</time></trkpt><trkpt lat="45.72586336210614" lon="10.93929498544637"><ele>127.5</ele><time>2026-04-19T18:39:37Z</time></trkpt><trkpt lat="45.726095584381554" lon="10.939454611950302"><ele>128.0</ele><time>2026-04-19T18:39:38Z</time></trkpt><trkpt lat="45.72633115436809" lon="10.939621548110647"><ele>128.0</ele><time>2026-04-19T18:39:39Z</time></trkpt><trkpt lat="45.726569397529325" lon="10.93978903123189"><ele>128.0</ele><time>2026-04-19T18:39:40Z</time></trkpt><trkpt lat="45.72680885550154" lon="10.939963402569404"><ele>127.5</ele><time>2026-04-19T18:39:41Z</time></trkpt><trkpt lat="45.72705003876529" lon="10.940147259501853"><ele>127.0</ele><time>2026-04-19T18:39:42Z</time></trkpt><trkpt lat="45.727290527344074" lon="10.940338160527421"><ele>127.0</ele><time>2026-04-19T18:39:43Z</time></trkpt><trkpt lat="45.72753306891891" lon="10.940532041222452"><ele>127.0</ele><time>2026-04-19T18:39:44Z</time></trkpt><trkpt lat="45.727773032019265" lon="10.94073352003477"><ele>128.5</ele><time>2026-04-19T18:39:45Z</time></trkpt><trkpt lat="45.72800673310634" lon="10.940943275249113"><ele>130.0</ele><time>2026-04-19T18:39:46Z</time></trkpt><trkpt lat="45.72823870395828" lon="10.941154720267459"><ele>130.0</ele><time>2026-04-19T18:39:47Z</time></trkpt><trkpt lat="45.72846523674221" lon="10.941362928332149"><ele>130.0</ele><time>2026-04-19T18:39:48Z</time></trkpt><trkpt lat="45.72868444845203" lon="10.941573633582154"><ele>130.0</ele><time>2026-04-19T18:39:49Z</time></trkpt><trkpt lat="45.72889638780634" lon="10.941786024717187"><ele>130.0</ele><time>2026-04-19T18:39:50Z</time></trkpt><trkpt lat="45.72910722438076" lon="10.941999083717969"><ele>130.0</ele><time>2026-04-19T18:39:51Z</time></trkpt><trkpt lat="45.729317226174466" lon="10.942217555367625"><ele>130.0</ele><time>2026-04-19T18:39:52Z</time></trkpt><trkpt lat="45.729523954018376" lon="10.942442220920931"><ele>130.0</ele><time>2026-04-19T18:39:53Z</time></trkpt><trkpt lat="45.729729442770015" lon="10.942674242744868"><ele>130.0</ele><time>2026-04-19T18:39:54Z</time></trkpt><trkpt lat="45.72993480914875" lon="10.942909024175444"><ele>130.0</ele><time>2026-04-19T18:39:55Z</time></trkpt><trkpt lat="45.73013638640938" lon="10.943151826038395"><ele>130.0</ele><time>2026-04-19T18:39:56Z</time></trkpt><trkpt lat="45.730337261285854" lon="10.943401704114244"><ele>129.5</ele><time>2026-04-19T18:39:57Z</time></trkpt><trkpt lat="45.73053768300587" lon="10.943654253509925"><ele>129.0</ele><time>2026-04-19T18:39:58Z</time></trkpt><trkpt lat="45.73073505947908" lon="10.943916930892785"><ele>129.0</ele><time>2026-04-19T18:39:59Z</time></trkpt><trkpt lat="45.73093223771854" lon="10.944182975647447"><ele>129.0</ele><time>2026-04-19T18:40:00Z</time></trkpt><trkpt lat="45.73112541069278" lon="10.944451213549293"><ele>130.0</ele><time>2026-04-19T18:40:01Z</time></trkpt><trkpt lat="45.731314481385965" lon="10.944722482163824"><ele>131.0</ele><time>2026-04-19T18:40:02Z</time></trkpt><trkpt lat="45.73149515988621" lon="10.945002932430079"><ele>130.5</ele><time>2026-04-19T18:40:03Z</time></trkpt><trkpt lat="45.731669853849965" lon="10.945282487244071"><ele>130.0</ele><time>2026-04-19T18:40:04Z</time></trkpt><trkpt lat="45.73184194928936" lon="10.945558735910833"><ele>130.0</ele><time>2026-04-19T18:40:05Z</time></trkpt><trkpt lat="45.732005321583074" lon="10.945833939847494"><ele>130.0</ele><time>2026-04-19T18:40:06Z</time></trkpt><trkpt lat="45.732165628699725" lon="10.94610448902586"><ele>130.0</ele><time>2026-04-19T18:40:07Z</time></trkpt><trkpt lat="45.73232178754678" lon="10.946373467522632"><ele>130.0</ele><time>2026-04-19T18:40:08Z</time></trkpt><trkpt lat="45.732475396165825" lon="10.946646177460941"><ele>130.0</ele><time>2026-04-19T18:40:09Z</time></trkpt><trkpt lat="45.732629609207564" lon="10.946922951518179"><ele>130.0</ele><time>2026-04-19T18:40:10Z</time></trkpt><trkpt lat="45.73278158081411" lon="10.947206482778366"><ele>130.0</ele><time>2026-04-19T18:40:11Z</time></trkpt><trkpt lat="45.73293162674472" lon="10.947494427890888"><ele>130.0</ele><time>2026-04-19T18:40:12Z</time></trkpt><trkpt lat="45.73308216361048" lon="10.947783343937093"><ele>130.5</ele><time>2026-04-19T18:40:13Z</time></trkpt><trkpt lat="45.73323305781416" lon="10.948075443346132"><ele>131.0</ele><time>2026-04-19T18:40:14Z</time></trkpt><trkpt lat="45.73338500655983" lon="10.948369922305544"><ele>130.5</ele><time>2026-04-19T18:40:15Z</time></trkpt><trkpt lat="45.733537448860936" lon="10.9486666590137"><ele>130.0</ele><time>2026-04-19T18:40:16Z</time></trkpt><trkpt lat="45.733690127492835" lon="10.948962149438213"><ele>130.5</ele><time>2026-04-19T18:40:17Z</time></trkpt><trkpt lat="45.73383907931215" lon="10.949251461078601"><ele>131.0</ele><time>2026-04-19T18:40:18Z</time></trkpt><trkpt lat="45.73398661345994" lon="10.94953480953213"><ele>131.0</ele><time>2026-04-19T18:40:19Z</time></trkpt><trkpt lat="45.73412940879635" lon="10.949816045998507"><ele>131.0</ele><time>2026-04-19T18:40:20Z</time></trkpt><trkpt lat="45.73427317938976" lon="10.95009469661028"><ele>130.5</ele><time>2026-04-19T18:40:21Z</time></trkpt><trkpt lat="45.73442042844695" lon="10.950372697602475"><ele>130.0</ele><time>2026-04-19T18:40:22Z</time></trkpt><trkpt lat="45.734568424426726" lon="10.950663023281207"><ele>130.0</ele><time>2026-04-19T18:40:23Z</time></trkpt><trkpt lat="45.734718018199516" lon="10.950954245703748"><ele>130.0</ele><time>2026-04-19T18:40:24Z</time></trkpt><trkpt lat="45.73487089872138" lon="10.951245412281423"><ele>130.0</ele><time>2026-04-19T18:40:25Z</time></trkpt><trkpt lat="45.73502196507809" lon="10.95153859814469"><ele>130.0</ele><time>2026-04-19T18:40:26Z</time></trkpt><trkpt lat="45.73517142746681" lon="10.951832418105452"><ele>129.5</ele><time>2026-04-19T18:40:27Z</time></trkpt><trkpt lat="45.73532315591087" lon="10.95212467758657"><ele>129.0</ele><time>2026-04-19T18:40:28Z</time></trkpt><trkpt lat="45.73547651052174" lon="10.952413532368418"><ele>129.5</ele><time>2026-04-19T18:40:29Z</time></trkpt><trkpt lat="45.735625125750445" lon="10.952705554984096"><ele>130.0</ele><time>2026-04-19T18:40:30Z</time></trkpt><trkpt lat="45.735774511661695" lon="10.952996175265692"><ele>130.0</ele><time>2026-04-19T18:40:31Z</time></trkpt><trkpt lat="45.73592244050661" lon="10.95328919333542"><ele>130.0</ele><time>2026-04-19T18:40:32Z</time></trkpt><trkpt lat="45.7360702018409" lon="10.953583197490099"><ele>131.0</ele><time>2026-04-19T18:40:33Z</time></trkpt><trkpt lat="45.73621649396334" lon="10.953885359921681"><ele>132.0</ele><time>2026-04-19T18:40:34Z</time></trkpt><trkpt lat="45.73636584821544" lon="10.9541906773551"><ele>133.0</ele><time>2026-04-19T18:40:35Z</time></trkpt><trkpt lat="45.73651284313012" lon="10.95450953692013"><ele>134.0</ele><time>2026-04-19T18:40:36Z</time></trkpt><trkpt lat="45.73665934310646" lon="10.954830722962082"><ele>134.0</ele><time>2026-04-19T18:40:37Z</time></trkpt><trkpt lat="45.73679739946711" lon="10.95516134454827"><ele>134.0</ele><time>2026-04-19T18:40:38Z</time></trkpt><trkpt lat="45.73693046619197" lon="10.955495535574341"><ele>134.0</ele><time>2026-04-19T18:40:39Z</time></trkpt><trkpt lat="45.7370549609606" lon="10.955833363819217"><ele>134.0</ele><time>2026-04-19T18:40:40Z</time></trkpt><trkpt lat="45.73717467436322" lon="10.95617463042182"><ele>134.0</ele><time>2026-04-19T18:40:41Z</time></trkpt><trkpt lat="45.73728381450386" lon="10.956519598504212"><ele>134.0</ele><time>2026-04-19T18:40:42Z</time></trkpt><trkpt lat="45.737390349905795" lon="10.95686764267166"><ele>134.0</ele><time>2026-04-19T18:40:43Z</time></trkpt><trkpt lat="45.73749154122421" lon="10.95721859421836"><ele>134.0</ele><time>2026-04-19T18:40:44Z</time></trkpt><trkpt lat="45.73758775992922" lon="10.957569906072605"><ele>133.5</ele><time>2026-04-19T18:40:45Z</time></trkpt><trkpt lat="45.737679896728736" lon="10.957925081097947"><ele>133.0</ele><time>2026-04-19T18:40:46Z</time></trkpt><trkpt lat="45.73776187580589" lon="10.958286259645638"><ele>133.5</ele><time>2026-04-19T18:40:47Z</time></trkpt><trkpt lat="45.73783847446638" lon="10.958649900349084"><ele>134.0</ele><time>2026-04-19T18:40:48Z</time></trkpt><trkpt lat="45.73791000530364" lon="10.95901491121292"><ele>134.5</ele><time>2026-04-19T18:40:49Z</time></trkpt><trkpt lat="45.73797463800411" lon="10.959384510683003"><ele>135.0</ele><time>2026-04-19T18:40:50Z</time></trkpt><trkpt lat="45.738034089674684" lon="10.959755823088548"><ele>135.0</ele><time>2026-04-19T18:40:51Z</time></trkpt><trkpt lat="45.73809345173736" lon="10.960127623130097"><ele>135.0</ele><time>2026-04-19T18:40:52Z</time></trkpt><trkpt lat="45.73814881824121" lon="10.960499473034364"><ele>134.5</ele><time>2026-04-19T18:40:53Z</time></trkpt><trkpt lat="45.738204260274976" lon="10.960871900720292"><ele>134.0</ele><time>2026-04-19T18:40:54Z</time></trkpt><trkpt lat="45.738259673268296" lon="10.9612441186293"><ele>134.0</ele><time>2026-04-19T18:40:55Z</time></trkpt><trkpt lat="45.73831794620266" lon="10.961614937409266"><ele>134.0</ele><time>2026-04-19T18:40:56Z</time></trkpt><trkpt lat="45.73837958132391" lon="10.96198567811665"><ele>134.5</ele><time>2026-04-19T18:40:57Z</time></trkpt><trkpt lat="45.73844394200405" lon="10.962354027654046"><ele>135.0</ele><time>2026-04-19T18:40:58Z</time></trkpt><trkpt lat="45.738516912391155" lon="10.962719018965394"><ele>135.5</ele><time>2026-04-19T18:40:59Z</time></trkpt><trkpt lat="45.738594436295024" lon="10.963081000278432"><ele>136.0</ele><time>2026-04-19T18:41:00Z</time></trkpt><trkpt lat="45.738679849346546" lon="10.963439549660457"><ele>136.0</ele><time>2026-04-19T18:41:01Z</time></trkpt><trkpt lat="45.73877177808747" lon="10.96379396659034"><ele>136.0</ele><time>2026-04-19T18:41:02Z</time></trkpt><trkpt lat="45.738872097432555" lon="10.964145768733497"><ele>136.5</ele><time>2026-04-19T18:41:03Z</time></trkpt><trkpt lat="45.73897910921491" lon="10.964493193674858"><ele>137.0</ele><time>2026-04-19T18:41:04Z</time></trkpt><trkpt lat="45.73909472424654" lon="10.964834913598322"><ele>136.5</ele><time>2026-04-19T18:41:05Z</time></trkpt><trkpt lat="45.73921587958183" lon="10.965172684343832"><ele>136.0</ele><time>2026-04-19T18:41:06Z</time></trkpt><trkpt lat="45.739345046953225" lon="10.965504636318162"><ele>137.0</ele><time>2026-04-19T18:41:07Z</time></trkpt><trkpt lat="45.73947978807897" lon="10.965830112752396"><ele>138.0</ele><time>2026-04-19T18:41:08Z</time></trkpt><trkpt lat="45.739623221725815" lon="10.966149000109993"><ele>138.0</ele><time>2026-04-19T18:41:09Z</time></trkpt><trkpt lat="45.73976897934765" lon="10.966465928335275"><ele>138.0</ele><time>2026-04-19T18:41:10Z</time></trkpt><trkpt lat="45.73992082850981" lon="10.96677793003311"><ele>137.5</ele><time>2026-04-19T18:41:11Z</time></trkpt><trkpt lat="45.74007725491653" lon="10.967084722270046"><ele>137.0</ele><time>2026-04-19T18:41:12Z</time></trkpt><trkpt lat="45.74023485435455" lon="10.967390639217712"><ele>135.5</ele><time>2026-04-19T18:41:13Z</time></trkpt><trkpt lat="45.74039368188752" lon="10.967694786041797"><ele>134.0</ele><time>2026-04-19T18:41:14Z</time></trkpt><trkpt lat="45.74055023783947" lon="10.968000778577684"><ele>134.0</ele><time>2026-04-19T18:41:15Z</time></trkpt><trkpt lat="45.7407082543247" lon="10.968306741240257"><ele>134.0</ele><time>2026-04-19T18:41:16Z</time></trkpt><trkpt lat="45.74086621959441" lon="10.96861118900039"><ele>134.0</ele><time>2026-04-19T18:41:17Z</time></trkpt><trkpt lat="45.741026593429595" lon="10.968914963862758"><ele>134.0</ele><time>2026-04-19T18:41:18Z</time></trkpt><trkpt lat="45.741184299478334" lon="10.969223003265423"><ele>134.0</ele><time>2026-04-19T18:41:19Z</time></trkpt><trkpt lat="45.74134280013662" lon="10.969529868549925"><ele>134.0</ele><time>2026-04-19T18:41:20Z</time></trkpt><trkpt lat="45.74150104902176" lon="10.969833406724455"><ele>133.0</ele><time>2026-04-19T18:41:21Z</time></trkpt><trkpt lat="45.74165691659084" lon="10.970140459826222"><ele>132.0</ele><time>2026-04-19T18:41:22Z</time></trkpt><trkpt lat="45.74181564938903" lon="10.970445543178327"><ele>134.0</ele><time>2026-04-19T18:41:23Z</time></trkpt><trkpt lat="45.74197386500404" lon="10.970751404061549"><ele>136.0</ele><time>2026-04-19T18:41:24Z</time></trkpt><trkpt lat="45.74212976388283" lon="10.971058357350161"><ele>136.0</ele><time>2026-04-19T18:41:25Z</time></trkpt><trkpt lat="45.742285673629944" lon="10.971364102919724"><ele>136.0</ele><time>2026-04-19T18:41:26Z</time></trkpt><trkpt lat="45.74243708168117" lon="10.971674825417242"><ele>136.0</ele><time>2026-04-19T18:41:27Z</time></trkpt><trkpt lat="45.74258436467602" lon="10.971989714383596"><ele>136.0</ele><time>2026-04-19T18:41:28Z</time></trkpt><trkpt lat="45.742732556230365" lon="10.972304856809956"><ele>135.5</ele><time>2026-04-19T18:41:29Z</time></trkpt><trkpt lat="45.74287586656405" lon="10.972624974256325"><ele>135.0</ele><time>2026-04-19T18:41:30Z</time></trkpt><trkpt lat="45.743015504957256" lon="10.972948476295459"><ele>135.0</ele><time>2026-04-19T18:41:31Z</time></trkpt><trkpt lat="45.74315766106384" lon="10.973269277438801"><ele>135.0</ele><time>2026-04-19T18:41:32Z</time></trkpt><trkpt lat="45.74329675963237" lon="10.973593080601598"><ele>135.0</ele><time>2026-04-19T18:41:33Z</time></trkpt><trkpt lat="45.743433275481365" lon="10.973919554938805"><ele>135.0</ele><time>2026-04-19T18:41:34Z</time></trkpt><trkpt lat="45.74357166392975" lon="10.974242193659085"><ele>135.0</ele><time>2026-04-19T18:41:35Z</time></trkpt><trkpt lat="45.743709380740654" lon="10.974566952592799"><ele>135.0</ele><time>2026-04-19T18:41:36Z</time></trkpt><trkpt lat="45.743845227015775" lon="10.974891464362246"><ele>136.0</ele><time>2026-04-19T18:41:37Z</time></trkpt><trkpt lat="45.74397764929889" lon="10.975220134400388"><ele>137.0</ele><time>2026-04-19T18:41:38Z</time></trkpt><trkpt lat="45.7441157570157" lon="10.975542250335707"><ele>137.0</ele><time>2026-04-19T18:41:39Z</time></trkpt><trkpt lat="45.7442478710864" lon="10.975869750881401"><ele>137.0</ele><time>2026-04-19T18:41:40Z</time></trkpt><trkpt lat="45.74438409790113" lon="10.97619426824641"><ele>137.0</ele><time>2026-04-19T18:41:41Z</time></trkpt><trkpt lat="45.74451733467217" lon="10.976522009312854"><ele>137.0</ele><time>2026-04-19T18:41:42Z</time></trkpt><trkpt lat="45.74464987951044" lon="10.976850190993439"><ele>138.0</ele><time>2026-04-19T18:41:43Z</time></trkpt><trkpt lat="45.74478345929248" lon="10.977176355731755"><ele>139.0</ele><time>2026-04-19T18:41:44Z</time></trkpt><trkpt lat="45.74491780976865" lon="10.97750436084445"><ele>139.0</ele><time>2026-04-19T18:41:45Z</time></trkpt><trkpt lat="45.74505379623395" lon="10.977828978046134"><ele>139.0</ele><time>2026-04-19T18:41:46Z</time></trkpt><trkpt lat="45.74519066786076" lon="10.978157455812054"><ele>139.5</ele><time>2026-04-19T18:41:47Z</time></trkpt><trkpt lat="45.745329083450194" lon="10.97848153347539"><ele>140.0</ele><time>2026-04-19T18:41:48Z</time></trkpt><trkpt lat="45.745465893058125" lon="10.978808590390296"><ele>140.0</ele><time>2026-04-19T18:41:49Z</time></trkpt><trkpt lat="45.74560281121288" lon="10.979134952536734"><ele>140.0</ele><time>2026-04-19T18:41:50Z</time></trkpt><trkpt lat="45.74573890805657" lon="10.979460448710897"><ele>140.5</ele><time>2026-04-19T18:41:51Z</time></trkpt><trkpt lat="45.745875791261014" lon="10.979787272280182"><ele>141.0</ele><time>2026-04-19T18:41:52Z</time></trkpt><trkpt lat="45.746011926720314" lon="10.980113973337163"><ele>139.5</ele><time>2026-04-19T18:41:53Z</time></trkpt><trkpt lat="45.74614849481707" lon="10.980442791896241"><ele>138.0</ele><time>2026-04-19T18:41:54Z</time></trkpt><trkpt lat="45.74628302030912" lon="10.980768479112145"><ele>139.5</ele><time>2026-04-19T18:41:55Z</time></trkpt><trkpt lat="45.74641869923613" lon="10.981095763564044"><ele>141.0</ele><time>2026-04-19T18:41:56Z</time></trkpt><trkpt lat="45.7465549238115" lon="10.981421258912986"><ele>140.0</ele><time>2026-04-19T18:41:57Z</time></trkpt><trkpt lat="45.74669066536255" lon="10.981748120430757"><ele>139.0</ele><time>2026-04-19T18:41:58Z</time></trkpt><trkpt lat="45.7468263737793" lon="10.982073184862617"><ele>138.0</ele><time>2026-04-19T18:41:59Z</time></trkpt><trkpt lat="45.746961273189" lon="10.982398886044702"><ele>137.0</ele><time>2026-04-19T18:42:00Z</time></trkpt><trkpt lat="45.74709595284817" lon="10.982726735259941"><ele>135.5</ele><time>2026-04-19T18:42:01Z</time></trkpt><trkpt lat="45.747229382017565" lon="10.98305276562903"><ele>134.0</ele><time>2026-04-19T18:42:02Z</time></trkpt><trkpt lat="45.747363882106114" lon="10.983380210159766"><ele>134.0</ele><time>2026-04-19T18:42:03Z</time></trkpt><trkpt lat="45.74750106872036" lon="10.983706792487748"><ele>134.0</ele><time>2026-04-19T18:42:04Z</time></trkpt><trkpt lat="45.747640281669575" lon="10.984030593819666"><ele>135.0</ele><time>2026-04-19T18:42:05Z</time></trkpt><trkpt lat="45.74778184664845" lon="10.98435099017662"><ele>136.0</ele><time>2026-04-19T18:42:06Z</time></trkpt><trkpt lat="45.74792866746314" lon="10.984668467341601"><ele>136.0</ele><time>2026-04-19T18:42:07Z</time></trkpt><trkpt lat="45.74807982260239" lon="10.984981141520443"><ele>136.0</ele><time>2026-04-19T18:42:08Z</time></trkpt><trkpt lat="45.748238817792036" lon="10.985287172082344"><ele>137.5</ele><time>2026-04-19T18:42:09Z</time></trkpt><trkpt lat="45.74840377294313" lon="10.985587830128345"><ele>139.0</ele><time>2026-04-19T18:42:10Z</time></trkpt><trkpt lat="45.74857063672162" lon="10.98588227689326"><ele>139.0</ele><time>2026-04-19T18:42:11Z</time></trkpt><trkpt lat="45.748743452942314" lon="10.986169808269443"><ele>139.0</ele><time>2026-04-19T18:42:12Z</time></trkpt><trkpt lat="45.74891913022879" lon="10.98645357523488"><ele>139.5</ele><time>2026-04-19T18:42:13Z</time></trkpt><trkpt lat="45.749102156428215" lon="10.986728377054297"><ele>140.0</ele><time>2026-04-19T18:42:14Z</time></trkpt><trkpt lat="45.74929399784623" lon="10.986989369853644"><ele>140.0</ele><time>2026-04-19T18:42:15Z</time></trkpt><trkpt lat="45.74949201719102" lon="10.98724256115564"><ele>140.0</ele><time>2026-04-19T18:42:16Z</time></trkpt><trkpt lat="45.74969579303804" lon="10.987487597452148"><ele>140.0</ele><time>2026-04-19T18:42:17Z</time></trkpt><trkpt lat="45.74990358146952" lon="10.987722778141807"><ele>140.0</ele><time>2026-04-19T18:42:18Z</time></trkpt><trkpt lat="45.750116226100765" lon="10.98795094047638"><ele>140.5</ele><time>2026-04-19T18:42:19Z</time></trkpt><trkpt lat="45.750331803836126" lon="10.988170768175225"><ele>141.0</ele><time>2026-04-19T18:42:20Z</time></trkpt><trkpt lat="45.75055233663877" lon="10.988386030926542"><ele>141.0</ele><time>2026-04-19T18:42:21Z</time></trkpt><trkpt lat="45.750775373221565" lon="10.988591566794305"><ele>141.0</ele><time>2026-04-19T18:42:22Z</time></trkpt><trkpt lat="45.751002528199216" lon="10.988788686677768"><ele>141.5</ele><time>2026-04-19T18:42:23Z</time></trkpt><trkpt lat="45.75123347794812" lon="10.988977956478367"><ele>142.0</ele><time>2026-04-19T18:42:24Z</time></trkpt><trkpt lat="45.751466309919" lon="10.989161423276824"><ele>142.5</ele><time>2026-04-19T18:42:25Z</time></trkpt><trkpt lat="45.75169994183635" lon="10.989343159653927"><ele>143.0</ele><time>2026-04-19T18:42:26Z</time></trkpt><trkpt lat="45.75193278906809" lon="10.989527739283513"><ele>143.0</ele><time>2026-04-19T18:42:27Z</time></trkpt><trkpt lat="45.75216620065833" lon="10.989707977299943"><ele>143.0</ele><time>2026-04-19T18:42:28Z</time></trkpt><trkpt lat="45.75240071866124" lon="10.989887870644061"><ele>144.0</ele><time>2026-04-19T18:42:29Z</time></trkpt><trkpt lat="45.75263606465195" lon="10.990064729604194"><ele>145.0</ele><time>2026-04-19T18:42:30Z</time></trkpt><trkpt lat="45.75287086055688" lon="10.990243691492669"><ele>145.0</ele><time>2026-04-19T18:42:31Z</time></trkpt><trkpt lat="45.75310472257924" lon="10.990424469123798"><ele>145.0</ele><time>2026-04-19T18:42:32Z</time></trkpt><trkpt lat="45.75333267447031" lon="10.990599298204089"><ele>145.0</ele><time>2026-04-19T18:42:33Z</time></trkpt><trkpt lat="45.75356077825771" lon="10.990774242353092"><ele>145.0</ele><time>2026-04-19T18:42:34Z</time></trkpt><trkpt lat="45.75378727317967" lon="10.990948353531198"><ele>145.0</ele><time>2026-04-19T18:42:35Z</time></trkpt><trkpt lat="45.75401615870878" lon="10.991123194171196"><ele>145.0</ele><time>2026-04-19T18:42:36Z</time></trkpt><trkpt lat="45.75424542921865" lon="10.99129797847521"><ele>144.5</ele><time>2026-04-19T18:42:37Z</time></trkpt><trkpt lat="45.754475155659286" lon="10.991476731240768"><ele>144.0</ele><time>2026-04-19T18:42:38Z</time></trkpt><trkpt lat="45.7547054024144" lon="10.991654894353426"><ele>145.0</ele><time>2026-04-19T18:42:39Z</time></trkpt><trkpt lat="45.75493643641783" lon="10.99183054473153"><ele>146.0</ele><time>2026-04-19T18:42:40Z</time></trkpt><trkpt lat="45.755168146705365" lon="10.992005024215892"><ele>144.5</ele><time>2026-04-19T18:42:41Z</time></trkpt><trkpt lat="45.755395556663956" lon="10.99217735620335"><ele>143.0</ele><time>2026-04-19T18:42:42Z</time></trkpt><trkpt lat="45.75562124549579" lon="10.992352434336983"><ele>143.0</ele><time>2026-04-19T18:42:43Z</time></trkpt><trkpt lat="45.755847481513925" lon="10.992523458277118"><ele>143.0</ele><time>2026-04-19T18:42:44Z</time></trkpt><trkpt lat="45.75607378058426" lon="10.99269849702098"><ele>143.0</ele><time>2026-04-19T18:42:45Z</time></trkpt><trkpt lat="45.75630216738093" lon="10.992875560772648"><ele>143.0</ele><time>2026-04-19T18:42:46Z</time></trkpt><trkpt lat="45.756531269158145" lon="10.993049799559717"><ele>143.0</ele><time>2026-04-19T18:42:47Z</time></trkpt><trkpt lat="45.75675982689637" lon="10.993226197656304"><ele>143.0</ele><time>2026-04-19T18:42:48Z</time></trkpt><trkpt lat="45.75698941001232" lon="10.993402097514833"><ele>144.5</ele><time>2026-04-19T18:42:49Z</time></trkpt><trkpt lat="45.75721955998109" lon="10.993575682307178"><ele>146.0</ele><time>2026-04-19T18:42:50Z</time></trkpt><trkpt lat="45.75744667579614" lon="10.993752176897669"><ele>146.0</ele><time>2026-04-19T18:42:51Z</time></trkpt><trkpt lat="45.7576767444974" lon="10.993927122704253"><ele>146.0</ele><time>2026-04-19T18:42:52Z</time></trkpt><trkpt lat="45.75790695512279" lon="10.99409978179201"><ele>145.5</ele><time>2026-04-19T18:42:53Z</time></trkpt><trkpt lat="45.758135416385656" lon="10.994275988019222"><ele>145.0</ele><time>2026-04-19T18:42:54Z</time></trkpt><trkpt lat="45.75836442875392" lon="10.994450306733151"><ele>144.5</ele><time>2026-04-19T18:42:55Z</time></trkpt><trkpt lat="45.7585921270833" lon="10.994624508725904"><ele>144.0</ele><time>2026-04-19T18:42:56Z</time></trkpt><trkpt lat="45.75882197372626" lon="10.99479942902449"><ele>144.0</ele><time>2026-04-19T18:42:57Z</time></trkpt><trkpt lat="45.759050318234536" lon="10.99497502728365"><ele>144.0</ele><time>2026-04-19T18:42:58Z</time></trkpt><trkpt lat="45.75927983930251" lon="10.995149115515604"><ele>146.0</ele><time>2026-04-19T18:42:59Z</time></trkpt><trkpt lat="45.75950815287532" lon="10.995326071368757"><ele>148.0</ele><time>2026-04-19T18:43:00Z</time></trkpt><trkpt lat="45.759734722426714" lon="10.995504712768577"><ele>148.0</ele><time>2026-04-19T18:43:01Z</time></trkpt><trkpt lat="45.759964174148905" lon="10.995680119728966"><ele>148.0</ele><time>2026-04-19T18:43:02Z</time></trkpt><trkpt lat="45.76019163415737" lon="10.995859242326075"><ele>146.0</ele><time>2026-04-19T18:43:03Z</time></trkpt><trkpt lat="45.760420970540316" lon="10.996032585653401"><ele>144.0</ele><time>2026-04-19T18:43:04Z</time></trkpt><trkpt lat="45.76065062497505" lon="10.996208207088696"><ele>144.0</ele><time>2026-04-19T18:43:05Z</time></trkpt><trkpt lat="45.76088050757206" lon="10.996382014117533"><ele>144.0</ele><time>2026-04-19T18:43:06Z</time></trkpt><trkpt lat="45.7611093428296" lon="10.996557769715734"><ele>145.0</ele><time>2026-04-19T18:43:07Z</time></trkpt><trkpt lat="45.76133951240766" lon="10.996728630358232"><ele>146.0</ele><time>2026-04-19T18:43:08Z</time></trkpt><trkpt lat="45.76156673360834" lon="10.996898343988986"><ele>146.0</ele><time>2026-04-19T18:43:09Z</time></trkpt><trkpt lat="45.761793295752895" lon="10.997072229154572"><ele>146.0</ele><time>2026-04-19T18:43:10Z</time></trkpt><trkpt lat="45.762014812354685" lon="10.99724422590955"><ele>146.5</ele><time>2026-04-19T18:43:11Z</time></trkpt><trkpt lat="45.762239164737196" lon="10.99741560360793"><ele>147.0</ele><time>2026-04-19T18:43:12Z</time></trkpt><trkpt lat="45.76246220159592" lon="10.997592364330282"><ele>147.0</ele><time>2026-04-19T18:43:13Z</time></trkpt><trkpt lat="45.76268310569582" lon="10.99777460016851"><ele>147.0</ele><time>2026-04-19T18:43:14Z</time></trkpt><trkpt lat="45.762899367213606" lon="10.997966769918499"><ele>147.0</ele><time>2026-04-19T18:43:15Z</time></trkpt><trkpt lat="45.76311098950178" lon="10.998174597670026"><ele>147.0</ele><time>2026-04-19T18:43:16Z</time></trkpt><trkpt lat="45.76331636276597" lon="10.998393799873048"><ele>147.5</ele><time>2026-04-19T18:43:17Z</time></trkpt><trkpt lat="45.763512627839404" lon="10.99862600178963"><ele>148.0</ele><time>2026-04-19T18:43:18Z</time></trkpt><trkpt lat="45.76370449717491" lon="10.998867940411648"><ele>147.5</ele><time>2026-04-19T18:43:19Z</time></trkpt><trkpt lat="45.76389109753504" lon="10.999117469825844"><ele>147.0</ele><time>2026-04-19T18:43:20Z</time></trkpt><trkpt lat="45.76406892239657" lon="10.999378921674008"><ele>147.0</ele><time>2026-04-19T18:43:21Z</time></trkpt><trkpt lat="45.7642401932538" lon="10.999652719744473"><ele>147.0</ele><time>2026-04-19T18:43:22Z</time></trkpt><trkpt lat="45.76440339819662" lon="10.99993227671594"><ele>144.0</ele><time>2026-04-19T18:43:23Z</time></trkpt><trkpt lat="45.764561088117155" lon="11.000219743214137"><ele>141.0</ele><time>2026-04-19T18:43:24Z</time></trkpt><trkpt lat="45.76472004236995" lon="11.000506240868836"><ele>141.0</ele><time>2026-04-19T18:43:25Z</time></trkpt><trkpt lat="45.764876669561055" lon="11.000794248687852"><ele>141.0</ele><time>2026-04-19T18:43:26Z</time></trkpt><trkpt lat="45.76503346368982" lon="11.00108101060796"><ele>141.0</ele><time>2026-04-19T18:43:27Z</time></trkpt><trkpt lat="45.76518953496456" lon="11.001369377378701"><ele>141.0</ele><time>2026-04-19T18:43:28Z</time></trkpt><trkpt lat="45.76534492794046" lon="11.001658697235873"><ele>142.0</ele><time>2026-04-19T18:43:29Z</time></trkpt><trkpt lat="45.76550147370827" lon="11.001949013388705"><ele>143.0</ele><time>2026-04-19T18:43:30Z</time></trkpt><trkpt lat="45.76565665373074" lon="11.002237769962045"><ele>144.5</ele><time>2026-04-19T18:43:31Z</time></trkpt><trkpt lat="45.765812324254384" lon="11.002528921968207"><ele>146.0</ele><time>2026-04-19T18:43:32Z</time></trkpt><trkpt lat="45.765965353259304" lon="11.002819396177706"><ele>143.5</ele><time>2026-04-19T18:43:33Z</time></trkpt><trkpt lat="45.766120158492946" lon="11.003110358982351"><ele>141.0</ele><time>2026-04-19T18:43:34Z</time></trkpt><trkpt lat="45.766273835248406" lon="11.003403382225676"><ele>141.0</ele><time>2026-04-19T18:43:35Z</time></trkpt><trkpt lat="45.7664263152849" lon="11.003694659954926"><ele>141.0</ele><time>2026-04-19T18:43:36Z</time></trkpt><trkpt lat="45.766578907734164" lon="11.003986128766632"><ele>140.5</ele><time>2026-04-19T18:43:37Z</time></trkpt><trkpt lat="45.76673283448694" lon="11.004277019140622"><ele>140.0</ele><time>2026-04-19T18:43:38Z</time></trkpt><trkpt lat="45.766886594350325" lon="11.004569536852504"><ele>140.0</ele><time>2026-04-19T18:43:39Z</time></trkpt><trkpt lat="45.76704020454479" lon="11.004862241284284"><ele>140.0</ele><time>2026-04-19T18:43:40Z</time></trkpt><trkpt lat="45.76719282054758" lon="11.00515534621198"><ele>141.5</ele><time>2026-04-19T18:43:41Z</time></trkpt><trkpt lat="45.76734629239214" lon="11.005446376188761"><ele>143.0</ele><time>2026-04-19T18:43:42Z</time></trkpt><trkpt lat="45.767500658036596" lon="11.005737137518825"><ele>143.5</ele><time>2026-04-19T18:43:43Z</time></trkpt><trkpt lat="45.76765536179897" lon="11.006027829790565"><ele>144.0</ele><time>2026-04-19T18:43:44Z</time></trkpt><trkpt lat="45.767810119878696" lon="11.006318154216391"><ele>142.5</ele><time>2026-04-19T18:43:45Z</time></trkpt><trkpt lat="45.76796570850325" lon="11.006606784638354"><ele>141.0</ele><time>2026-04-19T18:43:46Z</time></trkpt><trkpt lat="45.76812230310467" lon="11.006895742345348"><ele>141.0</ele><time>2026-04-19T18:43:47Z</time></trkpt><trkpt lat="45.76827905032375" lon="11.007183552828959"><ele>141.0</ele><time>2026-04-19T18:43:48Z</time></trkpt><trkpt lat="45.76843870401663" lon="11.007468599481342"><ele>140.5</ele><time>2026-04-19T18:43:49Z</time></trkpt><trkpt lat="45.76860411251565" lon="11.007747665751248"><ele>140.0</ele><time>2026-04-19T18:43:50Z</time></trkpt><trkpt lat="45.76877268146173" lon="11.008022609129434"><ele>140.0</ele><time>2026-04-19T18:43:51Z</time></trkpt><trkpt lat="45.76894513601456" lon="11.008290665025465"><ele>140.0</ele><time>2026-04-19T18:43:52Z</time></trkpt><trkpt lat="45.76912491629436" lon="11.008554208030718"><ele>140.0</ele><time>2026-04-19T18:43:53Z</time></trkpt><trkpt lat="45.7693072412846" lon="11.00880758170724"><ele>140.0</ele><time>2026-04-19T18:43:54Z</time></trkpt><trkpt lat="45.769494902909635" lon="11.009055167125561"><ele>141.0</ele><time>2026-04-19T18:43:55Z</time></trkpt><trkpt lat="45.76968772905844" lon="11.009293441016993"><ele>142.0</ele><time>2026-04-19T18:43:56Z</time></trkpt><trkpt lat="45.769888234993104" lon="11.009522598087411"><ele>142.0</ele><time>2026-04-19T18:43:57Z</time></trkpt><trkpt lat="45.770091716321694" lon="11.009740546045018"><ele>142.0</ele><time>2026-04-19T18:43:58Z</time></trkpt><trkpt lat="45.770299351835874" lon="11.00995360264561"><ele>140.5</ele><time>2026-04-19T18:43:59Z</time></trkpt><trkpt lat="45.77050976615272" lon="11.010160332549969"><ele>139.0</ele><time>2026-04-19T18:44:00Z</time></trkpt><trkpt lat="45.77072388862037" lon="11.010360464246006"><ele>139.0</ele><time>2026-04-19T18:44:01Z</time></trkpt><trkpt lat="45.77094016807161" lon="11.010551069457446"><ele>139.0</ele><time>2026-04-19T18:44:02Z</time></trkpt><trkpt lat="45.77116212006114" lon="11.010733133778043"><ele>140.5</ele><time>2026-04-19T18:44:03Z</time></trkpt><trkpt lat="45.771387976170445" lon="11.010902633504404"><ele>142.0</ele><time>2026-04-19T18:44:04Z</time></trkpt><trkpt lat="45.77161716770307" lon="11.01106263433011"><ele>142.0</ele><time>2026-04-19T18:44:05Z</time></trkpt><trkpt lat="45.77184910417254" lon="11.011213813333008"><ele>142.0</ele><time>2026-04-19T18:44:06Z</time></trkpt><trkpt lat="45.77208414747486" lon="11.01135750380105"><ele>140.5</ele><time>2026-04-19T18:44:07Z</time></trkpt><trkpt lat="45.77232177758198" lon="11.011490969775931"><ele>139.0</ele><time>2026-04-19T18:44:08Z</time></trkpt><trkpt lat="45.77256216500726" lon="11.01161326850622"><ele>141.0</ele><time>2026-04-19T18:44:09Z</time></trkpt><trkpt lat="45.77280462622" lon="11.011727914264418"><ele>143.0</ele><time>2026-04-19T18:44:10Z</time></trkpt><trkpt lat="45.7730485025801" lon="11.011840547162324"><ele>143.0</ele><time>2026-04-19T18:44:11Z</time></trkpt><trkpt lat="45.77329178961036" lon="11.011953406404816"><ele>143.0</ele><time>2026-04-19T18:44:12Z</time></trkpt><trkpt lat="45.77353542620381" lon="11.012062493282418"><ele>143.0</ele><time>2026-04-19T18:44:13Z</time></trkpt><trkpt lat="45.77377925170837" lon="11.012172364355951"><ele>143.0</ele><time>2026-04-19T18:44:14Z</time></trkpt><trkpt lat="45.77402259629475" lon="11.01227894306036"><ele>143.0</ele><time>2026-04-19T18:44:15Z</time></trkpt><trkpt lat="45.774266015477" lon="11.01238606691051"><ele>143.0</ele><time>2026-04-19T18:44:16Z</time></trkpt><trkpt lat="45.77450942514911" lon="11.012494905988417"><ele>144.0</ele><time>2026-04-19T18:44:17Z</time></trkpt><trkpt lat="45.77475322492314" lon="11.01260375043172"><ele>145.0</ele><time>2026-04-19T18:44:18Z</time></trkpt><trkpt lat="45.774996168118555" lon="11.012712823581042"><ele>144.5</ele><time>2026-04-19T18:44:19Z</time></trkpt><trkpt lat="45.77524025162398" lon="11.012822391803015"><ele>144.0</ele><time>2026-04-19T18:44:20Z</time></trkpt><trkpt lat="45.77548300105601" lon="11.012933556986368"><ele>144.0</ele><time>2026-04-19T18:44:21Z</time></trkpt><trkpt lat="45.77572777024445" lon="11.01304032650607"><ele>144.0</ele><time>2026-04-19T18:44:22Z</time></trkpt><trkpt lat="45.77597182016662" lon="11.013146372801199"><ele>143.5</ele><time>2026-04-19T18:44:23Z</time></trkpt><trkpt lat="45.776215084155375" lon="11.01325528944363"><ele>143.0</ele><time>2026-04-19T18:44:24Z</time></trkpt><trkpt lat="45.776458739983674" lon="11.013361311856649"><ele>143.5</ele><time>2026-04-19T18:44:25Z</time></trkpt><trkpt lat="45.776701738002636" lon="11.013468499460313"><ele>144.0</ele><time>2026-04-19T18:44:26Z</time></trkpt><trkpt lat="45.776946086373485" lon="11.013574941115197"><ele>144.0</ele><time>2026-04-19T18:44:27Z</time></trkpt><trkpt lat="45.777191291044865" lon="11.013679951056405"><ele>144.0</ele><time>2026-04-19T18:44:28Z</time></trkpt><trkpt lat="45.777435251353594" lon="11.013786389515788"><ele>144.0</ele><time>2026-04-19T18:44:29Z</time></trkpt><trkpt lat="45.77767918915906" lon="11.013892099301325"><ele>144.0</ele><time>2026-04-19T18:44:30Z</time></trkpt><trkpt lat="45.77792323948288" lon="11.013999867129543"><ele>144.0</ele><time>2026-04-19T18:44:31Z</time></trkpt><trkpt lat="45.778168969498886" lon="11.014105084571124"><ele>144.0</ele><time>2026-04-19T18:44:32Z</time></trkpt><trkpt lat="45.778413027837445" lon="11.014211386671255"><ele>144.5</ele><time>2026-04-19T18:44:33Z</time></trkpt><trkpt lat="45.77865708357574" lon="11.014318108294429"><ele>145.0</ele><time>2026-04-19T18:44:34Z</time></trkpt><trkpt lat="45.778901643476686" lon="11.014423906893681"><ele>145.0</ele><time>2026-04-19T18:44:35Z</time></trkpt><trkpt lat="45.77914665880131" lon="11.014530041339544"><ele>145.0</ele><time>2026-04-19T18:44:36Z</time></trkpt><trkpt lat="45.77939109802609" lon="11.01463642998504"><ele>144.0</ele><time>2026-04-19T18:44:37Z</time></trkpt><trkpt lat="45.779636431349296" lon="11.014739695764849"><ele>143.0</ele><time>2026-04-19T18:44:38Z</time></trkpt><trkpt lat="45.7798811799602" lon="11.014844083759662"><ele>143.0</ele><time>2026-04-19T18:44:39Z</time></trkpt><trkpt lat="45.78012595808026" lon="11.014949173011217"><ele>143.0</ele><time>2026-04-19T18:44:40Z</time></trkpt><trkpt lat="45.78037028962216" lon="11.015056314500146"><ele>144.5</ele><time>2026-04-19T18:44:41Z</time></trkpt><trkpt lat="45.78061445020965" lon="11.015161062117258"><ele>146.0</ele><time>2026-04-19T18:44:42Z</time></trkpt><trkpt lat="45.7808592280086" lon="11.015267034104072"><ele>145.0</ele><time>2026-04-19T18:44:43Z</time></trkpt><trkpt lat="45.78110288439203" lon="11.01537322718005"><ele>144.0</ele><time>2026-04-19T18:44:44Z</time></trkpt><trkpt lat="45.78134759634298" lon="11.015479063384879"><ele>144.0</ele><time>2026-04-19T18:44:45Z</time></trkpt><trkpt lat="45.78159166312114" lon="11.015585083249695"><ele>144.0</ele><time>2026-04-19T18:44:46Z</time></trkpt><trkpt lat="45.781835745013126" lon="11.015692554709329"><ele>144.5</ele><time>2026-04-19T18:44:47Z</time></trkpt><trkpt lat="45.782078770702576" lon="11.015801238474607"><ele>145.0</ele><time>2026-04-19T18:44:48Z</time></trkpt><trkpt lat="45.78232270513413" lon="11.01591050421429"><ele>145.5</ele><time>2026-04-19T18:44:49Z</time></trkpt><trkpt lat="45.7825662778785" lon="11.016020064711176"><ele>146.0</ele><time>2026-04-19T18:44:50Z</time></trkpt><trkpt lat="45.78280977586958" lon="11.016130156148103"><ele>146.0</ele><time>2026-04-19T18:44:51Z</time></trkpt><trkpt lat="45.78305320654788" lon="11.016242591068709"><ele>146.0</ele><time>2026-04-19T18:44:52Z</time></trkpt><trkpt lat="45.78329475760076" lon="11.016363130974776"><ele>147.0</ele><time>2026-04-19T18:44:53Z</time></trkpt><trkpt lat="45.783533002700864" lon="11.016494666042089"><ele>148.0</ele><time>2026-04-19T18:44:54Z</time></trkpt><trkpt lat="45.78376959583656" lon="11.016633091255207"><ele>147.0</ele><time>2026-04-19T18:44:55Z</time></trkpt><trkpt lat="45.784004589203576" lon="11.016779570007596"><ele>146.0</ele><time>2026-04-19T18:44:56Z</time></trkpt><trkpt lat="45.784235838976485" lon="11.01693561385192"><ele>146.0</ele><time>2026-04-19T18:44:57Z</time></trkpt><trkpt lat="45.7844602836757" lon="11.017107649058456"><ele>146.0</ele><time>2026-04-19T18:44:58Z</time></trkpt><trkpt lat="45.78468246601284" lon="11.017287411827425"><ele>146.0</ele><time>2026-04-19T18:44:59Z</time></trkpt><trkpt lat="45.78490157349414" lon="11.0174753156373"><ele>146.0</ele><time>2026-04-19T18:45:00Z</time></trkpt><trkpt lat="45.78512304963404" lon="11.017660764325607"><ele>146.5</ele><time>2026-04-19T18:45:01Z</time></trkpt><trkpt lat="45.78534189459829" lon="11.017851121630992"><ele>147.0</ele><time>2026-04-19T18:45:02Z</time></trkpt><trkpt lat="45.78556004054036" lon="11.01804069071709"><ele>147.0</ele><time>2026-04-19T18:45:03Z</time></trkpt><trkpt lat="45.7857803417168" lon="11.018230415378817"><ele>147.0</ele><time>2026-04-19T18:45:04Z</time></trkpt><trkpt lat="45.78600046890116" lon="11.018417783412906"><ele>147.5</ele><time>2026-04-19T18:45:05Z</time></trkpt><trkpt lat="45.786223329242155" lon="11.018600143765982"><ele>148.0</ele><time>2026-04-19T18:45:06Z</time></trkpt><trkpt lat="45.786448389696" lon="11.018773448468313"><ele>148.0</ele><time>2026-04-19T18:45:07Z</time></trkpt><trkpt lat="45.78667539426978" lon="11.018940077278254"><ele>148.0</ele><time>2026-04-19T18:45:08Z</time></trkpt><trkpt lat="45.78690557772118" lon="11.019099401701546"><ele>148.5</ele><time>2026-04-19T18:45:09Z</time></trkpt><trkpt lat="45.78713823698439" lon="11.01925134289885"><ele>149.0</ele><time>2026-04-19T18:45:10Z</time></trkpt><trkpt lat="45.787372844865615" lon="11.019394142481648"><ele>149.0</ele><time>2026-04-19T18:45:11Z</time></trkpt><trkpt lat="45.78761074945778" lon="11.019526437680714"><ele>149.0</ele><time>2026-04-19T18:45:12Z</time></trkpt><trkpt lat="45.7878507339733" lon="11.019647738607043"><ele>149.0</ele><time>2026-04-19T18:45:13Z</time></trkpt><trkpt lat="45.788094082519834" lon="11.0197597769695"><ele>149.0</ele><time>2026-04-19T18:45:14Z</time></trkpt><trkpt lat="45.78833805930407" lon="11.019860483762315"><ele>148.5</ele><time>2026-04-19T18:45:15Z</time></trkpt><trkpt lat="45.78858491825358" lon="11.019952156486731"><ele>148.0</ele><time>2026-04-19T18:45:16Z</time></trkpt><trkpt lat="45.788833487012454" lon="11.020035586433885"><ele>148.0</ele><time>2026-04-19T18:45:17Z</time></trkpt><trkpt lat="45.78908311493801" lon="11.020108992470577"><ele>148.0</ele><time>2026-04-19T18:45:18Z</time></trkpt><trkpt lat="45.78933418471966" lon="11.020173491010258"><ele>147.5</ele><time>2026-04-19T18:45:19Z</time></trkpt><trkpt lat="45.78958754496366" lon="11.020232669170086"><ele>147.0</ele><time>2026-04-19T18:45:20Z</time></trkpt><trkpt lat="45.789840621982314" lon="11.020286234902956"><ele>147.0</ele><time>2026-04-19T18:45:21Z</time></trkpt><trkpt lat="45.790094449263286" lon="11.020339948570838"><ele>147.0</ele><time>2026-04-19T18:45:22Z</time></trkpt><trkpt lat="45.79034611272042" lon="11.020392720015122"><ele>147.5</ele><time>2026-04-19T18:45:23Z</time></trkpt><trkpt lat="45.790599401015314" lon="11.020443684520586"><ele>148.0</ele><time>2026-04-19T18:45:24Z</time></trkpt><trkpt lat="45.79085229658783" lon="11.020494200517248"><ele>146.5</ele><time>2026-04-19T18:45:25Z</time></trkpt><trkpt lat="45.791105819829" lon="11.02054662069555"><ele>145.0</ele><time>2026-04-19T18:45:26Z</time></trkpt><trkpt lat="45.791358382214874" lon="11.020599228495001"><ele>145.0</ele><time>2026-04-19T18:45:27Z</time></trkpt><trkpt lat="45.79161236468191" lon="11.02065224300568"><ele>145.0</ele><time>2026-04-19T18:45:28Z</time></trkpt><trkpt lat="45.79186597841353" lon="11.020705147897582"><ele>145.0</ele><time>2026-04-19T18:45:29Z</time></trkpt><trkpt lat="45.79211809953666" lon="11.020755608443153"><ele>145.0</ele><time>2026-04-19T18:45:30Z</time></trkpt><trkpt lat="45.7923729362038" lon="11.020807467461813"><ele>146.0</ele><time>2026-04-19T18:45:31Z</time></trkpt><trkpt lat="45.79262719624827" lon="11.020861971347403"><ele>147.0</ele><time>2026-04-19T18:45:32Z</time></trkpt><trkpt lat="45.79288081838676" lon="11.020914890264821"><ele>147.0</ele><time>2026-04-19T18:45:33Z</time></trkpt><trkpt lat="45.79313400580786" lon="11.020967589299552"><ele>147.0</ele><time>2026-04-19T18:45:34Z</time></trkpt><trkpt lat="45.793388492745706" lon="11.02101837456386"><ele>146.5</ele><time>2026-04-19T18:45:35Z</time></trkpt><trkpt lat="45.793642895514274" lon="11.021074049519225"><ele>146.0</ele><time>2026-04-19T18:45:36Z</time></trkpt><trkpt lat="45.79389281673096" lon="11.0211149248837"><ele>146.0</ele><time>2026-04-19T18:45:37Z</time></trkpt><trkpt lat="45.79414187035726" lon="11.021160945831154"><ele>146.0</ele><time>2026-04-19T18:45:38Z</time></trkpt><trkpt lat="45.79439891389601" lon="11.02118331575547"><ele>146.5</ele><time>2026-04-19T18:45:39Z</time></trkpt><trkpt lat="45.794653966288735" lon="11.021214536565283"><ele>147.0</ele><time>2026-04-19T18:45:40Z</time></trkpt><trkpt lat="45.7949083472876" lon="11.021238681102037"><ele>147.0</ele><time>2026-04-19T18:45:41Z</time></trkpt><trkpt lat="45.79516424795375" lon="11.021248931227579"><ele>147.0</ele><time>2026-04-19T18:45:42Z</time></trkpt><trkpt lat="45.79542050968361" lon="11.021249677221439"><ele>147.0</ele><time>2026-04-19T18:45:43Z</time></trkpt><trkpt lat="45.79567658435056" lon="11.021242910574683"><ele>147.0</ele><time>2026-04-19T18:45:44Z</time></trkpt><trkpt lat="45.795931700677315" lon="11.021224089814973"><ele>147.5</ele><time>2026-04-19T18:45:45Z</time></trkpt><trkpt lat="45.7961862831512" lon="11.021190993295063"><ele>148.0</ele><time>2026-04-19T18:45:46Z</time></trkpt><trkpt lat="45.79643937423743" lon="11.021148502342843"><ele>148.0</ele><time>2026-04-19T18:45:47Z</time></trkpt><trkpt lat="45.79669130913713" lon="11.021097714549812"><ele>148.0</ele><time>2026-04-19T18:45:48Z</time></trkpt><trkpt lat="45.79694245160304" lon="11.021037657051838"><ele>148.5</ele><time>2026-04-19T18:45:49Z</time></trkpt><trkpt lat="45.79719277226293" lon="11.02096614307454"><ele>149.0</ele><time>2026-04-19T18:45:50Z</time></trkpt><trkpt lat="45.79744200682167" lon="11.020887613840983"><ele>148.5</ele><time>2026-04-19T18:45:51Z</time></trkpt><trkpt lat="45.797689577930875" lon="11.020799466283695"><ele>148.0</ele><time>2026-04-19T18:45:52Z</time></trkpt><trkpt lat="45.797935150714565" lon="11.020700391846782"><ele>148.0</ele><time>2026-04-19T18:45:53Z</time></trkpt><trkpt lat="45.79817867891455" lon="11.02059019304167"><ele>148.0</ele><time>2026-04-19T18:45:54Z</time></trkpt><trkpt lat="45.798420659644584" lon="11.02047095460039"><ele>148.0</ele><time>2026-04-19T18:45:55Z</time></trkpt><trkpt lat="45.79866019512412" lon="11.020343682518098"><ele>148.0</ele><time>2026-04-19T18:45:56Z</time></trkpt><trkpt lat="45.79889870615441" lon="11.020210506583998"><ele>148.0</ele><time>2026-04-19T18:45:57Z</time></trkpt><trkpt lat="45.79913573555032" lon="11.020074957718672"><ele>148.0</ele><time>2026-04-19T18:45:58Z</time></trkpt><trkpt lat="45.79937148077144" lon="11.019933697089211"><ele>147.0</ele><time>2026-04-19T18:45:59Z</time></trkpt><trkpt lat="45.79960685857762" lon="11.019792316026793"><ele>146.0</ele><time>2026-04-19T18:46:00Z</time></trkpt><trkpt lat="45.79984232650688" lon="11.019651844905859"><ele>146.0</ele><time>2026-04-19T18:46:01Z</time></trkpt><trkpt lat="45.80007738934927" lon="11.019509637541608"><ele>146.0</ele><time>2026-04-19T18:46:02Z</time></trkpt><trkpt lat="45.80031206687876" lon="11.019367350151231"><ele>146.0</ele><time>2026-04-19T18:46:03Z</time></trkpt><trkpt lat="45.800547652674474" lon="11.01922559431073"><ele>146.0</ele><time>2026-04-19T18:46:04Z</time></trkpt><trkpt lat="45.80078300760952" lon="11.019083367217277"><ele>146.5</ele><time>2026-04-19T18:46:05Z</time></trkpt><trkpt lat="45.801019391558064" lon="11.018943747305183"><ele>147.0</ele><time>2026-04-19T18:46:06Z</time></trkpt><trkpt lat="45.80125575035511" lon="11.018804295891904"><ele>147.0</ele><time>2026-04-19T18:46:07Z</time></trkpt><trkpt lat="45.80149121306639" lon="11.018665301231083"><ele>147.0</ele><time>2026-04-19T18:46:08Z</time></trkpt><trkpt lat="45.80172718484385" lon="11.018523594517193"><ele>146.5</ele><time>2026-04-19T18:46:09Z</time></trkpt><trkpt lat="45.80196192785971" lon="11.018379116881857"><ele>146.0</ele><time>2026-04-19T18:46:10Z</time></trkpt><trkpt lat="45.802196739251585" lon="11.018235118723757"><ele>146.0</ele><time>2026-04-19T18:46:11Z</time></trkpt><trkpt lat="45.80243140423561" lon="11.0180921532959"><ele>146.0</ele><time>2026-04-19T18:46:12Z</time></trkpt><trkpt lat="45.80266655619991" lon="11.017948949125037"><ele>147.0</ele><time>2026-04-19T18:46:13Z</time></trkpt><trkpt lat="45.80290219797657" lon="11.017809801631069"><ele>148.0</ele><time>2026-04-19T18:46:14Z</time></trkpt><trkpt lat="45.80313863369798" lon="11.017670693068414"><ele>148.0</ele><time>2026-04-19T18:46:15Z</time></trkpt><trkpt lat="45.80337525023141" lon="11.017532278075551"><ele>148.0</ele><time>2026-04-19T18:46:16Z</time></trkpt><trkpt lat="45.8036109736195" lon="11.017390667372648"><ele>147.5</ele><time>2026-04-19T18:46:17Z</time></trkpt><trkpt lat="45.80384596664418" lon="11.017247561472718"><ele>147.0</ele><time>2026-04-19T18:46:18Z</time></trkpt><trkpt lat="45.80408025994416" lon="11.017104563500446"><ele>147.0</ele><time>2026-04-19T18:46:19Z</time></trkpt><trkpt lat="45.80431639529157" lon="11.016963878661528"><ele>147.0</ele><time>2026-04-19T18:46:20Z</time></trkpt><trkpt lat="45.8045515094187" lon="11.016822253774704"><ele>147.5</ele><time>2026-04-19T18:46:21Z</time></trkpt><trkpt lat="45.8047871325656" lon="11.016681232003618"><ele>148.0</ele><time>2026-04-19T18:46:22Z</time></trkpt><trkpt lat="45.805021129430564" lon="11.016540631469576"><ele>148.5</ele><time>2026-04-19T18:46:23Z</time></trkpt><trkpt lat="45.80525503400088" lon="11.016398770609825"><ele>149.0</ele><time>2026-04-19T18:46:24Z</time></trkpt><trkpt lat="45.80548972653667" lon="11.016259052312499"><ele>149.0</ele><time>2026-04-19T18:46:25Z</time></trkpt><trkpt lat="45.80572331662673" lon="11.016114647406694"><ele>149.0</ele><time>2026-04-19T18:46:26Z</time></trkpt><trkpt lat="45.805954820065246" lon="11.015965650096577"><ele>149.0</ele><time>2026-04-19T18:46:27Z</time></trkpt><trkpt lat="45.80618542550033" lon="11.015812979435966"><ele>149.0</ele><time>2026-04-19T18:46:28Z</time></trkpt><trkpt lat="45.806415008739116" lon="11.01565565586827"><ele>149.0</ele><time>2026-04-19T18:46:29Z</time></trkpt><trkpt lat="45.806640867457396" lon="11.015488226947493"><ele>149.0</ele><time>2026-04-19T18:46:30Z</time></trkpt><trkpt lat="45.80686462906308" lon="11.015313701482096"><ele>149.0</ele><time>2026-04-19T18:46:31Z</time></trkpt><trkpt lat="45.807086170211264" lon="11.015129998564298"><ele>149.0</ele><time>2026-04-19T18:46:32Z</time></trkpt><trkpt lat="45.807304970129714" lon="11.01494109502112"><ele>149.0</ele><time>2026-04-19T18:46:33Z</time></trkpt><trkpt lat="45.80751927962943" lon="11.014740184161933"><ele>149.0</ele><time>2026-04-19T18:46:34Z</time></trkpt><trkpt lat="45.80772831019684" lon="11.014530459965428"><ele>150.0</ele><time>2026-04-19T18:46:35Z</time></trkpt><trkpt lat="45.807936337033155" lon="11.01431684418685"><ele>151.0</ele><time>2026-04-19T18:46:36Z</time></trkpt><trkpt lat="45.808143506490964" lon="11.014099532964908"><ele>151.0</ele><time>2026-04-19T18:46:37Z</time></trkpt><trkpt lat="45.80835237339765" lon="11.0138871465388"><ele>151.0</ele><time>2026-04-19T18:46:38Z</time></trkpt><trkpt lat="45.808558182004184" lon="11.013670954726825"><ele>150.0</ele><time>2026-04-19T18:46:39Z</time></trkpt><trkpt lat="45.80876462682376" lon="11.013456388600982"><ele>149.0</ele><time>2026-04-19T18:46:40Z</time></trkpt><trkpt lat="45.80897334928179" lon="11.01324446417047"><ele>148.5</ele><time>2026-04-19T18:46:41Z</time></trkpt><trkpt lat="45.80918051462487" lon="11.013030436458832"><ele>148.0</ele><time>2026-04-19T18:46:42Z</time></trkpt><trkpt lat="45.809391281133706" lon="11.01282206580772"><ele>148.0</ele><time>2026-04-19T18:46:43Z</time></trkpt><trkpt lat="45.80960232401822" lon="11.012616996165047"><ele>148.0</ele><time>2026-04-19T18:46:44Z</time></trkpt><trkpt lat="45.80981770989353" lon="11.012420504108395"><ele>147.5</ele><time>2026-04-19T18:46:45Z</time></trkpt><trkpt lat="45.810033961233756" lon="11.012223918537929"><ele>147.0</ele><time>2026-04-19T18:46:46Z</time></trkpt><trkpt lat="45.81025363801375" lon="11.012035869511505"><ele>147.0</ele><time>2026-04-19T18:46:47Z</time></trkpt><trkpt lat="45.81047602322134" lon="11.011853088804845"><ele>147.0</ele><time>2026-04-19T18:46:48Z</time></trkpt><trkpt lat="45.81070257936031" lon="11.011678557418147"><ele>148.0</ele><time>2026-04-19T18:46:49Z</time></trkpt><trkpt lat="45.810929840709704" lon="11.01151376619628"><ele>149.0</ele><time>2026-04-19T18:46:50Z</time></trkpt><trkpt lat="45.81116274556873" lon="11.011353485738523"><ele>151.0</ele><time>2026-04-19T18:46:51Z</time></trkpt><trkpt lat="45.81139377248464" lon="11.01119553359282"><ele>153.0</ele><time>2026-04-19T18:46:52Z</time></trkpt><trkpt lat="45.81162770306714" lon="11.01104803364745"><ele>153.5</ele><time>2026-04-19T18:46:53Z</time></trkpt><trkpt lat="45.8118624063566" lon="11.010907835147679"><ele>154.0</ele><time>2026-04-19T18:46:54Z</time></trkpt><trkpt lat="45.81209821392424" lon="11.010771907541958"><ele>155.0</ele><time>2026-04-19T18:46:55Z</time></trkpt><trkpt lat="45.81233567478312" lon="11.010639903403677"><ele>156.0</ele><time>2026-04-19T18:46:56Z</time></trkpt><trkpt lat="45.8125741125364" lon="11.010511877590767"><ele>155.5</ele><time>2026-04-19T18:46:57Z</time></trkpt><trkpt lat="45.812812291603436" lon="11.010384696760248"><ele>155.0</ele><time>2026-04-19T18:46:58Z</time></trkpt><trkpt lat="45.81304493947972" lon="11.01026224440714"><ele>155.0</ele><time>2026-04-19T18:46:59Z</time></trkpt><trkpt lat="45.81327082185263" lon="11.010143014458647"><ele>155.0</ele><time>2026-04-19T18:47:00Z</time></trkpt><trkpt lat="45.813494111950526" lon="11.010022807600173"><ele>155.0</ele><time>2026-04-19T18:47:01Z</time></trkpt><trkpt lat="45.81371961275684" lon="11.009896488176764"><ele>155.0</ele><time>2026-04-19T18:47:02Z</time></trkpt><trkpt lat="45.813942127506394" lon="11.00976107100962"><ele>155.0</ele><time>2026-04-19T18:47:02.999Z</time></trkpt><trkpt lat="45.81415983114652" lon="11.009613286899429"><ele>155.0</ele><time>2026-04-19T18:47:03.999Z</time></trkpt><trkpt lat="45.814379923459306" lon="11.009457064981962"><ele>155.0</ele><time>2026-04-19T18:47:04.999Z</time></trkpt><trkpt lat="45.81460517710158" lon="11.009303858689401"><ele>155.0</ele><time>2026-04-19T18:47:05.999Z</time></trkpt><trkpt lat="45.81483184171814" lon="11.009143658152468"><ele>156.0</ele><time>2026-04-19T18:47:06.999Z</time></trkpt><trkpt lat="45.81506035985757" lon="11.008978011209052"><ele>157.0</ele><time>2026-04-19T18:47:07.999Z</time></trkpt><trkpt lat="45.81528909675945" lon="11.008803182229553"><ele>157.0</ele><time>2026-04-19T18:47:08.999Z</time></trkpt><trkpt lat="45.8155162281977" lon="11.008618537706047"><ele>157.0</ele><time>2026-04-19T18:47:09.999Z</time></trkpt><trkpt lat="45.815741495303634" lon="11.008426637007098"><ele>157.5</ele><time>2026-04-19T18:47:10.999Z</time></trkpt><trkpt lat="45.81596688513043" lon="11.008228633171246"><ele>158.0</ele><time>2026-04-19T18:47:11.999Z</time></trkpt><trkpt lat="45.81619224750326" lon="11.008026225383498"><ele>158.0</ele><time>2026-04-19T18:47:12.999Z</time></trkpt><trkpt lat="45.81641950201997" lon="11.007822746169246"><ele>158.0</ele><time>2026-04-19T18:47:13.999Z</time></trkpt><trkpt lat="45.81664834837838" lon="11.007617687159335"><ele>158.0</ele><time>2026-04-19T18:47:14.999Z</time></trkpt><trkpt lat="45.81687733377922" lon="11.007412217603827"><ele>158.0</ele><time>2026-04-19T18:47:15.999Z</time></trkpt><trkpt lat="45.817105710536126" lon="11.00720756477761"><ele>158.0</ele><time>2026-04-19T18:47:16.999Z</time></trkpt><trkpt lat="45.81733179164163" lon="11.007003548593529"><ele>158.0</ele><time>2026-04-19T18:47:17.999Z</time></trkpt><trkpt lat="45.81755748280718" lon="11.006799526758172"><ele>157.0</ele><time>2026-04-19T18:47:18.999Z</time></trkpt><trkpt lat="45.81778035530511" lon="11.006595576604191"><ele>156.0</ele><time>2026-04-19T18:47:19.999Z</time></trkpt><trkpt lat="45.81800128097308" lon="11.00639346595538"><ele>156.0</ele><time>2026-04-19T18:47:20.999Z</time></trkpt><trkpt lat="45.81821867086297" lon="11.006200941097529"><ele>156.0</ele><time>2026-04-19T18:47:21.999Z</time></trkpt><trkpt lat="45.81843348278356" lon="11.006015805590323"><ele>155.5</ele><time>2026-04-19T18:47:22.999Z</time></trkpt><trkpt lat="45.81864815709397" lon="11.005839547070279"><ele>155.0</ele><time>2026-04-19T18:47:23.999Z</time></trkpt><trkpt lat="45.81886674010958" lon="11.005669536812524"><ele>155.0</ele><time>2026-04-19T18:47:25Z</time></trkpt><trkpt lat="45.81909344405337" lon="11.005502161462088"><ele>155.0</ele><time>2026-04-19T18:47:26Z</time></trkpt><trkpt lat="45.81932912617949" lon="11.005338302640629"><ele>155.5</ele><time>2026-04-19T18:47:27Z</time></trkpt><trkpt lat="45.81957241755791" lon="11.005177297254077"><ele>156.0</ele><time>2026-04-19T18:47:28Z</time></trkpt><trkpt lat="45.819825906396034" lon="11.005023579310933"><ele>155.5</ele><time>2026-04-19T18:47:29Z</time></trkpt><trkpt lat="45.820087506114945" lon="11.004875342490683"><ele>155.0</ele><time>2026-04-19T18:47:30Z</time></trkpt><trkpt lat="45.82035933401394" lon="11.004739193758368"><ele>155.0</ele><time>2026-04-19T18:47:31Z</time></trkpt><trkpt lat="45.82064064555343" lon="11.004616735170744"><ele>155.0</ele><time>2026-04-19T18:47:32Z</time></trkpt><trkpt lat="45.82093071034339" lon="11.004507915692189"><ele>154.5</ele><time>2026-04-19T18:47:33Z</time></trkpt><trkpt lat="45.82122846390415" lon="11.00441753238585"><ele>154.0</ele><time>2026-04-19T18:47:34Z</time></trkpt><trkpt lat="45.8215274780682" lon="11.004341706580385"><ele>153.0</ele><time>2026-04-19T18:47:35Z</time></trkpt><trkpt lat="45.82182538912479" lon="11.00428479191771"><ele>152.0</ele><time>2026-04-19T18:47:36Z</time></trkpt><trkpt lat="45.822122208564586" lon="11.004241579447774"><ele>152.0</ele><time>2026-04-19T18:47:37Z</time></trkpt><trkpt lat="45.82241239456673" lon="11.004212785853955"><ele>152.0</ele><time>2026-04-19T18:47:38Z</time></trkpt><trkpt lat="45.82269774393533" lon="11.004194890703738"><ele>152.0</ele><time>2026-04-19T18:47:39Z</time></trkpt><trkpt lat="45.822975740509925" lon="11.00418475330451"><ele>152.0</ele><time>2026-04-19T18:47:40Z</time></trkpt><trkpt lat="45.82324789803045" lon="11.004172991078171"><ele>151.0</ele><time>2026-04-19T18:47:41Z</time></trkpt><trkpt lat="45.82351510863134" lon="11.004161581049262"><ele>150.0</ele><time>2026-04-19T18:47:42Z</time></trkpt><trkpt lat="45.82377492861405" lon="11.004148118248652"><ele>150.0</ele><time>2026-04-19T18:47:43Z</time></trkpt><trkpt lat="45.82402743172723" lon="11.004135966515573"><ele>150.0</ele><time>2026-04-19T18:47:44Z</time></trkpt><trkpt lat="45.824274481181426" lon="11.00412563966411"><ele>149.0</ele><time>2026-04-19T18:47:45Z</time></trkpt><trkpt lat="45.82451764289772" lon="11.00411458231318"><ele>148.0</ele><time>2026-04-19T18:47:46Z</time></trkpt><trkpt lat="45.824759589555164" lon="11.004103173767689"><ele>148.0</ele><time>2026-04-19T18:47:47Z</time></trkpt><trkpt lat="45.82500018567307" lon="11.004091028775898"><ele>148.0</ele><time>2026-04-19T18:47:48Z</time></trkpt><trkpt lat="45.825241944809434" lon="11.00407888609791"><ele>150.0</ele><time>2026-04-19T18:47:49Z</time></trkpt><trkpt lat="45.82548369874102" lon="11.004060682991962"><ele>152.0</ele><time>2026-04-19T18:47:50Z</time></trkpt><trkpt lat="45.825724803414815" lon="11.004037638494292"><ele>152.0</ele><time>2026-04-19T18:47:51Z</time></trkpt><trkpt lat="45.825965068360865" lon="11.004008698873804"><ele>152.0</ele><time>2026-04-19T18:47:52Z</time></trkpt><trkpt lat="45.8262041802022" lon="11.003972707842848"><ele>153.5</ele><time>2026-04-19T18:47:53Z</time></trkpt><trkpt lat="45.82644410711376" lon="11.003929491500116"><ele>155.0</ele><time>2026-04-19T18:47:54Z</time></trkpt><trkpt lat="45.8266828910037" lon="11.003878463597442"><ele>155.5</ele><time>2026-04-19T18:47:55Z</time></trkpt><trkpt lat="45.82692366164758" lon="11.003821949615226"><ele>156.0</ele><time>2026-04-19T18:47:56Z</time></trkpt><trkpt lat="45.82716543243474" lon="11.00375892621986"><ele>156.0</ele><time>2026-04-19T18:47:57Z</time></trkpt><trkpt lat="45.82740858350271" lon="11.003691875884597"><ele>156.0</ele><time>2026-04-19T18:47:58Z</time></trkpt><trkpt lat="45.827652532141215" lon="11.003622435766399"><ele>156.5</ele><time>2026-04-19T18:47:59Z</time></trkpt><trkpt lat="45.827897988204924" lon="11.003552554309298"><ele>157.0</ele><time>2026-04-19T18:48:00Z</time></trkpt><trkpt lat="45.828144983527814" lon="11.003481221852104"><ele>157.0</ele><time>2026-04-19T18:48:01Z</time></trkpt><trkpt lat="45.828393917238635" lon="11.00341530723577"><ele>157.0</ele><time>2026-04-19T18:48:02Z</time></trkpt><trkpt lat="45.82864632996412" lon="11.003355635400505"><ele>156.5</ele><time>2026-04-19T18:48:03Z</time></trkpt><trkpt lat="45.82890090182673" lon="11.003301780644835"><ele>156.0</ele><time>2026-04-19T18:48:04Z</time></trkpt><trkpt lat="45.82915856307565" lon="11.003256470496083"><ele>157.0</ele><time>2026-04-19T18:48:05Z</time></trkpt><trkpt lat="45.829417995121396" lon="11.003218292604506"><ele>158.0</ele><time>2026-04-19T18:48:06Z</time></trkpt><trkpt lat="45.829680126940445" lon="11.003188686694278"><ele>158.0</ele><time>2026-04-19T18:48:07Z</time></trkpt><trkpt lat="45.82994329440864" lon="11.003167346094807"><ele>158.0</ele><time>2026-04-19T18:48:08Z</time></trkpt><trkpt lat="45.8302045978593" lon="11.003151707819967"><ele>157.0</ele><time>2026-04-19T18:48:09Z</time></trkpt><trkpt lat="45.83046074086576" lon="11.003138421997928"><ele>156.0</ele><time>2026-04-19T18:48:10Z</time></trkpt><trkpt lat="45.83071185361104" lon="11.003128019964688"><ele>156.0</ele><time>2026-04-19T18:48:11Z</time></trkpt><trkpt lat="45.830957778713014" lon="11.003119469427771"><ele>156.0</ele><time>2026-04-19T18:48:12Z</time></trkpt><trkpt lat="45.83120319372736" lon="11.003109566760456"><ele>156.0</ele><time>2026-04-19T18:48:13Z</time></trkpt><trkpt lat="45.83144897351586" lon="11.003099916154946"><ele>156.0</ele><time>2026-04-19T18:48:14Z</time></trkpt><trkpt lat="45.831694936432925" lon="11.003089666337727"><ele>155.0</ele><time>2026-04-19T18:48:15Z</time></trkpt><trkpt lat="45.83194283845772" lon="11.003080133757445"><ele>154.0</ele><time>2026-04-19T18:48:16Z</time></trkpt><trkpt lat="45.8321912323805" lon="11.00307108504796"><ele>154.0</ele><time>2026-04-19T18:48:17Z</time></trkpt><trkpt lat="45.83244001640876" lon="11.003061434353059"><ele>154.0</ele><time>2026-04-19T18:48:18Z</time></trkpt><trkpt lat="45.83268828444046" lon="11.003052294865725"><ele>154.5</ele><time>2026-04-19T18:48:19Z</time></trkpt><trkpt lat="45.832936893396834" lon="11.003043081413084"><ele>155.0</ele><time>2026-04-19T18:48:20Z</time></trkpt><trkpt lat="45.833184930107215" lon="11.003032420177444"><ele>155.0</ele><time>2026-04-19T18:48:21Z</time></trkpt><trkpt lat="45.83343416279435" lon="11.003021084210497"><ele>155.0</ele><time>2026-04-19T18:48:22Z</time></trkpt><trkpt lat="45.83368189236289" lon="11.003010152834658"><ele>155.5</ele><time>2026-04-19T18:48:23Z</time></trkpt><trkpt lat="45.833933633111265" lon="11.003000494265907"><ele>156.0</ele><time>2026-04-19T18:48:24Z</time></trkpt><trkpt lat="45.83418593488619" lon="11.002993614994335"><ele>155.5</ele><time>2026-04-19T18:48:25Z</time></trkpt><trkpt lat="45.834438685793074" lon="11.002986770458348"><ele>155.0</ele><time>2026-04-19T18:48:26Z</time></trkpt><trkpt lat="45.8346909249319" lon="11.002979343865533"><ele>155.0</ele><time>2026-04-19T18:48:27Z</time></trkpt><trkpt lat="45.8349426192391" lon="11.002971015487276"><ele>155.0</ele><time>2026-04-19T18:48:28Z</time></trkpt><trkpt lat="45.835192715316" lon="11.002963446398876"><ele>154.0</ele><time>2026-04-19T18:48:29Z</time></trkpt><trkpt lat="45.83544268340183" lon="11.002956603624492"><ele>153.0</ele><time>2026-04-19T18:48:30Z</time></trkpt><trkpt lat="45.83569285783059" lon="11.002949128866756"><ele>153.0</ele><time>2026-04-19T18:48:31Z</time></trkpt><trkpt lat="45.835942169665515" lon="11.002940888339676"><ele>153.0</ele><time>2026-04-19T18:48:32Z</time></trkpt><trkpt lat="45.83619183341574" lon="11.002932147483177"><ele>153.5</ele><time>2026-04-19T18:48:33Z</time></trkpt><trkpt lat="45.83644196189271" lon="11.00292357005443"><ele>154.0</ele><time>2026-04-19T18:48:34Z</time></trkpt><trkpt lat="45.83669253862078" lon="11.002914746869273"><ele>154.0</ele><time>2026-04-19T18:48:35Z</time></trkpt><trkpt lat="45.83694412636347" lon="11.002905586808483"><ele>154.0</ele><time>2026-04-19T18:48:36Z</time></trkpt><trkpt lat="45.837198530663755" lon="11.00289608597691"><ele>154.0</ele><time>2026-04-19T18:48:37Z</time></trkpt><trkpt lat="45.83745448751238" lon="11.002884963438984"><ele>154.0</ele><time>2026-04-19T18:48:38Z</time></trkpt><trkpt lat="45.83770982306097" lon="11.002872984459875"><ele>155.5</ele><time>2026-04-19T18:48:39Z</time></trkpt><trkpt lat="45.83796591355108" lon="11.002858654555096"><ele>157.0</ele><time>2026-04-19T18:48:40Z</time></trkpt><trkpt lat="45.83821944290161" lon="11.002839243156489"><ele>157.0</ele><time>2026-04-19T18:48:41Z</time></trkpt><trkpt lat="45.838471335312576" lon="11.002812764450193"><ele>157.0</ele><time>2026-04-19T18:48:42Z</time></trkpt><trkpt lat="45.83872066355751" lon="11.002780188449481"><ele>157.0</ele><time>2026-04-19T18:48:43Z</time></trkpt><trkpt lat="45.838968959134576" lon="11.002738967030188"><ele>157.0</ele><time>2026-04-19T18:48:44Z</time></trkpt><trkpt lat="45.83921649111313" lon="11.00268990511123"><ele>156.5</ele><time>2026-04-19T18:48:45Z</time></trkpt><trkpt lat="45.8394625687061" lon="11.002629313284928"><ele>156.0</ele><time>2026-04-19T18:48:46Z</time></trkpt><trkpt lat="45.83970765796427" lon="11.002559215106217"><ele>156.5</ele><time>2026-04-19T18:48:47Z</time></trkpt><trkpt lat="45.839952467803755" lon="11.002479539852391"><ele>157.0</ele><time>2026-04-19T18:48:48Z</time></trkpt><trkpt lat="45.84019592471327" lon="11.002390723815237"><ele>156.0</ele><time>2026-04-19T18:48:49Z</time></trkpt><trkpt lat="45.840436733937" lon="11.002290475901441"><ele>155.0</ele><time>2026-04-19T18:48:50Z</time></trkpt><trkpt lat="45.84067574981515" lon="11.002181386916385"><ele>155.0</ele><time>2026-04-19T18:48:51Z</time></trkpt><trkpt lat="45.840913539544474" lon="11.00206369766738"><ele>155.0</ele><time>2026-04-19T18:48:52Z</time></trkpt><trkpt lat="45.84114883565462" lon="11.00193832094406"><ele>156.5</ele><time>2026-04-19T18:48:53Z</time></trkpt><trkpt lat="45.841383826017505" lon="11.001809454460709"><ele>158.0</ele><time>2026-04-19T18:48:54Z</time></trkpt><trkpt lat="45.8416175511016" lon="11.001678753886518"><ele>158.0</ele><time>2026-04-19T18:48:55Z</time></trkpt><trkpt lat="45.84184920145624" lon="11.001543060176775"><ele>158.0</ele><time>2026-04-19T18:48:56Z</time></trkpt><trkpt lat="45.84208072363785" lon="11.001403406209791"><ele>158.0</ele><time>2026-04-19T18:48:57Z</time></trkpt><trkpt lat="45.842310660229614" lon="11.0012619724313"><ele>158.0</ele><time>2026-04-19T18:48:58Z</time></trkpt><trkpt lat="45.84254181720917" lon="11.00112113095072"><ele>156.5</ele><time>2026-04-19T18:48:59Z</time></trkpt><trkpt lat="45.84277374680452" lon="11.000984601743486"><ele>155.0</ele><time>2026-04-19T18:49:00Z</time></trkpt><trkpt lat="45.8430068029611" lon="11.000853270679075"><ele>155.0</ele><time>2026-04-19T18:49:01Z</time></trkpt><trkpt lat="45.84324119681956" lon="11.000728821366247"><ele>155.0</ele><time>2026-04-19T18:49:02Z</time></trkpt><trkpt lat="45.84347743306694" lon="11.000609208470124"><ele>156.5</ele><time>2026-04-19T18:49:03Z</time></trkpt><trkpt lat="45.843715075721526" lon="11.000498817390465"><ele>158.0</ele><time>2026-04-19T18:49:04Z</time></trkpt><trkpt lat="45.84395438892504" lon="11.000396530899366"><ele>158.0</ele><time>2026-04-19T18:49:05Z</time></trkpt><trkpt lat="45.84419612268873" lon="11.000302794540824"><ele>158.0</ele><time>2026-04-19T18:49:06Z</time></trkpt><trkpt lat="45.84443833523186" lon="11.000216727327032"><ele>158.0</ele><time>2026-04-19T18:49:07Z</time></trkpt><trkpt lat="45.844682287471926" lon="11.000137286032182"><ele>158.0</ele><time>2026-04-19T18:49:08Z</time></trkpt><trkpt lat="45.844928732525766" lon="11.000064673319907"><ele>158.0</ele><time>2026-04-19T18:49:08.999Z</time></trkpt><trkpt lat="45.845175533764845" lon="10.999997356779005"><ele>158.0</ele><time>2026-04-19T18:49:09.999Z</time></trkpt><trkpt lat="45.84542317361952" lon="10.999939839966014"><ele>158.0</ele><time>2026-04-19T18:49:10.999Z</time></trkpt><trkpt lat="45.84567116193475" lon="10.999889629461316"><ele>158.0</ele><time>2026-04-19T18:49:11.999Z</time></trkpt><trkpt lat="45.84591978881144" lon="10.999851326236277"><ele>157.5</ele><time>2026-04-19T18:49:12.999Z</time></trkpt><trkpt lat="45.846170309532674" lon="10.999820566901382"><ele>157.0</ele><time>2026-04-19T18:49:13.999Z</time></trkpt><trkpt lat="45.84642068036643" lon="10.999799882599289"><ele>157.0</ele><time>2026-04-19T18:49:14.999Z</time></trkpt><trkpt lat="45.84667136090496" lon="10.999789241830959"><ele>157.0</ele><time>2026-04-19T18:49:15.999Z</time></trkpt><trkpt lat="45.84692175669449" lon="10.99978643498421"><ele>157.0</ele><time>2026-04-19T18:49:16.999Z</time></trkpt><trkpt lat="45.84717401542528" lon="10.999791607551307"><ele>157.0</ele><time>2026-04-19T18:49:17.999Z</time></trkpt><trkpt lat="45.84742679591362" lon="10.999809998129312"><ele>157.0</ele><time>2026-04-19T18:49:18.999Z</time></trkpt><trkpt lat="45.84767958143634" lon="10.99983444198696"><ele>157.0</ele><time>2026-04-19T18:49:19.999Z</time></trkpt><trkpt lat="45.84792879521586" lon="10.999861402369351"><ele>157.0</ele><time>2026-04-19T18:49:20.999Z</time></trkpt><trkpt lat="45.84817704836899" lon="10.999896981887622"><ele>157.0</ele><time>2026-04-19T18:49:21.999Z</time></trkpt><trkpt lat="45.84842381922648" lon="10.999941260063471"><ele>158.5</ele><time>2026-04-19T18:49:22.999Z</time></trkpt><trkpt lat="45.848671403400566" lon="10.999993350154444"><ele>160.0</ele><time>2026-04-19T18:49:23.999Z</time></trkpt><trkpt lat="45.848918122494176" lon="11.000055140584715"><ele>160.0</ele><time>2026-04-19T18:49:24.999Z</time></trkpt><trkpt lat="45.84916428900972" lon="11.000124732797792"><ele>160.0</ele><time>2026-04-19T18:49:25.999Z</time></trkpt><trkpt lat="45.84940975472134" lon="11.000200659414398"><ele>159.0</ele><time>2026-04-19T18:49:26.999Z</time></trkpt><trkpt lat="45.84965421973831" lon="11.000285163721047"><ele>158.0</ele><time>2026-04-19T18:49:27.999Z</time></trkpt><trkpt lat="45.84989702624977" lon="11.000375581428477"><ele>158.0</ele><time>2026-04-19T18:49:28.999Z</time></trkpt><trkpt lat="45.8501380637032" lon="11.000471628054068"><ele>158.0</ele><time>2026-04-19T18:49:29.999Z</time></trkpt><trkpt lat="45.85037863338179" lon="11.000573149542491"><ele>158.0</ele><time>2026-04-19T18:49:30.999Z</time></trkpt><trkpt lat="45.85061830857529" lon="11.000676785439017"><ele>158.0</ele><time>2026-04-19T18:49:31.999Z</time></trkpt><trkpt lat="45.85085358412865" lon="11.000780204322659"><ele>158.0</ele><time>2026-04-19T18:49:32.999Z</time></trkpt><trkpt lat="45.85108523913833" lon="11.000877774406757"><ele>158.0</ele><time>2026-04-19T18:49:33.999Z</time></trkpt><trkpt lat="45.8513118255487" lon="11.00097244563961"><ele>158.0</ele><time>2026-04-19T18:49:34.999Z</time></trkpt><trkpt lat="45.85153556750368" lon="11.001062665692546"><ele>158.0</ele><time>2026-04-19T18:49:35.999Z</time></trkpt><trkpt lat="45.85176169256642" lon="11.00114823600811"><ele>157.5</ele><time>2026-04-19T18:49:36.999Z</time></trkpt><trkpt lat="45.85198986704266" lon="11.001227357723899"><ele>157.0</ele><time>2026-04-19T18:49:37.999Z</time></trkpt><trkpt lat="45.85222113509263" lon="11.001296405522606"><ele>157.0</ele><time>2026-04-19T18:49:38.999Z</time></trkpt><trkpt lat="45.852455033621005" lon="11.001358603048834"><ele>157.0</ele><time>2026-04-19T18:49:39.999Z</time></trkpt><trkpt lat="45.85269214036973" lon="11.001405541661335"><ele>157.5</ele><time>2026-04-19T18:49:40.999Z</time></trkpt><trkpt lat="45.85292974701378" lon="11.001444476792045"><ele>158.0</ele><time>2026-04-19T18:49:41.999Z</time></trkpt><trkpt lat="45.85316741062861" lon="11.001474524629398"><ele>158.0</ele><time>2026-04-19T18:49:42.999Z</time></trkpt><trkpt lat="45.85340549249654" lon="11.001493808730633"><ele>158.0</ele><time>2026-04-19T18:49:43.999Z</time></trkpt><trkpt lat="45.85364358214427" lon="11.001501962578299"><ele>157.0</ele><time>2026-04-19T18:49:44.999Z</time></trkpt><trkpt lat="45.85388340173855" lon="11.001499100976126"><ele>156.0</ele><time>2026-04-19T18:49:45.999Z</time></trkpt><trkpt lat="45.854125615128446" lon="11.001486100782598"><ele>157.5</ele><time>2026-04-19T18:49:46.999Z</time></trkpt><trkpt lat="45.85437121232264" lon="11.001462174774353"><ele>159.0</ele><time>2026-04-19T18:49:47.999Z</time></trkpt><trkpt lat="45.854617377291426" lon="11.001426494877421"><ele>159.0</ele><time>2026-04-19T18:49:48.999Z</time></trkpt><trkpt lat="45.85486454165798" lon="11.001381063024114"><ele>159.0</ele><time>2026-04-19T18:49:49.999Z</time></trkpt><trkpt lat="45.85511289367607" lon="11.001325739948303"><ele>160.0</ele><time>2026-04-19T18:49:50.999Z</time></trkpt><trkpt lat="45.85536221200226" lon="11.00126319501837"><ele>161.0</ele><time>2026-04-19T18:49:51.999Z</time></trkpt><trkpt lat="45.855606684682094" lon="11.001196784365296"><ele>161.0</ele><time>2026-04-19T18:49:52.999Z</time></trkpt><trkpt lat="45.855844719383285" lon="11.001129174603705"><ele>161.0</ele><time>2026-04-19T18:49:53.999Z</time></trkpt><trkpt lat="45.85608085235714" lon="11.001059518645729"><ele>162.5</ele><time>2026-04-19T18:49:54.999Z</time></trkpt><trkpt lat="45.85631634943138" lon="11.000989648339194"><ele>164.0</ele><time>2026-04-19T18:49:55.999Z</time></trkpt><trkpt lat="45.85655582008304" lon="11.000917134908777"><ele>162.5</ele><time>2026-04-19T18:49:56.999Z</time></trkpt><trkpt lat="45.85679962731099" lon="11.000842700697342"><ele>161.0</ele><time>2026-04-19T18:49:57.999Z</time></trkpt><trkpt lat="45.857048874399716" lon="11.000770677192417"><ele>161.0</ele><time>2026-04-19T18:49:58.999Z</time></trkpt><trkpt lat="45.85730428974084" lon="11.00070332554298"><ele>161.0</ele><time>2026-04-19T18:49:59.999Z</time></trkpt><trkpt lat="45.8575655385233" lon="11.000645742069112"><ele>162.5</ele><time>2026-04-19T18:50:00.999Z</time></trkpt><trkpt lat="45.8578301020715" lon="11.000598790796467"><ele>164.0</ele><time>2026-04-19T18:50:01.999Z</time></trkpt><trkpt lat="45.85809527472164" lon="11.000562828922254"><ele>164.0</ele><time>2026-04-19T18:50:02.999Z</time></trkpt><trkpt lat="45.8583606217554" lon="11.000536317751978"><ele>164.0</ele><time>2026-04-19T18:50:03.999Z</time></trkpt><trkpt lat="45.85862497439005" lon="11.000521800942265"><ele>165.0</ele><time>2026-04-19T18:50:04.999Z</time></trkpt><trkpt lat="45.85888750705887" lon="11.000519765224842"><ele>166.0</ele><time>2026-04-19T18:50:05.999Z</time></trkpt><trkpt lat="45.85915006141458" lon="11.000527821831922"><ele>169.0</ele><time>2026-04-19T18:50:06.999Z</time></trkpt><trkpt lat="45.8594122447444" lon="11.000548801471249"><ele>172.0</ele><time>2026-04-19T18:50:07.999Z</time></trkpt><trkpt lat="45.85967315564321" lon="11.00058286680503"><ele>172.0</ele><time>2026-04-19T18:50:08.999Z</time></trkpt><trkpt lat="45.859932902767135" lon="11.000634109746512"><ele>172.0</ele><time>2026-04-19T18:50:09.999Z</time></trkpt><trkpt lat="45.86019432221154" lon="11.000671232607186"><ele>172.5</ele><time>2026-04-19T18:50:10.999Z</time></trkpt><trkpt lat="45.86045128081772" lon="11.000770118727806"><ele>173.0</ele><time>2026-04-19T18:50:11.999Z</time></trkpt><trkpt lat="45.860707923752564" lon="11.000856639788982"><ele>171.5</ele><time>2026-04-19T18:50:12.999Z</time></trkpt><trkpt lat="45.86096243763316" lon="11.000952951431971"><ele>170.0</ele><time>2026-04-19T18:50:13.999Z</time></trkpt><trkpt lat="45.86121543693821" lon="11.00105901983675"><ele>170.0</ele><time>2026-04-19T18:50:14.999Z</time></trkpt><trkpt lat="45.86146427441996" lon="11.001177582499544"><ele>170.0</ele><time>2026-04-19T18:50:15.999Z</time></trkpt><trkpt lat="45.86171027576316" lon="11.001307492356664"><ele>169.5</ele><time>2026-04-19T18:50:16.999Z</time></trkpt><trkpt lat="45.86195066470423" lon="11.00145194993653"><ele>169.0</ele><time>2026-04-19T18:50:17.999Z</time></trkpt><trkpt lat="45.86218577676335" lon="11.00160742276817"><ele>168.5</ele><time>2026-04-19T18:50:18.999Z</time></trkpt><trkpt lat="45.862424666248515" lon="11.001766630936942"><ele>168.0</ele><time>2026-04-19T18:50:19.999Z</time></trkpt><trkpt lat="45.862660093453485" lon="11.001928222645358"><ele>168.0</ele><time>2026-04-19T18:50:20.999Z</time></trkpt><trkpt lat="45.86289492981761" lon="11.002093331925233"><ele>168.0</ele><time>2026-04-19T18:50:21.999Z</time></trkpt><trkpt lat="45.86313038518967" lon="11.002257229069773"><ele>168.0</ele><time>2026-04-19T18:50:22.999Z</time></trkpt><trkpt lat="45.86336560046822" lon="11.002420629863822"><ele>168.0</ele><time>2026-04-19T18:50:23.999Z</time></trkpt><trkpt lat="45.86360066352815" lon="11.002584265879008"><ele>169.0</ele><time>2026-04-19T18:50:24.999Z</time></trkpt><trkpt lat="45.86383627597232" lon="11.002751226721335"><ele>170.0</ele><time>2026-04-19T18:50:25.999Z</time></trkpt><trkpt lat="45.86407158714817" lon="11.002918553206078"><ele>171.0</ele><time>2026-04-19T18:50:26.999Z</time></trkpt><trkpt lat="45.864307214779096" lon="11.0030860668974"><ele>172.0</ele><time>2026-04-19T18:50:27.999Z</time></trkpt><trkpt lat="45.86454239792527" lon="11.003254096870135"><ele>173.0</ele><time>2026-04-19T18:50:29Z</time></trkpt><trkpt lat="45.86477849332541" lon="11.003419960437563"><ele>174.0</ele><time>2026-04-19T18:50:30Z</time></trkpt><trkpt lat="45.86501381571526" lon="11.003584891193167"><ele>172.5</ele><time>2026-04-19T18:50:31Z</time></trkpt><trkpt lat="45.86524977591533" lon="11.0037508382768"><ele>171.0</ele><time>2026-04-19T18:50:32Z</time></trkpt><trkpt lat="45.86548524378711" lon="11.003918332402582"><ele>171.0</ele><time>2026-04-19T18:50:33Z</time></trkpt><trkpt lat="45.86572126046116" lon="11.00408737158357"><ele>171.0</ele><time>2026-04-19T18:50:34Z</time></trkpt><trkpt lat="45.86595705909871" lon="11.004254935438402"><ele>170.0</ele><time>2026-04-19T18:50:35Z</time></trkpt><trkpt lat="45.86619229362173" lon="11.004423329066933"><ele>169.0</ele><time>2026-04-19T18:50:36Z</time></trkpt><trkpt lat="45.866426193684326" lon="11.004590619528683"><ele>169.0</ele><time>2026-04-19T18:50:37Z</time></trkpt><trkpt lat="45.8666617907485" lon="11.004755175117818"><ele>169.0</ele><time>2026-04-19T18:50:38Z</time></trkpt><trkpt lat="45.866898264421636" lon="11.004919935269765"><ele>170.5</ele><time>2026-04-19T18:50:39Z</time></trkpt><trkpt lat="45.86713488690467" lon="11.005085297470908"><ele>172.0</ele><time>2026-04-19T18:50:40Z</time></trkpt><trkpt lat="45.86737140128254" lon="11.005251361854278"><ele>172.0</ele><time>2026-04-19T18:50:41Z</time></trkpt><trkpt lat="45.86760676523073" lon="11.00542017547801"><ele>172.0</ele><time>2026-04-19T18:50:42Z</time></trkpt><trkpt lat="45.86784197950497" lon="11.005589718581597"><ele>174.5</ele><time>2026-04-19T18:50:43Z</time></trkpt><trkpt lat="45.86807893623029" lon="11.005756786348368"><ele>177.0</ele><time>2026-04-19T18:50:44Z</time></trkpt><trkpt lat="45.868314443081196" lon="11.005923556423408"><ele>178.5</ele><time>2026-04-19T18:50:45Z</time></trkpt><trkpt lat="45.868550328324474" lon="11.006087483031047"><ele>180.0</ele><time>2026-04-19T18:50:46Z</time></trkpt><trkpt lat="45.86878674460602" lon="11.006249147696918"><ele>180.0</ele><time>2026-04-19T18:50:47Z</time></trkpt><trkpt lat="45.86902460522202" lon="11.006407224897398"><ele>180.0</ele><time>2026-04-19T18:50:48Z</time></trkpt><trkpt lat="45.86926455607813" lon="11.006560502497063"><ele>180.5</ele><time>2026-04-19T18:50:49Z</time></trkpt><trkpt lat="45.8695056525111" lon="11.006706817892782"><ele>181.0</ele><time>2026-04-19T18:50:50Z</time></trkpt><trkpt lat="45.86974877205546" lon="11.006842741075905"><ele>181.0</ele><time>2026-04-19T18:50:51Z</time></trkpt><trkpt lat="45.869993483033184" lon="11.00697248652326"><ele>181.0</ele><time>2026-04-19T18:50:52Z</time></trkpt><trkpt lat="45.8702411167284" lon="11.007087780772874"><ele>190.0</ele><time>2026-04-19T18:50:53Z</time></trkpt><trkpt lat="45.870491013227735" lon="11.007192481829664"><ele>199.0</ele><time>2026-04-19T18:50:54Z</time></trkpt><trkpt lat="45.87073990992134" lon="11.007289259371662"><ele>202.0</ele><time>2026-04-19T18:50:55Z</time></trkpt><trkpt lat="45.87098183258668" lon="11.007373157783764"><ele>205.0</ele><time>2026-04-19T18:50:56Z</time></trkpt><trkpt lat="45.87121893333168" lon="11.00744564543019"><ele>197.5</ele><time>2026-04-19T18:50:57Z</time></trkpt><trkpt lat="45.87145277194338" lon="11.007508044626228"><ele>190.0</ele><time>2026-04-19T18:50:58Z</time></trkpt><trkpt lat="45.87168729044968" lon="11.007566727517714"><ele>192.0</ele><time>2026-04-19T18:50:59Z</time></trkpt><trkpt lat="45.871925668982335" lon="11.007622035155968"><ele>194.0</ele><time>2026-04-19T18:51:00Z</time></trkpt><trkpt lat="45.87216664881306" lon="11.007675784506981"><ele>194.0</ele><time>2026-04-19T18:51:01Z</time></trkpt><trkpt lat="45.87240945825615" lon="11.007727041574428"><ele>194.0</ele><time>2026-04-19T18:51:02Z</time></trkpt><trkpt lat="45.87265473456914" lon="11.007777102054437"><ele>199.0</ele><time>2026-04-19T18:51:03Z</time></trkpt><trkpt lat="45.8729027831653" lon="11.00782924560648"><ele>204.0</ele><time>2026-04-19T18:51:04Z</time></trkpt><trkpt lat="45.8731526606206" lon="11.00788266938724"><ele>204.0</ele><time>2026-04-19T18:51:05Z</time></trkpt><trkpt lat="45.87340224430768" lon="11.007934064347591"><ele>204.0</ele><time>2026-04-19T18:51:06Z</time></trkpt><trkpt lat="45.87365352809664" lon="11.007986260904827"><ele>202.5</ele><time>2026-04-19T18:51:07Z</time></trkpt><trkpt lat="45.87390443399145" lon="11.00804005210339"><ele>201.0</ele><time>2026-04-19T18:51:08Z</time></trkpt><trkpt lat="45.874154742276936" lon="11.008091964496844"><ele>202.0</ele><time>2026-04-19T18:51:09Z</time></trkpt><trkpt lat="45.874403912095396" lon="11.008143743819232"><ele>203.0</ele><time>2026-04-19T18:51:10Z</time></trkpt><trkpt lat="45.8746491983887" lon="11.008191534939472"><ele>203.0</ele><time>2026-04-19T18:51:11Z</time></trkpt><trkpt lat="45.87489290698705" lon="11.008241693732383"><ele>203.0</ele><time>2026-04-19T18:51:12Z</time></trkpt><trkpt lat="45.87513832932023" lon="11.008290542578388"><ele>203.5</ele><time>2026-04-19T18:51:13Z</time></trkpt><trkpt lat="45.87538554311628" lon="11.008340760188775"><ele>204.0</ele><time>2026-04-19T18:51:14Z</time></trkpt><trkpt lat="45.87563441996316" lon="11.008392918535348"><ele>204.0</ele><time>2026-04-19T18:51:14.999Z</time></trkpt><trkpt lat="45.875884327246524" lon="11.00844530498252"><ele>204.0</ele><time>2026-04-19T18:51:15.999Z</time></trkpt><trkpt lat="45.876136882383655" lon="11.008500230657178"><ele>205.0</ele><time>2026-04-19T18:51:16.999Z</time></trkpt><trkpt lat="45.876388473721455" lon="11.008554225216432"><ele>206.0</ele><time>2026-04-19T18:51:17.999Z</time></trkpt><trkpt lat="45.87664196397764" lon="11.008607851505635"><ele>208.0</ele><time>2026-04-19T18:51:18.999Z</time></trkpt><trkpt lat="45.87689415196052" lon="11.008659901583297"><ele>210.0</ele><time>2026-04-19T18:51:19.999Z</time></trkpt><trkpt lat="45.877146123084955" lon="11.00871163123658"><ele>210.0</ele><time>2026-04-19T18:51:20.999Z</time></trkpt><trkpt lat="45.87739732256517" lon="11.008762950170848"><ele>210.0</ele><time>2026-04-19T18:51:21.999Z</time></trkpt><trkpt lat="45.87764763666917" lon="11.008814536364188"><ele>211.0</ele><time>2026-04-19T18:51:22.999Z</time></trkpt><trkpt lat="45.87789734829027" lon="11.008864792456434"><ele>212.0</ele><time>2026-04-19T18:51:23.999Z</time></trkpt><trkpt lat="45.87814405490438" lon="11.00891495253467"><ele>212.0</ele><time>2026-04-19T18:51:24.999Z</time></trkpt><trkpt lat="45.87838377666416" lon="11.008965904520869"><ele>212.0</ele><time>2026-04-19T18:51:25.999Z</time></trkpt><trkpt lat="45.878620207389474" lon="11.009016768098018"><ele>211.0</ele><time>2026-04-19T18:51:26.999Z</time></trkpt><trkpt lat="45.878857645892595" lon="11.009069213256334"><ele>210.0</ele><time>2026-04-19T18:51:27.999Z</time></trkpt><trkpt lat="45.87909586436263" lon="11.009122476955584"><ele>209.5</ele><time>2026-04-19T18:51:28.999Z</time></trkpt><trkpt lat="45.879335735478605" lon="11.009178788657623"><ele>209.0</ele><time>2026-04-19T18:51:29.999Z</time></trkpt><trkpt lat="45.87957686669614" lon="11.009237144161801"><ele>209.0</ele><time>2026-04-19T18:51:30.999Z</time></trkpt><trkpt lat="45.87982157166877" lon="11.009298156646537"><ele>209.0</ele><time>2026-04-19T18:51:31.999Z</time></trkpt><trkpt lat="45.8800667828252" lon="11.009364146156383"><ele>209.0</ele><time>2026-04-19T18:51:32.999Z</time></trkpt><trkpt lat="45.88031300368122" lon="11.00943603430855"><ele>209.0</ele><time>2026-04-19T18:51:33.999Z</time></trkpt><trkpt lat="45.88056081533019" lon="11.009510630261467"><ele>209.0</ele><time>2026-04-19T18:51:34.999Z</time></trkpt><trkpt lat="45.88080887100243" lon="11.009591687136407"><ele>209.0</ele><time>2026-04-19T18:51:35.999Z</time></trkpt><trkpt lat="45.88105697924241" lon="11.009678329480087"><ele>207.5</ele><time>2026-04-19T18:51:36.999Z</time></trkpt><trkpt lat="45.88130335157605" lon="11.009775627508148"><ele>206.0</ele><time>2026-04-19T18:51:37.999Z</time></trkpt><trkpt lat="45.88154555190947" lon="11.00987960431905"><ele>207.0</ele><time>2026-04-19T18:51:38.999Z</time></trkpt><trkpt lat="45.88178730130638" lon="11.009986775518387"><ele>208.0</ele><time>2026-04-19T18:51:39.999Z</time></trkpt><trkpt lat="45.88202807031536" lon="11.010096856180239"><ele>208.0</ele><time>2026-04-19T18:51:40.999Z</time></trkpt><trkpt lat="45.882266330979476" lon="11.01021212848068"><ele>208.0</ele><time>2026-04-19T18:51:41.999Z</time></trkpt><trkpt lat="45.88250250337167" lon="11.01033286696976"><ele>209.5</ele><time>2026-04-19T18:51:42.999Z</time></trkpt><trkpt lat="45.88273772483251" lon="11.010451059462001"><ele>211.0</ele><time>2026-04-19T18:51:43.999Z</time></trkpt><trkpt lat="45.88297329995301" lon="11.010568868746581"><ele>211.0</ele><time>2026-04-19T18:51:44.999Z</time></trkpt><trkpt lat="45.883209993099214" lon="11.01068705374259"><ele>211.0</ele><time>2026-04-19T18:51:45.999Z</time></trkpt><trkpt lat="45.88344636914539" lon="11.010808094216092"><ele>210.0</ele><time>2026-04-19T18:51:46.999Z</time></trkpt><trkpt lat="45.88368199009837" lon="11.010928443680559"><ele>209.0</ele><time>2026-04-19T18:51:47.999Z</time></trkpt><trkpt lat="45.88391769653764" lon="11.011048596015637"><ele>209.0</ele><time>2026-04-19T18:51:48.999Z</time></trkpt><trkpt lat="45.88415378034654" lon="11.011167738910515"><ele>209.0</ele><time>2026-04-19T18:51:49.999Z</time></trkpt><trkpt lat="45.884390106799934" lon="11.011287840599817"><ele>211.0</ele><time>2026-04-19T18:51:50.999Z</time></trkpt><trkpt lat="45.8846262718637" lon="11.011406529387578"><ele>213.0</ele><time>2026-04-19T18:51:51.999Z</time></trkpt><trkpt lat="45.88486195880002" lon="11.011528368148415"><ele>216.5</ele><time>2026-04-19T18:51:52.999Z</time></trkpt><trkpt lat="45.8850960968992" lon="11.011644988032886"><ele>220.0</ele><time>2026-04-19T18:51:53.999Z</time></trkpt><trkpt lat="45.88533228993781" lon="11.011761564177807"><ele>213.0</ele><time>2026-04-19T18:51:54.999Z</time></trkpt><trkpt lat="45.88556736616732" lon="11.011879404016863"><ele>206.0</ele><time>2026-04-19T18:51:55.999Z</time></trkpt><trkpt lat="45.88579863590873" lon="11.01199764877515"><ele>206.5</ele><time>2026-04-19T18:51:56.999Z</time></trkpt><trkpt lat="45.88602954104225" lon="11.012112564846579"><ele>207.0</ele><time>2026-04-19T18:51:57.999Z</time></trkpt><trkpt lat="45.886261926636145" lon="11.012230396843002"><ele>207.0</ele><time>2026-04-19T18:51:58.999Z</time></trkpt><trkpt lat="45.88649432042564" lon="11.012347519295517"><ele>207.0</ele><time>2026-04-19T18:51:59.999Z</time></trkpt><trkpt lat="45.886727662076275" lon="11.012467847406477"><ele>202.0</ele><time>2026-04-19T18:52:00.999Z</time></trkpt><trkpt lat="45.88696114532729" lon="11.01258740504914"><ele>197.0</ele><time>2026-04-19T18:52:01.999Z</time></trkpt><trkpt lat="45.88719486480111" lon="11.012707139848883"><ele>197.0</ele><time>2026-04-19T18:52:02.999Z</time></trkpt><trkpt lat="45.88742907157661" lon="11.012826918137113"><ele>197.0</ele><time>2026-04-19T18:52:03.999Z</time></trkpt><trkpt lat="45.88766373848506" lon="11.01294627010507"><ele>199.0</ele><time>2026-04-19T18:52:04.999Z</time></trkpt><trkpt lat="45.88790160452793" lon="11.013068453613482"><ele>201.0</ele><time>2026-04-19T18:52:05.999Z</time></trkpt><trkpt lat="45.888139659100446" lon="11.013189454262529"><ele>201.0</ele><time>2026-04-19T18:52:06.999Z</time></trkpt><trkpt lat="45.888380310504445" lon="11.013312245182556"><ele>201.0</ele><time>2026-04-19T18:52:07.999Z</time></trkpt><trkpt lat="45.88862086205408" lon="11.01343431082448"><ele>196.0</ele><time>2026-04-19T18:52:08.999Z</time></trkpt><trkpt lat="45.888861380861336" lon="11.013557962723782"><ele>191.0</ele><time>2026-04-19T18:52:09.999Z</time></trkpt><trkpt lat="45.88910103997665" lon="11.013682040150908"><ele>198.0</ele><time>2026-04-19T18:52:10.999Z</time></trkpt><trkpt lat="45.88934031518526" lon="11.013803674481375"><ele>205.0</ele><time>2026-04-19T18:52:11.999Z</time></trkpt><trkpt lat="45.8895761421725" lon="11.01392325742842"><ele>205.0</ele><time>2026-04-19T18:52:12.999Z</time></trkpt><trkpt lat="45.889811531708894" lon="11.014040341750453"><ele>205.0</ele><time>2026-04-19T18:52:13.999Z</time></trkpt><trkpt lat="45.89004499058108" lon="11.01415927764082"><ele>197.0</ele><time>2026-04-19T18:52:14.999Z</time></trkpt><trkpt lat="45.89027749596077" lon="11.014279133477764"><ele>189.0</ele><time>2026-04-19T18:52:15.999Z</time></trkpt><trkpt lat="45.89050872876219" lon="11.014399896739118"><ele>189.0</ele><time>2026-04-19T18:52:16.999Z</time></trkpt><trkpt lat="45.890740887434504" lon="11.014521542743966"><ele>189.0</ele><time>2026-04-19T18:52:17.999Z</time></trkpt><trkpt lat="45.890973154638594" lon="11.014650200183418"><ele>193.0</ele><time>2026-04-19T18:52:18.999Z</time></trkpt><trkpt lat="45.89120614510336" lon="11.014783302709636"><ele>197.0</ele><time>2026-04-19T18:52:19.999Z</time></trkpt><trkpt lat="45.8914366252535" lon="11.014930330361706"><ele>193.0</ele><time>2026-04-19T18:52:20.999Z</time></trkpt><trkpt lat="45.89166594869259" lon="11.015085405675007"><ele>189.0</ele><time>2026-04-19T18:52:21.999Z</time></trkpt><trkpt lat="45.89189402969702" lon="11.01524828407301"><ele>189.0</ele><time>2026-04-19T18:52:22.999Z</time></trkpt><trkpt lat="45.8921196478415" lon="11.015414931368586"><ele>189.0</ele><time>2026-04-19T18:52:24Z</time></trkpt><trkpt lat="45.89234216580395" lon="11.015590282494415"><ele>189.0</ele><time>2026-04-19T18:52:25Z</time></trkpt><trkpt lat="45.892562856983794" lon="11.015769523737335"><ele>189.0</ele><time>2026-04-19T18:52:26Z</time></trkpt><trkpt lat="45.8927784386196" lon="11.015958548877176"><ele>184.5</ele><time>2026-04-19T18:52:27Z</time></trkpt><trkpt lat="45.89298968598411" lon="11.01615521996379"><ele>180.0</ele><time>2026-04-19T18:52:28Z</time></trkpt><trkpt lat="45.893196567838224" lon="11.016358046053027"><ele>180.0</ele><time>2026-04-19T18:52:29Z</time></trkpt><trkpt lat="45.89340050942392" lon="11.016567094453556"><ele>180.0</ele><time>2026-04-19T18:52:30Z</time></trkpt><trkpt lat="45.893599680238346" lon="11.016782840475848"><ele>180.5</ele><time>2026-04-19T18:52:31Z</time></trkpt><trkpt lat="45.89379606474055" lon="11.017002809077837"><ele>181.0</ele><time>2026-04-19T18:52:32Z</time></trkpt><trkpt lat="45.89398735602607" lon="11.017228711951505"><ele>181.0</ele><time>2026-04-19T18:52:33Z</time></trkpt><trkpt lat="45.89417477197325" lon="11.017460366858417"><ele>181.0</ele><time>2026-04-19T18:52:34Z</time></trkpt><trkpt lat="45.89435944305605" lon="11.017698898671329"><ele>180.0</ele><time>2026-04-19T18:52:35Z</time></trkpt><trkpt lat="45.89454068860087" lon="11.017939684423581"><ele>179.0</ele><time>2026-04-19T18:52:36Z</time></trkpt><trkpt lat="45.894720898050736" lon="11.018180453396774"><ele>176.0</ele><time>2026-04-19T18:52:37Z</time></trkpt><trkpt lat="45.89490048745927" lon="11.018422830622503"><ele>173.0</ele><time>2026-04-19T18:52:38Z</time></trkpt><trkpt lat="45.89507931351834" lon="11.018665297759993"><ele>174.0</ele><time>2026-04-19T18:52:39Z</time></trkpt><trkpt lat="45.89525850122716" lon="11.018908826445747"><ele>175.0</ele><time>2026-04-19T18:52:40Z</time></trkpt><trkpt lat="45.895437251686715" lon="11.019154574186784"><ele>175.0</ele><time>2026-04-19T18:52:41Z</time></trkpt><trkpt lat="45.895617067430635" lon="11.019399495203315"><ele>175.0</ele><time>2026-04-19T18:52:42Z</time></trkpt><trkpt lat="45.895797835717566" lon="11.019643454118563"><ele>176.0</ele><time>2026-04-19T18:52:43Z</time></trkpt><trkpt lat="45.8959774784519" lon="11.019888698791176"><ele>177.0</ele><time>2026-04-19T18:52:44Z</time></trkpt><trkpt lat="45.89615698338382" lon="11.020132886685868"><ele>175.0</ele><time>2026-04-19T18:52:45Z</time></trkpt><trkpt lat="45.89633619497376" lon="11.02037772002379"><ele>173.0</ele><time>2026-04-19T18:52:46Z</time></trkpt><trkpt lat="45.896515866675536" lon="11.020621243196317"><ele>171.5</ele><time>2026-04-19T18:52:47Z</time></trkpt><trkpt lat="45.89669480003286" lon="11.020865976928416"><ele>170.0</ele><time>2026-04-19T18:52:48Z</time></trkpt><trkpt lat="45.89687480428807" lon="11.021109166428076"><ele>170.0</ele><time>2026-04-19T18:52:49Z</time></trkpt><trkpt lat="45.89705378367432" lon="11.02135346104705"><ele>170.0</ele><time>2026-04-19T18:52:50Z</time></trkpt><trkpt lat="45.897232771728994" lon="11.021600437661512"><ele>170.0</ele><time>2026-04-19T18:52:51Z</time></trkpt><trkpt lat="45.897411945905354" lon="11.021847958687694"><ele>170.0</ele><time>2026-04-19T18:52:52Z</time></trkpt><trkpt lat="45.89759172450304" lon="11.022095348129227"><ele>171.0</ele><time>2026-04-19T18:52:53Z</time></trkpt><trkpt lat="45.89777241718454" lon="11.022342363334582"><ele>172.0</ele><time>2026-04-19T18:52:54Z</time></trkpt><trkpt lat="45.89795394640658" lon="11.022586780077775"><ele>172.0</ele><time>2026-04-19T18:52:55Z</time></trkpt><trkpt lat="45.89813463491315" lon="11.022830172677654"><ele>172.0</ele><time>2026-04-19T18:52:56Z</time></trkpt><trkpt lat="45.89831550157473" lon="11.023070915859517"><ele>171.5</ele><time>2026-04-19T18:52:57Z</time></trkpt><trkpt lat="45.8984960417669" lon="11.023307716175985"><ele>171.0</ele><time>2026-04-19T18:52:58Z</time></trkpt><trkpt lat="45.89867846601228" lon="11.023538733812051"><ele>170.5</ele><time>2026-04-19T18:52:59Z</time></trkpt><trkpt lat="45.89886148777555" lon="11.023766585370698"><ele>170.0</ele><time>2026-04-19T18:53:00Z</time></trkpt><trkpt lat="45.899046935996886" lon="11.023990619262245"><ele>170.5</ele><time>2026-04-19T18:53:01Z</time></trkpt><trkpt lat="45.89923548379735" lon="11.024208940013766"><ele>171.0</ele><time>2026-04-19T18:53:02Z</time></trkpt><trkpt lat="45.89942753507751" lon="11.024423969517814"><ele>171.0</ele><time>2026-04-19T18:53:03Z</time></trkpt><trkpt lat="45.89962219566383" lon="11.024634351797282"><ele>171.0</ele><time>2026-04-19T18:53:04Z</time></trkpt><trkpt lat="45.89981856054323" lon="11.024843613639364"><ele>171.5</ele><time>2026-04-19T18:53:05Z</time></trkpt><trkpt lat="45.900016540817724" lon="11.025051326988196"><ele>172.0</ele><time>2026-04-19T18:53:06Z</time></trkpt><trkpt lat="45.90021888488068" lon="11.025252981081685"><ele>172.0</ele><time>2026-04-19T18:53:07Z</time></trkpt><trkpt lat="45.900424785031475" lon="11.02545427011832"><ele>172.0</ele><time>2026-04-19T18:53:08Z</time></trkpt><trkpt lat="45.90063310342552" lon="11.025656213946496"><ele>171.5</ele><time>2026-04-19T18:53:09Z</time></trkpt><trkpt lat="45.90084649155327" lon="11.025857268865167"><ele>171.0</ele><time>2026-04-19T18:53:10Z</time></trkpt><trkpt lat="45.90106427036216" lon="11.026055706500737"><ele>172.0</ele><time>2026-04-19T18:53:11Z</time></trkpt><trkpt lat="45.90128629141079" lon="11.026250466320741"><ele>173.0</ele><time>2026-04-19T18:53:12Z</time></trkpt><trkpt lat="45.90151104900692" lon="11.026442617915253"><ele>173.0</ele><time>2026-04-19T18:53:13Z</time></trkpt><trkpt lat="45.90173697685122" lon="11.02662999479785"><ele>173.0</ele><time>2026-04-19T18:53:14Z</time></trkpt><trkpt lat="45.90196403897592" lon="11.026811900255442"><ele>173.5</ele><time>2026-04-19T18:53:15Z</time></trkpt><trkpt lat="45.90219220462762" lon="11.026985995899999"><ele>174.0</ele><time>2026-04-19T18:53:16Z</time></trkpt><trkpt lat="45.9024162233259" lon="11.027152056266662"><ele>173.5</ele><time>2026-04-19T18:53:17Z</time></trkpt><trkpt lat="45.90263538379219" lon="11.027315786659324"><ele>173.0</ele><time>2026-04-19T18:53:18Z</time></trkpt><trkpt lat="45.90285412442751" lon="11.027480268651509"><ele>173.0</ele><time>2026-04-19T18:53:19Z</time></trkpt><trkpt lat="45.90307272287462" lon="11.027644563031718"><ele>173.0</ele><time>2026-04-19T18:53:20Z</time></trkpt><trkpt lat="45.90329092588869" lon="11.027810596363294"><ele>173.0</ele><time>2026-04-19T18:53:20.999Z</time></trkpt><trkpt lat="45.90350965323944" lon="11.027976144417806"><ele>173.0</ele><time>2026-04-19T18:53:21.999Z</time></trkpt><trkpt lat="45.90373022234337" lon="11.028142122702574"><ele>173.0</ele><time>2026-04-19T18:53:22.999Z</time></trkpt><trkpt lat="45.90395235537019" lon="11.02830900832251"><ele>173.0</ele><time>2026-04-19T18:53:23.999Z</time></trkpt><trkpt lat="45.9041757213715" lon="11.028478708489443"><ele>172.5</ele><time>2026-04-19T18:53:24.999Z</time></trkpt><trkpt lat="45.90440050552058" lon="11.02864872117882"><ele>172.0</ele><time>2026-04-19T18:53:25.999Z</time></trkpt><trkpt lat="45.90462638473317" lon="11.028819071334121"><ele>172.0</ele><time>2026-04-19T18:53:26.999Z</time></trkpt><trkpt lat="45.90485259435309" lon="11.02899104802386"><ele>172.0</ele><time>2026-04-19T18:53:27.999Z</time></trkpt><trkpt lat="45.90507900842205" lon="11.029162429257278"><ele>172.5</ele><time>2026-04-19T18:53:28.999Z</time></trkpt><trkpt lat="45.90530375234189" lon="11.029334213878187"><ele>173.0</ele><time>2026-04-19T18:53:29.999Z</time></trkpt><trkpt lat="45.90552775624758" lon="11.029504789714862"><ele>173.0</ele><time>2026-04-19T18:53:30.999Z</time></trkpt><trkpt lat="45.90574916543139" lon="11.029672047069868"><ele>173.0</ele><time>2026-04-19T18:53:31.999Z</time></trkpt><trkpt lat="45.905968975235304" lon="11.029837061726893"><ele>172.5</ele><time>2026-04-19T18:53:32.999Z</time></trkpt><trkpt lat="45.906187825566" lon="11.030001283667378"><ele>172.0</ele><time>2026-04-19T18:53:33.999Z</time></trkpt><trkpt lat="45.90640434115264" lon="11.03016562307501"><ele>172.0</ele><time>2026-04-19T18:53:34.999Z</time></trkpt><trkpt lat="45.9066202672616" lon="11.030329061477083"><ele>172.0</ele><time>2026-04-19T18:53:35.999Z</time></trkpt><trkpt lat="45.90683526166612" lon="11.030491593386119"><ele>172.0</ele><time>2026-04-19T18:53:36.999Z</time></trkpt><trkpt lat="45.9070525979337" lon="11.030654520036308"><ele>172.0</ele><time>2026-04-19T18:53:37.999Z</time></trkpt><trkpt lat="45.907269608083126" lon="11.030817202444831"><ele>172.0</ele><time>2026-04-19T18:53:38.999Z</time></trkpt><trkpt lat="45.90748806554211" lon="11.030981419542124"><ele>172.0</ele><time>2026-04-19T18:53:39.999Z</time></trkpt><trkpt lat="45.90770672108098" lon="11.03114595703946"><ele>173.0</ele><time>2026-04-19T18:53:40.999Z</time></trkpt><trkpt lat="45.90792686941388" lon="11.03131227277755"><ele>174.0</ele><time>2026-04-19T18:53:41.999Z</time></trkpt><trkpt lat="45.90814733555862" lon="11.031479449250453"><ele>173.5</ele><time>2026-04-19T18:53:42.999Z</time></trkpt><trkpt lat="45.90836875325936" lon="11.031647743492984"><ele>173.0</ele><time>2026-04-19T18:53:43.999Z</time></trkpt><trkpt lat="45.90859037617231" lon="11.031815397656036"><ele>173.0</ele><time>2026-04-19T18:53:44.999Z</time></trkpt><trkpt lat="45.90881225389843" lon="11.031983333993141"><ele>173.0</ele><time>2026-04-19T18:53:45.999Z</time></trkpt><trkpt lat="45.90903322960427" lon="11.032150314333894"><ele>173.5</ele><time>2026-04-19T18:53:46.999Z</time></trkpt><trkpt lat="45.90925274170279" lon="11.032316387278708"><ele>174.0</ele><time>2026-04-19T18:53:47.999Z</time></trkpt><trkpt lat="45.90947068293178" lon="11.032483448861672"><ele>174.0</ele><time>2026-04-19T18:53:48.999Z</time></trkpt><trkpt lat="45.90968772642927" lon="11.032648336244787"><ele>174.0</ele><time>2026-04-19T18:53:49.999Z</time></trkpt><trkpt lat="45.90990463528146" lon="11.032812467016955"><ele>174.0</ele><time>2026-04-19T18:53:50.999Z</time></trkpt><trkpt lat="45.91012153519157" lon="11.032975383118012"><ele>174.0</ele><time>2026-04-19T18:53:51.999Z</time></trkpt><trkpt lat="45.91033786231634" lon="11.033138960827035"><ele>174.0</ele><time>2026-04-19T18:53:52.999Z</time></trkpt><trkpt lat="45.91055444887263" lon="11.033302976687873"><ele>174.0</ele><time>2026-04-19T18:53:53.999Z</time></trkpt><trkpt lat="45.910771122862066" lon="11.033467501926344"><ele>174.0</ele><time>2026-04-19T18:53:54.999Z</time></trkpt><trkpt lat="45.91098776029847" lon="11.033631021524764"><ele>174.0</ele><time>2026-04-19T18:53:55.999Z</time></trkpt><trkpt lat="45.91120348979486" lon="11.03379347638505"><ele>174.0</ele><time>2026-04-19T18:53:56.999Z</time></trkpt><trkpt lat="45.91141907768926" lon="11.033955698647576"><ele>174.0</ele><time>2026-04-19T18:53:57.999Z</time></trkpt><trkpt lat="45.9116340401694" lon="11.034119505786705"><ele>174.5</ele><time>2026-04-19T18:53:58.999Z</time></trkpt><trkpt lat="45.91184814051799" lon="11.03428540772354"><ele>175.0</ele><time>2026-04-19T18:53:59.999Z</time></trkpt><trkpt lat="45.91206122269667" lon="11.034452906074252"><ele>175.0</ele><time>2026-04-19T18:54:00.999Z</time></trkpt><trkpt lat="45.91227395232065" lon="11.034621059812304"><ele>175.0</ele><time>2026-04-19T18:54:01.999Z</time></trkpt><trkpt lat="45.91248564016567" lon="11.034789758573439"><ele>175.5</ele><time>2026-04-19T18:54:02.999Z</time></trkpt><trkpt lat="45.91269610265785" lon="11.034960979469842"><ele>176.0</ele><time>2026-04-19T18:54:03.999Z</time></trkpt><trkpt lat="45.91290432746026" lon="11.035138030210836"><ele>176.0</ele><time>2026-04-19T18:54:04.999Z</time></trkpt><trkpt lat="45.91311106808682" lon="11.03532041922509"><ele>176.0</ele><time>2026-04-19T18:54:05.999Z</time></trkpt><trkpt lat="45.913316099475715" lon="11.035508781725657"><ele>176.0</ele><time>2026-04-19T18:54:06.999Z</time></trkpt><trkpt lat="45.91351928786596" lon="11.035702368317228"><ele>176.0</ele><time>2026-04-19T18:54:07.999Z</time></trkpt><trkpt lat="45.91371955538183" lon="11.035904201260314"><ele>177.0</ele><time>2026-04-19T18:54:08.999Z</time></trkpt><trkpt lat="45.91391793737733" lon="11.036110629514505"><ele>178.0</ele><time>2026-04-19T18:54:09.999Z</time></trkpt><trkpt lat="45.91411554096337" lon="11.036321851331804"><ele>178.0</ele><time>2026-04-19T18:54:10.999Z</time></trkpt><trkpt lat="45.91431337378116" lon="11.036535557043324"><ele>178.0</ele><time>2026-04-19T18:54:11.999Z</time></trkpt><trkpt lat="45.91451182655236" lon="11.036753267304608"><ele>178.0</ele><time>2026-04-19T18:54:12.999Z</time></trkpt><trkpt lat="45.91470976985204" lon="11.036973729241842"><ele>178.0</ele><time>2026-04-19T18:54:13.999Z</time></trkpt><trkpt lat="45.91490580219402" lon="11.03719751345711"><ele>178.5</ele><time>2026-04-19T18:54:14.999Z</time></trkpt><trkpt lat="45.915098251780165" lon="11.037425955320613"><ele>179.0</ele><time>2026-04-19T18:54:15.999Z</time></trkpt><trkpt lat="45.915287721473355" lon="11.037659367554062"><ele>179.0</ele><time>2026-04-19T18:54:16.999Z</time></trkpt><trkpt lat="45.91547535646972" lon="11.037898226281454"><ele>179.0</ele><time>2026-04-19T18:54:17.999Z</time></trkpt><trkpt lat="45.915660162825915" lon="11.03814260784571"><ele>178.5</ele><time>2026-04-19T18:54:18.999Z</time></trkpt><trkpt lat="45.91584154006381" lon="11.03839100590809"><ele>178.0</ele><time>2026-04-19T18:54:19.999Z</time></trkpt><trkpt lat="45.91602180024943" lon="11.038642335777041"><ele>177.0</ele><time>2026-04-19T18:54:20.999Z</time></trkpt><trkpt lat="45.91619986148658" lon="11.038895145049523"><ele>176.0</ele><time>2026-04-19T18:54:21.999Z</time></trkpt><trkpt lat="45.91637546053637" lon="11.039152405609151"><ele>176.0</ele><time>2026-04-19T18:54:22.999Z</time></trkpt><trkpt lat="45.91654870748962" lon="11.039410572391846"><ele>176.0</ele><time>2026-04-19T18:54:24Z</time></trkpt><trkpt lat="45.916717409205226" lon="11.039670403494624"><ele>175.5</ele><time>2026-04-19T18:54:25Z</time></trkpt><trkpt lat="45.91687972328632" lon="11.039930013696303"><ele>175.0</ele><time>2026-04-19T18:54:26Z</time></trkpt><trkpt lat="45.917041748389316" lon="11.040193479031265"><ele>174.5</ele><time>2026-04-19T18:54:27Z</time></trkpt><trkpt lat="45.91720276488011" lon="11.040459245558065"><ele>174.0</ele><time>2026-04-19T18:54:28Z</time></trkpt><trkpt lat="45.91736299806352" lon="11.04072819777969"><ele>174.0</ele><time>2026-04-19T18:54:29Z</time></trkpt><trkpt lat="45.91752202661361" lon="11.041000170977245"><ele>174.0</ele><time>2026-04-19T18:54:30Z</time></trkpt><trkpt lat="45.9176796486821" lon="11.041274953107703"><ele>174.0</ele><time>2026-04-19T18:54:31Z</time></trkpt><trkpt lat="45.917836812260546" lon="11.0415512345817"><ele>174.0</ele><time>2026-04-19T18:54:32Z</time></trkpt><trkpt lat="45.9179944512241" lon="11.041828234860283"><ele>173.5</ele><time>2026-04-19T18:54:33Z</time></trkpt><trkpt lat="45.91815135113982" lon="11.042104203166703"><ele>173.0</ele><time>2026-04-19T18:54:34Z</time></trkpt><trkpt lat="45.91830825336251" lon="11.042381491273582"><ele>173.5</ele><time>2026-04-19T18:54:35Z</time></trkpt><trkpt lat="45.91846452800855" lon="11.042659813283304"><ele>174.0</ele><time>2026-04-19T18:54:36Z</time></trkpt><trkpt lat="45.91862082577503" lon="11.042935031839704"><ele>174.0</ele><time>2026-04-19T18:54:37Z</time></trkpt><trkpt lat="45.918775513293554" lon="11.043207196226481"><ele>174.0</ele><time>2026-04-19T18:54:38Z</time></trkpt><trkpt lat="45.918929547552594" lon="11.043479107707226"><ele>174.0</ele><time>2026-04-19T18:54:39Z</time></trkpt><trkpt lat="45.919082471303504" lon="11.0437493975886"><ele>174.0</ele><time>2026-04-19T18:54:40Z</time></trkpt><trkpt lat="45.91923422211795" lon="11.044017788136442"><ele>174.0</ele><time>2026-04-19T18:54:41Z</time></trkpt><trkpt lat="45.91938660247855" lon="11.044284668866785"><ele>174.0</ele><time>2026-04-19T18:54:42Z</time></trkpt><trkpt lat="45.91953785829037" lon="11.044551508670361"><ele>174.0</ele><time>2026-04-19T18:54:43Z</time></trkpt><trkpt lat="45.91968893868136" lon="11.044817223697851"><ele>174.0</ele><time>2026-04-19T18:54:44Z</time></trkpt><trkpt lat="45.9198396136713" lon="11.045084772038384"><ele>174.0</ele><time>2026-04-19T18:54:45Z</time></trkpt><trkpt lat="45.91999156347145" lon="11.045354167744373"><ele>174.0</ele><time>2026-04-19T18:54:46Z</time></trkpt><trkpt lat="45.92014505905332" lon="11.045624401158163"><ele>173.5</ele><time>2026-04-19T18:54:47Z</time></trkpt><trkpt lat="45.92029973438329" lon="11.045896786824235"><ele>173.0</ele><time>2026-04-19T18:54:48Z</time></trkpt><trkpt lat="45.92045593528383" lon="11.046169845778557"><ele>173.0</ele><time>2026-04-19T18:54:49Z</time></trkpt><trkpt lat="45.92061357103369" lon="11.046443229798323"><ele>173.0</ele><time>2026-04-19T18:54:50Z</time></trkpt><trkpt lat="45.92077278434099" lon="11.046719404657317"><ele>172.5</ele><time>2026-04-19T18:54:51Z</time></trkpt><trkpt lat="45.92093256870282" lon="11.046997237583595"><ele>172.0</ele><time>2026-04-19T18:54:52Z</time></trkpt><trkpt lat="45.92109200851658" lon="11.047275916095117"><ele>173.0</ele><time>2026-04-19T18:54:53Z</time></trkpt><trkpt lat="45.921250518924886" lon="11.047554567644575"><ele>174.0</ele><time>2026-04-19T18:54:54Z</time></trkpt><trkpt lat="45.92140987443163" lon="11.04783314372582"><ele>174.0</ele><time>2026-04-19T18:54:55Z</time></trkpt><trkpt lat="45.921568487524866" lon="11.048113331492349"><ele>174.0</ele><time>2026-04-19T18:54:56Z</time></trkpt><trkpt lat="45.92172406259679" lon="11.048391857931266"><ele>174.5</ele><time>2026-04-19T18:54:57Z</time></trkpt><trkpt lat="45.92188337825814" lon="11.048673399634726"><ele>175.0</ele><time>2026-04-19T18:54:58Z</time></trkpt><trkpt lat="45.92204206564962" lon="11.048955983886492"><ele>174.5</ele><time>2026-04-19T18:54:59Z</time></trkpt><trkpt lat="45.922200251667576" lon="11.049238330483547"><ele>174.0</ele><time>2026-04-19T18:55:00Z</time></trkpt><trkpt lat="45.92235943494339" lon="11.04951811053158"><ele>174.0</ele><time>2026-04-19T18:55:01Z</time></trkpt><trkpt lat="45.92251948174782" lon="11.049795511215605"><ele>174.0</ele><time>2026-04-19T18:55:02Z</time></trkpt><trkpt lat="45.92267762785437" lon="11.050072229675594"><ele>175.0</ele><time>2026-04-19T18:55:03Z</time></trkpt><trkpt lat="45.92283470859401" lon="11.05034838076614"><ele>176.0</ele><time>2026-04-19T18:55:04Z</time></trkpt><trkpt lat="45.92299117791466" lon="11.050624372717582"><ele>175.5</ele><time>2026-04-19T18:55:05Z</time></trkpt><trkpt lat="45.9231469051692" lon="11.050899141031575"><ele>175.0</ele><time>2026-04-19T18:55:06Z</time></trkpt><trkpt lat="45.92330228068986" lon="11.051173769087203"><ele>175.0</ele><time>2026-04-19T18:55:07Z</time></trkpt><trkpt lat="45.92345742273694" lon="11.051445779585686"><ele>175.0</ele><time>2026-04-19T18:55:08Z</time></trkpt><trkpt lat="45.923611974133685" lon="11.05171827962172"><ele>174.5</ele><time>2026-04-19T18:55:09Z</time></trkpt><trkpt lat="45.923766043148355" lon="11.051989069837013"><ele>174.0</ele><time>2026-04-19T18:55:10Z</time></trkpt><trkpt lat="45.92391998504383" lon="11.052259832814263"><ele>175.0</ele><time>2026-04-19T18:55:11Z</time></trkpt><trkpt lat="45.924073527684385" lon="11.052531187684155"><ele>176.0</ele><time>2026-04-19T18:55:12Z</time></trkpt><trkpt lat="45.92422703589082" lon="11.052804780258993"><ele>177.5</ele><time>2026-04-19T18:55:13Z</time></trkpt><trkpt lat="45.92438169118662" lon="11.053080013540281"><ele>179.0</ele><time>2026-04-19T18:55:14Z</time></trkpt><trkpt lat="45.924537107712766" lon="11.053356554826367"><ele>179.0</ele><time>2026-04-19T18:55:15Z</time></trkpt><trkpt lat="45.92469315371073" lon="11.053633372381263"><ele>179.0</ele><time>2026-04-19T18:55:16Z</time></trkpt><trkpt lat="45.92485164347237" lon="11.053908104740685"><ele>179.0</ele><time>2026-04-19T18:55:17Z</time></trkpt><trkpt lat="45.92501069937335" lon="11.054185020189323"><ele>179.0</ele><time>2026-04-19T18:55:18Z</time></trkpt><trkpt lat="45.92517027760224" lon="11.054462297038773"><ele>182.5</ele><time>2026-04-19T18:55:19Z</time></trkpt><trkpt lat="45.925329817692024" lon="11.05474114028253"><ele>186.0</ele><time>2026-04-19T18:55:20Z</time></trkpt><trkpt lat="45.9254893917214" lon="11.05502128851758"><ele>186.0</ele><time>2026-04-19T18:55:21Z</time></trkpt><trkpt lat="45.925647751038646" lon="11.05530121710867"><ele>186.0</ele><time>2026-04-19T18:55:22Z</time></trkpt><trkpt lat="45.92580614271555" lon="11.055579770078488"><ele>197.0</ele><time>2026-04-19T18:55:23Z</time></trkpt><trkpt lat="45.925964679108844" lon="11.05585967274695"><ele>208.0</ele><time>2026-04-19T18:55:24Z</time></trkpt><trkpt lat="45.9261216854421" lon="11.056141061105158"><ele>208.0</ele><time>2026-04-19T18:55:25Z</time></trkpt><trkpt lat="45.926277034613335" lon="11.05642482372692"><ele>208.0</ele><time>2026-04-19T18:55:26Z</time></trkpt><trkpt lat="45.926432329563305" lon="11.056709039703762"><ele>203.0</ele><time>2026-04-19T18:55:26.999Z</time></trkpt><trkpt lat="45.926583755556294" lon="11.056998026464703"><ele>198.0</ele><time>2026-04-19T18:55:27.999Z</time></trkpt><trkpt lat="45.926730472861884" lon="11.05729200218508"><ele>209.5</ele><time>2026-04-19T18:55:28.999Z</time></trkpt><trkpt lat="45.92687015712654" lon="11.057590962000333"><ele>221.0</ele><time>2026-04-19T18:55:29.999Z</time></trkpt><trkpt lat="45.927001784342046" lon="11.057894557283063"><ele>221.0</ele><time>2026-04-19T18:55:30.999Z</time></trkpt><trkpt lat="45.927124494373786" lon="11.058203594934772"><ele>221.0</ele><time>2026-04-19T18:55:31.999Z</time></trkpt><trkpt lat="45.927238666383694" lon="11.058518252926739"><ele>209.0</ele><time>2026-04-19T18:55:32.999Z</time></trkpt><trkpt lat="45.927345257597494" lon="11.058836926240962"><ele>197.0</ele><time>2026-04-19T18:55:33.999Z</time></trkpt><trkpt lat="45.927443794087544" lon="11.05916124510889"><ele>189.0</ele><time>2026-04-19T18:55:34.999Z</time></trkpt><trkpt lat="45.927536181574816" lon="11.059489938351637"><ele>181.0</ele><time>2026-04-19T18:55:35.999Z</time></trkpt><trkpt lat="45.927621826131606" lon="11.059822714310773"><ele>188.5</ele><time>2026-04-19T18:55:36.999Z</time></trkpt><trkpt lat="45.92769933767985" lon="11.060159376436095"><ele>196.0</ele><time>2026-04-19T18:55:37.999Z</time></trkpt><trkpt lat="45.92776906817733" lon="11.06049933396035"><ele>188.5</ele><time>2026-04-19T18:55:38.999Z</time></trkpt><trkpt lat="45.927831996440815" lon="11.060842851903264"><ele>181.0</ele><time>2026-04-19T18:55:39.999Z</time></trkpt><trkpt lat="45.92788846090694" lon="11.0611888606954"><ele>181.0</ele><time>2026-04-19T18:55:40.999Z</time></trkpt><trkpt lat="45.92793637962721" lon="11.061538851152816"><ele>181.0</ele><time>2026-04-19T18:55:41.999Z</time></trkpt><trkpt lat="45.92797683186274" lon="11.061890106150438"><ele>179.0</ele><time>2026-04-19T18:55:42.999Z</time></trkpt><trkpt lat="45.928008951091215" lon="11.062243869731596"><ele>177.0</ele><time>2026-04-19T18:55:43.999Z</time></trkpt><trkpt lat="45.92803058566055" lon="11.062599679016387"><ele>177.0</ele><time>2026-04-19T18:55:44.999Z</time></trkpt><trkpt lat="45.92804373384513" lon="11.062956006718533"><ele>177.0</ele><time>2026-04-19T18:55:45.999Z</time></trkpt><trkpt lat="45.92804889842479" lon="11.06331426950278"><ele>177.0</ele><time>2026-04-19T18:55:46.999Z</time></trkpt><trkpt lat="45.9280461974641" lon="11.06367289202031"><ele>177.0</ele><time>2026-04-19T18:55:47.999Z</time></trkpt><trkpt lat="45.9280357048764" lon="11.064032499711956"><ele>177.5</ele><time>2026-04-19T18:55:48.999Z</time></trkpt><trkpt lat="45.92801942884717" lon="11.06439096998745"><ele>178.0</ele><time>2026-04-19T18:55:49.999Z</time></trkpt><trkpt lat="45.9279955975134" lon="11.06474943919391"><ele>178.0</ele><time>2026-04-19T18:55:50.999Z</time></trkpt><trkpt lat="45.92796408465386" lon="11.06510507541326"><ele>178.0</ele><time>2026-04-19T18:55:51.999Z</time></trkpt><trkpt lat="45.927923658237" lon="11.065458240380147"><ele>177.0</ele><time>2026-04-19T18:55:52.999Z</time></trkpt><trkpt lat="45.92787422802507" lon="11.06580873229935"><ele>176.0</ele><time>2026-04-19T18:55:53.999Z</time></trkpt><trkpt lat="45.92781600715146" lon="11.066155950830547"><ele>176.0</ele><time>2026-04-19T18:55:54.999Z</time></trkpt><trkpt lat="45.92775241205676" lon="11.06650211227896"><ele>176.0</ele><time>2026-04-19T18:55:55.999Z</time></trkpt><trkpt lat="45.927684157014795" lon="11.06684555838872"><ele>175.5</ele><time>2026-04-19T18:55:56.999Z</time></trkpt><trkpt lat="45.927613169289295" lon="11.06718898460169"><ele>175.0</ele><time>2026-04-19T18:55:57.999Z</time></trkpt><trkpt lat="45.92753949147933" lon="11.067532717022159"><ele>175.0</ele><time>2026-04-19T18:55:58.999Z</time></trkpt><trkpt lat="45.927466246710004" lon="11.067877069628992"><ele>175.0</ele><time>2026-04-19T18:55:59.999Z</time></trkpt><trkpt lat="45.927394953770346" lon="11.068223712500235"><ele>176.0</ele><time>2026-04-19T18:56:00.999Z</time></trkpt><trkpt lat="45.927322777310486" lon="11.06857105592843"><ele>177.0</ele><time>2026-04-19T18:56:01.999Z</time></trkpt><trkpt lat="45.92725253431152" lon="11.068916946728104"><ele>176.5</ele><time>2026-04-19T18:56:02.999Z</time></trkpt><trkpt lat="45.92718069215369" lon="11.069263720808591"><ele>176.0</ele><time>2026-04-19T18:56:03.999Z</time></trkpt><trkpt lat="45.9271090672616" lon="11.069610343004571"><ele>176.0</ele><time>2026-04-19T18:56:04.999Z</time></trkpt><trkpt lat="45.92703872898382" lon="11.069955308294"><ele>176.0</ele><time>2026-04-19T18:56:05.999Z</time></trkpt><trkpt lat="45.92697101681418" lon="11.070299150398638"><ele>176.0</ele><time>2026-04-19T18:56:06.999Z</time></trkpt><trkpt lat="45.92691036227122" lon="11.070643454427342"><ele>176.0</ele><time>2026-04-19T18:56:07.999Z</time></trkpt><trkpt lat="45.92685367785452" lon="11.070989064080862"><ele>176.5</ele><time>2026-04-19T18:56:08.999Z</time></trkpt><trkpt lat="45.92680834377063" lon="11.07133267809125"><ele>177.0</ele><time>2026-04-19T18:56:10Z</time></trkpt><trkpt lat="45.92675961163988" lon="11.071675298863854"><ele>176.0</ele><time>2026-04-19T18:56:11Z</time></trkpt><trkpt lat="45.92672524846921" lon="11.072020683066032"><ele>175.0</ele><time>2026-04-19T18:56:12Z</time></trkpt><trkpt lat="45.92670183505591" lon="11.072370924310055"><ele>174.5</ele><time>2026-04-19T18:56:13Z</time></trkpt><trkpt lat="45.9266767676065" lon="11.07271123161718"><ele>174.0</ele><time>2026-04-19T18:56:14Z</time></trkpt><trkpt lat="45.92666236240195" lon="11.073053093541661"><ele>175.0</ele><time>2026-04-19T18:56:15Z</time></trkpt><trkpt lat="45.92665550171986" lon="11.073399453095728"><ele>176.0</ele><time>2026-04-19T18:56:16Z</time></trkpt><trkpt lat="45.92665962375654" lon="11.073746572498065"><ele>176.0</ele><time>2026-04-19T18:56:17Z</time></trkpt><trkpt lat="45.92667245798068" lon="11.074092648532124"><ele>176.0</ele><time>2026-04-19T18:56:18Z</time></trkpt><trkpt lat="45.92668982021185" lon="11.074440217200014"><ele>176.5</ele><time>2026-04-19T18:56:19Z</time></trkpt><trkpt lat="45.92671406152365" lon="11.074789939592215"><ele>177.0</ele><time>2026-04-19T18:56:20Z</time></trkpt><trkpt lat="45.92674522207698" lon="11.07514021111256"><ele>177.0</ele><time>2026-04-19T18:56:21Z</time></trkpt><trkpt lat="45.9267823129958" lon="11.075490271636943"><ele>177.0</ele><time>2026-04-19T18:56:22Z</time></trkpt><trkpt lat="45.92682930753335" lon="11.07584159789752"><ele>178.0</ele><time>2026-04-19T18:56:23Z</time></trkpt><trkpt lat="45.92688644224657" lon="11.076192954856674"><ele>179.0</ele><time>2026-04-19T18:56:24Z</time></trkpt><trkpt lat="45.92694872245454" lon="11.076539463632221"><ele>179.0</ele><time>2026-04-19T18:56:25Z</time></trkpt><trkpt lat="45.927023465463165" lon="11.076881479405506"><ele>179.0</ele><time>2026-04-19T18:56:26Z</time></trkpt><trkpt lat="45.9271029609165" lon="11.07721909704105"><ele>180.5</ele><time>2026-04-19T18:56:27Z</time></trkpt><trkpt lat="45.92719022081785" lon="11.077555469114868"><ele>182.0</ele><time>2026-04-19T18:56:28Z</time></trkpt><trkpt lat="45.92728692755252" lon="11.077886350360426"><ele>182.0</ele><time>2026-04-19T18:56:29Z</time></trkpt><trkpt lat="45.92738798150308" lon="11.078210365837451"><ele>182.0</ele><time>2026-04-19T18:56:30Z</time></trkpt><trkpt lat="45.92749398929172" lon="11.078529791730048"><ele>185.5</ele><time>2026-04-19T18:56:31Z</time></trkpt><trkpt lat="45.92760806729055" lon="11.078844744274535"><ele>189.0</ele><time>2026-04-19T18:56:32Z</time></trkpt><trkpt lat="45.927731458394135" lon="11.079151576798731"><ele>189.0</ele><time>2026-04-19T18:56:33Z</time></trkpt><trkpt lat="45.92786176604625" lon="11.079451512055723"><ele>189.0</ele><time>2026-04-19T18:56:34Z</time></trkpt><trkpt lat="45.92799669828285" lon="11.079747738810848"><ele>186.5</ele><time>2026-04-19T18:56:35Z</time></trkpt><trkpt lat="45.928142545178595" lon="11.08003536985766"><ele>184.0</ele><time>2026-04-19T18:56:36Z</time></trkpt><trkpt lat="45.92829198289432" lon="11.080316205367561"><ele>185.5</ele><time>2026-04-19T18:56:37Z</time></trkpt><trkpt lat="45.92844671656608" lon="11.080590130293192"><ele>187.0</ele><time>2026-04-19T18:56:38Z</time></trkpt><trkpt lat="45.928607266063935" lon="11.080856740961728"><ele>187.0</ele><time>2026-04-19T18:56:39Z</time></trkpt><trkpt lat="45.928772923340766" lon="11.081118653179264"><ele>187.0</ele><time>2026-04-19T18:56:40Z</time></trkpt><trkpt lat="45.92894469046498" lon="11.081373201380085"><ele>186.5</ele><time>2026-04-19T18:56:41Z</time></trkpt><trkpt lat="45.92912241194407" lon="11.0816203915276"><ele>186.0</ele><time>2026-04-19T18:56:42Z</time></trkpt><trkpt lat="45.929308189391506" lon="11.081857399250792"><ele>186.0</ele><time>2026-04-19T18:56:43Z</time></trkpt><trkpt lat="45.92949902087391" lon="11.082086360084988"><ele>186.0</ele><time>2026-04-19T18:56:44Z</time></trkpt><trkpt lat="45.929696139392995" lon="11.082306582307547"><ele>186.0</ele><time>2026-04-19T18:56:45Z</time></trkpt><trkpt lat="45.92989684693635" lon="11.082523246338324"><ele>186.0</ele><time>2026-04-19T18:56:46Z</time></trkpt><trkpt lat="45.9301009678098" lon="11.08273640494414"><ele>186.0</ele><time>2026-04-19T18:56:47Z</time></trkpt><trkpt lat="45.93030754997583" lon="11.082948333942454"><ele>186.0</ele><time>2026-04-19T18:56:48Z</time></trkpt><trkpt lat="45.93051564419132" lon="11.083160521956898"><ele>184.5</ele><time>2026-04-19T18:56:49Z</time></trkpt><trkpt lat="45.930724179692675" lon="11.083374134166846"><ele>183.0</ele><time>2026-04-19T18:56:50Z</time></trkpt><trkpt lat="45.93093293764231" lon="11.083589908512973"><ele>186.0</ele><time>2026-04-19T18:56:51Z</time></trkpt><trkpt lat="45.93114215041339" lon="11.083808604979016"><ele>189.0</ele><time>2026-04-19T18:56:52Z</time></trkpt><trkpt lat="45.93135309278417" lon="11.08402764635079"><ele>187.5</ele><time>2026-04-19T18:56:53Z</time></trkpt><trkpt lat="45.931562219383814" lon="11.084245870503647"><ele>186.0</ele><time>2026-04-19T18:56:54Z</time></trkpt><trkpt lat="45.93177042455917" lon="11.084463155136852"><ele>186.0</ele><time>2026-04-19T18:56:55Z</time></trkpt><trkpt lat="45.93198354511659" lon="11.084679782766306"><ele>186.0</ele><time>2026-04-19T18:56:56Z</time></trkpt><trkpt lat="45.93219266895937" lon="11.084892837797005"><ele>185.5</ele><time>2026-04-19T18:56:57Z</time></trkpt><trkpt lat="45.932405419571275" lon="11.08510725198192"><ele>185.0</ele><time>2026-04-19T18:56:58Z</time></trkpt><trkpt lat="45.932615702952056" lon="11.085320205660341"><ele>185.0</ele><time>2026-04-19T18:56:59Z</time></trkpt><trkpt lat="45.93282283834229" lon="11.085530579888255"><ele>185.0</ele><time>2026-04-19T18:57:00Z</time></trkpt><trkpt lat="45.93303045754066" lon="11.085743265518923"><ele>183.5</ele><time>2026-04-19T18:57:01Z</time></trkpt><trkpt lat="45.933237676128165" lon="11.085955597496138"><ele>182.0</ele><time>2026-04-19T18:57:02Z</time></trkpt><trkpt lat="45.9334437196382" lon="11.08616827850699"><ele>183.0</ele><time>2026-04-19T18:57:03Z</time></trkpt><trkpt lat="45.93365016738266" lon="11.086381561899024"><ele>184.0</ele><time>2026-04-19T18:57:04Z</time></trkpt><trkpt lat="45.933857184775285" lon="11.086597612214588"><ele>184.0</ele><time>2026-04-19T18:57:05Z</time></trkpt><trkpt lat="45.934064384245524" lon="11.086816490299244"><ele>184.0</ele><time>2026-04-19T18:57:06Z</time></trkpt><trkpt lat="45.934274329040626" lon="11.08703291477432"><ele>185.0</ele><time>2026-04-19T18:57:07Z</time></trkpt><trkpt lat="45.93448628585272" lon="11.087248971346057"><ele>186.0</ele><time>2026-04-19T18:57:08Z</time></trkpt><trkpt lat="45.93469809242928" lon="11.087466984287317"><ele>186.0</ele><time>2026-04-19T18:57:09Z</time></trkpt><trkpt lat="45.93491021794002" lon="11.08768617850845"><ele>186.0</ele><time>2026-04-19T18:57:10Z</time></trkpt><trkpt lat="45.935122716470666" lon="11.087904159904499"><ele>186.5</ele><time>2026-04-19T18:57:11Z</time></trkpt><trkpt lat="45.935333367104924" lon="11.088120347132287"><ele>187.0</ele><time>2026-04-19T18:57:12Z</time></trkpt><trkpt lat="45.93554206905506" lon="11.088334833487183"><ele>187.0</ele><time>2026-04-19T18:57:13Z</time></trkpt><trkpt lat="45.935749294627044" lon="11.08854846526801"><ele>187.0</ele><time>2026-04-19T18:57:14Z</time></trkpt><trkpt lat="45.93595377424189" lon="11.088761579044137"><ele>186.5</ele><time>2026-04-19T18:57:15Z</time></trkpt><trkpt lat="45.93615433408354" lon="11.088973159068976"><ele>186.0</ele><time>2026-04-19T18:57:16Z</time></trkpt><trkpt lat="45.93635448218818" lon="11.089179877968105"><ele>186.0</ele><time>2026-04-19T18:57:17Z</time></trkpt><trkpt lat="45.93655249049661" lon="11.089386009740458"><ele>186.0</ele><time>2026-04-19T18:57:18Z</time></trkpt><trkpt lat="45.936752968909225" lon="11.089587340866684"><ele>187.0</ele><time>2026-04-19T18:57:19Z</time></trkpt><trkpt lat="45.93695389707918" lon="11.089791357932256"><ele>188.0</ele><time>2026-04-19T18:57:20Z</time></trkpt><trkpt lat="45.93715403857055" lon="11.089998558103925"><ele>188.0</ele><time>2026-04-19T18:57:21Z</time></trkpt><trkpt lat="45.937351446516885" lon="11.090208254364269"><ele>188.0</ele><time>2026-04-19T18:57:22Z</time></trkpt><trkpt lat="45.93754918902941" lon="11.090421121716156"><ele>185.5</ele><time>2026-04-19T18:57:23Z</time></trkpt><trkpt lat="45.93774552001996" lon="11.09063764977019"><ele>183.0</ele><time>2026-04-19T18:57:24Z</time></trkpt><trkpt lat="45.93794181808531" lon="11.090857199087365"><ele>183.0</ele><time>2026-04-19T18:57:25Z</time></trkpt><trkpt lat="45.93813740559182" lon="11.091079203299198"><ele>183.0</ele><time>2026-04-19T18:57:26Z</time></trkpt><trkpt lat="45.93833062489632" lon="11.091301076664891"><ele>183.5</ele><time>2026-04-19T18:57:27Z</time></trkpt><trkpt lat="45.93852219147264" lon="11.091525276495794"><ele>184.0</ele><time>2026-04-19T18:57:28Z</time></trkpt><trkpt lat="45.938712873431406" lon="11.091748997962359"><ele>184.0</ele><time>2026-04-19T18:57:29Z</time></trkpt><trkpt lat="45.93890382924923" lon="11.091970126670589"><ele>184.0</ele><time>2026-04-19T18:57:30Z</time></trkpt><trkpt lat="45.93909608091859" lon="11.092185159609583"><ele>186.0</ele><time>2026-04-19T18:57:31Z</time></trkpt><trkpt lat="45.93928735481259" lon="11.092404148366658"><ele>188.0</ele><time>2026-04-19T18:57:32Z</time></trkpt><trkpt lat="45.93947942087101" lon="11.092621304756996"><ele>188.0</ele><time>2026-04-19T18:57:32.999Z</time></trkpt><trkpt lat="45.9396706057945" lon="11.092840275173472"><ele>188.0</ele><time>2026-04-19T18:57:33.999Z</time></trkpt><trkpt lat="45.939861450656075" lon="11.093059870926114"><ele>187.5</ele><time>2026-04-19T18:57:34.999Z</time></trkpt><trkpt lat="45.9400517967432" lon="11.093279938011069"><ele>187.0</ele><time>2026-04-19T18:57:35.999Z</time></trkpt><trkpt lat="45.9402432811569" lon="11.093499974918078"><ele>187.0</ele><time>2026-04-19T18:57:36.999Z</time></trkpt><trkpt lat="45.94043530738203" lon="11.093719310163968"><ele>187.0</ele><time>2026-04-19T18:57:37.999Z</time></trkpt><trkpt lat="45.9406318659594" lon="11.09393176329722"><ele>185.0</ele><time>2026-04-19T18:57:38.999Z</time></trkpt><trkpt lat="45.94081894998316" lon="11.09416277464761"><ele>183.0</ele><time>2026-04-19T18:57:39.999Z</time></trkpt><trkpt lat="45.941011473434045" lon="11.094382488415398"><ele>183.0</ele><time>2026-04-19T18:57:40.999Z</time></trkpt><trkpt lat="45.94120683615969" lon="11.094604282575014"><ele>183.0</ele><time>2026-04-19T18:57:41.999Z</time></trkpt><trkpt lat="45.94140019166387" lon="11.094826678051515"><ele>181.0</ele><time>2026-04-19T18:57:42.999Z</time></trkpt><trkpt lat="45.94159375031569" lon="11.095049462143031"><ele>179.0</ele><time>2026-04-19T18:57:43.999Z</time></trkpt><trkpt lat="45.94178755135487" lon="11.095273284920783"><ele>179.0</ele><time>2026-04-19T18:57:44.999Z</time></trkpt><trkpt lat="45.9419807703573" lon="11.095499615335893"><ele>179.0</ele><time>2026-04-19T18:57:45.999Z</time></trkpt><trkpt lat="45.942175368309684" lon="11.095724499164074"><ele>179.0</ele><time>2026-04-19T18:57:46.999Z</time></trkpt><trkpt lat="45.94237062608314" lon="11.09594942581934"><ele>179.0</ele><time>2026-04-19T18:57:47.999Z</time></trkpt><trkpt lat="45.94256650796935" lon="11.096175005707602"><ele>179.0</ele><time>2026-04-19T18:57:48.999Z</time></trkpt><trkpt lat="45.94276313800032" lon="11.096398473175768"><ele>179.0</ele><time>2026-04-19T18:57:49.999Z</time></trkpt><trkpt lat="45.942958931822055" lon="11.096621217731377"><ele>179.0</ele><time>2026-04-19T18:57:50.999Z</time></trkpt><trkpt lat="45.94315099558576" lon="11.096843918073212"><ele>179.0</ele><time>2026-04-19T18:57:51.999Z</time></trkpt><trkpt lat="45.943343763811214" lon="11.097067257737299"><ele>179.0</ele><time>2026-04-19T18:57:52.999Z</time></trkpt><trkpt lat="45.94353615754003" lon="11.097287780763423"><ele>179.0</ele><time>2026-04-19T18:57:53.999Z</time></trkpt><trkpt lat="45.94373028079746" lon="11.097506941087843"><ele>179.0</ele><time>2026-04-19T18:57:54.999Z</time></trkpt><trkpt lat="45.94392734585893" lon="11.097725525394107"><ele>179.0</ele><time>2026-04-19T18:57:55.999Z</time></trkpt><trkpt lat="45.94412743865255" lon="11.097941276931447"><ele>179.0</ele><time>2026-04-19T18:57:56.999Z</time></trkpt><trkpt lat="45.94433094893059" lon="11.09815309378629"><ele>179.0</ele><time>2026-04-19T18:57:57.999Z</time></trkpt><trkpt lat="45.944540407936174" lon="11.098366994854052"><ele>179.0</ele><time>2026-04-19T18:57:58.999Z</time></trkpt><trkpt lat="45.94475475135716" lon="11.09858374201304"><ele>179.0</ele><time>2026-04-19T18:57:59.999Z</time></trkpt><trkpt lat="45.94497591479538" lon="11.098800690301829"><ele>179.0</ele><time>2026-04-19T18:58:00.999Z</time></trkpt><trkpt lat="45.94520295713862" lon="11.0990150234314"><ele>179.0</ele><time>2026-04-19T18:58:01.999Z</time></trkpt><trkpt lat="45.94543503575695" lon="11.099229055195682"><ele>179.0</ele><time>2026-04-19T18:58:03Z</time></trkpt><trkpt lat="45.94567391886696" lon="11.099437599390637"><ele>179.0</ele><time>2026-04-19T18:58:04Z</time></trkpt><trkpt lat="45.94591626954583" lon="11.099642704299413"><ele>179.0</ele><time>2026-04-19T18:58:05Z</time></trkpt><trkpt lat="45.9461597615134" lon="11.09984089474479"><ele>179.0</ele><time>2026-04-19T18:58:06Z</time></trkpt><trkpt lat="45.9464046215162" lon="11.100030404858542"><ele>179.0</ele><time>2026-04-19T18:58:07Z</time></trkpt><trkpt lat="45.94665036486376" lon="11.10021296880907"><ele>179.0</ele><time>2026-04-19T18:58:08Z</time></trkpt><trkpt lat="45.94689577155287" lon="11.100389735218892"><ele>179.0</ele><time>2026-04-19T18:58:09Z</time></trkpt><trkpt lat="45.94714286566357" lon="11.100561089531963"><ele>179.0</ele><time>2026-04-19T18:58:10Z</time></trkpt><trkpt lat="45.947390247705165" lon="11.100733786873572"><ele>179.0</ele><time>2026-04-19T18:58:11Z</time></trkpt><trkpt lat="45.94764009775015" lon="11.100900371488219"><ele>179.0</ele><time>2026-04-19T18:58:12Z</time></trkpt><trkpt lat="45.94789269705368" lon="11.101060920016568"><ele>179.0</ele><time>2026-04-19T18:58:13Z</time></trkpt><trkpt lat="45.94814754252877" lon="11.101215416201779"><ele>179.0</ele><time>2026-04-19T18:58:14Z</time></trkpt><trkpt lat="45.94840412292481" lon="11.101363201813582"><ele>179.0</ele><time>2026-04-19T18:58:15Z</time></trkpt><trkpt lat="45.94866201802993" lon="11.10150204330614"><ele>179.0</ele><time>2026-04-19T18:58:16Z</time></trkpt><trkpt lat="45.94892069816932" lon="11.101635407643892"><ele>178.5</ele><time>2026-04-19T18:58:17Z</time></trkpt><trkpt lat="45.949178858269946" lon="11.101760321180455"><ele>178.0</ele><time>2026-04-19T18:58:18Z</time></trkpt><trkpt lat="45.94943574320675" lon="11.101880882472484"><ele>178.0</ele><time>2026-04-19T18:58:19Z</time></trkpt><trkpt lat="45.949691107986666" lon="11.102000623708946"><ele>178.0</ele><time>2026-04-19T18:58:20Z</time></trkpt><trkpt lat="45.94994480510136" lon="11.102122358950206"><ele>178.0</ele><time>2026-04-19T18:58:21Z</time></trkpt><trkpt lat="45.950200234699814" lon="11.102239636024631"><ele>178.0</ele><time>2026-04-19T18:58:22Z</time></trkpt><trkpt lat="45.95045629132056" lon="11.102356197003342"><ele>178.0</ele><time>2026-04-19T18:58:23Z</time></trkpt><trkpt lat="45.95071269829386" lon="11.102471611594469"><ele>178.0</ele><time>2026-04-19T18:58:24Z</time></trkpt><trkpt lat="45.95096991657387" lon="11.102585784839349"><ele>179.0</ele><time>2026-04-19T18:58:25Z</time></trkpt><trkpt lat="45.95122358618885" lon="11.10270224833762"><ele>180.0</ele><time>2026-04-19T18:58:26Z</time></trkpt><trkpt lat="45.95147748781532" lon="11.102821977750997"><ele>179.5</ele><time>2026-04-19T18:58:27Z</time></trkpt><trkpt lat="45.951730221200066" lon="11.102942647975604"><ele>179.0</ele><time>2026-04-19T18:58:28Z</time></trkpt><trkpt lat="45.951981669266615" lon="11.103061669041494"><ele>179.0</ele><time>2026-04-19T18:58:29Z</time></trkpt><trkpt lat="45.952233717358126" lon="11.103180050813222"><ele>179.0</ele><time>2026-04-19T18:58:30Z</time></trkpt><trkpt lat="45.95248583784481" lon="11.103296320367036"><ele>178.5</ele><time>2026-04-19T18:58:31Z</time></trkpt><trkpt lat="45.95273696367393" lon="11.103413491643943"><ele>178.0</ele><time>2026-04-19T18:58:32Z</time></trkpt><trkpt lat="45.952986611573564" lon="11.103529700169142"><ele>178.0</ele><time>2026-04-19T18:58:33Z</time></trkpt><trkpt lat="45.95323532543296" lon="11.103645081260902"><ele>178.0</ele><time>2026-04-19T18:58:34Z</time></trkpt><trkpt lat="45.95348342554174" lon="11.10376040347392"><ele>178.0</ele><time>2026-04-19T18:58:35Z</time></trkpt><trkpt lat="45.95373075745949" lon="11.103875810143464"><ele>178.0</ele><time>2026-04-19T18:58:36Z</time></trkpt><trkpt lat="45.9539772923434" lon="11.103988805903564"><ele>179.0</ele><time>2026-04-19T18:58:37Z</time></trkpt><trkpt lat="45.95422397339801" lon="11.104101484792888"><ele>180.0</ele><time>2026-04-19T18:58:38Z</time></trkpt><trkpt lat="45.9544702824914" lon="11.104215050071582"><ele>180.0</ele><time>2026-04-19T18:58:39Z</time></trkpt><trkpt lat="45.95471788072403" lon="11.104329933961596"><ele>180.0</ele><time>2026-04-19T18:58:40Z</time></trkpt><trkpt lat="45.95496620186315" lon="11.10444521724073"><ele>179.5</ele><time>2026-04-19T18:58:41Z</time></trkpt><trkpt lat="45.95521545404332" lon="11.10455878845582"><ele>179.0</ele><time>2026-04-19T18:58:42Z</time></trkpt><trkpt lat="45.9554660821302" lon="11.104670704053026"><ele>179.0</ele><time>2026-04-19T18:58:43Z</time></trkpt><trkpt lat="45.95571728692144" lon="11.104782887214514"><ele>179.0</ele><time>2026-04-19T18:58:44Z</time></trkpt><trkpt lat="45.95596943804766" lon="11.104895525022009"><ele>179.0</ele><time>2026-04-19T18:58:45Z</time></trkpt><trkpt lat="45.95622279946798" lon="11.105006439404905"><ele>179.0</ele><time>2026-04-19T18:58:46Z</time></trkpt><trkpt lat="45.9564773749662" lon="11.105111871195783"><ele>179.0</ele><time>2026-04-19T18:58:47Z</time></trkpt><trkpt lat="45.95673174907501" lon="11.1052111270556"><ele>179.0</ele><time>2026-04-19T18:58:48Z</time></trkpt><trkpt lat="45.95698597310801" lon="11.105305268665395"><ele>179.0</ele><time>2026-04-19T18:58:49Z</time></trkpt><trkpt lat="45.95723965039216" lon="11.105391289397055"><ele>179.0</ele><time>2026-04-19T18:58:50Z</time></trkpt><trkpt lat="45.957493602829686" lon="11.105471262015627"><ele>179.5</ele><time>2026-04-19T18:58:51Z</time></trkpt><trkpt lat="45.957746581688575" lon="11.105545376241372"><ele>180.0</ele><time>2026-04-19T18:58:52Z</time></trkpt><trkpt lat="45.95799957215818" lon="11.105614853646712"><ele>180.0</ele><time>2026-04-19T18:58:53Z</time></trkpt><trkpt lat="45.95825200742034" lon="11.105676346493222"><ele>180.0</ele><time>2026-04-19T18:58:54Z</time></trkpt><trkpt lat="45.958503933573645" lon="11.105731526927501"><ele>180.0</ele><time>2026-04-19T18:58:55Z</time></trkpt><trkpt lat="45.95875694058788" lon="11.105785815237658"><ele>180.0</ele><time>2026-04-19T18:58:56Z</time></trkpt><trkpt lat="45.9590109695608" lon="11.105835589214799"><ele>180.5</ele><time>2026-04-19T18:58:57Z</time></trkpt><trkpt lat="45.95926506233365" lon="11.105881069823218"><ele>181.0</ele><time>2026-04-19T18:58:58Z</time></trkpt><trkpt lat="45.95952037840098" lon="11.105923257798246"><ele>181.0</ele><time>2026-04-19T18:58:59Z</time></trkpt><trkpt lat="45.95977568682543" lon="11.10596042564693"><ele>181.0</ele><time>2026-04-19T18:59:00Z</time></trkpt><trkpt lat="45.96003231691765" lon="11.105993975026012"><ele>180.0</ele><time>2026-04-19T18:59:01Z</time></trkpt><trkpt lat="45.960288578061764" lon="11.106027647762149"><ele>179.0</ele><time>2026-04-19T18:59:02Z</time></trkpt><trkpt lat="45.96054378458952" lon="11.106062026971646"><ele>179.0</ele><time>2026-04-19T18:59:03Z</time></trkpt><trkpt lat="45.960798225129366" lon="11.106097548235791"><ele>179.0</ele><time>2026-04-19T18:59:04Z</time></trkpt><trkpt lat="45.9610523360743" lon="11.106133828360958"><ele>179.0</ele><time>2026-04-19T18:59:05Z</time></trkpt><trkpt lat="45.961305247562514" lon="11.106170354641351"><ele>179.0</ele><time>2026-04-19T18:59:06Z</time></trkpt><trkpt lat="45.96155813224997" lon="11.106205984822255"><ele>179.5</ele><time>2026-04-19T18:59:07Z</time></trkpt><trkpt lat="45.96181048031022" lon="11.106243076429502"><ele>180.0</ele><time>2026-04-19T18:59:08Z</time></trkpt><trkpt lat="45.96206188321931" lon="11.106279734858564"><ele>180.0</ele><time>2026-04-19T18:59:09Z</time></trkpt><trkpt lat="45.96231252852526" lon="11.106315689876704"><ele>180.0</ele><time>2026-04-19T18:59:10Z</time></trkpt><trkpt lat="45.96256400942867" lon="11.106349574592993"><ele>179.5</ele><time>2026-04-19T18:59:11Z</time></trkpt><trkpt lat="45.96281540859829" lon="11.106382567596368"><ele>179.0</ele><time>2026-04-19T18:59:12Z</time></trkpt><trkpt lat="45.96306701858545" lon="11.106416076793316"><ele>179.0</ele><time>2026-04-19T18:59:13Z</time></trkpt><trkpt lat="45.96331833477747" lon="11.106450104101494"><ele>179.0</ele><time>2026-04-19T18:59:14Z</time></trkpt><trkpt lat="45.963570079469" lon="11.106484467024186"><ele>180.0</ele><time>2026-04-19T18:59:15Z</time></trkpt><trkpt lat="45.96382198716742" lon="11.106519609564204"><ele>181.0</ele><time>2026-04-19T18:59:16Z</time></trkpt><trkpt lat="45.96407350087007" lon="11.106552528526795"><ele>180.5</ele><time>2026-04-19T18:59:17Z</time></trkpt><trkpt lat="45.9643254256978" lon="11.106586938851384"><ele>180.0</ele><time>2026-04-19T18:59:18Z</time></trkpt><trkpt lat="45.964577007496736" lon="11.10662257129386"><ele>180.0</ele><time>2026-04-19T18:59:19Z</time></trkpt><trkpt lat="45.964828682720324" lon="11.106658029111845"><ele>180.0</ele><time>2026-04-19T18:59:20Z</time></trkpt><trkpt lat="45.96508063436389" lon="11.106694517557772"><ele>179.0</ele><time>2026-04-19T18:59:21Z</time></trkpt><trkpt lat="45.96533219728908" lon="11.106730622289419"><ele>178.0</ele><time>2026-04-19T18:59:22Z</time></trkpt><trkpt lat="45.965584116745504" lon="11.106769232585199"><ele>178.0</ele><time>2026-04-19T18:59:23Z</time></trkpt><trkpt lat="45.965836119827955" lon="11.106806632438968"><ele>178.0</ele><time>2026-04-19T18:59:24Z</time></trkpt><trkpt lat="45.96608741559154" lon="11.106841860860847"><ele>178.5</ele><time>2026-04-19T18:59:25Z</time></trkpt><trkpt lat="45.96633857979833" lon="11.10687732341112"><ele>179.0</ele><time>2026-04-19T18:59:26Z</time></trkpt><trkpt lat="45.96659051218957" lon="11.106910776895875"><ele>179.5</ele><time>2026-04-19T18:59:27Z</time></trkpt><trkpt lat="45.96684201442427" lon="11.10693976785028"><ele>180.0</ele><time>2026-04-19T18:59:28Z</time></trkpt><trkpt lat="45.967094050865455" lon="11.10697320377412"><ele>180.0</ele><time>2026-04-19T18:59:29Z</time></trkpt><trkpt lat="45.96734562295323" lon="11.107007877616168"><ele>180.0</ele><time>2026-04-19T18:59:30Z</time></trkpt><trkpt lat="45.967597348836854" lon="11.107044159336102"><ele>180.0</ele><time>2026-04-19T18:59:31Z</time></trkpt><trkpt lat="45.96784915208719" lon="11.107081205078853"><ele>180.0</ele><time>2026-04-19T18:59:32Z</time></trkpt><trkpt lat="45.96810111058177" lon="11.107118048188727"><ele>180.0</ele><time>2026-04-19T18:59:33Z</time></trkpt><trkpt lat="45.968352302610484" lon="11.10715528890998"><ele>180.0</ele><time>2026-04-19T18:59:34Z</time></trkpt><trkpt lat="45.96860444769208" lon="11.10719399735222"><ele>179.0</ele><time>2026-04-19T18:59:35Z</time></trkpt><trkpt lat="45.96885608000896" lon="11.107233137588922"><ele>178.0</ele><time>2026-04-19T18:59:36Z</time></trkpt><trkpt lat="45.96910753422326" lon="11.107269477530947"><ele>179.0</ele><time>2026-04-19T18:59:37Z</time></trkpt><trkpt lat="45.969359507177" lon="11.107304574576887"><ele>180.0</ele><time>2026-04-19T18:59:38Z</time></trkpt><trkpt lat="45.96961161840174" lon="11.1073401175146"><ele>180.0</ele><time>2026-04-19T18:59:38.999Z</time></trkpt><trkpt lat="45.969863104543656" lon="11.107375226055394"><ele>180.0</ele><time>2026-04-19T18:59:39.999Z</time></trkpt><trkpt lat="45.97011445510795" lon="11.107409732090453"><ele>179.5</ele><time>2026-04-19T18:59:40.999Z</time></trkpt><trkpt lat="45.97036566897341" lon="11.10744398840444"><ele>179.0</ele><time>2026-04-19T18:59:41.999Z</time></trkpt><trkpt lat="45.970616612291664" lon="11.107475917919974"><ele>179.0</ele><time>2026-04-19T18:59:42.999Z</time></trkpt><trkpt lat="45.970867753560874" lon="11.107507332306168"><ele>179.0</ele><time>2026-04-19T18:59:43.999Z</time></trkpt><trkpt lat="45.97111883355242" lon="11.107539596821196"><ele>179.0</ele><time>2026-04-19T18:59:44.999Z</time></trkpt><trkpt lat="45.97136980289278" lon="11.107571393764413"><ele>179.0</ele><time>2026-04-19T18:59:45.999Z</time></trkpt><trkpt lat="45.971620436006766" lon="11.10760059396645"><ele>180.0</ele><time>2026-04-19T18:59:46.999Z</time></trkpt><trkpt lat="45.97187133652963" lon="11.107632072547474"><ele>181.0</ele><time>2026-04-19T18:59:47.999Z</time></trkpt><trkpt lat="45.97212155689415" lon="11.107665847721655"><ele>181.0</ele><time>2026-04-19T18:59:48.999Z</time></trkpt><trkpt lat="45.97237171283393" lon="11.107703238918253"><ele>181.0</ele><time>2026-04-19T18:59:49.999Z</time></trkpt><trkpt lat="45.972623574438174" lon="11.107741208503903"><ele>180.0</ele><time>2026-04-19T18:59:50.999Z</time></trkpt><trkpt lat="45.97287288642545" lon="11.10777872127348"><ele>179.0</ele><time>2026-04-19T18:59:51.999Z</time></trkpt><trkpt lat="45.97312225294644" lon="11.107815808125556"><ele>178.5</ele><time>2026-04-19T18:59:52.999Z</time></trkpt><trkpt lat="45.9733714386958" lon="11.107853123497762"><ele>178.0</ele><time>2026-04-19T18:59:53.999Z</time></trkpt><trkpt lat="45.973619857490576" lon="11.10788908793665"><ele>178.0</ele><time>2026-04-19T18:59:54.999Z</time></trkpt><trkpt lat="45.973868143760185" lon="11.10792176436517"><ele>178.0</ele><time>2026-04-19T18:59:55.999Z</time></trkpt><trkpt lat="45.974115475583346" lon="11.10795474690456"><ele>178.5</ele><time>2026-04-19T18:59:56.999Z</time></trkpt><trkpt lat="45.9743636122771" lon="11.10798739762167"><ele>179.0</ele><time>2026-04-19T18:59:57.999Z</time></trkpt><trkpt lat="45.97460992739778" lon="11.108022385466018"><ele>179.0</ele><time>2026-04-19T18:59:58.999Z</time></trkpt><trkpt lat="45.9748559652521" lon="11.108057841669249"><ele>179.0</ele><time>2026-04-19T18:59:59.999Z</time></trkpt><trkpt lat="45.975101850574326" lon="11.10809413467734"><ele>178.5</ele><time>2026-04-19T19:00:00.999Z</time></trkpt><trkpt lat="45.97534751327088" lon="11.108128783543835"><ele>178.0</ele><time>2026-04-19T19:00:01.999Z</time></trkpt><trkpt lat="45.97559225962766" lon="11.1081625930598"><ele>178.0</ele><time>2026-04-19T19:00:02.999Z</time></trkpt><trkpt lat="45.975837122567164" lon="11.108197458206806"><ele>178.0</ele><time>2026-04-19T19:00:04Z</time></trkpt><trkpt lat="45.97608070084819" lon="11.108232740422283"><ele>178.5</ele><time>2026-04-19T19:00:05Z</time></trkpt><trkpt lat="45.976324695450614" lon="11.108267411957401"><ele>179.0</ele><time>2026-04-19T19:00:06Z</time></trkpt><trkpt lat="45.9765684403307" lon="11.108303001023467"><ele>179.0</ele><time>2026-04-19T19:00:07Z</time></trkpt><trkpt lat="45.97681198645198" lon="11.108335560900299"><ele>179.0</ele><time>2026-04-19T19:00:08Z</time></trkpt><trkpt lat="45.97705689456406" lon="11.10836942663219"><ele>179.0</ele><time>2026-04-19T19:00:09Z</time></trkpt><trkpt lat="45.977301411288586" lon="11.108403595768248"><ele>179.0</ele><time>2026-04-19T19:00:10Z</time></trkpt><trkpt lat="45.97754487081849" lon="11.108438291281415"><ele>179.0</ele><time>2026-04-19T19:00:11Z</time></trkpt><trkpt lat="45.97778841832427" lon="11.108472967637155"><ele>179.0</ele><time>2026-04-19T19:00:12Z</time></trkpt><trkpt lat="45.978032719327615" lon="11.10850992784042"><ele>179.0</ele><time>2026-04-19T19:00:13Z</time></trkpt><trkpt lat="45.97827721241603" lon="11.10854485003555"><ele>179.0</ele><time>2026-04-19T19:00:14Z</time></trkpt><trkpt lat="45.978522856242094" lon="11.10858011262211"><ele>179.5</ele><time>2026-04-19T19:00:15Z</time></trkpt><trkpt lat="45.97877103965727" lon="11.108613768626254"><ele>180.0</ele><time>2026-04-19T19:00:16Z</time></trkpt><trkpt lat="45.97902150721899" lon="11.108647036982136"><ele>179.5</ele><time>2026-04-19T19:00:17Z</time></trkpt><trkpt lat="45.97927394947809" lon="11.108681212117968"><ele>179.0</ele><time>2026-04-19T19:00:18Z</time></trkpt><trkpt lat="45.97952933217499" lon="11.108718627934481"><ele>179.0</ele><time>2026-04-19T19:00:19Z</time></trkpt><trkpt lat="45.97978526200368" lon="11.108757280820596"><ele>179.0</ele><time>2026-04-19T19:00:20Z</time></trkpt><trkpt lat="45.980043306392716" lon="11.108797883799536"><ele>179.0</ele><time>2026-04-19T19:00:21Z</time></trkpt><trkpt lat="45.980302137289534" lon="11.108843800923001"><ele>179.0</ele><time>2026-04-19T19:00:22Z</time></trkpt><trkpt lat="45.98056128528036" lon="11.108898580590907"><ele>179.0</ele><time>2026-04-19T19:00:23Z</time></trkpt><trkpt lat="45.98082042204748" lon="11.108962605447854"><ele>179.0</ele><time>2026-04-19T19:00:24Z</time></trkpt><trkpt lat="45.981078737308835" lon="11.1090364335951"><ele>180.0</ele><time>2026-04-19T19:00:25Z</time></trkpt><trkpt lat="45.98133543896381" lon="11.109121202854368"><ele>181.0</ele><time>2026-04-19T19:00:26Z</time></trkpt><trkpt lat="45.98159138566364" lon="11.109215562008318"><ele>180.5</ele><time>2026-04-19T19:00:27Z</time></trkpt><trkpt lat="45.98184537423776" lon="11.109322589514493"><ele>180.0</ele><time>2026-04-19T19:00:28Z</time></trkpt><trkpt lat="45.98209801036128" lon="11.109438612887306"><ele>180.0</ele><time>2026-04-19T19:00:29Z</time></trkpt><trkpt lat="45.982347456927236" lon="11.109565730113694"><ele>180.0</ele><time>2026-04-19T19:00:30Z</time></trkpt><trkpt lat="45.982593430305116" lon="11.109704810637565"><ele>179.0</ele><time>2026-04-19T19:00:31Z</time></trkpt><trkpt lat="45.9828361321007" lon="11.109856462742501"><ele>178.0</ele><time>2026-04-19T19:00:32Z</time></trkpt><trkpt lat="45.98307517677266" lon="11.110017482518984"><ele>178.0</ele><time>2026-04-19T19:00:33Z</time></trkpt><trkpt lat="45.983309569812825" lon="11.110189641362972"><ele>178.0</ele><time>2026-04-19T19:00:34Z</time></trkpt><trkpt lat="45.98354060522655" lon="11.110371129658233"><ele>179.0</ele><time>2026-04-19T19:00:35Z</time></trkpt><trkpt lat="45.98376789226121" lon="11.11055976886641"><ele>180.0</ele><time>2026-04-19T19:00:36Z</time></trkpt><trkpt lat="45.98399157557757" lon="11.110754156380041"><ele>180.0</ele><time>2026-04-19T19:00:37Z</time></trkpt><trkpt lat="45.98421437239578" lon="11.110952392131898"><ele>180.0</ele><time>2026-04-19T19:00:38Z</time></trkpt><trkpt lat="45.98443472733802" lon="11.111152614790614"><ele>180.0</ele><time>2026-04-19T19:00:39Z</time></trkpt><trkpt lat="45.9846533905646" lon="11.111353431044366"><ele>180.0</ele><time>2026-04-19T19:00:40Z</time></trkpt><trkpt lat="45.98486855765197" lon="11.111557936331604"><ele>180.5</ele><time>2026-04-19T19:00:41Z</time></trkpt><trkpt lat="45.98508495928927" lon="11.111764005371585"><ele>181.0</ele><time>2026-04-19T19:00:42Z</time></trkpt><trkpt lat="45.985299664350094" lon="11.111970624800083"><ele>181.0</ele><time>2026-04-19T19:00:43Z</time></trkpt><trkpt lat="45.98551669752651" lon="11.112176441891929"><ele>181.0</ele><time>2026-04-19T19:00:44Z</time></trkpt><trkpt lat="45.98573418633038" lon="11.112381483713023"><ele>181.0</ele><time>2026-04-19T19:00:45Z</time></trkpt><trkpt lat="45.98595191359893" lon="11.112584422990345"><ele>181.0</ele><time>2026-04-19T19:00:46Z</time></trkpt><trkpt lat="45.986167809420664" lon="11.11278617642418"><ele>181.0</ele><time>2026-04-19T19:00:47Z</time></trkpt><trkpt lat="45.98638376131602" lon="11.11298865272286"><ele>181.0</ele><time>2026-04-19T19:00:48Z</time></trkpt><trkpt lat="45.98659901012252" lon="11.113190794379312"><ele>179.5</ele><time>2026-04-19T19:00:49Z</time></trkpt><trkpt lat="45.98681516354627" lon="11.113395229449916"><ele>178.0</ele><time>2026-04-19T19:00:50Z</time></trkpt><trkpt lat="45.98703129221872" lon="11.11359894176056"><ele>178.0</ele><time>2026-04-19T19:00:51Z</time></trkpt><trkpt lat="45.98724925241257" lon="11.113802533885126"><ele>178.0</ele><time>2026-04-19T19:00:52Z</time></trkpt><trkpt lat="45.98746820176388" lon="11.114006940957482"><ele>179.0</ele><time>2026-04-19T19:00:53Z</time></trkpt><trkpt lat="45.98768687103243" lon="11.114213307913063"><ele>180.0</ele><time>2026-04-19T19:00:54Z</time></trkpt><trkpt lat="45.98790568894813" lon="11.114420951900863"><ele>180.0</ele><time>2026-04-19T19:00:55Z</time></trkpt><trkpt lat="45.988124763319604" lon="11.114629288061025"><ele>180.0</ele><time>2026-04-19T19:00:56Z</time></trkpt><trkpt lat="45.988345169854576" lon="11.114838884613004"><ele>181.0</ele><time>2026-04-19T19:00:57Z</time></trkpt><trkpt lat="45.98856642929223" lon="11.11504790456939"><ele>182.0</ele><time>2026-04-19T19:00:58Z</time></trkpt><trkpt lat="45.988788846064836" lon="11.115256356738954"><ele>182.0</ele><time>2026-04-19T19:00:59Z</time></trkpt><trkpt lat="45.98901218202186" lon="11.115463326680787"><ele>182.0</ele><time>2026-04-19T19:01:00Z</time></trkpt><trkpt lat="45.9892368486925" lon="11.115671102907417"><ele>181.5</ele><time>2026-04-19T19:01:01Z</time></trkpt><trkpt lat="45.98946284368902" lon="11.115878395138623"><ele>181.0</ele><time>2026-04-19T19:01:02Z</time></trkpt><trkpt lat="45.98968952808859" lon="11.116083975236274"><ele>181.0</ele><time>2026-04-19T19:01:03Z</time></trkpt><trkpt lat="45.98991826695051" lon="11.116285561028743"><ele>181.0</ele><time>2026-04-19T19:01:04Z</time></trkpt><trkpt lat="45.990148097189135" lon="11.116483571023807"><ele>181.5</ele><time>2026-04-19T19:01:05Z</time></trkpt><trkpt lat="45.99037959590637" lon="11.11667835604042"><ele>182.0</ele><time>2026-04-19T19:01:06Z</time></trkpt><trkpt lat="45.990612049986645" lon="11.116869121399414"><ele>182.0</ele><time>2026-04-19T19:01:07Z</time></trkpt><trkpt lat="45.990846968913765" lon="11.117055028777475"><ele>182.0</ele><time>2026-04-19T19:01:08Z</time></trkpt><trkpt lat="45.991083390329685" lon="11.117237013938778"><ele>182.0</ele><time>2026-04-19T19:01:09Z</time></trkpt><trkpt lat="45.99132019875894" lon="11.117414948555458"><ele>182.0</ele><time>2026-04-19T19:01:10Z</time></trkpt><trkpt lat="45.99155887653462" lon="11.117588155623121"><ele>181.5</ele><time>2026-04-19T19:01:11Z</time></trkpt><trkpt lat="45.991798959390806" lon="11.117757226060267"><ele>181.0</ele><time>2026-04-19T19:01:12Z</time></trkpt><trkpt lat="45.99203904628273" lon="11.11792272576329"><ele>181.0</ele><time>2026-04-19T19:01:13Z</time></trkpt><trkpt lat="45.9922787135012" lon="11.118084997573316"><ele>181.0</ele><time>2026-04-19T19:01:14Z</time></trkpt><trkpt lat="45.99252157229341" lon="11.118240682075333"><ele>181.0</ele><time>2026-04-19T19:01:15Z</time></trkpt><trkpt lat="45.99276604381962" lon="11.118392943615587"><ele>181.0</ele><time>2026-04-19T19:01:16Z</time></trkpt><trkpt lat="45.99301111828692" lon="11.118540965803557"><ele>181.0</ele><time>2026-04-19T19:01:17Z</time></trkpt><trkpt lat="45.99325645094801" lon="11.118684940000488"><ele>181.0</ele><time>2026-04-19T19:01:18Z</time></trkpt><trkpt lat="45.9935030077748" lon="11.118823368273194"><ele>180.5</ele><time>2026-04-19T19:01:19Z</time></trkpt><trkpt lat="45.9937507629125" lon="11.118958656764098"><ele>180.0</ele><time>2026-04-19T19:01:20Z</time></trkpt><trkpt lat="45.993997670358915" lon="11.119091262886277"><ele>179.5</ele><time>2026-04-19T19:01:21Z</time></trkpt><trkpt lat="45.99424447738429" lon="11.119218729525093"><ele>179.0</ele><time>2026-04-19T19:01:22Z</time></trkpt><trkpt lat="45.99449240223605" lon="11.119337229597097"><ele>179.0</ele><time>2026-04-19T19:01:23Z</time></trkpt><trkpt lat="45.994739954959435" lon="11.11945053649633"><ele>179.0</ele><time>2026-04-19T19:01:24Z</time></trkpt><trkpt lat="45.99498475039892" lon="11.119561147986193"><ele>179.5</ele><time>2026-04-19T19:01:25Z</time></trkpt><trkpt lat="45.99522826070271" lon="11.119664470564365"><ele>180.0</ele><time>2026-04-19T19:01:26Z</time></trkpt><trkpt lat="45.9954690515224" lon="11.119764394232524"><ele>180.0</ele><time>2026-04-19T19:01:27Z</time></trkpt><trkpt lat="45.99570577027709" lon="11.119860295243736"><ele>180.0</ele><time>2026-04-19T19:01:28Z</time></trkpt><trkpt lat="45.99594475764602" lon="11.11994994034191"><ele>180.0</ele><time>2026-04-19T19:01:29Z</time></trkpt><trkpt lat="45.996185837612046" lon="11.120036814657404"><ele>180.0</ele><time>2026-04-19T19:01:30Z</time></trkpt><trkpt lat="45.99642887967544" lon="11.120123316537605"><ele>179.5</ele><time>2026-04-19T19:01:31Z</time></trkpt><trkpt lat="45.99667412608343" lon="11.12020391371518"><ele>179.0</ele><time>2026-04-19T19:01:32Z</time></trkpt><trkpt lat="45.99692213761575" lon="11.120282274902792"><ele>179.0</ele><time>2026-04-19T19:01:33Z</time></trkpt><trkpt lat="45.997174173380124" lon="11.12035788454523"><ele>179.0</ele><time>2026-04-19T19:01:34Z</time></trkpt><trkpt lat="45.997430148006885" lon="11.120428655566295"><ele>179.5</ele><time>2026-04-19T19:01:35Z</time></trkpt><trkpt lat="45.99768876236388" lon="11.120495668510427"><ele>180.0</ele><time>2026-04-19T19:01:36Z</time></trkpt><trkpt lat="45.99795020913905" lon="11.120559267370835"><ele>180.0</ele><time>2026-04-19T19:01:37Z</time></trkpt><trkpt lat="45.998213649458194" lon="11.1206191027406"><ele>180.0</ele><time>2026-04-19T19:01:38Z</time></trkpt><trkpt lat="45.99847920703634" lon="11.120675528938028"><ele>180.5</ele><time>2026-04-19T19:01:39Z</time></trkpt><trkpt lat="45.998746967153984" lon="11.120727218563845"><ele>181.0</ele><time>2026-04-19T19:01:40Z</time></trkpt><trkpt lat="45.99901679221029" lon="11.120775623272293"><ele>180.5</ele><time>2026-04-19T19:01:41Z</time></trkpt><trkpt lat="45.99928848116544" lon="11.120819216348734"><ele>180.0</ele><time>2026-04-19T19:01:42Z</time></trkpt><trkpt lat="45.99956069640732" lon="11.120859778772566"><ele>180.0</ele><time>2026-04-19T19:01:43Z</time></trkpt><trkpt lat="45.99983361383135" lon="11.12089476436488"><ele>180.0</ele><time>2026-04-19T19:01:44Z</time></trkpt><trkpt lat="46.00010581342385" lon="11.120924205589722"><ele>180.0</ele><time>2026-04-19T19:01:44.999Z</time></trkpt><trkpt lat="46.000376171209574" lon="11.120947537292832"><ele>180.0</ele><time>2026-04-19T19:01:45.999Z</time></trkpt><trkpt lat="46.000644203641855" lon="11.12096680191395"><ele>180.0</ele><time>2026-04-19T19:01:46.999Z</time></trkpt><trkpt lat="46.000910180118446" lon="11.120981398041348"><ele>180.0</ele><time>2026-04-19T19:01:47.999Z</time></trkpt><trkpt lat="46.00117534425302" lon="11.120993254168118"><ele>180.0</ele><time>2026-04-19T19:01:48.999Z</time></trkpt><trkpt lat="46.00143920224896" lon="11.1210011987829"><ele>180.0</ele><time>2026-04-19T19:01:49.999Z</time></trkpt><trkpt lat="46.001700271623825" lon="11.121014250889482"><ele>181.0</ele><time>2026-04-19T19:01:50.999Z</time></trkpt><trkpt lat="46.00196289419626" lon="11.121025602086435"><ele>182.0</ele><time>2026-04-19T19:01:51.999Z</time></trkpt><trkpt lat="46.002227125427154" lon="11.121038360442446"><ele>182.0</ele><time>2026-04-19T19:01:52.999Z</time></trkpt><trkpt lat="46.00249270418756" lon="11.121049839185865"><ele>182.0</ele><time>2026-04-19T19:01:53.999Z</time></trkpt><trkpt lat="46.00275748591052" lon="11.121061128194667"><ele>182.0</ele><time>2026-04-19T19:01:54.999Z</time></trkpt><trkpt lat="46.00302244957484" lon="11.121069404509319"><ele>182.0</ele><time>2026-04-19T19:01:55.999Z</time></trkpt><trkpt lat="46.00328774349091" lon="11.121074635727451"><ele>181.5</ele><time>2026-04-19T19:01:56.999Z</time></trkpt><trkpt lat="46.00355355355476" lon="11.121082686062561"><ele>181.0</ele><time>2026-04-19T19:01:57.999Z</time></trkpt><trkpt lat="46.00382020001124" lon="11.121092008852388"><ele>181.0</ele><time>2026-04-19T19:01:58.999Z</time></trkpt><trkpt lat="46.00408602671734" lon="11.121103148516946"><ele>181.0</ele><time>2026-04-19T19:01:59.999Z</time></trkpt><trkpt lat="46.00435268854414" lon="11.12111562303992"><ele>179.5</ele><time>2026-04-19T19:02:00.999Z</time></trkpt><trkpt lat="46.00461910904661" lon="11.121129329303598"><ele>178.0</ele><time>2026-04-19T19:02:01.999Z</time></trkpt><trkpt lat="46.004883185088225" lon="11.121140947374982"><ele>179.0</ele><time>2026-04-19T19:02:02.999Z</time></trkpt><trkpt lat="46.0051455406725" lon="11.121150655643243"><ele>180.0</ele><time>2026-04-19T19:02:04Z</time></trkpt><trkpt lat="46.005405003826255" lon="11.121161069624703"><ele>180.0</ele><time>2026-04-19T19:02:05Z</time></trkpt><trkpt lat="46.00566231980744" lon="11.121170474599817"><ele>180.0</ele><time>2026-04-19T19:02:06Z</time></trkpt><trkpt lat="46.00591696557058" lon="11.121178914644652"><ele>180.5</ele><time>2026-04-19T19:02:07Z</time></trkpt><trkpt lat="46.00617132614661" lon="11.121189338042653"><ele>181.0</ele><time>2026-04-19T19:02:08Z</time></trkpt><trkpt lat="46.00642595501556" lon="11.121199507382988"><ele>181.0</ele><time>2026-04-19T19:02:09Z</time></trkpt><trkpt lat="46.00668059533873" lon="11.121210032437098"><ele>181.0</ele><time>2026-04-19T19:02:10Z</time></trkpt><trkpt lat="46.00693522067296" lon="11.121221637498198"><ele>181.0</ele><time>2026-04-19T19:02:11Z</time></trkpt><trkpt lat="46.00719098684391" lon="11.121233729092667"><ele>181.0</ele><time>2026-04-19T19:02:12Z</time></trkpt><trkpt lat="46.007446836584194" lon="11.121246981380029"><ele>181.5</ele><time>2026-04-19T19:02:13Z</time></trkpt><trkpt lat="46.00770270584397" lon="11.12125838664678"><ele>182.0</ele><time>2026-04-19T19:02:14Z</time></trkpt><trkpt lat="46.00795990921049" lon="11.121269060447759"><ele>182.0</ele><time>2026-04-19T19:02:15Z</time></trkpt><trkpt lat="46.00821756378196" lon="11.121277567737962"><ele>182.0</ele><time>2026-04-19T19:02:16Z</time></trkpt><trkpt lat="46.008474913364836" lon="11.121287503566343"><ele>181.5</ele><time>2026-04-19T19:02:17Z</time></trkpt><trkpt lat="46.00873058904653" lon="11.121297975882927"><ele>181.0</ele><time>2026-04-19T19:02:18Z</time></trkpt><trkpt lat="46.00898356821136" lon="11.121303548899775"><ele>181.0</ele><time>2026-04-19T19:02:19Z</time></trkpt><trkpt lat="46.0092359920321" lon="11.121312222085166"><ele>181.0</ele><time>2026-04-19T19:02:20Z</time></trkpt><trkpt lat="46.009488218863375" lon="11.121322446150065"><ele>181.0</ele><time>2026-04-19T19:02:21Z</time></trkpt><trkpt lat="46.009741211051896" lon="11.121332355535651"><ele>181.0</ele><time>2026-04-19T19:02:22Z</time></trkpt><trkpt lat="46.009994303943145" lon="11.121337182733303"><ele>182.5</ele><time>2026-04-19T19:02:23Z</time></trkpt><trkpt lat="46.01025303561215" lon="11.121354061542744"><ele>184.0</ele><time>2026-04-19T19:02:24Z</time></trkpt><trkpt lat="46.010511356000706" lon="11.121371633423548"><ele>184.0</ele><time>2026-04-19T19:02:25Z</time></trkpt><trkpt lat="46.010770800100936" lon="11.12139348129316"><ele>184.0</ele><time>2026-04-19T19:02:26Z</time></trkpt><trkpt lat="46.01103148170066" lon="11.121416770456783"><ele>184.0</ele><time>2026-04-19T19:02:27Z</time></trkpt><trkpt lat="46.01129377168631" lon="11.121439153937668"><ele>184.0</ele><time>2026-04-19T19:02:28Z</time></trkpt><trkpt lat="46.01155698878391" lon="11.121464268737265"><ele>184.0</ele><time>2026-04-19T19:02:29Z</time></trkpt><trkpt lat="46.01182191284377" lon="11.121484499157079"><ele>184.0</ele><time>2026-04-19T19:02:30Z</time></trkpt><trkpt lat="46.01208757101115" lon="11.121507437687162"><ele>184.0</ele><time>2026-04-19T19:02:31Z</time></trkpt><trkpt lat="46.01235325291484" lon="11.121530502470742"><ele>184.0</ele><time>2026-04-19T19:02:32Z</time></trkpt><trkpt lat="46.01261860584656" lon="11.121555255536581"><ele>183.5</ele><time>2026-04-19T19:02:33Z</time></trkpt><trkpt lat="46.0128829044946" lon="11.121578361883731"><ele>183.0</ele><time>2026-04-19T19:02:34Z</time></trkpt><trkpt lat="46.01314810010643" lon="11.121605020404653"><ele>182.0</ele><time>2026-04-19T19:02:35Z</time></trkpt><trkpt lat="46.01341258854975" lon="11.121628568942192"><ele>181.0</ele><time>2026-04-19T19:02:36Z</time></trkpt><trkpt lat="46.01367701820162" lon="11.121656800659036"><ele>181.0</ele><time>2026-04-19T19:02:37Z</time></trkpt><trkpt lat="46.01394254190588" lon="11.121681782460742"><ele>181.0</ele><time>2026-04-19T19:02:38Z</time></trkpt><trkpt lat="46.01420826648501" lon="11.121708768725368"><ele>181.0</ele><time>2026-04-19T19:02:39Z</time></trkpt><trkpt lat="46.01447407291523" lon="11.121732795261403"><ele>181.0</ele><time>2026-04-19T19:02:40Z</time></trkpt><trkpt lat="46.0147411778472" lon="11.121758107717298"><ele>181.0</ele><time>2026-04-19T19:02:41Z</time></trkpt><trkpt lat="46.015009232407046" lon="11.121784251682008"><ele>181.0</ele><time>2026-04-19T19:02:42Z</time></trkpt><trkpt lat="46.015277260330656" lon="11.121808764633096"><ele>181.0</ele><time>2026-04-19T19:02:43Z</time></trkpt><trkpt lat="46.0155461943479" lon="11.12183100948513"><ele>181.0</ele><time>2026-04-19T19:02:44Z</time></trkpt><trkpt lat="46.01581602901494" lon="11.12185195027497"><ele>181.0</ele><time>2026-04-19T19:02:45Z</time></trkpt><trkpt lat="46.01608659503074" lon="11.121875153832645"><ele>181.0</ele><time>2026-04-19T19:02:46Z</time></trkpt><trkpt lat="46.01635798667881" lon="11.121901303614301"><ele>181.0</ele><time>2026-04-19T19:02:47Z</time></trkpt><trkpt lat="46.016628590888025" lon="11.121928443691434"><ele>181.0</ele><time>2026-04-19T19:02:48Z</time></trkpt><trkpt lat="46.01689952602547" lon="11.121955166461145"><ele>181.5</ele><time>2026-04-19T19:02:49Z</time></trkpt><trkpt lat="46.01716757621189" lon="11.121980884507066"><ele>182.0</ele><time>2026-04-19T19:02:50Z</time></trkpt><trkpt lat="46.017434465242054" lon="11.122001538852318"><ele>181.5</ele><time>2026-04-19T19:02:51Z</time></trkpt><trkpt lat="46.01769906504729" lon="11.122022505916082"><ele>181.0</ele><time>2026-04-19T19:02:52Z</time></trkpt><trkpt lat="46.01796319078929" lon="11.122036891277634"><ele>181.0</ele><time>2026-04-19T19:02:53Z</time></trkpt><trkpt lat="46.01822442617918" lon="11.122047974842646"><ele>181.0</ele><time>2026-04-19T19:02:54Z</time></trkpt><trkpt lat="46.018484375176534" lon="11.122055897792938"><ele>181.5</ele><time>2026-04-19T19:02:55Z</time></trkpt><trkpt lat="46.018744009841974" lon="11.122059214036442"><ele>182.0</ele><time>2026-04-19T19:02:56Z</time></trkpt><trkpt lat="46.01900254203639" lon="11.122057737824635"><ele>182.5</ele><time>2026-04-19T19:02:57Z</time></trkpt><trkpt lat="46.019260832452986" lon="11.122057242873947"><ele>183.0</ele><time>2026-04-19T19:02:58Z</time></trkpt><trkpt lat="46.01951945568187" lon="11.122059319298446"><ele>183.0</ele><time>2026-04-19T19:02:59Z</time></trkpt><trkpt lat="46.019780117853905" lon="11.122061708338357"><ele>183.0</ele><time>2026-04-19T19:03:00Z</time></trkpt><trkpt lat="46.02004361856187" lon="11.122064086257717"><ele>183.5</ele><time>2026-04-19T19:03:01Z</time></trkpt><trkpt lat="46.02030982119417" lon="11.122067198972328"><ele>184.0</ele><time>2026-04-19T19:03:02Z</time></trkpt><trkpt lat="46.02057818329861" lon="11.122068003453013"><ele>183.0</ele><time>2026-04-19T19:03:03Z</time></trkpt><trkpt lat="46.02084768455285" lon="11.12206853851195"><ele>182.0</ele><time>2026-04-19T19:03:04Z</time></trkpt><trkpt lat="46.02111586358813" lon="11.122069342606505"><ele>182.0</ele><time>2026-04-19T19:03:05Z</time></trkpt><trkpt lat="46.021381811715266" lon="11.12207144672475"><ele>182.0</ele><time>2026-04-19T19:03:06Z</time></trkpt><trkpt lat="46.02164588614562" lon="11.1220720092458"><ele>182.5</ele><time>2026-04-19T19:03:07Z</time></trkpt><trkpt lat="46.021908248344126" lon="11.122074698179757"><ele>183.0</ele><time>2026-04-19T19:03:08Z</time></trkpt><trkpt lat="46.02216900409809" lon="11.122075784039481"><ele>183.0</ele><time>2026-04-19T19:03:09Z</time></trkpt><trkpt lat="46.02242851684665" lon="11.122076026024938"><ele>183.0</ele><time>2026-04-19T19:03:10Z</time></trkpt><trkpt lat="46.02268759287268" lon="11.1220805870142"><ele>183.5</ele><time>2026-04-19T19:03:11Z</time></trkpt><trkpt lat="46.02294782657745" lon="11.12208353714137"><ele>184.0</ele><time>2026-04-19T19:03:12Z</time></trkpt><trkpt lat="46.02320825791322" lon="11.122086206162333"><ele>184.0</ele><time>2026-04-19T19:03:13Z</time></trkpt><trkpt lat="46.02347006935454" lon="11.122088300329375"><ele>184.0</ele><time>2026-04-19T19:03:14Z</time></trkpt><trkpt lat="46.023731970280416" lon="11.122089291268123"><ele>184.0</ele><time>2026-04-19T19:03:15Z</time></trkpt><trkpt lat="46.02399397168303" lon="11.122090064208363"><ele>184.0</ele><time>2026-04-19T19:03:16Z</time></trkpt><trkpt lat="46.0242573598021" lon="11.122092081320918"><ele>184.0</ele><time>2026-04-19T19:03:17Z</time></trkpt><trkpt lat="46.0245201800949" lon="11.12208973544967"><ele>184.0</ele><time>2026-04-19T19:03:18Z</time></trkpt><trkpt lat="46.02478080276988" lon="11.122093311349753"><ele>183.5</ele><time>2026-04-19T19:03:19Z</time></trkpt><trkpt lat="46.02503993758173" lon="11.1220917251218"><ele>183.0</ele><time>2026-04-19T19:03:20Z</time></trkpt><trkpt lat="46.02529775099943" lon="11.12209195495259"><ele>183.0</ele><time>2026-04-19T19:03:21Z</time></trkpt><trkpt lat="46.025554740754096" lon="11.122093432628374"><ele>183.0</ele><time>2026-04-19T19:03:22Z</time></trkpt><trkpt lat="46.02581012329313" lon="11.122096509039508"><ele>183.0</ele><time>2026-04-19T19:03:23Z</time></trkpt><trkpt lat="46.02606595414758" lon="11.122101304805003"><ele>183.0</ele><time>2026-04-19T19:03:24Z</time></trkpt><trkpt lat="46.02632255980832" lon="11.122100426663907"><ele>183.0</ele><time>2026-04-19T19:03:25Z</time></trkpt><trkpt lat="46.02658043086366" lon="11.12210152702148"><ele>183.0</ele><time>2026-04-19T19:03:26Z</time></trkpt><trkpt lat="46.026839493318576" lon="11.122100171756786"><ele>183.5</ele><time>2026-04-19T19:03:27Z</time></trkpt><trkpt lat="46.02709848437309" lon="11.12209967741223"><ele>184.0</ele><time>2026-04-19T19:03:28Z</time></trkpt><trkpt lat="46.02735641028561" lon="11.122105536887931"><ele>184.0</ele><time>2026-04-19T19:03:29Z</time></trkpt><trkpt lat="46.02761275915402" lon="11.122108916486122"><ele>184.0</ele><time>2026-04-19T19:03:30Z</time></trkpt><trkpt lat="46.02786245440908" lon="11.122111411573098"><ele>184.0</ele><time>2026-04-19T19:03:31Z</time></trkpt><trkpt lat="46.028106488482116" lon="11.122112068396898"><ele>184.0</ele><time>2026-04-19T19:03:32Z</time></trkpt><trkpt lat="46.02834637558461" lon="11.122108370793969"><ele>184.5</ele><time>2026-04-19T19:03:33Z</time></trkpt><trkpt lat="46.028579694523614" lon="11.122104002804685"><ele>185.0</ele><time>2026-04-19T19:03:34Z</time></trkpt><trkpt lat="46.02880761125158" lon="11.122093099771792"><ele>185.0</ele><time>2026-04-19T19:03:35Z</time></trkpt><trkpt lat="46.029030659627246" lon="11.122077734736743"><ele>185.0</ele><time>2026-04-19T19:03:36Z</time></trkpt><trkpt lat="46.02924798610448" lon="11.12206596800103"><ele>185.0</ele><time>2026-04-19T19:03:37Z</time></trkpt><trkpt lat="46.02946134513571" lon="11.122062350349113"><ele>185.0</ele><time>2026-04-19T19:03:38Z</time></trkpt><trkpt lat="46.02966874961779" lon="11.122069157139862"><ele>185.0</ele><time>2026-04-19T19:03:39Z</time></trkpt><trkpt lat="46.02987569549793" lon="11.12208049734925"><ele>185.0</ele><time>2026-04-19T19:03:40Z</time></trkpt><trkpt lat="46.030083352957504" lon="11.12210120228823"><ele>185.0</ele><time>2026-04-19T19:03:41Z</time></trkpt><trkpt lat="46.0302915477359" lon="11.122122767317485"><ele>185.0</ele><time>2026-04-19T19:03:42Z</time></trkpt><trkpt lat="46.030500280272165" lon="11.122146609455815"><ele>185.0</ele><time>2026-04-19T19:03:43Z</time></trkpt><trkpt lat="46.030708785087306" lon="11.122166442404401"><ele>183.66666666666666</ele><time>2026-04-19T19:03:44Z</time></trkpt><trkpt lat="46.030914554849666" lon="11.122180616415761"><ele>182.33333333333334</ele><time>2026-04-19T19:03:45Z</time></trkpt><trkpt lat="46.03111825023757" lon="11.122187505155905"><ele>181.0</ele><time>2026-04-19T19:03:46Z</time></trkpt><trkpt lat="46.03131854410528" lon="11.12219124185659"><ele>181.0</ele><time>2026-04-19T19:03:47Z</time></trkpt><trkpt lat="46.0315145118365" lon="11.122194344507822"><ele>181.0</ele><time>2026-04-19T19:03:48Z</time></trkpt><trkpt lat="46.03170694823466" lon="11.122195377861242"><ele>181.0</ele><time>2026-04-19T19:03:49Z</time></trkpt><trkpt lat="46.03189320458087" lon="11.12219698370245"><ele>181.0</ele><time>2026-04-19T19:03:50Z</time></trkpt><trkpt lat="46.032077416917524" lon="11.122198773189808"><ele>181.0</ele><time>2026-04-19T19:03:51Z</time></trkpt><trkpt lat="46.03225799308779" lon="11.122199750171985"><ele>181.0</ele><time>2026-04-19T19:03:52Z</time></trkpt><trkpt lat="46.032434198163614" lon="11.122199570748718"><ele>182.33333333333334</ele><time>2026-04-19T19:03:53Z</time></trkpt><trkpt lat="46.0326016953566" lon="11.122198850855826"><ele>183.66666666666666</ele><time>2026-04-19T19:03:54Z</time></trkpt><trkpt lat="46.032760766315924" lon="11.122193410931702"><ele>185.0</ele><time>2026-04-19T19:03:55Z</time></trkpt><trkpt lat="46.032906111478404" lon="11.122177886066131"><ele>185.0</ele><time>2026-04-19T19:03:56Z</time></trkpt><trkpt lat="46.033037549270276" lon="11.122152062003222"><ele>185.0</ele><time>2026-04-19T19:03:57Z</time></trkpt><trkpt lat="46.03315555892204" lon="11.122116377646401"><ele>185.0</ele><time>2026-04-19T19:03:58Z</time></trkpt><trkpt lat="46.03326128570158" lon="11.122072956674485"><ele>185.0</ele><time>2026-04-19T19:03:59Z</time></trkpt><trkpt lat="46.033342978203706" lon="11.122008097972182"><ele>184.83333333333331</ele><time>2026-04-19T19:04:00Z</time></trkpt><trkpt lat="46.033411106928085" lon="11.121971858834"><ele>184.66666666666666</ele><time>2026-04-19T19:04:01Z</time></trkpt><trkpt lat="46.033488152699164" lon="11.12199396872521"><ele>184.5</ele><time>2026-04-19T19:04:02Z</time></trkpt><trkpt lat="46.03359603465779" lon="11.12198090350898"><ele>184.33333333333334</ele><time>2026-04-19T19:04:04Z</time></trkpt><trkpt lat="46.03367610175218" lon="11.121980537672032"><ele>184.16666666666669</ele><time>2026-04-19T19:04:06Z</time></trkpt><trkpt lat="46.03374144218099" lon="11.12198131939466"><ele>184.0</ele><time>2026-04-19T19:04:08Z</time></trkpt><trkpt lat="46.03380445322022" lon="11.121980575250358"><ele>184.0</ele><time>2026-04-19T19:04:11Z</time></trkpt><trkpt lat="46.03388343630354" lon="11.12198618551366"><ele>184.0</ele><time>2026-04-19T19:04:38Z</time></trkpt><trkpt lat="46.033991790987095" lon="11.121953899458067"><ele>184.0</ele><time>2026-04-19T19:04:40Z</time></trkpt><trkpt lat="46.03406304253366" lon="11.12194800454257"><ele>184.0</ele><time>2026-04-19T19:04:41Z</time></trkpt><trkpt lat="46.03414149153998" lon="11.121941514151159"><ele>184.0</ele><time>2026-04-19T19:04:42Z</time></trkpt><trkpt lat="46.03423148049819" lon="11.121933319227816"><ele>184.0</ele><time>2026-04-19T19:04:43Z</time></trkpt><trkpt lat="46.03432729043476" lon="11.121924505361779"><ele>183.79999999999998</ele><time>2026-04-19T19:04:44Z</time></trkpt><trkpt lat="46.03440879649456" lon="11.121914163673537"><ele>183.6</ele><time>2026-04-19T19:04:45Z</time></trkpt><trkpt lat="46.03451233653008" lon="11.121899384819057"><ele>183.4</ele><time>2026-04-19T19:04:47Z</time></trkpt><trkpt lat="46.03458364131836" lon="11.121889135273864"><ele>183.2</ele><time>2026-04-19T19:05:07Z</time></trkpt><trkpt lat="46.034693199864414" lon="11.12187797535536"><ele>183.0</ele><time>2026-04-19T19:05:09Z</time></trkpt><trkpt lat="46.03480579845903" lon="11.121852037183919"><ele>183.0</ele><time>2026-04-19T19:05:11Z</time></trkpt><trkpt lat="46.03492963991469" lon="11.121898127776278"><ele>183.0</ele><time>2026-04-19T19:05:13Z</time></trkpt><trkpt lat="46.034984583907146" lon="11.121961168589145"><ele>183.0</ele><time>2026-04-19T19:05:14Z</time></trkpt><trkpt lat="46.03502780771903" lon="11.122050929832461"><ele>183.0</ele><time>2026-04-19T19:05:15Z</time></trkpt><trkpt lat="46.03505158252586" lon="11.122164228610032"><ele>183.0</ele><time>2026-04-19T19:05:16Z</time></trkpt><trkpt lat="46.03505052021695" lon="11.122292082997907"><ele>183.0</ele><time>2026-04-19T19:05:17Z</time></trkpt><trkpt lat="46.03502665562002" lon="11.12242251250454"><ele>183.0</ele><time>2026-04-19T19:05:18Z</time></trkpt><trkpt lat="46.03498615811921" lon="11.122561423346866"><ele>183.0</ele><time>2026-04-19T19:05:19Z</time></trkpt><trkpt lat="46.034948145974674" lon="11.122714817355424"><ele>183.0</ele><time>2026-04-19T19:05:20Z</time></trkpt><trkpt lat="46.03491183981744" lon="11.12288272616679"><ele>183.0</ele><time>2026-04-19T19:05:21Z</time></trkpt><trkpt lat="46.03487831317959" lon="11.12304476910448"><ele>183.0</ele><time>2026-04-19T19:05:22Z</time></trkpt><trkpt lat="46.03484504140602" lon="11.123205197345913"><ele>183.0</ele><time>2026-04-19T19:05:23Z</time></trkpt><trkpt lat="46.03481335657672" lon="11.12336866238597"><ele>183.0</ele><time>2026-04-19T19:05:24Z</time></trkpt><trkpt lat="46.03478105068437" lon="11.12353645226593"><ele>183.0</ele><time>2026-04-19T19:05:25Z</time></trkpt><trkpt lat="46.034752193414775" lon="11.123711788705329"><ele>183.25</ele><time>2026-04-19T19:05:26Z</time></trkpt><trkpt lat="46.03472451776572" lon="11.123891097576845"><ele>183.5</ele><time>2026-04-19T19:05:27Z</time></trkpt><trkpt lat="46.034701655160625" lon="11.124065284747589"><ele>183.75</ele><time>2026-04-19T19:05:28Z</time></trkpt><trkpt lat="46.03468890108599" lon="11.124214680623563"><ele>184.0</ele><time>2026-04-19T19:05:29Z</time></trkpt><trkpt lat="46.03468094991601" lon="11.124362879461817"><ele>184.0</ele><time>2026-04-19T19:05:30Z</time></trkpt><trkpt lat="46.03467888903062" lon="11.124504804128968"><ele>184.0</ele><time>2026-04-19T19:05:31Z</time></trkpt><trkpt lat="46.0346765124352" lon="11.124640879524073"><ele>184.0</ele><time>2026-04-19T19:05:32Z</time></trkpt><trkpt lat="46.03467703268576" lon="11.124777361066025"><ele>184.0</ele><time>2026-04-19T19:05:33Z</time></trkpt><trkpt lat="46.03467765264462" lon="11.12490496798033"><ele>184.0</ele><time>2026-04-19T19:05:34Z</time></trkpt><trkpt lat="46.03467224137163" lon="11.12501679908192"><ele>184.33333333333334</ele><time>2026-04-19T19:05:35Z</time></trkpt><trkpt lat="46.034641440477316" lon="11.125158330054969"><ele>184.66666666666669</ele><time>2026-04-19T19:05:37Z</time></trkpt><trkpt lat="46.034603169779075" lon="11.12524530021443"><ele>185.0</ele><time>2026-04-19T19:05:40Z</time></trkpt><trkpt lat="46.034532103799435" lon="11.125336197253036"><ele>185.33333333333334</ele><time>2026-04-19T19:05:42Z</time></trkpt><trkpt lat="46.03446775148425" lon="11.125383404964076"><ele>185.66666666666666</ele><time>2026-04-19T19:05:43Z</time></trkpt><trkpt lat="46.034391256500086" lon="11.12543111873201"><ele>186.0</ele><time>2026-04-19T19:05:44Z</time></trkpt><trkpt lat="46.034302552359556" lon="11.125487659411005"><ele>186.0</ele><time>2026-04-19T19:05:45Z</time></trkpt><trkpt lat="46.03420798882445" lon="11.125555487647855"><ele>186.0</ele><time>2026-04-19T19:05:46Z</time></trkpt><trkpt lat="46.03412259624176" lon="11.125643305003909"><ele>186.0</ele><time>2026-04-19T19:05:47Z</time></trkpt><trkpt lat="46.03405902865967" lon="11.125757357333718"><ele>186.0</ele><time>2026-04-19T19:05:48Z</time></trkpt><trkpt lat="46.034021257548176" lon="11.125887644534117"><ele>186.0</ele><time>2026-04-19T19:05:49Z</time></trkpt><trkpt lat="46.03400885311462" lon="11.126028597201023"><ele>185.8</ele><time>2026-04-19T19:05:50Z</time></trkpt><trkpt lat="46.03402413763939" lon="11.126167417775308"><ele>185.60000000000002</ele><time>2026-04-19T19:05:51Z</time></trkpt><trkpt lat="46.03406334702056" lon="11.12629587499037"><ele>185.4</ele><time>2026-04-19T19:05:52Z</time></trkpt><trkpt lat="46.03412789752347" lon="11.126404532823011"><ele>185.2</ele><time>2026-04-19T19:05:53Z</time></trkpt><trkpt lat="46.0342147219712" lon="11.12648237640075"><ele>185.0</ele><time>2026-04-19T19:05:54Z</time></trkpt><trkpt lat="46.034316573627805" lon="11.126507940504625"><ele>185.0</ele><time>2026-04-19T19:05:55Z</time></trkpt><trkpt lat="46.0344218033914" lon="11.126496616857892"><ele>185.0</ele><time>2026-04-19T19:05:56Z</time></trkpt><trkpt lat="46.034524980569515" lon="11.126452861188161"><ele>185.0</ele><time>2026-04-19T19:05:57Z</time></trkpt><trkpt lat="46.03463396897334" lon="11.12639574494889"><ele>185.0</ele><time>2026-04-19T19:05:58Z</time></trkpt><trkpt lat="46.03475065840889" lon="11.12633764664636"><ele>185.0</ele><time>2026-04-19T19:05:59Z</time></trkpt><trkpt lat="46.03486927261977" lon="11.126269658871033"><ele>185.0</ele><time>2026-04-19T19:06:00Z</time></trkpt><trkpt lat="46.034984357637825" lon="11.126180944487912"><ele>185.0</ele><time>2026-04-19T19:06:01Z</time></trkpt><trkpt lat="46.03508805005317" lon="11.126051741567833"><ele>185.0</ele><time>2026-04-19T19:06:02Z</time></trkpt><trkpt lat="46.0351970321231" lon="11.125930733388994"><ele>185.0</ele><time>2026-04-19T19:06:03Z</time></trkpt><trkpt lat="46.03532232339124" lon="11.125848942176948"><ele>185.0</ele><time>2026-04-19T19:06:04Z</time></trkpt><trkpt lat="46.035456743191986" lon="11.125802165058753"><ele>185.0</ele><time>2026-04-19T19:06:05Z</time></trkpt><trkpt lat="46.03559918006823" lon="11.125753359480623"><ele>185.0</ele><time>2026-04-19T19:06:06Z</time></trkpt><trkpt lat="46.03574917709131" lon="11.125678747570571"><ele>185.33333333333331</ele><time>2026-04-19T19:06:07Z</time></trkpt><trkpt lat="46.03589626285965" lon="11.125592652020364"><ele>185.66666666666666</ele><time>2026-04-19T19:06:08Z</time></trkpt><trkpt lat="46.03604414965939" lon="11.125491079228818"><ele>186.0</ele><time>2026-04-19T19:06:09Z</time></trkpt><trkpt lat="46.03619762575155" lon="11.125386847999438"><ele>186.0</ele><time>2026-04-19T19:06:10Z</time></trkpt><trkpt lat="46.03634692998827" lon="11.125290322660986"><ele>186.0</ele><time>2026-04-19T19:06:11Z</time></trkpt><trkpt lat="46.036493275609295" lon="11.125196357232932"><ele>186.0</ele><time>2026-04-19T19:06:12Z</time></trkpt><trkpt lat="46.03664238055915" lon="11.125093022749141"><ele>185.66666666666666</ele><time>2026-04-19T19:06:13Z</time></trkpt><trkpt lat="46.03679139685116" lon="11.124974021584459"><ele>185.33333333333331</ele><time>2026-04-19T19:06:14Z</time></trkpt><trkpt lat="46.03694390775245" lon="11.124848381927062"><ele>185.0</ele><time>2026-04-19T19:06:15Z</time></trkpt><trkpt lat="46.03710019466336" lon="11.124720183394501"><ele>185.0</ele><time>2026-04-19T19:06:16Z</time></trkpt><trkpt lat="46.037256877356214" lon="11.124581554960727"><ele>185.0</ele><time>2026-04-19T19:06:17Z</time></trkpt><trkpt lat="46.0374166398911" lon="11.124436103060049"><ele>185.0</ele><time>2026-04-19T19:06:18Z</time></trkpt><trkpt lat="46.03757420766032" lon="11.124287373135072"><ele>185.0</ele><time>2026-04-19T19:06:19Z</time></trkpt><trkpt lat="46.0377328671672" lon="11.124135568712083"><ele>185.0</ele><time>2026-04-19T19:06:20Z</time></trkpt><trkpt lat="46.03789226102219" lon="11.123981767483766"><ele>185.0</ele><time>2026-04-19T19:06:21Z</time></trkpt><trkpt lat="46.0380541971265" lon="11.123828321360202"><ele>184.66666666666666</ele><time>2026-04-19T19:06:22Z</time></trkpt><trkpt lat="46.03822141438684" lon="11.123677254856906"><ele>184.33333333333334</ele><time>2026-04-19T19:06:23Z</time></trkpt><trkpt lat="46.03838931229006" lon="11.123524885762066"><ele>184.0</ele><time>2026-04-19T19:06:24Z</time></trkpt><trkpt lat="46.03855683357746" lon="11.123372956466268"><ele>183.0</ele><time>2026-04-19T19:06:25Z</time></trkpt><trkpt lat="46.03872435518489" lon="11.123223085315855"><ele>182.0</ele><time>2026-04-19T19:06:26Z</time></trkpt><trkpt lat="46.03889412062158" lon="11.123073492521987"><ele>181.0</ele><time>2026-04-19T19:06:27Z</time></trkpt><trkpt lat="46.03906514606728" lon="11.122919786204948"><ele>182.0</ele><time>2026-04-19T19:06:28Z</time></trkpt><trkpt lat="46.03923641774213" lon="11.122763126842763"><ele>183.0</ele><time>2026-04-19T19:06:29Z</time></trkpt><trkpt lat="46.03940845093693" lon="11.122602810086674"><ele>184.0</ele><time>2026-04-19T19:06:30Z</time></trkpt><trkpt lat="46.03957708047887" lon="11.122433583663204"><ele>184.33333333333334</ele><time>2026-04-19T19:06:31Z</time></trkpt><trkpt lat="46.03974258152489" lon="11.12225737255736"><ele>184.66666666666666</ele><time>2026-04-19T19:06:32Z</time></trkpt><trkpt lat="46.03990600017074" lon="11.122075803102685"><ele>185.0</ele><time>2026-04-19T19:06:33Z</time></trkpt><trkpt lat="46.04006820358597" lon="11.121892885929904"><ele>185.0</ele><time>2026-04-19T19:06:34Z</time></trkpt><trkpt lat="46.04022943559373" lon="11.121712528514923"><ele>185.0</ele><time>2026-04-19T19:06:35Z</time></trkpt><trkpt lat="46.04038273400141" lon="11.121542571788062"><ele>185.0</ele><time>2026-04-19T19:06:36Z</time></trkpt><trkpt lat="46.0405258233457" lon="11.121380312618323"><ele>184.66666666666666</ele><time>2026-04-19T19:06:37Z</time></trkpt><trkpt lat="46.04066324351952" lon="11.121229757207502"><ele>184.33333333333334</ele><time>2026-04-19T19:06:38Z</time></trkpt><trkpt lat="46.040790619657024" lon="11.121086623928253"><ele>184.0</ele><time>2026-04-19T19:06:39Z</time></trkpt><trkpt lat="46.040911990205466" lon="11.120952676461846"><ele>184.0</ele><time>2026-04-19T19:06:40Z</time></trkpt><trkpt lat="46.04103205788849" lon="11.120819823719348"><ele>184.0</ele><time>2026-04-19T19:06:41Z</time></trkpt><trkpt lat="46.04114812194212" lon="11.12069298205824"><ele>184.0</ele><time>2026-04-19T19:06:42Z</time></trkpt><trkpt lat="46.041258920170016" lon="11.120571532084439"><ele>184.0</ele><time>2026-04-19T19:06:43Z</time></trkpt><trkpt lat="46.041371099047474" lon="11.120447405999691"><ele>184.5</ele><time>2026-04-19T19:06:44Z</time></trkpt><trkpt lat="46.04148840732189" lon="11.120317422062103"><ele>185.0</ele><time>2026-04-19T19:06:45Z</time></trkpt><trkpt lat="46.041605924354144" lon="11.120185495741913"><ele>185.5</ele><time>2026-04-19T19:06:46Z</time></trkpt><trkpt lat="46.041723144397615" lon="11.12005338695883"><ele>186.0</ele><time>2026-04-19T19:06:47Z</time></trkpt><trkpt lat="46.04183537509857" lon="11.119924924459209"><ele>187.0</ele><time>2026-04-19T19:06:48Z</time></trkpt><trkpt lat="46.04194650015566" lon="11.119798336407554"><ele>188.0</ele><time>2026-04-19T19:06:49Z</time></trkpt><trkpt lat="46.04205527046682" lon="11.119679291173632"><ele>189.0</ele><time>2026-04-19T19:06:50Z</time></trkpt><trkpt lat="46.04215468482488" lon="11.119570686253871"><ele>190.0</ele><time>2026-04-19T19:06:51Z</time></trkpt><trkpt lat="46.042249626905395" lon="11.119465723102088"><ele>190.0</ele><time>2026-04-19T19:06:52Z</time></trkpt><trkpt lat="46.04234611332488" lon="11.119358799665683"><ele>190.0</ele><time>2026-04-19T19:06:53Z</time></trkpt><trkpt lat="46.04244710505474" lon="11.119245928471505"><ele>190.0</ele><time>2026-04-19T19:06:54Z</time></trkpt><trkpt lat="46.04255124808083" lon="11.119131448655246"><ele>190.0</ele><time>2026-04-19T19:06:55Z</time></trkpt><trkpt lat="46.042654958457526" lon="11.119015354162014"><ele>189.25</ele><time>2026-04-19T19:06:56Z</time></trkpt><trkpt lat="46.04276046695948" lon="11.118898450618339"><ele>188.5</ele><time>2026-04-19T19:06:57Z</time></trkpt><trkpt lat="46.04286631977664" lon="11.118780679943159"><ele>187.75</ele><time>2026-04-19T19:06:58Z</time></trkpt><trkpt lat="46.04297267450869" lon="11.118659788494716"><ele>187.0</ele><time>2026-04-19T19:06:59Z</time></trkpt><trkpt lat="46.04308113546685" lon="11.118537438851536"><ele>187.0</ele><time>2026-04-19T19:07:00Z</time></trkpt><trkpt lat="46.04319236869452" lon="11.118415812154101"><ele>187.0</ele><time>2026-04-19T19:07:01Z</time></trkpt><trkpt lat="46.043303214246954" lon="11.118293706408258"><ele>187.0</ele><time>2026-04-19T19:07:02Z</time></trkpt><trkpt lat="46.04341172567475" lon="11.118172037426538"><ele>187.0</ele><time>2026-04-19T19:07:03Z</time></trkpt><trkpt lat="46.04351527054317" lon="11.118054684889618"><ele>187.25</ele><time>2026-04-19T19:07:04Z</time></trkpt><trkpt lat="46.04361478707697" lon="11.117942779992477"><ele>187.5</ele><time>2026-04-19T19:07:05Z</time></trkpt><trkpt lat="46.043711223483335" lon="11.117834761788307"><ele>187.75</ele><time>2026-04-19T19:07:06Z</time></trkpt><trkpt lat="46.043811529822875" lon="11.117725403460614"><ele>188.0</ele><time>2026-04-19T19:07:07Z</time></trkpt><trkpt lat="46.04391704132252" lon="11.117614350965244"><ele>188.0</ele><time>2026-04-19T19:07:08Z</time></trkpt><trkpt lat="46.04402968289867" lon="11.117506144064402"><ele>188.0</ele><time>2026-04-19T19:07:09Z</time></trkpt><trkpt lat="46.04414877548249" lon="11.11740177627705"><ele>188.0</ele><time>2026-04-19T19:07:10Z</time></trkpt><trkpt lat="46.04427510678568" lon="11.117303373346811"><ele>188.0</ele><time>2026-04-19T19:07:11Z</time></trkpt><trkpt lat="46.044404182092215" lon="11.11721530370905"><ele>188.75</ele><time>2026-04-19T19:07:12Z</time></trkpt><trkpt lat="46.04453497054699" lon="11.11714241368647"><ele>189.5</ele><time>2026-04-19T19:07:13Z</time></trkpt><trkpt lat="46.044667538668115" lon="11.11708266732367"><ele>190.25</ele><time>2026-04-19T19:07:14Z</time></trkpt><trkpt lat="46.044801714329054" lon="11.117033931787375"><ele>191.0</ele><time>2026-04-19T19:07:15Z</time></trkpt><trkpt lat="46.04493306291471" lon="11.116992006302471"><ele>190.5</ele><time>2026-04-19T19:07:16Z</time></trkpt><trkpt lat="46.04506248251962" lon="11.116952195709482"><ele>190.0</ele><time>2026-04-19T19:07:17Z</time></trkpt><trkpt lat="46.045191205371864" lon="11.116911353797224"><ele>189.5</ele><time>2026-04-19T19:07:18Z</time></trkpt><trkpt lat="46.045326592830946" lon="11.116863495376139"><ele>189.0</ele><time>2026-04-19T19:07:19Z</time></trkpt><trkpt lat="46.04546676859761" lon="11.116802403985998"><ele>189.0</ele><time>2026-04-19T19:07:20Z</time></trkpt><trkpt lat="46.04560802969218" lon="11.116724227256205"><ele>189.0</ele><time>2026-04-19T19:07:21Z</time></trkpt><trkpt lat="46.04575144579218" lon="11.116632450980122"><ele>189.0</ele><time>2026-04-19T19:07:22Z</time></trkpt><trkpt lat="46.04589526567556" lon="11.116522295573747"><ele>188.0</ele><time>2026-04-19T19:07:23Z</time></trkpt><trkpt lat="46.046037086470925" lon="11.11640262108166"><ele>187.0</ele><time>2026-04-19T19:07:24Z</time></trkpt><trkpt lat="46.04617003396919" lon="11.116274464479877"><ele>186.0</ele><time>2026-04-19T19:07:25Z</time></trkpt><trkpt lat="46.04629775303154" lon="11.11614416340263"><ele>186.0</ele><time>2026-04-19T19:07:26Z</time></trkpt><trkpt lat="46.04641984092597" lon="11.116014188071304"><ele>186.0</ele><time>2026-04-19T19:07:27Z</time></trkpt><trkpt lat="46.04652906270621" lon="11.11589445676747"><ele>186.0</ele><time>2026-04-19T19:07:28Z</time></trkpt><trkpt lat="46.04662737476198" lon="11.115779574835367"><ele>186.0</ele><time>2026-04-19T19:07:29Z</time></trkpt><trkpt lat="46.0467129759993" lon="11.115667247211121"><ele>186.20000000000002</ele><time>2026-04-19T19:07:30Z</time></trkpt><trkpt lat="46.04678652996122" lon="11.115547275107453"><ele>186.4</ele><time>2026-04-19T19:07:31Z</time></trkpt><trkpt lat="46.046850054109164" lon="11.115422299338546"><ele>186.6</ele><time>2026-04-19T19:07:32Z</time></trkpt><trkpt lat="46.04690667836694" lon="11.115293659168465"><ele>186.8</ele><time>2026-04-19T19:07:33Z</time></trkpt><trkpt lat="46.046955661025585" lon="11.11515263736159"><ele>187.0</ele><time>2026-04-19T19:07:34Z</time></trkpt><trkpt lat="46.04699908419547" lon="11.114996380203678"><ele>187.25</ele><time>2026-04-19T19:07:35Z</time></trkpt><trkpt lat="46.04704032981332" lon="11.11483122831085"><ele>187.5</ele><time>2026-04-19T19:07:36Z</time></trkpt><trkpt lat="46.047080149852825" lon="11.114660825545686"><ele>187.75</ele><time>2026-04-19T19:07:37Z</time></trkpt><trkpt lat="46.047124662332095" lon="11.114484519044984"><ele>188.0</ele><time>2026-04-19T19:07:38Z</time></trkpt><trkpt lat="46.04717618065766" lon="11.114301796114214"><ele>188.0</ele><time>2026-04-19T19:07:39Z</time></trkpt><trkpt lat="46.04724277348897" lon="11.114114078233507"><ele>188.0</ele><time>2026-04-19T19:07:40Z</time></trkpt><trkpt lat="46.04732600522233" lon="11.113942202720814"><ele>188.0</ele><time>2026-04-19T19:07:41Z</time></trkpt><trkpt lat="46.047421833133725" lon="11.113795454546468"><ele>188.0</ele><time>2026-04-19T19:07:42Z</time></trkpt><trkpt lat="46.047536724557695" lon="11.11366607040178"><ele>188.0</ele><time>2026-04-19T19:07:43Z</time></trkpt><trkpt lat="46.047670387908624" lon="11.113541998285294"><ele>188.0</ele><time>2026-04-19T19:07:44Z</time></trkpt><trkpt lat="46.04782025764292" lon="11.113417622248907"><ele>188.0</ele><time>2026-04-19T19:07:45Z</time></trkpt><trkpt lat="46.04798068173396" lon="11.1132935637891"><ele>188.33333333333331</ele><time>2026-04-19T19:07:46Z</time></trkpt><trkpt lat="46.048152906493584" lon="11.113169085125344"><ele>188.66666666666666</ele><time>2026-04-19T19:07:47Z</time></trkpt><trkpt lat="46.048333411858145" lon="11.113044168122011"><ele>189.0</ele><time>2026-04-19T19:07:48Z</time></trkpt><trkpt lat="46.04851227131845" lon="11.112925818551982"><ele>189.0</ele><time>2026-04-19T19:07:49Z</time></trkpt><trkpt lat="46.04869329934474" lon="11.112815319160196"><ele>189.0</ele><time>2026-04-19T19:07:50Z</time></trkpt><trkpt lat="46.04887925074902" lon="11.112717125658651"><ele>189.0</ele><time>2026-04-19T19:07:51Z</time></trkpt><trkpt lat="46.04907169436937" lon="11.112634265337663"><ele>189.33333333333334</ele><time>2026-04-19T19:07:52Z</time></trkpt><trkpt lat="46.04927159421376" lon="11.112577347193795"><ele>189.66666666666669</ele><time>2026-04-19T19:07:53Z</time></trkpt><trkpt lat="46.04947754144733" lon="11.112546933790071"><ele>190.0</ele><time>2026-04-19T19:07:54Z</time></trkpt><trkpt lat="46.04968457127359" lon="11.112553443757172"><ele>190.0</ele><time>2026-04-19T19:07:55Z</time></trkpt><trkpt lat="46.04988929194665" lon="11.112597587198694"><ele>190.0</ele><time>2026-04-19T19:07:56Z</time></trkpt><trkpt lat="46.05008273695367" lon="11.112674477752954"><ele>190.0</ele><time>2026-04-19T19:07:57Z</time></trkpt><trkpt lat="46.05026776289211" lon="11.112758377687705"><ele>189.0</ele><time>2026-04-19T19:07:58Z</time></trkpt><trkpt lat="46.050448034753366" lon="11.112840981812358"><ele>188.0</ele><time>2026-04-19T19:07:59Z</time></trkpt><trkpt lat="46.050627442682206" lon="11.112918465765542"><ele>187.0</ele><time>2026-04-19T19:08:00Z</time></trkpt><trkpt lat="46.05080894609352" lon="11.112979192117683"><ele>186.66666666666669</ele><time>2026-04-19T19:08:01Z</time></trkpt><trkpt lat="46.05099032993638" lon="11.113016992430062"><ele>186.33333333333334</ele><time>2026-04-19T19:08:02Z</time></trkpt><trkpt lat="46.05117288035525" lon="11.113033159579501"><ele>186.0</ele><time>2026-04-19T19:08:03Z</time></trkpt><trkpt lat="46.05135458496221" lon="11.113024335268605"><ele>186.0</ele><time>2026-04-19T19:08:04Z</time></trkpt><trkpt lat="46.05153935581921" lon="11.112992627550055"><ele>186.0</ele><time>2026-04-19T19:08:05Z</time></trkpt><trkpt lat="46.05171947801532" lon="11.112934582732445"><ele>186.0</ele><time>2026-04-19T19:08:06Z</time></trkpt><trkpt lat="46.05189555787699" lon="11.11284727310147"><ele>186.66666666666666</ele><time>2026-04-19T19:08:07Z</time></trkpt><trkpt lat="46.05206747756168" lon="11.112737215545256"><ele>187.33333333333331</ele><time>2026-04-19T19:08:08Z</time></trkpt><trkpt lat="46.05223129001445" lon="11.112606065702265"><ele>188.0</ele><time>2026-04-19T19:08:09Z</time></trkpt><trkpt lat="46.05238236510083" lon="11.11244619215481"><ele>188.0</ele><time>2026-04-19T19:08:10Z</time></trkpt><trkpt lat="46.0525218975538" lon="11.112264665781662"><ele>188.0</ele><time>2026-04-19T19:08:11Z</time></trkpt><trkpt lat="46.052652678512416" lon="11.112062073393158"><ele>188.0</ele><time>2026-04-19T19:08:12Z</time></trkpt><trkpt lat="46.05278299926726" lon="11.11185451364539"><ele>188.0</ele><time>2026-04-19T19:08:13Z</time></trkpt><trkpt lat="46.052917157338655" lon="11.111646338592898"><ele>188.0</ele><time>2026-04-19T19:08:14Z</time></trkpt><trkpt lat="46.05305314575213" lon="11.111434843501447"><ele>188.0</ele><time>2026-04-19T19:08:15Z</time></trkpt><trkpt lat="46.05319152118809" lon="11.111219298990513"><ele>188.33333333333331</ele><time>2026-04-19T19:08:16Z</time></trkpt><trkpt lat="46.05333162426897" lon="11.111000126816924"><ele>188.66666666666666</ele><time>2026-04-19T19:08:17Z</time></trkpt><trkpt lat="46.05347259415952" lon="11.110780973181447"><ele>189.0</ele><time>2026-04-19T19:08:18Z</time></trkpt><trkpt lat="46.05361410462975" lon="11.11056166736666"><ele>189.0</ele><time>2026-04-19T19:08:19Z</time></trkpt><trkpt lat="46.05375314179464" lon="11.11034531458838"><ele>189.0</ele><time>2026-04-19T19:08:20Z</time></trkpt><trkpt lat="46.053891492369594" lon="11.110134222568687"><ele>189.0</ele><time>2026-04-19T19:08:21Z</time></trkpt><trkpt lat="46.054030618555835" lon="11.109932300669183"><ele>188.33333333333334</ele><time>2026-04-19T19:08:22Z</time></trkpt><trkpt lat="46.0541796501744" lon="11.10975338719763"><ele>187.66666666666669</ele><time>2026-04-19T19:08:23Z</time></trkpt><trkpt lat="46.05434421354122" lon="11.10959790587846"><ele>187.0</ele><time>2026-04-19T19:08:24Z</time></trkpt><trkpt lat="46.05452369018043" lon="11.10946909981602"><ele>187.0</ele><time>2026-04-19T19:08:25Z</time></trkpt><trkpt lat="46.05471474021677" lon="11.109358607024758"><ele>187.0</ele><time>2026-04-19T19:08:26Z</time></trkpt><trkpt lat="46.05491427699848" lon="11.109281820085013"><ele>187.0</ele><time>2026-04-19T19:08:27Z</time></trkpt><trkpt lat="46.05512239778322" lon="11.109235344137787"><ele>187.0</ele><time>2026-04-19T19:08:28Z</time></trkpt><trkpt lat="46.05533483625542" lon="11.109214071209687"><ele>187.0</ele><time>2026-04-19T19:08:29Z</time></trkpt><trkpt lat="46.05555080412187" lon="11.109215208916359"><ele>187.0</ele><time>2026-04-19T19:08:30Z</time></trkpt><trkpt lat="46.05576933577157" lon="11.10923153832416"><ele>187.33333333333334</ele><time>2026-04-19T19:08:31Z</time></trkpt><trkpt lat="46.05598952860463" lon="11.109263061744073"><ele>187.66666666666666</ele><time>2026-04-19T19:08:32Z</time></trkpt><trkpt lat="46.05620927420272" lon="11.109309579455704"><ele>188.0</ele><time>2026-04-19T19:08:33Z</time></trkpt><trkpt lat="46.056429467194064" lon="11.109364317473856"><ele>189.0</ele><time>2026-04-19T19:08:34Z</time></trkpt><trkpt lat="46.0566483205724" lon="11.109419586195028"><ele>190.0</ele><time>2026-04-19T19:08:35Z</time></trkpt><trkpt lat="46.05686716905421" lon="11.109479006882347"><ele>191.0</ele><time>2026-04-19T19:08:36Z</time></trkpt><trkpt lat="46.05708621713927" lon="11.109538352444709"><ele>191.0</ele><time>2026-04-19T19:08:37Z</time></trkpt><trkpt lat="46.057307410176236" lon="11.109597096869553"><ele>191.0</ele><time>2026-04-19T19:08:38Z</time></trkpt><trkpt lat="46.05753019559322" lon="11.109654879370062"><ele>189.5</ele><time>2026-04-19T19:08:39Z</time></trkpt><trkpt lat="46.05775360620961" lon="11.109712751912209"><ele>188.0</ele><time>2026-04-19T19:08:40Z</time></trkpt><trkpt lat="46.05797716309254" lon="11.109771283685374"><ele>188.0</ele><time>2026-04-19T19:08:41Z</time></trkpt><trkpt lat="46.058200692828265" lon="11.109830846035278"><ele>188.0</ele><time>2026-04-19T19:08:42Z</time></trkpt><trkpt lat="46.058424004521" lon="11.109892654980566"><ele>189.0</ele><time>2026-04-19T19:08:43Z</time></trkpt><trkpt lat="46.05864714038169" lon="11.109950492928242"><ele>190.0</ele><time>2026-04-19T19:08:44Z</time></trkpt><trkpt lat="46.0588709075129" lon="11.11000850420161"><ele>190.0</ele><time>2026-04-19T19:08:45Z</time></trkpt><trkpt lat="46.059094491341504" lon="11.110068109633"><ele>190.0</ele><time>2026-04-19T19:08:46Z</time></trkpt><trkpt lat="46.05931306556192" lon="11.110126286385322"><ele>190.0</ele><time>2026-04-19T19:08:47Z</time></trkpt><trkpt lat="46.059527133704" lon="11.110185743911646"><ele>190.0</ele><time>2026-04-19T19:08:48Z</time></trkpt><trkpt lat="46.05974036586172" lon="11.110243447089585"><ele>190.0</ele><time>2026-04-19T19:08:49Z</time></trkpt><trkpt lat="46.059956384260715" lon="11.110301590074915"><ele>191.33333333333334</ele><time>2026-04-19T19:08:50Z</time></trkpt><trkpt lat="46.060167953141125" lon="11.11035783960933"><ele>192.66666666666669</ele><time>2026-04-19T19:08:51Z</time></trkpt><trkpt lat="46.06037499423933" lon="11.1104135400894"><ele>194.0</ele><time>2026-04-19T19:08:52Z</time></trkpt><trkpt lat="46.06058224708204" lon="11.110468201334694"><ele>194.33333333333334</ele><time>2026-04-19T19:08:53Z</time></trkpt><trkpt lat="46.060791629310806" lon="11.110522834231755"><ele>194.66666666666669</ele><time>2026-04-19T19:08:54Z</time></trkpt><trkpt lat="46.06100226497327" lon="11.1105809066282"><ele>195.0</ele><time>2026-04-19T19:08:55Z</time></trkpt><trkpt lat="46.06121439174102" lon="11.11063935467208"><ele>195.0</ele><time>2026-04-19T19:08:56Z</time></trkpt><trkpt lat="46.061428449244595" lon="11.1106951355836"><ele>195.0</ele><time>2026-04-19T19:08:57Z</time></trkpt><trkpt lat="46.06164135911747" lon="11.110751142492466"><ele>195.0</ele><time>2026-04-19T19:08:58Z</time></trkpt><trkpt lat="46.06185550317327" lon="11.110808715187531"><ele>193.33333333333334</ele><time>2026-04-19T19:08:59Z</time></trkpt><trkpt lat="46.062070327630444" lon="11.110866963100285"><ele>191.66666666666669</ele><time>2026-04-19T19:09:00Z</time></trkpt><trkpt lat="46.0622851357695" lon="11.110927619809642"><ele>190.0</ele><time>2026-04-19T19:09:01Z</time></trkpt><trkpt lat="46.06250031041705" lon="11.110984601100723"><ele>190.0</ele><time>2026-04-19T19:09:02Z</time></trkpt><trkpt lat="46.06271306244043" lon="11.11104042637078"><ele>190.0</ele><time>2026-04-19T19:09:03Z</time></trkpt><trkpt lat="46.06292446022141" lon="11.111098398231405"><ele>190.0</ele><time>2026-04-19T19:09:04Z</time></trkpt><trkpt lat="46.06313606625143" lon="11.111154904200987"><ele>189.66666666666669</ele><time>2026-04-19T19:09:05Z</time></trkpt><trkpt lat="46.06334765480261" lon="11.111209210616373"><ele>189.33333333333334</ele><time>2026-04-19T19:09:06Z</time></trkpt><trkpt lat="46.06355901546733" lon="11.111263869218751"><ele>189.0</ele><time>2026-04-19T19:09:07Z</time></trkpt><trkpt lat="46.06376723905086" lon="11.111321347950561"><ele>189.0</ele><time>2026-04-19T19:09:08Z</time></trkpt><trkpt lat="46.06397626420229" lon="11.111376132974941"><ele>189.0</ele><time>2026-04-19T19:09:09Z</time></trkpt><trkpt lat="46.064185102413035" lon="11.111424142392437"><ele>189.0</ele><time>2026-04-19T19:09:10Z</time></trkpt><trkpt lat="46.064396118306426" lon="11.11146138522995"><ele>189.66666666666666</ele><time>2026-04-19T19:09:11Z</time></trkpt><trkpt lat="46.06461000787612" lon="11.111484309422107"><ele>190.33333333333331</ele><time>2026-04-19T19:09:12Z</time></trkpt><trkpt lat="46.06482291253542" lon="11.1114956789614"><ele>191.0</ele><time>2026-04-19T19:09:13Z</time></trkpt><trkpt lat="46.0650356280862" lon="11.111498189899589"><ele>189.66666666666666</ele><time>2026-04-19T19:09:14Z</time></trkpt><trkpt lat="46.065251005807916" lon="11.111487633699067"><ele>188.33333333333334</ele><time>2026-04-19T19:09:15Z</time></trkpt><trkpt lat="46.06546518654218" lon="11.111460824485949"><ele>187.0</ele><time>2026-04-19T19:09:16Z</time></trkpt><trkpt lat="46.06567406596861" lon="11.111419589081692"><ele>189.33333333333334</ele><time>2026-04-19T19:09:17Z</time></trkpt><trkpt lat="46.065882408233655" lon="11.111370903611359"><ele>191.66666666666669</ele><time>2026-04-19T19:09:18Z</time></trkpt><trkpt lat="46.066091280481515" lon="11.1113076442826"><ele>194.0</ele><time>2026-04-19T19:09:19Z</time></trkpt><trkpt lat="46.066299065315036" lon="11.111234438806642"><ele>194.0</ele><time>2026-04-19T19:09:20Z</time></trkpt><trkpt lat="46.066505252398024" lon="11.11115504091129"><ele>194.0</ele><time>2026-04-19T19:09:21Z</time></trkpt><trkpt lat="46.06670724671235" lon="11.111065091331238"><ele>194.0</ele><time>2026-04-19T19:09:22Z</time></trkpt><trkpt lat="46.06690341065041" lon="11.110968606410006"><ele>195.0</ele><time>2026-04-19T19:09:23Z</time></trkpt><trkpt lat="46.06709347148366" lon="11.110871400894728"><ele>196.0</ele><time>2026-04-19T19:09:24Z</time></trkpt><trkpt lat="46.067282656263764" lon="11.110761632776669"><ele>197.0</ele><time>2026-04-19T19:09:25Z</time></trkpt><trkpt lat="46.06746855592476" lon="11.110637699727588"><ele>223.33333333333334</ele><time>2026-04-19T19:09:26Z</time></trkpt><trkpt lat="46.067649031733964" lon="11.110501785878702"><ele>249.66666666666669</ele><time>2026-04-19T19:09:27Z</time></trkpt><trkpt lat="46.06782551464243" lon="11.110354958966246"><ele>276.0</ele><time>2026-04-19T19:09:28Z</time></trkpt><trkpt lat="46.06800607002974" lon="11.110204180895458"><ele>276.0</ele><time>2026-04-19T19:09:29Z</time></trkpt><trkpt lat="46.06818701714082" lon="11.110051020202091"><ele>276.0</ele><time>2026-04-19T19:09:30Z</time></trkpt><trkpt lat="46.06836911771883" lon="11.109895541008695"><ele>276.0</ele><time>2026-04-19T19:09:31Z</time></trkpt><trkpt lat="46.068552112429664" lon="11.10973956088906"><ele>277.6666666666667</ele><time>2026-04-19T19:09:32Z</time></trkpt><trkpt lat="46.068737049242046" lon="11.109584624945981"><ele>279.33333333333337</ele><time>2026-04-19T19:09:33Z</time></trkpt><trkpt lat="46.068924607536935" lon="11.109446019113687"><ele>281.0</ele><time>2026-04-19T19:09:34Z</time></trkpt><trkpt lat="46.06911569978206" lon="11.109327508631367"><ele>274.0</ele><time>2026-04-19T19:09:35Z</time></trkpt><trkpt lat="46.06930972184585" lon="11.109224166075535"><ele>267.0</ele><time>2026-04-19T19:09:36Z</time></trkpt><trkpt lat="46.069454319842826" lon="11.109143060721559"><ele>260.0</ele><time>2026-04-19T19:09:37Z</time></trkpt><trkpt lat="46.06965454994138" lon="11.109101505568027"><ele>260.0</ele><time>2026-04-19T19:09:38Z</time></trkpt><trkpt lat="46.069857981211534" lon="11.109084867919195"><ele>260.0</ele><time>2026-04-19T19:09:39Z</time></trkpt><trkpt lat="46.070062938983796" lon="11.109094331466528"><ele>260.0</ele><time>2026-04-19T19:09:40Z</time></trkpt><trkpt lat="46.07026893820774" lon="11.109132535759517"><ele>253.0</ele><time>2026-04-19T19:09:41Z</time></trkpt><trkpt lat="46.07046997491499" lon="11.109195724294205"><ele>246.0</ele><time>2026-04-19T19:09:42Z</time></trkpt><trkpt lat="46.0706676536737" lon="11.109281855262472"><ele>239.0</ele><time>2026-04-19T19:09:43Z</time></trkpt><trkpt lat="46.070855999461756" lon="11.109393559430265"><ele>233.66666666666669</ele><time>2026-04-19T19:09:44Z</time></trkpt><trkpt lat="46.071032432460015" lon="11.109528199150805"><ele>228.33333333333331</ele><time>2026-04-19T19:09:45Z</time></trkpt><trkpt lat="46.07120237245558" lon="11.109684461517753"><ele>223.0</ele><time>2026-04-19T19:09:46Z</time></trkpt><trkpt lat="46.0713667224821" lon="11.109855976550477"><ele>217.33333333333331</ele><time>2026-04-19T19:09:47Z</time></trkpt><trkpt lat="46.07153937248085" lon="11.110029371312889"><ele>211.66666666666669</ele><time>2026-04-19T19:09:48Z</time></trkpt><trkpt lat="46.071731890751245" lon="11.110221506755602"><ele>206.0</ele><time>2026-04-19T19:09:49Z</time></trkpt><trkpt lat="46.07192405658807" lon="11.110415399167726"><ele>223.5</ele><time>2026-04-19T19:09:50Z</time></trkpt><trkpt lat="46.072116185738366" lon="11.110607200284674"><ele>241.0</ele><time>2026-04-19T19:09:51Z</time></trkpt><trkpt lat="46.072320370820314" lon="11.110821046226308"><ele>270.0</ele><time>2026-04-19T19:09:52Z</time></trkpt><trkpt lat="46.072528485081676" lon="11.111046181954402"><ele>299.0</ele><time>2026-04-19T19:09:53Z</time></trkpt><trkpt lat="46.07271981060086" lon="11.111260249950645"><ele>299.0</ele><time>2026-04-19T19:09:54Z</time></trkpt><trkpt lat="46.072906385604185" lon="11.11145650896363"><ele>299.0</ele><time>2026-04-19T19:09:55Z</time></trkpt><trkpt lat="46.07309438278216" lon="11.111641413411322"><ele>298.6666666666667</ele><time>2026-04-19T19:09:56Z</time></trkpt><trkpt lat="46.07327121164316" lon="11.111795264685071"><ele>298.3333333333333</ele><time>2026-04-19T19:09:57Z</time></trkpt><trkpt lat="46.073459012703275" lon="11.111939357789481"><ele>298.0</ele><time>2026-04-19T19:09:58Z</time></trkpt><trkpt lat="46.073654962495176" lon="11.112070479797602"><ele>298.0</ele><time>2026-04-19T19:09:59Z</time></trkpt><trkpt lat="46.073853053834256" lon="11.112190793961705"><ele>298.0</ele><time>2026-04-19T19:10:00Z</time></trkpt><trkpt lat="46.074069695250216" lon="11.112305776615472"><ele>298.0</ele><time>2026-04-19T19:10:01Z</time></trkpt><trkpt lat="46.07428628059292" lon="11.11239673053839"><ele>279.0</ele><time>2026-04-19T19:10:02Z</time></trkpt><trkpt lat="46.07450861224672" lon="11.112474603476086"><ele>260.0</ele><time>2026-04-19T19:10:03Z</time></trkpt><trkpt lat="46.07473375342161" lon="11.112541160673784"><ele>237.66666666666669</ele><time>2026-04-19T19:10:04Z</time></trkpt><trkpt lat="46.07496638547507" lon="11.11260644076529"><ele>215.33333333333331</ele><time>2026-04-19T19:10:05Z</time></trkpt><trkpt lat="46.07515360988201" lon="11.112620224107618"><ele>193.0</ele><time>2026-04-19T19:10:06Z</time></trkpt><trkpt lat="46.075426320012646" lon="11.11266043396584"><ele>193.0</ele><time>2026-04-19T19:10:07Z</time></trkpt><trkpt lat="46.075648232117416" lon="11.112676436336981"><ele>193.0</ele><time>2026-04-19T19:10:08Z</time></trkpt><trkpt lat="46.07587382413662" lon="11.112680780334772"><ele>193.0</ele><time>2026-04-19T19:10:09Z</time></trkpt><trkpt lat="46.07609906956494" lon="11.112674618398772"><ele>191.0</ele><time>2026-04-19T19:10:10Z</time></trkpt><trkpt lat="46.07632536317358" lon="11.112656893689532"><ele>189.0</ele><time>2026-04-19T19:10:11Z</time></trkpt><trkpt lat="46.076551288673244" lon="11.112626403216384"><ele>191.0</ele><time>2026-04-19T19:10:12Z</time></trkpt><trkpt lat="46.076774755267095" lon="11.112590192462898"><ele>193.0</ele><time>2026-04-19T19:10:13Z</time></trkpt><trkpt lat="46.076997311343604" lon="11.112539330087039"><ele>193.0</ele><time>2026-04-19T19:10:14Z</time></trkpt><trkpt lat="46.07721972453814" lon="11.112474879639505"><ele>193.0</ele><time>2026-04-19T19:10:15Z</time></trkpt><trkpt lat="46.077438491614124" lon="11.112396923259086"><ele>192.33333333333331</ele><time>2026-04-19T19:10:16Z</time></trkpt><trkpt lat="46.07765477795042" lon="11.112325437313219"><ele>191.66666666666666</ele><time>2026-04-19T19:10:17Z</time></trkpt><trkpt lat="46.077866300945146" lon="11.112264987802574"><ele>191.0</ele><time>2026-04-19T19:10:18Z</time></trkpt><trkpt lat="46.07807736776431" lon="11.112220381342286"><ele>190.0</ele><time>2026-04-19T19:10:19Z</time></trkpt><trkpt lat="46.07828590116435" lon="11.112204526112986"><ele>189.0</ele><time>2026-04-19T19:10:20Z</time></trkpt><trkpt lat="46.078492792365935" lon="11.11221434425076"><ele>188.0</ele><time>2026-04-19T19:10:21Z</time></trkpt><trkpt lat="46.07869917211332" lon="11.112254802912833"><ele>188.0</ele><time>2026-04-19T19:10:22Z</time></trkpt><trkpt lat="46.07890280781603" lon="11.112321354064322"><ele>188.0</ele><time>2026-04-19T19:10:23Z</time></trkpt><trkpt lat="46.079102861284305" lon="11.112404806431298"><ele>188.0</ele><time>2026-04-19T19:10:24Z</time></trkpt><trkpt lat="46.079301203602874" lon="11.112506071718439"><ele>188.66666666666666</ele><time>2026-04-19T19:10:25Z</time></trkpt><trkpt lat="46.07950014878711" lon="11.112616890357401"><ele>189.33333333333334</ele><time>2026-04-19T19:10:26Z</time></trkpt><trkpt lat="46.07969803796801" lon="11.112728085502606"><ele>190.0</ele><time>2026-04-19T19:10:27Z</time></trkpt><trkpt lat="46.07989257748051" lon="11.11283594447924"><ele>190.0</ele><time>2026-04-19T19:10:28Z</time></trkpt><trkpt lat="46.08008727830448" lon="11.1129430894148"><ele>190.0</ele><time>2026-04-19T19:10:29Z</time></trkpt><trkpt lat="46.08027912583925" lon="11.11305028028356"><ele>190.0</ele><time>2026-04-19T19:10:30Z</time></trkpt><trkpt lat="46.080469748406955" lon="11.113158777071675"><ele>190.0</ele><time>2026-04-19T19:10:31Z</time></trkpt><trkpt lat="46.08066040341557" lon="11.113267118912765"><ele>190.0</ele><time>2026-04-19T19:10:32Z</time></trkpt><trkpt lat="46.08084745420121" lon="11.113369891829025"><ele>190.0</ele><time>2026-04-19T19:10:33Z</time></trkpt><trkpt lat="46.08103236735543" lon="11.113460676188513"><ele>190.0</ele><time>2026-04-19T19:10:34Z</time></trkpt><trkpt lat="46.08121754446609" lon="11.113533763284991"><ele>190.0</ele><time>2026-04-19T19:10:35Z</time></trkpt><trkpt lat="46.081404881662316" lon="11.113587597598391"><ele>190.0</ele><time>2026-04-19T19:10:36Z</time></trkpt><trkpt lat="46.081597716116235" lon="11.11361745669539"><ele>190.66666666666669</ele><time>2026-04-19T19:10:37Z</time></trkpt><trkpt lat="46.08179029119" lon="11.113621285041363"><ele>191.33333333333334</ele><time>2026-04-19T19:10:38Z</time></trkpt><trkpt lat="46.081979046966545" lon="11.113596498678136"><ele>192.0</ele><time>2026-04-19T19:10:39Z</time></trkpt><trkpt lat="46.08216436351386" lon="11.113545686439563"><ele>192.0</ele><time>2026-04-19T19:10:40Z</time></trkpt><trkpt lat="46.08234454092409" lon="11.113467946891138"><ele>192.0</ele><time>2026-04-19T19:10:41Z</time></trkpt><trkpt lat="46.08252184382751" lon="11.113367333179516"><ele>192.0</ele><time>2026-04-19T19:10:42Z</time></trkpt><trkpt lat="46.08269342006065" lon="11.113249054468534"><ele>191.33333333333334</ele><time>2026-04-19T19:10:43Z</time></trkpt><trkpt lat="46.082857103832445" lon="11.113109837998062"><ele>190.66666666666669</ele><time>2026-04-19T19:10:44Z</time></trkpt><trkpt lat="46.08300983944549" lon="11.112951582948906"><ele>190.0</ele><time>2026-04-19T19:10:45Z</time></trkpt><trkpt lat="46.08315092010378" lon="11.11278465771428"><ele>191.0</ele><time>2026-04-19T19:10:46Z</time></trkpt><trkpt lat="46.08327530363118" lon="11.112623549835122"><ele>192.0</ele><time>2026-04-19T19:10:47Z</time></trkpt><trkpt lat="46.08336943572324" lon="11.112443878268156"><ele>193.0</ele><time>2026-04-19T19:10:48Z</time></trkpt><trkpt lat="46.08349898350642" lon="11.11231143164939"><ele>193.25</ele><time>2026-04-19T19:10:49Z</time></trkpt><trkpt lat="46.08360476043039" lon="11.112154911136944"><ele>193.5</ele><time>2026-04-19T19:10:50Z</time></trkpt><trkpt lat="46.0837087551184" lon="11.11200290158732"><ele>193.75</ele><time>2026-04-19T19:10:51Z</time></trkpt><trkpt lat="46.08381069289947" lon="11.111856358686277"><ele>194.0</ele><time>2026-04-19T19:10:52Z</time></trkpt><trkpt lat="46.08391259975883" lon="11.11171119504332"><ele>193.75</ele><time>2026-04-19T19:10:53Z</time></trkpt><trkpt lat="46.08401242602387" lon="11.111568261670092"><ele>193.5</ele><time>2026-04-19T19:10:54Z</time></trkpt><trkpt lat="46.08410211238483" lon="11.11142762666464"><ele>193.25</ele><time>2026-04-19T19:10:55Z</time></trkpt><trkpt lat="46.08417313784291" lon="11.111282199522154"><ele>193.0</ele><time>2026-04-19T19:10:56Z</time></trkpt><trkpt lat="46.08422491524291" lon="11.11112779762413"><ele>192.5</ele><time>2026-04-19T19:10:57Z</time></trkpt><trkpt lat="46.08425065360841" lon="11.11096154752865"><ele>192.0</ele><time>2026-04-19T19:10:58Z</time></trkpt><trkpt lat="46.08425057903727" lon="11.110790988282572"><ele>191.5</ele><time>2026-04-19T19:10:59Z</time></trkpt><trkpt lat="46.08421890473707" lon="11.110630468267926"><ele>191.0</ele><time>2026-04-19T19:11:00Z</time></trkpt><trkpt lat="46.08416701937896" lon="11.110488404033264"><ele>191.0</ele><time>2026-04-19T19:11:01Z</time></trkpt><trkpt lat="46.0841004862128" lon="11.11037191705226"><ele>191.0</ele><time>2026-04-19T19:11:02Z</time></trkpt><trkpt lat="46.08400225204408" lon="11.110272267535956"><ele>191.0</ele><time>2026-04-19T19:11:03Z</time></trkpt><trkpt lat="46.08391300990409" lon="11.110215999691627"><ele>191.0</ele><time>2026-04-19T19:11:04Z</time></trkpt><trkpt lat="46.083808224742725" lon="11.11017767375536"><ele>191.0</ele><time>2026-04-19T19:11:05Z</time></trkpt><trkpt lat="46.08369690459506" lon="11.110175775629164"><ele>190.8</ele><time>2026-04-19T19:11:06Z</time></trkpt><trkpt lat="46.083589992450634" lon="11.110208878135658"><ele>190.60000000000002</ele><time>2026-04-19T19:11:07Z</time></trkpt><trkpt lat="46.08348920655877" lon="11.110271551817627"><ele>190.4</ele><time>2026-04-19T19:11:08Z</time></trkpt><trkpt lat="46.08340122781377" lon="11.110362183859275"><ele>190.2</ele><time>2026-04-19T19:11:09Z</time></trkpt><trkpt lat="46.0833266053727" lon="11.110479450309175"><ele>190.0</ele><time>2026-04-19T19:11:10Z</time></trkpt><trkpt lat="46.083269644887494" lon="11.110615006827842"><ele>190.0</ele><time>2026-04-19T19:11:11Z</time></trkpt><trkpt lat="46.08322755609701" lon="11.110761777613348"><ele>190.0</ele><time>2026-04-19T19:11:12Z</time></trkpt><trkpt lat="46.08319778776091" lon="11.110910583606358"><ele>190.0</ele><time>2026-04-19T19:11:13Z</time></trkpt><trkpt lat="46.08317855952201" lon="11.111060646350271"><ele>190.0</ele><time>2026-04-19T19:11:14Z</time></trkpt><trkpt lat="46.083169140249055" lon="11.111210341350517"><ele>190.0</ele><time>2026-04-19T19:11:15Z</time></trkpt><trkpt lat="46.083168884623355" lon="11.111356993189151"><ele>190.0</ele><time>2026-04-19T19:11:16Z</time></trkpt><trkpt lat="46.08317822500449" lon="11.111502815942684"><ele>190.0</ele><time>2026-04-19T19:11:17Z</time></trkpt><trkpt lat="46.083197959070226" lon="11.111643385076185"><ele>190.0</ele><time>2026-04-19T19:11:18Z</time></trkpt><trkpt lat="46.08322695133265" lon="11.111783293443434"><ele>190.0</ele><time>2026-04-19T19:11:19Z</time></trkpt><trkpt lat="46.083257408132994" lon="11.11192476205238"><ele>190.0</ele><time>2026-04-19T19:11:20Z</time></trkpt><trkpt lat="46.08329081878868" lon="11.112065818480257"><ele>190.6</ele><time>2026-04-19T19:11:21Z</time></trkpt><trkpt lat="46.083325905806326" lon="11.112208026263005"><ele>191.2</ele><time>2026-04-19T19:11:22Z</time></trkpt><trkpt lat="46.083358987237816" lon="11.112346479267345"><ele>191.8</ele><time>2026-04-19T19:11:23Z</time></trkpt><trkpt lat="46.08339196019564" lon="11.112480402909203"><ele>192.4</ele><time>2026-04-19T19:11:24Z</time></trkpt><trkpt lat="46.08342441818777" lon="11.112610918834262"><ele>193.0</ele><time>2026-04-19T19:11:25Z</time></trkpt><trkpt lat="46.0834550710751" lon="11.112740569618575"><ele>193.0</ele><time>2026-04-19T19:11:26Z</time></trkpt><trkpt lat="46.08348364333014" lon="11.112860247580766"><ele>193.0</ele><time>2026-04-19T19:11:27Z</time></trkpt><trkpt lat="46.083506178404214" lon="11.112968265249373"><ele>193.0</ele><time>2026-04-19T19:11:28Z</time></trkpt><trkpt lat="46.08353077955934" lon="11.113119013392895"><ele>193.0</ele><time>2026-04-19T19:11:30Z</time></trkpt><trkpt lat="46.083538468084434" lon="11.113255275930213"><ele>193.0</ele><time>2026-04-19T19:11:32Z</time></trkpt><trkpt lat="46.08351357287998" lon="11.11342714109194"><ele>192.49999999999997</ele><time>2026-04-19T19:11:34Z</time></trkpt><trkpt lat="46.08348437341679" lon="11.113524608213915"><ele>192.0</ele><time>2026-04-19T19:11:35Z</time></trkpt><trkpt lat="46.08344518826664" lon="11.113627782634312"><ele>191.5</ele><time>2026-04-19T19:11:36Z</time></trkpt><trkpt lat="46.083406475026045" lon="11.113731731137527"><ele>191.0</ele><time>2026-04-19T19:11:37Z</time></trkpt><trkpt lat="46.083378069700174" lon="11.113839100560277"><ele>190.5</ele><time>2026-04-19T19:11:38Z</time></trkpt><trkpt lat="46.08336785795014" lon="11.113945346818467"><ele>190.0</ele><time>2026-04-19T19:11:39Z</time></trkpt><trkpt lat="46.08337179745323" lon="11.114057126734965"><ele>189.66666666666669</ele><time>2026-04-19T19:11:40Z</time></trkpt><trkpt lat="46.0833917630859" lon="11.114168181742599"><ele>189.33333333333334</ele><time>2026-04-19T19:11:41Z</time></trkpt><trkpt lat="46.08342557703981" lon="11.11427355437877"><ele>189.0</ele><time>2026-04-19T19:11:42Z</time></trkpt><trkpt lat="46.08347216026335" lon="11.114372646955065"><ele>188.66666666666666</ele><time>2026-04-19T19:11:43Z</time></trkpt><trkpt lat="46.08352900685369" lon="11.114458605513814"><ele>188.33333333333331</ele><time>2026-04-19T19:11:44Z</time></trkpt><trkpt lat="46.083595914381156" lon="11.114530580878268"><ele>188.0</ele><time>2026-04-19T19:11:45Z</time></trkpt><trkpt lat="46.083666273381795" lon="11.114585707534033"><ele>188.0</ele><time>2026-04-19T19:11:46Z</time></trkpt><trkpt lat="46.083740644800336" lon="11.114629506619607"><ele>188.0</ele><time>2026-04-19T19:11:47Z</time></trkpt><trkpt lat="46.083820951565755" lon="11.11465989350968"><ele>188.0</ele><time>2026-04-19T19:11:48Z</time></trkpt><trkpt lat="46.08390468737648" lon="11.114685145179246"><ele>188.0</ele><time>2026-04-19T19:11:49Z</time></trkpt><trkpt lat="46.08399004584918" lon="11.114721099218382"><ele>188.0</ele><time>2026-04-19T19:11:50Z</time></trkpt><trkpt lat="46.08407053064999" lon="11.114782724919642"><ele>188.0</ele><time>2026-04-19T19:11:51Z</time></trkpt><trkpt lat="46.08414325771137" lon="11.114868966882105"><ele>188.2</ele><time>2026-04-19T19:11:52Z</time></trkpt><trkpt lat="46.084221534451075" lon="11.114941292915152"><ele>188.4</ele><time>2026-04-19T19:11:53Z</time></trkpt><trkpt lat="46.084256897781906" lon="11.115106507387022"><ele>188.6</ele><time>2026-04-19T19:11:54Z</time></trkpt><trkpt lat="46.08430359414577" lon="11.115248340515635"><ele>188.79999999999998</ele><time>2026-04-19T19:11:55Z</time></trkpt><trkpt lat="46.08435324437288" lon="11.115397579912212"><ele>189.0</ele><time>2026-04-19T19:11:56Z</time></trkpt><trkpt lat="46.08440695705046" lon="11.11555270808794"><ele>189.0</ele><time>2026-04-19T19:11:57Z</time></trkpt><trkpt lat="46.08446183315259" lon="11.115712989777819"><ele>189.0</ele><time>2026-04-19T19:11:58Z</time></trkpt><trkpt lat="46.08451952587965" lon="11.115875829349308"><ele>189.0</ele><time>2026-04-19T19:11:59Z</time></trkpt><trkpt lat="46.084576830378566" lon="11.116040781957597"><ele>189.0</ele><time>2026-04-19T19:12:00Z</time></trkpt><trkpt lat="46.08463532055829" lon="11.116206128098636"><ele>189.25</ele><time>2026-04-19T19:12:01Z</time></trkpt><trkpt lat="46.08469415214952" lon="11.116372382234946"><ele>189.5</ele><time>2026-04-19T19:12:02Z</time></trkpt><trkpt lat="46.08475258405119" lon="11.116539224802812"><ele>189.75</ele><time>2026-04-19T19:12:03Z</time></trkpt><trkpt lat="46.084810776006336" lon="11.11670284592098"><ele>190.0</ele><time>2026-04-19T19:12:04Z</time></trkpt><trkpt lat="46.08486818566451" lon="11.11686422090989"><ele>190.0</ele><time>2026-04-19T19:12:05Z</time></trkpt><trkpt lat="46.08492479952434" lon="11.117022343729559"><ele>190.0</ele><time>2026-04-19T19:12:06Z</time></trkpt><trkpt lat="46.08498118965148" lon="11.11717953886494"><ele>190.0</ele><time>2026-04-19T19:12:07Z</time></trkpt><trkpt lat="46.085035506085646" lon="11.117334047061373"><ele>190.0</ele><time>2026-04-19T19:12:08Z</time></trkpt><trkpt lat="46.0850874711196" lon="11.117481348854506"><ele>190.2</ele><time>2026-04-19T19:12:09Z</time></trkpt><trkpt lat="46.08513640909992" lon="11.117617747479395"><ele>190.4</ele><time>2026-04-19T19:12:10Z</time></trkpt><trkpt lat="46.08518100090073" lon="11.11774799098067"><ele>190.60000000000002</ele><time>2026-04-19T19:12:11Z</time></trkpt><trkpt lat="46.08522223495488" lon="11.117869502910134"><ele>190.8</ele><time>2026-04-19T19:12:12Z</time></trkpt><trkpt lat="46.085259651794125" lon="11.1179826552523"><ele>191.0</ele><time>2026-04-19T19:12:13Z</time></trkpt><trkpt lat="46.08529126263716" lon="11.118082208067195"><ele>191.0</ele><time>2026-04-19T19:12:14Z</time></trkpt><trkpt lat="46.085317959569295" lon="11.118170217697436"><ele>191.0</ele><time>2026-04-19T19:12:15Z</time></trkpt><trkpt lat="46.085358088378484" lon="11.118338719039997"><ele>191.0</ele><time>2026-04-19T19:12:17Z</time></trkpt><trkpt lat="46.08537419596882" lon="11.118520643208617"><ele>191.0</ele><time>2026-04-19T19:12:19Z</time></trkpt><trkpt lat="46.08536638968807" lon="11.118619188312326"><ele>191.0</ele><time>2026-04-19T19:12:20Z</time></trkpt><trkpt lat="46.08535177868352" lon="11.118721124509914"><ele>191.0</ele><time>2026-04-19T19:12:21Z</time></trkpt><trkpt lat="46.08534406054567" lon="11.118825443892607"><ele>191.0</ele><time>2026-04-19T19:12:22Z</time></trkpt><trkpt lat="46.08535475694491" lon="11.118932539388998"><ele>191.0</ele><time>2026-04-19T19:12:23Z</time></trkpt><trkpt lat="46.08538662329061" lon="11.119030712814853"><ele>191.0</ele><time>2026-04-19T19:12:24Z</time></trkpt><trkpt lat="46.08543965412008" lon="11.11911320895398"><ele>191.0</ele><time>2026-04-19T19:12:25Z</time></trkpt><trkpt lat="46.08550942869598" lon="11.119178980981088"><ele>191.0</ele><time>2026-04-19T19:12:26Z</time></trkpt><trkpt lat="46.08558378255105" lon="11.119237485603515"><ele>191.20000000000002</ele><time>2026-04-19T19:12:27Z</time></trkpt><trkpt lat="46.08564815955712" lon="11.11930401288341"><ele>191.4</ele><time>2026-04-19T19:12:28Z</time></trkpt><trkpt lat="46.08570530491487" lon="11.119398192108203"><ele>191.6</ele><time>2026-04-19T19:12:29Z</time></trkpt><trkpt lat="46.08574937860311" lon="11.119513205275371"><ele>191.8</ele><time>2026-04-19T19:12:30Z</time></trkpt><trkpt lat="46.08578648744277" lon="11.11964440546247"><ele>192.0</ele><time>2026-04-19T19:12:31Z</time></trkpt><trkpt lat="46.08582263056346" lon="11.119779090018639"><ele>191.6</ele><time>2026-04-19T19:12:32Z</time></trkpt><trkpt lat="46.08585604403291" lon="11.119917234025076"><ele>191.2</ele><time>2026-04-19T19:12:33Z</time></trkpt><trkpt lat="46.08589071313863" lon="11.12004859574978"><ele>190.8</ele><time>2026-04-19T19:12:34Z</time></trkpt><trkpt lat="46.085924347140306" lon="11.120172386136598"><ele>190.4</ele><time>2026-04-19T19:12:35Z</time></trkpt><trkpt lat="46.08595373291243" lon="11.120288684071431"><ele>190.0</ele><time>2026-04-19T19:12:36Z</time></trkpt><trkpt lat="46.08598829094179" lon="11.12038427217728"><ele>190.0</ele><time>2026-04-19T19:12:37Z</time></trkpt><trkpt lat="46.086039578910885" lon="11.120452737899498"><ele>190.0</ele><time>2026-04-19T19:12:38Z</time></trkpt><trkpt lat="46.08610687005039" lon="11.120480170488237"><ele>190.0</ele><time>2026-04-19T19:12:39Z</time></trkpt><trkpt lat="46.08618712009806" lon="11.12046480450576"><ele>190.0</ele><time>2026-04-19T19:12:40Z</time></trkpt><trkpt lat="46.08627187586353" lon="11.120420514063024"><ele>190.0</ele><time>2026-04-19T19:12:41Z</time></trkpt><trkpt lat="46.08636159553348" lon="11.12036819268161"><ele>190.0</ele><time>2026-04-19T19:12:42Z</time></trkpt><trkpt lat="46.08645532141195" lon="11.120313245054266"><ele>190.0</ele><time>2026-04-19T19:12:43Z</time></trkpt><trkpt lat="46.08655610461134" lon="11.120254336992062"><ele>190.0</ele><time>2026-04-19T19:12:44Z</time></trkpt><trkpt lat="46.086660075187474" lon="11.120197835602488"><ele>190.0</ele><time>2026-04-19T19:12:45Z</time></trkpt><trkpt lat="46.086761424095705" lon="11.120143360301345"><ele>190.0</ele><time>2026-04-19T19:12:46Z</time></trkpt><trkpt lat="46.08686269135437" lon="11.120088033068694"><ele>190.0</ele><time>2026-04-19T19:12:47Z</time></trkpt><trkpt lat="46.086970744286766" lon="11.120027416352071"><ele>190.25</ele><time>2026-04-19T19:12:48Z</time></trkpt><trkpt lat="46.08708442580415" lon="11.119962583488482"><ele>190.5</ele><time>2026-04-19T19:12:49Z</time></trkpt><trkpt lat="46.08720278428593" lon="11.119894884406705"><ele>190.75</ele><time>2026-04-19T19:12:50Z</time></trkpt><trkpt lat="46.087321124178054" lon="11.119825677419355"><ele>191.0</ele><time>2026-04-19T19:12:51Z</time></trkpt><trkpt lat="46.08744011455713" lon="11.119759605077638"><ele>191.0</ele><time>2026-04-19T19:12:52Z</time></trkpt><trkpt lat="46.08755841782014" lon="11.119694489755188"><ele>191.0</ele><time>2026-04-19T19:12:53Z</time></trkpt><trkpt lat="46.08767357992205" lon="11.119635521320033"><ele>191.0</ele><time>2026-04-19T19:12:54Z</time></trkpt><trkpt lat="46.08777782914085" lon="11.119584514480074"><ele>191.0</ele><time>2026-04-19T19:12:55Z</time></trkpt><trkpt lat="46.087874078672364" lon="11.11953978961679"><ele>191.0</ele><time>2026-04-19T19:12:56Z</time></trkpt><trkpt lat="46.08796023568755" lon="11.11949973374771"><ele>191.0</ele><time>2026-04-19T19:12:57Z</time></trkpt><trkpt lat="46.08803983103718" lon="11.119460988583512"><ele>191.0</ele><time>2026-04-19T19:12:58Z</time></trkpt><trkpt lat="46.088112678587166" lon="11.119424712541145"><ele>191.0</ele><time>2026-04-19T19:12:59Z</time></trkpt><trkpt lat="46.08817946043244" lon="11.119393044179871"><ele>191.0</ele><time>2026-04-19T19:13:00Z</time></trkpt><trkpt lat="46.08824104020125" lon="11.119365035207919"><ele>191.0</ele><time>2026-04-19T19:13:01Z</time></trkpt><trkpt lat="46.08834043985219" lon="11.119324709841889"><ele>191.0</ele><time>2026-04-19T19:13:03Z</time></trkpt><trkpt lat="46.08841428587661" lon="11.119306154936728"><ele>191.0</ele><time>2026-04-19T19:13:06Z</time></trkpt><trkpt lat="46.08839539769407" lon="11.119396873142808"><ele>191.0</ele><time>2026-04-19T19:13:08Z</time></trkpt><trkpt lat="46.08839273014593" lon="11.119520849846651"><ele>191.0</ele><time>2026-04-19T19:13:11Z</time></trkpt><trkpt lat="46.088400286187444" lon="11.119611325641696"><ele>191.0</ele><time>2026-04-19T19:13:13Z</time></trkpt><trkpt lat="46.08841217406627" lon="11.11970724573086"><ele>191.0</ele><time>2026-04-19T19:13:16Z</time></trkpt><trkpt lat="46.08857117943657" lon="11.119899994485287"><ele>191.0</ele><time>2026-04-19T19:13:53Z</time></trkpt><trkpt lat="46.08868026848522" lon="11.119869168101106"><ele>191.0</ele><time>2026-04-19T19:13:59Z</time></trkpt><trkpt lat="46.08876842430535" lon="11.119844257025239"><ele>191.0</ele><time>2026-04-19T19:14:02Z</time></trkpt><trkpt lat="46.08883648342646" lon="11.119825024870877"><ele>191.0</ele><time>2026-04-19T19:14:04Z</time></trkpt><trkpt lat="46.08872167832879" lon="11.119857466504843"><ele>191.0</ele><time>2026-04-19T19:14:07Z</time></trkpt><trkpt lat="46.088788420295174" lon="11.119838606552365"><ele>191.0</ele><time>2026-04-19T19:14:12Z</time></trkpt><trkpt lat="46.088852823693365" lon="11.119820407432833"><ele>191.0</ele><time>2026-04-19T19:14:17Z</time></trkpt><trkpt lat="46.088924706544255" lon="11.119816680409865"><ele>191.0</ele><time>2026-04-19T19:14:23Z</time></trkpt><trkpt lat="46.08913275315295" lon="11.120295447432731"><ele>191.0</ele><time>2026-04-19T19:14:36Z</time></trkpt><trkpt lat="46.08904759896011" lon="11.120261576315425"><ele>191.0</ele><time>2026-04-19T19:14:47Z</time></trkpt><trkpt lat="46.08878204111175" lon="11.120001710195053"><ele>191.0</ele><time>2026-04-19T19:15:34.594Z</time></trkpt><trkpt lat="46.08858816022336" lon="11.119822098715536"><ele>191.0</ele><time>2026-04-19T19:15:36.423Z</time></trkpt><trkpt lat="46.088373443164656" lon="11.11941987101539"><ele>191.0</ele><time>2026-04-19T19:18:05.666Z</time></trkpt><trkpt lat="46.08845916230842" lon="11.119616193602557"><ele>191.0</ele><time>2026-04-19T19:18:45.881Z</time></trkpt><trkpt lat="46.08848958246188" lon="11.119719840478774"><ele>191.0</ele><time>2026-04-19T19:27:20.012Z</time></trkpt><trkpt lat="46.08845948726047" lon="11.119620057383269"><ele>191.0</ele><time>2026-04-19T19:35:38.596Z</time></trkpt></trkseg></trk></gpx>